<?xml version="1.0" encoding="UTF-8" standalone="no" ?>
<gpx xmlns="http://www.topografix.com/GPX/1/1" xmlns:xsi="http://www.w3.org/2001/XMLSchema-instance" xsi:schemaLocation="http://www.topografix.com/GPX/1/1 http://www.topografix.com/GPX/1/1/gpx.xsd" version="1.1" creator="VisuGPX - https://www.visugpx.com">
  <metadata>
    <name>2017-12-23 Bike ride-Georges de Reneins O</name>
    <desc><![CDATA[2017-12-23 Bike ride-Georges de Reneins O]]></desc>
  </metadata>
  <wpt lat="45.9246" lon="4.73714">
    <ele>174</ele>
    <name><![CDATA[2017-12-23 10:49 (Start)]]></name>
  </wpt>
  <wpt lat="45.9246" lon="4.7371">
    <ele>174</ele>
    <name><![CDATA[2017-12-23 10:49 (End)]]></name>
    <desc><![CDATA[Created by Google My Tracks on Android  Name: 2017-12-23 10:49 Activity type: biking Description: - Total distance: 46.51 km (28.9 mi) Total time: 2:39:38 Moving time: 2:33:09 Average speed: 17.48 km/h (10.9 mi/h) Average moving speed: 18.22 km/h (11.3 mi/h) Max speed: 48.24 km/h (30.0 mi/h) Average pace: 3:26 min/km (5:31 min/mi) Average moving pace: 3:18 min/km (5:18 min/mi) Fastest pace: 1:15 min/km (2:00 min/mi) Max elevation: 283 m (929 ft) Min elevation: 212 m (694 ft) Elevation gain: 543 m (1782 ft) Max grade: 23 % Min grade: -24 % Recorded: 23/12/2017 10:49]]></desc>
  </wpt>
  <trk>
    <name><![CDATA[2017-12-23 10:49]]></name>
    <trkseg>
      <trkpt lat="45.9246" lon="4.73714">
        <ele>174</ele>
        <time>2017-12-23T09:49:07.257Z</time>
      </trkpt>
      <trkpt lat="45.92463" lon="4.7371">
        <ele>174</ele>
        <time>2017-12-23T09:49:07.785Z</time>
      </trkpt>
      <trkpt lat="45.92469" lon="4.73708">
        <ele>174</ele>
        <time>2017-12-23T09:49:09Z</time>
      </trkpt>
      <trkpt lat="45.92471" lon="4.73717">
        <ele>174</ele>
        <time>2017-12-23T09:49:27Z</time>
      </trkpt>
      <trkpt lat="45.92471" lon="4.73717">
        <ele>174</ele>
        <time>2017-12-23T09:49:28Z</time>
      </trkpt>
      <trkpt lat="45.92471" lon="4.73717">
        <ele>174</ele>
        <time>2017-12-23T09:49:29Z</time>
      </trkpt>
      <trkpt lat="45.92475" lon="4.73706">
        <ele>174</ele>
        <time>2017-12-23T09:49:37Z</time>
      </trkpt>
      <trkpt lat="45.92475" lon="4.73703">
        <ele>174</ele>
        <time>2017-12-23T09:49:38Z</time>
      </trkpt>
      <trkpt lat="45.92475" lon="4.73691">
        <ele>174</ele>
        <time>2017-12-23T09:49:42Z</time>
      </trkpt>
      <trkpt lat="45.92475" lon="4.73688">
        <ele>174</ele>
        <time>2017-12-23T09:49:43Z</time>
      </trkpt>
      <trkpt lat="45.92474" lon="4.73677">
        <ele>174</ele>
        <time>2017-12-23T09:49:46Z</time>
      </trkpt>
      <trkpt lat="45.92474" lon="4.73673">
        <ele>174</ele>
        <time>2017-12-23T09:49:47Z</time>
      </trkpt>
      <trkpt lat="45.92476" lon="4.7366">
        <ele>174</ele>
        <time>2017-12-23T09:49:50Z</time>
      </trkpt>
      <trkpt lat="45.92476" lon="4.73656">
        <ele>174</ele>
        <time>2017-12-23T09:49:51Z</time>
      </trkpt>
      <trkpt lat="45.92478" lon="4.73645">
        <ele>174</ele>
        <time>2017-12-23T09:49:54Z</time>
      </trkpt>
      <trkpt lat="45.9248" lon="4.73642">
        <ele>174</ele>
        <time>2017-12-23T09:49:55Z</time>
      </trkpt>
      <trkpt lat="45.92486" lon="4.73639">
        <ele>174</ele>
        <time>2017-12-23T09:49:57Z</time>
      </trkpt>
      <trkpt lat="45.9249" lon="4.73639">
        <ele>174</ele>
        <time>2017-12-23T09:49:58Z</time>
      </trkpt>
      <trkpt lat="45.92497" lon="4.73641">
        <ele>174</ele>
        <time>2017-12-23T09:50:00Z</time>
      </trkpt>
      <trkpt lat="45.92501" lon="4.73641">
        <ele>174</ele>
        <time>2017-12-23T09:50:01Z</time>
      </trkpt>
      <trkpt lat="45.92509" lon="4.73641">
        <ele>174</ele>
        <time>2017-12-23T09:50:03Z</time>
      </trkpt>
      <trkpt lat="45.92513" lon="4.7364">
        <ele>174</ele>
        <time>2017-12-23T09:50:04Z</time>
      </trkpt>
      <trkpt lat="45.92518" lon="4.73639">
        <ele>173</ele>
        <time>2017-12-23T09:50:05Z</time>
      </trkpt>
      <trkpt lat="45.92522" lon="4.73639">
        <ele>173</ele>
        <time>2017-12-23T09:50:06Z</time>
      </trkpt>
      <trkpt lat="45.92527" lon="4.73638">
        <ele>173</ele>
        <time>2017-12-23T09:50:07Z</time>
      </trkpt>
      <trkpt lat="45.92532" lon="4.73638">
        <ele>173</ele>
        <time>2017-12-23T09:50:08Z</time>
      </trkpt>
      <trkpt lat="45.9254" lon="4.73637">
        <ele>173</ele>
        <time>2017-12-23T09:50:10Z</time>
      </trkpt>
      <trkpt lat="45.92544" lon="4.73635">
        <ele>173</ele>
        <time>2017-12-23T09:50:11Z</time>
      </trkpt>
      <trkpt lat="45.92549" lon="4.73634">
        <ele>173</ele>
        <time>2017-12-23T09:50:12Z</time>
      </trkpt>
      <trkpt lat="45.92554" lon="4.73633">
        <ele>173</ele>
        <time>2017-12-23T09:50:13Z</time>
      </trkpt>
      <trkpt lat="45.92558" lon="4.73632">
        <ele>173</ele>
        <time>2017-12-23T09:50:14Z</time>
      </trkpt>
      <trkpt lat="45.92563" lon="4.73631">
        <ele>173</ele>
        <time>2017-12-23T09:50:15Z</time>
      </trkpt>
      <trkpt lat="45.92572" lon="4.73629">
        <ele>173</ele>
        <time>2017-12-23T09:50:17Z</time>
      </trkpt>
      <trkpt lat="45.92576" lon="4.73628">
        <ele>173</ele>
        <time>2017-12-23T09:50:18Z</time>
      </trkpt>
      <trkpt lat="45.92584" lon="4.73626">
        <ele>172</ele>
        <time>2017-12-23T09:50:20Z</time>
      </trkpt>
      <trkpt lat="45.92589" lon="4.73626">
        <ele>172</ele>
        <time>2017-12-23T09:50:21Z</time>
      </trkpt>
      <trkpt lat="45.92594" lon="4.73624">
        <ele>173</ele>
        <time>2017-12-23T09:50:22Z</time>
      </trkpt>
      <trkpt lat="45.92598" lon="4.73624">
        <ele>173</ele>
        <time>2017-12-23T09:50:23Z</time>
      </trkpt>
      <trkpt lat="45.92603" lon="4.73624">
        <ele>173</ele>
        <time>2017-12-23T09:50:24Z</time>
      </trkpt>
      <trkpt lat="45.92608" lon="4.73625">
        <ele>173</ele>
        <time>2017-12-23T09:50:25Z</time>
      </trkpt>
      <trkpt lat="45.92613" lon="4.73627">
        <ele>173</ele>
        <time>2017-12-23T09:50:26Z</time>
      </trkpt>
      <trkpt lat="45.92617" lon="4.7363">
        <ele>173</ele>
        <time>2017-12-23T09:50:27Z</time>
      </trkpt>
      <trkpt lat="45.92621" lon="4.73634">
        <ele>173</ele>
        <time>2017-12-23T09:50:28Z</time>
      </trkpt>
      <trkpt lat="45.92624" lon="4.73638">
        <ele>173</ele>
        <time>2017-12-23T09:50:29Z</time>
      </trkpt>
      <trkpt lat="45.92627" lon="4.73643">
        <ele>173</ele>
        <time>2017-12-23T09:50:30Z</time>
      </trkpt>
      <trkpt lat="45.92629" lon="4.73649">
        <ele>173</ele>
        <time>2017-12-23T09:50:31Z</time>
      </trkpt>
      <trkpt lat="45.92631" lon="4.73655">
        <ele>173</ele>
        <time>2017-12-23T09:50:32Z</time>
      </trkpt>
      <trkpt lat="45.92634" lon="4.7366">
        <ele>173</ele>
        <time>2017-12-23T09:50:33Z</time>
      </trkpt>
      <trkpt lat="45.92638" lon="4.73665">
        <ele>173</ele>
        <time>2017-12-23T09:50:34Z</time>
      </trkpt>
      <trkpt lat="45.92641" lon="4.73671">
        <ele>173</ele>
        <time>2017-12-23T09:50:35Z</time>
      </trkpt>
      <trkpt lat="45.92645" lon="4.73676">
        <ele>173</ele>
        <time>2017-12-23T09:50:36Z</time>
      </trkpt>
      <trkpt lat="45.92648" lon="4.73681">
        <ele>173</ele>
        <time>2017-12-23T09:50:37Z</time>
      </trkpt>
      <trkpt lat="45.92652" lon="4.73686">
        <ele>173</ele>
        <time>2017-12-23T09:50:38Z</time>
      </trkpt>
      <trkpt lat="45.92656" lon="4.73691">
        <ele>173</ele>
        <time>2017-12-23T09:50:39Z</time>
      </trkpt>
      <trkpt lat="45.9266" lon="4.73695">
        <ele>173</ele>
        <time>2017-12-23T09:50:40Z</time>
      </trkpt>
      <trkpt lat="45.92664" lon="4.73698">
        <ele>173</ele>
        <time>2017-12-23T09:50:41Z</time>
      </trkpt>
      <trkpt lat="45.92669" lon="4.73701">
        <ele>174</ele>
        <time>2017-12-23T09:50:42Z</time>
      </trkpt>
      <trkpt lat="45.92674" lon="4.73704">
        <ele>174</ele>
        <time>2017-12-23T09:50:43Z</time>
      </trkpt>
      <trkpt lat="45.92679" lon="4.73707">
        <ele>173</ele>
        <time>2017-12-23T09:50:44Z</time>
      </trkpt>
      <trkpt lat="45.92685" lon="4.73711">
        <ele>173</ele>
        <time>2017-12-23T09:50:45Z</time>
      </trkpt>
      <trkpt lat="45.9269" lon="4.73712">
        <ele>173</ele>
        <time>2017-12-23T09:50:46Z</time>
      </trkpt>
      <trkpt lat="45.92695" lon="4.73713">
        <ele>173</ele>
        <time>2017-12-23T09:50:47Z</time>
      </trkpt>
      <trkpt lat="45.927" lon="4.73714">
        <ele>173</ele>
        <time>2017-12-23T09:50:48Z</time>
      </trkpt>
      <trkpt lat="45.92706" lon="4.73715">
        <ele>173</ele>
        <time>2017-12-23T09:50:49Z</time>
      </trkpt>
      <trkpt lat="45.92711" lon="4.73716">
        <ele>173</ele>
        <time>2017-12-23T09:50:50Z</time>
      </trkpt>
      <trkpt lat="45.92715" lon="4.73718">
        <ele>173</ele>
        <time>2017-12-23T09:50:51Z</time>
      </trkpt>
      <trkpt lat="45.9272" lon="4.73718">
        <ele>173</ele>
        <time>2017-12-23T09:50:52Z</time>
      </trkpt>
      <trkpt lat="45.92725" lon="4.73719">
        <ele>173</ele>
        <time>2017-12-23T09:50:53Z</time>
      </trkpt>
      <trkpt lat="45.92729" lon="4.7372">
        <ele>173</ele>
        <time>2017-12-23T09:50:54Z</time>
      </trkpt>
      <trkpt lat="45.92734" lon="4.73721">
        <ele>173</ele>
        <time>2017-12-23T09:50:55Z</time>
      </trkpt>
      <trkpt lat="45.92739" lon="4.73723">
        <ele>173</ele>
        <time>2017-12-23T09:50:56Z</time>
      </trkpt>
      <trkpt lat="45.92743" lon="4.73725">
        <ele>173</ele>
        <time>2017-12-23T09:50:57Z</time>
      </trkpt>
      <trkpt lat="45.92748" lon="4.73725">
        <ele>173</ele>
        <time>2017-12-23T09:50:58Z</time>
      </trkpt>
      <trkpt lat="45.92753" lon="4.73727">
        <ele>172</ele>
        <time>2017-12-23T09:50:59Z</time>
      </trkpt>
      <trkpt lat="45.92758" lon="4.73728">
        <ele>172</ele>
        <time>2017-12-23T09:51:00Z</time>
      </trkpt>
      <trkpt lat="45.92763" lon="4.73729">
        <ele>172</ele>
        <time>2017-12-23T09:51:01Z</time>
      </trkpt>
      <trkpt lat="45.92768" lon="4.73737">
        <ele>172</ele>
        <time>2017-12-23T09:51:03Z</time>
      </trkpt>
      <trkpt lat="45.92772" lon="4.73739">
        <ele>172</ele>
        <time>2017-12-23T09:51:04Z</time>
      </trkpt>
      <trkpt lat="45.92781" lon="4.73742">
        <ele>172</ele>
        <time>2017-12-23T09:51:07Z</time>
      </trkpt>
      <trkpt lat="45.92785" lon="4.73732">
        <ele>172</ele>
        <time>2017-12-23T09:51:08Z</time>
      </trkpt>
      <trkpt lat="45.92788" lon="4.73726">
        <ele>172</ele>
        <time>2017-12-23T09:51:09Z</time>
      </trkpt>
      <trkpt lat="45.92789" lon="4.73719">
        <ele>172</ele>
        <time>2017-12-23T09:51:10Z</time>
      </trkpt>
      <trkpt lat="45.92791" lon="4.73713">
        <ele>172</ele>
        <time>2017-12-23T09:51:11Z</time>
      </trkpt>
      <trkpt lat="45.92792" lon="4.73706">
        <ele>172</ele>
        <time>2017-12-23T09:51:12Z</time>
      </trkpt>
      <trkpt lat="45.92794" lon="4.73699">
        <ele>172</ele>
        <time>2017-12-23T09:51:13Z</time>
      </trkpt>
      <trkpt lat="45.92795" lon="4.73693">
        <ele>172</ele>
        <time>2017-12-23T09:51:14Z</time>
      </trkpt>
      <trkpt lat="45.92796" lon="4.73686">
        <ele>172</ele>
        <time>2017-12-23T09:51:15Z</time>
      </trkpt>
      <trkpt lat="45.92797" lon="4.73679">
        <ele>172</ele>
        <time>2017-12-23T09:51:16Z</time>
      </trkpt>
      <trkpt lat="45.92799" lon="4.73673">
        <ele>172</ele>
        <time>2017-12-23T09:51:17Z</time>
      </trkpt>
      <trkpt lat="45.92801" lon="4.73666">
        <ele>172</ele>
        <time>2017-12-23T09:51:18Z</time>
      </trkpt>
      <trkpt lat="45.92803" lon="4.73654">
        <ele>172</ele>
        <time>2017-12-23T09:51:20Z</time>
      </trkpt>
      <trkpt lat="45.92805" lon="4.73648">
        <ele>172</ele>
        <time>2017-12-23T09:51:21Z</time>
      </trkpt>
      <trkpt lat="45.9281" lon="4.73637">
        <ele>172</ele>
        <time>2017-12-23T09:51:23Z</time>
      </trkpt>
      <trkpt lat="45.92812" lon="4.73633">
        <ele>172</ele>
        <time>2017-12-23T09:51:24Z</time>
      </trkpt>
      <trkpt lat="45.92817" lon="4.73625">
        <ele>172</ele>
        <time>2017-12-23T09:51:26Z</time>
      </trkpt>
      <trkpt lat="45.9282" lon="4.7362">
        <ele>172</ele>
        <time>2017-12-23T09:51:27Z</time>
      </trkpt>
      <trkpt lat="45.92821" lon="4.73613">
        <ele>172</ele>
        <time>2017-12-23T09:51:28Z</time>
      </trkpt>
      <trkpt lat="45.92822" lon="4.73607">
        <ele>171</ele>
        <time>2017-12-23T09:51:29Z</time>
      </trkpt>
      <trkpt lat="45.92821" lon="4.736">
        <ele>171</ele>
        <time>2017-12-23T09:51:30Z</time>
      </trkpt>
      <trkpt lat="45.92821" lon="4.73593">
        <ele>171</ele>
        <time>2017-12-23T09:51:31Z</time>
      </trkpt>
      <trkpt lat="45.92822" lon="4.73586">
        <ele>171</ele>
        <time>2017-12-23T09:51:32Z</time>
      </trkpt>
      <trkpt lat="45.92822" lon="4.73579">
        <ele>171</ele>
        <time>2017-12-23T09:51:33Z</time>
      </trkpt>
      <trkpt lat="45.92822" lon="4.73571">
        <ele>171</ele>
        <time>2017-12-23T09:51:34Z</time>
      </trkpt>
      <trkpt lat="45.92823" lon="4.73564">
        <ele>171</ele>
        <time>2017-12-23T09:51:35Z</time>
      </trkpt>
      <trkpt lat="45.92823" lon="4.73557">
        <ele>171</ele>
        <time>2017-12-23T09:51:36Z</time>
      </trkpt>
      <trkpt lat="45.92824" lon="4.7355">
        <ele>171</ele>
        <time>2017-12-23T09:51:37Z</time>
      </trkpt>
      <trkpt lat="45.92825" lon="4.73542">
        <ele>171</ele>
        <time>2017-12-23T09:51:38Z</time>
      </trkpt>
      <trkpt lat="45.92826" lon="4.73535">
        <ele>172</ele>
        <time>2017-12-23T09:51:39Z</time>
      </trkpt>
      <trkpt lat="45.92826" lon="4.73528">
        <ele>172</ele>
        <time>2017-12-23T09:51:40Z</time>
      </trkpt>
      <trkpt lat="45.92827" lon="4.7352">
        <ele>172</ele>
        <time>2017-12-23T09:51:41Z</time>
      </trkpt>
      <trkpt lat="45.92828" lon="4.73513">
        <ele>172</ele>
        <time>2017-12-23T09:51:42Z</time>
      </trkpt>
      <trkpt lat="45.92829" lon="4.73505">
        <ele>172</ele>
        <time>2017-12-23T09:51:43Z</time>
      </trkpt>
      <trkpt lat="45.9283" lon="4.73498">
        <ele>172</ele>
        <time>2017-12-23T09:51:44Z</time>
      </trkpt>
      <trkpt lat="45.92832" lon="4.73491">
        <ele>172</ele>
        <time>2017-12-23T09:51:45Z</time>
      </trkpt>
      <trkpt lat="45.92833" lon="4.73483">
        <ele>172</ele>
        <time>2017-12-23T09:51:46Z</time>
      </trkpt>
      <trkpt lat="45.92834" lon="4.73475">
        <ele>172</ele>
        <time>2017-12-23T09:51:47Z</time>
      </trkpt>
      <trkpt lat="45.92835" lon="4.73467">
        <ele>172</ele>
        <time>2017-12-23T09:51:48Z</time>
      </trkpt>
      <trkpt lat="45.92836" lon="4.7346">
        <ele>172</ele>
        <time>2017-12-23T09:51:49Z</time>
      </trkpt>
      <trkpt lat="45.92837" lon="4.73451">
        <ele>172</ele>
        <time>2017-12-23T09:51:50Z</time>
      </trkpt>
      <trkpt lat="45.92838" lon="4.73444">
        <ele>172</ele>
        <time>2017-12-23T09:51:51Z</time>
      </trkpt>
      <trkpt lat="45.92839" lon="4.73436">
        <ele>172</ele>
        <time>2017-12-23T09:51:52Z</time>
      </trkpt>
      <trkpt lat="45.9284" lon="4.73428">
        <ele>172</ele>
        <time>2017-12-23T09:51:53Z</time>
      </trkpt>
      <trkpt lat="45.9284" lon="4.7342">
        <ele>172</ele>
        <time>2017-12-23T09:51:54Z</time>
      </trkpt>
      <trkpt lat="45.92841" lon="4.73412">
        <ele>172</ele>
        <time>2017-12-23T09:51:55Z</time>
      </trkpt>
      <trkpt lat="45.92842" lon="4.73403">
        <ele>172</ele>
        <time>2017-12-23T09:51:56Z</time>
      </trkpt>
      <trkpt lat="45.92844" lon="4.73397">
        <ele>172</ele>
        <time>2017-12-23T09:51:57Z</time>
      </trkpt>
      <trkpt lat="45.92845" lon="4.73389">
        <ele>172</ele>
        <time>2017-12-23T09:51:58Z</time>
      </trkpt>
      <trkpt lat="45.92846" lon="4.73382">
        <ele>172</ele>
        <time>2017-12-23T09:51:59Z</time>
      </trkpt>
      <trkpt lat="45.92847" lon="4.73373">
        <ele>171</ele>
        <time>2017-12-23T09:52:00Z</time>
      </trkpt>
      <trkpt lat="45.92848" lon="4.73365">
        <ele>171</ele>
        <time>2017-12-23T09:52:01Z</time>
      </trkpt>
      <trkpt lat="45.92849" lon="4.73358">
        <ele>171</ele>
        <time>2017-12-23T09:52:02Z</time>
      </trkpt>
      <trkpt lat="45.9285" lon="4.73351">
        <ele>171</ele>
        <time>2017-12-23T09:52:03Z</time>
      </trkpt>
      <trkpt lat="45.92851" lon="4.73345">
        <ele>171</ele>
        <time>2017-12-23T09:52:04Z</time>
      </trkpt>
      <trkpt lat="45.92852" lon="4.73337">
        <ele>171</ele>
        <time>2017-12-23T09:52:05Z</time>
      </trkpt>
      <trkpt lat="45.92852" lon="4.73332">
        <ele>171</ele>
        <time>2017-12-23T09:52:06Z</time>
      </trkpt>
      <trkpt lat="45.92854" lon="4.73322">
        <ele>171</ele>
        <time>2017-12-23T09:52:07Z</time>
      </trkpt>
      <trkpt lat="45.92854" lon="4.73314">
        <ele>171</ele>
        <time>2017-12-23T09:52:08Z</time>
      </trkpt>
      <trkpt lat="45.92854" lon="4.73306">
        <ele>171</ele>
        <time>2017-12-23T09:52:09Z</time>
      </trkpt>
      <trkpt lat="45.92855" lon="4.73298">
        <ele>171</ele>
        <time>2017-12-23T09:52:10Z</time>
      </trkpt>
      <trkpt lat="45.92856" lon="4.73289">
        <ele>171</ele>
        <time>2017-12-23T09:52:11Z</time>
      </trkpt>
      <trkpt lat="45.92858" lon="4.7328">
        <ele>171</ele>
        <time>2017-12-23T09:52:12Z</time>
      </trkpt>
      <trkpt lat="45.92858" lon="4.73273">
        <ele>171</ele>
        <time>2017-12-23T09:52:13Z</time>
      </trkpt>
      <trkpt lat="45.92859" lon="4.73264">
        <ele>171</ele>
        <time>2017-12-23T09:52:14Z</time>
      </trkpt>
      <trkpt lat="45.9286" lon="4.73257">
        <ele>171</ele>
        <time>2017-12-23T09:52:15Z</time>
      </trkpt>
      <trkpt lat="45.92861" lon="4.7325">
        <ele>171</ele>
        <time>2017-12-23T09:52:16Z</time>
      </trkpt>
      <trkpt lat="45.92861" lon="4.73242">
        <ele>171</ele>
        <time>2017-12-23T09:52:17Z</time>
      </trkpt>
      <trkpt lat="45.92863" lon="4.73235">
        <ele>171</ele>
        <time>2017-12-23T09:52:18Z</time>
      </trkpt>
      <trkpt lat="45.92863" lon="4.73228">
        <ele>171</ele>
        <time>2017-12-23T09:52:19Z</time>
      </trkpt>
      <trkpt lat="45.92864" lon="4.73222">
        <ele>171</ele>
        <time>2017-12-23T09:52:20Z</time>
      </trkpt>
      <trkpt lat="45.92865" lon="4.73215">
        <ele>171</ele>
        <time>2017-12-23T09:52:21Z</time>
      </trkpt>
      <trkpt lat="45.92865" lon="4.73208">
        <ele>171</ele>
        <time>2017-12-23T09:52:22Z</time>
      </trkpt>
      <trkpt lat="45.92866" lon="4.732">
        <ele>171</ele>
        <time>2017-12-23T09:52:23Z</time>
      </trkpt>
      <trkpt lat="45.92867" lon="4.73192">
        <ele>171</ele>
        <time>2017-12-23T09:52:24Z</time>
      </trkpt>
      <trkpt lat="45.92869" lon="4.73185">
        <ele>171</ele>
        <time>2017-12-23T09:52:25Z</time>
      </trkpt>
      <trkpt lat="45.92869" lon="4.73177">
        <ele>171</ele>
        <time>2017-12-23T09:52:26Z</time>
      </trkpt>
      <trkpt lat="45.9287" lon="4.73169">
        <ele>171</ele>
        <time>2017-12-23T09:52:27Z</time>
      </trkpt>
      <trkpt lat="45.92872" lon="4.73161">
        <ele>171</ele>
        <time>2017-12-23T09:52:28Z</time>
      </trkpt>
      <trkpt lat="45.92873" lon="4.73154">
        <ele>171</ele>
        <time>2017-12-23T09:52:29Z</time>
      </trkpt>
      <trkpt lat="45.92874" lon="4.73146">
        <ele>171</ele>
        <time>2017-12-23T09:52:30Z</time>
      </trkpt>
      <trkpt lat="45.92874" lon="4.73138">
        <ele>171</ele>
        <time>2017-12-23T09:52:31Z</time>
      </trkpt>
      <trkpt lat="45.92876" lon="4.73128">
        <ele>171</ele>
        <time>2017-12-23T09:52:32Z</time>
      </trkpt>
      <trkpt lat="45.92877" lon="4.73119">
        <ele>172</ele>
        <time>2017-12-23T09:52:33Z</time>
      </trkpt>
      <trkpt lat="45.9288" lon="4.7311">
        <ele>172</ele>
        <time>2017-12-23T09:52:34Z</time>
      </trkpt>
      <trkpt lat="45.92882" lon="4.73102">
        <ele>172</ele>
        <time>2017-12-23T09:52:35Z</time>
      </trkpt>
      <trkpt lat="45.92885" lon="4.73094">
        <ele>172</ele>
        <time>2017-12-23T09:52:36Z</time>
      </trkpt>
      <trkpt lat="45.92888" lon="4.73088">
        <ele>172</ele>
        <time>2017-12-23T09:52:37Z</time>
      </trkpt>
      <trkpt lat="45.92891" lon="4.73082">
        <ele>172</ele>
        <time>2017-12-23T09:52:38Z</time>
      </trkpt>
      <trkpt lat="45.92894" lon="4.73075">
        <ele>172</ele>
        <time>2017-12-23T09:52:39Z</time>
      </trkpt>
      <trkpt lat="45.92896" lon="4.73067">
        <ele>172</ele>
        <time>2017-12-23T09:52:40Z</time>
      </trkpt>
      <trkpt lat="45.92899" lon="4.73062">
        <ele>172</ele>
        <time>2017-12-23T09:52:41Z</time>
      </trkpt>
      <trkpt lat="45.92902" lon="4.73055">
        <ele>172</ele>
        <time>2017-12-23T09:52:42Z</time>
      </trkpt>
      <trkpt lat="45.92905" lon="4.7305">
        <ele>172</ele>
        <time>2017-12-23T09:52:43Z</time>
      </trkpt>
      <trkpt lat="45.92909" lon="4.73044">
        <ele>172</ele>
        <time>2017-12-23T09:52:44Z</time>
      </trkpt>
      <trkpt lat="45.92913" lon="4.73038">
        <ele>172</ele>
        <time>2017-12-23T09:52:45Z</time>
      </trkpt>
      <trkpt lat="45.92917" lon="4.73033">
        <ele>172</ele>
        <time>2017-12-23T09:52:46Z</time>
      </trkpt>
      <trkpt lat="45.92921" lon="4.73027">
        <ele>171</ele>
        <time>2017-12-23T09:52:47Z</time>
      </trkpt>
      <trkpt lat="45.92924" lon="4.73021">
        <ele>171</ele>
        <time>2017-12-23T09:52:48Z</time>
      </trkpt>
      <trkpt lat="45.92928" lon="4.73015">
        <ele>171</ele>
        <time>2017-12-23T09:52:49Z</time>
      </trkpt>
      <trkpt lat="45.92933" lon="4.73008">
        <ele>171</ele>
        <time>2017-12-23T09:52:50Z</time>
      </trkpt>
      <trkpt lat="45.92937" lon="4.73004">
        <ele>171</ele>
        <time>2017-12-23T09:52:51Z</time>
      </trkpt>
      <trkpt lat="45.92943" lon="4.72998">
        <ele>171</ele>
        <time>2017-12-23T09:52:52Z</time>
      </trkpt>
      <trkpt lat="45.92948" lon="4.72993">
        <ele>171</ele>
        <time>2017-12-23T09:52:53Z</time>
      </trkpt>
      <trkpt lat="45.92952" lon="4.72987">
        <ele>171</ele>
        <time>2017-12-23T09:52:54Z</time>
      </trkpt>
      <trkpt lat="45.92956" lon="4.72982">
        <ele>171</ele>
        <time>2017-12-23T09:52:55Z</time>
      </trkpt>
      <trkpt lat="45.92961" lon="4.72977">
        <ele>171</ele>
        <time>2017-12-23T09:52:56Z</time>
      </trkpt>
      <trkpt lat="45.92965" lon="4.72972">
        <ele>171</ele>
        <time>2017-12-23T09:52:57Z</time>
      </trkpt>
      <trkpt lat="45.92969" lon="4.72967">
        <ele>171</ele>
        <time>2017-12-23T09:52:58Z</time>
      </trkpt>
      <trkpt lat="45.92973" lon="4.72962">
        <ele>171</ele>
        <time>2017-12-23T09:52:59Z</time>
      </trkpt>
      <trkpt lat="45.92977" lon="4.72958">
        <ele>171</ele>
        <time>2017-12-23T09:53:00Z</time>
      </trkpt>
      <trkpt lat="45.92981" lon="4.72952">
        <ele>171</ele>
        <time>2017-12-23T09:53:01Z</time>
      </trkpt>
      <trkpt lat="45.92985" lon="4.72947">
        <ele>171</ele>
        <time>2017-12-23T09:53:02Z</time>
      </trkpt>
      <trkpt lat="45.92989" lon="4.72942">
        <ele>171</ele>
        <time>2017-12-23T09:53:03Z</time>
      </trkpt>
      <trkpt lat="45.92993" lon="4.72937">
        <ele>171</ele>
        <time>2017-12-23T09:53:04Z</time>
      </trkpt>
      <trkpt lat="45.92998" lon="4.72931">
        <ele>171</ele>
        <time>2017-12-23T09:53:05Z</time>
      </trkpt>
      <trkpt lat="45.93003" lon="4.72925">
        <ele>170</ele>
        <time>2017-12-23T09:53:06Z</time>
      </trkpt>
      <trkpt lat="45.93008" lon="4.7292">
        <ele>170</ele>
        <time>2017-12-23T09:53:07Z</time>
      </trkpt>
      <trkpt lat="45.93013" lon="4.72915">
        <ele>171</ele>
        <time>2017-12-23T09:53:08Z</time>
      </trkpt>
      <trkpt lat="45.93017" lon="4.72909">
        <ele>171</ele>
        <time>2017-12-23T09:53:09Z</time>
      </trkpt>
      <trkpt lat="45.93021" lon="4.72904">
        <ele>172</ele>
        <time>2017-12-23T09:53:10Z</time>
      </trkpt>
      <trkpt lat="45.93026" lon="4.72899">
        <ele>172</ele>
        <time>2017-12-23T09:53:11Z</time>
      </trkpt>
      <trkpt lat="45.9303" lon="4.72893">
        <ele>172</ele>
        <time>2017-12-23T09:53:12Z</time>
      </trkpt>
      <trkpt lat="45.93034" lon="4.72888">
        <ele>172</ele>
        <time>2017-12-23T09:53:13Z</time>
      </trkpt>
      <trkpt lat="45.93038" lon="4.72883">
        <ele>172</ele>
        <time>2017-12-23T09:53:14Z</time>
      </trkpt>
      <trkpt lat="45.93042" lon="4.72878">
        <ele>172</ele>
        <time>2017-12-23T09:53:15Z</time>
      </trkpt>
      <trkpt lat="45.93047" lon="4.72873">
        <ele>172</ele>
        <time>2017-12-23T09:53:16Z</time>
      </trkpt>
      <trkpt lat="45.93051" lon="4.72868">
        <ele>172</ele>
        <time>2017-12-23T09:53:17Z</time>
      </trkpt>
      <trkpt lat="45.93056" lon="4.72862">
        <ele>172</ele>
        <time>2017-12-23T09:53:18Z</time>
      </trkpt>
      <trkpt lat="45.93061" lon="4.72857">
        <ele>172</ele>
        <time>2017-12-23T09:53:19Z</time>
      </trkpt>
      <trkpt lat="45.93065" lon="4.72851">
        <ele>172</ele>
        <time>2017-12-23T09:53:20Z</time>
      </trkpt>
      <trkpt lat="45.93069" lon="4.72845">
        <ele>172</ele>
        <time>2017-12-23T09:53:21Z</time>
      </trkpt>
      <trkpt lat="45.93101" lon="4.72811">
        <ele>172</ele>
        <time>2017-12-23T09:53:28Z</time>
      </trkpt>
      <trkpt lat="45.93107" lon="4.72803">
        <ele>171</ele>
        <time>2017-12-23T09:53:29Z</time>
      </trkpt>
      <trkpt lat="45.93114" lon="4.72797">
        <ele>171</ele>
        <time>2017-12-23T09:53:30Z</time>
      </trkpt>
      <trkpt lat="45.93117" lon="4.72791">
        <ele>171</ele>
        <time>2017-12-23T09:53:31Z</time>
      </trkpt>
      <trkpt lat="45.93123" lon="4.72788">
        <ele>171</ele>
        <time>2017-12-23T09:53:32Z</time>
      </trkpt>
      <trkpt lat="45.93127" lon="4.72784">
        <ele>171</ele>
        <time>2017-12-23T09:53:33Z</time>
      </trkpt>
      <trkpt lat="45.93131" lon="4.72779">
        <ele>171</ele>
        <time>2017-12-23T09:53:34Z</time>
      </trkpt>
      <trkpt lat="45.93134" lon="4.72774">
        <ele>171</ele>
        <time>2017-12-23T09:53:35Z</time>
      </trkpt>
      <trkpt lat="45.93138" lon="4.7277">
        <ele>171</ele>
        <time>2017-12-23T09:53:36Z</time>
      </trkpt>
      <trkpt lat="45.93141" lon="4.72766">
        <ele>171</ele>
        <time>2017-12-23T09:53:37Z</time>
      </trkpt>
      <trkpt lat="45.93145" lon="4.72761">
        <ele>171</ele>
        <time>2017-12-23T09:53:38Z</time>
      </trkpt>
      <trkpt lat="45.93149" lon="4.72756">
        <ele>170</ele>
        <time>2017-12-23T09:53:39Z</time>
      </trkpt>
      <trkpt lat="45.93153" lon="4.72751">
        <ele>170</ele>
        <time>2017-12-23T09:53:40Z</time>
      </trkpt>
      <trkpt lat="45.93157" lon="4.72746">
        <ele>170</ele>
        <time>2017-12-23T09:53:41Z</time>
      </trkpt>
      <trkpt lat="45.93162" lon="4.72741">
        <ele>170</ele>
        <time>2017-12-23T09:53:42Z</time>
      </trkpt>
      <trkpt lat="45.93166" lon="4.72736">
        <ele>170</ele>
        <time>2017-12-23T09:53:43Z</time>
      </trkpt>
      <trkpt lat="45.9317" lon="4.72731">
        <ele>170</ele>
        <time>2017-12-23T09:53:44Z</time>
      </trkpt>
      <trkpt lat="45.93175" lon="4.72725">
        <ele>170</ele>
        <time>2017-12-23T09:53:45Z</time>
      </trkpt>
      <trkpt lat="45.93179" lon="4.7272">
        <ele>169</ele>
        <time>2017-12-23T09:53:46Z</time>
      </trkpt>
      <trkpt lat="45.93184" lon="4.72715">
        <ele>169</ele>
        <time>2017-12-23T09:53:47Z</time>
      </trkpt>
      <trkpt lat="45.93188" lon="4.72709">
        <ele>169</ele>
        <time>2017-12-23T09:53:48Z</time>
      </trkpt>
      <trkpt lat="45.93192" lon="4.72703">
        <ele>169</ele>
        <time>2017-12-23T09:53:49Z</time>
      </trkpt>
      <trkpt lat="45.93197" lon="4.72698">
        <ele>169</ele>
        <time>2017-12-23T09:53:50Z</time>
      </trkpt>
      <trkpt lat="45.93201" lon="4.72693">
        <ele>169</ele>
        <time>2017-12-23T09:53:51Z</time>
      </trkpt>
      <trkpt lat="45.93206" lon="4.72687">
        <ele>169</ele>
        <time>2017-12-23T09:53:52Z</time>
      </trkpt>
      <trkpt lat="45.93211" lon="4.72682">
        <ele>169</ele>
        <time>2017-12-23T09:53:53Z</time>
      </trkpt>
      <trkpt lat="45.93215" lon="4.72677">
        <ele>169</ele>
        <time>2017-12-23T09:53:54Z</time>
      </trkpt>
      <trkpt lat="45.93218" lon="4.72672">
        <ele>169</ele>
        <time>2017-12-23T09:53:55Z</time>
      </trkpt>
      <trkpt lat="45.93222" lon="4.72666">
        <ele>170</ele>
        <time>2017-12-23T09:53:56Z</time>
      </trkpt>
      <trkpt lat="45.93226" lon="4.72661">
        <ele>170</ele>
        <time>2017-12-23T09:53:57Z</time>
      </trkpt>
      <trkpt lat="45.93231" lon="4.72657">
        <ele>169</ele>
        <time>2017-12-23T09:53:58Z</time>
      </trkpt>
      <trkpt lat="45.93235" lon="4.72651">
        <ele>170</ele>
        <time>2017-12-23T09:53:59Z</time>
      </trkpt>
      <trkpt lat="45.93239" lon="4.72645">
        <ele>170</ele>
        <time>2017-12-23T09:54:00Z</time>
      </trkpt>
      <trkpt lat="45.93244" lon="4.7264">
        <ele>170</ele>
        <time>2017-12-23T09:54:01Z</time>
      </trkpt>
      <trkpt lat="45.93249" lon="4.72635">
        <ele>170</ele>
        <time>2017-12-23T09:54:02Z</time>
      </trkpt>
      <trkpt lat="45.93253" lon="4.7263">
        <ele>170</ele>
        <time>2017-12-23T09:54:03Z</time>
      </trkpt>
      <trkpt lat="45.93258" lon="4.72625">
        <ele>170</ele>
        <time>2017-12-23T09:54:04Z</time>
      </trkpt>
      <trkpt lat="45.93262" lon="4.7262">
        <ele>170</ele>
        <time>2017-12-23T09:54:05Z</time>
      </trkpt>
      <trkpt lat="45.93266" lon="4.72614">
        <ele>170</ele>
        <time>2017-12-23T09:54:06Z</time>
      </trkpt>
      <trkpt lat="45.9327" lon="4.72609">
        <ele>170</ele>
        <time>2017-12-23T09:54:07Z</time>
      </trkpt>
      <trkpt lat="45.93275" lon="4.72604">
        <ele>170</ele>
        <time>2017-12-23T09:54:08Z</time>
      </trkpt>
      <trkpt lat="45.9328" lon="4.72597">
        <ele>170</ele>
        <time>2017-12-23T09:54:09Z</time>
      </trkpt>
      <trkpt lat="45.93286" lon="4.72591">
        <ele>170</ele>
        <time>2017-12-23T09:54:10Z</time>
      </trkpt>
      <trkpt lat="45.9329" lon="4.72587">
        <ele>170</ele>
        <time>2017-12-23T09:54:11Z</time>
      </trkpt>
      <trkpt lat="45.93295" lon="4.72581">
        <ele>171</ele>
        <time>2017-12-23T09:54:12Z</time>
      </trkpt>
      <trkpt lat="45.933" lon="4.72575">
        <ele>171</ele>
        <time>2017-12-23T09:54:13Z</time>
      </trkpt>
      <trkpt lat="45.93305" lon="4.72569">
        <ele>171</ele>
        <time>2017-12-23T09:54:14Z</time>
      </trkpt>
      <trkpt lat="45.9331" lon="4.72565">
        <ele>171</ele>
        <time>2017-12-23T09:54:15Z</time>
      </trkpt>
      <trkpt lat="45.93315" lon="4.72559">
        <ele>171</ele>
        <time>2017-12-23T09:54:16Z</time>
      </trkpt>
      <trkpt lat="45.9332" lon="4.72554">
        <ele>172</ele>
        <time>2017-12-23T09:54:17Z</time>
      </trkpt>
      <trkpt lat="45.93324" lon="4.72548">
        <ele>172</ele>
        <time>2017-12-23T09:54:18Z</time>
      </trkpt>
      <trkpt lat="45.93329" lon="4.72542">
        <ele>172</ele>
        <time>2017-12-23T09:54:19Z</time>
      </trkpt>
      <trkpt lat="45.93333" lon="4.72537">
        <ele>172</ele>
        <time>2017-12-23T09:54:20Z</time>
      </trkpt>
      <trkpt lat="45.93338" lon="4.72533">
        <ele>172</ele>
        <time>2017-12-23T09:54:21Z</time>
      </trkpt>
      <trkpt lat="45.93342" lon="4.72528">
        <ele>172</ele>
        <time>2017-12-23T09:54:22Z</time>
      </trkpt>
      <trkpt lat="45.93346" lon="4.72522">
        <ele>172</ele>
        <time>2017-12-23T09:54:23Z</time>
      </trkpt>
      <trkpt lat="45.9335" lon="4.72517">
        <ele>172</ele>
        <time>2017-12-23T09:54:24Z</time>
      </trkpt>
      <trkpt lat="45.93355" lon="4.72512">
        <ele>172</ele>
        <time>2017-12-23T09:54:25Z</time>
      </trkpt>
      <trkpt lat="45.9336" lon="4.72507">
        <ele>172</ele>
        <time>2017-12-23T09:54:26Z</time>
      </trkpt>
      <trkpt lat="45.93364" lon="4.72501">
        <ele>172</ele>
        <time>2017-12-23T09:54:27Z</time>
      </trkpt>
      <trkpt lat="45.93369" lon="4.72496">
        <ele>173</ele>
        <time>2017-12-23T09:54:28Z</time>
      </trkpt>
      <trkpt lat="45.93373" lon="4.72492">
        <ele>173</ele>
        <time>2017-12-23T09:54:29Z</time>
      </trkpt>
      <trkpt lat="45.93378" lon="4.72486">
        <ele>173</ele>
        <time>2017-12-23T09:54:30Z</time>
      </trkpt>
      <trkpt lat="45.93382" lon="4.72481">
        <ele>173</ele>
        <time>2017-12-23T09:54:31Z</time>
      </trkpt>
      <trkpt lat="45.93386" lon="4.72476">
        <ele>173</ele>
        <time>2017-12-23T09:54:32Z</time>
      </trkpt>
      <trkpt lat="45.93392" lon="4.72467">
        <ele>173</ele>
        <time>2017-12-23T09:54:34Z</time>
      </trkpt>
      <trkpt lat="45.93395" lon="4.72463">
        <ele>173</ele>
        <time>2017-12-23T09:54:35Z</time>
      </trkpt>
      <trkpt lat="45.93399" lon="4.72452">
        <ele>173</ele>
        <time>2017-12-23T09:54:37Z</time>
      </trkpt>
      <trkpt lat="45.934" lon="4.72447">
        <ele>173</ele>
        <time>2017-12-23T09:54:38Z</time>
      </trkpt>
      <trkpt lat="45.93404" lon="4.72438">
        <ele>173</ele>
        <time>2017-12-23T09:54:40Z</time>
      </trkpt>
      <trkpt lat="45.93407" lon="4.72433">
        <ele>173</ele>
        <time>2017-12-23T09:54:41Z</time>
      </trkpt>
      <trkpt lat="45.93412" lon="4.72424">
        <ele>174</ele>
        <time>2017-12-23T09:54:43Z</time>
      </trkpt>
      <trkpt lat="45.93415" lon="4.7242">
        <ele>174</ele>
        <time>2017-12-23T09:54:44Z</time>
      </trkpt>
      <trkpt lat="45.93419" lon="4.72416">
        <ele>174</ele>
        <time>2017-12-23T09:54:45Z</time>
      </trkpt>
      <trkpt lat="45.93424" lon="4.72413">
        <ele>174</ele>
        <time>2017-12-23T09:54:46Z</time>
      </trkpt>
      <trkpt lat="45.93432" lon="4.72407">
        <ele>174</ele>
        <time>2017-12-23T09:54:48Z</time>
      </trkpt>
      <trkpt lat="45.93437" lon="4.72404">
        <ele>174</ele>
        <time>2017-12-23T09:54:49Z</time>
      </trkpt>
      <trkpt lat="45.93443" lon="4.72401">
        <ele>173</ele>
        <time>2017-12-23T09:54:50Z</time>
      </trkpt>
      <trkpt lat="45.93448" lon="4.72398">
        <ele>173</ele>
        <time>2017-12-23T09:54:51Z</time>
      </trkpt>
      <trkpt lat="45.93453" lon="4.72394">
        <ele>173</ele>
        <time>2017-12-23T09:54:52Z</time>
      </trkpt>
      <trkpt lat="45.93458" lon="4.7239">
        <ele>173</ele>
        <time>2017-12-23T09:54:53Z</time>
      </trkpt>
      <trkpt lat="45.93464" lon="4.72385">
        <ele>173</ele>
        <time>2017-12-23T09:54:54Z</time>
      </trkpt>
      <trkpt lat="45.93468" lon="4.72379">
        <ele>173</ele>
        <time>2017-12-23T09:54:55Z</time>
      </trkpt>
      <trkpt lat="45.93472" lon="4.72373">
        <ele>173</ele>
        <time>2017-12-23T09:54:56Z</time>
      </trkpt>
      <trkpt lat="45.93477" lon="4.72367">
        <ele>173</ele>
        <time>2017-12-23T09:54:57Z</time>
      </trkpt>
      <trkpt lat="45.93481" lon="4.72361">
        <ele>173</ele>
        <time>2017-12-23T09:54:58Z</time>
      </trkpt>
      <trkpt lat="45.93486" lon="4.72356">
        <ele>173</ele>
        <time>2017-12-23T09:54:59Z</time>
      </trkpt>
      <trkpt lat="45.9349" lon="4.7235">
        <ele>173</ele>
        <time>2017-12-23T09:55:00Z</time>
      </trkpt>
      <trkpt lat="45.93494" lon="4.72344">
        <ele>173</ele>
        <time>2017-12-23T09:55:01Z</time>
      </trkpt>
      <trkpt lat="45.93498" lon="4.72339">
        <ele>173</ele>
        <time>2017-12-23T09:55:02Z</time>
      </trkpt>
      <trkpt lat="45.93502" lon="4.72333">
        <ele>173</ele>
        <time>2017-12-23T09:55:03Z</time>
      </trkpt>
      <trkpt lat="45.93505" lon="4.72328">
        <ele>173</ele>
        <time>2017-12-23T09:55:04Z</time>
      </trkpt>
      <trkpt lat="45.93508" lon="4.72323">
        <ele>173</ele>
        <time>2017-12-23T09:55:05Z</time>
      </trkpt>
      <trkpt lat="45.93514" lon="4.72313">
        <ele>173</ele>
        <time>2017-12-23T09:55:07Z</time>
      </trkpt>
      <trkpt lat="45.93517" lon="4.72307">
        <ele>173</ele>
        <time>2017-12-23T09:55:08Z</time>
      </trkpt>
      <trkpt lat="45.9352" lon="4.72302">
        <ele>172</ele>
        <time>2017-12-23T09:55:09Z</time>
      </trkpt>
      <trkpt lat="45.93524" lon="4.72297">
        <ele>172</ele>
        <time>2017-12-23T09:55:10Z</time>
      </trkpt>
      <trkpt lat="45.93528" lon="4.72291">
        <ele>172</ele>
        <time>2017-12-23T09:55:11Z</time>
      </trkpt>
      <trkpt lat="45.9353" lon="4.72285">
        <ele>172</ele>
        <time>2017-12-23T09:55:12Z</time>
      </trkpt>
      <trkpt lat="45.93533" lon="4.72275">
        <ele>172</ele>
        <time>2017-12-23T09:55:14Z</time>
      </trkpt>
      <trkpt lat="45.93535" lon="4.72268">
        <ele>172</ele>
        <time>2017-12-23T09:55:15Z</time>
      </trkpt>
      <trkpt lat="45.93538" lon="4.72263">
        <ele>172</ele>
        <time>2017-12-23T09:55:16Z</time>
      </trkpt>
      <trkpt lat="45.9354" lon="4.72257">
        <ele>172</ele>
        <time>2017-12-23T09:55:17Z</time>
      </trkpt>
      <trkpt lat="45.93543" lon="4.72252">
        <ele>172</ele>
        <time>2017-12-23T09:55:18Z</time>
      </trkpt>
      <trkpt lat="45.93545" lon="4.72246">
        <ele>172</ele>
        <time>2017-12-23T09:55:19Z</time>
      </trkpt>
      <trkpt lat="45.93547" lon="4.72238">
        <ele>172</ele>
        <time>2017-12-23T09:55:20Z</time>
      </trkpt>
      <trkpt lat="45.9355" lon="4.72232">
        <ele>172</ele>
        <time>2017-12-23T09:55:21Z</time>
      </trkpt>
      <trkpt lat="45.93553" lon="4.72225">
        <ele>173</ele>
        <time>2017-12-23T09:55:22Z</time>
      </trkpt>
      <trkpt lat="45.93557" lon="4.72219">
        <ele>173</ele>
        <time>2017-12-23T09:55:23Z</time>
      </trkpt>
      <trkpt lat="45.93562" lon="4.72214">
        <ele>173</ele>
        <time>2017-12-23T09:55:24Z</time>
      </trkpt>
      <trkpt lat="45.93566" lon="4.72209">
        <ele>173</ele>
        <time>2017-12-23T09:55:25Z</time>
      </trkpt>
      <trkpt lat="45.9357" lon="4.72204">
        <ele>173</ele>
        <time>2017-12-23T09:55:26Z</time>
      </trkpt>
      <trkpt lat="45.93574" lon="4.72199">
        <ele>173</ele>
        <time>2017-12-23T09:55:27Z</time>
      </trkpt>
      <trkpt lat="45.93578" lon="4.72195">
        <ele>173</ele>
        <time>2017-12-23T09:55:28Z</time>
      </trkpt>
      <trkpt lat="45.93583" lon="4.72192">
        <ele>173</ele>
        <time>2017-12-23T09:55:29Z</time>
      </trkpt>
      <trkpt lat="45.93587" lon="4.72188">
        <ele>173</ele>
        <time>2017-12-23T09:55:30Z</time>
      </trkpt>
      <trkpt lat="45.93592" lon="4.72185">
        <ele>173</ele>
        <time>2017-12-23T09:55:31Z</time>
      </trkpt>
      <trkpt lat="45.93597" lon="4.72181">
        <ele>173</ele>
        <time>2017-12-23T09:55:32Z</time>
      </trkpt>
      <trkpt lat="45.93601" lon="4.72177">
        <ele>173</ele>
        <time>2017-12-23T09:55:33Z</time>
      </trkpt>
      <trkpt lat="45.93606" lon="4.72173">
        <ele>173</ele>
        <time>2017-12-23T09:55:34Z</time>
      </trkpt>
      <trkpt lat="45.93611" lon="4.72168">
        <ele>173</ele>
        <time>2017-12-23T09:55:35Z</time>
      </trkpt>
      <trkpt lat="45.93615" lon="4.72164">
        <ele>173</ele>
        <time>2017-12-23T09:55:36Z</time>
      </trkpt>
      <trkpt lat="45.9362" lon="4.7216">
        <ele>173</ele>
        <time>2017-12-23T09:55:37Z</time>
      </trkpt>
      <trkpt lat="45.93624" lon="4.72156">
        <ele>173</ele>
        <time>2017-12-23T09:55:38Z</time>
      </trkpt>
      <trkpt lat="45.93628" lon="4.72151">
        <ele>173</ele>
        <time>2017-12-23T09:55:39Z</time>
      </trkpt>
      <trkpt lat="45.93632" lon="4.72145">
        <ele>173</ele>
        <time>2017-12-23T09:55:40Z</time>
      </trkpt>
      <trkpt lat="45.93637" lon="4.72139">
        <ele>173</ele>
        <time>2017-12-23T09:55:41Z</time>
      </trkpt>
      <trkpt lat="45.93641" lon="4.72133">
        <ele>173</ele>
        <time>2017-12-23T09:55:42Z</time>
      </trkpt>
      <trkpt lat="45.93645" lon="4.72129">
        <ele>173</ele>
        <time>2017-12-23T09:55:43Z</time>
      </trkpt>
      <trkpt lat="45.93648" lon="4.72124">
        <ele>173</ele>
        <time>2017-12-23T09:55:44Z</time>
      </trkpt>
      <trkpt lat="45.93651" lon="4.72118">
        <ele>173</ele>
        <time>2017-12-23T09:55:45Z</time>
      </trkpt>
      <trkpt lat="45.93654" lon="4.72112">
        <ele>173</ele>
        <time>2017-12-23T09:55:46Z</time>
      </trkpt>
      <trkpt lat="45.93658" lon="4.72107">
        <ele>173</ele>
        <time>2017-12-23T09:55:47Z</time>
      </trkpt>
      <trkpt lat="45.93661" lon="4.721">
        <ele>173</ele>
        <time>2017-12-23T09:55:48Z</time>
      </trkpt>
      <trkpt lat="45.93665" lon="4.72095">
        <ele>172</ele>
        <time>2017-12-23T09:55:49Z</time>
      </trkpt>
      <trkpt lat="45.93669" lon="4.72088">
        <ele>172</ele>
        <time>2017-12-23T09:55:50Z</time>
      </trkpt>
      <trkpt lat="45.93673" lon="4.72083">
        <ele>172</ele>
        <time>2017-12-23T09:55:51Z</time>
      </trkpt>
      <trkpt lat="45.93677" lon="4.72077">
        <ele>172</ele>
        <time>2017-12-23T09:55:52Z</time>
      </trkpt>
      <trkpt lat="45.93681" lon="4.7207">
        <ele>172</ele>
        <time>2017-12-23T09:55:53Z</time>
      </trkpt>
      <trkpt lat="45.93684" lon="4.72064">
        <ele>172</ele>
        <time>2017-12-23T09:55:54Z</time>
      </trkpt>
      <trkpt lat="45.93687" lon="4.72059">
        <ele>172</ele>
        <time>2017-12-23T09:55:55Z</time>
      </trkpt>
      <trkpt lat="45.9369" lon="4.72051">
        <ele>172</ele>
        <time>2017-12-23T09:55:56Z</time>
      </trkpt>
      <trkpt lat="45.93695" lon="4.72044">
        <ele>173</ele>
        <time>2017-12-23T09:55:57Z</time>
      </trkpt>
      <trkpt lat="45.93698" lon="4.72038">
        <ele>172</ele>
        <time>2017-12-23T09:55:58Z</time>
      </trkpt>
      <trkpt lat="45.93702" lon="4.72031">
        <ele>172</ele>
        <time>2017-12-23T09:55:59Z</time>
      </trkpt>
      <trkpt lat="45.93706" lon="4.72026">
        <ele>172</ele>
        <time>2017-12-23T09:56:00Z</time>
      </trkpt>
      <trkpt lat="45.93709" lon="4.7202">
        <ele>172</ele>
        <time>2017-12-23T09:56:01Z</time>
      </trkpt>
      <trkpt lat="45.93713" lon="4.72014">
        <ele>172</ele>
        <time>2017-12-23T09:56:02Z</time>
      </trkpt>
      <trkpt lat="45.93715" lon="4.72009">
        <ele>172</ele>
        <time>2017-12-23T09:56:03Z</time>
      </trkpt>
      <trkpt lat="45.93719" lon="4.72003">
        <ele>172</ele>
        <time>2017-12-23T09:56:04Z</time>
      </trkpt>
      <trkpt lat="45.93723" lon="4.71997">
        <ele>172</ele>
        <time>2017-12-23T09:56:05Z</time>
      </trkpt>
      <trkpt lat="45.93726" lon="4.71991">
        <ele>172</ele>
        <time>2017-12-23T09:56:06Z</time>
      </trkpt>
      <trkpt lat="45.9373" lon="4.71985">
        <ele>172</ele>
        <time>2017-12-23T09:56:07Z</time>
      </trkpt>
      <trkpt lat="45.93732" lon="4.71979">
        <ele>172</ele>
        <time>2017-12-23T09:56:08Z</time>
      </trkpt>
      <trkpt lat="45.93737" lon="4.71974">
        <ele>172</ele>
        <time>2017-12-23T09:56:09Z</time>
      </trkpt>
      <trkpt lat="45.93741" lon="4.71969">
        <ele>172</ele>
        <time>2017-12-23T09:56:10Z</time>
      </trkpt>
      <trkpt lat="45.93745" lon="4.71966">
        <ele>172</ele>
        <time>2017-12-23T09:56:11Z</time>
      </trkpt>
      <trkpt lat="45.93753" lon="4.71962">
        <ele>171</ele>
        <time>2017-12-23T09:56:14Z</time>
      </trkpt>
      <trkpt lat="45.93756" lon="4.71961">
        <ele>171</ele>
        <time>2017-12-23T09:56:15Z</time>
      </trkpt>
      <trkpt lat="45.93762" lon="4.71952">
        <ele>171</ele>
        <time>2017-12-23T09:56:20Z</time>
      </trkpt>
      <trkpt lat="45.93763" lon="4.71949">
        <ele>171</ele>
        <time>2017-12-23T09:56:21Z</time>
      </trkpt>
      <trkpt lat="45.93769" lon="4.7194">
        <ele>171</ele>
        <time>2017-12-23T09:56:24Z</time>
      </trkpt>
      <trkpt lat="45.93771" lon="4.71936">
        <ele>171</ele>
        <time>2017-12-23T09:56:25Z</time>
      </trkpt>
      <trkpt lat="45.93776" lon="4.71927">
        <ele>171</ele>
        <time>2017-12-23T09:56:27Z</time>
      </trkpt>
      <trkpt lat="45.93779" lon="4.71923">
        <ele>171</ele>
        <time>2017-12-23T09:56:28Z</time>
      </trkpt>
      <trkpt lat="45.93785" lon="4.71913">
        <ele>171</ele>
        <time>2017-12-23T09:56:30Z</time>
      </trkpt>
      <trkpt lat="45.93787" lon="4.71908">
        <ele>171</ele>
        <time>2017-12-23T09:56:31Z</time>
      </trkpt>
      <trkpt lat="45.93787" lon="4.71901">
        <ele>171</ele>
        <time>2017-12-23T09:56:32Z</time>
      </trkpt>
      <trkpt lat="45.93789" lon="4.71893">
        <ele>172</ele>
        <time>2017-12-23T09:56:33Z</time>
      </trkpt>
      <trkpt lat="45.9379" lon="4.71887">
        <ele>172</ele>
        <time>2017-12-23T09:56:34Z</time>
      </trkpt>
      <trkpt lat="45.93792" lon="4.7188">
        <ele>172</ele>
        <time>2017-12-23T09:56:35Z</time>
      </trkpt>
      <trkpt lat="45.93795" lon="4.71873">
        <ele>172</ele>
        <time>2017-12-23T09:56:36Z</time>
      </trkpt>
      <trkpt lat="45.93798" lon="4.71867">
        <ele>172</ele>
        <time>2017-12-23T09:56:37Z</time>
      </trkpt>
      <trkpt lat="45.93802" lon="4.71861">
        <ele>172</ele>
        <time>2017-12-23T09:56:38Z</time>
      </trkpt>
      <trkpt lat="45.93805" lon="4.71854">
        <ele>172</ele>
        <time>2017-12-23T09:56:39Z</time>
      </trkpt>
      <trkpt lat="45.93809" lon="4.71847">
        <ele>172</ele>
        <time>2017-12-23T09:56:40Z</time>
      </trkpt>
      <trkpt lat="45.93812" lon="4.71841">
        <ele>172</ele>
        <time>2017-12-23T09:56:41Z</time>
      </trkpt>
      <trkpt lat="45.93816" lon="4.71836">
        <ele>172</ele>
        <time>2017-12-23T09:56:42Z</time>
      </trkpt>
      <trkpt lat="45.93819" lon="4.71831">
        <ele>173</ele>
        <time>2017-12-23T09:56:43Z</time>
      </trkpt>
      <trkpt lat="45.93823" lon="4.71825">
        <ele>173</ele>
        <time>2017-12-23T09:56:44Z</time>
      </trkpt>
      <trkpt lat="45.93826" lon="4.71819">
        <ele>173</ele>
        <time>2017-12-23T09:56:45Z</time>
      </trkpt>
      <trkpt lat="45.9383" lon="4.71813">
        <ele>173</ele>
        <time>2017-12-23T09:56:46Z</time>
      </trkpt>
      <trkpt lat="45.93833" lon="4.71807">
        <ele>173</ele>
        <time>2017-12-23T09:56:47Z</time>
      </trkpt>
      <trkpt lat="45.93836" lon="4.718">
        <ele>173</ele>
        <time>2017-12-23T09:56:48Z</time>
      </trkpt>
      <trkpt lat="45.93839" lon="4.71794">
        <ele>173</ele>
        <time>2017-12-23T09:56:49Z</time>
      </trkpt>
      <trkpt lat="45.93843" lon="4.71788">
        <ele>173</ele>
        <time>2017-12-23T09:56:50Z</time>
      </trkpt>
      <trkpt lat="45.93847" lon="4.71781">
        <ele>173</ele>
        <time>2017-12-23T09:56:51Z</time>
      </trkpt>
      <trkpt lat="45.93852" lon="4.71777">
        <ele>173</ele>
        <time>2017-12-23T09:56:52Z</time>
      </trkpt>
      <trkpt lat="45.93855" lon="4.71772">
        <ele>173</ele>
        <time>2017-12-23T09:56:53Z</time>
      </trkpt>
      <trkpt lat="45.9386" lon="4.71766">
        <ele>173</ele>
        <time>2017-12-23T09:56:54Z</time>
      </trkpt>
      <trkpt lat="45.93864" lon="4.7176">
        <ele>173</ele>
        <time>2017-12-23T09:56:55Z</time>
      </trkpt>
      <trkpt lat="45.93868" lon="4.71755">
        <ele>173</ele>
        <time>2017-12-23T09:56:56Z</time>
      </trkpt>
      <trkpt lat="45.93871" lon="4.71749">
        <ele>174</ele>
        <time>2017-12-23T09:56:57Z</time>
      </trkpt>
      <trkpt lat="45.93875" lon="4.71743">
        <ele>174</ele>
        <time>2017-12-23T09:56:58Z</time>
      </trkpt>
      <trkpt lat="45.93879" lon="4.71739">
        <ele>174</ele>
        <time>2017-12-23T09:56:59Z</time>
      </trkpt>
      <trkpt lat="45.93884" lon="4.71734">
        <ele>174</ele>
        <time>2017-12-23T09:57:00Z</time>
      </trkpt>
      <trkpt lat="45.93888" lon="4.7173">
        <ele>174</ele>
        <time>2017-12-23T09:57:01Z</time>
      </trkpt>
      <trkpt lat="45.93892" lon="4.71726">
        <ele>174</ele>
        <time>2017-12-23T09:57:02Z</time>
      </trkpt>
      <trkpt lat="45.93896" lon="4.71722">
        <ele>174</ele>
        <time>2017-12-23T09:57:03Z</time>
      </trkpt>
      <trkpt lat="45.939" lon="4.71718">
        <ele>174</ele>
        <time>2017-12-23T09:57:04Z</time>
      </trkpt>
      <trkpt lat="45.93905" lon="4.71712">
        <ele>174</ele>
        <time>2017-12-23T09:57:05Z</time>
      </trkpt>
      <trkpt lat="45.93909" lon="4.71708">
        <ele>174</ele>
        <time>2017-12-23T09:57:06Z</time>
      </trkpt>
      <trkpt lat="45.93914" lon="4.71704">
        <ele>174</ele>
        <time>2017-12-23T09:57:07Z</time>
      </trkpt>
      <trkpt lat="45.93919" lon="4.71702">
        <ele>174</ele>
        <time>2017-12-23T09:57:08Z</time>
      </trkpt>
      <trkpt lat="45.93924" lon="4.71701">
        <ele>174</ele>
        <time>2017-12-23T09:57:09Z</time>
      </trkpt>
      <trkpt lat="45.9393" lon="4.71698">
        <ele>174</ele>
        <time>2017-12-23T09:57:10Z</time>
      </trkpt>
      <trkpt lat="45.93935" lon="4.71695">
        <ele>175</ele>
        <time>2017-12-23T09:57:11Z</time>
      </trkpt>
      <trkpt lat="45.9394" lon="4.71693">
        <ele>175</ele>
        <time>2017-12-23T09:57:12Z</time>
      </trkpt>
      <trkpt lat="45.93945" lon="4.7169">
        <ele>175</ele>
        <time>2017-12-23T09:57:13Z</time>
      </trkpt>
      <trkpt lat="45.93949" lon="4.71688">
        <ele>175</ele>
        <time>2017-12-23T09:57:14Z</time>
      </trkpt>
      <trkpt lat="45.93954" lon="4.71686">
        <ele>175</ele>
        <time>2017-12-23T09:57:15Z</time>
      </trkpt>
      <trkpt lat="45.93959" lon="4.71684">
        <ele>175</ele>
        <time>2017-12-23T09:57:16Z</time>
      </trkpt>
      <trkpt lat="45.93963" lon="4.71682">
        <ele>175</ele>
        <time>2017-12-23T09:57:17Z</time>
      </trkpt>
      <trkpt lat="45.93968" lon="4.7168">
        <ele>175</ele>
        <time>2017-12-23T09:57:18Z</time>
      </trkpt>
      <trkpt lat="45.93973" lon="4.71677">
        <ele>175</ele>
        <time>2017-12-23T09:57:19Z</time>
      </trkpt>
      <trkpt lat="45.93981" lon="4.71674">
        <ele>176</ele>
        <time>2017-12-23T09:57:21Z</time>
      </trkpt>
      <trkpt lat="45.93985" lon="4.71673">
        <ele>176</ele>
        <time>2017-12-23T09:57:22Z</time>
      </trkpt>
      <trkpt lat="45.93993" lon="4.71675">
        <ele>176</ele>
        <time>2017-12-23T09:57:24Z</time>
      </trkpt>
      <trkpt lat="45.93997" lon="4.71679">
        <ele>176</ele>
        <time>2017-12-23T09:57:25Z</time>
      </trkpt>
      <trkpt lat="45.94" lon="4.71683">
        <ele>176</ele>
        <time>2017-12-23T09:57:26Z</time>
      </trkpt>
      <trkpt lat="45.94004" lon="4.71686">
        <ele>175</ele>
        <time>2017-12-23T09:57:27Z</time>
      </trkpt>
      <trkpt lat="45.94009" lon="4.71688">
        <ele>175</ele>
        <time>2017-12-23T09:57:28Z</time>
      </trkpt>
      <trkpt lat="45.94014" lon="4.71685">
        <ele>175</ele>
        <time>2017-12-23T09:57:29Z</time>
      </trkpt>
      <trkpt lat="45.94018" lon="4.71681">
        <ele>175</ele>
        <time>2017-12-23T09:57:30Z</time>
      </trkpt>
      <trkpt lat="45.9402" lon="4.71674">
        <ele>175</ele>
        <time>2017-12-23T09:57:31Z</time>
      </trkpt>
      <trkpt lat="45.94022" lon="4.71669">
        <ele>175</ele>
        <time>2017-12-23T09:57:32Z</time>
      </trkpt>
      <trkpt lat="45.94025" lon="4.71663">
        <ele>175</ele>
        <time>2017-12-23T09:57:33Z</time>
      </trkpt>
      <trkpt lat="45.94029" lon="4.71656">
        <ele>175</ele>
        <time>2017-12-23T09:57:34Z</time>
      </trkpt>
      <trkpt lat="45.94034" lon="4.71652">
        <ele>175</ele>
        <time>2017-12-23T09:57:35Z</time>
      </trkpt>
      <trkpt lat="45.94039" lon="4.7165">
        <ele>175</ele>
        <time>2017-12-23T09:57:36Z</time>
      </trkpt>
      <trkpt lat="45.94044" lon="4.71647">
        <ele>175</ele>
        <time>2017-12-23T09:57:37Z</time>
      </trkpt>
      <trkpt lat="45.9405" lon="4.71644">
        <ele>175</ele>
        <time>2017-12-23T09:57:38Z</time>
      </trkpt>
      <trkpt lat="45.94055" lon="4.71642">
        <ele>174</ele>
        <time>2017-12-23T09:57:39Z</time>
      </trkpt>
      <trkpt lat="45.94061" lon="4.7164">
        <ele>174</ele>
        <time>2017-12-23T09:57:40Z</time>
      </trkpt>
      <trkpt lat="45.94066" lon="4.71637">
        <ele>174</ele>
        <time>2017-12-23T09:57:41Z</time>
      </trkpt>
      <trkpt lat="45.94072" lon="4.71636">
        <ele>174</ele>
        <time>2017-12-23T09:57:42Z</time>
      </trkpt>
      <trkpt lat="45.94078" lon="4.71633">
        <ele>174</ele>
        <time>2017-12-23T09:57:43Z</time>
      </trkpt>
      <trkpt lat="45.94084" lon="4.7163">
        <ele>173</ele>
        <time>2017-12-23T09:57:44Z</time>
      </trkpt>
      <trkpt lat="45.9409" lon="4.71628">
        <ele>173</ele>
        <time>2017-12-23T09:57:45Z</time>
      </trkpt>
      <trkpt lat="45.94095" lon="4.71626">
        <ele>173</ele>
        <time>2017-12-23T09:57:46Z</time>
      </trkpt>
      <trkpt lat="45.941" lon="4.71624">
        <ele>173</ele>
        <time>2017-12-23T09:57:47Z</time>
      </trkpt>
      <trkpt lat="45.94105" lon="4.71622">
        <ele>173</ele>
        <time>2017-12-23T09:57:48Z</time>
      </trkpt>
      <trkpt lat="45.94111" lon="4.71619">
        <ele>173</ele>
        <time>2017-12-23T09:57:49Z</time>
      </trkpt>
      <trkpt lat="45.94116" lon="4.71617">
        <ele>173</ele>
        <time>2017-12-23T09:57:50Z</time>
      </trkpt>
      <trkpt lat="45.94122" lon="4.71616">
        <ele>173</ele>
        <time>2017-12-23T09:57:51Z</time>
      </trkpt>
      <trkpt lat="45.94127" lon="4.71614">
        <ele>173</ele>
        <time>2017-12-23T09:57:52Z</time>
      </trkpt>
      <trkpt lat="45.94133" lon="4.7161">
        <ele>173</ele>
        <time>2017-12-23T09:57:53Z</time>
      </trkpt>
      <trkpt lat="45.94138" lon="4.71609">
        <ele>173</ele>
        <time>2017-12-23T09:57:54Z</time>
      </trkpt>
      <trkpt lat="45.94145" lon="4.71606">
        <ele>173</ele>
        <time>2017-12-23T09:57:55Z</time>
      </trkpt>
      <trkpt lat="45.94151" lon="4.71604">
        <ele>173</ele>
        <time>2017-12-23T09:57:56Z</time>
      </trkpt>
      <trkpt lat="45.94157" lon="4.71601">
        <ele>173</ele>
        <time>2017-12-23T09:57:57Z</time>
      </trkpt>
      <trkpt lat="45.94162" lon="4.71599">
        <ele>173</ele>
        <time>2017-12-23T09:57:58Z</time>
      </trkpt>
      <trkpt lat="45.94168" lon="4.71597">
        <ele>173</ele>
        <time>2017-12-23T09:57:59Z</time>
      </trkpt>
      <trkpt lat="45.94173" lon="4.71594">
        <ele>173</ele>
        <time>2017-12-23T09:58:00Z</time>
      </trkpt>
      <trkpt lat="45.94179" lon="4.71592">
        <ele>173</ele>
        <time>2017-12-23T09:58:01Z</time>
      </trkpt>
      <trkpt lat="45.94184" lon="4.71589">
        <ele>173</ele>
        <time>2017-12-23T09:58:02Z</time>
      </trkpt>
      <trkpt lat="45.9419" lon="4.71587">
        <ele>173</ele>
        <time>2017-12-23T09:58:03Z</time>
      </trkpt>
      <trkpt lat="45.94195" lon="4.71586">
        <ele>173</ele>
        <time>2017-12-23T09:58:04Z</time>
      </trkpt>
      <trkpt lat="45.942" lon="4.71584">
        <ele>173</ele>
        <time>2017-12-23T09:58:05Z</time>
      </trkpt>
      <trkpt lat="45.94207" lon="4.71582">
        <ele>174</ele>
        <time>2017-12-23T09:58:06Z</time>
      </trkpt>
      <trkpt lat="45.9421" lon="4.7158">
        <ele>174</ele>
        <time>2017-12-23T09:58:07Z</time>
      </trkpt>
      <trkpt lat="45.94217" lon="4.71579">
        <ele>174</ele>
        <time>2017-12-23T09:58:08Z</time>
      </trkpt>
      <trkpt lat="45.94221" lon="4.71577">
        <ele>174</ele>
        <time>2017-12-23T09:58:09Z</time>
      </trkpt>
      <trkpt lat="45.94226" lon="4.71574">
        <ele>174</ele>
        <time>2017-12-23T09:58:10Z</time>
      </trkpt>
      <trkpt lat="45.9423" lon="4.71573">
        <ele>174</ele>
        <time>2017-12-23T09:58:11Z</time>
      </trkpt>
      <trkpt lat="45.94235" lon="4.71571">
        <ele>174</ele>
        <time>2017-12-23T09:58:12Z</time>
      </trkpt>
      <trkpt lat="45.94241" lon="4.71569">
        <ele>174</ele>
        <time>2017-12-23T09:58:13Z</time>
      </trkpt>
      <trkpt lat="45.94246" lon="4.71567">
        <ele>174</ele>
        <time>2017-12-23T09:58:14Z</time>
      </trkpt>
      <trkpt lat="45.94251" lon="4.71563">
        <ele>175</ele>
        <time>2017-12-23T09:58:15Z</time>
      </trkpt>
      <trkpt lat="45.94255" lon="4.7156">
        <ele>175</ele>
        <time>2017-12-23T09:58:16Z</time>
      </trkpt>
      <trkpt lat="45.94261" lon="4.71559">
        <ele>175</ele>
        <time>2017-12-23T09:58:17Z</time>
      </trkpt>
      <trkpt lat="45.94265" lon="4.71557">
        <ele>175</ele>
        <time>2017-12-23T09:58:18Z</time>
      </trkpt>
      <trkpt lat="45.9427" lon="4.71555">
        <ele>175</ele>
        <time>2017-12-23T09:58:19Z</time>
      </trkpt>
      <trkpt lat="45.94274" lon="4.71554">
        <ele>175</ele>
        <time>2017-12-23T09:58:20Z</time>
      </trkpt>
      <trkpt lat="45.94279" lon="4.71551">
        <ele>175</ele>
        <time>2017-12-23T09:58:21Z</time>
      </trkpt>
      <trkpt lat="45.94284" lon="4.7155">
        <ele>175</ele>
        <time>2017-12-23T09:58:22Z</time>
      </trkpt>
      <trkpt lat="45.94288" lon="4.71547">
        <ele>175</ele>
        <time>2017-12-23T09:58:23Z</time>
      </trkpt>
      <trkpt lat="45.94292" lon="4.71545">
        <ele>175</ele>
        <time>2017-12-23T09:58:24Z</time>
      </trkpt>
      <trkpt lat="45.94299" lon="4.71543">
        <ele>175</ele>
        <time>2017-12-23T09:58:25Z</time>
      </trkpt>
      <trkpt lat="45.94304" lon="4.71541">
        <ele>175</ele>
        <time>2017-12-23T09:58:26Z</time>
      </trkpt>
      <trkpt lat="45.94309" lon="4.71538">
        <ele>175</ele>
        <time>2017-12-23T09:58:27Z</time>
      </trkpt>
      <trkpt lat="45.94316" lon="4.71536">
        <ele>175</ele>
        <time>2017-12-23T09:58:29Z</time>
      </trkpt>
      <trkpt lat="45.94321" lon="4.71536">
        <ele>175</ele>
        <time>2017-12-23T09:58:30Z</time>
      </trkpt>
      <trkpt lat="45.94327" lon="4.71534">
        <ele>176</ele>
        <time>2017-12-23T09:58:32Z</time>
      </trkpt>
      <trkpt lat="45.94333" lon="4.71533">
        <ele>176</ele>
        <time>2017-12-23T09:58:33Z</time>
      </trkpt>
      <trkpt lat="45.94338" lon="4.71531">
        <ele>176</ele>
        <time>2017-12-23T09:58:34Z</time>
      </trkpt>
      <trkpt lat="45.94343" lon="4.7153">
        <ele>176</ele>
        <time>2017-12-23T09:58:35Z</time>
      </trkpt>
      <trkpt lat="45.94347" lon="4.71528">
        <ele>176</ele>
        <time>2017-12-23T09:58:36Z</time>
      </trkpt>
      <trkpt lat="45.94352" lon="4.71526">
        <ele>176</ele>
        <time>2017-12-23T09:58:37Z</time>
      </trkpt>
      <trkpt lat="45.94358" lon="4.71524">
        <ele>176</ele>
        <time>2017-12-23T09:58:38Z</time>
      </trkpt>
      <trkpt lat="45.94363" lon="4.71522">
        <ele>176</ele>
        <time>2017-12-23T09:58:39Z</time>
      </trkpt>
      <trkpt lat="45.94368" lon="4.71519">
        <ele>176</ele>
        <time>2017-12-23T09:58:40Z</time>
      </trkpt>
      <trkpt lat="45.94372" lon="4.71518">
        <ele>176</ele>
        <time>2017-12-23T09:58:41Z</time>
      </trkpt>
      <trkpt lat="45.94378" lon="4.71517">
        <ele>176</ele>
        <time>2017-12-23T09:58:42Z</time>
      </trkpt>
      <trkpt lat="45.94382" lon="4.71516">
        <ele>177</ele>
        <time>2017-12-23T09:58:43Z</time>
      </trkpt>
      <trkpt lat="45.94387" lon="4.71515">
        <ele>177</ele>
        <time>2017-12-23T09:58:44Z</time>
      </trkpt>
      <trkpt lat="45.94394" lon="4.71512">
        <ele>177</ele>
        <time>2017-12-23T09:58:45Z</time>
      </trkpt>
      <trkpt lat="45.94399" lon="4.71509">
        <ele>177</ele>
        <time>2017-12-23T09:58:46Z</time>
      </trkpt>
      <trkpt lat="45.94404" lon="4.71508">
        <ele>177</ele>
        <time>2017-12-23T09:58:47Z</time>
      </trkpt>
      <trkpt lat="45.9441" lon="4.71506">
        <ele>177</ele>
        <time>2017-12-23T09:58:48Z</time>
      </trkpt>
      <trkpt lat="45.94414" lon="4.71505">
        <ele>178</ele>
        <time>2017-12-23T09:58:49Z</time>
      </trkpt>
      <trkpt lat="45.94419" lon="4.71503">
        <ele>178</ele>
        <time>2017-12-23T09:58:50Z</time>
      </trkpt>
      <trkpt lat="45.94423" lon="4.71501">
        <ele>178</ele>
        <time>2017-12-23T09:58:51Z</time>
      </trkpt>
      <trkpt lat="45.94428" lon="4.71499">
        <ele>178</ele>
        <time>2017-12-23T09:58:52Z</time>
      </trkpt>
      <trkpt lat="45.94433" lon="4.71497">
        <ele>178</ele>
        <time>2017-12-23T09:58:53Z</time>
      </trkpt>
      <trkpt lat="45.94438" lon="4.71494">
        <ele>178</ele>
        <time>2017-12-23T09:58:54Z</time>
      </trkpt>
      <trkpt lat="45.94443" lon="4.71491">
        <ele>178</ele>
        <time>2017-12-23T09:58:55Z</time>
      </trkpt>
      <trkpt lat="45.94449" lon="4.71489">
        <ele>179</ele>
        <time>2017-12-23T09:58:56Z</time>
      </trkpt>
      <trkpt lat="45.94453" lon="4.71487">
        <ele>179</ele>
        <time>2017-12-23T09:58:57Z</time>
      </trkpt>
      <trkpt lat="45.94457" lon="4.71485">
        <ele>179</ele>
        <time>2017-12-23T09:58:58Z</time>
      </trkpt>
      <trkpt lat="45.94463" lon="4.71483">
        <ele>179</ele>
        <time>2017-12-23T09:58:59Z</time>
      </trkpt>
      <trkpt lat="45.94468" lon="4.7148">
        <ele>179</ele>
        <time>2017-12-23T09:59:00Z</time>
      </trkpt>
      <trkpt lat="45.94473" lon="4.71479">
        <ele>179</ele>
        <time>2017-12-23T09:59:01Z</time>
      </trkpt>
      <trkpt lat="45.94478" lon="4.71476">
        <ele>179</ele>
        <time>2017-12-23T09:59:02Z</time>
      </trkpt>
      <trkpt lat="45.94482" lon="4.71473">
        <ele>179</ele>
        <time>2017-12-23T09:59:03Z</time>
      </trkpt>
      <trkpt lat="45.9449" lon="4.71469">
        <ele>179</ele>
        <time>2017-12-23T09:59:05Z</time>
      </trkpt>
      <trkpt lat="45.94494" lon="4.71467">
        <ele>179</ele>
        <time>2017-12-23T09:59:06Z</time>
      </trkpt>
      <trkpt lat="45.94499" lon="4.71464">
        <ele>179</ele>
        <time>2017-12-23T09:59:07Z</time>
      </trkpt>
      <trkpt lat="45.94504" lon="4.71461">
        <ele>180</ele>
        <time>2017-12-23T09:59:08Z</time>
      </trkpt>
      <trkpt lat="45.94508" lon="4.71458">
        <ele>180</ele>
        <time>2017-12-23T09:59:09Z</time>
      </trkpt>
      <trkpt lat="45.94513" lon="4.71457">
        <ele>180</ele>
        <time>2017-12-23T09:59:10Z</time>
      </trkpt>
      <trkpt lat="45.94517" lon="4.71455">
        <ele>180</ele>
        <time>2017-12-23T09:59:11Z</time>
      </trkpt>
      <trkpt lat="45.94523" lon="4.71454">
        <ele>180</ele>
        <time>2017-12-23T09:59:12Z</time>
      </trkpt>
      <trkpt lat="45.94527" lon="4.71452">
        <ele>180</ele>
        <time>2017-12-23T09:59:13Z</time>
      </trkpt>
      <trkpt lat="45.94533" lon="4.71451">
        <ele>180</ele>
        <time>2017-12-23T09:59:14Z</time>
      </trkpt>
      <trkpt lat="45.94537" lon="4.71449">
        <ele>180</ele>
        <time>2017-12-23T09:59:15Z</time>
      </trkpt>
      <trkpt lat="45.94543" lon="4.71446">
        <ele>181</ele>
        <time>2017-12-23T09:59:16Z</time>
      </trkpt>
      <trkpt lat="45.94547" lon="4.71444">
        <ele>181</ele>
        <time>2017-12-23T09:59:17Z</time>
      </trkpt>
      <trkpt lat="45.94552" lon="4.71443">
        <ele>181</ele>
        <time>2017-12-23T09:59:18Z</time>
      </trkpt>
      <trkpt lat="45.9456" lon="4.71443">
        <ele>181</ele>
        <time>2017-12-23T09:59:20Z</time>
      </trkpt>
      <trkpt lat="45.94565" lon="4.71441">
        <ele>181</ele>
        <time>2017-12-23T09:59:21Z</time>
      </trkpt>
      <trkpt lat="45.9457" lon="4.7144">
        <ele>181</ele>
        <time>2017-12-23T09:59:22Z</time>
      </trkpt>
      <trkpt lat="45.94574" lon="4.7144">
        <ele>182</ele>
        <time>2017-12-23T09:59:23Z</time>
      </trkpt>
      <trkpt lat="45.94579" lon="4.7144">
        <ele>182</ele>
        <time>2017-12-23T09:59:24Z</time>
      </trkpt>
      <trkpt lat="45.94583" lon="4.7144">
        <ele>182</ele>
        <time>2017-12-23T09:59:25Z</time>
      </trkpt>
      <trkpt lat="45.94591" lon="4.71441">
        <ele>182</ele>
        <time>2017-12-23T09:59:27Z</time>
      </trkpt>
      <trkpt lat="45.94596" lon="4.71441">
        <ele>182</ele>
        <time>2017-12-23T09:59:28Z</time>
      </trkpt>
      <trkpt lat="45.94601" lon="4.71442">
        <ele>182</ele>
        <time>2017-12-23T09:59:29Z</time>
      </trkpt>
      <trkpt lat="45.94606" lon="4.71442">
        <ele>181</ele>
        <time>2017-12-23T09:59:30Z</time>
      </trkpt>
      <trkpt lat="45.94611" lon="4.71442">
        <ele>181</ele>
        <time>2017-12-23T09:59:31Z</time>
      </trkpt>
      <trkpt lat="45.94616" lon="4.71442">
        <ele>181</ele>
        <time>2017-12-23T09:59:32Z</time>
      </trkpt>
      <trkpt lat="45.94624" lon="4.71441">
        <ele>181</ele>
        <time>2017-12-23T09:59:34Z</time>
      </trkpt>
      <trkpt lat="45.94629" lon="4.71442">
        <ele>181</ele>
        <time>2017-12-23T09:59:35Z</time>
      </trkpt>
      <trkpt lat="45.94634" lon="4.71443">
        <ele>181</ele>
        <time>2017-12-23T09:59:36Z</time>
      </trkpt>
      <trkpt lat="45.94639" lon="4.71443">
        <ele>181</ele>
        <time>2017-12-23T09:59:37Z</time>
      </trkpt>
      <trkpt lat="45.94648" lon="4.71444">
        <ele>181</ele>
        <time>2017-12-23T09:59:39Z</time>
      </trkpt>
      <trkpt lat="45.94653" lon="4.71444">
        <ele>181</ele>
        <time>2017-12-23T09:59:40Z</time>
      </trkpt>
      <trkpt lat="45.94658" lon="4.71445">
        <ele>181</ele>
        <time>2017-12-23T09:59:41Z</time>
      </trkpt>
      <trkpt lat="45.94663" lon="4.71445">
        <ele>181</ele>
        <time>2017-12-23T09:59:42Z</time>
      </trkpt>
      <trkpt lat="45.94668" lon="4.71445">
        <ele>182</ele>
        <time>2017-12-23T09:59:43Z</time>
      </trkpt>
      <trkpt lat="45.94674" lon="4.71445">
        <ele>182</ele>
        <time>2017-12-23T09:59:44Z</time>
      </trkpt>
      <trkpt lat="45.94679" lon="4.71446">
        <ele>182</ele>
        <time>2017-12-23T09:59:45Z</time>
      </trkpt>
      <trkpt lat="45.94684" lon="4.71447">
        <ele>182</ele>
        <time>2017-12-23T09:59:46Z</time>
      </trkpt>
      <trkpt lat="45.9469" lon="4.71448">
        <ele>182</ele>
        <time>2017-12-23T09:59:47Z</time>
      </trkpt>
      <trkpt lat="45.94695" lon="4.71449">
        <ele>182</ele>
        <time>2017-12-23T09:59:48Z</time>
      </trkpt>
      <trkpt lat="45.947" lon="4.7145">
        <ele>182</ele>
        <time>2017-12-23T09:59:49Z</time>
      </trkpt>
      <trkpt lat="45.94705" lon="4.7145">
        <ele>182</ele>
        <time>2017-12-23T09:59:50Z</time>
      </trkpt>
      <trkpt lat="45.9471" lon="4.71451">
        <ele>182</ele>
        <time>2017-12-23T09:59:51Z</time>
      </trkpt>
      <trkpt lat="45.94715" lon="4.71451">
        <ele>182</ele>
        <time>2017-12-23T09:59:52Z</time>
      </trkpt>
      <trkpt lat="45.9472" lon="4.71451">
        <ele>182</ele>
        <time>2017-12-23T09:59:53Z</time>
      </trkpt>
      <trkpt lat="45.94725" lon="4.71452">
        <ele>182</ele>
        <time>2017-12-23T09:59:54Z</time>
      </trkpt>
      <trkpt lat="45.9473" lon="4.71454">
        <ele>182</ele>
        <time>2017-12-23T09:59:55Z</time>
      </trkpt>
      <trkpt lat="45.94736" lon="4.71454">
        <ele>182</ele>
        <time>2017-12-23T09:59:56Z</time>
      </trkpt>
      <trkpt lat="45.94742" lon="4.71454">
        <ele>182</ele>
        <time>2017-12-23T09:59:57Z</time>
      </trkpt>
      <trkpt lat="45.94748" lon="4.71454">
        <ele>182</ele>
        <time>2017-12-23T09:59:58Z</time>
      </trkpt>
      <trkpt lat="45.94756" lon="4.71457">
        <ele>183</ele>
        <time>2017-12-23T10:00:00Z</time>
      </trkpt>
      <trkpt lat="45.94762" lon="4.71457">
        <ele>183</ele>
        <time>2017-12-23T10:00:01Z</time>
      </trkpt>
      <trkpt lat="45.94766" lon="4.71457">
        <ele>183</ele>
        <time>2017-12-23T10:00:02Z</time>
      </trkpt>
      <trkpt lat="45.94772" lon="4.71457">
        <ele>183</ele>
        <time>2017-12-23T10:00:03Z</time>
      </trkpt>
      <trkpt lat="45.94776" lon="4.71457">
        <ele>183</ele>
        <time>2017-12-23T10:00:04Z</time>
      </trkpt>
      <trkpt lat="45.94782" lon="4.71457">
        <ele>183</ele>
        <time>2017-12-23T10:00:05Z</time>
      </trkpt>
      <trkpt lat="45.94787" lon="4.71458">
        <ele>183</ele>
        <time>2017-12-23T10:00:06Z</time>
      </trkpt>
      <trkpt lat="45.94791" lon="4.71458">
        <ele>183</ele>
        <time>2017-12-23T10:00:07Z</time>
      </trkpt>
      <trkpt lat="45.94797" lon="4.71459">
        <ele>183</ele>
        <time>2017-12-23T10:00:08Z</time>
      </trkpt>
      <trkpt lat="45.94803" lon="4.71459">
        <ele>183</ele>
        <time>2017-12-23T10:00:09Z</time>
      </trkpt>
      <trkpt lat="45.94809" lon="4.71459">
        <ele>183</ele>
        <time>2017-12-23T10:00:10Z</time>
      </trkpt>
      <trkpt lat="45.94814" lon="4.7146">
        <ele>183</ele>
        <time>2017-12-23T10:00:11Z</time>
      </trkpt>
      <trkpt lat="45.9482" lon="4.7146">
        <ele>183</ele>
        <time>2017-12-23T10:00:12Z</time>
      </trkpt>
      <trkpt lat="45.94825" lon="4.71463">
        <ele>183</ele>
        <time>2017-12-23T10:00:13Z</time>
      </trkpt>
      <trkpt lat="45.94832" lon="4.71462">
        <ele>183</ele>
        <time>2017-12-23T10:00:14Z</time>
      </trkpt>
      <trkpt lat="45.94837" lon="4.71463">
        <ele>183</ele>
        <time>2017-12-23T10:00:15Z</time>
      </trkpt>
      <trkpt lat="45.94843" lon="4.71463">
        <ele>183</ele>
        <time>2017-12-23T10:00:16Z</time>
      </trkpt>
      <trkpt lat="45.94849" lon="4.71464">
        <ele>183</ele>
        <time>2017-12-23T10:00:17Z</time>
      </trkpt>
      <trkpt lat="45.94855" lon="4.71465">
        <ele>183</ele>
        <time>2017-12-23T10:00:18Z</time>
      </trkpt>
      <trkpt lat="45.9486" lon="4.71466">
        <ele>183</ele>
        <time>2017-12-23T10:00:19Z</time>
      </trkpt>
      <trkpt lat="45.94865" lon="4.71467">
        <ele>183</ele>
        <time>2017-12-23T10:00:20Z</time>
      </trkpt>
      <trkpt lat="45.94871" lon="4.71468">
        <ele>183</ele>
        <time>2017-12-23T10:00:21Z</time>
      </trkpt>
      <trkpt lat="45.94876" lon="4.71468">
        <ele>183</ele>
        <time>2017-12-23T10:00:22Z</time>
      </trkpt>
      <trkpt lat="45.94881" lon="4.71468">
        <ele>183</ele>
        <time>2017-12-23T10:00:23Z</time>
      </trkpt>
      <trkpt lat="45.94887" lon="4.7147">
        <ele>183</ele>
        <time>2017-12-23T10:00:24Z</time>
      </trkpt>
      <trkpt lat="45.94891" lon="4.71471">
        <ele>183</ele>
        <time>2017-12-23T10:00:25Z</time>
      </trkpt>
      <trkpt lat="45.94896" lon="4.71472">
        <ele>183</ele>
        <time>2017-12-23T10:00:26Z</time>
      </trkpt>
      <trkpt lat="45.94901" lon="4.71473">
        <ele>183</ele>
        <time>2017-12-23T10:00:27Z</time>
      </trkpt>
      <trkpt lat="45.94906" lon="4.71474">
        <ele>183</ele>
        <time>2017-12-23T10:00:28Z</time>
      </trkpt>
      <trkpt lat="45.94913" lon="4.71475">
        <ele>182</ele>
        <time>2017-12-23T10:00:29Z</time>
      </trkpt>
      <trkpt lat="45.94918" lon="4.71475">
        <ele>182</ele>
        <time>2017-12-23T10:00:30Z</time>
      </trkpt>
      <trkpt lat="45.94924" lon="4.71476">
        <ele>182</ele>
        <time>2017-12-23T10:00:31Z</time>
      </trkpt>
      <trkpt lat="45.94928" lon="4.71476">
        <ele>182</ele>
        <time>2017-12-23T10:00:32Z</time>
      </trkpt>
      <trkpt lat="45.94933" lon="4.71475">
        <ele>183</ele>
        <time>2017-12-23T10:00:33Z</time>
      </trkpt>
      <trkpt lat="45.94938" lon="4.71475">
        <ele>183</ele>
        <time>2017-12-23T10:00:34Z</time>
      </trkpt>
      <trkpt lat="45.94942" lon="4.71476">
        <ele>183</ele>
        <time>2017-12-23T10:00:35Z</time>
      </trkpt>
      <trkpt lat="45.94948" lon="4.71478">
        <ele>183</ele>
        <time>2017-12-23T10:00:36Z</time>
      </trkpt>
      <trkpt lat="45.94954" lon="4.71481">
        <ele>183</ele>
        <time>2017-12-23T10:00:37Z</time>
      </trkpt>
      <trkpt lat="45.94959" lon="4.71485">
        <ele>182</ele>
        <time>2017-12-23T10:00:38Z</time>
      </trkpt>
      <trkpt lat="45.94964" lon="4.71489">
        <ele>182</ele>
        <time>2017-12-23T10:00:39Z</time>
      </trkpt>
      <trkpt lat="45.9497" lon="4.71491">
        <ele>182</ele>
        <time>2017-12-23T10:00:40Z</time>
      </trkpt>
      <trkpt lat="45.94975" lon="4.71492">
        <ele>182</ele>
        <time>2017-12-23T10:00:41Z</time>
      </trkpt>
      <trkpt lat="45.9498" lon="4.7149">
        <ele>182</ele>
        <time>2017-12-23T10:00:42Z</time>
      </trkpt>
      <trkpt lat="45.94985" lon="4.71487">
        <ele>182</ele>
        <time>2017-12-23T10:00:43Z</time>
      </trkpt>
      <trkpt lat="45.94989" lon="4.71485">
        <ele>182</ele>
        <time>2017-12-23T10:00:44Z</time>
      </trkpt>
      <trkpt lat="45.94993" lon="4.71482">
        <ele>182</ele>
        <time>2017-12-23T10:00:45Z</time>
      </trkpt>
      <trkpt lat="45.94998" lon="4.71479">
        <ele>182</ele>
        <time>2017-12-23T10:00:46Z</time>
      </trkpt>
      <trkpt lat="45.95003" lon="4.71479">
        <ele>181</ele>
        <time>2017-12-23T10:00:47Z</time>
      </trkpt>
      <trkpt lat="45.95009" lon="4.7148">
        <ele>181</ele>
        <time>2017-12-23T10:00:48Z</time>
      </trkpt>
      <trkpt lat="45.95015" lon="4.7148">
        <ele>181</ele>
        <time>2017-12-23T10:00:49Z</time>
      </trkpt>
      <trkpt lat="45.95021" lon="4.71481">
        <ele>181</ele>
        <time>2017-12-23T10:00:50Z</time>
      </trkpt>
      <trkpt lat="45.95028" lon="4.71481">
        <ele>181</ele>
        <time>2017-12-23T10:00:51Z</time>
      </trkpt>
      <trkpt lat="45.95034" lon="4.71481">
        <ele>181</ele>
        <time>2017-12-23T10:00:52Z</time>
      </trkpt>
      <trkpt lat="45.9504" lon="4.71482">
        <ele>181</ele>
        <time>2017-12-23T10:00:53Z</time>
      </trkpt>
      <trkpt lat="45.95047" lon="4.71482">
        <ele>181</ele>
        <time>2017-12-23T10:00:54Z</time>
      </trkpt>
      <trkpt lat="45.95054" lon="4.71482">
        <ele>181</ele>
        <time>2017-12-23T10:00:55Z</time>
      </trkpt>
      <trkpt lat="45.95061" lon="4.71483">
        <ele>181</ele>
        <time>2017-12-23T10:00:56Z</time>
      </trkpt>
      <trkpt lat="45.95068" lon="4.71483">
        <ele>181</ele>
        <time>2017-12-23T10:00:57Z</time>
      </trkpt>
      <trkpt lat="45.95076" lon="4.71483">
        <ele>180</ele>
        <time>2017-12-23T10:00:58Z</time>
      </trkpt>
      <trkpt lat="45.95082" lon="4.71483">
        <ele>180</ele>
        <time>2017-12-23T10:00:59Z</time>
      </trkpt>
      <trkpt lat="45.9509" lon="4.71483">
        <ele>179</ele>
        <time>2017-12-23T10:01:00Z</time>
      </trkpt>
      <trkpt lat="45.95097" lon="4.71481">
        <ele>179</ele>
        <time>2017-12-23T10:01:01Z</time>
      </trkpt>
      <trkpt lat="45.95106" lon="4.71481">
        <ele>179</ele>
        <time>2017-12-23T10:01:02Z</time>
      </trkpt>
      <trkpt lat="45.95114" lon="4.71481">
        <ele>179</ele>
        <time>2017-12-23T10:01:03Z</time>
      </trkpt>
      <trkpt lat="45.9512" lon="4.71481">
        <ele>178</ele>
        <time>2017-12-23T10:01:04Z</time>
      </trkpt>
      <trkpt lat="45.95127" lon="4.71481">
        <ele>178</ele>
        <time>2017-12-23T10:01:05Z</time>
      </trkpt>
      <trkpt lat="45.95134" lon="4.71482">
        <ele>178</ele>
        <time>2017-12-23T10:01:06Z</time>
      </trkpt>
      <trkpt lat="45.95143" lon="4.71482">
        <ele>178</ele>
        <time>2017-12-23T10:01:07Z</time>
      </trkpt>
      <trkpt lat="45.9515" lon="4.71483">
        <ele>178</ele>
        <time>2017-12-23T10:01:08Z</time>
      </trkpt>
      <trkpt lat="45.95157" lon="4.71484">
        <ele>178</ele>
        <time>2017-12-23T10:01:09Z</time>
      </trkpt>
      <trkpt lat="45.95165" lon="4.71485">
        <ele>178</ele>
        <time>2017-12-23T10:01:10Z</time>
      </trkpt>
      <trkpt lat="45.95173" lon="4.71486">
        <ele>177</ele>
        <time>2017-12-23T10:01:11Z</time>
      </trkpt>
      <trkpt lat="45.9518" lon="4.71487">
        <ele>177</ele>
        <time>2017-12-23T10:01:12Z</time>
      </trkpt>
      <trkpt lat="45.95187" lon="4.71488">
        <ele>177</ele>
        <time>2017-12-23T10:01:13Z</time>
      </trkpt>
      <trkpt lat="45.95195" lon="4.71488">
        <ele>177</ele>
        <time>2017-12-23T10:01:14Z</time>
      </trkpt>
      <trkpt lat="45.95202" lon="4.71488">
        <ele>177</ele>
        <time>2017-12-23T10:01:15Z</time>
      </trkpt>
      <trkpt lat="45.95208" lon="4.71489">
        <ele>177</ele>
        <time>2017-12-23T10:01:16Z</time>
      </trkpt>
      <trkpt lat="45.95215" lon="4.7149">
        <ele>177</ele>
        <time>2017-12-23T10:01:17Z</time>
      </trkpt>
      <trkpt lat="45.95223" lon="4.71491">
        <ele>177</ele>
        <time>2017-12-23T10:01:18Z</time>
      </trkpt>
      <trkpt lat="45.9523" lon="4.71491">
        <ele>177</ele>
        <time>2017-12-23T10:01:19Z</time>
      </trkpt>
      <trkpt lat="45.95237" lon="4.71491">
        <ele>177</ele>
        <time>2017-12-23T10:01:20Z</time>
      </trkpt>
      <trkpt lat="45.95244" lon="4.71492">
        <ele>177</ele>
        <time>2017-12-23T10:01:21Z</time>
      </trkpt>
      <trkpt lat="45.95251" lon="4.71492">
        <ele>177</ele>
        <time>2017-12-23T10:01:22Z</time>
      </trkpt>
      <trkpt lat="45.95259" lon="4.71493">
        <ele>176</ele>
        <time>2017-12-23T10:01:23Z</time>
      </trkpt>
      <trkpt lat="45.95266" lon="4.71492">
        <ele>176</ele>
        <time>2017-12-23T10:01:24Z</time>
      </trkpt>
      <trkpt lat="45.95272" lon="4.71493">
        <ele>176</ele>
        <time>2017-12-23T10:01:25Z</time>
      </trkpt>
      <trkpt lat="45.95279" lon="4.71495">
        <ele>176</ele>
        <time>2017-12-23T10:01:26Z</time>
      </trkpt>
      <trkpt lat="45.95286" lon="4.71495">
        <ele>176</ele>
        <time>2017-12-23T10:01:27Z</time>
      </trkpt>
      <trkpt lat="45.95291" lon="4.71496">
        <ele>176</ele>
        <time>2017-12-23T10:01:28Z</time>
      </trkpt>
      <trkpt lat="45.95298" lon="4.71496">
        <ele>175</ele>
        <time>2017-12-23T10:01:29Z</time>
      </trkpt>
      <trkpt lat="45.95303" lon="4.71496">
        <ele>175</ele>
        <time>2017-12-23T10:01:30Z</time>
      </trkpt>
      <trkpt lat="45.9531" lon="4.71497">
        <ele>175</ele>
        <time>2017-12-23T10:01:31Z</time>
      </trkpt>
      <trkpt lat="45.95315" lon="4.71497">
        <ele>175</ele>
        <time>2017-12-23T10:01:32Z</time>
      </trkpt>
      <trkpt lat="45.95321" lon="4.71497">
        <ele>175</ele>
        <time>2017-12-23T10:01:33Z</time>
      </trkpt>
      <trkpt lat="45.95328" lon="4.71497">
        <ele>174</ele>
        <time>2017-12-23T10:01:34Z</time>
      </trkpt>
      <trkpt lat="45.95335" lon="4.71496">
        <ele>174</ele>
        <time>2017-12-23T10:01:35Z</time>
      </trkpt>
      <trkpt lat="45.95341" lon="4.71496">
        <ele>174</ele>
        <time>2017-12-23T10:01:36Z</time>
      </trkpt>
      <trkpt lat="45.95347" lon="4.71497">
        <ele>174</ele>
        <time>2017-12-23T10:01:37Z</time>
      </trkpt>
      <trkpt lat="45.95353" lon="4.71498">
        <ele>175</ele>
        <time>2017-12-23T10:01:38Z</time>
      </trkpt>
      <trkpt lat="45.95359" lon="4.71499">
        <ele>175</ele>
        <time>2017-12-23T10:01:39Z</time>
      </trkpt>
      <trkpt lat="45.95366" lon="4.71499">
        <ele>175</ele>
        <time>2017-12-23T10:01:40Z</time>
      </trkpt>
      <trkpt lat="45.95373" lon="4.71499">
        <ele>175</ele>
        <time>2017-12-23T10:01:41Z</time>
      </trkpt>
      <trkpt lat="45.95379" lon="4.715">
        <ele>174</ele>
        <time>2017-12-23T10:01:42Z</time>
      </trkpt>
      <trkpt lat="45.95386" lon="4.71499">
        <ele>175</ele>
        <time>2017-12-23T10:01:43Z</time>
      </trkpt>
      <trkpt lat="45.95392" lon="4.71499">
        <ele>175</ele>
        <time>2017-12-23T10:01:44Z</time>
      </trkpt>
      <trkpt lat="45.95398" lon="4.715">
        <ele>175</ele>
        <time>2017-12-23T10:01:45Z</time>
      </trkpt>
      <trkpt lat="45.95405" lon="4.715">
        <ele>174</ele>
        <time>2017-12-23T10:01:46Z</time>
      </trkpt>
      <trkpt lat="45.95411" lon="4.715">
        <ele>174</ele>
        <time>2017-12-23T10:01:47Z</time>
      </trkpt>
      <trkpt lat="45.95418" lon="4.71499">
        <ele>174</ele>
        <time>2017-12-23T10:01:48Z</time>
      </trkpt>
      <trkpt lat="45.95424" lon="4.715">
        <ele>175</ele>
        <time>2017-12-23T10:01:49Z</time>
      </trkpt>
      <trkpt lat="45.95429" lon="4.71501">
        <ele>174</ele>
        <time>2017-12-23T10:01:50Z</time>
      </trkpt>
      <trkpt lat="45.95434" lon="4.715">
        <ele>175</ele>
        <time>2017-12-23T10:01:51Z</time>
      </trkpt>
      <trkpt lat="45.9544" lon="4.71501">
        <ele>175</ele>
        <time>2017-12-23T10:01:52Z</time>
      </trkpt>
      <trkpt lat="45.95444" lon="4.71501">
        <ele>175</ele>
        <time>2017-12-23T10:01:53Z</time>
      </trkpt>
      <trkpt lat="45.95449" lon="4.71502">
        <ele>175</ele>
        <time>2017-12-23T10:01:54Z</time>
      </trkpt>
      <trkpt lat="45.95454" lon="4.71503">
        <ele>175</ele>
        <time>2017-12-23T10:01:55Z</time>
      </trkpt>
      <trkpt lat="45.9546" lon="4.71504">
        <ele>175</ele>
        <time>2017-12-23T10:01:56Z</time>
      </trkpt>
      <trkpt lat="45.95465" lon="4.71506">
        <ele>175</ele>
        <time>2017-12-23T10:01:57Z</time>
      </trkpt>
      <trkpt lat="45.9547" lon="4.71507">
        <ele>175</ele>
        <time>2017-12-23T10:01:58Z</time>
      </trkpt>
      <trkpt lat="45.95476" lon="4.71507">
        <ele>176</ele>
        <time>2017-12-23T10:01:59Z</time>
      </trkpt>
      <trkpt lat="45.95481" lon="4.71508">
        <ele>176</ele>
        <time>2017-12-23T10:02:00Z</time>
      </trkpt>
      <trkpt lat="45.95486" lon="4.71508">
        <ele>176</ele>
        <time>2017-12-23T10:02:01Z</time>
      </trkpt>
      <trkpt lat="45.95492" lon="4.71509">
        <ele>176</ele>
        <time>2017-12-23T10:02:02Z</time>
      </trkpt>
      <trkpt lat="45.95498" lon="4.71509">
        <ele>176</ele>
        <time>2017-12-23T10:02:03Z</time>
      </trkpt>
      <trkpt lat="45.95504" lon="4.7151">
        <ele>177</ele>
        <time>2017-12-23T10:02:04Z</time>
      </trkpt>
      <trkpt lat="45.95508" lon="4.7151">
        <ele>177</ele>
        <time>2017-12-23T10:02:05Z</time>
      </trkpt>
      <trkpt lat="45.95514" lon="4.7151">
        <ele>177</ele>
        <time>2017-12-23T10:02:06Z</time>
      </trkpt>
      <trkpt lat="45.95521" lon="4.7151">
        <ele>177</ele>
        <time>2017-12-23T10:02:07Z</time>
      </trkpt>
      <trkpt lat="45.95528" lon="4.7151">
        <ele>177</ele>
        <time>2017-12-23T10:02:08Z</time>
      </trkpt>
      <trkpt lat="45.95533" lon="4.7151">
        <ele>177</ele>
        <time>2017-12-23T10:02:09Z</time>
      </trkpt>
      <trkpt lat="45.95538" lon="4.7151">
        <ele>177</ele>
        <time>2017-12-23T10:02:10Z</time>
      </trkpt>
      <trkpt lat="45.95543" lon="4.71511">
        <ele>178</ele>
        <time>2017-12-23T10:02:11Z</time>
      </trkpt>
      <trkpt lat="45.95549" lon="4.71511">
        <ele>178</ele>
        <time>2017-12-23T10:02:12Z</time>
      </trkpt>
      <trkpt lat="45.95555" lon="4.71511">
        <ele>178</ele>
        <time>2017-12-23T10:02:13Z</time>
      </trkpt>
      <trkpt lat="45.9556" lon="4.71513">
        <ele>178</ele>
        <time>2017-12-23T10:02:14Z</time>
      </trkpt>
      <trkpt lat="45.95566" lon="4.71513">
        <ele>178</ele>
        <time>2017-12-23T10:02:15Z</time>
      </trkpt>
      <trkpt lat="45.95571" lon="4.71514">
        <ele>178</ele>
        <time>2017-12-23T10:02:16Z</time>
      </trkpt>
      <trkpt lat="45.95576" lon="4.71515">
        <ele>179</ele>
        <time>2017-12-23T10:02:17Z</time>
      </trkpt>
      <trkpt lat="45.9558" lon="4.71515">
        <ele>179</ele>
        <time>2017-12-23T10:02:18Z</time>
      </trkpt>
      <trkpt lat="45.95586" lon="4.71515">
        <ele>179</ele>
        <time>2017-12-23T10:02:19Z</time>
      </trkpt>
      <trkpt lat="45.95591" lon="4.71515">
        <ele>179</ele>
        <time>2017-12-23T10:02:20Z</time>
      </trkpt>
      <trkpt lat="45.95597" lon="4.71515">
        <ele>179</ele>
        <time>2017-12-23T10:02:21Z</time>
      </trkpt>
      <trkpt lat="45.95602" lon="4.71515">
        <ele>179</ele>
        <time>2017-12-23T10:02:22Z</time>
      </trkpt>
      <trkpt lat="45.95607" lon="4.71516">
        <ele>179</ele>
        <time>2017-12-23T10:02:23Z</time>
      </trkpt>
      <trkpt lat="45.95612" lon="4.71515">
        <ele>179</ele>
        <time>2017-12-23T10:02:24Z</time>
      </trkpt>
      <trkpt lat="45.95618" lon="4.71515">
        <ele>179</ele>
        <time>2017-12-23T10:02:25Z</time>
      </trkpt>
      <trkpt lat="45.95624" lon="4.71516">
        <ele>179</ele>
        <time>2017-12-23T10:02:26Z</time>
      </trkpt>
      <trkpt lat="45.95628" lon="4.71516">
        <ele>179</ele>
        <time>2017-12-23T10:02:27Z</time>
      </trkpt>
      <trkpt lat="45.95637" lon="4.71517">
        <ele>180</ele>
        <time>2017-12-23T10:02:29Z</time>
      </trkpt>
      <trkpt lat="45.95642" lon="4.71517">
        <ele>180</ele>
        <time>2017-12-23T10:02:30Z</time>
      </trkpt>
      <trkpt lat="45.95647" lon="4.71518">
        <ele>180</ele>
        <time>2017-12-23T10:02:31Z</time>
      </trkpt>
      <trkpt lat="45.95652" lon="4.71519">
        <ele>180</ele>
        <time>2017-12-23T10:02:32Z</time>
      </trkpt>
      <trkpt lat="45.95657" lon="4.71519">
        <ele>180</ele>
        <time>2017-12-23T10:02:33Z</time>
      </trkpt>
      <trkpt lat="45.95661" lon="4.7152">
        <ele>180</ele>
        <time>2017-12-23T10:02:34Z</time>
      </trkpt>
      <trkpt lat="45.95666" lon="4.71521">
        <ele>180</ele>
        <time>2017-12-23T10:02:35Z</time>
      </trkpt>
      <trkpt lat="45.95672" lon="4.71522">
        <ele>180</ele>
        <time>2017-12-23T10:02:36Z</time>
      </trkpt>
      <trkpt lat="45.95676" lon="4.71522">
        <ele>180</ele>
        <time>2017-12-23T10:02:37Z</time>
      </trkpt>
      <trkpt lat="45.95682" lon="4.71522">
        <ele>180</ele>
        <time>2017-12-23T10:02:38Z</time>
      </trkpt>
      <trkpt lat="45.95686" lon="4.71523">
        <ele>180</ele>
        <time>2017-12-23T10:02:39Z</time>
      </trkpt>
      <trkpt lat="45.95691" lon="4.71523">
        <ele>180</ele>
        <time>2017-12-23T10:02:40Z</time>
      </trkpt>
      <trkpt lat="45.95696" lon="4.71524">
        <ele>180</ele>
        <time>2017-12-23T10:02:41Z</time>
      </trkpt>
      <trkpt lat="45.95701" lon="4.71524">
        <ele>180</ele>
        <time>2017-12-23T10:02:42Z</time>
      </trkpt>
      <trkpt lat="45.95706" lon="4.71525">
        <ele>180</ele>
        <time>2017-12-23T10:02:43Z</time>
      </trkpt>
      <trkpt lat="45.95711" lon="4.71525">
        <ele>180</ele>
        <time>2017-12-23T10:02:44Z</time>
      </trkpt>
      <trkpt lat="45.95717" lon="4.71525">
        <ele>180</ele>
        <time>2017-12-23T10:02:45Z</time>
      </trkpt>
      <trkpt lat="45.95722" lon="4.71525">
        <ele>180</ele>
        <time>2017-12-23T10:02:46Z</time>
      </trkpt>
      <trkpt lat="45.95727" lon="4.71525">
        <ele>180</ele>
        <time>2017-12-23T10:02:47Z</time>
      </trkpt>
      <trkpt lat="45.95732" lon="4.71526">
        <ele>180</ele>
        <time>2017-12-23T10:02:48Z</time>
      </trkpt>
      <trkpt lat="45.95741" lon="4.71526">
        <ele>180</ele>
        <time>2017-12-23T10:02:50Z</time>
      </trkpt>
      <trkpt lat="45.95746" lon="4.71526">
        <ele>180</ele>
        <time>2017-12-23T10:02:51Z</time>
      </trkpt>
      <trkpt lat="45.95752" lon="4.71527">
        <ele>181</ele>
        <time>2017-12-23T10:02:52Z</time>
      </trkpt>
      <trkpt lat="45.95756" lon="4.71527">
        <ele>181</ele>
        <time>2017-12-23T10:02:53Z</time>
      </trkpt>
      <trkpt lat="45.9576" lon="4.71527">
        <ele>181</ele>
        <time>2017-12-23T10:02:54Z</time>
      </trkpt>
      <trkpt lat="45.95766" lon="4.71527">
        <ele>181</ele>
        <time>2017-12-23T10:02:55Z</time>
      </trkpt>
      <trkpt lat="45.95771" lon="4.71527">
        <ele>181</ele>
        <time>2017-12-23T10:02:56Z</time>
      </trkpt>
      <trkpt lat="45.95776" lon="4.71527">
        <ele>181</ele>
        <time>2017-12-23T10:02:57Z</time>
      </trkpt>
      <trkpt lat="45.95781" lon="4.71527">
        <ele>181</ele>
        <time>2017-12-23T10:02:58Z</time>
      </trkpt>
      <trkpt lat="45.95785" lon="4.71528">
        <ele>181</ele>
        <time>2017-12-23T10:02:59Z</time>
      </trkpt>
      <trkpt lat="45.9579" lon="4.71529">
        <ele>181</ele>
        <time>2017-12-23T10:03:00Z</time>
      </trkpt>
      <trkpt lat="45.95795" lon="4.7153">
        <ele>181</ele>
        <time>2017-12-23T10:03:01Z</time>
      </trkpt>
      <trkpt lat="45.958" lon="4.7153">
        <ele>181</ele>
        <time>2017-12-23T10:03:02Z</time>
      </trkpt>
      <trkpt lat="45.95805" lon="4.71531">
        <ele>181</ele>
        <time>2017-12-23T10:03:03Z</time>
      </trkpt>
      <trkpt lat="45.95814" lon="4.71531">
        <ele>181</ele>
        <time>2017-12-23T10:03:05Z</time>
      </trkpt>
      <trkpt lat="45.95818" lon="4.71532">
        <ele>181</ele>
        <time>2017-12-23T10:03:06Z</time>
      </trkpt>
      <trkpt lat="45.95824" lon="4.71532">
        <ele>181</ele>
        <time>2017-12-23T10:03:07Z</time>
      </trkpt>
      <trkpt lat="45.95829" lon="4.71533">
        <ele>181</ele>
        <time>2017-12-23T10:03:08Z</time>
      </trkpt>
      <trkpt lat="45.95833" lon="4.71533">
        <ele>182</ele>
        <time>2017-12-23T10:03:09Z</time>
      </trkpt>
      <trkpt lat="45.95838" lon="4.71534">
        <ele>182</ele>
        <time>2017-12-23T10:03:10Z</time>
      </trkpt>
      <trkpt lat="45.95843" lon="4.71536">
        <ele>181</ele>
        <time>2017-12-23T10:03:11Z</time>
      </trkpt>
      <trkpt lat="45.95847" lon="4.71537">
        <ele>181</ele>
        <time>2017-12-23T10:03:12Z</time>
      </trkpt>
      <trkpt lat="45.95853" lon="4.71537">
        <ele>181</ele>
        <time>2017-12-23T10:03:13Z</time>
      </trkpt>
      <trkpt lat="45.95858" lon="4.71538">
        <ele>181</ele>
        <time>2017-12-23T10:03:14Z</time>
      </trkpt>
      <trkpt lat="45.95863" lon="4.71538">
        <ele>181</ele>
        <time>2017-12-23T10:03:15Z</time>
      </trkpt>
      <trkpt lat="45.95867" lon="4.71538">
        <ele>181</ele>
        <time>2017-12-23T10:03:16Z</time>
      </trkpt>
      <trkpt lat="45.95872" lon="4.71539">
        <ele>181</ele>
        <time>2017-12-23T10:03:17Z</time>
      </trkpt>
      <trkpt lat="45.95877" lon="4.71539">
        <ele>181</ele>
        <time>2017-12-23T10:03:18Z</time>
      </trkpt>
      <trkpt lat="45.95883" lon="4.71539">
        <ele>181</ele>
        <time>2017-12-23T10:03:19Z</time>
      </trkpt>
      <trkpt lat="45.95888" lon="4.71539">
        <ele>181</ele>
        <time>2017-12-23T10:03:20Z</time>
      </trkpt>
      <trkpt lat="45.95893" lon="4.71538">
        <ele>181</ele>
        <time>2017-12-23T10:03:21Z</time>
      </trkpt>
      <trkpt lat="45.95898" lon="4.71538">
        <ele>181</ele>
        <time>2017-12-23T10:03:22Z</time>
      </trkpt>
      <trkpt lat="45.95903" lon="4.71539">
        <ele>181</ele>
        <time>2017-12-23T10:03:23Z</time>
      </trkpt>
      <trkpt lat="45.95908" lon="4.71539">
        <ele>181</ele>
        <time>2017-12-23T10:03:24Z</time>
      </trkpt>
      <trkpt lat="45.95917" lon="4.7154">
        <ele>183</ele>
        <time>2017-12-23T10:03:26Z</time>
      </trkpt>
      <trkpt lat="45.95921" lon="4.7154">
        <ele>183</ele>
        <time>2017-12-23T10:03:27Z</time>
      </trkpt>
      <trkpt lat="45.95926" lon="4.7154">
        <ele>183</ele>
        <time>2017-12-23T10:03:28Z</time>
      </trkpt>
      <trkpt lat="45.95931" lon="4.7154">
        <ele>183</ele>
        <time>2017-12-23T10:03:29Z</time>
      </trkpt>
      <trkpt lat="45.95939" lon="4.71541">
        <ele>183</ele>
        <time>2017-12-23T10:03:31Z</time>
      </trkpt>
      <trkpt lat="45.95944" lon="4.71541">
        <ele>183</ele>
        <time>2017-12-23T10:03:32Z</time>
      </trkpt>
      <trkpt lat="45.95949" lon="4.71541">
        <ele>183</ele>
        <time>2017-12-23T10:03:33Z</time>
      </trkpt>
      <trkpt lat="45.95953" lon="4.71542">
        <ele>183</ele>
        <time>2017-12-23T10:03:34Z</time>
      </trkpt>
      <trkpt lat="45.95962" lon="4.71544">
        <ele>183</ele>
        <time>2017-12-23T10:03:36Z</time>
      </trkpt>
      <trkpt lat="45.95966" lon="4.71546">
        <ele>183</ele>
        <time>2017-12-23T10:03:37Z</time>
      </trkpt>
      <trkpt lat="45.95973" lon="4.71551">
        <ele>183</ele>
        <time>2017-12-23T10:03:39Z</time>
      </trkpt>
      <trkpt lat="45.95977" lon="4.71552">
        <ele>183</ele>
        <time>2017-12-23T10:03:40Z</time>
      </trkpt>
      <trkpt lat="45.95985" lon="4.71553">
        <ele>183</ele>
        <time>2017-12-23T10:03:42Z</time>
      </trkpt>
      <trkpt lat="45.95989" lon="4.71552">
        <ele>183</ele>
        <time>2017-12-23T10:03:43Z</time>
      </trkpt>
      <trkpt lat="45.95998" lon="4.71549">
        <ele>184</ele>
        <time>2017-12-23T10:03:45Z</time>
      </trkpt>
      <trkpt lat="45.96002" lon="4.71547">
        <ele>185</ele>
        <time>2017-12-23T10:03:46Z</time>
      </trkpt>
      <trkpt lat="45.9601" lon="4.71544">
        <ele>185</ele>
        <time>2017-12-23T10:03:48Z</time>
      </trkpt>
      <trkpt lat="45.96016" lon="4.71542">
        <ele>185</ele>
        <time>2017-12-23T10:03:49Z</time>
      </trkpt>
      <trkpt lat="45.96024" lon="4.71544">
        <ele>185</ele>
        <time>2017-12-23T10:03:51Z</time>
      </trkpt>
      <trkpt lat="45.9603" lon="4.71545">
        <ele>185</ele>
        <time>2017-12-23T10:03:52Z</time>
      </trkpt>
      <trkpt lat="45.96035" lon="4.71545">
        <ele>185</ele>
        <time>2017-12-23T10:03:53Z</time>
      </trkpt>
      <trkpt lat="45.9604" lon="4.71546">
        <ele>185</ele>
        <time>2017-12-23T10:03:54Z</time>
      </trkpt>
      <trkpt lat="45.96045" lon="4.71547">
        <ele>185</ele>
        <time>2017-12-23T10:03:55Z</time>
      </trkpt>
      <trkpt lat="45.9605" lon="4.71548">
        <ele>185</ele>
        <time>2017-12-23T10:03:56Z</time>
      </trkpt>
      <trkpt lat="45.96055" lon="4.71549">
        <ele>185</ele>
        <time>2017-12-23T10:03:57Z</time>
      </trkpt>
      <trkpt lat="45.9606" lon="4.7155">
        <ele>185</ele>
        <time>2017-12-23T10:03:58Z</time>
      </trkpt>
      <trkpt lat="45.96068" lon="4.71551">
        <ele>185</ele>
        <time>2017-12-23T10:04:00Z</time>
      </trkpt>
      <trkpt lat="45.96073" lon="4.71552">
        <ele>185</ele>
        <time>2017-12-23T10:04:01Z</time>
      </trkpt>
      <trkpt lat="45.96079" lon="4.71552">
        <ele>185</ele>
        <time>2017-12-23T10:04:02Z</time>
      </trkpt>
      <trkpt lat="45.96084" lon="4.71553">
        <ele>185</ele>
        <time>2017-12-23T10:04:03Z</time>
      </trkpt>
      <trkpt lat="45.96089" lon="4.71555">
        <ele>184</ele>
        <time>2017-12-23T10:04:04Z</time>
      </trkpt>
      <trkpt lat="45.96095" lon="4.71555">
        <ele>184</ele>
        <time>2017-12-23T10:04:05Z</time>
      </trkpt>
      <trkpt lat="45.961" lon="4.71558">
        <ele>184</ele>
        <time>2017-12-23T10:04:06Z</time>
      </trkpt>
      <trkpt lat="45.96105" lon="4.71558">
        <ele>184</ele>
        <time>2017-12-23T10:04:07Z</time>
      </trkpt>
      <trkpt lat="45.96111" lon="4.71558">
        <ele>184</ele>
        <time>2017-12-23T10:04:08Z</time>
      </trkpt>
      <trkpt lat="45.96116" lon="4.7156">
        <ele>184</ele>
        <time>2017-12-23T10:04:09Z</time>
      </trkpt>
      <trkpt lat="45.96121" lon="4.71561">
        <ele>184</ele>
        <time>2017-12-23T10:04:10Z</time>
      </trkpt>
      <trkpt lat="45.96126" lon="4.71562">
        <ele>184</ele>
        <time>2017-12-23T10:04:11Z</time>
      </trkpt>
      <trkpt lat="45.96131" lon="4.71562">
        <ele>184</ele>
        <time>2017-12-23T10:04:12Z</time>
      </trkpt>
      <trkpt lat="45.96138" lon="4.71563">
        <ele>184</ele>
        <time>2017-12-23T10:04:13Z</time>
      </trkpt>
      <trkpt lat="45.96144" lon="4.71563">
        <ele>183</ele>
        <time>2017-12-23T10:04:14Z</time>
      </trkpt>
      <trkpt lat="45.9615" lon="4.71563">
        <ele>183</ele>
        <time>2017-12-23T10:04:15Z</time>
      </trkpt>
      <trkpt lat="45.96155" lon="4.71564">
        <ele>183</ele>
        <time>2017-12-23T10:04:16Z</time>
      </trkpt>
      <trkpt lat="45.9616" lon="4.71566">
        <ele>183</ele>
        <time>2017-12-23T10:04:17Z</time>
      </trkpt>
      <trkpt lat="45.96165" lon="4.71567">
        <ele>182</ele>
        <time>2017-12-23T10:04:18Z</time>
      </trkpt>
      <trkpt lat="45.96171" lon="4.71568">
        <ele>182</ele>
        <time>2017-12-23T10:04:19Z</time>
      </trkpt>
      <trkpt lat="45.96176" lon="4.71569">
        <ele>182</ele>
        <time>2017-12-23T10:04:20Z</time>
      </trkpt>
      <trkpt lat="45.96183" lon="4.71569">
        <ele>182</ele>
        <time>2017-12-23T10:04:21Z</time>
      </trkpt>
      <trkpt lat="45.96188" lon="4.71571">
        <ele>183</ele>
        <time>2017-12-23T10:04:22Z</time>
      </trkpt>
      <trkpt lat="45.96193" lon="4.71571">
        <ele>183</ele>
        <time>2017-12-23T10:04:23Z</time>
      </trkpt>
      <trkpt lat="45.96198" lon="4.71572">
        <ele>183</ele>
        <time>2017-12-23T10:04:24Z</time>
      </trkpt>
      <trkpt lat="45.96203" lon="4.71572">
        <ele>183</ele>
        <time>2017-12-23T10:04:25Z</time>
      </trkpt>
      <trkpt lat="45.96209" lon="4.71572">
        <ele>183</ele>
        <time>2017-12-23T10:04:26Z</time>
      </trkpt>
      <trkpt lat="45.96215" lon="4.71573">
        <ele>183</ele>
        <time>2017-12-23T10:04:27Z</time>
      </trkpt>
      <trkpt lat="45.96222" lon="4.71575">
        <ele>183</ele>
        <time>2017-12-23T10:04:28Z</time>
      </trkpt>
      <trkpt lat="45.96228" lon="4.71576">
        <ele>183</ele>
        <time>2017-12-23T10:04:29Z</time>
      </trkpt>
      <trkpt lat="45.96234" lon="4.71577">
        <ele>182</ele>
        <time>2017-12-23T10:04:30Z</time>
      </trkpt>
      <trkpt lat="45.9624" lon="4.71578">
        <ele>182</ele>
        <time>2017-12-23T10:04:31Z</time>
      </trkpt>
      <trkpt lat="45.96247" lon="4.71578">
        <ele>182</ele>
        <time>2017-12-23T10:04:32Z</time>
      </trkpt>
      <trkpt lat="45.96253" lon="4.71579">
        <ele>182</ele>
        <time>2017-12-23T10:04:33Z</time>
      </trkpt>
      <trkpt lat="45.96259" lon="4.7158">
        <ele>182</ele>
        <time>2017-12-23T10:04:34Z</time>
      </trkpt>
      <trkpt lat="45.96265" lon="4.71581">
        <ele>183</ele>
        <time>2017-12-23T10:04:35Z</time>
      </trkpt>
      <trkpt lat="45.9627" lon="4.71582">
        <ele>183</ele>
        <time>2017-12-23T10:04:36Z</time>
      </trkpt>
      <trkpt lat="45.96276" lon="4.71582">
        <ele>184</ele>
        <time>2017-12-23T10:04:37Z</time>
      </trkpt>
      <trkpt lat="45.96282" lon="4.71582">
        <ele>184</ele>
        <time>2017-12-23T10:04:38Z</time>
      </trkpt>
      <trkpt lat="45.96288" lon="4.71583">
        <ele>184</ele>
        <time>2017-12-23T10:04:39Z</time>
      </trkpt>
      <trkpt lat="45.96292" lon="4.71584">
        <ele>181</ele>
        <time>2017-12-23T10:04:40Z</time>
      </trkpt>
      <trkpt lat="45.96297" lon="4.71588">
        <ele>181</ele>
        <time>2017-12-23T10:04:41Z</time>
      </trkpt>
      <trkpt lat="45.96302" lon="4.7159">
        <ele>181</ele>
        <time>2017-12-23T10:04:42Z</time>
      </trkpt>
      <trkpt lat="45.96308" lon="4.71592">
        <ele>181</ele>
        <time>2017-12-23T10:04:43Z</time>
      </trkpt>
      <trkpt lat="45.96314" lon="4.71593">
        <ele>181</ele>
        <time>2017-12-23T10:04:44Z</time>
      </trkpt>
      <trkpt lat="45.9632" lon="4.71595">
        <ele>181</ele>
        <time>2017-12-23T10:04:45Z</time>
      </trkpt>
      <trkpt lat="45.96326" lon="4.71596">
        <ele>182</ele>
        <time>2017-12-23T10:04:46Z</time>
      </trkpt>
      <trkpt lat="45.96332" lon="4.71597">
        <ele>182</ele>
        <time>2017-12-23T10:04:47Z</time>
      </trkpt>
      <trkpt lat="45.96337" lon="4.71597">
        <ele>182</ele>
        <time>2017-12-23T10:04:48Z</time>
      </trkpt>
      <trkpt lat="45.96343" lon="4.71598">
        <ele>182</ele>
        <time>2017-12-23T10:04:49Z</time>
      </trkpt>
      <trkpt lat="45.96348" lon="4.71599">
        <ele>182</ele>
        <time>2017-12-23T10:04:50Z</time>
      </trkpt>
      <trkpt lat="45.96353" lon="4.716">
        <ele>182</ele>
        <time>2017-12-23T10:04:51Z</time>
      </trkpt>
      <trkpt lat="45.96358" lon="4.71601">
        <ele>182</ele>
        <time>2017-12-23T10:04:52Z</time>
      </trkpt>
      <trkpt lat="45.96364" lon="4.716">
        <ele>182</ele>
        <time>2017-12-23T10:04:53Z</time>
      </trkpt>
      <trkpt lat="45.9637" lon="4.71602">
        <ele>182</ele>
        <time>2017-12-23T10:04:54Z</time>
      </trkpt>
      <trkpt lat="45.96376" lon="4.71603">
        <ele>182</ele>
        <time>2017-12-23T10:04:55Z</time>
      </trkpt>
      <trkpt lat="45.96381" lon="4.71603">
        <ele>182</ele>
        <time>2017-12-23T10:04:56Z</time>
      </trkpt>
      <trkpt lat="45.96386" lon="4.71603">
        <ele>182</ele>
        <time>2017-12-23T10:04:57Z</time>
      </trkpt>
      <trkpt lat="45.96391" lon="4.71603">
        <ele>182</ele>
        <time>2017-12-23T10:04:58Z</time>
      </trkpt>
      <trkpt lat="45.96396" lon="4.71603">
        <ele>183</ele>
        <time>2017-12-23T10:04:59Z</time>
      </trkpt>
      <trkpt lat="45.96401" lon="4.71604">
        <ele>183</ele>
        <time>2017-12-23T10:05:00Z</time>
      </trkpt>
      <trkpt lat="45.96406" lon="4.71606">
        <ele>183</ele>
        <time>2017-12-23T10:05:01Z</time>
      </trkpt>
      <trkpt lat="45.96412" lon="4.71606">
        <ele>183</ele>
        <time>2017-12-23T10:05:02Z</time>
      </trkpt>
      <trkpt lat="45.96418" lon="4.71606">
        <ele>183</ele>
        <time>2017-12-23T10:05:03Z</time>
      </trkpt>
      <trkpt lat="45.96426" lon="4.71609">
        <ele>183</ele>
        <time>2017-12-23T10:05:05Z</time>
      </trkpt>
      <trkpt lat="45.96431" lon="4.71609">
        <ele>183</ele>
        <time>2017-12-23T10:05:06Z</time>
      </trkpt>
      <trkpt lat="45.96437" lon="4.71609">
        <ele>183</ele>
        <time>2017-12-23T10:05:07Z</time>
      </trkpt>
      <trkpt lat="45.96442" lon="4.71611">
        <ele>183</ele>
        <time>2017-12-23T10:05:08Z</time>
      </trkpt>
      <trkpt lat="45.96448" lon="4.71612">
        <ele>183</ele>
        <time>2017-12-23T10:05:09Z</time>
      </trkpt>
      <trkpt lat="45.96453" lon="4.71612">
        <ele>183</ele>
        <time>2017-12-23T10:05:10Z</time>
      </trkpt>
      <trkpt lat="45.96458" lon="4.71614">
        <ele>183</ele>
        <time>2017-12-23T10:05:11Z</time>
      </trkpt>
      <trkpt lat="45.96464" lon="4.71615">
        <ele>183</ele>
        <time>2017-12-23T10:05:12Z</time>
      </trkpt>
      <trkpt lat="45.96469" lon="4.71616">
        <ele>183</ele>
        <time>2017-12-23T10:05:13Z</time>
      </trkpt>
      <trkpt lat="45.96474" lon="4.71616">
        <ele>183</ele>
        <time>2017-12-23T10:05:14Z</time>
      </trkpt>
      <trkpt lat="45.9648" lon="4.71617">
        <ele>183</ele>
        <time>2017-12-23T10:05:15Z</time>
      </trkpt>
      <trkpt lat="45.96485" lon="4.71618">
        <ele>183</ele>
        <time>2017-12-23T10:05:16Z</time>
      </trkpt>
      <trkpt lat="45.96491" lon="4.71618">
        <ele>183</ele>
        <time>2017-12-23T10:05:17Z</time>
      </trkpt>
      <trkpt lat="45.96496" lon="4.71619">
        <ele>183</ele>
        <time>2017-12-23T10:05:18Z</time>
      </trkpt>
      <trkpt lat="45.96501" lon="4.71621">
        <ele>184</ele>
        <time>2017-12-23T10:05:19Z</time>
      </trkpt>
      <trkpt lat="45.96506" lon="4.71622">
        <ele>184</ele>
        <time>2017-12-23T10:05:20Z</time>
      </trkpt>
      <trkpt lat="45.96511" lon="4.71623">
        <ele>184</ele>
        <time>2017-12-23T10:05:21Z</time>
      </trkpt>
      <trkpt lat="45.96516" lon="4.71625">
        <ele>184</ele>
        <time>2017-12-23T10:05:22Z</time>
      </trkpt>
      <trkpt lat="45.96519" lon="4.71632">
        <ele>184</ele>
        <time>2017-12-23T10:05:23Z</time>
      </trkpt>
      <trkpt lat="45.96523" lon="4.71636">
        <ele>183</ele>
        <time>2017-12-23T10:05:24Z</time>
      </trkpt>
      <trkpt lat="45.96528" lon="4.71639">
        <ele>183</ele>
        <time>2017-12-23T10:05:25Z</time>
      </trkpt>
      <trkpt lat="45.96534" lon="4.71643">
        <ele>183</ele>
        <time>2017-12-23T10:05:26Z</time>
      </trkpt>
      <trkpt lat="45.96539" lon="4.71643">
        <ele>184</ele>
        <time>2017-12-23T10:05:27Z</time>
      </trkpt>
      <trkpt lat="45.96545" lon="4.7164">
        <ele>184</ele>
        <time>2017-12-23T10:05:28Z</time>
      </trkpt>
      <trkpt lat="45.96549" lon="4.71636">
        <ele>184</ele>
        <time>2017-12-23T10:05:29Z</time>
      </trkpt>
      <trkpt lat="45.96553" lon="4.71633">
        <ele>184</ele>
        <time>2017-12-23T10:05:30Z</time>
      </trkpt>
      <trkpt lat="45.96557" lon="4.71629">
        <ele>184</ele>
        <time>2017-12-23T10:05:31Z</time>
      </trkpt>
      <trkpt lat="45.96561" lon="4.71629">
        <ele>184</ele>
        <time>2017-12-23T10:05:32Z</time>
      </trkpt>
      <trkpt lat="45.9657" lon="4.71629">
        <ele>185</ele>
        <time>2017-12-23T10:05:34Z</time>
      </trkpt>
      <trkpt lat="45.96574" lon="4.7163">
        <ele>185</ele>
        <time>2017-12-23T10:05:35Z</time>
      </trkpt>
      <trkpt lat="45.9658" lon="4.7163">
        <ele>185</ele>
        <time>2017-12-23T10:05:36Z</time>
      </trkpt>
      <trkpt lat="45.96584" lon="4.7163">
        <ele>187</ele>
        <time>2017-12-23T10:05:37Z</time>
      </trkpt>
      <trkpt lat="45.96589" lon="4.7163">
        <ele>187</ele>
        <time>2017-12-23T10:05:38Z</time>
      </trkpt>
      <trkpt lat="45.96594" lon="4.71631">
        <ele>187</ele>
        <time>2017-12-23T10:05:39Z</time>
      </trkpt>
      <trkpt lat="45.96602" lon="4.71632">
        <ele>187</ele>
        <time>2017-12-23T10:05:41Z</time>
      </trkpt>
      <trkpt lat="45.96607" lon="4.71633">
        <ele>187</ele>
        <time>2017-12-23T10:05:42Z</time>
      </trkpt>
      <trkpt lat="45.96614" lon="4.71636">
        <ele>187</ele>
        <time>2017-12-23T10:05:44Z</time>
      </trkpt>
      <trkpt lat="45.96618" lon="4.71637">
        <ele>187</ele>
        <time>2017-12-23T10:05:45Z</time>
      </trkpt>
      <trkpt lat="45.96623" lon="4.71638">
        <ele>187</ele>
        <time>2017-12-23T10:05:46Z</time>
      </trkpt>
      <trkpt lat="45.96628" lon="4.7164">
        <ele>187</ele>
        <time>2017-12-23T10:05:47Z</time>
      </trkpt>
      <trkpt lat="45.96633" lon="4.7164">
        <ele>187</ele>
        <time>2017-12-23T10:05:48Z</time>
      </trkpt>
      <trkpt lat="45.96638" lon="4.71641">
        <ele>188</ele>
        <time>2017-12-23T10:05:49Z</time>
      </trkpt>
      <trkpt lat="45.96642" lon="4.71641">
        <ele>188</ele>
        <time>2017-12-23T10:05:50Z</time>
      </trkpt>
      <trkpt lat="45.96648" lon="4.71643">
        <ele>188</ele>
        <time>2017-12-23T10:05:51Z</time>
      </trkpt>
      <trkpt lat="45.96656" lon="4.71645">
        <ele>188</ele>
        <time>2017-12-23T10:05:53Z</time>
      </trkpt>
      <trkpt lat="45.96662" lon="4.71646">
        <ele>188</ele>
        <time>2017-12-23T10:05:54Z</time>
      </trkpt>
      <trkpt lat="45.96671" lon="4.71647">
        <ele>189</ele>
        <time>2017-12-23T10:05:56Z</time>
      </trkpt>
      <trkpt lat="45.96675" lon="4.71649">
        <ele>189</ele>
        <time>2017-12-23T10:05:57Z</time>
      </trkpt>
      <trkpt lat="45.9668" lon="4.71649">
        <ele>189</ele>
        <time>2017-12-23T10:05:58Z</time>
      </trkpt>
      <trkpt lat="45.96684" lon="4.7165">
        <ele>189</ele>
        <time>2017-12-23T10:05:59Z</time>
      </trkpt>
      <trkpt lat="45.9669" lon="4.7165">
        <ele>189</ele>
        <time>2017-12-23T10:06:00Z</time>
      </trkpt>
      <trkpt lat="45.96695" lon="4.7165">
        <ele>189</ele>
        <time>2017-12-23T10:06:01Z</time>
      </trkpt>
      <trkpt lat="45.96699" lon="4.71652">
        <ele>190</ele>
        <time>2017-12-23T10:06:02Z</time>
      </trkpt>
      <trkpt lat="45.96705" lon="4.71651">
        <ele>190</ele>
        <time>2017-12-23T10:06:03Z</time>
      </trkpt>
      <trkpt lat="45.96713" lon="4.71654">
        <ele>190</ele>
        <time>2017-12-23T10:06:05Z</time>
      </trkpt>
      <trkpt lat="45.96718" lon="4.71654">
        <ele>190</ele>
        <time>2017-12-23T10:06:06Z</time>
      </trkpt>
      <trkpt lat="45.96723" lon="4.71655">
        <ele>190</ele>
        <time>2017-12-23T10:06:07Z</time>
      </trkpt>
      <trkpt lat="45.96727" lon="4.71656">
        <ele>190</ele>
        <time>2017-12-23T10:06:08Z</time>
      </trkpt>
      <trkpt lat="45.96732" lon="4.71658">
        <ele>190</ele>
        <time>2017-12-23T10:06:09Z</time>
      </trkpt>
      <trkpt lat="45.96736" lon="4.71658">
        <ele>190</ele>
        <time>2017-12-23T10:06:10Z</time>
      </trkpt>
      <trkpt lat="45.96743" lon="4.71659">
        <ele>190</ele>
        <time>2017-12-23T10:06:12Z</time>
      </trkpt>
      <trkpt lat="45.96747" lon="4.71659">
        <ele>189</ele>
        <time>2017-12-23T10:06:13Z</time>
      </trkpt>
      <trkpt lat="45.96752" lon="4.7166">
        <ele>190</ele>
        <time>2017-12-23T10:06:14Z</time>
      </trkpt>
      <trkpt lat="45.96756" lon="4.7166">
        <ele>190</ele>
        <time>2017-12-23T10:06:15Z</time>
      </trkpt>
      <trkpt lat="45.96761" lon="4.7166">
        <ele>191</ele>
        <time>2017-12-23T10:06:16Z</time>
      </trkpt>
      <trkpt lat="45.96766" lon="4.7166">
        <ele>191</ele>
        <time>2017-12-23T10:06:17Z</time>
      </trkpt>
      <trkpt lat="45.96771" lon="4.7166">
        <ele>191</ele>
        <time>2017-12-23T10:06:18Z</time>
      </trkpt>
      <trkpt lat="45.96775" lon="4.71661">
        <ele>192</ele>
        <time>2017-12-23T10:06:19Z</time>
      </trkpt>
      <trkpt lat="45.9678" lon="4.71663">
        <ele>192</ele>
        <time>2017-12-23T10:06:20Z</time>
      </trkpt>
      <trkpt lat="45.96785" lon="4.71664">
        <ele>192</ele>
        <time>2017-12-23T10:06:21Z</time>
      </trkpt>
      <trkpt lat="45.96789" lon="4.71665">
        <ele>192</ele>
        <time>2017-12-23T10:06:22Z</time>
      </trkpt>
      <trkpt lat="45.96795" lon="4.71666">
        <ele>192</ele>
        <time>2017-12-23T10:06:23Z</time>
      </trkpt>
      <trkpt lat="45.968" lon="4.71666">
        <ele>192</ele>
        <time>2017-12-23T10:06:24Z</time>
      </trkpt>
      <trkpt lat="45.96805" lon="4.71668">
        <ele>189</ele>
        <time>2017-12-23T10:06:25Z</time>
      </trkpt>
      <trkpt lat="45.9681" lon="4.71669">
        <ele>189</ele>
        <time>2017-12-23T10:06:26Z</time>
      </trkpt>
      <trkpt lat="45.96815" lon="4.7167">
        <ele>189</ele>
        <time>2017-12-23T10:06:27Z</time>
      </trkpt>
      <trkpt lat="45.9682" lon="4.71671">
        <ele>190</ele>
        <time>2017-12-23T10:06:28Z</time>
      </trkpt>
      <trkpt lat="45.96824" lon="4.71672">
        <ele>190</ele>
        <time>2017-12-23T10:06:29Z</time>
      </trkpt>
      <trkpt lat="45.96829" lon="4.71673">
        <ele>191</ele>
        <time>2017-12-23T10:06:30Z</time>
      </trkpt>
      <trkpt lat="45.96834" lon="4.71674">
        <ele>191</ele>
        <time>2017-12-23T10:06:31Z</time>
      </trkpt>
      <trkpt lat="45.96839" lon="4.71675">
        <ele>191</ele>
        <time>2017-12-23T10:06:32Z</time>
      </trkpt>
      <trkpt lat="45.96844" lon="4.71674">
        <ele>191</ele>
        <time>2017-12-23T10:06:33Z</time>
      </trkpt>
      <trkpt lat="45.96852" lon="4.71674">
        <ele>190</ele>
        <time>2017-12-23T10:06:35Z</time>
      </trkpt>
      <trkpt lat="45.96857" lon="4.71674">
        <ele>190</ele>
        <time>2017-12-23T10:06:36Z</time>
      </trkpt>
      <trkpt lat="45.96861" lon="4.71674">
        <ele>190</ele>
        <time>2017-12-23T10:06:37Z</time>
      </trkpt>
      <trkpt lat="45.96866" lon="4.71674">
        <ele>190</ele>
        <time>2017-12-23T10:06:38Z</time>
      </trkpt>
      <trkpt lat="45.96871" lon="4.71673">
        <ele>190</ele>
        <time>2017-12-23T10:06:39Z</time>
      </trkpt>
      <trkpt lat="45.96875" lon="4.71674">
        <ele>190</ele>
        <time>2017-12-23T10:06:40Z</time>
      </trkpt>
      <trkpt lat="45.96881" lon="4.71674">
        <ele>191</ele>
        <time>2017-12-23T10:06:41Z</time>
      </trkpt>
      <trkpt lat="45.96885" lon="4.71673">
        <ele>191</ele>
        <time>2017-12-23T10:06:42Z</time>
      </trkpt>
      <trkpt lat="45.96894" lon="4.71674">
        <ele>191</ele>
        <time>2017-12-23T10:06:44Z</time>
      </trkpt>
      <trkpt lat="45.96899" lon="4.71674">
        <ele>192</ele>
        <time>2017-12-23T10:06:45Z</time>
      </trkpt>
      <trkpt lat="45.96907" lon="4.71676">
        <ele>192</ele>
        <time>2017-12-23T10:06:47Z</time>
      </trkpt>
      <trkpt lat="45.96911" lon="4.71676">
        <ele>193</ele>
        <time>2017-12-23T10:06:48Z</time>
      </trkpt>
      <trkpt lat="45.96915" lon="4.71677">
        <ele>193</ele>
        <time>2017-12-23T10:06:49Z</time>
      </trkpt>
      <trkpt lat="45.9692" lon="4.71677">
        <ele>193</ele>
        <time>2017-12-23T10:06:50Z</time>
      </trkpt>
      <trkpt lat="45.96928" lon="4.71678">
        <ele>193</ele>
        <time>2017-12-23T10:06:52Z</time>
      </trkpt>
      <trkpt lat="45.96933" lon="4.7168">
        <ele>192</ele>
        <time>2017-12-23T10:06:53Z</time>
      </trkpt>
      <trkpt lat="45.96939" lon="4.71681">
        <ele>192</ele>
        <time>2017-12-23T10:06:54Z</time>
      </trkpt>
      <trkpt lat="45.96943" lon="4.71681">
        <ele>192</ele>
        <time>2017-12-23T10:06:55Z</time>
      </trkpt>
      <trkpt lat="45.96948" lon="4.71682">
        <ele>192</ele>
        <time>2017-12-23T10:06:56Z</time>
      </trkpt>
      <trkpt lat="45.96954" lon="4.71683">
        <ele>192</ele>
        <time>2017-12-23T10:06:57Z</time>
      </trkpt>
      <trkpt lat="45.96959" lon="4.71684">
        <ele>192</ele>
        <time>2017-12-23T10:06:58Z</time>
      </trkpt>
      <trkpt lat="45.96963" lon="4.71685">
        <ele>192</ele>
        <time>2017-12-23T10:06:59Z</time>
      </trkpt>
      <trkpt lat="45.96968" lon="4.71685">
        <ele>192</ele>
        <time>2017-12-23T10:07:00Z</time>
      </trkpt>
      <trkpt lat="45.96973" lon="4.71685">
        <ele>192</ele>
        <time>2017-12-23T10:07:01Z</time>
      </trkpt>
      <trkpt lat="45.96978" lon="4.71686">
        <ele>192</ele>
        <time>2017-12-23T10:07:02Z</time>
      </trkpt>
      <trkpt lat="45.96983" lon="4.71686">
        <ele>192</ele>
        <time>2017-12-23T10:07:03Z</time>
      </trkpt>
      <trkpt lat="45.96991" lon="4.71688">
        <ele>192</ele>
        <time>2017-12-23T10:07:05Z</time>
      </trkpt>
      <trkpt lat="45.96996" lon="4.7169">
        <ele>192</ele>
        <time>2017-12-23T10:07:06Z</time>
      </trkpt>
      <trkpt lat="45.97" lon="4.71691">
        <ele>193</ele>
        <time>2017-12-23T10:07:07Z</time>
      </trkpt>
      <trkpt lat="45.97005" lon="4.7169">
        <ele>193</ele>
        <time>2017-12-23T10:07:08Z</time>
      </trkpt>
      <trkpt lat="45.97014" lon="4.71691">
        <ele>193</ele>
        <time>2017-12-23T10:07:10Z</time>
      </trkpt>
      <trkpt lat="45.97021" lon="4.7169">
        <ele>193</ele>
        <time>2017-12-23T10:07:11Z</time>
      </trkpt>
      <trkpt lat="45.97026" lon="4.71692">
        <ele>192</ele>
        <time>2017-12-23T10:07:12Z</time>
      </trkpt>
      <trkpt lat="45.97031" lon="4.71693">
        <ele>192</ele>
        <time>2017-12-23T10:07:13Z</time>
      </trkpt>
      <trkpt lat="45.97036" lon="4.71692">
        <ele>192</ele>
        <time>2017-12-23T10:07:14Z</time>
      </trkpt>
      <trkpt lat="45.97042" lon="4.71693">
        <ele>192</ele>
        <time>2017-12-23T10:07:15Z</time>
      </trkpt>
      <trkpt lat="45.97046" lon="4.71692">
        <ele>192</ele>
        <time>2017-12-23T10:07:16Z</time>
      </trkpt>
      <trkpt lat="45.97051" lon="4.71692">
        <ele>193</ele>
        <time>2017-12-23T10:07:17Z</time>
      </trkpt>
      <trkpt lat="45.97056" lon="4.71693">
        <ele>193</ele>
        <time>2017-12-23T10:07:18Z</time>
      </trkpt>
      <trkpt lat="45.97061" lon="4.71693">
        <ele>193</ele>
        <time>2017-12-23T10:07:19Z</time>
      </trkpt>
      <trkpt lat="45.97069" lon="4.71694">
        <ele>193</ele>
        <time>2017-12-23T10:07:21Z</time>
      </trkpt>
      <trkpt lat="45.97073" lon="4.71694">
        <ele>193</ele>
        <time>2017-12-23T10:07:22Z</time>
      </trkpt>
      <trkpt lat="45.97081" lon="4.71696">
        <ele>193</ele>
        <time>2017-12-23T10:07:24Z</time>
      </trkpt>
      <trkpt lat="45.97087" lon="4.71696">
        <ele>194</ele>
        <time>2017-12-23T10:07:25Z</time>
      </trkpt>
      <trkpt lat="45.97094" lon="4.71697">
        <ele>194</ele>
        <time>2017-12-23T10:07:27Z</time>
      </trkpt>
      <trkpt lat="45.97098" lon="4.71697">
        <ele>194</ele>
        <time>2017-12-23T10:07:28Z</time>
      </trkpt>
      <trkpt lat="45.97103" lon="4.71697">
        <ele>194</ele>
        <time>2017-12-23T10:07:29Z</time>
      </trkpt>
      <trkpt lat="45.97108" lon="4.71697">
        <ele>194</ele>
        <time>2017-12-23T10:07:30Z</time>
      </trkpt>
      <trkpt lat="45.97114" lon="4.71697">
        <ele>194</ele>
        <time>2017-12-23T10:07:31Z</time>
      </trkpt>
      <trkpt lat="45.97119" lon="4.71697">
        <ele>194</ele>
        <time>2017-12-23T10:07:32Z</time>
      </trkpt>
      <trkpt lat="45.97124" lon="4.71698">
        <ele>194</ele>
        <time>2017-12-23T10:07:33Z</time>
      </trkpt>
      <trkpt lat="45.97129" lon="4.71698">
        <ele>194</ele>
        <time>2017-12-23T10:07:34Z</time>
      </trkpt>
      <trkpt lat="45.97137" lon="4.71699">
        <ele>195</ele>
        <time>2017-12-23T10:07:36Z</time>
      </trkpt>
      <trkpt lat="45.97142" lon="4.71698">
        <ele>195</ele>
        <time>2017-12-23T10:07:37Z</time>
      </trkpt>
      <trkpt lat="45.97147" lon="4.71698">
        <ele>195</ele>
        <time>2017-12-23T10:07:38Z</time>
      </trkpt>
      <trkpt lat="45.97152" lon="4.717">
        <ele>195</ele>
        <time>2017-12-23T10:07:39Z</time>
      </trkpt>
      <trkpt lat="45.97158" lon="4.717">
        <ele>195</ele>
        <time>2017-12-23T10:07:40Z</time>
      </trkpt>
      <trkpt lat="45.97163" lon="4.71701">
        <ele>195</ele>
        <time>2017-12-23T10:07:41Z</time>
      </trkpt>
      <trkpt lat="45.97169" lon="4.71701">
        <ele>196</ele>
        <time>2017-12-23T10:07:42Z</time>
      </trkpt>
      <trkpt lat="45.97174" lon="4.71702">
        <ele>196</ele>
        <time>2017-12-23T10:07:43Z</time>
      </trkpt>
      <trkpt lat="45.97179" lon="4.71703">
        <ele>196</ele>
        <time>2017-12-23T10:07:44Z</time>
      </trkpt>
      <trkpt lat="45.97184" lon="4.71704">
        <ele>196</ele>
        <time>2017-12-23T10:07:45Z</time>
      </trkpt>
      <trkpt lat="45.97193" lon="4.71704">
        <ele>196</ele>
        <time>2017-12-23T10:07:47Z</time>
      </trkpt>
      <trkpt lat="45.97198" lon="4.71704">
        <ele>196</ele>
        <time>2017-12-23T10:07:48Z</time>
      </trkpt>
      <trkpt lat="45.97202" lon="4.71705">
        <ele>196</ele>
        <time>2017-12-23T10:07:49Z</time>
      </trkpt>
      <trkpt lat="45.97208" lon="4.71706">
        <ele>196</ele>
        <time>2017-12-23T10:07:50Z</time>
      </trkpt>
      <trkpt lat="45.97213" lon="4.71706">
        <ele>196</ele>
        <time>2017-12-23T10:07:51Z</time>
      </trkpt>
      <trkpt lat="45.97218" lon="4.71707">
        <ele>196</ele>
        <time>2017-12-23T10:07:52Z</time>
      </trkpt>
      <trkpt lat="45.97223" lon="4.71708">
        <ele>196</ele>
        <time>2017-12-23T10:07:53Z</time>
      </trkpt>
      <trkpt lat="45.97228" lon="4.71708">
        <ele>196</ele>
        <time>2017-12-23T10:07:54Z</time>
      </trkpt>
      <trkpt lat="45.97233" lon="4.71709">
        <ele>196</ele>
        <time>2017-12-23T10:07:55Z</time>
      </trkpt>
      <trkpt lat="45.97237" lon="4.71709">
        <ele>196</ele>
        <time>2017-12-23T10:07:56Z</time>
      </trkpt>
      <trkpt lat="45.97242" lon="4.71709">
        <ele>196</ele>
        <time>2017-12-23T10:07:57Z</time>
      </trkpt>
      <trkpt lat="45.97247" lon="4.7171">
        <ele>196</ele>
        <time>2017-12-23T10:07:58Z</time>
      </trkpt>
      <trkpt lat="45.97253" lon="4.71711">
        <ele>196</ele>
        <time>2017-12-23T10:07:59Z</time>
      </trkpt>
      <trkpt lat="45.97257" lon="4.71712">
        <ele>196</ele>
        <time>2017-12-23T10:08:00Z</time>
      </trkpt>
      <trkpt lat="45.97262" lon="4.71713">
        <ele>196</ele>
        <time>2017-12-23T10:08:01Z</time>
      </trkpt>
      <trkpt lat="45.97266" lon="4.71714">
        <ele>196</ele>
        <time>2017-12-23T10:08:02Z</time>
      </trkpt>
      <trkpt lat="45.97275" lon="4.71716">
        <ele>196</ele>
        <time>2017-12-23T10:08:04Z</time>
      </trkpt>
      <trkpt lat="45.97279" lon="4.71717">
        <ele>196</ele>
        <time>2017-12-23T10:08:05Z</time>
      </trkpt>
      <trkpt lat="45.97284" lon="4.71719">
        <ele>196</ele>
        <time>2017-12-23T10:08:06Z</time>
      </trkpt>
      <trkpt lat="45.97289" lon="4.71721">
        <ele>196</ele>
        <time>2017-12-23T10:08:07Z</time>
      </trkpt>
      <trkpt lat="45.97292" lon="4.71725">
        <ele>196</ele>
        <time>2017-12-23T10:08:08Z</time>
      </trkpt>
      <trkpt lat="45.97295" lon="4.7173">
        <ele>196</ele>
        <time>2017-12-23T10:08:09Z</time>
      </trkpt>
      <trkpt lat="45.97299" lon="4.71734">
        <ele>196</ele>
        <time>2017-12-23T10:08:10Z</time>
      </trkpt>
      <trkpt lat="45.97304" lon="4.71737">
        <ele>196</ele>
        <time>2017-12-23T10:08:11Z</time>
      </trkpt>
      <trkpt lat="45.97309" lon="4.71738">
        <ele>195</ele>
        <time>2017-12-23T10:08:12Z</time>
      </trkpt>
      <trkpt lat="45.97314" lon="4.71739">
        <ele>195</ele>
        <time>2017-12-23T10:08:13Z</time>
      </trkpt>
      <trkpt lat="45.97318" lon="4.71736">
        <ele>195</ele>
        <time>2017-12-23T10:08:14Z</time>
      </trkpt>
      <trkpt lat="45.97323" lon="4.71731">
        <ele>195</ele>
        <time>2017-12-23T10:08:15Z</time>
      </trkpt>
      <trkpt lat="45.97327" lon="4.71726">
        <ele>195</ele>
        <time>2017-12-23T10:08:16Z</time>
      </trkpt>
      <trkpt lat="45.97332" lon="4.71722">
        <ele>196</ele>
        <time>2017-12-23T10:08:17Z</time>
      </trkpt>
      <trkpt lat="45.97337" lon="4.71719">
        <ele>195</ele>
        <time>2017-12-23T10:08:18Z</time>
      </trkpt>
      <trkpt lat="45.97342" lon="4.71718">
        <ele>195</ele>
        <time>2017-12-23T10:08:19Z</time>
      </trkpt>
      <trkpt lat="45.9735" lon="4.71718">
        <ele>195</ele>
        <time>2017-12-23T10:08:21Z</time>
      </trkpt>
      <trkpt lat="45.97353" lon="4.7172">
        <ele>195</ele>
        <time>2017-12-23T10:08:22Z</time>
      </trkpt>
      <trkpt lat="45.97358" lon="4.7172">
        <ele>195</ele>
        <time>2017-12-23T10:08:23Z</time>
      </trkpt>
      <trkpt lat="45.97363" lon="4.7172">
        <ele>195</ele>
        <time>2017-12-23T10:08:24Z</time>
      </trkpt>
      <trkpt lat="45.97367" lon="4.7172">
        <ele>195</ele>
        <time>2017-12-23T10:08:25Z</time>
      </trkpt>
      <trkpt lat="45.97372" lon="4.71721">
        <ele>195</ele>
        <time>2017-12-23T10:08:26Z</time>
      </trkpt>
      <trkpt lat="45.97377" lon="4.71721">
        <ele>195</ele>
        <time>2017-12-23T10:08:27Z</time>
      </trkpt>
      <trkpt lat="45.97382" lon="4.71722">
        <ele>195</ele>
        <time>2017-12-23T10:08:28Z</time>
      </trkpt>
      <trkpt lat="45.97387" lon="4.71721">
        <ele>195</ele>
        <time>2017-12-23T10:08:29Z</time>
      </trkpt>
      <trkpt lat="45.97391" lon="4.71721">
        <ele>195</ele>
        <time>2017-12-23T10:08:30Z</time>
      </trkpt>
      <trkpt lat="45.97396" lon="4.71722">
        <ele>195</ele>
        <time>2017-12-23T10:08:31Z</time>
      </trkpt>
      <trkpt lat="45.97401" lon="4.71722">
        <ele>195</ele>
        <time>2017-12-23T10:08:32Z</time>
      </trkpt>
      <trkpt lat="45.97406" lon="4.71722">
        <ele>195</ele>
        <time>2017-12-23T10:08:33Z</time>
      </trkpt>
      <trkpt lat="45.97412" lon="4.71722">
        <ele>195</ele>
        <time>2017-12-23T10:08:34Z</time>
      </trkpt>
      <trkpt lat="45.97417" lon="4.71722">
        <ele>195</ele>
        <time>2017-12-23T10:08:35Z</time>
      </trkpt>
      <trkpt lat="45.97421" lon="4.71723">
        <ele>196</ele>
        <time>2017-12-23T10:08:36Z</time>
      </trkpt>
      <trkpt lat="45.97426" lon="4.71723">
        <ele>196</ele>
        <time>2017-12-23T10:08:37Z</time>
      </trkpt>
      <trkpt lat="45.97431" lon="4.71723">
        <ele>196</ele>
        <time>2017-12-23T10:08:38Z</time>
      </trkpt>
      <trkpt lat="45.97435" lon="4.71723">
        <ele>196</ele>
        <time>2017-12-23T10:08:39Z</time>
      </trkpt>
      <trkpt lat="45.9744" lon="4.71724">
        <ele>196</ele>
        <time>2017-12-23T10:08:40Z</time>
      </trkpt>
      <trkpt lat="45.97444" lon="4.71726">
        <ele>196</ele>
        <time>2017-12-23T10:08:41Z</time>
      </trkpt>
      <trkpt lat="45.97449" lon="4.71726">
        <ele>196</ele>
        <time>2017-12-23T10:08:42Z</time>
      </trkpt>
      <trkpt lat="45.97454" lon="4.71726">
        <ele>197</ele>
        <time>2017-12-23T10:08:43Z</time>
      </trkpt>
      <trkpt lat="45.97459" lon="4.71727">
        <ele>197</ele>
        <time>2017-12-23T10:08:44Z</time>
      </trkpt>
      <trkpt lat="45.97464" lon="4.71728">
        <ele>197</ele>
        <time>2017-12-23T10:08:45Z</time>
      </trkpt>
      <trkpt lat="45.97468" lon="4.71728">
        <ele>197</ele>
        <time>2017-12-23T10:08:46Z</time>
      </trkpt>
      <trkpt lat="45.97474" lon="4.7173">
        <ele>197</ele>
        <time>2017-12-23T10:08:47Z</time>
      </trkpt>
      <trkpt lat="45.97477" lon="4.71731">
        <ele>197</ele>
        <time>2017-12-23T10:08:48Z</time>
      </trkpt>
      <trkpt lat="45.97482" lon="4.71731">
        <ele>197</ele>
        <time>2017-12-23T10:08:49Z</time>
      </trkpt>
      <trkpt lat="45.97487" lon="4.71731">
        <ele>197</ele>
        <time>2017-12-23T10:08:50Z</time>
      </trkpt>
      <trkpt lat="45.97492" lon="4.71731">
        <ele>197</ele>
        <time>2017-12-23T10:08:51Z</time>
      </trkpt>
      <trkpt lat="45.97497" lon="4.71731">
        <ele>197</ele>
        <time>2017-12-23T10:08:52Z</time>
      </trkpt>
      <trkpt lat="45.97506" lon="4.71733">
        <ele>197</ele>
        <time>2017-12-23T10:08:54Z</time>
      </trkpt>
      <trkpt lat="45.97511" lon="4.71733">
        <ele>197</ele>
        <time>2017-12-23T10:08:55Z</time>
      </trkpt>
      <trkpt lat="45.97516" lon="4.71732">
        <ele>198</ele>
        <time>2017-12-23T10:08:56Z</time>
      </trkpt>
      <trkpt lat="45.9752" lon="4.71733">
        <ele>198</ele>
        <time>2017-12-23T10:08:57Z</time>
      </trkpt>
      <trkpt lat="45.97529" lon="4.71735">
        <ele>198</ele>
        <time>2017-12-23T10:08:59Z</time>
      </trkpt>
      <trkpt lat="45.97534" lon="4.71735">
        <ele>198</ele>
        <time>2017-12-23T10:09:00Z</time>
      </trkpt>
      <trkpt lat="45.97539" lon="4.71735">
        <ele>198</ele>
        <time>2017-12-23T10:09:01Z</time>
      </trkpt>
      <trkpt lat="45.97544" lon="4.71734">
        <ele>198</ele>
        <time>2017-12-23T10:09:02Z</time>
      </trkpt>
      <trkpt lat="45.9755" lon="4.71735">
        <ele>198</ele>
        <time>2017-12-23T10:09:03Z</time>
      </trkpt>
      <trkpt lat="45.97555" lon="4.71735">
        <ele>197</ele>
        <time>2017-12-23T10:09:04Z</time>
      </trkpt>
      <trkpt lat="45.97564" lon="4.71735">
        <ele>197</ele>
        <time>2017-12-23T10:09:06Z</time>
      </trkpt>
      <trkpt lat="45.97569" lon="4.71736">
        <ele>197</ele>
        <time>2017-12-23T10:09:07Z</time>
      </trkpt>
      <trkpt lat="45.97574" lon="4.71736">
        <ele>197</ele>
        <time>2017-12-23T10:09:08Z</time>
      </trkpt>
      <trkpt lat="45.97579" lon="4.71736">
        <ele>197</ele>
        <time>2017-12-23T10:09:09Z</time>
      </trkpt>
      <trkpt lat="45.97584" lon="4.71736">
        <ele>196</ele>
        <time>2017-12-23T10:09:10Z</time>
      </trkpt>
      <trkpt lat="45.97589" lon="4.71736">
        <ele>196</ele>
        <time>2017-12-23T10:09:11Z</time>
      </trkpt>
      <trkpt lat="45.97597" lon="4.71737">
        <ele>196</ele>
        <time>2017-12-23T10:09:13Z</time>
      </trkpt>
      <trkpt lat="45.97601" lon="4.7174">
        <ele>196</ele>
        <time>2017-12-23T10:09:14Z</time>
      </trkpt>
      <trkpt lat="45.97604" lon="4.71745">
        <ele>196</ele>
        <time>2017-12-23T10:09:15Z</time>
      </trkpt>
      <trkpt lat="45.97607" lon="4.7175">
        <ele>196</ele>
        <time>2017-12-23T10:09:16Z</time>
      </trkpt>
      <trkpt lat="45.97611" lon="4.71755">
        <ele>194</ele>
        <time>2017-12-23T10:09:17Z</time>
      </trkpt>
      <trkpt lat="45.97615" lon="4.71758">
        <ele>194</ele>
        <time>2017-12-23T10:09:18Z</time>
      </trkpt>
      <trkpt lat="45.97621" lon="4.71761">
        <ele>194</ele>
        <time>2017-12-23T10:09:19Z</time>
      </trkpt>
      <trkpt lat="45.97626" lon="4.71762">
        <ele>194</ele>
        <time>2017-12-23T10:09:20Z</time>
      </trkpt>
      <trkpt lat="45.97631" lon="4.71762">
        <ele>194</ele>
        <time>2017-12-23T10:09:21Z</time>
      </trkpt>
      <trkpt lat="45.97636" lon="4.71758">
        <ele>194</ele>
        <time>2017-12-23T10:09:22Z</time>
      </trkpt>
      <trkpt lat="45.9764" lon="4.71755">
        <ele>194</ele>
        <time>2017-12-23T10:09:23Z</time>
      </trkpt>
      <trkpt lat="45.97644" lon="4.71751">
        <ele>194</ele>
        <time>2017-12-23T10:09:24Z</time>
      </trkpt>
      <trkpt lat="45.97649" lon="4.71747">
        <ele>195</ele>
        <time>2017-12-23T10:09:25Z</time>
      </trkpt>
      <trkpt lat="45.97654" lon="4.71747">
        <ele>195</ele>
        <time>2017-12-23T10:09:26Z</time>
      </trkpt>
      <trkpt lat="45.97659" lon="4.71747">
        <ele>195</ele>
        <time>2017-12-23T10:09:27Z</time>
      </trkpt>
      <trkpt lat="45.97665" lon="4.71746">
        <ele>194</ele>
        <time>2017-12-23T10:09:28Z</time>
      </trkpt>
      <trkpt lat="45.9767" lon="4.71747">
        <ele>194</ele>
        <time>2017-12-23T10:09:29Z</time>
      </trkpt>
      <trkpt lat="45.97675" lon="4.71747">
        <ele>195</ele>
        <time>2017-12-23T10:09:30Z</time>
      </trkpt>
      <trkpt lat="45.9768" lon="4.71747">
        <ele>195</ele>
        <time>2017-12-23T10:09:31Z</time>
      </trkpt>
      <trkpt lat="45.97685" lon="4.71748">
        <ele>195</ele>
        <time>2017-12-23T10:09:32Z</time>
      </trkpt>
      <trkpt lat="45.97689" lon="4.71749">
        <ele>196</ele>
        <time>2017-12-23T10:09:33Z</time>
      </trkpt>
      <trkpt lat="45.97695" lon="4.71749">
        <ele>196</ele>
        <time>2017-12-23T10:09:34Z</time>
      </trkpt>
      <trkpt lat="45.97701" lon="4.7175">
        <ele>195</ele>
        <time>2017-12-23T10:09:35Z</time>
      </trkpt>
      <trkpt lat="45.97705" lon="4.7175">
        <ele>195</ele>
        <time>2017-12-23T10:09:36Z</time>
      </trkpt>
      <trkpt lat="45.97711" lon="4.71751">
        <ele>195</ele>
        <time>2017-12-23T10:09:37Z</time>
      </trkpt>
      <trkpt lat="45.97716" lon="4.71751">
        <ele>195</ele>
        <time>2017-12-23T10:09:38Z</time>
      </trkpt>
      <trkpt lat="45.97722" lon="4.71751">
        <ele>195</ele>
        <time>2017-12-23T10:09:39Z</time>
      </trkpt>
      <trkpt lat="45.97726" lon="4.71751">
        <ele>195</ele>
        <time>2017-12-23T10:09:40Z</time>
      </trkpt>
      <trkpt lat="45.97732" lon="4.71752">
        <ele>195</ele>
        <time>2017-12-23T10:09:41Z</time>
      </trkpt>
      <trkpt lat="45.97736" lon="4.71752">
        <ele>195</ele>
        <time>2017-12-23T10:09:42Z</time>
      </trkpt>
      <trkpt lat="45.9774" lon="4.71752">
        <ele>196</ele>
        <time>2017-12-23T10:09:43Z</time>
      </trkpt>
      <trkpt lat="45.97745" lon="4.71753">
        <ele>196</ele>
        <time>2017-12-23T10:09:44Z</time>
      </trkpt>
      <trkpt lat="45.9775" lon="4.71753">
        <ele>196</ele>
        <time>2017-12-23T10:09:45Z</time>
      </trkpt>
      <trkpt lat="45.97755" lon="4.71752">
        <ele>196</ele>
        <time>2017-12-23T10:09:46Z</time>
      </trkpt>
      <trkpt lat="45.97761" lon="4.71754">
        <ele>196</ele>
        <time>2017-12-23T10:09:47Z</time>
      </trkpt>
      <trkpt lat="45.97766" lon="4.71755">
        <ele>196</ele>
        <time>2017-12-23T10:09:48Z</time>
      </trkpt>
      <trkpt lat="45.97771" lon="4.71755">
        <ele>195</ele>
        <time>2017-12-23T10:09:49Z</time>
      </trkpt>
      <trkpt lat="45.97776" lon="4.71756">
        <ele>195</ele>
        <time>2017-12-23T10:09:50Z</time>
      </trkpt>
      <trkpt lat="45.97781" lon="4.71757">
        <ele>195</ele>
        <time>2017-12-23T10:09:51Z</time>
      </trkpt>
      <trkpt lat="45.97787" lon="4.71759">
        <ele>195</ele>
        <time>2017-12-23T10:09:52Z</time>
      </trkpt>
      <trkpt lat="45.97793" lon="4.71759">
        <ele>195</ele>
        <time>2017-12-23T10:09:53Z</time>
      </trkpt>
      <trkpt lat="45.97798" lon="4.71758">
        <ele>195</ele>
        <time>2017-12-23T10:09:54Z</time>
      </trkpt>
      <trkpt lat="45.97802" lon="4.71759">
        <ele>195</ele>
        <time>2017-12-23T10:09:55Z</time>
      </trkpt>
      <trkpt lat="45.97807" lon="4.71758">
        <ele>195</ele>
        <time>2017-12-23T10:09:56Z</time>
      </trkpt>
      <trkpt lat="45.97812" lon="4.71758">
        <ele>195</ele>
        <time>2017-12-23T10:09:57Z</time>
      </trkpt>
      <trkpt lat="45.97816" lon="4.71758">
        <ele>195</ele>
        <time>2017-12-23T10:09:58Z</time>
      </trkpt>
      <trkpt lat="45.97822" lon="4.71758">
        <ele>195</ele>
        <time>2017-12-23T10:09:59Z</time>
      </trkpt>
      <trkpt lat="45.97826" lon="4.71758">
        <ele>195</ele>
        <time>2017-12-23T10:10:00Z</time>
      </trkpt>
      <trkpt lat="45.97831" lon="4.71758">
        <ele>195</ele>
        <time>2017-12-23T10:10:01Z</time>
      </trkpt>
      <trkpt lat="45.97836" lon="4.71758">
        <ele>195</ele>
        <time>2017-12-23T10:10:02Z</time>
      </trkpt>
      <trkpt lat="45.97844" lon="4.71759">
        <ele>195</ele>
        <time>2017-12-23T10:10:04Z</time>
      </trkpt>
      <trkpt lat="45.97847" lon="4.71759">
        <ele>195</ele>
        <time>2017-12-23T10:10:05Z</time>
      </trkpt>
      <trkpt lat="45.97854" lon="4.71766">
        <ele>195</ele>
        <time>2017-12-23T10:10:11Z</time>
      </trkpt>
      <trkpt lat="45.97855" lon="4.71768">
        <ele>195</ele>
        <time>2017-12-23T10:10:12Z</time>
      </trkpt>
      <trkpt lat="45.97861" lon="4.71776">
        <ele>194</ele>
        <time>2017-12-23T10:10:15Z</time>
      </trkpt>
      <trkpt lat="45.97864" lon="4.7178">
        <ele>194</ele>
        <time>2017-12-23T10:10:16Z</time>
      </trkpt>
      <trkpt lat="45.97868" lon="4.71783">
        <ele>194</ele>
        <time>2017-12-23T10:10:17Z</time>
      </trkpt>
      <trkpt lat="45.97873" lon="4.71785">
        <ele>194</ele>
        <time>2017-12-23T10:10:18Z</time>
      </trkpt>
      <trkpt lat="45.97878" lon="4.71785">
        <ele>194</ele>
        <time>2017-12-23T10:10:19Z</time>
      </trkpt>
      <trkpt lat="45.97882" lon="4.71784">
        <ele>194</ele>
        <time>2017-12-23T10:10:20Z</time>
      </trkpt>
      <trkpt lat="45.97887" lon="4.71783">
        <ele>194</ele>
        <time>2017-12-23T10:10:21Z</time>
      </trkpt>
      <trkpt lat="45.97891" lon="4.7178">
        <ele>194</ele>
        <time>2017-12-23T10:10:22Z</time>
      </trkpt>
      <trkpt lat="45.97898" lon="4.71771">
        <ele>194</ele>
        <time>2017-12-23T10:10:24Z</time>
      </trkpt>
      <trkpt lat="45.979" lon="4.71765">
        <ele>195</ele>
        <time>2017-12-23T10:10:25Z</time>
      </trkpt>
      <trkpt lat="45.97901" lon="4.71759">
        <ele>195</ele>
        <time>2017-12-23T10:10:26Z</time>
      </trkpt>
      <trkpt lat="45.97903" lon="4.71751">
        <ele>195</ele>
        <time>2017-12-23T10:10:27Z</time>
      </trkpt>
      <trkpt lat="45.97904" lon="4.71745">
        <ele>195</ele>
        <time>2017-12-23T10:10:28Z</time>
      </trkpt>
      <trkpt lat="45.97905" lon="4.71738">
        <ele>195</ele>
        <time>2017-12-23T10:10:29Z</time>
      </trkpt>
      <trkpt lat="45.97905" lon="4.71731">
        <ele>196</ele>
        <time>2017-12-23T10:10:30Z</time>
      </trkpt>
      <trkpt lat="45.97905" lon="4.71724">
        <ele>196</ele>
        <time>2017-12-23T10:10:31Z</time>
      </trkpt>
      <trkpt lat="45.97906" lon="4.71715">
        <ele>196</ele>
        <time>2017-12-23T10:10:32Z</time>
      </trkpt>
      <trkpt lat="45.97908" lon="4.71709">
        <ele>196</ele>
        <time>2017-12-23T10:10:33Z</time>
      </trkpt>
      <trkpt lat="45.97913" lon="4.71699">
        <ele>196</ele>
        <time>2017-12-23T10:10:35Z</time>
      </trkpt>
      <trkpt lat="45.97916" lon="4.71695">
        <ele>196</ele>
        <time>2017-12-23T10:10:36Z</time>
      </trkpt>
      <trkpt lat="45.97921" lon="4.7169">
        <ele>196</ele>
        <time>2017-12-23T10:10:37Z</time>
      </trkpt>
      <trkpt lat="45.97925" lon="4.71687">
        <ele>196</ele>
        <time>2017-12-23T10:10:38Z</time>
      </trkpt>
      <trkpt lat="45.97929" lon="4.71682">
        <ele>196</ele>
        <time>2017-12-23T10:10:39Z</time>
      </trkpt>
      <trkpt lat="45.97934" lon="4.71679">
        <ele>196</ele>
        <time>2017-12-23T10:10:40Z</time>
      </trkpt>
      <trkpt lat="45.97939" lon="4.71675">
        <ele>197</ele>
        <time>2017-12-23T10:10:41Z</time>
      </trkpt>
      <trkpt lat="45.97943" lon="4.71672">
        <ele>197</ele>
        <time>2017-12-23T10:10:42Z</time>
      </trkpt>
      <trkpt lat="45.97951" lon="4.71665">
        <ele>197</ele>
        <time>2017-12-23T10:10:44Z</time>
      </trkpt>
      <trkpt lat="45.97955" lon="4.71664">
        <ele>197</ele>
        <time>2017-12-23T10:10:45Z</time>
      </trkpt>
      <trkpt lat="45.97959" lon="4.7166">
        <ele>197</ele>
        <time>2017-12-23T10:10:46Z</time>
      </trkpt>
      <trkpt lat="45.97964" lon="4.71657">
        <ele>197</ele>
        <time>2017-12-23T10:10:47Z</time>
      </trkpt>
      <trkpt lat="45.97967" lon="4.71654">
        <ele>197</ele>
        <time>2017-12-23T10:10:48Z</time>
      </trkpt>
      <trkpt lat="45.97972" lon="4.7165">
        <ele>197</ele>
        <time>2017-12-23T10:10:49Z</time>
      </trkpt>
      <trkpt lat="45.9798" lon="4.71644">
        <ele>197</ele>
        <time>2017-12-23T10:10:51Z</time>
      </trkpt>
      <trkpt lat="45.97984" lon="4.7164">
        <ele>198</ele>
        <time>2017-12-23T10:10:52Z</time>
      </trkpt>
      <trkpt lat="45.97989" lon="4.71636">
        <ele>198</ele>
        <time>2017-12-23T10:10:53Z</time>
      </trkpt>
      <trkpt lat="45.97993" lon="4.71633">
        <ele>198</ele>
        <time>2017-12-23T10:10:54Z</time>
      </trkpt>
      <trkpt lat="45.97997" lon="4.71629">
        <ele>198</ele>
        <time>2017-12-23T10:10:55Z</time>
      </trkpt>
      <trkpt lat="45.98001" lon="4.71625">
        <ele>198</ele>
        <time>2017-12-23T10:10:56Z</time>
      </trkpt>
      <trkpt lat="45.98006" lon="4.71621">
        <ele>198</ele>
        <time>2017-12-23T10:10:57Z</time>
      </trkpt>
      <trkpt lat="45.9801" lon="4.71617">
        <ele>198</ele>
        <time>2017-12-23T10:10:58Z</time>
      </trkpt>
      <trkpt lat="45.98014" lon="4.71614">
        <ele>198</ele>
        <time>2017-12-23T10:10:59Z</time>
      </trkpt>
      <trkpt lat="45.98019" lon="4.7161">
        <ele>198</ele>
        <time>2017-12-23T10:11:00Z</time>
      </trkpt>
      <trkpt lat="45.98024" lon="4.71606">
        <ele>198</ele>
        <time>2017-12-23T10:11:01Z</time>
      </trkpt>
      <trkpt lat="45.98028" lon="4.71603">
        <ele>198</ele>
        <time>2017-12-23T10:11:02Z</time>
      </trkpt>
      <trkpt lat="45.98032" lon="4.71601">
        <ele>198</ele>
        <time>2017-12-23T10:11:03Z</time>
      </trkpt>
      <trkpt lat="45.98036" lon="4.71597">
        <ele>198</ele>
        <time>2017-12-23T10:11:04Z</time>
      </trkpt>
      <trkpt lat="45.98042" lon="4.71594">
        <ele>198</ele>
        <time>2017-12-23T10:11:05Z</time>
      </trkpt>
      <trkpt lat="45.98046" lon="4.71591">
        <ele>198</ele>
        <time>2017-12-23T10:11:06Z</time>
      </trkpt>
      <trkpt lat="45.98053" lon="4.71584">
        <ele>198</ele>
        <time>2017-12-23T10:11:08Z</time>
      </trkpt>
      <trkpt lat="45.98058" lon="4.7158">
        <ele>198</ele>
        <time>2017-12-23T10:11:09Z</time>
      </trkpt>
      <trkpt lat="45.98062" lon="4.71577">
        <ele>198</ele>
        <time>2017-12-23T10:11:10Z</time>
      </trkpt>
      <trkpt lat="45.98066" lon="4.71574">
        <ele>198</ele>
        <time>2017-12-23T10:11:11Z</time>
      </trkpt>
      <trkpt lat="45.98071" lon="4.71571">
        <ele>198</ele>
        <time>2017-12-23T10:11:12Z</time>
      </trkpt>
      <trkpt lat="45.98074" lon="4.71567">
        <ele>198</ele>
        <time>2017-12-23T10:11:13Z</time>
      </trkpt>
      <trkpt lat="45.98079" lon="4.71566">
        <ele>198</ele>
        <time>2017-12-23T10:11:14Z</time>
      </trkpt>
      <trkpt lat="45.98084" lon="4.71561">
        <ele>198</ele>
        <time>2017-12-23T10:11:15Z</time>
      </trkpt>
      <trkpt lat="45.98088" lon="4.71559">
        <ele>198</ele>
        <time>2017-12-23T10:11:16Z</time>
      </trkpt>
      <trkpt lat="45.98093" lon="4.71556">
        <ele>198</ele>
        <time>2017-12-23T10:11:17Z</time>
      </trkpt>
      <trkpt lat="45.981" lon="4.71551">
        <ele>197</ele>
        <time>2017-12-23T10:11:19Z</time>
      </trkpt>
      <trkpt lat="45.98104" lon="4.71549">
        <ele>197</ele>
        <time>2017-12-23T10:11:20Z</time>
      </trkpt>
      <trkpt lat="45.98108" lon="4.71546">
        <ele>197</ele>
        <time>2017-12-23T10:11:21Z</time>
      </trkpt>
      <trkpt lat="45.98113" lon="4.71542">
        <ele>197</ele>
        <time>2017-12-23T10:11:22Z</time>
      </trkpt>
      <trkpt lat="45.98119" lon="4.7154">
        <ele>197</ele>
        <time>2017-12-23T10:11:23Z</time>
      </trkpt>
      <trkpt lat="45.98123" lon="4.71536">
        <ele>197</ele>
        <time>2017-12-23T10:11:24Z</time>
      </trkpt>
      <trkpt lat="45.9813" lon="4.7153">
        <ele>197</ele>
        <time>2017-12-23T10:11:26Z</time>
      </trkpt>
      <trkpt lat="45.98135" lon="4.71526">
        <ele>197</ele>
        <time>2017-12-23T10:11:27Z</time>
      </trkpt>
      <trkpt lat="45.98141" lon="4.71522">
        <ele>197</ele>
        <time>2017-12-23T10:11:28Z</time>
      </trkpt>
      <trkpt lat="45.98146" lon="4.71519">
        <ele>197</ele>
        <time>2017-12-23T10:11:29Z</time>
      </trkpt>
      <trkpt lat="45.98152" lon="4.71516">
        <ele>197</ele>
        <time>2017-12-23T10:11:30Z</time>
      </trkpt>
      <trkpt lat="45.98157" lon="4.71514">
        <ele>197</ele>
        <time>2017-12-23T10:11:31Z</time>
      </trkpt>
      <trkpt lat="45.98161" lon="4.71511">
        <ele>197</ele>
        <time>2017-12-23T10:11:32Z</time>
      </trkpt>
      <trkpt lat="45.98165" lon="4.71507">
        <ele>197</ele>
        <time>2017-12-23T10:11:33Z</time>
      </trkpt>
      <trkpt lat="45.9817" lon="4.71504">
        <ele>197</ele>
        <time>2017-12-23T10:11:34Z</time>
      </trkpt>
      <trkpt lat="45.98175" lon="4.71502">
        <ele>197</ele>
        <time>2017-12-23T10:11:35Z</time>
      </trkpt>
      <trkpt lat="45.98179" lon="4.71501">
        <ele>197</ele>
        <time>2017-12-23T10:11:36Z</time>
      </trkpt>
      <trkpt lat="45.98185" lon="4.71501">
        <ele>197</ele>
        <time>2017-12-23T10:11:37Z</time>
      </trkpt>
      <trkpt lat="45.9819" lon="4.71501">
        <ele>197</ele>
        <time>2017-12-23T10:11:38Z</time>
      </trkpt>
      <trkpt lat="45.98195" lon="4.71501">
        <ele>197</ele>
        <time>2017-12-23T10:11:39Z</time>
      </trkpt>
      <trkpt lat="45.982" lon="4.71501">
        <ele>197</ele>
        <time>2017-12-23T10:11:40Z</time>
      </trkpt>
      <trkpt lat="45.98206" lon="4.71502">
        <ele>197</ele>
        <time>2017-12-23T10:11:41Z</time>
      </trkpt>
      <trkpt lat="45.98211" lon="4.71504">
        <ele>196</ele>
        <time>2017-12-23T10:11:42Z</time>
      </trkpt>
      <trkpt lat="45.98215" lon="4.71506">
        <ele>196</ele>
        <time>2017-12-23T10:11:43Z</time>
      </trkpt>
      <trkpt lat="45.98219" lon="4.71508">
        <ele>196</ele>
        <time>2017-12-23T10:11:44Z</time>
      </trkpt>
      <trkpt lat="45.98224" lon="4.71511">
        <ele>196</ele>
        <time>2017-12-23T10:11:45Z</time>
      </trkpt>
      <trkpt lat="45.98229" lon="4.71514">
        <ele>196</ele>
        <time>2017-12-23T10:11:46Z</time>
      </trkpt>
      <trkpt lat="45.98234" lon="4.71517">
        <ele>196</ele>
        <time>2017-12-23T10:11:47Z</time>
      </trkpt>
      <trkpt lat="45.98239" lon="4.7152">
        <ele>196</ele>
        <time>2017-12-23T10:11:48Z</time>
      </trkpt>
      <trkpt lat="45.98244" lon="4.71524">
        <ele>196</ele>
        <time>2017-12-23T10:11:49Z</time>
      </trkpt>
      <trkpt lat="45.98248" lon="4.71527">
        <ele>196</ele>
        <time>2017-12-23T10:11:50Z</time>
      </trkpt>
      <trkpt lat="45.98253" lon="4.71531">
        <ele>197</ele>
        <time>2017-12-23T10:11:51Z</time>
      </trkpt>
      <trkpt lat="45.98259" lon="4.71533">
        <ele>197</ele>
        <time>2017-12-23T10:11:52Z</time>
      </trkpt>
      <trkpt lat="45.98263" lon="4.71536">
        <ele>197</ele>
        <time>2017-12-23T10:11:53Z</time>
      </trkpt>
      <trkpt lat="45.98268" lon="4.71538">
        <ele>197</ele>
        <time>2017-12-23T10:11:54Z</time>
      </trkpt>
      <trkpt lat="45.98272" lon="4.71541">
        <ele>197</ele>
        <time>2017-12-23T10:11:55Z</time>
      </trkpt>
      <trkpt lat="45.98277" lon="4.71544">
        <ele>198</ele>
        <time>2017-12-23T10:11:56Z</time>
      </trkpt>
      <trkpt lat="45.98282" lon="4.71547">
        <ele>198</ele>
        <time>2017-12-23T10:11:57Z</time>
      </trkpt>
      <trkpt lat="45.98288" lon="4.7155">
        <ele>198</ele>
        <time>2017-12-23T10:11:58Z</time>
      </trkpt>
      <trkpt lat="45.98293" lon="4.71554">
        <ele>198</ele>
        <time>2017-12-23T10:11:59Z</time>
      </trkpt>
      <trkpt lat="45.98298" lon="4.71557">
        <ele>198</ele>
        <time>2017-12-23T10:12:00Z</time>
      </trkpt>
      <trkpt lat="45.98303" lon="4.7156">
        <ele>198</ele>
        <time>2017-12-23T10:12:01Z</time>
      </trkpt>
      <trkpt lat="45.98307" lon="4.71563">
        <ele>198</ele>
        <time>2017-12-23T10:12:02Z</time>
      </trkpt>
      <trkpt lat="45.98312" lon="4.71565">
        <ele>198</ele>
        <time>2017-12-23T10:12:03Z</time>
      </trkpt>
      <trkpt lat="45.98316" lon="4.71568">
        <ele>198</ele>
        <time>2017-12-23T10:12:04Z</time>
      </trkpt>
      <trkpt lat="45.98321" lon="4.71571">
        <ele>198</ele>
        <time>2017-12-23T10:12:05Z</time>
      </trkpt>
      <trkpt lat="45.98326" lon="4.71574">
        <ele>199</ele>
        <time>2017-12-23T10:12:06Z</time>
      </trkpt>
      <trkpt lat="45.9833" lon="4.71576">
        <ele>199</ele>
        <time>2017-12-23T10:12:07Z</time>
      </trkpt>
      <trkpt lat="45.98335" lon="4.71579">
        <ele>199</ele>
        <time>2017-12-23T10:12:08Z</time>
      </trkpt>
      <trkpt lat="45.98339" lon="4.71581">
        <ele>199</ele>
        <time>2017-12-23T10:12:09Z</time>
      </trkpt>
      <trkpt lat="45.98345" lon="4.71584">
        <ele>199</ele>
        <time>2017-12-23T10:12:10Z</time>
      </trkpt>
      <trkpt lat="45.98349" lon="4.71586">
        <ele>198</ele>
        <time>2017-12-23T10:12:11Z</time>
      </trkpt>
      <trkpt lat="45.98353" lon="4.71589">
        <ele>198</ele>
        <time>2017-12-23T10:12:12Z</time>
      </trkpt>
      <trkpt lat="45.98357" lon="4.71591">
        <ele>198</ele>
        <time>2017-12-23T10:12:13Z</time>
      </trkpt>
      <trkpt lat="45.98362" lon="4.71594">
        <ele>198</ele>
        <time>2017-12-23T10:12:14Z</time>
      </trkpt>
      <trkpt lat="45.98366" lon="4.71595">
        <ele>198</ele>
        <time>2017-12-23T10:12:15Z</time>
      </trkpt>
      <trkpt lat="45.98375" lon="4.716">
        <ele>198</ele>
        <time>2017-12-23T10:12:17Z</time>
      </trkpt>
      <trkpt lat="45.98379" lon="4.71599">
        <ele>198</ele>
        <time>2017-12-23T10:12:18Z</time>
      </trkpt>
      <trkpt lat="45.98387" lon="4.71602">
        <ele>198</ele>
        <time>2017-12-23T10:12:21Z</time>
      </trkpt>
      <trkpt lat="45.98391" lon="4.716">
        <ele>198</ele>
        <time>2017-12-23T10:12:22Z</time>
      </trkpt>
      <trkpt lat="45.98398" lon="4.71593">
        <ele>197</ele>
        <time>2017-12-23T10:12:26Z</time>
      </trkpt>
      <trkpt lat="45.98401" lon="4.7159">
        <ele>197</ele>
        <time>2017-12-23T10:12:27Z</time>
      </trkpt>
      <trkpt lat="45.98405" lon="4.71585">
        <ele>197</ele>
        <time>2017-12-23T10:12:29Z</time>
      </trkpt>
      <trkpt lat="45.98408" lon="4.71582">
        <ele>197</ele>
        <time>2017-12-23T10:12:30Z</time>
      </trkpt>
      <trkpt lat="45.98414" lon="4.71575">
        <ele>197</ele>
        <time>2017-12-23T10:12:32Z</time>
      </trkpt>
      <trkpt lat="45.98417" lon="4.71571">
        <ele>197</ele>
        <time>2017-12-23T10:12:33Z</time>
      </trkpt>
      <trkpt lat="45.98421" lon="4.71568">
        <ele>197</ele>
        <time>2017-12-23T10:12:34Z</time>
      </trkpt>
      <trkpt lat="45.98425" lon="4.71564">
        <ele>197</ele>
        <time>2017-12-23T10:12:35Z</time>
      </trkpt>
      <trkpt lat="45.98429" lon="4.7156">
        <ele>197</ele>
        <time>2017-12-23T10:12:36Z</time>
      </trkpt>
      <trkpt lat="45.98433" lon="4.71555">
        <ele>197</ele>
        <time>2017-12-23T10:12:37Z</time>
      </trkpt>
      <trkpt lat="45.98437" lon="4.7155">
        <ele>197</ele>
        <time>2017-12-23T10:12:38Z</time>
      </trkpt>
      <trkpt lat="45.98442" lon="4.71547">
        <ele>197</ele>
        <time>2017-12-23T10:12:39Z</time>
      </trkpt>
      <trkpt lat="45.98446" lon="4.71543">
        <ele>197</ele>
        <time>2017-12-23T10:12:40Z</time>
      </trkpt>
      <trkpt lat="45.9845" lon="4.7154">
        <ele>197</ele>
        <time>2017-12-23T10:12:41Z</time>
      </trkpt>
      <trkpt lat="45.98455" lon="4.71538">
        <ele>197</ele>
        <time>2017-12-23T10:12:42Z</time>
      </trkpt>
      <trkpt lat="45.9846" lon="4.71537">
        <ele>197</ele>
        <time>2017-12-23T10:12:43Z</time>
      </trkpt>
      <trkpt lat="45.98468" lon="4.71535">
        <ele>197</ele>
        <time>2017-12-23T10:12:45Z</time>
      </trkpt>
      <trkpt lat="45.9847" lon="4.71534">
        <ele>197</ele>
        <time>2017-12-23T10:12:46Z</time>
      </trkpt>
      <trkpt lat="45.98478" lon="4.71533">
        <ele>196</ele>
        <time>2017-12-23T10:12:48Z</time>
      </trkpt>
      <trkpt lat="45.98482" lon="4.71532">
        <ele>196</ele>
        <time>2017-12-23T10:12:49Z</time>
      </trkpt>
      <trkpt lat="45.98487" lon="4.7153">
        <ele>196</ele>
        <time>2017-12-23T10:12:50Z</time>
      </trkpt>
      <trkpt lat="45.98492" lon="4.71528">
        <ele>196</ele>
        <time>2017-12-23T10:12:51Z</time>
      </trkpt>
      <trkpt lat="45.985" lon="4.71526">
        <ele>195</ele>
        <time>2017-12-23T10:12:53Z</time>
      </trkpt>
      <trkpt lat="45.98506" lon="4.71527">
        <ele>195</ele>
        <time>2017-12-23T10:12:54Z</time>
      </trkpt>
      <trkpt lat="45.98512" lon="4.71524">
        <ele>195</ele>
        <time>2017-12-23T10:12:55Z</time>
      </trkpt>
      <trkpt lat="45.98517" lon="4.71523">
        <ele>195</ele>
        <time>2017-12-23T10:12:56Z</time>
      </trkpt>
      <trkpt lat="45.98522" lon="4.71521">
        <ele>194</ele>
        <time>2017-12-23T10:12:57Z</time>
      </trkpt>
      <trkpt lat="45.98526" lon="4.7152">
        <ele>194</ele>
        <time>2017-12-23T10:12:58Z</time>
      </trkpt>
      <trkpt lat="45.98531" lon="4.71518">
        <ele>194</ele>
        <time>2017-12-23T10:12:59Z</time>
      </trkpt>
      <trkpt lat="45.98537" lon="4.71517">
        <ele>194</ele>
        <time>2017-12-23T10:13:00Z</time>
      </trkpt>
      <trkpt lat="45.98545" lon="4.71516">
        <ele>194</ele>
        <time>2017-12-23T10:13:02Z</time>
      </trkpt>
      <trkpt lat="45.98549" lon="4.71513">
        <ele>194</ele>
        <time>2017-12-23T10:13:03Z</time>
      </trkpt>
      <trkpt lat="45.98558" lon="4.7151">
        <ele>194</ele>
        <time>2017-12-23T10:13:06Z</time>
      </trkpt>
      <trkpt lat="45.9856" lon="4.7151">
        <ele>193</ele>
        <time>2017-12-23T10:13:07Z</time>
      </trkpt>
      <trkpt lat="45.98568" lon="4.71506">
        <ele>193</ele>
        <time>2017-12-23T10:13:10Z</time>
      </trkpt>
      <trkpt lat="45.9857" lon="4.71505">
        <ele>193</ele>
        <time>2017-12-23T10:13:11Z</time>
      </trkpt>
      <trkpt lat="45.98577" lon="4.71502">
        <ele>193</ele>
        <time>2017-12-23T10:13:14Z</time>
      </trkpt>
      <trkpt lat="45.98579" lon="4.71501">
        <ele>192</ele>
        <time>2017-12-23T10:13:15Z</time>
      </trkpt>
      <trkpt lat="45.98587" lon="4.715">
        <ele>192</ele>
        <time>2017-12-23T10:13:18Z</time>
      </trkpt>
      <trkpt lat="45.98591" lon="4.715">
        <ele>192</ele>
        <time>2017-12-23T10:13:19Z</time>
      </trkpt>
      <trkpt lat="45.98599" lon="4.715">
        <ele>192</ele>
        <time>2017-12-23T10:13:21Z</time>
      </trkpt>
      <trkpt lat="45.98604" lon="4.715">
        <ele>191</ele>
        <time>2017-12-23T10:13:22Z</time>
      </trkpt>
      <trkpt lat="45.98612" lon="4.715">
        <ele>191</ele>
        <time>2017-12-23T10:13:23Z</time>
      </trkpt>
      <trkpt lat="45.98617" lon="4.71499">
        <ele>191</ele>
        <time>2017-12-23T10:13:24Z</time>
      </trkpt>
      <trkpt lat="45.98623" lon="4.71497">
        <ele>190</ele>
        <time>2017-12-23T10:13:25Z</time>
      </trkpt>
      <trkpt lat="45.98628" lon="4.71495">
        <ele>190</ele>
        <time>2017-12-23T10:13:26Z</time>
      </trkpt>
      <trkpt lat="45.98634" lon="4.71495">
        <ele>190</ele>
        <time>2017-12-23T10:13:27Z</time>
      </trkpt>
      <trkpt lat="45.98639" lon="4.71494">
        <ele>190</ele>
        <time>2017-12-23T10:13:28Z</time>
      </trkpt>
      <trkpt lat="45.98646" lon="4.71493">
        <ele>190</ele>
        <time>2017-12-23T10:13:29Z</time>
      </trkpt>
      <trkpt lat="45.98651" lon="4.71491">
        <ele>190</ele>
        <time>2017-12-23T10:13:30Z</time>
      </trkpt>
      <trkpt lat="45.98658" lon="4.7149">
        <ele>190</ele>
        <time>2017-12-23T10:13:31Z</time>
      </trkpt>
      <trkpt lat="45.98664" lon="4.71489">
        <ele>189</ele>
        <time>2017-12-23T10:13:32Z</time>
      </trkpt>
      <trkpt lat="45.98669" lon="4.71489">
        <ele>188</ele>
        <time>2017-12-23T10:13:33Z</time>
      </trkpt>
      <trkpt lat="45.98675" lon="4.71487">
        <ele>188</ele>
        <time>2017-12-23T10:13:34Z</time>
      </trkpt>
      <trkpt lat="45.98684" lon="4.71487">
        <ele>188</ele>
        <time>2017-12-23T10:13:37Z</time>
      </trkpt>
      <trkpt lat="45.98687" lon="4.71488">
        <ele>187</ele>
        <time>2017-12-23T10:13:38Z</time>
      </trkpt>
      <trkpt lat="45.98695" lon="4.71489">
        <ele>187</ele>
        <time>2017-12-23T10:13:40Z</time>
      </trkpt>
      <trkpt lat="45.98698" lon="4.71489">
        <ele>187</ele>
        <time>2017-12-23T10:13:41Z</time>
      </trkpt>
      <trkpt lat="45.98705" lon="4.71495">
        <ele>187</ele>
        <time>2017-12-23T10:13:44Z</time>
      </trkpt>
      <trkpt lat="45.98707" lon="4.71495">
        <ele>187</ele>
        <time>2017-12-23T10:13:45Z</time>
      </trkpt>
      <trkpt lat="45.98714" lon="4.71496">
        <ele>186</ele>
        <time>2017-12-23T10:13:47Z</time>
      </trkpt>
      <trkpt lat="45.98718" lon="4.71496">
        <ele>186</ele>
        <time>2017-12-23T10:13:48Z</time>
      </trkpt>
      <trkpt lat="45.98722" lon="4.71497">
        <ele>186</ele>
        <time>2017-12-23T10:13:49Z</time>
      </trkpt>
      <trkpt lat="45.98728" lon="4.71498">
        <ele>186</ele>
        <time>2017-12-23T10:13:50Z</time>
      </trkpt>
      <trkpt lat="45.98736" lon="4.71497">
        <ele>185</ele>
        <time>2017-12-23T10:13:52Z</time>
      </trkpt>
      <trkpt lat="45.98741" lon="4.71497">
        <ele>185</ele>
        <time>2017-12-23T10:13:53Z</time>
      </trkpt>
      <trkpt lat="45.98747" lon="4.71497">
        <ele>184</ele>
        <time>2017-12-23T10:13:54Z</time>
      </trkpt>
      <trkpt lat="45.98754" lon="4.71496">
        <ele>184</ele>
        <time>2017-12-23T10:13:55Z</time>
      </trkpt>
      <trkpt lat="45.9876" lon="4.71496">
        <ele>184</ele>
        <time>2017-12-23T10:13:56Z</time>
      </trkpt>
      <trkpt lat="45.98764" lon="4.71498">
        <ele>184</ele>
        <time>2017-12-23T10:13:57Z</time>
      </trkpt>
      <trkpt lat="45.98769" lon="4.71499">
        <ele>184</ele>
        <time>2017-12-23T10:13:58Z</time>
      </trkpt>
      <trkpt lat="45.98776" lon="4.71499">
        <ele>184</ele>
        <time>2017-12-23T10:13:59Z</time>
      </trkpt>
      <trkpt lat="45.98781" lon="4.71499">
        <ele>184</ele>
        <time>2017-12-23T10:14:00Z</time>
      </trkpt>
      <trkpt lat="45.98787" lon="4.715">
        <ele>184</ele>
        <time>2017-12-23T10:14:01Z</time>
      </trkpt>
      <trkpt lat="45.98793" lon="4.715">
        <ele>184</ele>
        <time>2017-12-23T10:14:02Z</time>
      </trkpt>
      <trkpt lat="45.98797" lon="4.71501">
        <ele>184</ele>
        <time>2017-12-23T10:14:03Z</time>
      </trkpt>
      <trkpt lat="45.98803" lon="4.71502">
        <ele>184</ele>
        <time>2017-12-23T10:14:04Z</time>
      </trkpt>
      <trkpt lat="45.98808" lon="4.71502">
        <ele>184</ele>
        <time>2017-12-23T10:14:05Z</time>
      </trkpt>
      <trkpt lat="45.98812" lon="4.71503">
        <ele>184</ele>
        <time>2017-12-23T10:14:06Z</time>
      </trkpt>
      <trkpt lat="45.98817" lon="4.71503">
        <ele>184</ele>
        <time>2017-12-23T10:14:07Z</time>
      </trkpt>
      <trkpt lat="45.98826" lon="4.71503">
        <ele>184</ele>
        <time>2017-12-23T10:14:09Z</time>
      </trkpt>
      <trkpt lat="45.9883" lon="4.71503">
        <ele>184</ele>
        <time>2017-12-23T10:14:10Z</time>
      </trkpt>
      <trkpt lat="45.98835" lon="4.71503">
        <ele>184</ele>
        <time>2017-12-23T10:14:11Z</time>
      </trkpt>
      <trkpt lat="45.9884" lon="4.71503">
        <ele>184</ele>
        <time>2017-12-23T10:14:12Z</time>
      </trkpt>
      <trkpt lat="45.98848" lon="4.71505">
        <ele>184</ele>
        <time>2017-12-23T10:14:14Z</time>
      </trkpt>
      <trkpt lat="45.98853" lon="4.71505">
        <ele>185</ele>
        <time>2017-12-23T10:14:15Z</time>
      </trkpt>
      <trkpt lat="45.98861" lon="4.71504">
        <ele>185</ele>
        <time>2017-12-23T10:14:16Z</time>
      </trkpt>
      <trkpt lat="45.98867" lon="4.71505">
        <ele>185</ele>
        <time>2017-12-23T10:14:17Z</time>
      </trkpt>
      <trkpt lat="45.98872" lon="4.71505">
        <ele>185</ele>
        <time>2017-12-23T10:14:18Z</time>
      </trkpt>
      <trkpt lat="45.98876" lon="4.71505">
        <ele>185</ele>
        <time>2017-12-23T10:14:19Z</time>
      </trkpt>
      <trkpt lat="45.98885" lon="4.71507">
        <ele>185</ele>
        <time>2017-12-23T10:14:21Z</time>
      </trkpt>
      <trkpt lat="45.98889" lon="4.71509">
        <ele>185</ele>
        <time>2017-12-23T10:14:22Z</time>
      </trkpt>
      <trkpt lat="45.98897" lon="4.71513">
        <ele>185</ele>
        <time>2017-12-23T10:14:25Z</time>
      </trkpt>
      <trkpt lat="45.98898" lon="4.71513">
        <ele>185</ele>
        <time>2017-12-23T10:14:26Z</time>
      </trkpt>
      <trkpt lat="45.98905" lon="4.71513">
        <ele>185</ele>
        <time>2017-12-23T10:14:29Z</time>
      </trkpt>
      <trkpt lat="45.98908" lon="4.71515">
        <ele>185</ele>
        <time>2017-12-23T10:14:30Z</time>
      </trkpt>
      <trkpt lat="45.98914" lon="4.71516">
        <ele>185</ele>
        <time>2017-12-23T10:14:32Z</time>
      </trkpt>
      <trkpt lat="45.98917" lon="4.71516">
        <ele>185</ele>
        <time>2017-12-23T10:14:33Z</time>
      </trkpt>
      <trkpt lat="45.98924" lon="4.71514">
        <ele>186</ele>
        <time>2017-12-23T10:14:35Z</time>
      </trkpt>
      <trkpt lat="45.98928" lon="4.71514">
        <ele>186</ele>
        <time>2017-12-23T10:14:36Z</time>
      </trkpt>
      <trkpt lat="45.98934" lon="4.71513">
        <ele>186</ele>
        <time>2017-12-23T10:14:38Z</time>
      </trkpt>
      <trkpt lat="45.98937" lon="4.71513">
        <ele>186</ele>
        <time>2017-12-23T10:14:39Z</time>
      </trkpt>
      <trkpt lat="45.98946" lon="4.71513">
        <ele>186</ele>
        <time>2017-12-23T10:14:44Z</time>
      </trkpt>
      <trkpt lat="45.98946" lon="4.71513">
        <ele>186</ele>
        <time>2017-12-23T10:14:45Z</time>
      </trkpt>
      <trkpt lat="45.98953" lon="4.71513">
        <ele>186</ele>
        <time>2017-12-23T10:15:02Z</time>
      </trkpt>
      <trkpt lat="45.98956" lon="4.71514">
        <ele>186</ele>
        <time>2017-12-23T10:15:03Z</time>
      </trkpt>
      <trkpt lat="45.98962" lon="4.71514">
        <ele>186</ele>
        <time>2017-12-23T10:15:05Z</time>
      </trkpt>
      <trkpt lat="45.98966" lon="4.71514">
        <ele>186</ele>
        <time>2017-12-23T10:15:06Z</time>
      </trkpt>
      <trkpt lat="45.98973" lon="4.71513">
        <ele>186</ele>
        <time>2017-12-23T10:15:08Z</time>
      </trkpt>
      <trkpt lat="45.98977" lon="4.71513">
        <ele>186</ele>
        <time>2017-12-23T10:15:09Z</time>
      </trkpt>
      <trkpt lat="45.98986" lon="4.71513">
        <ele>186</ele>
        <time>2017-12-23T10:15:11Z</time>
      </trkpt>
      <trkpt lat="45.9899" lon="4.71513">
        <ele>186</ele>
        <time>2017-12-23T10:15:12Z</time>
      </trkpt>
      <trkpt lat="45.98997" lon="4.71513">
        <ele>187</ele>
        <time>2017-12-23T10:15:14Z</time>
      </trkpt>
      <trkpt lat="45.99" lon="4.71514">
        <ele>188</ele>
        <time>2017-12-23T10:15:15Z</time>
      </trkpt>
      <trkpt lat="45.99004" lon="4.71513">
        <ele>188</ele>
        <time>2017-12-23T10:15:16Z</time>
      </trkpt>
      <trkpt lat="45.99011" lon="4.71508">
        <ele>188</ele>
        <time>2017-12-23T10:15:17Z</time>
      </trkpt>
      <trkpt lat="45.99018" lon="4.71507">
        <ele>188</ele>
        <time>2017-12-23T10:15:19Z</time>
      </trkpt>
      <trkpt lat="45.99023" lon="4.71507">
        <ele>188</ele>
        <time>2017-12-23T10:15:20Z</time>
      </trkpt>
      <trkpt lat="45.99032" lon="4.71508">
        <ele>188</ele>
        <time>2017-12-23T10:15:22Z</time>
      </trkpt>
      <trkpt lat="45.99034" lon="4.7151">
        <ele>188</ele>
        <time>2017-12-23T10:15:23Z</time>
      </trkpt>
      <trkpt lat="45.99041" lon="4.71513">
        <ele>188</ele>
        <time>2017-12-23T10:15:25Z</time>
      </trkpt>
      <trkpt lat="45.99045" lon="4.71514">
        <ele>189</ele>
        <time>2017-12-23T10:15:26Z</time>
      </trkpt>
      <trkpt lat="45.99052" lon="4.71518">
        <ele>189</ele>
        <time>2017-12-23T10:15:28Z</time>
      </trkpt>
      <trkpt lat="45.99056" lon="4.71518">
        <ele>189</ele>
        <time>2017-12-23T10:15:29Z</time>
      </trkpt>
      <trkpt lat="45.9906" lon="4.71518">
        <ele>189</ele>
        <time>2017-12-23T10:15:30Z</time>
      </trkpt>
      <trkpt lat="45.99065" lon="4.71519">
        <ele>189</ele>
        <time>2017-12-23T10:15:31Z</time>
      </trkpt>
      <trkpt lat="45.99074" lon="4.71519">
        <ele>189</ele>
        <time>2017-12-23T10:15:33Z</time>
      </trkpt>
      <trkpt lat="45.99078" lon="4.7152">
        <ele>189</ele>
        <time>2017-12-23T10:15:34Z</time>
      </trkpt>
      <trkpt lat="45.99086" lon="4.71521">
        <ele>191</ele>
        <time>2017-12-23T10:15:36Z</time>
      </trkpt>
      <trkpt lat="45.99089" lon="4.71521">
        <ele>191</ele>
        <time>2017-12-23T10:15:37Z</time>
      </trkpt>
      <trkpt lat="45.99096" lon="4.71521">
        <ele>191</ele>
        <time>2017-12-23T10:15:39Z</time>
      </trkpt>
      <trkpt lat="45.991" lon="4.71521">
        <ele>191</ele>
        <time>2017-12-23T10:15:40Z</time>
      </trkpt>
      <trkpt lat="45.99108" lon="4.7152">
        <ele>191</ele>
        <time>2017-12-23T10:15:42Z</time>
      </trkpt>
      <trkpt lat="45.99112" lon="4.71521">
        <ele>191</ele>
        <time>2017-12-23T10:15:43Z</time>
      </trkpt>
      <trkpt lat="45.9912" lon="4.71523">
        <ele>192</ele>
        <time>2017-12-23T10:15:45Z</time>
      </trkpt>
      <trkpt lat="45.99124" lon="4.71524">
        <ele>192</ele>
        <time>2017-12-23T10:15:46Z</time>
      </trkpt>
      <trkpt lat="45.99133" lon="4.71526">
        <ele>192</ele>
        <time>2017-12-23T10:15:48Z</time>
      </trkpt>
      <trkpt lat="45.99137" lon="4.71527">
        <ele>192</ele>
        <time>2017-12-23T10:15:49Z</time>
      </trkpt>
      <trkpt lat="45.99143" lon="4.71527">
        <ele>192</ele>
        <time>2017-12-23T10:15:50Z</time>
      </trkpt>
      <trkpt lat="45.99146" lon="4.71527">
        <ele>192</ele>
        <time>2017-12-23T10:15:51Z</time>
      </trkpt>
      <trkpt lat="45.99154" lon="4.71527">
        <ele>192</ele>
        <time>2017-12-23T10:15:53Z</time>
      </trkpt>
      <trkpt lat="45.99159" lon="4.71527">
        <ele>192</ele>
        <time>2017-12-23T10:15:54Z</time>
      </trkpt>
      <trkpt lat="45.99164" lon="4.71527">
        <ele>192</ele>
        <time>2017-12-23T10:15:55Z</time>
      </trkpt>
      <trkpt lat="45.99168" lon="4.71527">
        <ele>194</ele>
        <time>2017-12-23T10:15:56Z</time>
      </trkpt>
      <trkpt lat="45.99175" lon="4.71526">
        <ele>194</ele>
        <time>2017-12-23T10:15:58Z</time>
      </trkpt>
      <trkpt lat="45.99179" lon="4.71526">
        <ele>194</ele>
        <time>2017-12-23T10:15:59Z</time>
      </trkpt>
      <trkpt lat="45.99187" lon="4.71525">
        <ele>195</ele>
        <time>2017-12-23T10:16:01Z</time>
      </trkpt>
      <trkpt lat="45.99191" lon="4.71525">
        <ele>195</ele>
        <time>2017-12-23T10:16:02Z</time>
      </trkpt>
      <trkpt lat="45.99199" lon="4.71525">
        <ele>195</ele>
        <time>2017-12-23T10:16:04Z</time>
      </trkpt>
      <trkpt lat="45.99203" lon="4.71525">
        <ele>195</ele>
        <time>2017-12-23T10:16:05Z</time>
      </trkpt>
      <trkpt lat="45.99211" lon="4.71524">
        <ele>195</ele>
        <time>2017-12-23T10:16:07Z</time>
      </trkpt>
      <trkpt lat="45.99215" lon="4.71525">
        <ele>195</ele>
        <time>2017-12-23T10:16:08Z</time>
      </trkpt>
      <trkpt lat="45.99223" lon="4.71525">
        <ele>195</ele>
        <time>2017-12-23T10:16:10Z</time>
      </trkpt>
      <trkpt lat="45.99227" lon="4.71525">
        <ele>196</ele>
        <time>2017-12-23T10:16:11Z</time>
      </trkpt>
      <trkpt lat="45.99233" lon="4.71525">
        <ele>196</ele>
        <time>2017-12-23T10:16:13Z</time>
      </trkpt>
      <trkpt lat="45.99236" lon="4.71525">
        <ele>196</ele>
        <time>2017-12-23T10:16:14Z</time>
      </trkpt>
      <trkpt lat="45.99244" lon="4.71527">
        <ele>196</ele>
        <time>2017-12-23T10:16:17Z</time>
      </trkpt>
      <trkpt lat="45.99246" lon="4.71528">
        <ele>196</ele>
        <time>2017-12-23T10:16:18Z</time>
      </trkpt>
      <trkpt lat="45.99253" lon="4.7153">
        <ele>198</ele>
        <time>2017-12-23T10:16:21Z</time>
      </trkpt>
      <trkpt lat="45.99256" lon="4.7153">
        <ele>198</ele>
        <time>2017-12-23T10:16:22Z</time>
      </trkpt>
      <trkpt lat="45.99263" lon="4.7153">
        <ele>198</ele>
        <time>2017-12-23T10:16:25Z</time>
      </trkpt>
      <trkpt lat="45.99266" lon="4.7153">
        <ele>198</ele>
        <time>2017-12-23T10:16:26Z</time>
      </trkpt>
      <trkpt lat="45.99271" lon="4.7153">
        <ele>199</ele>
        <time>2017-12-23T10:16:28Z</time>
      </trkpt>
      <trkpt lat="45.99275" lon="4.7153">
        <ele>199</ele>
        <time>2017-12-23T10:16:29Z</time>
      </trkpt>
      <trkpt lat="45.99282" lon="4.7153">
        <ele>199</ele>
        <time>2017-12-23T10:16:31Z</time>
      </trkpt>
      <trkpt lat="45.99285" lon="4.7153">
        <ele>199</ele>
        <time>2017-12-23T10:16:32Z</time>
      </trkpt>
      <trkpt lat="45.99293" lon="4.71529">
        <ele>199</ele>
        <time>2017-12-23T10:16:34Z</time>
      </trkpt>
      <trkpt lat="45.99296" lon="4.71528">
        <ele>199</ele>
        <time>2017-12-23T10:16:35Z</time>
      </trkpt>
      <trkpt lat="45.99304" lon="4.71527">
        <ele>199</ele>
        <time>2017-12-23T10:16:37Z</time>
      </trkpt>
      <trkpt lat="45.99307" lon="4.71526">
        <ele>199</ele>
        <time>2017-12-23T10:16:38Z</time>
      </trkpt>
      <trkpt lat="45.99315" lon="4.71525">
        <ele>200</ele>
        <time>2017-12-23T10:16:40Z</time>
      </trkpt>
      <trkpt lat="45.99319" lon="4.71524">
        <ele>200</ele>
        <time>2017-12-23T10:16:41Z</time>
      </trkpt>
      <trkpt lat="45.99326" lon="4.71523">
        <ele>200</ele>
        <time>2017-12-23T10:16:43Z</time>
      </trkpt>
      <trkpt lat="45.9933" lon="4.71523">
        <ele>200</ele>
        <time>2017-12-23T10:16:44Z</time>
      </trkpt>
      <trkpt lat="45.99334" lon="4.71522">
        <ele>200</ele>
        <time>2017-12-23T10:16:45Z</time>
      </trkpt>
      <trkpt lat="45.99339" lon="4.71519">
        <ele>200</ele>
        <time>2017-12-23T10:16:46Z</time>
      </trkpt>
      <trkpt lat="45.99348" lon="4.71519">
        <ele>200</ele>
        <time>2017-12-23T10:16:48Z</time>
      </trkpt>
      <trkpt lat="45.99353" lon="4.71517">
        <ele>200</ele>
        <time>2017-12-23T10:16:49Z</time>
      </trkpt>
      <trkpt lat="45.99361" lon="4.71517">
        <ele>200</ele>
        <time>2017-12-23T10:16:51Z</time>
      </trkpt>
      <trkpt lat="45.99367" lon="4.71517">
        <ele>200</ele>
        <time>2017-12-23T10:16:52Z</time>
      </trkpt>
      <trkpt lat="45.99374" lon="4.71516">
        <ele>200</ele>
        <time>2017-12-23T10:16:54Z</time>
      </trkpt>
      <trkpt lat="45.99377" lon="4.71516">
        <ele>200</ele>
        <time>2017-12-23T10:16:55Z</time>
      </trkpt>
      <trkpt lat="45.99385" lon="4.71515">
        <ele>200</ele>
        <time>2017-12-23T10:16:57Z</time>
      </trkpt>
      <trkpt lat="45.99389" lon="4.71514">
        <ele>200</ele>
        <time>2017-12-23T10:16:58Z</time>
      </trkpt>
      <trkpt lat="45.99394" lon="4.71513">
        <ele>200</ele>
        <time>2017-12-23T10:16:59Z</time>
      </trkpt>
      <trkpt lat="45.99398" lon="4.71513">
        <ele>200</ele>
        <time>2017-12-23T10:17:00Z</time>
      </trkpt>
      <trkpt lat="45.99403" lon="4.71512">
        <ele>200</ele>
        <time>2017-12-23T10:17:01Z</time>
      </trkpt>
      <trkpt lat="45.99407" lon="4.71512">
        <ele>200</ele>
        <time>2017-12-23T10:17:02Z</time>
      </trkpt>
      <trkpt lat="45.99416" lon="4.71512">
        <ele>199</ele>
        <time>2017-12-23T10:17:04Z</time>
      </trkpt>
      <trkpt lat="45.9942" lon="4.71512">
        <ele>199</ele>
        <time>2017-12-23T10:17:05Z</time>
      </trkpt>
      <trkpt lat="45.99428" lon="4.71513">
        <ele>199</ele>
        <time>2017-12-23T10:17:07Z</time>
      </trkpt>
      <trkpt lat="45.99431" lon="4.71514">
        <ele>199</ele>
        <time>2017-12-23T10:17:08Z</time>
      </trkpt>
      <trkpt lat="45.99439" lon="4.71515">
        <ele>199</ele>
        <time>2017-12-23T10:17:10Z</time>
      </trkpt>
      <trkpt lat="45.99444" lon="4.71515">
        <ele>199</ele>
        <time>2017-12-23T10:17:11Z</time>
      </trkpt>
      <trkpt lat="45.99453" lon="4.71514">
        <ele>199</ele>
        <time>2017-12-23T10:17:13Z</time>
      </trkpt>
      <trkpt lat="45.99456" lon="4.71514">
        <ele>199</ele>
        <time>2017-12-23T10:17:14Z</time>
      </trkpt>
      <trkpt lat="45.99461" lon="4.71514">
        <ele>199</ele>
        <time>2017-12-23T10:17:16Z</time>
      </trkpt>
      <trkpt lat="45.99466" lon="4.71514">
        <ele>199</ele>
        <time>2017-12-23T10:17:17Z</time>
      </trkpt>
      <trkpt lat="45.99471" lon="4.71513">
        <ele>199</ele>
        <time>2017-12-23T10:17:18Z</time>
      </trkpt>
      <trkpt lat="45.99477" lon="4.7151">
        <ele>199</ele>
        <time>2017-12-23T10:17:19Z</time>
      </trkpt>
      <trkpt lat="45.99486" lon="4.71509">
        <ele>199</ele>
        <time>2017-12-23T10:17:21Z</time>
      </trkpt>
      <trkpt lat="45.9949" lon="4.71509">
        <ele>199</ele>
        <time>2017-12-23T10:17:22Z</time>
      </trkpt>
      <trkpt lat="45.99499" lon="4.71508">
        <ele>199</ele>
        <time>2017-12-23T10:17:24Z</time>
      </trkpt>
      <trkpt lat="45.99502" lon="4.71508">
        <ele>199</ele>
        <time>2017-12-23T10:17:25Z</time>
      </trkpt>
      <trkpt lat="45.9951" lon="4.71508">
        <ele>199</ele>
        <time>2017-12-23T10:17:27Z</time>
      </trkpt>
      <trkpt lat="45.99514" lon="4.71508">
        <ele>199</ele>
        <time>2017-12-23T10:17:28Z</time>
      </trkpt>
      <trkpt lat="45.99519" lon="4.71509">
        <ele>198</ele>
        <time>2017-12-23T10:17:29Z</time>
      </trkpt>
      <trkpt lat="45.99523" lon="4.71508">
        <ele>198</ele>
        <time>2017-12-23T10:17:30Z</time>
      </trkpt>
      <trkpt lat="45.99531" lon="4.71508">
        <ele>198</ele>
        <time>2017-12-23T10:17:32Z</time>
      </trkpt>
      <trkpt lat="45.99535" lon="4.71507">
        <ele>198</ele>
        <time>2017-12-23T10:17:33Z</time>
      </trkpt>
      <trkpt lat="45.9954" lon="4.71507">
        <ele>198</ele>
        <time>2017-12-23T10:17:34Z</time>
      </trkpt>
      <trkpt lat="45.99544" lon="4.71507">
        <ele>198</ele>
        <time>2017-12-23T10:17:35Z</time>
      </trkpt>
      <trkpt lat="45.99549" lon="4.71508">
        <ele>198</ele>
        <time>2017-12-23T10:17:36Z</time>
      </trkpt>
      <trkpt lat="45.99555" lon="4.71508">
        <ele>198</ele>
        <time>2017-12-23T10:17:37Z</time>
      </trkpt>
      <trkpt lat="45.99562" lon="4.71507">
        <ele>197</ele>
        <time>2017-12-23T10:17:39Z</time>
      </trkpt>
      <trkpt lat="45.99567" lon="4.71507">
        <ele>197</ele>
        <time>2017-12-23T10:17:40Z</time>
      </trkpt>
      <trkpt lat="45.99575" lon="4.71505">
        <ele>197</ele>
        <time>2017-12-23T10:17:42Z</time>
      </trkpt>
      <trkpt lat="45.99578" lon="4.71506">
        <ele>197</ele>
        <time>2017-12-23T10:17:43Z</time>
      </trkpt>
      <trkpt lat="45.99585" lon="4.71514">
        <ele>197</ele>
        <time>2017-12-23T10:17:48Z</time>
      </trkpt>
      <trkpt lat="45.99586" lon="4.71517">
        <ele>197</ele>
        <time>2017-12-23T10:17:49Z</time>
      </trkpt>
      <trkpt lat="45.99588" lon="4.71525">
        <ele>197</ele>
        <time>2017-12-23T10:17:51Z</time>
      </trkpt>
      <trkpt lat="45.9959" lon="4.71529">
        <ele>197</ele>
        <time>2017-12-23T10:17:52Z</time>
      </trkpt>
      <trkpt lat="45.99596" lon="4.71535">
        <ele>198</ele>
        <time>2017-12-23T10:17:54Z</time>
      </trkpt>
      <trkpt lat="45.99601" lon="4.71537">
        <ele>198</ele>
        <time>2017-12-23T10:17:55Z</time>
      </trkpt>
      <trkpt lat="45.99605" lon="4.71537">
        <ele>198</ele>
        <time>2017-12-23T10:17:56Z</time>
      </trkpt>
      <trkpt lat="45.99613" lon="4.71533">
        <ele>198</ele>
        <time>2017-12-23T10:17:57Z</time>
      </trkpt>
      <trkpt lat="45.99617" lon="4.7153">
        <ele>198</ele>
        <time>2017-12-23T10:17:58Z</time>
      </trkpt>
      <trkpt lat="45.9962" lon="4.71524">
        <ele>197</ele>
        <time>2017-12-23T10:17:59Z</time>
      </trkpt>
      <trkpt lat="45.99622" lon="4.71516">
        <ele>197</ele>
        <time>2017-12-23T10:18:00Z</time>
      </trkpt>
      <trkpt lat="45.99622" lon="4.71509">
        <ele>197</ele>
        <time>2017-12-23T10:18:01Z</time>
      </trkpt>
      <trkpt lat="45.99621" lon="4.71502">
        <ele>197</ele>
        <time>2017-12-23T10:18:02Z</time>
      </trkpt>
      <trkpt lat="45.99619" lon="4.71496">
        <ele>197</ele>
        <time>2017-12-23T10:18:03Z</time>
      </trkpt>
      <trkpt lat="45.99619" lon="4.71484">
        <ele>197</ele>
        <time>2017-12-23T10:18:05Z</time>
      </trkpt>
      <trkpt lat="45.9962" lon="4.71478">
        <ele>197</ele>
        <time>2017-12-23T10:18:06Z</time>
      </trkpt>
      <trkpt lat="45.99621" lon="4.71467">
        <ele>197</ele>
        <time>2017-12-23T10:18:08Z</time>
      </trkpt>
      <trkpt lat="45.99624" lon="4.71459">
        <ele>197</ele>
        <time>2017-12-23T10:18:09Z</time>
      </trkpt>
      <trkpt lat="45.99628" lon="4.71448">
        <ele>197</ele>
        <time>2017-12-23T10:18:11Z</time>
      </trkpt>
      <trkpt lat="45.99631" lon="4.71443">
        <ele>197</ele>
        <time>2017-12-23T10:18:12Z</time>
      </trkpt>
      <trkpt lat="45.99634" lon="4.71438">
        <ele>197</ele>
        <time>2017-12-23T10:18:13Z</time>
      </trkpt>
      <trkpt lat="45.99637" lon="4.71431">
        <ele>197</ele>
        <time>2017-12-23T10:18:14Z</time>
      </trkpt>
      <trkpt lat="45.9964" lon="4.71426">
        <ele>197</ele>
        <time>2017-12-23T10:18:15Z</time>
      </trkpt>
      <trkpt lat="45.99644" lon="4.7142">
        <ele>197</ele>
        <time>2017-12-23T10:18:16Z</time>
      </trkpt>
      <trkpt lat="45.99648" lon="4.71414">
        <ele>198</ele>
        <time>2017-12-23T10:18:17Z</time>
      </trkpt>
      <trkpt lat="45.99651" lon="4.71409">
        <ele>198</ele>
        <time>2017-12-23T10:18:18Z</time>
      </trkpt>
      <trkpt lat="45.99653" lon="4.71402">
        <ele>198</ele>
        <time>2017-12-23T10:18:19Z</time>
      </trkpt>
      <trkpt lat="45.99655" lon="4.71397">
        <ele>198</ele>
        <time>2017-12-23T10:18:20Z</time>
      </trkpt>
      <trkpt lat="45.99659" lon="4.71391">
        <ele>198</ele>
        <time>2017-12-23T10:18:21Z</time>
      </trkpt>
      <trkpt lat="45.99663" lon="4.71386">
        <ele>198</ele>
        <time>2017-12-23T10:18:22Z</time>
      </trkpt>
      <trkpt lat="45.99667" lon="4.71381">
        <ele>198</ele>
        <time>2017-12-23T10:18:23Z</time>
      </trkpt>
      <trkpt lat="45.99671" lon="4.71375">
        <ele>198</ele>
        <time>2017-12-23T10:18:24Z</time>
      </trkpt>
      <trkpt lat="45.99674" lon="4.7137">
        <ele>197</ele>
        <time>2017-12-23T10:18:25Z</time>
      </trkpt>
      <trkpt lat="45.99677" lon="4.71364">
        <ele>197</ele>
        <time>2017-12-23T10:18:26Z</time>
      </trkpt>
      <trkpt lat="45.9968" lon="4.71359">
        <ele>197</ele>
        <time>2017-12-23T10:18:27Z</time>
      </trkpt>
      <trkpt lat="45.99683" lon="4.71353">
        <ele>197</ele>
        <time>2017-12-23T10:18:28Z</time>
      </trkpt>
      <trkpt lat="45.99686" lon="4.71343">
        <ele>197</ele>
        <time>2017-12-23T10:18:30Z</time>
      </trkpt>
      <trkpt lat="45.99688" lon="4.71338">
        <ele>197</ele>
        <time>2017-12-23T10:18:31Z</time>
      </trkpt>
      <trkpt lat="45.99691" lon="4.71331">
        <ele>197</ele>
        <time>2017-12-23T10:18:32Z</time>
      </trkpt>
      <trkpt lat="45.99694" lon="4.71325">
        <ele>198</ele>
        <time>2017-12-23T10:18:33Z</time>
      </trkpt>
      <trkpt lat="45.99699" lon="4.71314">
        <ele>198</ele>
        <time>2017-12-23T10:18:35Z</time>
      </trkpt>
      <trkpt lat="45.99703" lon="4.71306">
        <ele>198</ele>
        <time>2017-12-23T10:18:36Z</time>
      </trkpt>
      <trkpt lat="45.99708" lon="4.71296">
        <ele>198</ele>
        <time>2017-12-23T10:18:38Z</time>
      </trkpt>
      <trkpt lat="45.9971" lon="4.71292">
        <ele>198</ele>
        <time>2017-12-23T10:18:39Z</time>
      </trkpt>
      <trkpt lat="45.99714" lon="4.71282">
        <ele>198</ele>
        <time>2017-12-23T10:18:41Z</time>
      </trkpt>
      <trkpt lat="45.99717" lon="4.71277">
        <ele>198</ele>
        <time>2017-12-23T10:18:42Z</time>
      </trkpt>
      <trkpt lat="45.99721" lon="4.71272">
        <ele>198</ele>
        <time>2017-12-23T10:18:43Z</time>
      </trkpt>
      <trkpt lat="45.99722" lon="4.71266">
        <ele>198</ele>
        <time>2017-12-23T10:18:44Z</time>
      </trkpt>
      <trkpt lat="45.99725" lon="4.71261">
        <ele>198</ele>
        <time>2017-12-23T10:18:45Z</time>
      </trkpt>
      <trkpt lat="45.9973" lon="4.71255">
        <ele>198</ele>
        <time>2017-12-23T10:18:46Z</time>
      </trkpt>
      <trkpt lat="45.99734" lon="4.7125">
        <ele>198</ele>
        <time>2017-12-23T10:18:47Z</time>
      </trkpt>
      <trkpt lat="45.99738" lon="4.71243">
        <ele>198</ele>
        <time>2017-12-23T10:18:48Z</time>
      </trkpt>
      <trkpt lat="45.9974" lon="4.71238">
        <ele>198</ele>
        <time>2017-12-23T10:18:49Z</time>
      </trkpt>
      <trkpt lat="45.99745" lon="4.71232">
        <ele>198</ele>
        <time>2017-12-23T10:18:50Z</time>
      </trkpt>
      <trkpt lat="45.99747" lon="4.71227">
        <ele>198</ele>
        <time>2017-12-23T10:18:51Z</time>
      </trkpt>
      <trkpt lat="45.99751" lon="4.71221">
        <ele>199</ele>
        <time>2017-12-23T10:18:52Z</time>
      </trkpt>
      <trkpt lat="45.99753" lon="4.71215">
        <ele>199</ele>
        <time>2017-12-23T10:18:53Z</time>
      </trkpt>
      <trkpt lat="45.99756" lon="4.71209">
        <ele>199</ele>
        <time>2017-12-23T10:18:54Z</time>
      </trkpt>
      <trkpt lat="45.99762" lon="4.71199">
        <ele>198</ele>
        <time>2017-12-23T10:18:56Z</time>
      </trkpt>
      <trkpt lat="45.99765" lon="4.71193">
        <ele>198</ele>
        <time>2017-12-23T10:18:57Z</time>
      </trkpt>
      <trkpt lat="45.99768" lon="4.71186">
        <ele>198</ele>
        <time>2017-12-23T10:18:58Z</time>
      </trkpt>
      <trkpt lat="45.9977" lon="4.71182">
        <ele>198</ele>
        <time>2017-12-23T10:18:59Z</time>
      </trkpt>
      <trkpt lat="45.99772" lon="4.71176">
        <ele>198</ele>
        <time>2017-12-23T10:19:00Z</time>
      </trkpt>
      <trkpt lat="45.99776" lon="4.71171">
        <ele>198</ele>
        <time>2017-12-23T10:19:01Z</time>
      </trkpt>
      <trkpt lat="45.99778" lon="4.71165">
        <ele>198</ele>
        <time>2017-12-23T10:19:02Z</time>
      </trkpt>
      <trkpt lat="45.99781" lon="4.71158">
        <ele>198</ele>
        <time>2017-12-23T10:19:03Z</time>
      </trkpt>
      <trkpt lat="45.99783" lon="4.71153">
        <ele>198</ele>
        <time>2017-12-23T10:19:04Z</time>
      </trkpt>
      <trkpt lat="45.99787" lon="4.71147">
        <ele>198</ele>
        <time>2017-12-23T10:19:05Z</time>
      </trkpt>
      <trkpt lat="45.99789" lon="4.71142">
        <ele>198</ele>
        <time>2017-12-23T10:19:06Z</time>
      </trkpt>
      <trkpt lat="45.99792" lon="4.71136">
        <ele>198</ele>
        <time>2017-12-23T10:19:07Z</time>
      </trkpt>
      <trkpt lat="45.99794" lon="4.7113">
        <ele>198</ele>
        <time>2017-12-23T10:19:08Z</time>
      </trkpt>
      <trkpt lat="45.99795" lon="4.71124">
        <ele>198</ele>
        <time>2017-12-23T10:19:09Z</time>
      </trkpt>
      <trkpt lat="45.99795" lon="4.71116">
        <ele>198</ele>
        <time>2017-12-23T10:19:10Z</time>
      </trkpt>
      <trkpt lat="45.99797" lon="4.71109">
        <ele>198</ele>
        <time>2017-12-23T10:19:11Z</time>
      </trkpt>
      <trkpt lat="45.99799" lon="4.71102">
        <ele>198</ele>
        <time>2017-12-23T10:19:12Z</time>
      </trkpt>
      <trkpt lat="45.998" lon="4.71095">
        <ele>198</ele>
        <time>2017-12-23T10:19:13Z</time>
      </trkpt>
      <trkpt lat="45.99802" lon="4.71087">
        <ele>198</ele>
        <time>2017-12-23T10:19:14Z</time>
      </trkpt>
      <trkpt lat="45.99804" lon="4.71081">
        <ele>199</ele>
        <time>2017-12-23T10:19:15Z</time>
      </trkpt>
      <trkpt lat="45.99805" lon="4.71069">
        <ele>199</ele>
        <time>2017-12-23T10:19:17Z</time>
      </trkpt>
      <trkpt lat="45.99806" lon="4.71063">
        <ele>199</ele>
        <time>2017-12-23T10:19:18Z</time>
      </trkpt>
      <trkpt lat="45.99807" lon="4.71057">
        <ele>199</ele>
        <time>2017-12-23T10:19:19Z</time>
      </trkpt>
      <trkpt lat="45.99808" lon="4.71049">
        <ele>199</ele>
        <time>2017-12-23T10:19:20Z</time>
      </trkpt>
      <trkpt lat="45.9981" lon="4.71045">
        <ele>199</ele>
        <time>2017-12-23T10:19:21Z</time>
      </trkpt>
      <trkpt lat="45.99812" lon="4.71036">
        <ele>199</ele>
        <time>2017-12-23T10:19:22Z</time>
      </trkpt>
      <trkpt lat="45.99814" lon="4.71029">
        <ele>199</ele>
        <time>2017-12-23T10:19:23Z</time>
      </trkpt>
      <trkpt lat="45.99815" lon="4.71021">
        <ele>199</ele>
        <time>2017-12-23T10:19:24Z</time>
      </trkpt>
      <trkpt lat="45.99816" lon="4.71015">
        <ele>200</ele>
        <time>2017-12-23T10:19:25Z</time>
      </trkpt>
      <trkpt lat="45.99819" lon="4.71009">
        <ele>200</ele>
        <time>2017-12-23T10:19:26Z</time>
      </trkpt>
      <trkpt lat="45.99822" lon="4.70997">
        <ele>200</ele>
        <time>2017-12-23T10:19:28Z</time>
      </trkpt>
      <trkpt lat="45.99823" lon="4.70991">
        <ele>200</ele>
        <time>2017-12-23T10:19:29Z</time>
      </trkpt>
      <trkpt lat="45.99826" lon="4.70979">
        <ele>200</ele>
        <time>2017-12-23T10:19:31Z</time>
      </trkpt>
      <trkpt lat="45.99827" lon="4.70972">
        <ele>200</ele>
        <time>2017-12-23T10:19:32Z</time>
      </trkpt>
      <trkpt lat="45.99829" lon="4.70966">
        <ele>200</ele>
        <time>2017-12-23T10:19:33Z</time>
      </trkpt>
      <trkpt lat="45.9983" lon="4.70958">
        <ele>199</ele>
        <time>2017-12-23T10:19:34Z</time>
      </trkpt>
      <trkpt lat="45.99832" lon="4.70952">
        <ele>199</ele>
        <time>2017-12-23T10:19:35Z</time>
      </trkpt>
      <trkpt lat="45.99834" lon="4.70941">
        <ele>199</ele>
        <time>2017-12-23T10:19:36Z</time>
      </trkpt>
      <trkpt lat="45.99835" lon="4.70934">
        <ele>199</ele>
        <time>2017-12-23T10:19:37Z</time>
      </trkpt>
      <trkpt lat="45.99835" lon="4.70928">
        <ele>199</ele>
        <time>2017-12-23T10:19:38Z</time>
      </trkpt>
      <trkpt lat="45.99836" lon="4.70921">
        <ele>199</ele>
        <time>2017-12-23T10:19:39Z</time>
      </trkpt>
      <trkpt lat="45.99838" lon="4.70913">
        <ele>199</ele>
        <time>2017-12-23T10:19:40Z</time>
      </trkpt>
      <trkpt lat="45.99839" lon="4.70902">
        <ele>199</ele>
        <time>2017-12-23T10:19:42Z</time>
      </trkpt>
      <trkpt lat="45.99841" lon="4.70895">
        <ele>199</ele>
        <time>2017-12-23T10:19:43Z</time>
      </trkpt>
      <trkpt lat="45.99841" lon="4.70883">
        <ele>199</ele>
        <time>2017-12-23T10:19:45Z</time>
      </trkpt>
      <trkpt lat="45.99844" lon="4.70874">
        <ele>200</ele>
        <time>2017-12-23T10:19:46Z</time>
      </trkpt>
      <trkpt lat="45.99844" lon="4.70868">
        <ele>200</ele>
        <time>2017-12-23T10:19:47Z</time>
      </trkpt>
      <trkpt lat="45.99846" lon="4.7086">
        <ele>200</ele>
        <time>2017-12-23T10:19:48Z</time>
      </trkpt>
      <trkpt lat="45.99849" lon="4.70853">
        <ele>200</ele>
        <time>2017-12-23T10:19:49Z</time>
      </trkpt>
      <trkpt lat="45.99851" lon="4.70845">
        <ele>200</ele>
        <time>2017-12-23T10:19:50Z</time>
      </trkpt>
      <trkpt lat="45.99852" lon="4.70838">
        <ele>201</ele>
        <time>2017-12-23T10:19:51Z</time>
      </trkpt>
      <trkpt lat="45.99853" lon="4.70832">
        <ele>201</ele>
        <time>2017-12-23T10:19:52Z</time>
      </trkpt>
      <trkpt lat="45.99854" lon="4.70825">
        <ele>201</ele>
        <time>2017-12-23T10:19:53Z</time>
      </trkpt>
      <trkpt lat="45.99856" lon="4.70817">
        <ele>201</ele>
        <time>2017-12-23T10:19:54Z</time>
      </trkpt>
      <trkpt lat="45.99858" lon="4.70808">
        <ele>201</ele>
        <time>2017-12-23T10:19:55Z</time>
      </trkpt>
      <trkpt lat="45.9986" lon="4.70799">
        <ele>201</ele>
        <time>2017-12-23T10:19:56Z</time>
      </trkpt>
      <trkpt lat="45.99862" lon="4.70791">
        <ele>200</ele>
        <time>2017-12-23T10:19:57Z</time>
      </trkpt>
      <trkpt lat="45.99863" lon="4.70784">
        <ele>200</ele>
        <time>2017-12-23T10:19:58Z</time>
      </trkpt>
      <trkpt lat="45.99864" lon="4.70777">
        <ele>200</ele>
        <time>2017-12-23T10:19:59Z</time>
      </trkpt>
      <trkpt lat="45.99866" lon="4.70768">
        <ele>200</ele>
        <time>2017-12-23T10:20:00Z</time>
      </trkpt>
      <trkpt lat="45.99867" lon="4.70761">
        <ele>200</ele>
        <time>2017-12-23T10:20:01Z</time>
      </trkpt>
      <trkpt lat="45.99868" lon="4.70753">
        <ele>200</ele>
        <time>2017-12-23T10:20:02Z</time>
      </trkpt>
      <trkpt lat="45.9987" lon="4.70745">
        <ele>200</ele>
        <time>2017-12-23T10:20:03Z</time>
      </trkpt>
      <trkpt lat="45.9987" lon="4.70739">
        <ele>200</ele>
        <time>2017-12-23T10:20:04Z</time>
      </trkpt>
      <trkpt lat="45.99871" lon="4.7073">
        <ele>200</ele>
        <time>2017-12-23T10:20:05Z</time>
      </trkpt>
      <trkpt lat="45.99873" lon="4.70721">
        <ele>200</ele>
        <time>2017-12-23T10:20:06Z</time>
      </trkpt>
      <trkpt lat="45.99874" lon="4.70712">
        <ele>200</ele>
        <time>2017-12-23T10:20:07Z</time>
      </trkpt>
      <trkpt lat="45.99875" lon="4.70704">
        <ele>200</ele>
        <time>2017-12-23T10:20:08Z</time>
      </trkpt>
      <trkpt lat="45.99875" lon="4.70697">
        <ele>200</ele>
        <time>2017-12-23T10:20:09Z</time>
      </trkpt>
      <trkpt lat="45.99878" lon="4.7069">
        <ele>200</ele>
        <time>2017-12-23T10:20:10Z</time>
      </trkpt>
      <trkpt lat="45.99879" lon="4.70681">
        <ele>200</ele>
        <time>2017-12-23T10:20:11Z</time>
      </trkpt>
      <trkpt lat="45.99881" lon="4.70676">
        <ele>200</ele>
        <time>2017-12-23T10:20:12Z</time>
      </trkpt>
      <trkpt lat="45.99884" lon="4.70669">
        <ele>200</ele>
        <time>2017-12-23T10:20:13Z</time>
      </trkpt>
      <trkpt lat="45.99889" lon="4.70662">
        <ele>200</ele>
        <time>2017-12-23T10:20:14Z</time>
      </trkpt>
      <trkpt lat="45.99892" lon="4.70657">
        <ele>200</ele>
        <time>2017-12-23T10:20:15Z</time>
      </trkpt>
      <trkpt lat="45.99897" lon="4.70656">
        <ele>200</ele>
        <time>2017-12-23T10:20:16Z</time>
      </trkpt>
      <trkpt lat="45.99902" lon="4.70656">
        <ele>200</ele>
        <time>2017-12-23T10:20:17Z</time>
      </trkpt>
      <trkpt lat="45.99906" lon="4.70652">
        <ele>200</ele>
        <time>2017-12-23T10:20:18Z</time>
      </trkpt>
      <trkpt lat="45.9991" lon="4.7065">
        <ele>200</ele>
        <time>2017-12-23T10:20:19Z</time>
      </trkpt>
      <trkpt lat="45.99917" lon="4.70648">
        <ele>199</ele>
        <time>2017-12-23T10:20:20Z</time>
      </trkpt>
      <trkpt lat="45.99923" lon="4.70646">
        <ele>199</ele>
        <time>2017-12-23T10:20:21Z</time>
      </trkpt>
      <trkpt lat="45.99929" lon="4.70644">
        <ele>199</ele>
        <time>2017-12-23T10:20:22Z</time>
      </trkpt>
      <trkpt lat="45.99936" lon="4.70642">
        <ele>199</ele>
        <time>2017-12-23T10:20:23Z</time>
      </trkpt>
      <trkpt lat="45.99941" lon="4.70641">
        <ele>199</ele>
        <time>2017-12-23T10:20:24Z</time>
      </trkpt>
      <trkpt lat="45.99946" lon="4.70639">
        <ele>199</ele>
        <time>2017-12-23T10:20:25Z</time>
      </trkpt>
      <trkpt lat="45.99951" lon="4.70639">
        <ele>199</ele>
        <time>2017-12-23T10:20:26Z</time>
      </trkpt>
      <trkpt lat="45.99957" lon="4.70637">
        <ele>199</ele>
        <time>2017-12-23T10:20:27Z</time>
      </trkpt>
      <trkpt lat="45.99961" lon="4.70635">
        <ele>199</ele>
        <time>2017-12-23T10:20:28Z</time>
      </trkpt>
      <trkpt lat="45.99965" lon="4.70632">
        <ele>199</ele>
        <time>2017-12-23T10:20:29Z</time>
      </trkpt>
      <trkpt lat="45.9997" lon="4.70632">
        <ele>199</ele>
        <time>2017-12-23T10:20:30Z</time>
      </trkpt>
      <trkpt lat="45.99975" lon="4.70631">
        <ele>199</ele>
        <time>2017-12-23T10:20:31Z</time>
      </trkpt>
      <trkpt lat="45.9998" lon="4.7063">
        <ele>199</ele>
        <time>2017-12-23T10:20:32Z</time>
      </trkpt>
      <trkpt lat="45.99985" lon="4.70629">
        <ele>199</ele>
        <time>2017-12-23T10:20:33Z</time>
      </trkpt>
      <trkpt lat="45.9999" lon="4.70627">
        <ele>199</ele>
        <time>2017-12-23T10:20:34Z</time>
      </trkpt>
      <trkpt lat="45.99995" lon="4.70624">
        <ele>199</ele>
        <time>2017-12-23T10:20:35Z</time>
      </trkpt>
      <trkpt lat="46.00002" lon="4.70622">
        <ele>199</ele>
        <time>2017-12-23T10:20:36Z</time>
      </trkpt>
      <trkpt lat="46.00007" lon="4.7062">
        <ele>199</ele>
        <time>2017-12-23T10:20:37Z</time>
      </trkpt>
      <trkpt lat="46.00011" lon="4.70619">
        <ele>199</ele>
        <time>2017-12-23T10:20:38Z</time>
      </trkpt>
      <trkpt lat="46.00015" lon="4.70618">
        <ele>199</ele>
        <time>2017-12-23T10:20:39Z</time>
      </trkpt>
      <trkpt lat="46.00024" lon="4.70617">
        <ele>199</ele>
        <time>2017-12-23T10:20:40Z</time>
      </trkpt>
      <trkpt lat="46.00031" lon="4.70616">
        <ele>199</ele>
        <time>2017-12-23T10:20:41Z</time>
      </trkpt>
      <trkpt lat="46.00035" lon="4.70615">
        <ele>199</ele>
        <time>2017-12-23T10:20:42Z</time>
      </trkpt>
      <trkpt lat="46.00039" lon="4.70614">
        <ele>199</ele>
        <time>2017-12-23T10:20:43Z</time>
      </trkpt>
      <trkpt lat="46.00044" lon="4.70613">
        <ele>198</ele>
        <time>2017-12-23T10:20:44Z</time>
      </trkpt>
      <trkpt lat="46.00048" lon="4.70612">
        <ele>198</ele>
        <time>2017-12-23T10:20:45Z</time>
      </trkpt>
      <trkpt lat="46.00053" lon="4.7061">
        <ele>198</ele>
        <time>2017-12-23T10:20:46Z</time>
      </trkpt>
      <trkpt lat="46.0006" lon="4.70607">
        <ele>198</ele>
        <time>2017-12-23T10:20:48Z</time>
      </trkpt>
      <trkpt lat="46.00064" lon="4.70604">
        <ele>198</ele>
        <time>2017-12-23T10:20:49Z</time>
      </trkpt>
      <trkpt lat="46.00069" lon="4.70603">
        <ele>198</ele>
        <time>2017-12-23T10:20:50Z</time>
      </trkpt>
      <trkpt lat="46.00075" lon="4.70601">
        <ele>198</ele>
        <time>2017-12-23T10:20:51Z</time>
      </trkpt>
      <trkpt lat="46.00083" lon="4.70597">
        <ele>198</ele>
        <time>2017-12-23T10:20:53Z</time>
      </trkpt>
      <trkpt lat="46.00088" lon="4.70594">
        <ele>198</ele>
        <time>2017-12-23T10:20:54Z</time>
      </trkpt>
      <trkpt lat="46.00096" lon="4.7059">
        <ele>198</ele>
        <time>2017-12-23T10:20:56Z</time>
      </trkpt>
      <trkpt lat="46.00103" lon="4.70587">
        <ele>198</ele>
        <time>2017-12-23T10:20:57Z</time>
      </trkpt>
      <trkpt lat="46.00108" lon="4.70585">
        <ele>198</ele>
        <time>2017-12-23T10:20:58Z</time>
      </trkpt>
      <trkpt lat="46.00112" lon="4.70582">
        <ele>198</ele>
        <time>2017-12-23T10:20:59Z</time>
      </trkpt>
      <trkpt lat="46.00117" lon="4.70579">
        <ele>198</ele>
        <time>2017-12-23T10:21:00Z</time>
      </trkpt>
      <trkpt lat="46.00121" lon="4.70576">
        <ele>198</ele>
        <time>2017-12-23T10:21:01Z</time>
      </trkpt>
      <trkpt lat="46.00126" lon="4.70572">
        <ele>198</ele>
        <time>2017-12-23T10:21:02Z</time>
      </trkpt>
      <trkpt lat="46.0013" lon="4.70568">
        <ele>198</ele>
        <time>2017-12-23T10:21:03Z</time>
      </trkpt>
      <trkpt lat="46.00133" lon="4.70566">
        <ele>198</ele>
        <time>2017-12-23T10:21:04Z</time>
      </trkpt>
      <trkpt lat="46.00138" lon="4.70562">
        <ele>198</ele>
        <time>2017-12-23T10:21:05Z</time>
      </trkpt>
      <trkpt lat="46.00143" lon="4.70562">
        <ele>198</ele>
        <time>2017-12-23T10:21:06Z</time>
      </trkpt>
      <trkpt lat="46.00148" lon="4.70561">
        <ele>198</ele>
        <time>2017-12-23T10:21:07Z</time>
      </trkpt>
      <trkpt lat="46.00156" lon="4.70558">
        <ele>198</ele>
        <time>2017-12-23T10:21:09Z</time>
      </trkpt>
      <trkpt lat="46.0016" lon="4.70556">
        <ele>198</ele>
        <time>2017-12-23T10:21:10Z</time>
      </trkpt>
      <trkpt lat="46.00166" lon="4.70552">
        <ele>198</ele>
        <time>2017-12-23T10:21:11Z</time>
      </trkpt>
      <trkpt lat="46.00171" lon="4.70548">
        <ele>198</ele>
        <time>2017-12-23T10:21:12Z</time>
      </trkpt>
      <trkpt lat="46.00176" lon="4.70545">
        <ele>198</ele>
        <time>2017-12-23T10:21:13Z</time>
      </trkpt>
      <trkpt lat="46.00181" lon="4.70542">
        <ele>198</ele>
        <time>2017-12-23T10:21:14Z</time>
      </trkpt>
      <trkpt lat="46.00187" lon="4.70539">
        <ele>198</ele>
        <time>2017-12-23T10:21:15Z</time>
      </trkpt>
      <trkpt lat="46.00192" lon="4.70539">
        <ele>198</ele>
        <time>2017-12-23T10:21:16Z</time>
      </trkpt>
      <trkpt lat="46.00198" lon="4.7054">
        <ele>198</ele>
        <time>2017-12-23T10:21:17Z</time>
      </trkpt>
      <trkpt lat="46.00203" lon="4.70541">
        <ele>198</ele>
        <time>2017-12-23T10:21:18Z</time>
      </trkpt>
      <trkpt lat="46.00208" lon="4.70542">
        <ele>197</ele>
        <time>2017-12-23T10:21:19Z</time>
      </trkpt>
      <trkpt lat="46.00214" lon="4.70541">
        <ele>197</ele>
        <time>2017-12-23T10:21:20Z</time>
      </trkpt>
      <trkpt lat="46.00218" lon="4.7054">
        <ele>197</ele>
        <time>2017-12-23T10:21:21Z</time>
      </trkpt>
      <trkpt lat="46.00223" lon="4.70539">
        <ele>197</ele>
        <time>2017-12-23T10:21:22Z</time>
      </trkpt>
      <trkpt lat="46.00231" lon="4.70535">
        <ele>197</ele>
        <time>2017-12-23T10:21:24Z</time>
      </trkpt>
      <trkpt lat="46.00236" lon="4.70534">
        <ele>197</ele>
        <time>2017-12-23T10:21:25Z</time>
      </trkpt>
      <trkpt lat="46.00241" lon="4.70532">
        <ele>197</ele>
        <time>2017-12-23T10:21:26Z</time>
      </trkpt>
      <trkpt lat="46.00246" lon="4.70531">
        <ele>197</ele>
        <time>2017-12-23T10:21:27Z</time>
      </trkpt>
      <trkpt lat="46.00251" lon="4.7053">
        <ele>197</ele>
        <time>2017-12-23T10:21:28Z</time>
      </trkpt>
      <trkpt lat="46.00255" lon="4.70528">
        <ele>197</ele>
        <time>2017-12-23T10:21:29Z</time>
      </trkpt>
      <trkpt lat="46.00263" lon="4.70527">
        <ele>197</ele>
        <time>2017-12-23T10:21:31Z</time>
      </trkpt>
      <trkpt lat="46.00267" lon="4.70528">
        <ele>197</ele>
        <time>2017-12-23T10:21:32Z</time>
      </trkpt>
      <trkpt lat="46.00271" lon="4.70527">
        <ele>197</ele>
        <time>2017-12-23T10:21:33Z</time>
      </trkpt>
      <trkpt lat="46.00276" lon="4.70527">
        <ele>197</ele>
        <time>2017-12-23T10:21:34Z</time>
      </trkpt>
      <trkpt lat="46.00282" lon="4.70525">
        <ele>197</ele>
        <time>2017-12-23T10:21:35Z</time>
      </trkpt>
      <trkpt lat="46.00285" lon="4.70524">
        <ele>197</ele>
        <time>2017-12-23T10:21:36Z</time>
      </trkpt>
      <trkpt lat="46.00291" lon="4.70523">
        <ele>197</ele>
        <time>2017-12-23T10:21:37Z</time>
      </trkpt>
      <trkpt lat="46.00295" lon="4.70521">
        <ele>197</ele>
        <time>2017-12-23T10:21:38Z</time>
      </trkpt>
      <trkpt lat="46.00299" lon="4.70518">
        <ele>197</ele>
        <time>2017-12-23T10:21:39Z</time>
      </trkpt>
      <trkpt lat="46.00304" lon="4.70519">
        <ele>197</ele>
        <time>2017-12-23T10:21:40Z</time>
      </trkpt>
      <trkpt lat="46.00309" lon="4.70517">
        <ele>197</ele>
        <time>2017-12-23T10:21:41Z</time>
      </trkpt>
      <trkpt lat="46.00313" lon="4.70515">
        <ele>197</ele>
        <time>2017-12-23T10:21:42Z</time>
      </trkpt>
      <trkpt lat="46.00318" lon="4.70513">
        <ele>197</ele>
        <time>2017-12-23T10:21:43Z</time>
      </trkpt>
      <trkpt lat="46.00324" lon="4.7051">
        <ele>198</ele>
        <time>2017-12-23T10:21:44Z</time>
      </trkpt>
      <trkpt lat="46.0033" lon="4.70509">
        <ele>198</ele>
        <time>2017-12-23T10:21:45Z</time>
      </trkpt>
      <trkpt lat="46.00334" lon="4.70508">
        <ele>198</ele>
        <time>2017-12-23T10:21:46Z</time>
      </trkpt>
      <trkpt lat="46.00342" lon="4.70507">
        <ele>198</ele>
        <time>2017-12-23T10:21:48Z</time>
      </trkpt>
      <trkpt lat="46.00346" lon="4.70506">
        <ele>198</ele>
        <time>2017-12-23T10:21:49Z</time>
      </trkpt>
      <trkpt lat="46.00351" lon="4.70504">
        <ele>198</ele>
        <time>2017-12-23T10:21:50Z</time>
      </trkpt>
      <trkpt lat="46.00355" lon="4.70503">
        <ele>198</ele>
        <time>2017-12-23T10:21:51Z</time>
      </trkpt>
      <trkpt lat="46.00363" lon="4.70501">
        <ele>198</ele>
        <time>2017-12-23T10:21:53Z</time>
      </trkpt>
      <trkpt lat="46.00368" lon="4.705">
        <ele>200</ele>
        <time>2017-12-23T10:21:54Z</time>
      </trkpt>
      <trkpt lat="46.00375" lon="4.70498">
        <ele>200</ele>
        <time>2017-12-23T10:21:56Z</time>
      </trkpt>
      <trkpt lat="46.00379" lon="4.70497">
        <ele>200</ele>
        <time>2017-12-23T10:21:57Z</time>
      </trkpt>
      <trkpt lat="46.00388" lon="4.70496">
        <ele>200</ele>
        <time>2017-12-23T10:21:59Z</time>
      </trkpt>
      <trkpt lat="46.00392" lon="4.70495">
        <ele>200</ele>
        <time>2017-12-23T10:22:00Z</time>
      </trkpt>
      <trkpt lat="46.00401" lon="4.70495">
        <ele>200</ele>
        <time>2017-12-23T10:22:02Z</time>
      </trkpt>
      <trkpt lat="46.00405" lon="4.70494">
        <ele>200</ele>
        <time>2017-12-23T10:22:03Z</time>
      </trkpt>
      <trkpt lat="46.00414" lon="4.70495">
        <ele>200</ele>
        <time>2017-12-23T10:22:05Z</time>
      </trkpt>
      <trkpt lat="46.00419" lon="4.70495">
        <ele>201</ele>
        <time>2017-12-23T10:22:06Z</time>
      </trkpt>
      <trkpt lat="46.00426" lon="4.70495">
        <ele>201</ele>
        <time>2017-12-23T10:22:08Z</time>
      </trkpt>
      <trkpt lat="46.00431" lon="4.70495">
        <ele>201</ele>
        <time>2017-12-23T10:22:09Z</time>
      </trkpt>
      <trkpt lat="46.00439" lon="4.70498">
        <ele>202</ele>
        <time>2017-12-23T10:22:11Z</time>
      </trkpt>
      <trkpt lat="46.00443" lon="4.70499">
        <ele>202</ele>
        <time>2017-12-23T10:22:12Z</time>
      </trkpt>
      <trkpt lat="46.00452" lon="4.705">
        <ele>201</ele>
        <time>2017-12-23T10:22:14Z</time>
      </trkpt>
      <trkpt lat="46.00455" lon="4.70503">
        <ele>201</ele>
        <time>2017-12-23T10:22:15Z</time>
      </trkpt>
      <trkpt lat="46.00462" lon="4.70508">
        <ele>201</ele>
        <time>2017-12-23T10:22:17Z</time>
      </trkpt>
      <trkpt lat="46.00466" lon="4.7051">
        <ele>201</ele>
        <time>2017-12-23T10:22:18Z</time>
      </trkpt>
      <trkpt lat="46.00472" lon="4.70518">
        <ele>201</ele>
        <time>2017-12-23T10:22:20Z</time>
      </trkpt>
      <trkpt lat="46.00473" lon="4.70526">
        <ele>201</ele>
        <time>2017-12-23T10:22:21Z</time>
      </trkpt>
      <trkpt lat="46.00475" lon="4.70532">
        <ele>201</ele>
        <time>2017-12-23T10:22:22Z</time>
      </trkpt>
      <trkpt lat="46.00477" lon="4.70538">
        <ele>201</ele>
        <time>2017-12-23T10:22:23Z</time>
      </trkpt>
      <trkpt lat="46.0048" lon="4.70541">
        <ele>201</ele>
        <time>2017-12-23T10:22:24Z</time>
      </trkpt>
      <trkpt lat="46.00485" lon="4.70545">
        <ele>201</ele>
        <time>2017-12-23T10:22:25Z</time>
      </trkpt>
      <trkpt lat="46.00492" lon="4.70548">
        <ele>201</ele>
        <time>2017-12-23T10:22:27Z</time>
      </trkpt>
      <trkpt lat="46.00496" lon="4.70546">
        <ele>201</ele>
        <time>2017-12-23T10:22:28Z</time>
      </trkpt>
      <trkpt lat="46.00503" lon="4.70541">
        <ele>203</ele>
        <time>2017-12-23T10:22:30Z</time>
      </trkpt>
      <trkpt lat="46.00506" lon="4.70535">
        <ele>203</ele>
        <time>2017-12-23T10:22:31Z</time>
      </trkpt>
      <trkpt lat="46.00512" lon="4.70526">
        <ele>203</ele>
        <time>2017-12-23T10:22:33Z</time>
      </trkpt>
      <trkpt lat="46.00515" lon="4.70522">
        <ele>203</ele>
        <time>2017-12-23T10:22:34Z</time>
      </trkpt>
      <trkpt lat="46.0052" lon="4.70517">
        <ele>204</ele>
        <time>2017-12-23T10:22:35Z</time>
      </trkpt>
      <trkpt lat="46.00523" lon="4.70515">
        <ele>204</ele>
        <time>2017-12-23T10:22:36Z</time>
      </trkpt>
      <trkpt lat="46.00528" lon="4.70514">
        <ele>204</ele>
        <time>2017-12-23T10:22:37Z</time>
      </trkpt>
      <trkpt lat="46.00533" lon="4.70513">
        <ele>204</ele>
        <time>2017-12-23T10:22:38Z</time>
      </trkpt>
      <trkpt lat="46.00542" lon="4.70512">
        <ele>204</ele>
        <time>2017-12-23T10:22:40Z</time>
      </trkpt>
      <trkpt lat="46.00546" lon="4.70512">
        <ele>204</ele>
        <time>2017-12-23T10:22:41Z</time>
      </trkpt>
      <trkpt lat="46.00555" lon="4.70513">
        <ele>204</ele>
        <time>2017-12-23T10:22:43Z</time>
      </trkpt>
      <trkpt lat="46.00559" lon="4.70514">
        <ele>204</ele>
        <time>2017-12-23T10:22:44Z</time>
      </trkpt>
      <trkpt lat="46.00567" lon="4.70514">
        <ele>205</ele>
        <time>2017-12-23T10:22:46Z</time>
      </trkpt>
      <trkpt lat="46.00571" lon="4.70514">
        <ele>205</ele>
        <time>2017-12-23T10:22:47Z</time>
      </trkpt>
      <trkpt lat="46.00579" lon="4.70515">
        <ele>205</ele>
        <time>2017-12-23T10:22:49Z</time>
      </trkpt>
      <trkpt lat="46.00583" lon="4.70515">
        <ele>205</ele>
        <time>2017-12-23T10:22:50Z</time>
      </trkpt>
      <trkpt lat="46.0059" lon="4.70513">
        <ele>207</ele>
        <time>2017-12-23T10:22:52Z</time>
      </trkpt>
      <trkpt lat="46.00594" lon="4.70512">
        <ele>207</ele>
        <time>2017-12-23T10:22:53Z</time>
      </trkpt>
      <trkpt lat="46.00602" lon="4.7051">
        <ele>207</ele>
        <time>2017-12-23T10:22:55Z</time>
      </trkpt>
      <trkpt lat="46.00606" lon="4.70509">
        <ele>207</ele>
        <time>2017-12-23T10:22:56Z</time>
      </trkpt>
      <trkpt lat="46.00614" lon="4.70508">
        <ele>207</ele>
        <time>2017-12-23T10:22:58Z</time>
      </trkpt>
      <trkpt lat="46.00618" lon="4.70507">
        <ele>207</ele>
        <time>2017-12-23T10:22:59Z</time>
      </trkpt>
      <trkpt lat="46.00626" lon="4.70506">
        <ele>207</ele>
        <time>2017-12-23T10:23:01Z</time>
      </trkpt>
      <trkpt lat="46.0063" lon="4.70505">
        <ele>207</ele>
        <time>2017-12-23T10:23:02Z</time>
      </trkpt>
      <trkpt lat="46.00638" lon="4.70505">
        <ele>208</ele>
        <time>2017-12-23T10:23:04Z</time>
      </trkpt>
      <trkpt lat="46.00642" lon="4.70505">
        <ele>208</ele>
        <time>2017-12-23T10:23:05Z</time>
      </trkpt>
      <trkpt lat="46.00651" lon="4.70505">
        <ele>209</ele>
        <time>2017-12-23T10:23:07Z</time>
      </trkpt>
      <trkpt lat="46.00655" lon="4.70505">
        <ele>210</ele>
        <time>2017-12-23T10:23:08Z</time>
      </trkpt>
      <trkpt lat="46.00663" lon="4.70506">
        <ele>210</ele>
        <time>2017-12-23T10:23:10Z</time>
      </trkpt>
      <trkpt lat="46.00666" lon="4.70506">
        <ele>211</ele>
        <time>2017-12-23T10:23:11Z</time>
      </trkpt>
      <trkpt lat="46.00674" lon="4.70504">
        <ele>210</ele>
        <time>2017-12-23T10:23:13Z</time>
      </trkpt>
      <trkpt lat="46.00677" lon="4.70503">
        <ele>210</ele>
        <time>2017-12-23T10:23:14Z</time>
      </trkpt>
      <trkpt lat="46.00685" lon="4.70502">
        <ele>209</ele>
        <time>2017-12-23T10:23:16Z</time>
      </trkpt>
      <trkpt lat="46.00688" lon="4.70501">
        <ele>209</ele>
        <time>2017-12-23T10:23:17Z</time>
      </trkpt>
      <trkpt lat="46.00695" lon="4.70503">
        <ele>208</ele>
        <time>2017-12-23T10:23:19Z</time>
      </trkpt>
      <trkpt lat="46.007" lon="4.70502">
        <ele>208</ele>
        <time>2017-12-23T10:23:20Z</time>
      </trkpt>
      <trkpt lat="46.00705" lon="4.70503">
        <ele>208</ele>
        <time>2017-12-23T10:23:21Z</time>
      </trkpt>
      <trkpt lat="46.0071" lon="4.70502">
        <ele>207</ele>
        <time>2017-12-23T10:23:22Z</time>
      </trkpt>
      <trkpt lat="46.00714" lon="4.70503">
        <ele>207</ele>
        <time>2017-12-23T10:23:23Z</time>
      </trkpt>
      <trkpt lat="46.00721" lon="4.70504">
        <ele>207</ele>
        <time>2017-12-23T10:23:24Z</time>
      </trkpt>
      <trkpt lat="46.00726" lon="4.70505">
        <ele>207</ele>
        <time>2017-12-23T10:23:25Z</time>
      </trkpt>
      <trkpt lat="46.00731" lon="4.70506">
        <ele>207</ele>
        <time>2017-12-23T10:23:26Z</time>
      </trkpt>
      <trkpt lat="46.00736" lon="4.70506">
        <ele>207</ele>
        <time>2017-12-23T10:23:27Z</time>
      </trkpt>
      <trkpt lat="46.00741" lon="4.70508">
        <ele>207</ele>
        <time>2017-12-23T10:23:28Z</time>
      </trkpt>
      <trkpt lat="46.00747" lon="4.70509">
        <ele>207</ele>
        <time>2017-12-23T10:23:29Z</time>
      </trkpt>
      <trkpt lat="46.00752" lon="4.7051">
        <ele>206</ele>
        <time>2017-12-23T10:23:30Z</time>
      </trkpt>
      <trkpt lat="46.00758" lon="4.70512">
        <ele>206</ele>
        <time>2017-12-23T10:23:31Z</time>
      </trkpt>
      <trkpt lat="46.00763" lon="4.70514">
        <ele>206</ele>
        <time>2017-12-23T10:23:32Z</time>
      </trkpt>
      <trkpt lat="46.00769" lon="4.70515">
        <ele>205</ele>
        <time>2017-12-23T10:23:33Z</time>
      </trkpt>
      <trkpt lat="46.00773" lon="4.70517">
        <ele>205</ele>
        <time>2017-12-23T10:23:34Z</time>
      </trkpt>
      <trkpt lat="46.00778" lon="4.70521">
        <ele>205</ele>
        <time>2017-12-23T10:23:35Z</time>
      </trkpt>
      <trkpt lat="46.00784" lon="4.70523">
        <ele>204</ele>
        <time>2017-12-23T10:23:36Z</time>
      </trkpt>
      <trkpt lat="46.00789" lon="4.70525">
        <ele>204</ele>
        <time>2017-12-23T10:23:37Z</time>
      </trkpt>
      <trkpt lat="46.00794" lon="4.70527">
        <ele>204</ele>
        <time>2017-12-23T10:23:38Z</time>
      </trkpt>
      <trkpt lat="46.00799" lon="4.70529">
        <ele>204</ele>
        <time>2017-12-23T10:23:39Z</time>
      </trkpt>
      <trkpt lat="46.00805" lon="4.70531">
        <ele>204</ele>
        <time>2017-12-23T10:23:40Z</time>
      </trkpt>
      <trkpt lat="46.00809" lon="4.70534">
        <ele>204</ele>
        <time>2017-12-23T10:23:41Z</time>
      </trkpt>
      <trkpt lat="46.00814" lon="4.70537">
        <ele>203</ele>
        <time>2017-12-23T10:23:42Z</time>
      </trkpt>
      <trkpt lat="46.00821" lon="4.7054">
        <ele>203</ele>
        <time>2017-12-23T10:23:43Z</time>
      </trkpt>
      <trkpt lat="46.00826" lon="4.70543">
        <ele>203</ele>
        <time>2017-12-23T10:23:44Z</time>
      </trkpt>
      <trkpt lat="46.00832" lon="4.70545">
        <ele>203</ele>
        <time>2017-12-23T10:23:45Z</time>
      </trkpt>
      <trkpt lat="46.00837" lon="4.70547">
        <ele>201</ele>
        <time>2017-12-23T10:23:46Z</time>
      </trkpt>
      <trkpt lat="46.00843" lon="4.70549">
        <ele>201</ele>
        <time>2017-12-23T10:23:47Z</time>
      </trkpt>
      <trkpt lat="46.00849" lon="4.70551">
        <ele>201</ele>
        <time>2017-12-23T10:23:48Z</time>
      </trkpt>
      <trkpt lat="46.00855" lon="4.70553">
        <ele>201</ele>
        <time>2017-12-23T10:23:49Z</time>
      </trkpt>
      <trkpt lat="46.00861" lon="4.70557">
        <ele>201</ele>
        <time>2017-12-23T10:23:50Z</time>
      </trkpt>
      <trkpt lat="46.00867" lon="4.70558">
        <ele>201</ele>
        <time>2017-12-23T10:23:51Z</time>
      </trkpt>
      <trkpt lat="46.00874" lon="4.7056">
        <ele>201</ele>
        <time>2017-12-23T10:23:52Z</time>
      </trkpt>
      <trkpt lat="46.00879" lon="4.70563">
        <ele>200</ele>
        <time>2017-12-23T10:23:53Z</time>
      </trkpt>
      <trkpt lat="46.00885" lon="4.70566">
        <ele>200</ele>
        <time>2017-12-23T10:23:54Z</time>
      </trkpt>
      <trkpt lat="46.00891" lon="4.70568">
        <ele>200</ele>
        <time>2017-12-23T10:23:55Z</time>
      </trkpt>
      <trkpt lat="46.00897" lon="4.70571">
        <ele>200</ele>
        <time>2017-12-23T10:23:56Z</time>
      </trkpt>
      <trkpt lat="46.00902" lon="4.70574">
        <ele>199</ele>
        <time>2017-12-23T10:23:57Z</time>
      </trkpt>
      <trkpt lat="46.00909" lon="4.70576">
        <ele>199</ele>
        <time>2017-12-23T10:23:58Z</time>
      </trkpt>
      <trkpt lat="46.00915" lon="4.70577">
        <ele>199</ele>
        <time>2017-12-23T10:23:59Z</time>
      </trkpt>
      <trkpt lat="46.00921" lon="4.7058">
        <ele>198</ele>
        <time>2017-12-23T10:24:00Z</time>
      </trkpt>
      <trkpt lat="46.00927" lon="4.70583">
        <ele>198</ele>
        <time>2017-12-23T10:24:01Z</time>
      </trkpt>
      <trkpt lat="46.00933" lon="4.70586">
        <ele>198</ele>
        <time>2017-12-23T10:24:02Z</time>
      </trkpt>
      <trkpt lat="46.00939" lon="4.70589">
        <ele>198</ele>
        <time>2017-12-23T10:24:03Z</time>
      </trkpt>
      <trkpt lat="46.00945" lon="4.70593">
        <ele>197</ele>
        <time>2017-12-23T10:24:04Z</time>
      </trkpt>
      <trkpt lat="46.00951" lon="4.70595">
        <ele>197</ele>
        <time>2017-12-23T10:24:05Z</time>
      </trkpt>
      <trkpt lat="46.00957" lon="4.70599">
        <ele>197</ele>
        <time>2017-12-23T10:24:06Z</time>
      </trkpt>
      <trkpt lat="46.00964" lon="4.70601">
        <ele>197</ele>
        <time>2017-12-23T10:24:07Z</time>
      </trkpt>
      <trkpt lat="46.00969" lon="4.70604">
        <ele>197</ele>
        <time>2017-12-23T10:24:08Z</time>
      </trkpt>
      <trkpt lat="46.00975" lon="4.70607">
        <ele>197</ele>
        <time>2017-12-23T10:24:09Z</time>
      </trkpt>
      <trkpt lat="46.0098" lon="4.7061">
        <ele>197</ele>
        <time>2017-12-23T10:24:10Z</time>
      </trkpt>
      <trkpt lat="46.00987" lon="4.70613">
        <ele>197</ele>
        <time>2017-12-23T10:24:11Z</time>
      </trkpt>
      <trkpt lat="46.00992" lon="4.70615">
        <ele>197</ele>
        <time>2017-12-23T10:24:12Z</time>
      </trkpt>
      <trkpt lat="46.00997" lon="4.70617">
        <ele>197</ele>
        <time>2017-12-23T10:24:13Z</time>
      </trkpt>
      <trkpt lat="46.01003" lon="4.70619">
        <ele>196</ele>
        <time>2017-12-23T10:24:14Z</time>
      </trkpt>
      <trkpt lat="46.01009" lon="4.70622">
        <ele>196</ele>
        <time>2017-12-23T10:24:15Z</time>
      </trkpt>
      <trkpt lat="46.01015" lon="4.70625">
        <ele>196</ele>
        <time>2017-12-23T10:24:16Z</time>
      </trkpt>
      <trkpt lat="46.01021" lon="4.70628">
        <ele>196</ele>
        <time>2017-12-23T10:24:17Z</time>
      </trkpt>
      <trkpt lat="46.01027" lon="4.70631">
        <ele>196</ele>
        <time>2017-12-23T10:24:18Z</time>
      </trkpt>
      <trkpt lat="46.01034" lon="4.70634">
        <ele>196</ele>
        <time>2017-12-23T10:24:19Z</time>
      </trkpt>
      <trkpt lat="46.0104" lon="4.70637">
        <ele>196</ele>
        <time>2017-12-23T10:24:20Z</time>
      </trkpt>
      <trkpt lat="46.01046" lon="4.70641">
        <ele>195</ele>
        <time>2017-12-23T10:24:21Z</time>
      </trkpt>
      <trkpt lat="46.01053" lon="4.70644">
        <ele>195</ele>
        <time>2017-12-23T10:24:22Z</time>
      </trkpt>
      <trkpt lat="46.01059" lon="4.70647">
        <ele>195</ele>
        <time>2017-12-23T10:24:23Z</time>
      </trkpt>
      <trkpt lat="46.01065" lon="4.70651">
        <ele>195</ele>
        <time>2017-12-23T10:24:24Z</time>
      </trkpt>
      <trkpt lat="46.01072" lon="4.70653">
        <ele>195</ele>
        <time>2017-12-23T10:24:25Z</time>
      </trkpt>
      <trkpt lat="46.01078" lon="4.70656">
        <ele>195</ele>
        <time>2017-12-23T10:24:26Z</time>
      </trkpt>
      <trkpt lat="46.01084" lon="4.70657">
        <ele>195</ele>
        <time>2017-12-23T10:24:27Z</time>
      </trkpt>
      <trkpt lat="46.0109" lon="4.7066">
        <ele>195</ele>
        <time>2017-12-23T10:24:28Z</time>
      </trkpt>
      <trkpt lat="46.01095" lon="4.70662">
        <ele>195</ele>
        <time>2017-12-23T10:24:29Z</time>
      </trkpt>
      <trkpt lat="46.01101" lon="4.70664">
        <ele>195</ele>
        <time>2017-12-23T10:24:30Z</time>
      </trkpt>
      <trkpt lat="46.01106" lon="4.70666">
        <ele>195</ele>
        <time>2017-12-23T10:24:31Z</time>
      </trkpt>
      <trkpt lat="46.01111" lon="4.70671">
        <ele>195</ele>
        <time>2017-12-23T10:24:32Z</time>
      </trkpt>
      <trkpt lat="46.01117" lon="4.70673">
        <ele>195</ele>
        <time>2017-12-23T10:24:33Z</time>
      </trkpt>
      <trkpt lat="46.01123" lon="4.70676">
        <ele>195</ele>
        <time>2017-12-23T10:24:34Z</time>
      </trkpt>
      <trkpt lat="46.01129" lon="4.70679">
        <ele>194</ele>
        <time>2017-12-23T10:24:35Z</time>
      </trkpt>
      <trkpt lat="46.01135" lon="4.70682">
        <ele>194</ele>
        <time>2017-12-23T10:24:36Z</time>
      </trkpt>
      <trkpt lat="46.01141" lon="4.70685">
        <ele>194</ele>
        <time>2017-12-23T10:24:37Z</time>
      </trkpt>
      <trkpt lat="46.01147" lon="4.70688">
        <ele>194</ele>
        <time>2017-12-23T10:24:38Z</time>
      </trkpt>
      <trkpt lat="46.01152" lon="4.7069">
        <ele>194</ele>
        <time>2017-12-23T10:24:39Z</time>
      </trkpt>
      <trkpt lat="46.01158" lon="4.70692">
        <ele>194</ele>
        <time>2017-12-23T10:24:40Z</time>
      </trkpt>
      <trkpt lat="46.01163" lon="4.70695">
        <ele>194</ele>
        <time>2017-12-23T10:24:41Z</time>
      </trkpt>
      <trkpt lat="46.01169" lon="4.70696">
        <ele>194</ele>
        <time>2017-12-23T10:24:42Z</time>
      </trkpt>
      <trkpt lat="46.01173" lon="4.70699">
        <ele>194</ele>
        <time>2017-12-23T10:24:43Z</time>
      </trkpt>
      <trkpt lat="46.01178" lon="4.70701">
        <ele>194</ele>
        <time>2017-12-23T10:24:44Z</time>
      </trkpt>
      <trkpt lat="46.01183" lon="4.70705">
        <ele>194</ele>
        <time>2017-12-23T10:24:45Z</time>
      </trkpt>
      <trkpt lat="46.01188" lon="4.70708">
        <ele>194</ele>
        <time>2017-12-23T10:24:46Z</time>
      </trkpt>
      <trkpt lat="46.01194" lon="4.7071">
        <ele>194</ele>
        <time>2017-12-23T10:24:47Z</time>
      </trkpt>
      <trkpt lat="46.01197" lon="4.70715">
        <ele>194</ele>
        <time>2017-12-23T10:24:48Z</time>
      </trkpt>
      <trkpt lat="46.01203" lon="4.70717">
        <ele>194</ele>
        <time>2017-12-23T10:24:49Z</time>
      </trkpt>
      <trkpt lat="46.01209" lon="4.70719">
        <ele>194</ele>
        <time>2017-12-23T10:24:50Z</time>
      </trkpt>
      <trkpt lat="46.01214" lon="4.7072">
        <ele>194</ele>
        <time>2017-12-23T10:24:51Z</time>
      </trkpt>
      <trkpt lat="46.01219" lon="4.70723">
        <ele>194</ele>
        <time>2017-12-23T10:24:52Z</time>
      </trkpt>
      <trkpt lat="46.01225" lon="4.70725">
        <ele>194</ele>
        <time>2017-12-23T10:24:53Z</time>
      </trkpt>
      <trkpt lat="46.0123" lon="4.70727">
        <ele>194</ele>
        <time>2017-12-23T10:24:54Z</time>
      </trkpt>
      <trkpt lat="46.01235" lon="4.70729">
        <ele>193</ele>
        <time>2017-12-23T10:24:55Z</time>
      </trkpt>
      <trkpt lat="46.01241" lon="4.70732">
        <ele>193</ele>
        <time>2017-12-23T10:24:56Z</time>
      </trkpt>
      <trkpt lat="46.01246" lon="4.70733">
        <ele>193</ele>
        <time>2017-12-23T10:24:57Z</time>
      </trkpt>
      <trkpt lat="46.01252" lon="4.70735">
        <ele>192</ele>
        <time>2017-12-23T10:24:58Z</time>
      </trkpt>
      <trkpt lat="46.01258" lon="4.70737">
        <ele>192</ele>
        <time>2017-12-23T10:24:59Z</time>
      </trkpt>
      <trkpt lat="46.01264" lon="4.70738">
        <ele>192</ele>
        <time>2017-12-23T10:25:00Z</time>
      </trkpt>
      <trkpt lat="46.01268" lon="4.70738">
        <ele>192</ele>
        <time>2017-12-23T10:25:01Z</time>
      </trkpt>
      <trkpt lat="46.01273" lon="4.70739">
        <ele>192</ele>
        <time>2017-12-23T10:25:02Z</time>
      </trkpt>
      <trkpt lat="46.01278" lon="4.7074">
        <ele>192</ele>
        <time>2017-12-23T10:25:03Z</time>
      </trkpt>
      <trkpt lat="46.01283" lon="4.70741">
        <ele>191</ele>
        <time>2017-12-23T10:25:04Z</time>
      </trkpt>
      <trkpt lat="46.01289" lon="4.70742">
        <ele>191</ele>
        <time>2017-12-23T10:25:05Z</time>
      </trkpt>
      <trkpt lat="46.01295" lon="4.70744">
        <ele>191</ele>
        <time>2017-12-23T10:25:06Z</time>
      </trkpt>
      <trkpt lat="46.013" lon="4.70745">
        <ele>191</ele>
        <time>2017-12-23T10:25:07Z</time>
      </trkpt>
      <trkpt lat="46.01306" lon="4.70746">
        <ele>191</ele>
        <time>2017-12-23T10:25:08Z</time>
      </trkpt>
      <trkpt lat="46.01311" lon="4.70747">
        <ele>190</ele>
        <time>2017-12-23T10:25:09Z</time>
      </trkpt>
      <trkpt lat="46.01317" lon="4.7075">
        <ele>190</ele>
        <time>2017-12-23T10:25:10Z</time>
      </trkpt>
      <trkpt lat="46.01323" lon="4.70751">
        <ele>190</ele>
        <time>2017-12-23T10:25:11Z</time>
      </trkpt>
      <trkpt lat="46.0133" lon="4.70751">
        <ele>189</ele>
        <time>2017-12-23T10:25:12Z</time>
      </trkpt>
      <trkpt lat="46.01337" lon="4.70751">
        <ele>189</ele>
        <time>2017-12-23T10:25:13Z</time>
      </trkpt>
      <trkpt lat="46.01344" lon="4.70751">
        <ele>189</ele>
        <time>2017-12-23T10:25:14Z</time>
      </trkpt>
      <trkpt lat="46.0135" lon="4.70753">
        <ele>189</ele>
        <time>2017-12-23T10:25:15Z</time>
      </trkpt>
      <trkpt lat="46.01356" lon="4.70753">
        <ele>189</ele>
        <time>2017-12-23T10:25:16Z</time>
      </trkpt>
      <trkpt lat="46.01362" lon="4.70753">
        <ele>189</ele>
        <time>2017-12-23T10:25:17Z</time>
      </trkpt>
      <trkpt lat="46.01368" lon="4.70754">
        <ele>189</ele>
        <time>2017-12-23T10:25:18Z</time>
      </trkpt>
      <trkpt lat="46.01373" lon="4.70754">
        <ele>189</ele>
        <time>2017-12-23T10:25:19Z</time>
      </trkpt>
      <trkpt lat="46.01378" lon="4.70753">
        <ele>189</ele>
        <time>2017-12-23T10:25:20Z</time>
      </trkpt>
      <trkpt lat="46.01383" lon="4.70753">
        <ele>189</ele>
        <time>2017-12-23T10:25:21Z</time>
      </trkpt>
      <trkpt lat="46.01389" lon="4.70753">
        <ele>189</ele>
        <time>2017-12-23T10:25:22Z</time>
      </trkpt>
      <trkpt lat="46.01393" lon="4.70752">
        <ele>189</ele>
        <time>2017-12-23T10:25:23Z</time>
      </trkpt>
      <trkpt lat="46.01399" lon="4.70751">
        <ele>189</ele>
        <time>2017-12-23T10:25:24Z</time>
      </trkpt>
      <trkpt lat="46.01404" lon="4.70751">
        <ele>189</ele>
        <time>2017-12-23T10:25:25Z</time>
      </trkpt>
      <trkpt lat="46.01409" lon="4.70751">
        <ele>189</ele>
        <time>2017-12-23T10:25:26Z</time>
      </trkpt>
      <trkpt lat="46.01415" lon="4.70749">
        <ele>189</ele>
        <time>2017-12-23T10:25:27Z</time>
      </trkpt>
      <trkpt lat="46.0142" lon="4.70748">
        <ele>189</ele>
        <time>2017-12-23T10:25:28Z</time>
      </trkpt>
      <trkpt lat="46.01425" lon="4.70748">
        <ele>189</ele>
        <time>2017-12-23T10:25:29Z</time>
      </trkpt>
      <trkpt lat="46.01432" lon="4.70746">
        <ele>189</ele>
        <time>2017-12-23T10:25:30Z</time>
      </trkpt>
      <trkpt lat="46.01438" lon="4.70746">
        <ele>189</ele>
        <time>2017-12-23T10:25:31Z</time>
      </trkpt>
      <trkpt lat="46.01445" lon="4.70745">
        <ele>189</ele>
        <time>2017-12-23T10:25:32Z</time>
      </trkpt>
      <trkpt lat="46.01451" lon="4.70744">
        <ele>189</ele>
        <time>2017-12-23T10:25:33Z</time>
      </trkpt>
      <trkpt lat="46.01458" lon="4.70743">
        <ele>190</ele>
        <time>2017-12-23T10:25:34Z</time>
      </trkpt>
      <trkpt lat="46.01464" lon="4.70743">
        <ele>190</ele>
        <time>2017-12-23T10:25:35Z</time>
      </trkpt>
      <trkpt lat="46.0147" lon="4.70743">
        <ele>190</ele>
        <time>2017-12-23T10:25:36Z</time>
      </trkpt>
      <trkpt lat="46.01476" lon="4.70743">
        <ele>190</ele>
        <time>2017-12-23T10:25:37Z</time>
      </trkpt>
      <trkpt lat="46.01482" lon="4.70741">
        <ele>190</ele>
        <time>2017-12-23T10:25:38Z</time>
      </trkpt>
      <trkpt lat="46.01488" lon="4.70741">
        <ele>190</ele>
        <time>2017-12-23T10:25:39Z</time>
      </trkpt>
      <trkpt lat="46.01494" lon="4.70739">
        <ele>190</ele>
        <time>2017-12-23T10:25:40Z</time>
      </trkpt>
      <trkpt lat="46.015" lon="4.70739">
        <ele>190</ele>
        <time>2017-12-23T10:25:41Z</time>
      </trkpt>
      <trkpt lat="46.01506" lon="4.70738">
        <ele>190</ele>
        <time>2017-12-23T10:25:42Z</time>
      </trkpt>
      <trkpt lat="46.01512" lon="4.70738">
        <ele>190</ele>
        <time>2017-12-23T10:25:43Z</time>
      </trkpt>
      <trkpt lat="46.01519" lon="4.70737">
        <ele>190</ele>
        <time>2017-12-23T10:25:44Z</time>
      </trkpt>
      <trkpt lat="46.01524" lon="4.70737">
        <ele>190</ele>
        <time>2017-12-23T10:25:45Z</time>
      </trkpt>
      <trkpt lat="46.01529" lon="4.70736">
        <ele>190</ele>
        <time>2017-12-23T10:25:46Z</time>
      </trkpt>
      <trkpt lat="46.01535" lon="4.70735">
        <ele>190</ele>
        <time>2017-12-23T10:25:47Z</time>
      </trkpt>
      <trkpt lat="46.0154" lon="4.70735">
        <ele>190</ele>
        <time>2017-12-23T10:25:48Z</time>
      </trkpt>
      <trkpt lat="46.01546" lon="4.70735">
        <ele>190</ele>
        <time>2017-12-23T10:25:49Z</time>
      </trkpt>
      <trkpt lat="46.01551" lon="4.70734">
        <ele>190</ele>
        <time>2017-12-23T10:25:50Z</time>
      </trkpt>
      <trkpt lat="46.01557" lon="4.70733">
        <ele>190</ele>
        <time>2017-12-23T10:25:51Z</time>
      </trkpt>
      <trkpt lat="46.01563" lon="4.70732">
        <ele>190</ele>
        <time>2017-12-23T10:25:52Z</time>
      </trkpt>
      <trkpt lat="46.0157" lon="4.70731">
        <ele>190</ele>
        <time>2017-12-23T10:25:53Z</time>
      </trkpt>
      <trkpt lat="46.01576" lon="4.7073">
        <ele>190</ele>
        <time>2017-12-23T10:25:54Z</time>
      </trkpt>
      <trkpt lat="46.01582" lon="4.70729">
        <ele>190</ele>
        <time>2017-12-23T10:25:55Z</time>
      </trkpt>
      <trkpt lat="46.01588" lon="4.70728">
        <ele>190</ele>
        <time>2017-12-23T10:25:56Z</time>
      </trkpt>
      <trkpt lat="46.01596" lon="4.70728">
        <ele>190</ele>
        <time>2017-12-23T10:25:57Z</time>
      </trkpt>
      <trkpt lat="46.01603" lon="4.70727">
        <ele>190</ele>
        <time>2017-12-23T10:25:58Z</time>
      </trkpt>
      <trkpt lat="46.01609" lon="4.70726">
        <ele>190</ele>
        <time>2017-12-23T10:25:59Z</time>
      </trkpt>
      <trkpt lat="46.01614" lon="4.70725">
        <ele>190</ele>
        <time>2017-12-23T10:26:00Z</time>
      </trkpt>
      <trkpt lat="46.0162" lon="4.70724">
        <ele>190</ele>
        <time>2017-12-23T10:26:01Z</time>
      </trkpt>
      <trkpt lat="46.01624" lon="4.70723">
        <ele>190</ele>
        <time>2017-12-23T10:26:02Z</time>
      </trkpt>
      <trkpt lat="46.01629" lon="4.70723">
        <ele>190</ele>
        <time>2017-12-23T10:26:03Z</time>
      </trkpt>
      <trkpt lat="46.01636" lon="4.70723">
        <ele>190</ele>
        <time>2017-12-23T10:26:04Z</time>
      </trkpt>
      <trkpt lat="46.01641" lon="4.70722">
        <ele>190</ele>
        <time>2017-12-23T10:26:05Z</time>
      </trkpt>
      <trkpt lat="46.01647" lon="4.70721">
        <ele>190</ele>
        <time>2017-12-23T10:26:06Z</time>
      </trkpt>
      <trkpt lat="46.01652" lon="4.7072">
        <ele>190</ele>
        <time>2017-12-23T10:26:07Z</time>
      </trkpt>
      <trkpt lat="46.01658" lon="4.7072">
        <ele>190</ele>
        <time>2017-12-23T10:26:08Z</time>
      </trkpt>
      <trkpt lat="46.01663" lon="4.7072">
        <ele>190</ele>
        <time>2017-12-23T10:26:09Z</time>
      </trkpt>
      <trkpt lat="46.01669" lon="4.70719">
        <ele>189</ele>
        <time>2017-12-23T10:26:10Z</time>
      </trkpt>
      <trkpt lat="46.01674" lon="4.70718">
        <ele>189</ele>
        <time>2017-12-23T10:26:11Z</time>
      </trkpt>
      <trkpt lat="46.01681" lon="4.70718">
        <ele>189</ele>
        <time>2017-12-23T10:26:12Z</time>
      </trkpt>
      <trkpt lat="46.01687" lon="4.70717">
        <ele>189</ele>
        <time>2017-12-23T10:26:13Z</time>
      </trkpt>
      <trkpt lat="46.01693" lon="4.70717">
        <ele>189</ele>
        <time>2017-12-23T10:26:14Z</time>
      </trkpt>
      <trkpt lat="46.017" lon="4.70716">
        <ele>189</ele>
        <time>2017-12-23T10:26:15Z</time>
      </trkpt>
      <trkpt lat="46.01707" lon="4.70716">
        <ele>189</ele>
        <time>2017-12-23T10:26:16Z</time>
      </trkpt>
      <trkpt lat="46.01713" lon="4.70715">
        <ele>188</ele>
        <time>2017-12-23T10:26:17Z</time>
      </trkpt>
      <trkpt lat="46.01719" lon="4.70714">
        <ele>188</ele>
        <time>2017-12-23T10:26:18Z</time>
      </trkpt>
      <trkpt lat="46.01725" lon="4.70714">
        <ele>188</ele>
        <time>2017-12-23T10:26:19Z</time>
      </trkpt>
      <trkpt lat="46.01732" lon="4.70713">
        <ele>188</ele>
        <time>2017-12-23T10:26:20Z</time>
      </trkpt>
      <trkpt lat="46.01737" lon="4.70713">
        <ele>188</ele>
        <time>2017-12-23T10:26:21Z</time>
      </trkpt>
      <trkpt lat="46.01745" lon="4.70712">
        <ele>188</ele>
        <time>2017-12-23T10:26:22Z</time>
      </trkpt>
      <trkpt lat="46.0175" lon="4.70711">
        <ele>188</ele>
        <time>2017-12-23T10:26:23Z</time>
      </trkpt>
      <trkpt lat="46.01756" lon="4.7071">
        <ele>187</ele>
        <time>2017-12-23T10:26:24Z</time>
      </trkpt>
      <trkpt lat="46.01761" lon="4.7071">
        <ele>187</ele>
        <time>2017-12-23T10:26:25Z</time>
      </trkpt>
      <trkpt lat="46.01769" lon="4.7071">
        <ele>187</ele>
        <time>2017-12-23T10:26:26Z</time>
      </trkpt>
      <trkpt lat="46.01775" lon="4.70708">
        <ele>187</ele>
        <time>2017-12-23T10:26:27Z</time>
      </trkpt>
      <trkpt lat="46.01781" lon="4.70708">
        <ele>187</ele>
        <time>2017-12-23T10:26:28Z</time>
      </trkpt>
      <trkpt lat="46.01787" lon="4.70708">
        <ele>187</ele>
        <time>2017-12-23T10:26:29Z</time>
      </trkpt>
      <trkpt lat="46.01796" lon="4.70709">
        <ele>187</ele>
        <time>2017-12-23T10:26:30Z</time>
      </trkpt>
      <trkpt lat="46.01802" lon="4.70708">
        <ele>187</ele>
        <time>2017-12-23T10:26:31Z</time>
      </trkpt>
      <trkpt lat="46.01808" lon="4.70707">
        <ele>187</ele>
        <time>2017-12-23T10:26:32Z</time>
      </trkpt>
      <trkpt lat="46.01814" lon="4.70707">
        <ele>187</ele>
        <time>2017-12-23T10:26:33Z</time>
      </trkpt>
      <trkpt lat="46.01821" lon="4.70707">
        <ele>187</ele>
        <time>2017-12-23T10:26:34Z</time>
      </trkpt>
      <trkpt lat="46.01828" lon="4.70706">
        <ele>187</ele>
        <time>2017-12-23T10:26:35Z</time>
      </trkpt>
      <trkpt lat="46.01834" lon="4.70705">
        <ele>185</ele>
        <time>2017-12-23T10:26:36Z</time>
      </trkpt>
      <trkpt lat="46.0184" lon="4.70704">
        <ele>185</ele>
        <time>2017-12-23T10:26:37Z</time>
      </trkpt>
      <trkpt lat="46.01847" lon="4.70704">
        <ele>185</ele>
        <time>2017-12-23T10:26:38Z</time>
      </trkpt>
      <trkpt lat="46.01853" lon="4.70703">
        <ele>185</ele>
        <time>2017-12-23T10:26:39Z</time>
      </trkpt>
      <trkpt lat="46.01859" lon="4.70704">
        <ele>185</ele>
        <time>2017-12-23T10:26:40Z</time>
      </trkpt>
      <trkpt lat="46.01866" lon="4.70703">
        <ele>185</ele>
        <time>2017-12-23T10:26:41Z</time>
      </trkpt>
      <trkpt lat="46.01871" lon="4.70703">
        <ele>185</ele>
        <time>2017-12-23T10:26:42Z</time>
      </trkpt>
      <trkpt lat="46.01878" lon="4.70703">
        <ele>185</ele>
        <time>2017-12-23T10:26:43Z</time>
      </trkpt>
      <trkpt lat="46.01884" lon="4.70704">
        <ele>184</ele>
        <time>2017-12-23T10:26:44Z</time>
      </trkpt>
      <trkpt lat="46.0189" lon="4.70703">
        <ele>184</ele>
        <time>2017-12-23T10:26:45Z</time>
      </trkpt>
      <trkpt lat="46.01896" lon="4.70704">
        <ele>184</ele>
        <time>2017-12-23T10:26:46Z</time>
      </trkpt>
      <trkpt lat="46.01902" lon="4.70704">
        <ele>184</ele>
        <time>2017-12-23T10:26:47Z</time>
      </trkpt>
      <trkpt lat="46.01907" lon="4.70704">
        <ele>184</ele>
        <time>2017-12-23T10:26:48Z</time>
      </trkpt>
      <trkpt lat="46.01914" lon="4.70705">
        <ele>184</ele>
        <time>2017-12-23T10:26:49Z</time>
      </trkpt>
      <trkpt lat="46.0192" lon="4.70705">
        <ele>182</ele>
        <time>2017-12-23T10:26:50Z</time>
      </trkpt>
      <trkpt lat="46.01925" lon="4.70707">
        <ele>182</ele>
        <time>2017-12-23T10:26:51Z</time>
      </trkpt>
      <trkpt lat="46.0193" lon="4.70707">
        <ele>182</ele>
        <time>2017-12-23T10:26:52Z</time>
      </trkpt>
      <trkpt lat="46.01936" lon="4.70708">
        <ele>182</ele>
        <time>2017-12-23T10:26:53Z</time>
      </trkpt>
      <trkpt lat="46.01941" lon="4.70708">
        <ele>182</ele>
        <time>2017-12-23T10:26:54Z</time>
      </trkpt>
      <trkpt lat="46.01946" lon="4.70708">
        <ele>182</ele>
        <time>2017-12-23T10:26:55Z</time>
      </trkpt>
      <trkpt lat="46.01952" lon="4.70708">
        <ele>181</ele>
        <time>2017-12-23T10:26:56Z</time>
      </trkpt>
      <trkpt lat="46.01958" lon="4.70709">
        <ele>181</ele>
        <time>2017-12-23T10:26:57Z</time>
      </trkpt>
      <trkpt lat="46.01964" lon="4.7071">
        <ele>181</ele>
        <time>2017-12-23T10:26:58Z</time>
      </trkpt>
      <trkpt lat="46.01971" lon="4.70712">
        <ele>181</ele>
        <time>2017-12-23T10:26:59Z</time>
      </trkpt>
      <trkpt lat="46.01976" lon="4.70713">
        <ele>181</ele>
        <time>2017-12-23T10:27:00Z</time>
      </trkpt>
      <trkpt lat="46.01981" lon="4.70713">
        <ele>181</ele>
        <time>2017-12-23T10:27:01Z</time>
      </trkpt>
      <trkpt lat="46.01987" lon="4.70714">
        <ele>181</ele>
        <time>2017-12-23T10:27:02Z</time>
      </trkpt>
      <trkpt lat="46.01994" lon="4.70715">
        <ele>181</ele>
        <time>2017-12-23T10:27:03Z</time>
      </trkpt>
      <trkpt lat="46.01999" lon="4.70716">
        <ele>181</ele>
        <time>2017-12-23T10:27:04Z</time>
      </trkpt>
      <trkpt lat="46.02005" lon="4.70717">
        <ele>179</ele>
        <time>2017-12-23T10:27:05Z</time>
      </trkpt>
      <trkpt lat="46.02011" lon="4.70718">
        <ele>179</ele>
        <time>2017-12-23T10:27:06Z</time>
      </trkpt>
      <trkpt lat="46.02016" lon="4.70719">
        <ele>179</ele>
        <time>2017-12-23T10:27:07Z</time>
      </trkpt>
      <trkpt lat="46.02023" lon="4.70719">
        <ele>179</ele>
        <time>2017-12-23T10:27:08Z</time>
      </trkpt>
      <trkpt lat="46.02028" lon="4.7072">
        <ele>179</ele>
        <time>2017-12-23T10:27:09Z</time>
      </trkpt>
      <trkpt lat="46.02034" lon="4.70721">
        <ele>179</ele>
        <time>2017-12-23T10:27:10Z</time>
      </trkpt>
      <trkpt lat="46.0204" lon="4.70722">
        <ele>179</ele>
        <time>2017-12-23T10:27:11Z</time>
      </trkpt>
      <trkpt lat="46.02045" lon="4.70722">
        <ele>179</ele>
        <time>2017-12-23T10:27:12Z</time>
      </trkpt>
      <trkpt lat="46.0205" lon="4.70724">
        <ele>179</ele>
        <time>2017-12-23T10:27:13Z</time>
      </trkpt>
      <trkpt lat="46.02056" lon="4.70724">
        <ele>179</ele>
        <time>2017-12-23T10:27:14Z</time>
      </trkpt>
      <trkpt lat="46.02062" lon="4.70724">
        <ele>179</ele>
        <time>2017-12-23T10:27:15Z</time>
      </trkpt>
      <trkpt lat="46.02068" lon="4.70726">
        <ele>178</ele>
        <time>2017-12-23T10:27:16Z</time>
      </trkpt>
      <trkpt lat="46.02074" lon="4.70727">
        <ele>178</ele>
        <time>2017-12-23T10:27:17Z</time>
      </trkpt>
      <trkpt lat="46.0208" lon="4.70728">
        <ele>178</ele>
        <time>2017-12-23T10:27:18Z</time>
      </trkpt>
      <trkpt lat="46.02085" lon="4.7073">
        <ele>178</ele>
        <time>2017-12-23T10:27:19Z</time>
      </trkpt>
      <trkpt lat="46.02091" lon="4.70731">
        <ele>178</ele>
        <time>2017-12-23T10:27:20Z</time>
      </trkpt>
      <trkpt lat="46.02096" lon="4.70731">
        <ele>178</ele>
        <time>2017-12-23T10:27:21Z</time>
      </trkpt>
      <trkpt lat="46.02103" lon="4.70732">
        <ele>178</ele>
        <time>2017-12-23T10:27:22Z</time>
      </trkpt>
      <trkpt lat="46.02108" lon="4.70734">
        <ele>178</ele>
        <time>2017-12-23T10:27:23Z</time>
      </trkpt>
      <trkpt lat="46.02113" lon="4.70735">
        <ele>179</ele>
        <time>2017-12-23T10:27:24Z</time>
      </trkpt>
      <trkpt lat="46.02118" lon="4.70736">
        <ele>179</ele>
        <time>2017-12-23T10:27:25Z</time>
      </trkpt>
      <trkpt lat="46.02123" lon="4.70737">
        <ele>179</ele>
        <time>2017-12-23T10:27:26Z</time>
      </trkpt>
      <trkpt lat="46.0213" lon="4.70737">
        <ele>179</ele>
        <time>2017-12-23T10:27:27Z</time>
      </trkpt>
      <trkpt lat="46.02135" lon="4.70738">
        <ele>179</ele>
        <time>2017-12-23T10:27:28Z</time>
      </trkpt>
      <trkpt lat="46.0214" lon="4.70739">
        <ele>179</ele>
        <time>2017-12-23T10:27:29Z</time>
      </trkpt>
      <trkpt lat="46.02146" lon="4.70741">
        <ele>179</ele>
        <time>2017-12-23T10:27:30Z</time>
      </trkpt>
      <trkpt lat="46.02153" lon="4.70743">
        <ele>179</ele>
        <time>2017-12-23T10:27:31Z</time>
      </trkpt>
      <trkpt lat="46.02158" lon="4.70743">
        <ele>179</ele>
        <time>2017-12-23T10:27:32Z</time>
      </trkpt>
      <trkpt lat="46.02165" lon="4.70745">
        <ele>179</ele>
        <time>2017-12-23T10:27:33Z</time>
      </trkpt>
      <trkpt lat="46.0217" lon="4.70745">
        <ele>179</ele>
        <time>2017-12-23T10:27:34Z</time>
      </trkpt>
      <trkpt lat="46.02175" lon="4.70746">
        <ele>179</ele>
        <time>2017-12-23T10:27:35Z</time>
      </trkpt>
      <trkpt lat="46.02179" lon="4.70747">
        <ele>180</ele>
        <time>2017-12-23T10:27:36Z</time>
      </trkpt>
      <trkpt lat="46.02184" lon="4.70748">
        <ele>180</ele>
        <time>2017-12-23T10:27:37Z</time>
      </trkpt>
      <trkpt lat="46.02189" lon="4.70749">
        <ele>180</ele>
        <time>2017-12-23T10:27:38Z</time>
      </trkpt>
      <trkpt lat="46.02193" lon="4.70749">
        <ele>180</ele>
        <time>2017-12-23T10:27:39Z</time>
      </trkpt>
      <trkpt lat="46.02198" lon="4.7075">
        <ele>180</ele>
        <time>2017-12-23T10:27:40Z</time>
      </trkpt>
      <trkpt lat="46.02203" lon="4.70751">
        <ele>179</ele>
        <time>2017-12-23T10:27:41Z</time>
      </trkpt>
      <trkpt lat="46.02209" lon="4.70751">
        <ele>180</ele>
        <time>2017-12-23T10:27:42Z</time>
      </trkpt>
      <trkpt lat="46.02214" lon="4.70752">
        <ele>180</ele>
        <time>2017-12-23T10:27:43Z</time>
      </trkpt>
      <trkpt lat="46.02219" lon="4.70753">
        <ele>180</ele>
        <time>2017-12-23T10:27:44Z</time>
      </trkpt>
      <trkpt lat="46.02226" lon="4.70753">
        <ele>180</ele>
        <time>2017-12-23T10:27:45Z</time>
      </trkpt>
      <trkpt lat="46.02231" lon="4.70754">
        <ele>180</ele>
        <time>2017-12-23T10:27:46Z</time>
      </trkpt>
      <trkpt lat="46.02237" lon="4.70755">
        <ele>180</ele>
        <time>2017-12-23T10:27:47Z</time>
      </trkpt>
      <trkpt lat="46.02243" lon="4.70756">
        <ele>180</ele>
        <time>2017-12-23T10:27:48Z</time>
      </trkpt>
      <trkpt lat="46.02248" lon="4.70757">
        <ele>181</ele>
        <time>2017-12-23T10:27:49Z</time>
      </trkpt>
      <trkpt lat="46.02253" lon="4.70758">
        <ele>181</ele>
        <time>2017-12-23T10:27:50Z</time>
      </trkpt>
      <trkpt lat="46.02259" lon="4.70759">
        <ele>181</ele>
        <time>2017-12-23T10:27:51Z</time>
      </trkpt>
      <trkpt lat="46.02264" lon="4.7076">
        <ele>181</ele>
        <time>2017-12-23T10:27:52Z</time>
      </trkpt>
      <trkpt lat="46.02269" lon="4.70762">
        <ele>181</ele>
        <time>2017-12-23T10:27:53Z</time>
      </trkpt>
      <trkpt lat="46.02274" lon="4.70763">
        <ele>181</ele>
        <time>2017-12-23T10:27:54Z</time>
      </trkpt>
      <trkpt lat="46.02279" lon="4.70764">
        <ele>181</ele>
        <time>2017-12-23T10:27:55Z</time>
      </trkpt>
      <trkpt lat="46.02284" lon="4.70765">
        <ele>181</ele>
        <time>2017-12-23T10:27:56Z</time>
      </trkpt>
      <trkpt lat="46.0229" lon="4.70767">
        <ele>181</ele>
        <time>2017-12-23T10:27:57Z</time>
      </trkpt>
      <trkpt lat="46.02294" lon="4.70766">
        <ele>180</ele>
        <time>2017-12-23T10:27:58Z</time>
      </trkpt>
      <trkpt lat="46.02302" lon="4.70768">
        <ele>180</ele>
        <time>2017-12-23T10:28:00Z</time>
      </trkpt>
      <trkpt lat="46.02306" lon="4.70768">
        <ele>180</ele>
        <time>2017-12-23T10:28:01Z</time>
      </trkpt>
      <trkpt lat="46.02312" lon="4.7077">
        <ele>180</ele>
        <time>2017-12-23T10:28:02Z</time>
      </trkpt>
      <trkpt lat="46.02316" lon="4.70771">
        <ele>180</ele>
        <time>2017-12-23T10:28:03Z</time>
      </trkpt>
      <trkpt lat="46.02325" lon="4.70772">
        <ele>180</ele>
        <time>2017-12-23T10:28:05Z</time>
      </trkpt>
      <trkpt lat="46.02328" lon="4.70773">
        <ele>180</ele>
        <time>2017-12-23T10:28:06Z</time>
      </trkpt>
      <trkpt lat="46.02336" lon="4.70775">
        <ele>182</ele>
        <time>2017-12-23T10:28:08Z</time>
      </trkpt>
      <trkpt lat="46.0234" lon="4.70777">
        <ele>182</ele>
        <time>2017-12-23T10:28:09Z</time>
      </trkpt>
      <trkpt lat="46.02348" lon="4.70778">
        <ele>183</ele>
        <time>2017-12-23T10:28:11Z</time>
      </trkpt>
      <trkpt lat="46.02353" lon="4.70779">
        <ele>183</ele>
        <time>2017-12-23T10:28:12Z</time>
      </trkpt>
      <trkpt lat="46.02361" lon="4.7078">
        <ele>183</ele>
        <time>2017-12-23T10:28:14Z</time>
      </trkpt>
      <trkpt lat="46.02365" lon="4.70781">
        <ele>183</ele>
        <time>2017-12-23T10:28:15Z</time>
      </trkpt>
      <trkpt lat="46.02374" lon="4.70783">
        <ele>184</ele>
        <time>2017-12-23T10:28:17Z</time>
      </trkpt>
      <trkpt lat="46.02379" lon="4.70784">
        <ele>184</ele>
        <time>2017-12-23T10:28:18Z</time>
      </trkpt>
      <trkpt lat="46.02387" lon="4.70786">
        <ele>184</ele>
        <time>2017-12-23T10:28:20Z</time>
      </trkpt>
      <trkpt lat="46.02391" lon="4.70786">
        <ele>184</ele>
        <time>2017-12-23T10:28:21Z</time>
      </trkpt>
      <trkpt lat="46.02399" lon="4.70787">
        <ele>185</ele>
        <time>2017-12-23T10:28:23Z</time>
      </trkpt>
      <trkpt lat="46.02403" lon="4.70787">
        <ele>185</ele>
        <time>2017-12-23T10:28:24Z</time>
      </trkpt>
      <trkpt lat="46.0241" lon="4.70788">
        <ele>185</ele>
        <time>2017-12-23T10:28:26Z</time>
      </trkpt>
      <trkpt lat="46.02413" lon="4.70787">
        <ele>185</ele>
        <time>2017-12-23T10:28:27Z</time>
      </trkpt>
      <trkpt lat="46.0242" lon="4.70785">
        <ele>189</ele>
        <time>2017-12-23T10:28:31Z</time>
      </trkpt>
      <trkpt lat="46.02423" lon="4.70784">
        <ele>189</ele>
        <time>2017-12-23T10:28:32Z</time>
      </trkpt>
      <trkpt lat="46.0243" lon="4.70783">
        <ele>189</ele>
        <time>2017-12-23T10:28:35Z</time>
      </trkpt>
      <trkpt lat="46.02433" lon="4.70784">
        <ele>189</ele>
        <time>2017-12-23T10:28:36Z</time>
      </trkpt>
      <trkpt lat="46.02439" lon="4.70785">
        <ele>189</ele>
        <time>2017-12-23T10:28:38Z</time>
      </trkpt>
      <trkpt lat="46.02442" lon="4.70783">
        <ele>190</ele>
        <time>2017-12-23T10:28:39Z</time>
      </trkpt>
      <trkpt lat="46.02447" lon="4.70777">
        <ele>190</ele>
        <time>2017-12-23T10:28:41Z</time>
      </trkpt>
      <trkpt lat="46.02449" lon="4.70772">
        <ele>190</ele>
        <time>2017-12-23T10:28:42Z</time>
      </trkpt>
      <trkpt lat="46.02451" lon="4.70763">
        <ele>190</ele>
        <time>2017-12-23T10:28:44Z</time>
      </trkpt>
      <trkpt lat="46.02452" lon="4.70759">
        <ele>190</ele>
        <time>2017-12-23T10:28:45Z</time>
      </trkpt>
      <trkpt lat="46.02456" lon="4.7075">
        <ele>190</ele>
        <time>2017-12-23T10:28:47Z</time>
      </trkpt>
      <trkpt lat="46.02458" lon="4.70746">
        <ele>190</ele>
        <time>2017-12-23T10:28:48Z</time>
      </trkpt>
      <trkpt lat="46.02462" lon="4.70735">
        <ele>190</ele>
        <time>2017-12-23T10:28:51Z</time>
      </trkpt>
      <trkpt lat="46.02464" lon="4.70731">
        <ele>190</ele>
        <time>2017-12-23T10:28:52Z</time>
      </trkpt>
      <trkpt lat="46.02466" lon="4.70721">
        <ele>190</ele>
        <time>2017-12-23T10:28:54Z</time>
      </trkpt>
      <trkpt lat="46.02467" lon="4.70716">
        <ele>190</ele>
        <time>2017-12-23T10:28:55Z</time>
      </trkpt>
      <trkpt lat="46.0247" lon="4.70706">
        <ele>190</ele>
        <time>2017-12-23T10:28:57Z</time>
      </trkpt>
      <trkpt lat="46.02471" lon="4.70701">
        <ele>190</ele>
        <time>2017-12-23T10:28:58Z</time>
      </trkpt>
      <trkpt lat="46.02473" lon="4.70691">
        <ele>190</ele>
        <time>2017-12-23T10:29:00Z</time>
      </trkpt>
      <trkpt lat="46.02474" lon="4.70686">
        <ele>190</ele>
        <time>2017-12-23T10:29:01Z</time>
      </trkpt>
      <trkpt lat="46.02476" lon="4.70676">
        <ele>190</ele>
        <time>2017-12-23T10:29:03Z</time>
      </trkpt>
      <trkpt lat="46.02477" lon="4.7067">
        <ele>190</ele>
        <time>2017-12-23T10:29:04Z</time>
      </trkpt>
      <trkpt lat="46.02479" lon="4.70659">
        <ele>189</ele>
        <time>2017-12-23T10:29:06Z</time>
      </trkpt>
      <trkpt lat="46.0248" lon="4.70653">
        <ele>189</ele>
        <time>2017-12-23T10:29:07Z</time>
      </trkpt>
      <trkpt lat="46.02482" lon="4.70642">
        <ele>189</ele>
        <time>2017-12-23T10:29:10Z</time>
      </trkpt>
      <trkpt lat="46.02482" lon="4.7064">
        <ele>189</ele>
        <time>2017-12-23T10:29:11Z</time>
      </trkpt>
      <trkpt lat="46.02485" lon="4.70632">
        <ele>188</ele>
        <time>2017-12-23T10:29:55Z</time>
      </trkpt>
      <trkpt lat="46.02485" lon="4.70632">
        <ele>188</ele>
        <time>2017-12-23T10:29:56Z</time>
      </trkpt>
      <trkpt lat="46.02486" lon="4.7063">
        <ele>188</ele>
        <time>2017-12-23T10:30:49Z</time>
      </trkpt>
      <trkpt lat="46.02487" lon="4.7063">
        <ele>188</ele>
        <time>2017-12-23T10:30:50Z</time>
      </trkpt>
      <trkpt lat="46.02494" lon="4.70626">
        <ele>188</ele>
        <time>2017-12-23T10:31:43Z</time>
      </trkpt>
      <trkpt lat="46.02496" lon="4.70626">
        <ele>188</ele>
        <time>2017-12-23T10:31:44Z</time>
      </trkpt>
      <trkpt lat="46.02505" lon="4.70628">
        <ele>189</ele>
        <time>2017-12-23T10:31:48Z</time>
      </trkpt>
      <trkpt lat="46.02507" lon="4.70628">
        <ele>189</ele>
        <time>2017-12-23T10:31:49Z</time>
      </trkpt>
      <trkpt lat="46.02512" lon="4.70629">
        <ele>189</ele>
        <time>2017-12-23T10:31:51Z</time>
      </trkpt>
      <trkpt lat="46.02516" lon="4.7063">
        <ele>189</ele>
        <time>2017-12-23T10:31:52Z</time>
      </trkpt>
      <trkpt lat="46.02524" lon="4.70631">
        <ele>189</ele>
        <time>2017-12-23T10:31:54Z</time>
      </trkpt>
      <trkpt lat="46.02528" lon="4.70632">
        <ele>189</ele>
        <time>2017-12-23T10:31:55Z</time>
      </trkpt>
      <trkpt lat="46.02535" lon="4.70633">
        <ele>189</ele>
        <time>2017-12-23T10:31:57Z</time>
      </trkpt>
      <trkpt lat="46.0254" lon="4.70633">
        <ele>189</ele>
        <time>2017-12-23T10:31:58Z</time>
      </trkpt>
      <trkpt lat="46.02548" lon="4.70636">
        <ele>189</ele>
        <time>2017-12-23T10:32:00Z</time>
      </trkpt>
      <trkpt lat="46.02551" lon="4.70638">
        <ele>189</ele>
        <time>2017-12-23T10:32:01Z</time>
      </trkpt>
      <trkpt lat="46.02559" lon="4.70638">
        <ele>189</ele>
        <time>2017-12-23T10:32:03Z</time>
      </trkpt>
      <trkpt lat="46.02563" lon="4.70639">
        <ele>189</ele>
        <time>2017-12-23T10:32:04Z</time>
      </trkpt>
      <trkpt lat="46.02571" lon="4.70641">
        <ele>189</ele>
        <time>2017-12-23T10:32:06Z</time>
      </trkpt>
      <trkpt lat="46.02574" lon="4.70642">
        <ele>190</ele>
        <time>2017-12-23T10:32:07Z</time>
      </trkpt>
      <trkpt lat="46.02582" lon="4.70644">
        <ele>190</ele>
        <time>2017-12-23T10:32:09Z</time>
      </trkpt>
      <trkpt lat="46.02586" lon="4.70646">
        <ele>190</ele>
        <time>2017-12-23T10:32:10Z</time>
      </trkpt>
      <trkpt lat="46.02591" lon="4.70647">
        <ele>190</ele>
        <time>2017-12-23T10:32:11Z</time>
      </trkpt>
      <trkpt lat="46.02595" lon="4.70648">
        <ele>190</ele>
        <time>2017-12-23T10:32:12Z</time>
      </trkpt>
      <trkpt lat="46.026" lon="4.70648">
        <ele>190</ele>
        <time>2017-12-23T10:32:13Z</time>
      </trkpt>
      <trkpt lat="46.02605" lon="4.70649">
        <ele>190</ele>
        <time>2017-12-23T10:32:14Z</time>
      </trkpt>
      <trkpt lat="46.0261" lon="4.7065">
        <ele>190</ele>
        <time>2017-12-23T10:32:15Z</time>
      </trkpt>
      <trkpt lat="46.02617" lon="4.7065">
        <ele>190</ele>
        <time>2017-12-23T10:32:16Z</time>
      </trkpt>
      <trkpt lat="46.02625" lon="4.70653">
        <ele>190</ele>
        <time>2017-12-23T10:32:18Z</time>
      </trkpt>
      <trkpt lat="46.02631" lon="4.70652">
        <ele>190</ele>
        <time>2017-12-23T10:32:19Z</time>
      </trkpt>
      <trkpt lat="46.02639" lon="4.70654">
        <ele>190</ele>
        <time>2017-12-23T10:32:21Z</time>
      </trkpt>
      <trkpt lat="46.02644" lon="4.70655">
        <ele>190</ele>
        <time>2017-12-23T10:32:22Z</time>
      </trkpt>
      <trkpt lat="46.02652" lon="4.70656">
        <ele>190</ele>
        <time>2017-12-23T10:32:24Z</time>
      </trkpt>
      <trkpt lat="46.02656" lon="4.70658">
        <ele>190</ele>
        <time>2017-12-23T10:32:25Z</time>
      </trkpt>
      <trkpt lat="46.02661" lon="4.70657">
        <ele>190</ele>
        <time>2017-12-23T10:32:26Z</time>
      </trkpt>
      <trkpt lat="46.02667" lon="4.70657">
        <ele>190</ele>
        <time>2017-12-23T10:32:27Z</time>
      </trkpt>
      <trkpt lat="46.02672" lon="4.70658">
        <ele>190</ele>
        <time>2017-12-23T10:32:28Z</time>
      </trkpt>
      <trkpt lat="46.02678" lon="4.70659">
        <ele>190</ele>
        <time>2017-12-23T10:32:29Z</time>
      </trkpt>
      <trkpt lat="46.02683" lon="4.70661">
        <ele>190</ele>
        <time>2017-12-23T10:32:30Z</time>
      </trkpt>
      <trkpt lat="46.02688" lon="4.7066">
        <ele>190</ele>
        <time>2017-12-23T10:32:31Z</time>
      </trkpt>
      <trkpt lat="46.02697" lon="4.70659">
        <ele>189</ele>
        <time>2017-12-23T10:32:33Z</time>
      </trkpt>
      <trkpt lat="46.027" lon="4.7066">
        <ele>189</ele>
        <time>2017-12-23T10:32:34Z</time>
      </trkpt>
      <trkpt lat="46.02705" lon="4.70661">
        <ele>189</ele>
        <time>2017-12-23T10:32:35Z</time>
      </trkpt>
      <trkpt lat="46.02709" lon="4.70662">
        <ele>189</ele>
        <time>2017-12-23T10:32:36Z</time>
      </trkpt>
      <trkpt lat="46.02718" lon="4.70661">
        <ele>189</ele>
        <time>2017-12-23T10:32:38Z</time>
      </trkpt>
      <trkpt lat="46.02722" lon="4.70661">
        <ele>189</ele>
        <time>2017-12-23T10:32:39Z</time>
      </trkpt>
      <trkpt lat="46.02727" lon="4.70661">
        <ele>189</ele>
        <time>2017-12-23T10:32:40Z</time>
      </trkpt>
      <trkpt lat="46.02731" lon="4.70663">
        <ele>189</ele>
        <time>2017-12-23T10:32:41Z</time>
      </trkpt>
      <trkpt lat="46.02736" lon="4.70663">
        <ele>189</ele>
        <time>2017-12-23T10:32:42Z</time>
      </trkpt>
      <trkpt lat="46.02741" lon="4.70664">
        <ele>189</ele>
        <time>2017-12-23T10:32:43Z</time>
      </trkpt>
      <trkpt lat="46.02746" lon="4.70664">
        <ele>189</ele>
        <time>2017-12-23T10:32:44Z</time>
      </trkpt>
      <trkpt lat="46.0275" lon="4.70666">
        <ele>189</ele>
        <time>2017-12-23T10:32:45Z</time>
      </trkpt>
      <trkpt lat="46.02755" lon="4.70667">
        <ele>189</ele>
        <time>2017-12-23T10:32:46Z</time>
      </trkpt>
      <trkpt lat="46.0276" lon="4.70668">
        <ele>189</ele>
        <time>2017-12-23T10:32:47Z</time>
      </trkpt>
      <trkpt lat="46.02766" lon="4.70669">
        <ele>189</ele>
        <time>2017-12-23T10:32:48Z</time>
      </trkpt>
      <trkpt lat="46.02771" lon="4.7067">
        <ele>189</ele>
        <time>2017-12-23T10:32:49Z</time>
      </trkpt>
      <trkpt lat="46.02777" lon="4.7067">
        <ele>189</ele>
        <time>2017-12-23T10:32:50Z</time>
      </trkpt>
      <trkpt lat="46.02782" lon="4.7067">
        <ele>189</ele>
        <time>2017-12-23T10:32:51Z</time>
      </trkpt>
      <trkpt lat="46.02787" lon="4.7067">
        <ele>189</ele>
        <time>2017-12-23T10:32:52Z</time>
      </trkpt>
      <trkpt lat="46.02793" lon="4.7067">
        <ele>189</ele>
        <time>2017-12-23T10:32:53Z</time>
      </trkpt>
      <trkpt lat="46.02798" lon="4.70671">
        <ele>189</ele>
        <time>2017-12-23T10:32:54Z</time>
      </trkpt>
      <trkpt lat="46.02803" lon="4.70672">
        <ele>189</ele>
        <time>2017-12-23T10:32:55Z</time>
      </trkpt>
      <trkpt lat="46.02808" lon="4.70672">
        <ele>189</ele>
        <time>2017-12-23T10:32:56Z</time>
      </trkpt>
      <trkpt lat="46.02814" lon="4.70673">
        <ele>189</ele>
        <time>2017-12-23T10:32:57Z</time>
      </trkpt>
      <trkpt lat="46.02822" lon="4.70672">
        <ele>189</ele>
        <time>2017-12-23T10:32:59Z</time>
      </trkpt>
      <trkpt lat="46.02827" lon="4.70671">
        <ele>189</ele>
        <time>2017-12-23T10:33:00Z</time>
      </trkpt>
      <trkpt lat="46.02835" lon="4.70668">
        <ele>189</ele>
        <time>2017-12-23T10:33:02Z</time>
      </trkpt>
      <trkpt lat="46.0284" lon="4.70667">
        <ele>189</ele>
        <time>2017-12-23T10:33:03Z</time>
      </trkpt>
      <trkpt lat="46.02844" lon="4.70666">
        <ele>189</ele>
        <time>2017-12-23T10:33:04Z</time>
      </trkpt>
      <trkpt lat="46.02849" lon="4.70666">
        <ele>190</ele>
        <time>2017-12-23T10:33:05Z</time>
      </trkpt>
      <trkpt lat="46.02853" lon="4.70665">
        <ele>190</ele>
        <time>2017-12-23T10:33:06Z</time>
      </trkpt>
      <trkpt lat="46.02858" lon="4.70664">
        <ele>190</ele>
        <time>2017-12-23T10:33:07Z</time>
      </trkpt>
      <trkpt lat="46.02867" lon="4.70663">
        <ele>190</ele>
        <time>2017-12-23T10:33:09Z</time>
      </trkpt>
      <trkpt lat="46.02872" lon="4.70663">
        <ele>190</ele>
        <time>2017-12-23T10:33:10Z</time>
      </trkpt>
      <trkpt lat="46.02877" lon="4.70663">
        <ele>190</ele>
        <time>2017-12-23T10:33:11Z</time>
      </trkpt>
      <trkpt lat="46.02882" lon="4.70663">
        <ele>190</ele>
        <time>2017-12-23T10:33:12Z</time>
      </trkpt>
      <trkpt lat="46.02887" lon="4.70664">
        <ele>190</ele>
        <time>2017-12-23T10:33:13Z</time>
      </trkpt>
      <trkpt lat="46.02892" lon="4.70664">
        <ele>190</ele>
        <time>2017-12-23T10:33:14Z</time>
      </trkpt>
      <trkpt lat="46.02896" lon="4.70664">
        <ele>191</ele>
        <time>2017-12-23T10:33:15Z</time>
      </trkpt>
      <trkpt lat="46.02902" lon="4.70664">
        <ele>191</ele>
        <time>2017-12-23T10:33:16Z</time>
      </trkpt>
      <trkpt lat="46.02907" lon="4.70664">
        <ele>191</ele>
        <time>2017-12-23T10:33:17Z</time>
      </trkpt>
      <trkpt lat="46.02912" lon="4.70664">
        <ele>191</ele>
        <time>2017-12-23T10:33:18Z</time>
      </trkpt>
      <trkpt lat="46.02917" lon="4.70663">
        <ele>191</ele>
        <time>2017-12-23T10:33:19Z</time>
      </trkpt>
      <trkpt lat="46.02921" lon="4.70662">
        <ele>191</ele>
        <time>2017-12-23T10:33:20Z</time>
      </trkpt>
      <trkpt lat="46.02925" lon="4.70659">
        <ele>191</ele>
        <time>2017-12-23T10:33:21Z</time>
      </trkpt>
      <trkpt lat="46.0293" lon="4.70656">
        <ele>192</ele>
        <time>2017-12-23T10:33:22Z</time>
      </trkpt>
      <trkpt lat="46.02933" lon="4.70651">
        <ele>192</ele>
        <time>2017-12-23T10:33:23Z</time>
      </trkpt>
      <trkpt lat="46.02936" lon="4.70645">
        <ele>192</ele>
        <time>2017-12-23T10:33:24Z</time>
      </trkpt>
      <trkpt lat="46.02939" lon="4.70633">
        <ele>192</ele>
        <time>2017-12-23T10:33:26Z</time>
      </trkpt>
      <trkpt lat="46.0294" lon="4.70626">
        <ele>192</ele>
        <time>2017-12-23T10:33:27Z</time>
      </trkpt>
      <trkpt lat="46.02942" lon="4.70619">
        <ele>192</ele>
        <time>2017-12-23T10:33:28Z</time>
      </trkpt>
      <trkpt lat="46.02943" lon="4.70613">
        <ele>192</ele>
        <time>2017-12-23T10:33:29Z</time>
      </trkpt>
      <trkpt lat="46.02946" lon="4.70602">
        <ele>192</ele>
        <time>2017-12-23T10:33:31Z</time>
      </trkpt>
      <trkpt lat="46.02948" lon="4.70596">
        <ele>192</ele>
        <time>2017-12-23T10:33:32Z</time>
      </trkpt>
      <trkpt lat="46.0295" lon="4.7059">
        <ele>192</ele>
        <time>2017-12-23T10:33:33Z</time>
      </trkpt>
      <trkpt lat="46.02953" lon="4.70583">
        <ele>192</ele>
        <time>2017-12-23T10:33:34Z</time>
      </trkpt>
      <trkpt lat="46.02956" lon="4.70577">
        <ele>191</ele>
        <time>2017-12-23T10:33:35Z</time>
      </trkpt>
      <trkpt lat="46.02959" lon="4.7057">
        <ele>191</ele>
        <time>2017-12-23T10:33:36Z</time>
      </trkpt>
      <trkpt lat="46.02963" lon="4.70564">
        <ele>192</ele>
        <time>2017-12-23T10:33:37Z</time>
      </trkpt>
      <trkpt lat="46.02966" lon="4.70558">
        <ele>191</ele>
        <time>2017-12-23T10:33:38Z</time>
      </trkpt>
      <trkpt lat="46.0297" lon="4.70554">
        <ele>191</ele>
        <time>2017-12-23T10:33:39Z</time>
      </trkpt>
      <trkpt lat="46.02974" lon="4.70549">
        <ele>191</ele>
        <time>2017-12-23T10:33:40Z</time>
      </trkpt>
      <trkpt lat="46.02978" lon="4.70544">
        <ele>191</ele>
        <time>2017-12-23T10:33:41Z</time>
      </trkpt>
      <trkpt lat="46.02982" lon="4.7054">
        <ele>191</ele>
        <time>2017-12-23T10:33:42Z</time>
      </trkpt>
      <trkpt lat="46.02988" lon="4.70533">
        <ele>191</ele>
        <time>2017-12-23T10:33:44Z</time>
      </trkpt>
      <trkpt lat="46.02993" lon="4.7053">
        <ele>191</ele>
        <time>2017-12-23T10:33:45Z</time>
      </trkpt>
      <trkpt lat="46.02997" lon="4.70526">
        <ele>191</ele>
        <time>2017-12-23T10:33:46Z</time>
      </trkpt>
      <trkpt lat="46.03" lon="4.70523">
        <ele>191</ele>
        <time>2017-12-23T10:33:47Z</time>
      </trkpt>
      <trkpt lat="46.03004" lon="4.70519">
        <ele>191</ele>
        <time>2017-12-23T10:33:48Z</time>
      </trkpt>
      <trkpt lat="46.03008" lon="4.70516">
        <ele>191</ele>
        <time>2017-12-23T10:33:49Z</time>
      </trkpt>
      <trkpt lat="46.03013" lon="4.70513">
        <ele>191</ele>
        <time>2017-12-23T10:33:50Z</time>
      </trkpt>
      <trkpt lat="46.03017" lon="4.7051">
        <ele>191</ele>
        <time>2017-12-23T10:33:51Z</time>
      </trkpt>
      <trkpt lat="46.03021" lon="4.70506">
        <ele>191</ele>
        <time>2017-12-23T10:33:52Z</time>
      </trkpt>
      <trkpt lat="46.03025" lon="4.70502">
        <ele>191</ele>
        <time>2017-12-23T10:33:53Z</time>
      </trkpt>
      <trkpt lat="46.03029" lon="4.70498">
        <ele>191</ele>
        <time>2017-12-23T10:33:54Z</time>
      </trkpt>
      <trkpt lat="46.03033" lon="4.70495">
        <ele>191</ele>
        <time>2017-12-23T10:33:55Z</time>
      </trkpt>
      <trkpt lat="46.03038" lon="4.7049">
        <ele>191</ele>
        <time>2017-12-23T10:33:56Z</time>
      </trkpt>
      <trkpt lat="46.03041" lon="4.70485">
        <ele>191</ele>
        <time>2017-12-23T10:33:57Z</time>
      </trkpt>
      <trkpt lat="46.03045" lon="4.70481">
        <ele>191</ele>
        <time>2017-12-23T10:33:58Z</time>
      </trkpt>
      <trkpt lat="46.03049" lon="4.70477">
        <ele>191</ele>
        <time>2017-12-23T10:33:59Z</time>
      </trkpt>
      <trkpt lat="46.03052" lon="4.70473">
        <ele>191</ele>
        <time>2017-12-23T10:34:00Z</time>
      </trkpt>
      <trkpt lat="46.03056" lon="4.70469">
        <ele>191</ele>
        <time>2017-12-23T10:34:01Z</time>
      </trkpt>
      <trkpt lat="46.03061" lon="4.70466">
        <ele>191</ele>
        <time>2017-12-23T10:34:02Z</time>
      </trkpt>
      <trkpt lat="46.03065" lon="4.70463">
        <ele>191</ele>
        <time>2017-12-23T10:34:03Z</time>
      </trkpt>
      <trkpt lat="46.03068" lon="4.7046">
        <ele>191</ele>
        <time>2017-12-23T10:34:04Z</time>
      </trkpt>
      <trkpt lat="46.03073" lon="4.70456">
        <ele>191</ele>
        <time>2017-12-23T10:34:05Z</time>
      </trkpt>
      <trkpt lat="46.03077" lon="4.70452">
        <ele>191</ele>
        <time>2017-12-23T10:34:06Z</time>
      </trkpt>
      <trkpt lat="46.03083" lon="4.70449">
        <ele>191</ele>
        <time>2017-12-23T10:34:07Z</time>
      </trkpt>
      <trkpt lat="46.03087" lon="4.70446">
        <ele>192</ele>
        <time>2017-12-23T10:34:08Z</time>
      </trkpt>
      <trkpt lat="46.03092" lon="4.70443">
        <ele>192</ele>
        <time>2017-12-23T10:34:09Z</time>
      </trkpt>
      <trkpt lat="46.031" lon="4.70438">
        <ele>192</ele>
        <time>2017-12-23T10:34:11Z</time>
      </trkpt>
      <trkpt lat="46.03105" lon="4.70435">
        <ele>192</ele>
        <time>2017-12-23T10:34:12Z</time>
      </trkpt>
      <trkpt lat="46.0311" lon="4.70433">
        <ele>192</ele>
        <time>2017-12-23T10:34:13Z</time>
      </trkpt>
      <trkpt lat="46.03114" lon="4.70431">
        <ele>192</ele>
        <time>2017-12-23T10:34:14Z</time>
      </trkpt>
      <trkpt lat="46.03118" lon="4.70429">
        <ele>192</ele>
        <time>2017-12-23T10:34:15Z</time>
      </trkpt>
      <trkpt lat="46.03123" lon="4.70427">
        <ele>192</ele>
        <time>2017-12-23T10:34:16Z</time>
      </trkpt>
      <trkpt lat="46.03128" lon="4.70426">
        <ele>192</ele>
        <time>2017-12-23T10:34:17Z</time>
      </trkpt>
      <trkpt lat="46.03132" lon="4.70423">
        <ele>192</ele>
        <time>2017-12-23T10:34:18Z</time>
      </trkpt>
      <trkpt lat="46.03136" lon="4.70421">
        <ele>192</ele>
        <time>2017-12-23T10:34:19Z</time>
      </trkpt>
      <trkpt lat="46.03142" lon="4.70419">
        <ele>192</ele>
        <time>2017-12-23T10:34:20Z</time>
      </trkpt>
      <trkpt lat="46.03147" lon="4.70416">
        <ele>192</ele>
        <time>2017-12-23T10:34:21Z</time>
      </trkpt>
      <trkpt lat="46.03151" lon="4.70414">
        <ele>192</ele>
        <time>2017-12-23T10:34:22Z</time>
      </trkpt>
      <trkpt lat="46.03156" lon="4.70412">
        <ele>192</ele>
        <time>2017-12-23T10:34:23Z</time>
      </trkpt>
      <trkpt lat="46.0316" lon="4.70409">
        <ele>192</ele>
        <time>2017-12-23T10:34:24Z</time>
      </trkpt>
      <trkpt lat="46.03164" lon="4.70406">
        <ele>192</ele>
        <time>2017-12-23T10:34:25Z</time>
      </trkpt>
      <trkpt lat="46.03168" lon="4.70404">
        <ele>192</ele>
        <time>2017-12-23T10:34:26Z</time>
      </trkpt>
      <trkpt lat="46.03173" lon="4.70402">
        <ele>192</ele>
        <time>2017-12-23T10:34:27Z</time>
      </trkpt>
      <trkpt lat="46.03178" lon="4.704">
        <ele>192</ele>
        <time>2017-12-23T10:34:28Z</time>
      </trkpt>
      <trkpt lat="46.03182" lon="4.70398">
        <ele>192</ele>
        <time>2017-12-23T10:34:29Z</time>
      </trkpt>
      <trkpt lat="46.03187" lon="4.70396">
        <ele>192</ele>
        <time>2017-12-23T10:34:30Z</time>
      </trkpt>
      <trkpt lat="46.03191" lon="4.70394">
        <ele>192</ele>
        <time>2017-12-23T10:34:31Z</time>
      </trkpt>
      <trkpt lat="46.03195" lon="4.70391">
        <ele>192</ele>
        <time>2017-12-23T10:34:32Z</time>
      </trkpt>
      <trkpt lat="46.032" lon="4.70389">
        <ele>192</ele>
        <time>2017-12-23T10:34:33Z</time>
      </trkpt>
      <trkpt lat="46.03204" lon="4.70387">
        <ele>192</ele>
        <time>2017-12-23T10:34:34Z</time>
      </trkpt>
      <trkpt lat="46.03212" lon="4.70383">
        <ele>192</ele>
        <time>2017-12-23T10:34:36Z</time>
      </trkpt>
      <trkpt lat="46.03217" lon="4.70381">
        <ele>192</ele>
        <time>2017-12-23T10:34:37Z</time>
      </trkpt>
      <trkpt lat="46.03223" lon="4.7038">
        <ele>192</ele>
        <time>2017-12-23T10:34:38Z</time>
      </trkpt>
      <trkpt lat="46.03228" lon="4.70377">
        <ele>192</ele>
        <time>2017-12-23T10:34:39Z</time>
      </trkpt>
      <trkpt lat="46.03234" lon="4.70374">
        <ele>192</ele>
        <time>2017-12-23T10:34:40Z</time>
      </trkpt>
      <trkpt lat="46.03239" lon="4.70371">
        <ele>192</ele>
        <time>2017-12-23T10:34:41Z</time>
      </trkpt>
      <trkpt lat="46.03244" lon="4.70368">
        <ele>192</ele>
        <time>2017-12-23T10:34:42Z</time>
      </trkpt>
      <trkpt lat="46.03249" lon="4.70365">
        <ele>192</ele>
        <time>2017-12-23T10:34:43Z</time>
      </trkpt>
      <trkpt lat="46.03253" lon="4.70365">
        <ele>191</ele>
        <time>2017-12-23T10:34:44Z</time>
      </trkpt>
      <trkpt lat="46.03257" lon="4.70363">
        <ele>191</ele>
        <time>2017-12-23T10:34:45Z</time>
      </trkpt>
      <trkpt lat="46.03263" lon="4.70361">
        <ele>191</ele>
        <time>2017-12-23T10:34:46Z</time>
      </trkpt>
      <trkpt lat="46.03268" lon="4.70359">
        <ele>191</ele>
        <time>2017-12-23T10:34:47Z</time>
      </trkpt>
      <trkpt lat="46.03272" lon="4.70357">
        <ele>191</ele>
        <time>2017-12-23T10:34:48Z</time>
      </trkpt>
      <trkpt lat="46.03278" lon="4.70355">
        <ele>191</ele>
        <time>2017-12-23T10:34:49Z</time>
      </trkpt>
      <trkpt lat="46.03282" lon="4.70353">
        <ele>191</ele>
        <time>2017-12-23T10:34:50Z</time>
      </trkpt>
      <trkpt lat="46.03287" lon="4.70352">
        <ele>191</ele>
        <time>2017-12-23T10:34:51Z</time>
      </trkpt>
      <trkpt lat="46.03292" lon="4.70349">
        <ele>191</ele>
        <time>2017-12-23T10:34:52Z</time>
      </trkpt>
      <trkpt lat="46.03297" lon="4.70347">
        <ele>191</ele>
        <time>2017-12-23T10:34:53Z</time>
      </trkpt>
      <trkpt lat="46.03303" lon="4.70345">
        <ele>191</ele>
        <time>2017-12-23T10:34:54Z</time>
      </trkpt>
      <trkpt lat="46.03307" lon="4.70343">
        <ele>191</ele>
        <time>2017-12-23T10:34:55Z</time>
      </trkpt>
      <trkpt lat="46.03314" lon="4.70341">
        <ele>191</ele>
        <time>2017-12-23T10:34:56Z</time>
      </trkpt>
      <trkpt lat="46.0332" lon="4.70339">
        <ele>191</ele>
        <time>2017-12-23T10:34:57Z</time>
      </trkpt>
      <trkpt lat="46.03326" lon="4.70337">
        <ele>191</ele>
        <time>2017-12-23T10:34:58Z</time>
      </trkpt>
      <trkpt lat="46.03331" lon="4.70335">
        <ele>191</ele>
        <time>2017-12-23T10:34:59Z</time>
      </trkpt>
      <trkpt lat="46.03337" lon="4.70331">
        <ele>191</ele>
        <time>2017-12-23T10:35:00Z</time>
      </trkpt>
      <trkpt lat="46.03344" lon="4.70329">
        <ele>191</ele>
        <time>2017-12-23T10:35:01Z</time>
      </trkpt>
      <trkpt lat="46.03349" lon="4.70327">
        <ele>191</ele>
        <time>2017-12-23T10:35:02Z</time>
      </trkpt>
      <trkpt lat="46.03355" lon="4.70324">
        <ele>191</ele>
        <time>2017-12-23T10:35:03Z</time>
      </trkpt>
      <trkpt lat="46.0336" lon="4.70322">
        <ele>191</ele>
        <time>2017-12-23T10:35:04Z</time>
      </trkpt>
      <trkpt lat="46.03367" lon="4.70319">
        <ele>191</ele>
        <time>2017-12-23T10:35:05Z</time>
      </trkpt>
      <trkpt lat="46.03372" lon="4.70317">
        <ele>191</ele>
        <time>2017-12-23T10:35:06Z</time>
      </trkpt>
      <trkpt lat="46.03378" lon="4.70315">
        <ele>191</ele>
        <time>2017-12-23T10:35:07Z</time>
      </trkpt>
      <trkpt lat="46.03383" lon="4.70313">
        <ele>191</ele>
        <time>2017-12-23T10:35:08Z</time>
      </trkpt>
      <trkpt lat="46.03388" lon="4.70311">
        <ele>191</ele>
        <time>2017-12-23T10:35:09Z</time>
      </trkpt>
      <trkpt lat="46.03394" lon="4.70308">
        <ele>190</ele>
        <time>2017-12-23T10:35:10Z</time>
      </trkpt>
      <trkpt lat="46.03399" lon="4.70306">
        <ele>190</ele>
        <time>2017-12-23T10:35:11Z</time>
      </trkpt>
      <trkpt lat="46.03405" lon="4.70305">
        <ele>190</ele>
        <time>2017-12-23T10:35:12Z</time>
      </trkpt>
      <trkpt lat="46.03411" lon="4.70303">
        <ele>190</ele>
        <time>2017-12-23T10:35:13Z</time>
      </trkpt>
      <trkpt lat="46.03416" lon="4.703">
        <ele>190</ele>
        <time>2017-12-23T10:35:14Z</time>
      </trkpt>
      <trkpt lat="46.03421" lon="4.70299">
        <ele>188</ele>
        <time>2017-12-23T10:35:15Z</time>
      </trkpt>
      <trkpt lat="46.03426" lon="4.70297">
        <ele>188</ele>
        <time>2017-12-23T10:35:16Z</time>
      </trkpt>
      <trkpt lat="46.03432" lon="4.70294">
        <ele>188</ele>
        <time>2017-12-23T10:35:17Z</time>
      </trkpt>
      <trkpt lat="46.03437" lon="4.70292">
        <ele>188</ele>
        <time>2017-12-23T10:35:18Z</time>
      </trkpt>
      <trkpt lat="46.03443" lon="4.7029">
        <ele>188</ele>
        <time>2017-12-23T10:35:19Z</time>
      </trkpt>
      <trkpt lat="46.0345" lon="4.70288">
        <ele>188</ele>
        <time>2017-12-23T10:35:20Z</time>
      </trkpt>
      <trkpt lat="46.03456" lon="4.70286">
        <ele>188</ele>
        <time>2017-12-23T10:35:21Z</time>
      </trkpt>
      <trkpt lat="46.03461" lon="4.70284">
        <ele>188</ele>
        <time>2017-12-23T10:35:22Z</time>
      </trkpt>
      <trkpt lat="46.03468" lon="4.70281">
        <ele>188</ele>
        <time>2017-12-23T10:35:23Z</time>
      </trkpt>
      <trkpt lat="46.03474" lon="4.70279">
        <ele>188</ele>
        <time>2017-12-23T10:35:24Z</time>
      </trkpt>
      <trkpt lat="46.03479" lon="4.70277">
        <ele>188</ele>
        <time>2017-12-23T10:35:25Z</time>
      </trkpt>
      <trkpt lat="46.03485" lon="4.70275">
        <ele>188</ele>
        <time>2017-12-23T10:35:26Z</time>
      </trkpt>
      <trkpt lat="46.03491" lon="4.70272">
        <ele>188</ele>
        <time>2017-12-23T10:35:27Z</time>
      </trkpt>
      <trkpt lat="46.03495" lon="4.70269">
        <ele>187</ele>
        <time>2017-12-23T10:35:28Z</time>
      </trkpt>
      <trkpt lat="46.03501" lon="4.70268">
        <ele>187</ele>
        <time>2017-12-23T10:35:29Z</time>
      </trkpt>
      <trkpt lat="46.03506" lon="4.70266">
        <ele>187</ele>
        <time>2017-12-23T10:35:30Z</time>
      </trkpt>
      <trkpt lat="46.03512" lon="4.70263">
        <ele>187</ele>
        <time>2017-12-23T10:35:31Z</time>
      </trkpt>
      <trkpt lat="46.03518" lon="4.7026">
        <ele>187</ele>
        <time>2017-12-23T10:35:32Z</time>
      </trkpt>
      <trkpt lat="46.03522" lon="4.70258">
        <ele>187</ele>
        <time>2017-12-23T10:35:33Z</time>
      </trkpt>
      <trkpt lat="46.0353" lon="4.70255">
        <ele>187</ele>
        <time>2017-12-23T10:35:36Z</time>
      </trkpt>
      <trkpt lat="46.03531" lon="4.70255">
        <ele>187</ele>
        <time>2017-12-23T10:35:37Z</time>
      </trkpt>
      <trkpt lat="46.03528" lon="4.70262">
        <ele>187</ele>
        <time>2017-12-23T10:36:09Z</time>
      </trkpt>
      <trkpt lat="46.03528" lon="4.70262">
        <ele>187</ele>
        <time>2017-12-23T10:36:10Z</time>
      </trkpt>
      <trkpt lat="46.03523" lon="4.70268">
        <ele>187</ele>
        <time>2017-12-23T10:37:19Z</time>
      </trkpt>
      <trkpt lat="46.03523" lon="4.70268">
        <ele>187</ele>
        <time>2017-12-23T10:37:20Z</time>
      </trkpt>
      <trkpt lat="46.03529" lon="4.7026">
        <ele>187</ele>
        <time>2017-12-23T10:37:39Z</time>
      </trkpt>
      <trkpt lat="46.03529" lon="4.70259">
        <ele>187</ele>
        <time>2017-12-23T10:37:40Z</time>
      </trkpt>
      <trkpt lat="46.03536" lon="4.70257">
        <ele>188</ele>
        <time>2017-12-23T10:37:44Z</time>
      </trkpt>
      <trkpt lat="46.03538" lon="4.70257">
        <ele>188</ele>
        <time>2017-12-23T10:37:45Z</time>
      </trkpt>
      <trkpt lat="46.03546" lon="4.70255">
        <ele>188</ele>
        <time>2017-12-23T10:37:48Z</time>
      </trkpt>
      <trkpt lat="46.03549" lon="4.70254">
        <ele>188</ele>
        <time>2017-12-23T10:37:49Z</time>
      </trkpt>
      <trkpt lat="46.03557" lon="4.7025">
        <ele>190</ele>
        <time>2017-12-23T10:37:51Z</time>
      </trkpt>
      <trkpt lat="46.0356" lon="4.70248">
        <ele>190</ele>
        <time>2017-12-23T10:37:52Z</time>
      </trkpt>
      <trkpt lat="46.03568" lon="4.70245">
        <ele>190</ele>
        <time>2017-12-23T10:37:54Z</time>
      </trkpt>
      <trkpt lat="46.03572" lon="4.70244">
        <ele>190</ele>
        <time>2017-12-23T10:37:55Z</time>
      </trkpt>
      <trkpt lat="46.03576" lon="4.70243">
        <ele>190</ele>
        <time>2017-12-23T10:37:56Z</time>
      </trkpt>
      <trkpt lat="46.03581" lon="4.70242">
        <ele>190</ele>
        <time>2017-12-23T10:37:57Z</time>
      </trkpt>
      <trkpt lat="46.0359" lon="4.70242">
        <ele>190</ele>
        <time>2017-12-23T10:37:59Z</time>
      </trkpt>
      <trkpt lat="46.03596" lon="4.70239">
        <ele>190</ele>
        <time>2017-12-23T10:38:00Z</time>
      </trkpt>
      <trkpt lat="46.03602" lon="4.70235">
        <ele>190</ele>
        <time>2017-12-23T10:38:02Z</time>
      </trkpt>
      <trkpt lat="46.03604" lon="4.70234">
        <ele>190</ele>
        <time>2017-12-23T10:38:03Z</time>
      </trkpt>
      <trkpt lat="46.03611" lon="4.70232">
        <ele>190</ele>
        <time>2017-12-23T10:38:05Z</time>
      </trkpt>
      <trkpt lat="46.03616" lon="4.7023">
        <ele>190</ele>
        <time>2017-12-23T10:38:06Z</time>
      </trkpt>
      <trkpt lat="46.03623" lon="4.7023">
        <ele>190</ele>
        <time>2017-12-23T10:38:07Z</time>
      </trkpt>
      <trkpt lat="46.03629" lon="4.70227">
        <ele>190</ele>
        <time>2017-12-23T10:38:08Z</time>
      </trkpt>
      <trkpt lat="46.03636" lon="4.70222">
        <ele>190</ele>
        <time>2017-12-23T10:38:09Z</time>
      </trkpt>
      <trkpt lat="46.03641" lon="4.7022">
        <ele>190</ele>
        <time>2017-12-23T10:38:10Z</time>
      </trkpt>
      <trkpt lat="46.03646" lon="4.70219">
        <ele>190</ele>
        <time>2017-12-23T10:38:11Z</time>
      </trkpt>
      <trkpt lat="46.03651" lon="4.70215">
        <ele>190</ele>
        <time>2017-12-23T10:38:12Z</time>
      </trkpt>
      <trkpt lat="46.03656" lon="4.70213">
        <ele>190</ele>
        <time>2017-12-23T10:38:13Z</time>
      </trkpt>
      <trkpt lat="46.03662" lon="4.7021">
        <ele>190</ele>
        <time>2017-12-23T10:38:14Z</time>
      </trkpt>
      <trkpt lat="46.0367" lon="4.70206">
        <ele>189</ele>
        <time>2017-12-23T10:38:16Z</time>
      </trkpt>
      <trkpt lat="46.03676" lon="4.70203">
        <ele>189</ele>
        <time>2017-12-23T10:38:17Z</time>
      </trkpt>
      <trkpt lat="46.03681" lon="4.70201">
        <ele>189</ele>
        <time>2017-12-23T10:38:18Z</time>
      </trkpt>
      <trkpt lat="46.03687" lon="4.70199">
        <ele>189</ele>
        <time>2017-12-23T10:38:19Z</time>
      </trkpt>
      <trkpt lat="46.03692" lon="4.70198">
        <ele>189</ele>
        <time>2017-12-23T10:38:20Z</time>
      </trkpt>
      <trkpt lat="46.03699" lon="4.70193">
        <ele>189</ele>
        <time>2017-12-23T10:38:21Z</time>
      </trkpt>
      <trkpt lat="46.03705" lon="4.70192">
        <ele>188</ele>
        <time>2017-12-23T10:38:22Z</time>
      </trkpt>
      <trkpt lat="46.0371" lon="4.7019">
        <ele>188</ele>
        <time>2017-12-23T10:38:23Z</time>
      </trkpt>
      <trkpt lat="46.03716" lon="4.70187">
        <ele>188</ele>
        <time>2017-12-23T10:38:24Z</time>
      </trkpt>
      <trkpt lat="46.03722" lon="4.70185">
        <ele>188</ele>
        <time>2017-12-23T10:38:25Z</time>
      </trkpt>
      <trkpt lat="46.03726" lon="4.70183">
        <ele>188</ele>
        <time>2017-12-23T10:38:26Z</time>
      </trkpt>
      <trkpt lat="46.03731" lon="4.70181">
        <ele>188</ele>
        <time>2017-12-23T10:38:27Z</time>
      </trkpt>
      <trkpt lat="46.03736" lon="4.70179">
        <ele>188</ele>
        <time>2017-12-23T10:38:28Z</time>
      </trkpt>
      <trkpt lat="46.03741" lon="4.70178">
        <ele>188</ele>
        <time>2017-12-23T10:38:29Z</time>
      </trkpt>
      <trkpt lat="46.03746" lon="4.70176">
        <ele>187</ele>
        <time>2017-12-23T10:38:30Z</time>
      </trkpt>
      <trkpt lat="46.03753" lon="4.70175">
        <ele>188</ele>
        <time>2017-12-23T10:38:31Z</time>
      </trkpt>
      <trkpt lat="46.03761" lon="4.70172">
        <ele>188</ele>
        <time>2017-12-23T10:38:33Z</time>
      </trkpt>
      <trkpt lat="46.03767" lon="4.7017">
        <ele>188</ele>
        <time>2017-12-23T10:38:34Z</time>
      </trkpt>
      <trkpt lat="46.03773" lon="4.70168">
        <ele>189</ele>
        <time>2017-12-23T10:38:35Z</time>
      </trkpt>
      <trkpt lat="46.03778" lon="4.70166">
        <ele>189</ele>
        <time>2017-12-23T10:38:36Z</time>
      </trkpt>
      <trkpt lat="46.03783" lon="4.70163">
        <ele>189</ele>
        <time>2017-12-23T10:38:37Z</time>
      </trkpt>
      <trkpt lat="46.03787" lon="4.70162">
        <ele>189</ele>
        <time>2017-12-23T10:38:38Z</time>
      </trkpt>
      <trkpt lat="46.03796" lon="4.7016">
        <ele>189</ele>
        <time>2017-12-23T10:38:40Z</time>
      </trkpt>
      <trkpt lat="46.03801" lon="4.70158">
        <ele>190</ele>
        <time>2017-12-23T10:38:41Z</time>
      </trkpt>
      <trkpt lat="46.03807" lon="4.70154">
        <ele>190</ele>
        <time>2017-12-23T10:38:43Z</time>
      </trkpt>
      <trkpt lat="46.03811" lon="4.70152">
        <ele>190</ele>
        <time>2017-12-23T10:38:44Z</time>
      </trkpt>
      <trkpt lat="46.03818" lon="4.70148">
        <ele>190</ele>
        <time>2017-12-23T10:38:46Z</time>
      </trkpt>
      <trkpt lat="46.03822" lon="4.70146">
        <ele>190</ele>
        <time>2017-12-23T10:38:47Z</time>
      </trkpt>
      <trkpt lat="46.0383" lon="4.70141">
        <ele>190</ele>
        <time>2017-12-23T10:38:49Z</time>
      </trkpt>
      <trkpt lat="46.03834" lon="4.7014">
        <ele>192</ele>
        <time>2017-12-23T10:38:50Z</time>
      </trkpt>
      <trkpt lat="46.03838" lon="4.70139">
        <ele>192</ele>
        <time>2017-12-23T10:38:51Z</time>
      </trkpt>
      <trkpt lat="46.03842" lon="4.70137">
        <ele>192</ele>
        <time>2017-12-23T10:38:52Z</time>
      </trkpt>
      <trkpt lat="46.03846" lon="4.70135">
        <ele>192</ele>
        <time>2017-12-23T10:38:53Z</time>
      </trkpt>
      <trkpt lat="46.03851" lon="4.70133">
        <ele>192</ele>
        <time>2017-12-23T10:38:54Z</time>
      </trkpt>
      <trkpt lat="46.03859" lon="4.70129">
        <ele>193</ele>
        <time>2017-12-23T10:38:56Z</time>
      </trkpt>
      <trkpt lat="46.03864" lon="4.70127">
        <ele>193</ele>
        <time>2017-12-23T10:38:57Z</time>
      </trkpt>
      <trkpt lat="46.03872" lon="4.70122">
        <ele>193</ele>
        <time>2017-12-23T10:38:59Z</time>
      </trkpt>
      <trkpt lat="46.03879" lon="4.70121">
        <ele>193</ele>
        <time>2017-12-23T10:39:00Z</time>
      </trkpt>
      <trkpt lat="46.03885" lon="4.70121">
        <ele>193</ele>
        <time>2017-12-23T10:39:01Z</time>
      </trkpt>
      <trkpt lat="46.03889" lon="4.70118">
        <ele>193</ele>
        <time>2017-12-23T10:39:02Z</time>
      </trkpt>
      <trkpt lat="46.03895" lon="4.70118">
        <ele>194</ele>
        <time>2017-12-23T10:39:03Z</time>
      </trkpt>
      <trkpt lat="46.03903" lon="4.70119">
        <ele>194</ele>
        <time>2017-12-23T10:39:04Z</time>
      </trkpt>
      <trkpt lat="46.03909" lon="4.70116">
        <ele>194</ele>
        <time>2017-12-23T10:39:06Z</time>
      </trkpt>
      <trkpt lat="46.03913" lon="4.70114">
        <ele>194</ele>
        <time>2017-12-23T10:39:07Z</time>
      </trkpt>
      <trkpt lat="46.0392" lon="4.70115">
        <ele>196</ele>
        <time>2017-12-23T10:39:08Z</time>
      </trkpt>
      <trkpt lat="46.03923" lon="4.70112">
        <ele>196</ele>
        <time>2017-12-23T10:39:09Z</time>
      </trkpt>
      <trkpt lat="46.03931" lon="4.70109">
        <ele>196</ele>
        <time>2017-12-23T10:39:11Z</time>
      </trkpt>
      <trkpt lat="46.03936" lon="4.70108">
        <ele>196</ele>
        <time>2017-12-23T10:39:12Z</time>
      </trkpt>
      <trkpt lat="46.03942" lon="4.70105">
        <ele>196</ele>
        <time>2017-12-23T10:39:14Z</time>
      </trkpt>
      <trkpt lat="46.03946" lon="4.70104">
        <ele>196</ele>
        <time>2017-12-23T10:39:15Z</time>
      </trkpt>
      <trkpt lat="46.03954" lon="4.701">
        <ele>196</ele>
        <time>2017-12-23T10:39:17Z</time>
      </trkpt>
      <trkpt lat="46.03958" lon="4.70099">
        <ele>196</ele>
        <time>2017-12-23T10:39:18Z</time>
      </trkpt>
      <trkpt lat="46.03966" lon="4.70098">
        <ele>196</ele>
        <time>2017-12-23T10:39:20Z</time>
      </trkpt>
      <trkpt lat="46.03969" lon="4.70097">
        <ele>196</ele>
        <time>2017-12-23T10:39:21Z</time>
      </trkpt>
      <trkpt lat="46.03976" lon="4.70095">
        <ele>196</ele>
        <time>2017-12-23T10:39:23Z</time>
      </trkpt>
      <trkpt lat="46.0398" lon="4.70095">
        <ele>196</ele>
        <time>2017-12-23T10:39:24Z</time>
      </trkpt>
      <trkpt lat="46.03987" lon="4.70093">
        <ele>196</ele>
        <time>2017-12-23T10:39:26Z</time>
      </trkpt>
      <trkpt lat="46.03991" lon="4.70093">
        <ele>196</ele>
        <time>2017-12-23T10:39:27Z</time>
      </trkpt>
      <trkpt lat="46.03998" lon="4.70092">
        <ele>196</ele>
        <time>2017-12-23T10:39:29Z</time>
      </trkpt>
      <trkpt lat="46.04001" lon="4.70091">
        <ele>196</ele>
        <time>2017-12-23T10:39:30Z</time>
      </trkpt>
      <trkpt lat="46.04009" lon="4.7009">
        <ele>196</ele>
        <time>2017-12-23T10:39:33Z</time>
      </trkpt>
      <trkpt lat="46.04012" lon="4.70089">
        <ele>196</ele>
        <time>2017-12-23T10:39:34Z</time>
      </trkpt>
      <trkpt lat="46.04019" lon="4.70088">
        <ele>195</ele>
        <time>2017-12-23T10:39:36Z</time>
      </trkpt>
      <trkpt lat="46.04022" lon="4.70087">
        <ele>195</ele>
        <time>2017-12-23T10:39:37Z</time>
      </trkpt>
      <trkpt lat="46.04031" lon="4.70086">
        <ele>195</ele>
        <time>2017-12-23T10:39:39Z</time>
      </trkpt>
      <trkpt lat="46.04035" lon="4.70085">
        <ele>195</ele>
        <time>2017-12-23T10:39:40Z</time>
      </trkpt>
      <trkpt lat="46.04045" lon="4.70087">
        <ele>195</ele>
        <time>2017-12-23T10:39:41Z</time>
      </trkpt>
      <trkpt lat="46.04051" lon="4.70085">
        <ele>195</ele>
        <time>2017-12-23T10:39:42Z</time>
      </trkpt>
      <trkpt lat="46.04057" lon="4.70085">
        <ele>195</ele>
        <time>2017-12-23T10:39:43Z</time>
      </trkpt>
      <trkpt lat="46.04061" lon="4.70084">
        <ele>195</ele>
        <time>2017-12-23T10:39:44Z</time>
      </trkpt>
      <trkpt lat="46.04067" lon="4.70083">
        <ele>194</ele>
        <time>2017-12-23T10:39:45Z</time>
      </trkpt>
      <trkpt lat="46.04072" lon="4.70081">
        <ele>194</ele>
        <time>2017-12-23T10:39:46Z</time>
      </trkpt>
      <trkpt lat="46.0408" lon="4.70077">
        <ele>194</ele>
        <time>2017-12-23T10:39:47Z</time>
      </trkpt>
      <trkpt lat="46.04085" lon="4.70076">
        <ele>194</ele>
        <time>2017-12-23T10:39:49Z</time>
      </trkpt>
      <trkpt lat="46.0409" lon="4.70074">
        <ele>193</ele>
        <time>2017-12-23T10:39:50Z</time>
      </trkpt>
      <trkpt lat="46.04095" lon="4.70072">
        <ele>193</ele>
        <time>2017-12-23T10:39:51Z</time>
      </trkpt>
      <trkpt lat="46.041" lon="4.7007">
        <ele>193</ele>
        <time>2017-12-23T10:39:52Z</time>
      </trkpt>
      <trkpt lat="46.04105" lon="4.70068">
        <ele>193</ele>
        <time>2017-12-23T10:39:53Z</time>
      </trkpt>
      <trkpt lat="46.04111" lon="4.70065">
        <ele>192</ele>
        <time>2017-12-23T10:39:54Z</time>
      </trkpt>
      <trkpt lat="46.04119" lon="4.7006">
        <ele>192</ele>
        <time>2017-12-23T10:39:55Z</time>
      </trkpt>
      <trkpt lat="46.04127" lon="4.70055">
        <ele>192</ele>
        <time>2017-12-23T10:39:57Z</time>
      </trkpt>
      <trkpt lat="46.04132" lon="4.70051">
        <ele>192</ele>
        <time>2017-12-23T10:39:58Z</time>
      </trkpt>
      <trkpt lat="46.04135" lon="4.70046">
        <ele>192</ele>
        <time>2017-12-23T10:40:00Z</time>
      </trkpt>
      <trkpt lat="46.04141" lon="4.70043">
        <ele>192</ele>
        <time>2017-12-23T10:40:01Z</time>
      </trkpt>
      <trkpt lat="46.04146" lon="4.70041">
        <ele>191</ele>
        <time>2017-12-23T10:40:02Z</time>
      </trkpt>
      <trkpt lat="46.04152" lon="4.70039">
        <ele>191</ele>
        <time>2017-12-23T10:40:03Z</time>
      </trkpt>
      <trkpt lat="46.04159" lon="4.70036">
        <ele>191</ele>
        <time>2017-12-23T10:40:05Z</time>
      </trkpt>
      <trkpt lat="46.04163" lon="4.70034">
        <ele>191</ele>
        <time>2017-12-23T10:40:06Z</time>
      </trkpt>
      <trkpt lat="46.04167" lon="4.70029">
        <ele>189</ele>
        <time>2017-12-23T10:40:07Z</time>
      </trkpt>
      <trkpt lat="46.04175" lon="4.70025">
        <ele>189</ele>
        <time>2017-12-23T10:40:08Z</time>
      </trkpt>
      <trkpt lat="46.04181" lon="4.70019">
        <ele>189</ele>
        <time>2017-12-23T10:40:09Z</time>
      </trkpt>
      <trkpt lat="46.04187" lon="4.70018">
        <ele>189</ele>
        <time>2017-12-23T10:40:10Z</time>
      </trkpt>
      <trkpt lat="46.04194" lon="4.70014">
        <ele>188</ele>
        <time>2017-12-23T10:40:11Z</time>
      </trkpt>
      <trkpt lat="46.04199" lon="4.70011">
        <ele>188</ele>
        <time>2017-12-23T10:40:12Z</time>
      </trkpt>
      <trkpt lat="46.04207" lon="4.70007">
        <ele>188</ele>
        <time>2017-12-23T10:40:14Z</time>
      </trkpt>
      <trkpt lat="46.04213" lon="4.70003">
        <ele>188</ele>
        <time>2017-12-23T10:40:15Z</time>
      </trkpt>
      <trkpt lat="46.04221" lon="4.69998">
        <ele>188</ele>
        <time>2017-12-23T10:40:17Z</time>
      </trkpt>
      <trkpt lat="46.04223" lon="4.69996">
        <ele>188</ele>
        <time>2017-12-23T10:40:18Z</time>
      </trkpt>
      <trkpt lat="46.04227" lon="4.69994">
        <ele>188</ele>
        <time>2017-12-23T10:40:19Z</time>
      </trkpt>
      <trkpt lat="46.04232" lon="4.69989">
        <ele>188</ele>
        <time>2017-12-23T10:40:20Z</time>
      </trkpt>
      <trkpt lat="46.04236" lon="4.69985">
        <ele>188</ele>
        <time>2017-12-23T10:40:21Z</time>
      </trkpt>
      <trkpt lat="46.0424" lon="4.69982">
        <ele>188</ele>
        <time>2017-12-23T10:40:22Z</time>
      </trkpt>
      <trkpt lat="46.04243" lon="4.69978">
        <ele>188</ele>
        <time>2017-12-23T10:40:23Z</time>
      </trkpt>
      <trkpt lat="46.04248" lon="4.69973">
        <ele>188</ele>
        <time>2017-12-23T10:40:24Z</time>
      </trkpt>
      <trkpt lat="46.04253" lon="4.69969">
        <ele>188</ele>
        <time>2017-12-23T10:40:25Z</time>
      </trkpt>
      <trkpt lat="46.04257" lon="4.69965">
        <ele>188</ele>
        <time>2017-12-23T10:40:26Z</time>
      </trkpt>
      <trkpt lat="46.04261" lon="4.6996">
        <ele>188</ele>
        <time>2017-12-23T10:40:27Z</time>
      </trkpt>
      <trkpt lat="46.04265" lon="4.69957">
        <ele>188</ele>
        <time>2017-12-23T10:40:28Z</time>
      </trkpt>
      <trkpt lat="46.04269" lon="4.69953">
        <ele>188</ele>
        <time>2017-12-23T10:40:29Z</time>
      </trkpt>
      <trkpt lat="46.04273" lon="4.69949">
        <ele>189</ele>
        <time>2017-12-23T10:40:30Z</time>
      </trkpt>
      <trkpt lat="46.04277" lon="4.69945">
        <ele>189</ele>
        <time>2017-12-23T10:40:31Z</time>
      </trkpt>
      <trkpt lat="46.04281" lon="4.69942">
        <ele>189</ele>
        <time>2017-12-23T10:40:32Z</time>
      </trkpt>
      <trkpt lat="46.04285" lon="4.69939">
        <ele>189</ele>
        <time>2017-12-23T10:40:33Z</time>
      </trkpt>
      <trkpt lat="46.04289" lon="4.69936">
        <ele>189</ele>
        <time>2017-12-23T10:40:34Z</time>
      </trkpt>
      <trkpt lat="46.04293" lon="4.69931">
        <ele>189</ele>
        <time>2017-12-23T10:40:35Z</time>
      </trkpt>
      <trkpt lat="46.04297" lon="4.69927">
        <ele>189</ele>
        <time>2017-12-23T10:40:36Z</time>
      </trkpt>
      <trkpt lat="46.043" lon="4.69923">
        <ele>189</ele>
        <time>2017-12-23T10:40:37Z</time>
      </trkpt>
      <trkpt lat="46.04304" lon="4.69918">
        <ele>189</ele>
        <time>2017-12-23T10:40:38Z</time>
      </trkpt>
      <trkpt lat="46.04307" lon="4.69913">
        <ele>190</ele>
        <time>2017-12-23T10:40:39Z</time>
      </trkpt>
      <trkpt lat="46.04311" lon="4.69908">
        <ele>190</ele>
        <time>2017-12-23T10:40:40Z</time>
      </trkpt>
      <trkpt lat="46.04318" lon="4.69901">
        <ele>190</ele>
        <time>2017-12-23T10:40:42Z</time>
      </trkpt>
      <trkpt lat="46.04321" lon="4.69897">
        <ele>190</ele>
        <time>2017-12-23T10:40:43Z</time>
      </trkpt>
      <trkpt lat="46.04326" lon="4.69887">
        <ele>190</ele>
        <time>2017-12-23T10:40:45Z</time>
      </trkpt>
      <trkpt lat="46.04329" lon="4.69884">
        <ele>190</ele>
        <time>2017-12-23T10:40:46Z</time>
      </trkpt>
      <trkpt lat="46.04332" lon="4.69878">
        <ele>191</ele>
        <time>2017-12-23T10:40:47Z</time>
      </trkpt>
      <trkpt lat="46.04335" lon="4.69873">
        <ele>192</ele>
        <time>2017-12-23T10:40:48Z</time>
      </trkpt>
      <trkpt lat="46.04338" lon="4.69868">
        <ele>193</ele>
        <time>2017-12-23T10:40:49Z</time>
      </trkpt>
      <trkpt lat="46.04341" lon="4.69863">
        <ele>193</ele>
        <time>2017-12-23T10:40:50Z</time>
      </trkpt>
      <trkpt lat="46.04346" lon="4.69853">
        <ele>193</ele>
        <time>2017-12-23T10:40:52Z</time>
      </trkpt>
      <trkpt lat="46.0435" lon="4.69848">
        <ele>193</ele>
        <time>2017-12-23T10:40:53Z</time>
      </trkpt>
      <trkpt lat="46.04356" lon="4.69843">
        <ele>193</ele>
        <time>2017-12-23T10:40:55Z</time>
      </trkpt>
      <trkpt lat="46.04359" lon="4.6984">
        <ele>193</ele>
        <time>2017-12-23T10:40:56Z</time>
      </trkpt>
      <trkpt lat="46.04367" lon="4.69836">
        <ele>193</ele>
        <time>2017-12-23T10:40:58Z</time>
      </trkpt>
      <trkpt lat="46.04371" lon="4.69834">
        <ele>193</ele>
        <time>2017-12-23T10:40:59Z</time>
      </trkpt>
      <trkpt lat="46.04378" lon="4.6983">
        <ele>194</ele>
        <time>2017-12-23T10:41:01Z</time>
      </trkpt>
      <trkpt lat="46.04382" lon="4.69828">
        <ele>194</ele>
        <time>2017-12-23T10:41:02Z</time>
      </trkpt>
      <trkpt lat="46.0439" lon="4.69825">
        <ele>194</ele>
        <time>2017-12-23T10:41:04Z</time>
      </trkpt>
      <trkpt lat="46.04393" lon="4.69823">
        <ele>194</ele>
        <time>2017-12-23T10:41:05Z</time>
      </trkpt>
      <trkpt lat="46.04401" lon="4.69818">
        <ele>194</ele>
        <time>2017-12-23T10:41:07Z</time>
      </trkpt>
      <trkpt lat="46.04405" lon="4.69816">
        <ele>194</ele>
        <time>2017-12-23T10:41:08Z</time>
      </trkpt>
      <trkpt lat="46.04412" lon="4.69814">
        <ele>194</ele>
        <time>2017-12-23T10:41:10Z</time>
      </trkpt>
      <trkpt lat="46.04416" lon="4.69813">
        <ele>194</ele>
        <time>2017-12-23T10:41:11Z</time>
      </trkpt>
      <trkpt lat="46.04423" lon="4.69812">
        <ele>196</ele>
        <time>2017-12-23T10:41:13Z</time>
      </trkpt>
      <trkpt lat="46.04427" lon="4.69811">
        <ele>196</ele>
        <time>2017-12-23T10:41:14Z</time>
      </trkpt>
      <trkpt lat="46.04434" lon="4.69808">
        <ele>196</ele>
        <time>2017-12-23T10:41:16Z</time>
      </trkpt>
      <trkpt lat="46.04437" lon="4.69806">
        <ele>196</ele>
        <time>2017-12-23T10:41:17Z</time>
      </trkpt>
      <trkpt lat="46.04444" lon="4.69803">
        <ele>196</ele>
        <time>2017-12-23T10:41:19Z</time>
      </trkpt>
      <trkpt lat="46.04448" lon="4.69802">
        <ele>196</ele>
        <time>2017-12-23T10:41:20Z</time>
      </trkpt>
      <trkpt lat="46.04455" lon="4.69801">
        <ele>196</ele>
        <time>2017-12-23T10:41:22Z</time>
      </trkpt>
      <trkpt lat="46.04459" lon="4.69801">
        <ele>197</ele>
        <time>2017-12-23T10:41:23Z</time>
      </trkpt>
      <trkpt lat="46.04466" lon="4.69801">
        <ele>197</ele>
        <time>2017-12-23T10:41:25Z</time>
      </trkpt>
      <trkpt lat="46.0447" lon="4.698">
        <ele>197</ele>
        <time>2017-12-23T10:41:26Z</time>
      </trkpt>
      <trkpt lat="46.04478" lon="4.69798">
        <ele>197</ele>
        <time>2017-12-23T10:41:28Z</time>
      </trkpt>
      <trkpt lat="46.04481" lon="4.69797">
        <ele>197</ele>
        <time>2017-12-23T10:41:29Z</time>
      </trkpt>
      <trkpt lat="46.04489" lon="4.69795">
        <ele>197</ele>
        <time>2017-12-23T10:41:31Z</time>
      </trkpt>
      <trkpt lat="46.04493" lon="4.69794">
        <ele>197</ele>
        <time>2017-12-23T10:41:32Z</time>
      </trkpt>
      <trkpt lat="46.04501" lon="4.69792">
        <ele>199</ele>
        <time>2017-12-23T10:41:34Z</time>
      </trkpt>
      <trkpt lat="46.04505" lon="4.69791">
        <ele>199</ele>
        <time>2017-12-23T10:41:35Z</time>
      </trkpt>
      <trkpt lat="46.04513" lon="4.6979">
        <ele>199</ele>
        <time>2017-12-23T10:41:37Z</time>
      </trkpt>
      <trkpt lat="46.04517" lon="4.69789">
        <ele>199</ele>
        <time>2017-12-23T10:41:38Z</time>
      </trkpt>
      <trkpt lat="46.04525" lon="4.69789">
        <ele>199</ele>
        <time>2017-12-23T10:41:40Z</time>
      </trkpt>
      <trkpt lat="46.04528" lon="4.69789">
        <ele>199</ele>
        <time>2017-12-23T10:41:41Z</time>
      </trkpt>
      <trkpt lat="46.04535" lon="4.69789">
        <ele>199</ele>
        <time>2017-12-23T10:41:43Z</time>
      </trkpt>
      <trkpt lat="46.04539" lon="4.69789">
        <ele>199</ele>
        <time>2017-12-23T10:41:44Z</time>
      </trkpt>
      <trkpt lat="46.04546" lon="4.6979">
        <ele>199</ele>
        <time>2017-12-23T10:41:46Z</time>
      </trkpt>
      <trkpt lat="46.0455" lon="4.69791">
        <ele>199</ele>
        <time>2017-12-23T10:41:47Z</time>
      </trkpt>
      <trkpt lat="46.04557" lon="4.69793">
        <ele>199</ele>
        <time>2017-12-23T10:41:49Z</time>
      </trkpt>
      <trkpt lat="46.04561" lon="4.69794">
        <ele>200</ele>
        <time>2017-12-23T10:41:50Z</time>
      </trkpt>
      <trkpt lat="46.04568" lon="4.69795">
        <ele>200</ele>
        <time>2017-12-23T10:41:52Z</time>
      </trkpt>
      <trkpt lat="46.04572" lon="4.69795">
        <ele>200</ele>
        <time>2017-12-23T10:41:53Z</time>
      </trkpt>
      <trkpt lat="46.0458" lon="4.69797">
        <ele>200</ele>
        <time>2017-12-23T10:41:55Z</time>
      </trkpt>
      <trkpt lat="46.04585" lon="4.69798">
        <ele>201</ele>
        <time>2017-12-23T10:41:56Z</time>
      </trkpt>
      <trkpt lat="46.04593" lon="4.69802">
        <ele>201</ele>
        <time>2017-12-23T10:41:58Z</time>
      </trkpt>
      <trkpt lat="46.04597" lon="4.69803">
        <ele>201</ele>
        <time>2017-12-23T10:41:59Z</time>
      </trkpt>
      <trkpt lat="46.04604" lon="4.69806">
        <ele>201</ele>
        <time>2017-12-23T10:42:01Z</time>
      </trkpt>
      <trkpt lat="46.04608" lon="4.69808">
        <ele>201</ele>
        <time>2017-12-23T10:42:02Z</time>
      </trkpt>
      <trkpt lat="46.04616" lon="4.69812">
        <ele>202</ele>
        <time>2017-12-23T10:42:04Z</time>
      </trkpt>
      <trkpt lat="46.0462" lon="4.69814">
        <ele>202</ele>
        <time>2017-12-23T10:42:05Z</time>
      </trkpt>
      <trkpt lat="46.04628" lon="4.69816">
        <ele>202</ele>
        <time>2017-12-23T10:42:07Z</time>
      </trkpt>
      <trkpt lat="46.04632" lon="4.69818">
        <ele>202</ele>
        <time>2017-12-23T10:42:08Z</time>
      </trkpt>
      <trkpt lat="46.0464" lon="4.69822">
        <ele>202</ele>
        <time>2017-12-23T10:42:10Z</time>
      </trkpt>
      <trkpt lat="46.04645" lon="4.69824">
        <ele>202</ele>
        <time>2017-12-23T10:42:11Z</time>
      </trkpt>
      <trkpt lat="46.04652" lon="4.69826">
        <ele>202</ele>
        <time>2017-12-23T10:42:13Z</time>
      </trkpt>
      <trkpt lat="46.04656" lon="4.69828">
        <ele>202</ele>
        <time>2017-12-23T10:42:14Z</time>
      </trkpt>
      <trkpt lat="46.04664" lon="4.69831">
        <ele>203</ele>
        <time>2017-12-23T10:42:16Z</time>
      </trkpt>
      <trkpt lat="46.04667" lon="4.69832">
        <ele>203</ele>
        <time>2017-12-23T10:42:17Z</time>
      </trkpt>
      <trkpt lat="46.04676" lon="4.69834">
        <ele>203</ele>
        <time>2017-12-23T10:42:19Z</time>
      </trkpt>
      <trkpt lat="46.0468" lon="4.69836">
        <ele>203</ele>
        <time>2017-12-23T10:42:20Z</time>
      </trkpt>
      <trkpt lat="46.04689" lon="4.69839">
        <ele>202</ele>
        <time>2017-12-23T10:42:22Z</time>
      </trkpt>
      <trkpt lat="46.04693" lon="4.6984">
        <ele>202</ele>
        <time>2017-12-23T10:42:23Z</time>
      </trkpt>
      <trkpt lat="46.04701" lon="4.69842">
        <ele>202</ele>
        <time>2017-12-23T10:42:25Z</time>
      </trkpt>
      <trkpt lat="46.04705" lon="4.69843">
        <ele>202</ele>
        <time>2017-12-23T10:42:26Z</time>
      </trkpt>
      <trkpt lat="46.04713" lon="4.69843">
        <ele>203</ele>
        <time>2017-12-23T10:42:28Z</time>
      </trkpt>
      <trkpt lat="46.04716" lon="4.69843">
        <ele>203</ele>
        <time>2017-12-23T10:42:29Z</time>
      </trkpt>
      <trkpt lat="46.04724" lon="4.69845">
        <ele>203</ele>
        <time>2017-12-23T10:42:31Z</time>
      </trkpt>
      <trkpt lat="46.04727" lon="4.69845">
        <ele>203</ele>
        <time>2017-12-23T10:42:32Z</time>
      </trkpt>
      <trkpt lat="46.04735" lon="4.69845">
        <ele>203</ele>
        <time>2017-12-23T10:42:34Z</time>
      </trkpt>
      <trkpt lat="46.04739" lon="4.69844">
        <ele>204</ele>
        <time>2017-12-23T10:42:35Z</time>
      </trkpt>
      <trkpt lat="46.04747" lon="4.69843">
        <ele>204</ele>
        <time>2017-12-23T10:42:37Z</time>
      </trkpt>
      <trkpt lat="46.04751" lon="4.69843">
        <ele>205</ele>
        <time>2017-12-23T10:42:38Z</time>
      </trkpt>
      <trkpt lat="46.04759" lon="4.69842">
        <ele>205</ele>
        <time>2017-12-23T10:42:40Z</time>
      </trkpt>
      <trkpt lat="46.04762" lon="4.69842">
        <ele>205</ele>
        <time>2017-12-23T10:42:41Z</time>
      </trkpt>
      <trkpt lat="46.04769" lon="4.69843">
        <ele>205</ele>
        <time>2017-12-23T10:42:43Z</time>
      </trkpt>
      <trkpt lat="46.04773" lon="4.69844">
        <ele>204</ele>
        <time>2017-12-23T10:42:44Z</time>
      </trkpt>
      <trkpt lat="46.0478" lon="4.69845">
        <ele>204</ele>
        <time>2017-12-23T10:42:46Z</time>
      </trkpt>
      <trkpt lat="46.04784" lon="4.69845">
        <ele>205</ele>
        <time>2017-12-23T10:42:47Z</time>
      </trkpt>
      <trkpt lat="46.04791" lon="4.69845">
        <ele>205</ele>
        <time>2017-12-23T10:42:49Z</time>
      </trkpt>
      <trkpt lat="46.04795" lon="4.69846">
        <ele>205</ele>
        <time>2017-12-23T10:42:50Z</time>
      </trkpt>
      <trkpt lat="46.04802" lon="4.69846">
        <ele>205</ele>
        <time>2017-12-23T10:42:52Z</time>
      </trkpt>
      <trkpt lat="46.04805" lon="4.69844">
        <ele>205</ele>
        <time>2017-12-23T10:42:53Z</time>
      </trkpt>
      <trkpt lat="46.04808" lon="4.69833">
        <ele>206</ele>
        <time>2017-12-23T10:42:55Z</time>
      </trkpt>
      <trkpt lat="46.04807" lon="4.69826">
        <ele>206</ele>
        <time>2017-12-23T10:42:56Z</time>
      </trkpt>
      <trkpt lat="46.04809" lon="4.69815">
        <ele>206</ele>
        <time>2017-12-23T10:42:58Z</time>
      </trkpt>
      <trkpt lat="46.04812" lon="4.69811">
        <ele>206</ele>
        <time>2017-12-23T10:42:59Z</time>
      </trkpt>
      <trkpt lat="46.0482" lon="4.6981">
        <ele>207</ele>
        <time>2017-12-23T10:43:01Z</time>
      </trkpt>
      <trkpt lat="46.04824" lon="4.69812">
        <ele>207</ele>
        <time>2017-12-23T10:43:02Z</time>
      </trkpt>
      <trkpt lat="46.04831" lon="4.69814">
        <ele>207</ele>
        <time>2017-12-23T10:43:04Z</time>
      </trkpt>
      <trkpt lat="46.04835" lon="4.69816">
        <ele>207</ele>
        <time>2017-12-23T10:43:05Z</time>
      </trkpt>
      <trkpt lat="46.04843" lon="4.69819">
        <ele>207</ele>
        <time>2017-12-23T10:43:07Z</time>
      </trkpt>
      <trkpt lat="46.04848" lon="4.69819">
        <ele>207</ele>
        <time>2017-12-23T10:43:08Z</time>
      </trkpt>
      <trkpt lat="46.04853" lon="4.69822">
        <ele>207</ele>
        <time>2017-12-23T10:43:09Z</time>
      </trkpt>
      <trkpt lat="46.04858" lon="4.69823">
        <ele>207</ele>
        <time>2017-12-23T10:43:10Z</time>
      </trkpt>
      <trkpt lat="46.04866" lon="4.69828">
        <ele>207</ele>
        <time>2017-12-23T10:43:12Z</time>
      </trkpt>
      <trkpt lat="46.04871" lon="4.6983">
        <ele>207</ele>
        <time>2017-12-23T10:43:13Z</time>
      </trkpt>
      <trkpt lat="46.04877" lon="4.69836">
        <ele>206</ele>
        <time>2017-12-23T10:43:15Z</time>
      </trkpt>
      <trkpt lat="46.04881" lon="4.69839">
        <ele>206</ele>
        <time>2017-12-23T10:43:16Z</time>
      </trkpt>
      <trkpt lat="46.04888" lon="4.69845">
        <ele>206</ele>
        <time>2017-12-23T10:43:18Z</time>
      </trkpt>
      <trkpt lat="46.04892" lon="4.69847">
        <ele>206</ele>
        <time>2017-12-23T10:43:19Z</time>
      </trkpt>
      <trkpt lat="46.049" lon="4.69851">
        <ele>206</ele>
        <time>2017-12-23T10:43:21Z</time>
      </trkpt>
      <trkpt lat="46.04904" lon="4.69853">
        <ele>206</ele>
        <time>2017-12-23T10:43:22Z</time>
      </trkpt>
      <trkpt lat="46.04911" lon="4.69859">
        <ele>206</ele>
        <time>2017-12-23T10:43:24Z</time>
      </trkpt>
      <trkpt lat="46.04915" lon="4.6986">
        <ele>206</ele>
        <time>2017-12-23T10:43:25Z</time>
      </trkpt>
      <trkpt lat="46.04924" lon="4.69865">
        <ele>207</ele>
        <time>2017-12-23T10:43:27Z</time>
      </trkpt>
      <trkpt lat="46.04928" lon="4.69866">
        <ele>207</ele>
        <time>2017-12-23T10:43:28Z</time>
      </trkpt>
      <trkpt lat="46.04933" lon="4.69869">
        <ele>207</ele>
        <time>2017-12-23T10:43:29Z</time>
      </trkpt>
      <trkpt lat="46.04937" lon="4.69871">
        <ele>207</ele>
        <time>2017-12-23T10:43:30Z</time>
      </trkpt>
      <trkpt lat="46.04944" lon="4.69877">
        <ele>207</ele>
        <time>2017-12-23T10:43:32Z</time>
      </trkpt>
      <trkpt lat="46.04947" lon="4.69879">
        <ele>207</ele>
        <time>2017-12-23T10:43:33Z</time>
      </trkpt>
      <trkpt lat="46.04953" lon="4.69886">
        <ele>207</ele>
        <time>2017-12-23T10:43:35Z</time>
      </trkpt>
      <trkpt lat="46.04956" lon="4.69891">
        <ele>207</ele>
        <time>2017-12-23T10:43:36Z</time>
      </trkpt>
      <trkpt lat="46.0496" lon="4.69896">
        <ele>206</ele>
        <time>2017-12-23T10:43:37Z</time>
      </trkpt>
      <trkpt lat="46.04964" lon="4.699">
        <ele>206</ele>
        <time>2017-12-23T10:43:38Z</time>
      </trkpt>
      <trkpt lat="46.04968" lon="4.69904">
        <ele>206</ele>
        <time>2017-12-23T10:43:39Z</time>
      </trkpt>
      <trkpt lat="46.04971" lon="4.6991">
        <ele>206</ele>
        <time>2017-12-23T10:43:40Z</time>
      </trkpt>
      <trkpt lat="46.04976" lon="4.69915">
        <ele>206</ele>
        <time>2017-12-23T10:43:41Z</time>
      </trkpt>
      <trkpt lat="46.04979" lon="4.6992">
        <ele>206</ele>
        <time>2017-12-23T10:43:42Z</time>
      </trkpt>
      <trkpt lat="46.04982" lon="4.69925">
        <ele>206</ele>
        <time>2017-12-23T10:43:43Z</time>
      </trkpt>
      <trkpt lat="46.04985" lon="4.69931">
        <ele>206</ele>
        <time>2017-12-23T10:43:44Z</time>
      </trkpt>
      <trkpt lat="46.04989" lon="4.69935">
        <ele>206</ele>
        <time>2017-12-23T10:43:45Z</time>
      </trkpt>
      <trkpt lat="46.04993" lon="4.69941">
        <ele>206</ele>
        <time>2017-12-23T10:43:46Z</time>
      </trkpt>
      <trkpt lat="46.04995" lon="4.69946">
        <ele>206</ele>
        <time>2017-12-23T10:43:47Z</time>
      </trkpt>
      <trkpt lat="46.04998" lon="4.69951">
        <ele>206</ele>
        <time>2017-12-23T10:43:48Z</time>
      </trkpt>
      <trkpt lat="46.05002" lon="4.69957">
        <ele>205</ele>
        <time>2017-12-23T10:43:49Z</time>
      </trkpt>
      <trkpt lat="46.05005" lon="4.69964">
        <ele>205</ele>
        <time>2017-12-23T10:43:50Z</time>
      </trkpt>
      <trkpt lat="46.0501" lon="4.69974">
        <ele>205</ele>
        <time>2017-12-23T10:43:52Z</time>
      </trkpt>
      <trkpt lat="46.05014" lon="4.69979">
        <ele>205</ele>
        <time>2017-12-23T10:43:53Z</time>
      </trkpt>
      <trkpt lat="46.05017" lon="4.69984">
        <ele>205</ele>
        <time>2017-12-23T10:43:54Z</time>
      </trkpt>
      <trkpt lat="46.05021" lon="4.69988">
        <ele>205</ele>
        <time>2017-12-23T10:43:55Z</time>
      </trkpt>
      <trkpt lat="46.05024" lon="4.69992">
        <ele>205</ele>
        <time>2017-12-23T10:43:56Z</time>
      </trkpt>
      <trkpt lat="46.05029" lon="4.69997">
        <ele>205</ele>
        <time>2017-12-23T10:43:57Z</time>
      </trkpt>
      <trkpt lat="46.05034" lon="4.70002">
        <ele>204</ele>
        <time>2017-12-23T10:43:58Z</time>
      </trkpt>
      <trkpt lat="46.05039" lon="4.70006">
        <ele>204</ele>
        <time>2017-12-23T10:43:59Z</time>
      </trkpt>
      <trkpt lat="46.05043" lon="4.70011">
        <ele>204</ele>
        <time>2017-12-23T10:44:00Z</time>
      </trkpt>
      <trkpt lat="46.05048" lon="4.70015">
        <ele>204</ele>
        <time>2017-12-23T10:44:01Z</time>
      </trkpt>
      <trkpt lat="46.05052" lon="4.70019">
        <ele>204</ele>
        <time>2017-12-23T10:44:02Z</time>
      </trkpt>
      <trkpt lat="46.05057" lon="4.70023">
        <ele>204</ele>
        <time>2017-12-23T10:44:03Z</time>
      </trkpt>
      <trkpt lat="46.05061" lon="4.70025">
        <ele>204</ele>
        <time>2017-12-23T10:44:04Z</time>
      </trkpt>
      <trkpt lat="46.05065" lon="4.70031">
        <ele>204</ele>
        <time>2017-12-23T10:44:05Z</time>
      </trkpt>
      <trkpt lat="46.05069" lon="4.70034">
        <ele>204</ele>
        <time>2017-12-23T10:44:06Z</time>
      </trkpt>
      <trkpt lat="46.05075" lon="4.70036">
        <ele>204</ele>
        <time>2017-12-23T10:44:07Z</time>
      </trkpt>
      <trkpt lat="46.05081" lon="4.70037">
        <ele>204</ele>
        <time>2017-12-23T10:44:08Z</time>
      </trkpt>
      <trkpt lat="46.05085" lon="4.70036">
        <ele>203</ele>
        <time>2017-12-23T10:44:09Z</time>
      </trkpt>
      <trkpt lat="46.0509" lon="4.70035">
        <ele>203</ele>
        <time>2017-12-23T10:44:10Z</time>
      </trkpt>
      <trkpt lat="46.05094" lon="4.70034">
        <ele>203</ele>
        <time>2017-12-23T10:44:11Z</time>
      </trkpt>
      <trkpt lat="46.05098" lon="4.70031">
        <ele>203</ele>
        <time>2017-12-23T10:44:12Z</time>
      </trkpt>
      <trkpt lat="46.05102" lon="4.70025">
        <ele>203</ele>
        <time>2017-12-23T10:44:13Z</time>
      </trkpt>
      <trkpt lat="46.05105" lon="4.70019">
        <ele>203</ele>
        <time>2017-12-23T10:44:14Z</time>
      </trkpt>
      <trkpt lat="46.05108" lon="4.70013">
        <ele>203</ele>
        <time>2017-12-23T10:44:15Z</time>
      </trkpt>
      <trkpt lat="46.05109" lon="4.70006">
        <ele>203</ele>
        <time>2017-12-23T10:44:16Z</time>
      </trkpt>
      <trkpt lat="46.05111" lon="4.69998">
        <ele>203</ele>
        <time>2017-12-23T10:44:17Z</time>
      </trkpt>
      <trkpt lat="46.05112" lon="4.69991">
        <ele>203</ele>
        <time>2017-12-23T10:44:18Z</time>
      </trkpt>
      <trkpt lat="46.05113" lon="4.69985">
        <ele>203</ele>
        <time>2017-12-23T10:44:19Z</time>
      </trkpt>
      <trkpt lat="46.05115" lon="4.69972">
        <ele>203</ele>
        <time>2017-12-23T10:44:21Z</time>
      </trkpt>
      <trkpt lat="46.05116" lon="4.69965">
        <ele>203</ele>
        <time>2017-12-23T10:44:22Z</time>
      </trkpt>
      <trkpt lat="46.05117" lon="4.69959">
        <ele>203</ele>
        <time>2017-12-23T10:44:23Z</time>
      </trkpt>
      <trkpt lat="46.05117" lon="4.69952">
        <ele>203</ele>
        <time>2017-12-23T10:44:24Z</time>
      </trkpt>
      <trkpt lat="46.05117" lon="4.69947">
        <ele>203</ele>
        <time>2017-12-23T10:44:25Z</time>
      </trkpt>
      <trkpt lat="46.05118" lon="4.69939">
        <ele>203</ele>
        <time>2017-12-23T10:44:26Z</time>
      </trkpt>
      <trkpt lat="46.0512" lon="4.69932">
        <ele>203</ele>
        <time>2017-12-23T10:44:27Z</time>
      </trkpt>
      <trkpt lat="46.05121" lon="4.69926">
        <ele>203</ele>
        <time>2017-12-23T10:44:28Z</time>
      </trkpt>
      <trkpt lat="46.05123" lon="4.69919">
        <ele>203</ele>
        <time>2017-12-23T10:44:29Z</time>
      </trkpt>
      <trkpt lat="46.05123" lon="4.69913">
        <ele>203</ele>
        <time>2017-12-23T10:44:30Z</time>
      </trkpt>
      <trkpt lat="46.05123" lon="4.69905">
        <ele>203</ele>
        <time>2017-12-23T10:44:31Z</time>
      </trkpt>
      <trkpt lat="46.05123" lon="4.69898">
        <ele>203</ele>
        <time>2017-12-23T10:44:32Z</time>
      </trkpt>
      <trkpt lat="46.05124" lon="4.69891">
        <ele>203</ele>
        <time>2017-12-23T10:44:33Z</time>
      </trkpt>
      <trkpt lat="46.05126" lon="4.69883">
        <ele>203</ele>
        <time>2017-12-23T10:44:34Z</time>
      </trkpt>
      <trkpt lat="46.05127" lon="4.69876">
        <ele>203</ele>
        <time>2017-12-23T10:44:35Z</time>
      </trkpt>
      <trkpt lat="46.05128" lon="4.6987">
        <ele>203</ele>
        <time>2017-12-23T10:44:36Z</time>
      </trkpt>
      <trkpt lat="46.0513" lon="4.69863">
        <ele>204</ele>
        <time>2017-12-23T10:44:37Z</time>
      </trkpt>
      <trkpt lat="46.05131" lon="4.69856">
        <ele>204</ele>
        <time>2017-12-23T10:44:38Z</time>
      </trkpt>
      <trkpt lat="46.05132" lon="4.6985">
        <ele>204</ele>
        <time>2017-12-23T10:44:39Z</time>
      </trkpt>
      <trkpt lat="46.05133" lon="4.69843">
        <ele>204</ele>
        <time>2017-12-23T10:44:40Z</time>
      </trkpt>
      <trkpt lat="46.05138" lon="4.69835">
        <ele>203</ele>
        <time>2017-12-23T10:44:42Z</time>
      </trkpt>
      <trkpt lat="46.05141" lon="4.69832">
        <ele>204</ele>
        <time>2017-12-23T10:44:43Z</time>
      </trkpt>
      <trkpt lat="46.05146" lon="4.6983">
        <ele>204</ele>
        <time>2017-12-23T10:44:44Z</time>
      </trkpt>
      <trkpt lat="46.05151" lon="4.69829">
        <ele>204</ele>
        <time>2017-12-23T10:44:45Z</time>
      </trkpt>
      <trkpt lat="46.05155" lon="4.69829">
        <ele>203</ele>
        <time>2017-12-23T10:44:46Z</time>
      </trkpt>
      <trkpt lat="46.05162" lon="4.69831">
        <ele>203</ele>
        <time>2017-12-23T10:44:47Z</time>
      </trkpt>
      <trkpt lat="46.05167" lon="4.69834">
        <ele>203</ele>
        <time>2017-12-23T10:44:48Z</time>
      </trkpt>
      <trkpt lat="46.05172" lon="4.69836">
        <ele>203</ele>
        <time>2017-12-23T10:44:49Z</time>
      </trkpt>
      <trkpt lat="46.05177" lon="4.69838">
        <ele>202</ele>
        <time>2017-12-23T10:44:50Z</time>
      </trkpt>
      <trkpt lat="46.05182" lon="4.6984">
        <ele>202</ele>
        <time>2017-12-23T10:44:51Z</time>
      </trkpt>
      <trkpt lat="46.05188" lon="4.69842">
        <ele>202</ele>
        <time>2017-12-23T10:44:52Z</time>
      </trkpt>
      <trkpt lat="46.05193" lon="4.69843">
        <ele>202</ele>
        <time>2017-12-23T10:44:53Z</time>
      </trkpt>
      <trkpt lat="46.05198" lon="4.69845">
        <ele>201</ele>
        <time>2017-12-23T10:44:54Z</time>
      </trkpt>
      <trkpt lat="46.05204" lon="4.69846">
        <ele>201</ele>
        <time>2017-12-23T10:44:55Z</time>
      </trkpt>
      <trkpt lat="46.0521" lon="4.69849">
        <ele>201</ele>
        <time>2017-12-23T10:44:56Z</time>
      </trkpt>
      <trkpt lat="46.05216" lon="4.69849">
        <ele>201</ele>
        <time>2017-12-23T10:44:57Z</time>
      </trkpt>
      <trkpt lat="46.05222" lon="4.69851">
        <ele>201</ele>
        <time>2017-12-23T10:44:58Z</time>
      </trkpt>
      <trkpt lat="46.05227" lon="4.69853">
        <ele>201</ele>
        <time>2017-12-23T10:44:59Z</time>
      </trkpt>
      <trkpt lat="46.05232" lon="4.69854">
        <ele>201</ele>
        <time>2017-12-23T10:45:00Z</time>
      </trkpt>
      <trkpt lat="46.05238" lon="4.69856">
        <ele>201</ele>
        <time>2017-12-23T10:45:01Z</time>
      </trkpt>
      <trkpt lat="46.05243" lon="4.69857">
        <ele>201</ele>
        <time>2017-12-23T10:45:02Z</time>
      </trkpt>
      <trkpt lat="46.05248" lon="4.6986">
        <ele>200</ele>
        <time>2017-12-23T10:45:03Z</time>
      </trkpt>
      <trkpt lat="46.05253" lon="4.69861">
        <ele>199</ele>
        <time>2017-12-23T10:45:04Z</time>
      </trkpt>
      <trkpt lat="46.05258" lon="4.69863">
        <ele>199</ele>
        <time>2017-12-23T10:45:05Z</time>
      </trkpt>
      <trkpt lat="46.05264" lon="4.69866">
        <ele>199</ele>
        <time>2017-12-23T10:45:06Z</time>
      </trkpt>
      <trkpt lat="46.05269" lon="4.69866">
        <ele>199</ele>
        <time>2017-12-23T10:45:07Z</time>
      </trkpt>
      <trkpt lat="46.05276" lon="4.69868">
        <ele>199</ele>
        <time>2017-12-23T10:45:08Z</time>
      </trkpt>
      <trkpt lat="46.05282" lon="4.69869">
        <ele>199</ele>
        <time>2017-12-23T10:45:09Z</time>
      </trkpt>
      <trkpt lat="46.05287" lon="4.69871">
        <ele>199</ele>
        <time>2017-12-23T10:45:10Z</time>
      </trkpt>
      <trkpt lat="46.05293" lon="4.69872">
        <ele>199</ele>
        <time>2017-12-23T10:45:11Z</time>
      </trkpt>
      <trkpt lat="46.053" lon="4.69874">
        <ele>199</ele>
        <time>2017-12-23T10:45:12Z</time>
      </trkpt>
      <trkpt lat="46.05305" lon="4.69875">
        <ele>199</ele>
        <time>2017-12-23T10:45:13Z</time>
      </trkpt>
      <trkpt lat="46.0531" lon="4.69876">
        <ele>199</ele>
        <time>2017-12-23T10:45:14Z</time>
      </trkpt>
      <trkpt lat="46.05315" lon="4.69877">
        <ele>199</ele>
        <time>2017-12-23T10:45:15Z</time>
      </trkpt>
      <trkpt lat="46.05321" lon="4.69878">
        <ele>199</ele>
        <time>2017-12-23T10:45:16Z</time>
      </trkpt>
      <trkpt lat="46.05327" lon="4.6988">
        <ele>199</ele>
        <time>2017-12-23T10:45:17Z</time>
      </trkpt>
      <trkpt lat="46.05332" lon="4.69882">
        <ele>199</ele>
        <time>2017-12-23T10:45:18Z</time>
      </trkpt>
      <trkpt lat="46.05337" lon="4.69884">
        <ele>199</ele>
        <time>2017-12-23T10:45:19Z</time>
      </trkpt>
      <trkpt lat="46.05342" lon="4.69885">
        <ele>199</ele>
        <time>2017-12-23T10:45:20Z</time>
      </trkpt>
      <trkpt lat="46.05348" lon="4.69886">
        <ele>199</ele>
        <time>2017-12-23T10:45:21Z</time>
      </trkpt>
      <trkpt lat="46.05353" lon="4.69886">
        <ele>199</ele>
        <time>2017-12-23T10:45:22Z</time>
      </trkpt>
      <trkpt lat="46.05357" lon="4.69888">
        <ele>199</ele>
        <time>2017-12-23T10:45:23Z</time>
      </trkpt>
      <trkpt lat="46.05363" lon="4.6989">
        <ele>199</ele>
        <time>2017-12-23T10:45:24Z</time>
      </trkpt>
      <trkpt lat="46.0537" lon="4.69893">
        <ele>199</ele>
        <time>2017-12-23T10:45:25Z</time>
      </trkpt>
      <trkpt lat="46.05375" lon="4.69895">
        <ele>199</ele>
        <time>2017-12-23T10:45:26Z</time>
      </trkpt>
      <trkpt lat="46.0538" lon="4.69897">
        <ele>199</ele>
        <time>2017-12-23T10:45:27Z</time>
      </trkpt>
      <trkpt lat="46.05386" lon="4.69899">
        <ele>199</ele>
        <time>2017-12-23T10:45:28Z</time>
      </trkpt>
      <trkpt lat="46.05391" lon="4.69901">
        <ele>199</ele>
        <time>2017-12-23T10:45:29Z</time>
      </trkpt>
      <trkpt lat="46.05396" lon="4.69902">
        <ele>199</ele>
        <time>2017-12-23T10:45:30Z</time>
      </trkpt>
      <trkpt lat="46.05402" lon="4.69904">
        <ele>199</ele>
        <time>2017-12-23T10:45:31Z</time>
      </trkpt>
      <trkpt lat="46.05407" lon="4.69906">
        <ele>199</ele>
        <time>2017-12-23T10:45:32Z</time>
      </trkpt>
      <trkpt lat="46.05412" lon="4.69906">
        <ele>199</ele>
        <time>2017-12-23T10:45:33Z</time>
      </trkpt>
      <trkpt lat="46.05417" lon="4.69905">
        <ele>199</ele>
        <time>2017-12-23T10:45:34Z</time>
      </trkpt>
      <trkpt lat="46.05421" lon="4.69907">
        <ele>199</ele>
        <time>2017-12-23T10:45:35Z</time>
      </trkpt>
      <trkpt lat="46.05426" lon="4.69906">
        <ele>199</ele>
        <time>2017-12-23T10:45:36Z</time>
      </trkpt>
      <trkpt lat="46.05431" lon="4.69905">
        <ele>199</ele>
        <time>2017-12-23T10:45:37Z</time>
      </trkpt>
      <trkpt lat="46.05436" lon="4.69904">
        <ele>199</ele>
        <time>2017-12-23T10:45:38Z</time>
      </trkpt>
      <trkpt lat="46.05441" lon="4.69902">
        <ele>199</ele>
        <time>2017-12-23T10:45:39Z</time>
      </trkpt>
      <trkpt lat="46.05445" lon="4.69902">
        <ele>199</ele>
        <time>2017-12-23T10:45:40Z</time>
      </trkpt>
      <trkpt lat="46.0545" lon="4.699">
        <ele>199</ele>
        <time>2017-12-23T10:45:41Z</time>
      </trkpt>
      <trkpt lat="46.05455" lon="4.69897">
        <ele>199</ele>
        <time>2017-12-23T10:45:42Z</time>
      </trkpt>
      <trkpt lat="46.0546" lon="4.69895">
        <ele>199</ele>
        <time>2017-12-23T10:45:43Z</time>
      </trkpt>
      <trkpt lat="46.05465" lon="4.69893">
        <ele>199</ele>
        <time>2017-12-23T10:45:44Z</time>
      </trkpt>
      <trkpt lat="46.0547" lon="4.6989">
        <ele>199</ele>
        <time>2017-12-23T10:45:45Z</time>
      </trkpt>
      <trkpt lat="46.05474" lon="4.69888">
        <ele>199</ele>
        <time>2017-12-23T10:45:46Z</time>
      </trkpt>
      <trkpt lat="46.05479" lon="4.69887">
        <ele>199</ele>
        <time>2017-12-23T10:45:47Z</time>
      </trkpt>
      <trkpt lat="46.05484" lon="4.69885">
        <ele>199</ele>
        <time>2017-12-23T10:45:48Z</time>
      </trkpt>
      <trkpt lat="46.0549" lon="4.69884">
        <ele>199</ele>
        <time>2017-12-23T10:45:49Z</time>
      </trkpt>
      <trkpt lat="46.05494" lon="4.69883">
        <ele>199</ele>
        <time>2017-12-23T10:45:50Z</time>
      </trkpt>
      <trkpt lat="46.05499" lon="4.69881">
        <ele>199</ele>
        <time>2017-12-23T10:45:51Z</time>
      </trkpt>
      <trkpt lat="46.05504" lon="4.69884">
        <ele>199</ele>
        <time>2017-12-23T10:45:52Z</time>
      </trkpt>
      <trkpt lat="46.05509" lon="4.69883">
        <ele>199</ele>
        <time>2017-12-23T10:45:53Z</time>
      </trkpt>
      <trkpt lat="46.05513" lon="4.69881">
        <ele>199</ele>
        <time>2017-12-23T10:45:54Z</time>
      </trkpt>
      <trkpt lat="46.05518" lon="4.69879">
        <ele>199</ele>
        <time>2017-12-23T10:45:55Z</time>
      </trkpt>
      <trkpt lat="46.05526" lon="4.69875">
        <ele>200</ele>
        <time>2017-12-23T10:45:57Z</time>
      </trkpt>
      <trkpt lat="46.05531" lon="4.69873">
        <ele>200</ele>
        <time>2017-12-23T10:45:58Z</time>
      </trkpt>
      <trkpt lat="46.05537" lon="4.69872">
        <ele>200</ele>
        <time>2017-12-23T10:45:59Z</time>
      </trkpt>
      <trkpt lat="46.05541" lon="4.69871">
        <ele>200</ele>
        <time>2017-12-23T10:46:00Z</time>
      </trkpt>
      <trkpt lat="46.05549" lon="4.69868">
        <ele>200</ele>
        <time>2017-12-23T10:46:02Z</time>
      </trkpt>
      <trkpt lat="46.05553" lon="4.69866">
        <ele>200</ele>
        <time>2017-12-23T10:46:03Z</time>
      </trkpt>
      <trkpt lat="46.05561" lon="4.69863">
        <ele>200</ele>
        <time>2017-12-23T10:46:05Z</time>
      </trkpt>
      <trkpt lat="46.05565" lon="4.69861">
        <ele>200</ele>
        <time>2017-12-23T10:46:06Z</time>
      </trkpt>
      <trkpt lat="46.05573" lon="4.69858">
        <ele>200</ele>
        <time>2017-12-23T10:46:08Z</time>
      </trkpt>
      <trkpt lat="46.05576" lon="4.69858">
        <ele>200</ele>
        <time>2017-12-23T10:46:09Z</time>
      </trkpt>
      <trkpt lat="46.05582" lon="4.69866">
        <ele>200</ele>
        <time>2017-12-23T10:46:11Z</time>
      </trkpt>
      <trkpt lat="46.05586" lon="4.6987">
        <ele>201</ele>
        <time>2017-12-23T10:46:12Z</time>
      </trkpt>
      <trkpt lat="46.05588" lon="4.69877">
        <ele>201</ele>
        <time>2017-12-23T10:46:13Z</time>
      </trkpt>
      <trkpt lat="46.0559" lon="4.69882">
        <ele>201</ele>
        <time>2017-12-23T10:46:14Z</time>
      </trkpt>
      <trkpt lat="46.05592" lon="4.69888">
        <ele>201</ele>
        <time>2017-12-23T10:46:15Z</time>
      </trkpt>
      <trkpt lat="46.05594" lon="4.69893">
        <ele>201</ele>
        <time>2017-12-23T10:46:16Z</time>
      </trkpt>
      <trkpt lat="46.05597" lon="4.69899">
        <ele>201</ele>
        <time>2017-12-23T10:46:17Z</time>
      </trkpt>
      <trkpt lat="46.056" lon="4.69904">
        <ele>201</ele>
        <time>2017-12-23T10:46:18Z</time>
      </trkpt>
      <trkpt lat="46.05603" lon="4.69909">
        <ele>201</ele>
        <time>2017-12-23T10:46:19Z</time>
      </trkpt>
      <trkpt lat="46.05605" lon="4.69915">
        <ele>200</ele>
        <time>2017-12-23T10:46:20Z</time>
      </trkpt>
      <trkpt lat="46.05611" lon="4.69925">
        <ele>201</ele>
        <time>2017-12-23T10:46:22Z</time>
      </trkpt>
      <trkpt lat="46.05613" lon="4.6993">
        <ele>201</ele>
        <time>2017-12-23T10:46:23Z</time>
      </trkpt>
      <trkpt lat="46.05616" lon="4.69935">
        <ele>201</ele>
        <time>2017-12-23T10:46:24Z</time>
      </trkpt>
      <trkpt lat="46.05619" lon="4.69941">
        <ele>200</ele>
        <time>2017-12-23T10:46:25Z</time>
      </trkpt>
      <trkpt lat="46.05622" lon="4.69946">
        <ele>200</ele>
        <time>2017-12-23T10:46:26Z</time>
      </trkpt>
      <trkpt lat="46.05624" lon="4.69952">
        <ele>200</ele>
        <time>2017-12-23T10:46:27Z</time>
      </trkpt>
      <trkpt lat="46.05627" lon="4.69958">
        <ele>200</ele>
        <time>2017-12-23T10:46:28Z</time>
      </trkpt>
      <trkpt lat="46.0563" lon="4.69965">
        <ele>200</ele>
        <time>2017-12-23T10:46:29Z</time>
      </trkpt>
      <trkpt lat="46.05633" lon="4.69971">
        <ele>200</ele>
        <time>2017-12-23T10:46:30Z</time>
      </trkpt>
      <trkpt lat="46.05637" lon="4.69977">
        <ele>200</ele>
        <time>2017-12-23T10:46:31Z</time>
      </trkpt>
      <trkpt lat="46.0564" lon="4.69984">
        <ele>200</ele>
        <time>2017-12-23T10:46:32Z</time>
      </trkpt>
      <trkpt lat="46.05643" lon="4.6999">
        <ele>200</ele>
        <time>2017-12-23T10:46:33Z</time>
      </trkpt>
      <trkpt lat="46.05646" lon="4.69995">
        <ele>200</ele>
        <time>2017-12-23T10:46:34Z</time>
      </trkpt>
      <trkpt lat="46.0565" lon="4.70002">
        <ele>200</ele>
        <time>2017-12-23T10:46:35Z</time>
      </trkpt>
      <trkpt lat="46.05653" lon="4.70006">
        <ele>200</ele>
        <time>2017-12-23T10:46:36Z</time>
      </trkpt>
      <trkpt lat="46.05656" lon="4.70012">
        <ele>200</ele>
        <time>2017-12-23T10:46:37Z</time>
      </trkpt>
      <trkpt lat="46.0566" lon="4.70017">
        <ele>200</ele>
        <time>2017-12-23T10:46:38Z</time>
      </trkpt>
      <trkpt lat="46.05662" lon="4.70024">
        <ele>200</ele>
        <time>2017-12-23T10:46:39Z</time>
      </trkpt>
      <trkpt lat="46.05666" lon="4.70029">
        <ele>200</ele>
        <time>2017-12-23T10:46:40Z</time>
      </trkpt>
      <trkpt lat="46.0567" lon="4.70035">
        <ele>199</ele>
        <time>2017-12-23T10:46:41Z</time>
      </trkpt>
      <trkpt lat="46.05672" lon="4.70041">
        <ele>199</ele>
        <time>2017-12-23T10:46:42Z</time>
      </trkpt>
      <trkpt lat="46.05676" lon="4.70051">
        <ele>199</ele>
        <time>2017-12-23T10:46:43Z</time>
      </trkpt>
      <trkpt lat="46.05679" lon="4.70056">
        <ele>199</ele>
        <time>2017-12-23T10:46:44Z</time>
      </trkpt>
      <trkpt lat="46.05683" lon="4.70062">
        <ele>199</ele>
        <time>2017-12-23T10:46:45Z</time>
      </trkpt>
      <trkpt lat="46.05686" lon="4.70068">
        <ele>199</ele>
        <time>2017-12-23T10:46:46Z</time>
      </trkpt>
      <trkpt lat="46.05688" lon="4.70077">
        <ele>199</ele>
        <time>2017-12-23T10:46:47Z</time>
      </trkpt>
      <trkpt lat="46.05691" lon="4.70083">
        <ele>199</ele>
        <time>2017-12-23T10:46:48Z</time>
      </trkpt>
      <trkpt lat="46.05695" lon="4.70089">
        <ele>198</ele>
        <time>2017-12-23T10:46:49Z</time>
      </trkpt>
      <trkpt lat="46.05698" lon="4.70095">
        <ele>198</ele>
        <time>2017-12-23T10:46:50Z</time>
      </trkpt>
      <trkpt lat="46.05702" lon="4.701">
        <ele>198</ele>
        <time>2017-12-23T10:46:51Z</time>
      </trkpt>
      <trkpt lat="46.05706" lon="4.7011">
        <ele>198</ele>
        <time>2017-12-23T10:46:53Z</time>
      </trkpt>
      <trkpt lat="46.0571" lon="4.70116">
        <ele>198</ele>
        <time>2017-12-23T10:46:54Z</time>
      </trkpt>
      <trkpt lat="46.05713" lon="4.70122">
        <ele>198</ele>
        <time>2017-12-23T10:46:55Z</time>
      </trkpt>
      <trkpt lat="46.05717" lon="4.70129">
        <ele>198</ele>
        <time>2017-12-23T10:46:56Z</time>
      </trkpt>
      <trkpt lat="46.0572" lon="4.70134">
        <ele>198</ele>
        <time>2017-12-23T10:46:57Z</time>
      </trkpt>
      <trkpt lat="46.05724" lon="4.7014">
        <ele>198</ele>
        <time>2017-12-23T10:46:58Z</time>
      </trkpt>
      <trkpt lat="46.05728" lon="4.70146">
        <ele>198</ele>
        <time>2017-12-23T10:46:59Z</time>
      </trkpt>
      <trkpt lat="46.05731" lon="4.70153">
        <ele>198</ele>
        <time>2017-12-23T10:47:00Z</time>
      </trkpt>
      <trkpt lat="46.05734" lon="4.70158">
        <ele>199</ele>
        <time>2017-12-23T10:47:01Z</time>
      </trkpt>
      <trkpt lat="46.05737" lon="4.70165">
        <ele>199</ele>
        <time>2017-12-23T10:47:02Z</time>
      </trkpt>
      <trkpt lat="46.05741" lon="4.70171">
        <ele>198</ele>
        <time>2017-12-23T10:47:03Z</time>
      </trkpt>
      <trkpt lat="46.05744" lon="4.70177">
        <ele>198</ele>
        <time>2017-12-23T10:47:04Z</time>
      </trkpt>
      <trkpt lat="46.05748" lon="4.70184">
        <ele>198</ele>
        <time>2017-12-23T10:47:05Z</time>
      </trkpt>
      <trkpt lat="46.05751" lon="4.7019">
        <ele>198</ele>
        <time>2017-12-23T10:47:06Z</time>
      </trkpt>
      <trkpt lat="46.05754" lon="4.70196">
        <ele>198</ele>
        <time>2017-12-23T10:47:07Z</time>
      </trkpt>
      <trkpt lat="46.05758" lon="4.70202">
        <ele>198</ele>
        <time>2017-12-23T10:47:08Z</time>
      </trkpt>
      <trkpt lat="46.05761" lon="4.70207">
        <ele>198</ele>
        <time>2017-12-23T10:47:09Z</time>
      </trkpt>
      <trkpt lat="46.05766" lon="4.70212">
        <ele>198</ele>
        <time>2017-12-23T10:47:10Z</time>
      </trkpt>
      <trkpt lat="46.0577" lon="4.70218">
        <ele>198</ele>
        <time>2017-12-23T10:47:11Z</time>
      </trkpt>
      <trkpt lat="46.05773" lon="4.70225">
        <ele>198</ele>
        <time>2017-12-23T10:47:12Z</time>
      </trkpt>
      <trkpt lat="46.05776" lon="4.70233">
        <ele>198</ele>
        <time>2017-12-23T10:47:13Z</time>
      </trkpt>
      <trkpt lat="46.05779" lon="4.70241">
        <ele>198</ele>
        <time>2017-12-23T10:47:14Z</time>
      </trkpt>
      <trkpt lat="46.05783" lon="4.70248">
        <ele>198</ele>
        <time>2017-12-23T10:47:15Z</time>
      </trkpt>
      <trkpt lat="46.05787" lon="4.70254">
        <ele>198</ele>
        <time>2017-12-23T10:47:16Z</time>
      </trkpt>
      <trkpt lat="46.0579" lon="4.7026">
        <ele>198</ele>
        <time>2017-12-23T10:47:17Z</time>
      </trkpt>
      <trkpt lat="46.05793" lon="4.70266">
        <ele>197</ele>
        <time>2017-12-23T10:47:18Z</time>
      </trkpt>
      <trkpt lat="46.05797" lon="4.70271">
        <ele>197</ele>
        <time>2017-12-23T10:47:19Z</time>
      </trkpt>
      <trkpt lat="46.05801" lon="4.70275">
        <ele>197</ele>
        <time>2017-12-23T10:47:20Z</time>
      </trkpt>
      <trkpt lat="46.05807" lon="4.70284">
        <ele>197</ele>
        <time>2017-12-23T10:47:22Z</time>
      </trkpt>
      <trkpt lat="46.05812" lon="4.70291">
        <ele>197</ele>
        <time>2017-12-23T10:47:23Z</time>
      </trkpt>
      <trkpt lat="46.05815" lon="4.70297">
        <ele>197</ele>
        <time>2017-12-23T10:47:24Z</time>
      </trkpt>
      <trkpt lat="46.05817" lon="4.70302">
        <ele>197</ele>
        <time>2017-12-23T10:47:25Z</time>
      </trkpt>
      <trkpt lat="46.05821" lon="4.70307">
        <ele>197</ele>
        <time>2017-12-23T10:47:26Z</time>
      </trkpt>
      <trkpt lat="46.05825" lon="4.70313">
        <ele>197</ele>
        <time>2017-12-23T10:47:27Z</time>
      </trkpt>
      <trkpt lat="46.0583" lon="4.70319">
        <ele>197</ele>
        <time>2017-12-23T10:47:28Z</time>
      </trkpt>
      <trkpt lat="46.05834" lon="4.70324">
        <ele>197</ele>
        <time>2017-12-23T10:47:29Z</time>
      </trkpt>
      <trkpt lat="46.05838" lon="4.7033">
        <ele>197</ele>
        <time>2017-12-23T10:47:30Z</time>
      </trkpt>
      <trkpt lat="46.05844" lon="4.70335">
        <ele>197</ele>
        <time>2017-12-23T10:47:31Z</time>
      </trkpt>
      <trkpt lat="46.05847" lon="4.70341">
        <ele>197</ele>
        <time>2017-12-23T10:47:32Z</time>
      </trkpt>
      <trkpt lat="46.05851" lon="4.70347">
        <ele>196</ele>
        <time>2017-12-23T10:47:33Z</time>
      </trkpt>
      <trkpt lat="46.05855" lon="4.70353">
        <ele>196</ele>
        <time>2017-12-23T10:47:34Z</time>
      </trkpt>
      <trkpt lat="46.05859" lon="4.70359">
        <ele>196</ele>
        <time>2017-12-23T10:47:35Z</time>
      </trkpt>
      <trkpt lat="46.05862" lon="4.70366">
        <ele>196</ele>
        <time>2017-12-23T10:47:36Z</time>
      </trkpt>
      <trkpt lat="46.05866" lon="4.70371">
        <ele>196</ele>
        <time>2017-12-23T10:47:37Z</time>
      </trkpt>
      <trkpt lat="46.05871" lon="4.70376">
        <ele>196</ele>
        <time>2017-12-23T10:47:38Z</time>
      </trkpt>
      <trkpt lat="46.05875" lon="4.70381">
        <ele>196</ele>
        <time>2017-12-23T10:47:39Z</time>
      </trkpt>
      <trkpt lat="46.05879" lon="4.70386">
        <ele>196</ele>
        <time>2017-12-23T10:47:40Z</time>
      </trkpt>
      <trkpt lat="46.05883" lon="4.70392">
        <ele>196</ele>
        <time>2017-12-23T10:47:41Z</time>
      </trkpt>
      <trkpt lat="46.05886" lon="4.70397">
        <ele>196</ele>
        <time>2017-12-23T10:47:42Z</time>
      </trkpt>
      <trkpt lat="46.0589" lon="4.70402">
        <ele>196</ele>
        <time>2017-12-23T10:47:43Z</time>
      </trkpt>
      <trkpt lat="46.05893" lon="4.70408">
        <ele>196</ele>
        <time>2017-12-23T10:47:44Z</time>
      </trkpt>
      <trkpt lat="46.05896" lon="4.70413">
        <ele>196</ele>
        <time>2017-12-23T10:47:45Z</time>
      </trkpt>
      <trkpt lat="46.059" lon="4.70418">
        <ele>195</ele>
        <time>2017-12-23T10:47:46Z</time>
      </trkpt>
      <trkpt lat="46.05903" lon="4.70425">
        <ele>195</ele>
        <time>2017-12-23T10:47:47Z</time>
      </trkpt>
      <trkpt lat="46.05905" lon="4.70432">
        <ele>195</ele>
        <time>2017-12-23T10:47:48Z</time>
      </trkpt>
      <trkpt lat="46.05908" lon="4.70437">
        <ele>195</ele>
        <time>2017-12-23T10:47:49Z</time>
      </trkpt>
      <trkpt lat="46.05912" lon="4.70442">
        <ele>195</ele>
        <time>2017-12-23T10:47:50Z</time>
      </trkpt>
      <trkpt lat="46.05915" lon="4.70448">
        <ele>195</ele>
        <time>2017-12-23T10:47:51Z</time>
      </trkpt>
      <trkpt lat="46.05918" lon="4.70453">
        <ele>195</ele>
        <time>2017-12-23T10:47:52Z</time>
      </trkpt>
      <trkpt lat="46.05921" lon="4.70459">
        <ele>195</ele>
        <time>2017-12-23T10:47:53Z</time>
      </trkpt>
      <trkpt lat="46.05925" lon="4.70465">
        <ele>195</ele>
        <time>2017-12-23T10:47:54Z</time>
      </trkpt>
      <trkpt lat="46.05927" lon="4.70472">
        <ele>195</ele>
        <time>2017-12-23T10:47:55Z</time>
      </trkpt>
      <trkpt lat="46.0593" lon="4.70478">
        <ele>195</ele>
        <time>2017-12-23T10:47:56Z</time>
      </trkpt>
      <trkpt lat="46.05932" lon="4.70485">
        <ele>195</ele>
        <time>2017-12-23T10:47:57Z</time>
      </trkpt>
      <trkpt lat="46.05935" lon="4.70492">
        <ele>195</ele>
        <time>2017-12-23T10:47:58Z</time>
      </trkpt>
      <trkpt lat="46.05936" lon="4.70499">
        <ele>195</ele>
        <time>2017-12-23T10:47:59Z</time>
      </trkpt>
      <trkpt lat="46.05936" lon="4.70507">
        <ele>195</ele>
        <time>2017-12-23T10:48:00Z</time>
      </trkpt>
      <trkpt lat="46.05936" lon="4.70515">
        <ele>195</ele>
        <time>2017-12-23T10:48:01Z</time>
      </trkpt>
      <trkpt lat="46.05935" lon="4.70522">
        <ele>195</ele>
        <time>2017-12-23T10:48:02Z</time>
      </trkpt>
      <trkpt lat="46.05933" lon="4.7053">
        <ele>195</ele>
        <time>2017-12-23T10:48:03Z</time>
      </trkpt>
      <trkpt lat="46.05931" lon="4.70537">
        <ele>195</ele>
        <time>2017-12-23T10:48:04Z</time>
      </trkpt>
      <trkpt lat="46.0593" lon="4.70544">
        <ele>195</ele>
        <time>2017-12-23T10:48:05Z</time>
      </trkpt>
      <trkpt lat="46.05928" lon="4.7055">
        <ele>195</ele>
        <time>2017-12-23T10:48:06Z</time>
      </trkpt>
      <trkpt lat="46.05926" lon="4.70558">
        <ele>195</ele>
        <time>2017-12-23T10:48:07Z</time>
      </trkpt>
      <trkpt lat="46.05923" lon="4.70564">
        <ele>195</ele>
        <time>2017-12-23T10:48:08Z</time>
      </trkpt>
      <trkpt lat="46.05921" lon="4.7057">
        <ele>195</ele>
        <time>2017-12-23T10:48:09Z</time>
      </trkpt>
      <trkpt lat="46.05918" lon="4.70577">
        <ele>195</ele>
        <time>2017-12-23T10:48:10Z</time>
      </trkpt>
      <trkpt lat="46.05915" lon="4.70585">
        <ele>195</ele>
        <time>2017-12-23T10:48:11Z</time>
      </trkpt>
      <trkpt lat="46.05914" lon="4.70593">
        <ele>195</ele>
        <time>2017-12-23T10:48:12Z</time>
      </trkpt>
      <trkpt lat="46.05914" lon="4.70602">
        <ele>194</ele>
        <time>2017-12-23T10:48:13Z</time>
      </trkpt>
      <trkpt lat="46.05913" lon="4.7061">
        <ele>194</ele>
        <time>2017-12-23T10:48:14Z</time>
      </trkpt>
      <trkpt lat="46.05912" lon="4.70617">
        <ele>194</ele>
        <time>2017-12-23T10:48:15Z</time>
      </trkpt>
      <trkpt lat="46.05911" lon="4.70624">
        <ele>194</ele>
        <time>2017-12-23T10:48:16Z</time>
      </trkpt>
      <trkpt lat="46.0591" lon="4.70632">
        <ele>194</ele>
        <time>2017-12-23T10:48:17Z</time>
      </trkpt>
      <trkpt lat="46.05909" lon="4.70639">
        <ele>194</ele>
        <time>2017-12-23T10:48:18Z</time>
      </trkpt>
      <trkpt lat="46.05909" lon="4.70647">
        <ele>194</ele>
        <time>2017-12-23T10:48:19Z</time>
      </trkpt>
      <trkpt lat="46.05909" lon="4.70656">
        <ele>194</ele>
        <time>2017-12-23T10:48:20Z</time>
      </trkpt>
      <trkpt lat="46.05908" lon="4.70664">
        <ele>194</ele>
        <time>2017-12-23T10:48:21Z</time>
      </trkpt>
      <trkpt lat="46.05908" lon="4.70672">
        <ele>194</ele>
        <time>2017-12-23T10:48:22Z</time>
      </trkpt>
      <trkpt lat="46.05909" lon="4.70681">
        <ele>194</ele>
        <time>2017-12-23T10:48:23Z</time>
      </trkpt>
      <trkpt lat="46.05909" lon="4.70689">
        <ele>194</ele>
        <time>2017-12-23T10:48:24Z</time>
      </trkpt>
      <trkpt lat="46.0591" lon="4.70697">
        <ele>194</ele>
        <time>2017-12-23T10:48:25Z</time>
      </trkpt>
      <trkpt lat="46.05911" lon="4.70705">
        <ele>194</ele>
        <time>2017-12-23T10:48:26Z</time>
      </trkpt>
      <trkpt lat="46.05912" lon="4.70712">
        <ele>194</ele>
        <time>2017-12-23T10:48:27Z</time>
      </trkpt>
      <trkpt lat="46.05914" lon="4.7072">
        <ele>194</ele>
        <time>2017-12-23T10:48:28Z</time>
      </trkpt>
      <trkpt lat="46.05914" lon="4.70732">
        <ele>194</ele>
        <time>2017-12-23T10:48:29Z</time>
      </trkpt>
      <trkpt lat="46.05916" lon="4.70739">
        <ele>194</ele>
        <time>2017-12-23T10:48:30Z</time>
      </trkpt>
      <trkpt lat="46.05917" lon="4.70747">
        <ele>194</ele>
        <time>2017-12-23T10:48:31Z</time>
      </trkpt>
      <trkpt lat="46.05919" lon="4.70754">
        <ele>194</ele>
        <time>2017-12-23T10:48:32Z</time>
      </trkpt>
      <trkpt lat="46.05921" lon="4.70762">
        <ele>194</ele>
        <time>2017-12-23T10:48:33Z</time>
      </trkpt>
      <trkpt lat="46.05923" lon="4.70769">
        <ele>194</ele>
        <time>2017-12-23T10:48:34Z</time>
      </trkpt>
      <trkpt lat="46.05924" lon="4.70776">
        <ele>194</ele>
        <time>2017-12-23T10:48:35Z</time>
      </trkpt>
      <trkpt lat="46.05926" lon="4.70784">
        <ele>194</ele>
        <time>2017-12-23T10:48:36Z</time>
      </trkpt>
      <trkpt lat="46.05927" lon="4.70792">
        <ele>194</ele>
        <time>2017-12-23T10:48:37Z</time>
      </trkpt>
      <trkpt lat="46.05928" lon="4.708">
        <ele>194</ele>
        <time>2017-12-23T10:48:38Z</time>
      </trkpt>
      <trkpt lat="46.05928" lon="4.70808">
        <ele>194</ele>
        <time>2017-12-23T10:48:39Z</time>
      </trkpt>
      <trkpt lat="46.05929" lon="4.70817">
        <ele>194</ele>
        <time>2017-12-23T10:48:40Z</time>
      </trkpt>
      <trkpt lat="46.0593" lon="4.70825">
        <ele>195</ele>
        <time>2017-12-23T10:48:41Z</time>
      </trkpt>
      <trkpt lat="46.05931" lon="4.70833">
        <ele>195</ele>
        <time>2017-12-23T10:48:42Z</time>
      </trkpt>
      <trkpt lat="46.05932" lon="4.70842">
        <ele>194</ele>
        <time>2017-12-23T10:48:43Z</time>
      </trkpt>
      <trkpt lat="46.05933" lon="4.7085">
        <ele>194</ele>
        <time>2017-12-23T10:48:44Z</time>
      </trkpt>
      <trkpt lat="46.05933" lon="4.70859">
        <ele>194</ele>
        <time>2017-12-23T10:48:45Z</time>
      </trkpt>
      <trkpt lat="46.05934" lon="4.70867">
        <ele>194</ele>
        <time>2017-12-23T10:48:46Z</time>
      </trkpt>
      <trkpt lat="46.05934" lon="4.70875">
        <ele>194</ele>
        <time>2017-12-23T10:48:47Z</time>
      </trkpt>
      <trkpt lat="46.05935" lon="4.70883">
        <ele>194</ele>
        <time>2017-12-23T10:48:48Z</time>
      </trkpt>
      <trkpt lat="46.05936" lon="4.70891">
        <ele>194</ele>
        <time>2017-12-23T10:48:49Z</time>
      </trkpt>
      <trkpt lat="46.05937" lon="4.70898">
        <ele>194</ele>
        <time>2017-12-23T10:48:50Z</time>
      </trkpt>
      <trkpt lat="46.05938" lon="4.70906">
        <ele>194</ele>
        <time>2017-12-23T10:48:51Z</time>
      </trkpt>
      <trkpt lat="46.0594" lon="4.70913">
        <ele>194</ele>
        <time>2017-12-23T10:48:52Z</time>
      </trkpt>
      <trkpt lat="46.0594" lon="4.7092">
        <ele>194</ele>
        <time>2017-12-23T10:48:53Z</time>
      </trkpt>
      <trkpt lat="46.05941" lon="4.70927">
        <ele>194</ele>
        <time>2017-12-23T10:48:54Z</time>
      </trkpt>
      <trkpt lat="46.05942" lon="4.70934">
        <ele>193</ele>
        <time>2017-12-23T10:48:55Z</time>
      </trkpt>
      <trkpt lat="46.05944" lon="4.70943">
        <ele>193</ele>
        <time>2017-12-23T10:48:56Z</time>
      </trkpt>
      <trkpt lat="46.05946" lon="4.7095">
        <ele>193</ele>
        <time>2017-12-23T10:48:57Z</time>
      </trkpt>
      <trkpt lat="46.05947" lon="4.70958">
        <ele>193</ele>
        <time>2017-12-23T10:48:58Z</time>
      </trkpt>
      <trkpt lat="46.05949" lon="4.70966">
        <ele>193</ele>
        <time>2017-12-23T10:48:59Z</time>
      </trkpt>
      <trkpt lat="46.05951" lon="4.70973">
        <ele>193</ele>
        <time>2017-12-23T10:49:00Z</time>
      </trkpt>
      <trkpt lat="46.05953" lon="4.7098">
        <ele>193</ele>
        <time>2017-12-23T10:49:01Z</time>
      </trkpt>
      <trkpt lat="46.05955" lon="4.70986">
        <ele>193</ele>
        <time>2017-12-23T10:49:02Z</time>
      </trkpt>
      <trkpt lat="46.05956" lon="4.70994">
        <ele>193</ele>
        <time>2017-12-23T10:49:03Z</time>
      </trkpt>
      <trkpt lat="46.05958" lon="4.71002">
        <ele>193</ele>
        <time>2017-12-23T10:49:04Z</time>
      </trkpt>
      <trkpt lat="46.05961" lon="4.71009">
        <ele>193</ele>
        <time>2017-12-23T10:49:05Z</time>
      </trkpt>
      <trkpt lat="46.05964" lon="4.71016">
        <ele>193</ele>
        <time>2017-12-23T10:49:06Z</time>
      </trkpt>
      <trkpt lat="46.05966" lon="4.71023">
        <ele>193</ele>
        <time>2017-12-23T10:49:07Z</time>
      </trkpt>
      <trkpt lat="46.0597" lon="4.71029">
        <ele>193</ele>
        <time>2017-12-23T10:49:08Z</time>
      </trkpt>
      <trkpt lat="46.05973" lon="4.71035">
        <ele>193</ele>
        <time>2017-12-23T10:49:09Z</time>
      </trkpt>
      <trkpt lat="46.05975" lon="4.71042">
        <ele>193</ele>
        <time>2017-12-23T10:49:10Z</time>
      </trkpt>
      <trkpt lat="46.05978" lon="4.71048">
        <ele>193</ele>
        <time>2017-12-23T10:49:11Z</time>
      </trkpt>
      <trkpt lat="46.05981" lon="4.71054">
        <ele>193</ele>
        <time>2017-12-23T10:49:12Z</time>
      </trkpt>
      <trkpt lat="46.05983" lon="4.71059">
        <ele>193</ele>
        <time>2017-12-23T10:49:13Z</time>
      </trkpt>
      <trkpt lat="46.05986" lon="4.71066">
        <ele>193</ele>
        <time>2017-12-23T10:49:14Z</time>
      </trkpt>
      <trkpt lat="46.05988" lon="4.71072">
        <ele>193</ele>
        <time>2017-12-23T10:49:15Z</time>
      </trkpt>
      <trkpt lat="46.05991" lon="4.71078">
        <ele>193</ele>
        <time>2017-12-23T10:49:16Z</time>
      </trkpt>
      <trkpt lat="46.05994" lon="4.71085">
        <ele>193</ele>
        <time>2017-12-23T10:49:17Z</time>
      </trkpt>
      <trkpt lat="46.05996" lon="4.71091">
        <ele>193</ele>
        <time>2017-12-23T10:49:18Z</time>
      </trkpt>
      <trkpt lat="46.05998" lon="4.71097">
        <ele>193</ele>
        <time>2017-12-23T10:49:19Z</time>
      </trkpt>
      <trkpt lat="46.06001" lon="4.71103">
        <ele>193</ele>
        <time>2017-12-23T10:49:20Z</time>
      </trkpt>
      <trkpt lat="46.06003" lon="4.7111">
        <ele>193</ele>
        <time>2017-12-23T10:49:21Z</time>
      </trkpt>
      <trkpt lat="46.06006" lon="4.71117">
        <ele>193</ele>
        <time>2017-12-23T10:49:22Z</time>
      </trkpt>
      <trkpt lat="46.06008" lon="4.71125">
        <ele>193</ele>
        <time>2017-12-23T10:49:23Z</time>
      </trkpt>
      <trkpt lat="46.06011" lon="4.71132">
        <ele>193</ele>
        <time>2017-12-23T10:49:24Z</time>
      </trkpt>
      <trkpt lat="46.06013" lon="4.71141">
        <ele>193</ele>
        <time>2017-12-23T10:49:25Z</time>
      </trkpt>
      <trkpt lat="46.06017" lon="4.71148">
        <ele>193</ele>
        <time>2017-12-23T10:49:26Z</time>
      </trkpt>
      <trkpt lat="46.0602" lon="4.71155">
        <ele>194</ele>
        <time>2017-12-23T10:49:27Z</time>
      </trkpt>
      <trkpt lat="46.06023" lon="4.71163">
        <ele>194</ele>
        <time>2017-12-23T10:49:28Z</time>
      </trkpt>
      <trkpt lat="46.06025" lon="4.71169">
        <ele>194</ele>
        <time>2017-12-23T10:49:29Z</time>
      </trkpt>
      <trkpt lat="46.06027" lon="4.71176">
        <ele>193</ele>
        <time>2017-12-23T10:49:30Z</time>
      </trkpt>
      <trkpt lat="46.06031" lon="4.71182">
        <ele>193</ele>
        <time>2017-12-23T10:49:31Z</time>
      </trkpt>
      <trkpt lat="46.06034" lon="4.71188">
        <ele>193</ele>
        <time>2017-12-23T10:49:32Z</time>
      </trkpt>
      <trkpt lat="46.06036" lon="4.71195">
        <ele>193</ele>
        <time>2017-12-23T10:49:33Z</time>
      </trkpt>
      <trkpt lat="46.06038" lon="4.71202">
        <ele>193</ele>
        <time>2017-12-23T10:49:34Z</time>
      </trkpt>
      <trkpt lat="46.06041" lon="4.71209">
        <ele>193</ele>
        <time>2017-12-23T10:49:35Z</time>
      </trkpt>
      <trkpt lat="46.06044" lon="4.71216">
        <ele>193</ele>
        <time>2017-12-23T10:49:36Z</time>
      </trkpt>
      <trkpt lat="46.06046" lon="4.71222">
        <ele>193</ele>
        <time>2017-12-23T10:49:37Z</time>
      </trkpt>
      <trkpt lat="46.06049" lon="4.7123">
        <ele>193</ele>
        <time>2017-12-23T10:49:38Z</time>
      </trkpt>
      <trkpt lat="46.06051" lon="4.71236">
        <ele>193</ele>
        <time>2017-12-23T10:49:39Z</time>
      </trkpt>
      <trkpt lat="46.06054" lon="4.71242">
        <ele>193</ele>
        <time>2017-12-23T10:49:40Z</time>
      </trkpt>
      <trkpt lat="46.06056" lon="4.71249">
        <ele>193</ele>
        <time>2017-12-23T10:49:41Z</time>
      </trkpt>
      <trkpt lat="46.0606" lon="4.7126">
        <ele>193</ele>
        <time>2017-12-23T10:49:43Z</time>
      </trkpt>
      <trkpt lat="46.06062" lon="4.71267">
        <ele>193</ele>
        <time>2017-12-23T10:49:44Z</time>
      </trkpt>
      <trkpt lat="46.06064" lon="4.71274">
        <ele>193</ele>
        <time>2017-12-23T10:49:45Z</time>
      </trkpt>
      <trkpt lat="46.06066" lon="4.71281">
        <ele>193</ele>
        <time>2017-12-23T10:49:46Z</time>
      </trkpt>
      <trkpt lat="46.06068" lon="4.71287">
        <ele>193</ele>
        <time>2017-12-23T10:49:47Z</time>
      </trkpt>
      <trkpt lat="46.06071" lon="4.71293">
        <ele>193</ele>
        <time>2017-12-23T10:49:48Z</time>
      </trkpt>
      <trkpt lat="46.06073" lon="4.71298">
        <ele>193</ele>
        <time>2017-12-23T10:49:49Z</time>
      </trkpt>
      <trkpt lat="46.06076" lon="4.71305">
        <ele>193</ele>
        <time>2017-12-23T10:49:50Z</time>
      </trkpt>
      <trkpt lat="46.06078" lon="4.71314">
        <ele>193</ele>
        <time>2017-12-23T10:49:51Z</time>
      </trkpt>
      <trkpt lat="46.0608" lon="4.7132">
        <ele>193</ele>
        <time>2017-12-23T10:49:52Z</time>
      </trkpt>
      <trkpt lat="46.06083" lon="4.71326">
        <ele>193</ele>
        <time>2017-12-23T10:49:53Z</time>
      </trkpt>
      <trkpt lat="46.06085" lon="4.71333">
        <ele>193</ele>
        <time>2017-12-23T10:49:54Z</time>
      </trkpt>
      <trkpt lat="46.06087" lon="4.7134">
        <ele>193</ele>
        <time>2017-12-23T10:49:55Z</time>
      </trkpt>
      <trkpt lat="46.06089" lon="4.71346">
        <ele>193</ele>
        <time>2017-12-23T10:49:56Z</time>
      </trkpt>
      <trkpt lat="46.06092" lon="4.71353">
        <ele>193</ele>
        <time>2017-12-23T10:49:57Z</time>
      </trkpt>
      <trkpt lat="46.06094" lon="4.7136">
        <ele>193</ele>
        <time>2017-12-23T10:49:58Z</time>
      </trkpt>
      <trkpt lat="46.06096" lon="4.71367">
        <ele>193</ele>
        <time>2017-12-23T10:49:59Z</time>
      </trkpt>
      <trkpt lat="46.06098" lon="4.71375">
        <ele>193</ele>
        <time>2017-12-23T10:50:00Z</time>
      </trkpt>
      <trkpt lat="46.06101" lon="4.71382">
        <ele>193</ele>
        <time>2017-12-23T10:50:01Z</time>
      </trkpt>
      <trkpt lat="46.06104" lon="4.71389">
        <ele>193</ele>
        <time>2017-12-23T10:50:02Z</time>
      </trkpt>
      <trkpt lat="46.06105" lon="4.71397">
        <ele>193</ele>
        <time>2017-12-23T10:50:03Z</time>
      </trkpt>
      <trkpt lat="46.06108" lon="4.71404">
        <ele>193</ele>
        <time>2017-12-23T10:50:04Z</time>
      </trkpt>
      <trkpt lat="46.0611" lon="4.71411">
        <ele>193</ele>
        <time>2017-12-23T10:50:05Z</time>
      </trkpt>
      <trkpt lat="46.06112" lon="4.71418">
        <ele>193</ele>
        <time>2017-12-23T10:50:06Z</time>
      </trkpt>
      <trkpt lat="46.06114" lon="4.71425">
        <ele>193</ele>
        <time>2017-12-23T10:50:07Z</time>
      </trkpt>
      <trkpt lat="46.06115" lon="4.71433">
        <ele>193</ele>
        <time>2017-12-23T10:50:08Z</time>
      </trkpt>
      <trkpt lat="46.06117" lon="4.7144">
        <ele>193</ele>
        <time>2017-12-23T10:50:09Z</time>
      </trkpt>
      <trkpt lat="46.06118" lon="4.71447">
        <ele>193</ele>
        <time>2017-12-23T10:50:10Z</time>
      </trkpt>
      <trkpt lat="46.0612" lon="4.71453">
        <ele>193</ele>
        <time>2017-12-23T10:50:11Z</time>
      </trkpt>
      <trkpt lat="46.06122" lon="4.71459">
        <ele>193</ele>
        <time>2017-12-23T10:50:12Z</time>
      </trkpt>
      <trkpt lat="46.06124" lon="4.71466">
        <ele>193</ele>
        <time>2017-12-23T10:50:13Z</time>
      </trkpt>
      <trkpt lat="46.06125" lon="4.71475">
        <ele>192</ele>
        <time>2017-12-23T10:50:14Z</time>
      </trkpt>
      <trkpt lat="46.06126" lon="4.71482">
        <ele>192</ele>
        <time>2017-12-23T10:50:15Z</time>
      </trkpt>
      <trkpt lat="46.06128" lon="4.71489">
        <ele>192</ele>
        <time>2017-12-23T10:50:16Z</time>
      </trkpt>
      <trkpt lat="46.06131" lon="4.71496">
        <ele>192</ele>
        <time>2017-12-23T10:50:17Z</time>
      </trkpt>
      <trkpt lat="46.06133" lon="4.71503">
        <ele>192</ele>
        <time>2017-12-23T10:50:18Z</time>
      </trkpt>
      <trkpt lat="46.06136" lon="4.7151">
        <ele>192</ele>
        <time>2017-12-23T10:50:19Z</time>
      </trkpt>
      <trkpt lat="46.0614" lon="4.71517">
        <ele>192</ele>
        <time>2017-12-23T10:50:20Z</time>
      </trkpt>
      <trkpt lat="46.06143" lon="4.71524">
        <ele>192</ele>
        <time>2017-12-23T10:50:21Z</time>
      </trkpt>
      <trkpt lat="46.06147" lon="4.7153">
        <ele>192</ele>
        <time>2017-12-23T10:50:22Z</time>
      </trkpt>
      <trkpt lat="46.06152" lon="4.71536">
        <ele>192</ele>
        <time>2017-12-23T10:50:23Z</time>
      </trkpt>
      <trkpt lat="46.06157" lon="4.71542">
        <ele>192</ele>
        <time>2017-12-23T10:50:24Z</time>
      </trkpt>
      <trkpt lat="46.06161" lon="4.71547">
        <ele>192</ele>
        <time>2017-12-23T10:50:25Z</time>
      </trkpt>
      <trkpt lat="46.06166" lon="4.71553">
        <ele>192</ele>
        <time>2017-12-23T10:50:26Z</time>
      </trkpt>
      <trkpt lat="46.06171" lon="4.71558">
        <ele>191</ele>
        <time>2017-12-23T10:50:27Z</time>
      </trkpt>
      <trkpt lat="46.06175" lon="4.71563">
        <ele>191</ele>
        <time>2017-12-23T10:50:28Z</time>
      </trkpt>
      <trkpt lat="46.06179" lon="4.71569">
        <ele>191</ele>
        <time>2017-12-23T10:50:29Z</time>
      </trkpt>
      <trkpt lat="46.06183" lon="4.71574">
        <ele>191</ele>
        <time>2017-12-23T10:50:30Z</time>
      </trkpt>
      <trkpt lat="46.06187" lon="4.7158">
        <ele>191</ele>
        <time>2017-12-23T10:50:31Z</time>
      </trkpt>
      <trkpt lat="46.06192" lon="4.71585">
        <ele>191</ele>
        <time>2017-12-23T10:50:32Z</time>
      </trkpt>
      <trkpt lat="46.06196" lon="4.7159">
        <ele>191</ele>
        <time>2017-12-23T10:50:33Z</time>
      </trkpt>
      <trkpt lat="46.062" lon="4.71596">
        <ele>191</ele>
        <time>2017-12-23T10:50:34Z</time>
      </trkpt>
      <trkpt lat="46.06204" lon="4.71602">
        <ele>191</ele>
        <time>2017-12-23T10:50:35Z</time>
      </trkpt>
      <trkpt lat="46.06208" lon="4.71607">
        <ele>191</ele>
        <time>2017-12-23T10:50:36Z</time>
      </trkpt>
      <trkpt lat="46.06211" lon="4.71612">
        <ele>191</ele>
        <time>2017-12-23T10:50:37Z</time>
      </trkpt>
      <trkpt lat="46.06215" lon="4.71617">
        <ele>191</ele>
        <time>2017-12-23T10:50:38Z</time>
      </trkpt>
      <trkpt lat="46.06219" lon="4.71623">
        <ele>191</ele>
        <time>2017-12-23T10:50:39Z</time>
      </trkpt>
      <trkpt lat="46.06222" lon="4.7163">
        <ele>191</ele>
        <time>2017-12-23T10:50:40Z</time>
      </trkpt>
      <trkpt lat="46.06226" lon="4.71637">
        <ele>191</ele>
        <time>2017-12-23T10:50:41Z</time>
      </trkpt>
      <trkpt lat="46.0623" lon="4.71643">
        <ele>191</ele>
        <time>2017-12-23T10:50:42Z</time>
      </trkpt>
      <trkpt lat="46.06233" lon="4.7165">
        <ele>191</ele>
        <time>2017-12-23T10:50:43Z</time>
      </trkpt>
      <trkpt lat="46.06237" lon="4.71657">
        <ele>191</ele>
        <time>2017-12-23T10:50:44Z</time>
      </trkpt>
      <trkpt lat="46.0624" lon="4.71668">
        <ele>191</ele>
        <time>2017-12-23T10:50:45Z</time>
      </trkpt>
      <trkpt lat="46.06243" lon="4.71676">
        <ele>191</ele>
        <time>2017-12-23T10:50:46Z</time>
      </trkpt>
      <trkpt lat="46.06245" lon="4.71684">
        <ele>191</ele>
        <time>2017-12-23T10:50:47Z</time>
      </trkpt>
      <trkpt lat="46.06248" lon="4.71692">
        <ele>191</ele>
        <time>2017-12-23T10:50:48Z</time>
      </trkpt>
      <trkpt lat="46.0625" lon="4.717">
        <ele>190</ele>
        <time>2017-12-23T10:50:49Z</time>
      </trkpt>
      <trkpt lat="46.06253" lon="4.71706">
        <ele>190</ele>
        <time>2017-12-23T10:50:50Z</time>
      </trkpt>
      <trkpt lat="46.06256" lon="4.71712">
        <ele>190</ele>
        <time>2017-12-23T10:50:51Z</time>
      </trkpt>
      <trkpt lat="46.06258" lon="4.7172">
        <ele>190</ele>
        <time>2017-12-23T10:50:52Z</time>
      </trkpt>
      <trkpt lat="46.0626" lon="4.71727">
        <ele>190</ele>
        <time>2017-12-23T10:50:53Z</time>
      </trkpt>
      <trkpt lat="46.06262" lon="4.71735">
        <ele>190</ele>
        <time>2017-12-23T10:50:54Z</time>
      </trkpt>
      <trkpt lat="46.06264" lon="4.71741">
        <ele>190</ele>
        <time>2017-12-23T10:50:55Z</time>
      </trkpt>
      <trkpt lat="46.06267" lon="4.71748">
        <ele>190</ele>
        <time>2017-12-23T10:50:56Z</time>
      </trkpt>
      <trkpt lat="46.06269" lon="4.71755">
        <ele>190</ele>
        <time>2017-12-23T10:50:57Z</time>
      </trkpt>
      <trkpt lat="46.06272" lon="4.71762">
        <ele>190</ele>
        <time>2017-12-23T10:50:58Z</time>
      </trkpt>
      <trkpt lat="46.06273" lon="4.7177">
        <ele>190</ele>
        <time>2017-12-23T10:50:59Z</time>
      </trkpt>
      <trkpt lat="46.06275" lon="4.71776">
        <ele>190</ele>
        <time>2017-12-23T10:51:00Z</time>
      </trkpt>
      <trkpt lat="46.06277" lon="4.71786">
        <ele>190</ele>
        <time>2017-12-23T10:51:01Z</time>
      </trkpt>
      <trkpt lat="46.06278" lon="4.71792">
        <ele>190</ele>
        <time>2017-12-23T10:51:02Z</time>
      </trkpt>
      <trkpt lat="46.06282" lon="4.71798">
        <ele>190</ele>
        <time>2017-12-23T10:51:03Z</time>
      </trkpt>
      <trkpt lat="46.06284" lon="4.71806">
        <ele>190</ele>
        <time>2017-12-23T10:51:04Z</time>
      </trkpt>
      <trkpt lat="46.06285" lon="4.71813">
        <ele>189</ele>
        <time>2017-12-23T10:51:05Z</time>
      </trkpt>
      <trkpt lat="46.06288" lon="4.71821">
        <ele>189</ele>
        <time>2017-12-23T10:51:06Z</time>
      </trkpt>
      <trkpt lat="46.0629" lon="4.71829">
        <ele>189</ele>
        <time>2017-12-23T10:51:07Z</time>
      </trkpt>
      <trkpt lat="46.06292" lon="4.71836">
        <ele>189</ele>
        <time>2017-12-23T10:51:08Z</time>
      </trkpt>
      <trkpt lat="46.06294" lon="4.71844">
        <ele>189</ele>
        <time>2017-12-23T10:51:09Z</time>
      </trkpt>
      <trkpt lat="46.06297" lon="4.71852">
        <ele>189</ele>
        <time>2017-12-23T10:51:10Z</time>
      </trkpt>
      <trkpt lat="46.063" lon="4.71861">
        <ele>189</ele>
        <time>2017-12-23T10:51:11Z</time>
      </trkpt>
      <trkpt lat="46.06302" lon="4.7187">
        <ele>189</ele>
        <time>2017-12-23T10:51:12Z</time>
      </trkpt>
      <trkpt lat="46.06305" lon="4.71879">
        <ele>189</ele>
        <time>2017-12-23T10:51:13Z</time>
      </trkpt>
      <trkpt lat="46.06307" lon="4.71887">
        <ele>189</ele>
        <time>2017-12-23T10:51:14Z</time>
      </trkpt>
      <trkpt lat="46.06309" lon="4.71895">
        <ele>189</ele>
        <time>2017-12-23T10:51:15Z</time>
      </trkpt>
      <trkpt lat="46.0631" lon="4.71905">
        <ele>189</ele>
        <time>2017-12-23T10:51:16Z</time>
      </trkpt>
      <trkpt lat="46.06313" lon="4.71913">
        <ele>189</ele>
        <time>2017-12-23T10:51:17Z</time>
      </trkpt>
      <trkpt lat="46.06314" lon="4.7192">
        <ele>190</ele>
        <time>2017-12-23T10:51:18Z</time>
      </trkpt>
      <trkpt lat="46.06316" lon="4.71926">
        <ele>190</ele>
        <time>2017-12-23T10:51:19Z</time>
      </trkpt>
      <trkpt lat="46.06319" lon="4.71933">
        <ele>190</ele>
        <time>2017-12-23T10:51:20Z</time>
      </trkpt>
      <trkpt lat="46.0632" lon="4.71939">
        <ele>190</ele>
        <time>2017-12-23T10:51:21Z</time>
      </trkpt>
      <trkpt lat="46.06321" lon="4.71946">
        <ele>190</ele>
        <time>2017-12-23T10:51:22Z</time>
      </trkpt>
      <trkpt lat="46.06324" lon="4.71957">
        <ele>190</ele>
        <time>2017-12-23T10:51:24Z</time>
      </trkpt>
      <trkpt lat="46.06326" lon="4.71963">
        <ele>190</ele>
        <time>2017-12-23T10:51:25Z</time>
      </trkpt>
      <trkpt lat="46.06327" lon="4.71969">
        <ele>190</ele>
        <time>2017-12-23T10:51:26Z</time>
      </trkpt>
      <trkpt lat="46.0633" lon="4.71976">
        <ele>190</ele>
        <time>2017-12-23T10:51:27Z</time>
      </trkpt>
      <trkpt lat="46.06332" lon="4.71982">
        <ele>190</ele>
        <time>2017-12-23T10:51:28Z</time>
      </trkpt>
      <trkpt lat="46.06334" lon="4.71989">
        <ele>189</ele>
        <time>2017-12-23T10:51:29Z</time>
      </trkpt>
      <trkpt lat="46.06335" lon="4.71996">
        <ele>189</ele>
        <time>2017-12-23T10:51:30Z</time>
      </trkpt>
      <trkpt lat="46.06336" lon="4.72004">
        <ele>189</ele>
        <time>2017-12-23T10:51:31Z</time>
      </trkpt>
      <trkpt lat="46.06338" lon="4.72011">
        <ele>189</ele>
        <time>2017-12-23T10:51:32Z</time>
      </trkpt>
      <trkpt lat="46.0634" lon="4.72019">
        <ele>189</ele>
        <time>2017-12-23T10:51:33Z</time>
      </trkpt>
      <trkpt lat="46.06342" lon="4.72026">
        <ele>189</ele>
        <time>2017-12-23T10:51:34Z</time>
      </trkpt>
      <trkpt lat="46.06345" lon="4.72033">
        <ele>189</ele>
        <time>2017-12-23T10:51:35Z</time>
      </trkpt>
      <trkpt lat="46.06346" lon="4.7204">
        <ele>189</ele>
        <time>2017-12-23T10:51:36Z</time>
      </trkpt>
      <trkpt lat="46.06349" lon="4.72046">
        <ele>189</ele>
        <time>2017-12-23T10:51:37Z</time>
      </trkpt>
      <trkpt lat="46.06351" lon="4.72052">
        <ele>189</ele>
        <time>2017-12-23T10:51:38Z</time>
      </trkpt>
      <trkpt lat="46.06353" lon="4.72061">
        <ele>189</ele>
        <time>2017-12-23T10:51:39Z</time>
      </trkpt>
      <trkpt lat="46.06355" lon="4.72068">
        <ele>189</ele>
        <time>2017-12-23T10:51:40Z</time>
      </trkpt>
      <trkpt lat="46.06357" lon="4.72076">
        <ele>189</ele>
        <time>2017-12-23T10:51:41Z</time>
      </trkpt>
      <trkpt lat="46.06359" lon="4.72083">
        <ele>189</ele>
        <time>2017-12-23T10:51:42Z</time>
      </trkpt>
      <trkpt lat="46.06361" lon="4.72092">
        <ele>189</ele>
        <time>2017-12-23T10:51:43Z</time>
      </trkpt>
      <trkpt lat="46.06363" lon="4.72099">
        <ele>189</ele>
        <time>2017-12-23T10:51:44Z</time>
      </trkpt>
      <trkpt lat="46.06365" lon="4.72108">
        <ele>189</ele>
        <time>2017-12-23T10:51:45Z</time>
      </trkpt>
      <trkpt lat="46.06367" lon="4.72115">
        <ele>189</ele>
        <time>2017-12-23T10:51:46Z</time>
      </trkpt>
      <trkpt lat="46.06369" lon="4.72122">
        <ele>189</ele>
        <time>2017-12-23T10:51:47Z</time>
      </trkpt>
      <trkpt lat="46.06371" lon="4.72128">
        <ele>189</ele>
        <time>2017-12-23T10:51:48Z</time>
      </trkpt>
      <trkpt lat="46.06373" lon="4.72134">
        <ele>189</ele>
        <time>2017-12-23T10:51:49Z</time>
      </trkpt>
      <trkpt lat="46.06376" lon="4.7214">
        <ele>189</ele>
        <time>2017-12-23T10:51:50Z</time>
      </trkpt>
      <trkpt lat="46.06378" lon="4.72146">
        <ele>189</ele>
        <time>2017-12-23T10:51:51Z</time>
      </trkpt>
      <trkpt lat="46.0638" lon="4.72152">
        <ele>189</ele>
        <time>2017-12-23T10:51:52Z</time>
      </trkpt>
      <trkpt lat="46.06383" lon="4.72158">
        <ele>189</ele>
        <time>2017-12-23T10:51:53Z</time>
      </trkpt>
      <trkpt lat="46.06385" lon="4.72165">
        <ele>189</ele>
        <time>2017-12-23T10:51:54Z</time>
      </trkpt>
      <trkpt lat="46.06387" lon="4.72169">
        <ele>189</ele>
        <time>2017-12-23T10:51:55Z</time>
      </trkpt>
      <trkpt lat="46.06392" lon="4.7218">
        <ele>189</ele>
        <time>2017-12-23T10:51:57Z</time>
      </trkpt>
      <trkpt lat="46.06394" lon="4.72185">
        <ele>189</ele>
        <time>2017-12-23T10:51:58Z</time>
      </trkpt>
      <trkpt lat="46.06396" lon="4.72191">
        <ele>189</ele>
        <time>2017-12-23T10:51:59Z</time>
      </trkpt>
      <trkpt lat="46.06397" lon="4.72197">
        <ele>189</ele>
        <time>2017-12-23T10:52:00Z</time>
      </trkpt>
      <trkpt lat="46.064" lon="4.72208">
        <ele>190</ele>
        <time>2017-12-23T10:52:02Z</time>
      </trkpt>
      <trkpt lat="46.06402" lon="4.72212">
        <ele>190</ele>
        <time>2017-12-23T10:52:03Z</time>
      </trkpt>
      <trkpt lat="46.06405" lon="4.7222">
        <ele>190</ele>
        <time>2017-12-23T10:52:05Z</time>
      </trkpt>
      <trkpt lat="46.06407" lon="4.72225">
        <ele>190</ele>
        <time>2017-12-23T10:52:06Z</time>
      </trkpt>
      <trkpt lat="46.0641" lon="4.72235">
        <ele>190</ele>
        <time>2017-12-23T10:52:08Z</time>
      </trkpt>
      <trkpt lat="46.06411" lon="4.72241">
        <ele>189</ele>
        <time>2017-12-23T10:52:09Z</time>
      </trkpt>
      <trkpt lat="46.06414" lon="4.72249">
        <ele>189</ele>
        <time>2017-12-23T10:52:11Z</time>
      </trkpt>
      <trkpt lat="46.06416" lon="4.72253">
        <ele>189</ele>
        <time>2017-12-23T10:52:12Z</time>
      </trkpt>
      <trkpt lat="46.06418" lon="4.72265">
        <ele>189</ele>
        <time>2017-12-23T10:52:17Z</time>
      </trkpt>
      <trkpt lat="46.06418" lon="4.72268">
        <ele>190</ele>
        <time>2017-12-23T10:52:18Z</time>
      </trkpt>
      <trkpt lat="46.06418" lon="4.72277">
        <ele>190</ele>
        <time>2017-12-23T10:52:20Z</time>
      </trkpt>
      <trkpt lat="46.0642" lon="4.72281">
        <ele>190</ele>
        <time>2017-12-23T10:52:21Z</time>
      </trkpt>
      <trkpt lat="46.06427" lon="4.72287">
        <ele>190</ele>
        <time>2017-12-23T10:52:23Z</time>
      </trkpt>
      <trkpt lat="46.06431" lon="4.72288">
        <ele>190</ele>
        <time>2017-12-23T10:52:24Z</time>
      </trkpt>
      <trkpt lat="46.06438" lon="4.72284">
        <ele>190</ele>
        <time>2017-12-23T10:52:25Z</time>
      </trkpt>
      <trkpt lat="46.06443" lon="4.72287">
        <ele>190</ele>
        <time>2017-12-23T10:52:26Z</time>
      </trkpt>
      <trkpt lat="46.06447" lon="4.7229">
        <ele>190</ele>
        <time>2017-12-23T10:52:27Z</time>
      </trkpt>
      <trkpt lat="46.06451" lon="4.72294">
        <ele>190</ele>
        <time>2017-12-23T10:52:28Z</time>
      </trkpt>
      <trkpt lat="46.06454" lon="4.72301">
        <ele>190</ele>
        <time>2017-12-23T10:52:29Z</time>
      </trkpt>
      <trkpt lat="46.06455" lon="4.72308">
        <ele>191</ele>
        <time>2017-12-23T10:52:30Z</time>
      </trkpt>
      <trkpt lat="46.06453" lon="4.72319">
        <ele>191</ele>
        <time>2017-12-23T10:52:32Z</time>
      </trkpt>
      <trkpt lat="46.06453" lon="4.72324">
        <ele>191</ele>
        <time>2017-12-23T10:52:33Z</time>
      </trkpt>
      <trkpt lat="46.06455" lon="4.72334">
        <ele>194</ele>
        <time>2017-12-23T10:52:35Z</time>
      </trkpt>
      <trkpt lat="46.06457" lon="4.72339">
        <ele>194</ele>
        <time>2017-12-23T10:52:36Z</time>
      </trkpt>
      <trkpt lat="46.06461" lon="4.72349">
        <ele>194</ele>
        <time>2017-12-23T10:52:37Z</time>
      </trkpt>
      <trkpt lat="46.06461" lon="4.72354">
        <ele>194</ele>
        <time>2017-12-23T10:52:38Z</time>
      </trkpt>
      <trkpt lat="46.06457" lon="4.72363">
        <ele>194</ele>
        <time>2017-12-23T10:52:40Z</time>
      </trkpt>
      <trkpt lat="46.06455" lon="4.72369">
        <ele>194</ele>
        <time>2017-12-23T10:52:41Z</time>
      </trkpt>
      <trkpt lat="46.06451" lon="4.7238">
        <ele>195</ele>
        <time>2017-12-23T10:52:43Z</time>
      </trkpt>
      <trkpt lat="46.06446" lon="4.72385">
        <ele>195</ele>
        <time>2017-12-23T10:52:44Z</time>
      </trkpt>
      <trkpt lat="46.0644" lon="4.72394">
        <ele>195</ele>
        <time>2017-12-23T10:52:46Z</time>
      </trkpt>
      <trkpt lat="46.06437" lon="4.72399">
        <ele>195</ele>
        <time>2017-12-23T10:52:47Z</time>
      </trkpt>
      <trkpt lat="46.06431" lon="4.72407">
        <ele>195</ele>
        <time>2017-12-23T10:52:49Z</time>
      </trkpt>
      <trkpt lat="46.06431" lon="4.72413">
        <ele>195</ele>
        <time>2017-12-23T10:52:50Z</time>
      </trkpt>
      <trkpt lat="46.06428" lon="4.72424">
        <ele>196</ele>
        <time>2017-12-23T10:52:52Z</time>
      </trkpt>
      <trkpt lat="46.06428" lon="4.72429">
        <ele>196</ele>
        <time>2017-12-23T10:52:53Z</time>
      </trkpt>
      <trkpt lat="46.06424" lon="4.72439">
        <ele>197</ele>
        <time>2017-12-23T10:52:55Z</time>
      </trkpt>
      <trkpt lat="46.06421" lon="4.72442">
        <ele>197</ele>
        <time>2017-12-23T10:52:56Z</time>
      </trkpt>
      <trkpt lat="46.06413" lon="4.72449">
        <ele>197</ele>
        <time>2017-12-23T10:52:58Z</time>
      </trkpt>
      <trkpt lat="46.0641" lon="4.72451">
        <ele>197</ele>
        <time>2017-12-23T10:52:59Z</time>
      </trkpt>
      <trkpt lat="46.06404" lon="4.72458">
        <ele>197</ele>
        <time>2017-12-23T10:53:02Z</time>
      </trkpt>
      <trkpt lat="46.06402" lon="4.72462">
        <ele>197</ele>
        <time>2017-12-23T10:53:03Z</time>
      </trkpt>
      <trkpt lat="46.06399" lon="4.72471">
        <ele>198</ele>
        <time>2017-12-23T10:53:05Z</time>
      </trkpt>
      <trkpt lat="46.06399" lon="4.72477">
        <ele>198</ele>
        <time>2017-12-23T10:53:06Z</time>
      </trkpt>
      <trkpt lat="46.06401" lon="4.72483">
        <ele>198</ele>
        <time>2017-12-23T10:53:07Z</time>
      </trkpt>
      <trkpt lat="46.06406" lon="4.72488">
        <ele>198</ele>
        <time>2017-12-23T10:53:08Z</time>
      </trkpt>
      <trkpt lat="46.06409" lon="4.72495">
        <ele>199</ele>
        <time>2017-12-23T10:53:09Z</time>
      </trkpt>
      <trkpt lat="46.06411" lon="4.72502">
        <ele>199</ele>
        <time>2017-12-23T10:53:10Z</time>
      </trkpt>
      <trkpt lat="46.06413" lon="4.72508">
        <ele>199</ele>
        <time>2017-12-23T10:53:11Z</time>
      </trkpt>
      <trkpt lat="46.06414" lon="4.72515">
        <ele>198</ele>
        <time>2017-12-23T10:53:12Z</time>
      </trkpt>
      <trkpt lat="46.06415" lon="4.72525">
        <ele>197</ele>
        <time>2017-12-23T10:53:13Z</time>
      </trkpt>
      <trkpt lat="46.06417" lon="4.72533">
        <ele>197</ele>
        <time>2017-12-23T10:53:14Z</time>
      </trkpt>
      <trkpt lat="46.06419" lon="4.72542">
        <ele>196</ele>
        <time>2017-12-23T10:53:15Z</time>
      </trkpt>
      <trkpt lat="46.0642" lon="4.7255">
        <ele>196</ele>
        <time>2017-12-23T10:53:16Z</time>
      </trkpt>
      <trkpt lat="46.06423" lon="4.7256">
        <ele>195</ele>
        <time>2017-12-23T10:53:17Z</time>
      </trkpt>
      <trkpt lat="46.06425" lon="4.72568">
        <ele>195</ele>
        <time>2017-12-23T10:53:18Z</time>
      </trkpt>
      <trkpt lat="46.06426" lon="4.72578">
        <ele>195</ele>
        <time>2017-12-23T10:53:19Z</time>
      </trkpt>
      <trkpt lat="46.06428" lon="4.72588">
        <ele>194</ele>
        <time>2017-12-23T10:53:20Z</time>
      </trkpt>
      <trkpt lat="46.06429" lon="4.72596">
        <ele>194</ele>
        <time>2017-12-23T10:53:21Z</time>
      </trkpt>
      <trkpt lat="46.06431" lon="4.72605">
        <ele>193</ele>
        <time>2017-12-23T10:53:22Z</time>
      </trkpt>
      <trkpt lat="46.06434" lon="4.72613">
        <ele>193</ele>
        <time>2017-12-23T10:53:23Z</time>
      </trkpt>
      <trkpt lat="46.06435" lon="4.72622">
        <ele>193</ele>
        <time>2017-12-23T10:53:24Z</time>
      </trkpt>
      <trkpt lat="46.06436" lon="4.72633">
        <ele>192</ele>
        <time>2017-12-23T10:53:25Z</time>
      </trkpt>
      <trkpt lat="46.06438" lon="4.72643">
        <ele>192</ele>
        <time>2017-12-23T10:53:26Z</time>
      </trkpt>
      <trkpt lat="46.06439" lon="4.72652">
        <ele>192</ele>
        <time>2017-12-23T10:53:27Z</time>
      </trkpt>
      <trkpt lat="46.0644" lon="4.72662">
        <ele>192</ele>
        <time>2017-12-23T10:53:28Z</time>
      </trkpt>
      <trkpt lat="46.06442" lon="4.72671">
        <ele>191</ele>
        <time>2017-12-23T10:53:29Z</time>
      </trkpt>
      <trkpt lat="46.06444" lon="4.7268">
        <ele>190</ele>
        <time>2017-12-23T10:53:30Z</time>
      </trkpt>
      <trkpt lat="46.06446" lon="4.7269">
        <ele>190</ele>
        <time>2017-12-23T10:53:31Z</time>
      </trkpt>
      <trkpt lat="46.06447" lon="4.72699">
        <ele>190</ele>
        <time>2017-12-23T10:53:32Z</time>
      </trkpt>
      <trkpt lat="46.06449" lon="4.7271">
        <ele>190</ele>
        <time>2017-12-23T10:53:33Z</time>
      </trkpt>
      <trkpt lat="46.0645" lon="4.72721">
        <ele>190</ele>
        <time>2017-12-23T10:53:34Z</time>
      </trkpt>
      <trkpt lat="46.06451" lon="4.72731">
        <ele>189</ele>
        <time>2017-12-23T10:53:35Z</time>
      </trkpt>
      <trkpt lat="46.06453" lon="4.7274">
        <ele>189</ele>
        <time>2017-12-23T10:53:36Z</time>
      </trkpt>
      <trkpt lat="46.06453" lon="4.72753">
        <ele>188</ele>
        <time>2017-12-23T10:53:37Z</time>
      </trkpt>
      <trkpt lat="46.06454" lon="4.72762">
        <ele>188</ele>
        <time>2017-12-23T10:53:38Z</time>
      </trkpt>
      <trkpt lat="46.06456" lon="4.72771">
        <ele>188</ele>
        <time>2017-12-23T10:53:39Z</time>
      </trkpt>
      <trkpt lat="46.06458" lon="4.7278">
        <ele>188</ele>
        <time>2017-12-23T10:53:40Z</time>
      </trkpt>
      <trkpt lat="46.06459" lon="4.72788">
        <ele>188</ele>
        <time>2017-12-23T10:53:41Z</time>
      </trkpt>
      <trkpt lat="46.06461" lon="4.72798">
        <ele>188</ele>
        <time>2017-12-23T10:53:42Z</time>
      </trkpt>
      <trkpt lat="46.06463" lon="4.72807">
        <ele>188</ele>
        <time>2017-12-23T10:53:43Z</time>
      </trkpt>
      <trkpt lat="46.06464" lon="4.72817">
        <ele>188</ele>
        <time>2017-12-23T10:53:44Z</time>
      </trkpt>
      <trkpt lat="46.06465" lon="4.72825">
        <ele>188</ele>
        <time>2017-12-23T10:53:45Z</time>
      </trkpt>
      <trkpt lat="46.06466" lon="4.72834">
        <ele>188</ele>
        <time>2017-12-23T10:53:46Z</time>
      </trkpt>
      <trkpt lat="46.06467" lon="4.72842">
        <ele>188</ele>
        <time>2017-12-23T10:53:47Z</time>
      </trkpt>
      <trkpt lat="46.06468" lon="4.72851">
        <ele>188</ele>
        <time>2017-12-23T10:53:48Z</time>
      </trkpt>
      <trkpt lat="46.0647" lon="4.7286">
        <ele>188</ele>
        <time>2017-12-23T10:53:49Z</time>
      </trkpt>
      <trkpt lat="46.06472" lon="4.72868">
        <ele>188</ele>
        <time>2017-12-23T10:53:50Z</time>
      </trkpt>
      <trkpt lat="46.06473" lon="4.72877">
        <ele>188</ele>
        <time>2017-12-23T10:53:51Z</time>
      </trkpt>
      <trkpt lat="46.06475" lon="4.72885">
        <ele>188</ele>
        <time>2017-12-23T10:53:52Z</time>
      </trkpt>
      <trkpt lat="46.06476" lon="4.72894">
        <ele>188</ele>
        <time>2017-12-23T10:53:53Z</time>
      </trkpt>
      <trkpt lat="46.06478" lon="4.72904">
        <ele>188</ele>
        <time>2017-12-23T10:53:54Z</time>
      </trkpt>
      <trkpt lat="46.06479" lon="4.72912">
        <ele>189</ele>
        <time>2017-12-23T10:53:55Z</time>
      </trkpt>
      <trkpt lat="46.06481" lon="4.72921">
        <ele>189</ele>
        <time>2017-12-23T10:53:56Z</time>
      </trkpt>
      <trkpt lat="46.06484" lon="4.72928">
        <ele>189</ele>
        <time>2017-12-23T10:53:57Z</time>
      </trkpt>
      <trkpt lat="46.06484" lon="4.72937">
        <ele>189</ele>
        <time>2017-12-23T10:53:58Z</time>
      </trkpt>
      <trkpt lat="46.06486" lon="4.72946">
        <ele>188</ele>
        <time>2017-12-23T10:53:59Z</time>
      </trkpt>
      <trkpt lat="46.06487" lon="4.72953">
        <ele>188</ele>
        <time>2017-12-23T10:54:00Z</time>
      </trkpt>
      <trkpt lat="46.06489" lon="4.7296">
        <ele>188</ele>
        <time>2017-12-23T10:54:01Z</time>
      </trkpt>
      <trkpt lat="46.06489" lon="4.72967">
        <ele>189</ele>
        <time>2017-12-23T10:54:02Z</time>
      </trkpt>
      <trkpt lat="46.06488" lon="4.72974">
        <ele>189</ele>
        <time>2017-12-23T10:54:03Z</time>
      </trkpt>
      <trkpt lat="46.06486" lon="4.7298">
        <ele>189</ele>
        <time>2017-12-23T10:54:04Z</time>
      </trkpt>
      <trkpt lat="46.06485" lon="4.72987">
        <ele>189</ele>
        <time>2017-12-23T10:54:05Z</time>
      </trkpt>
      <trkpt lat="46.06486" lon="4.72995">
        <ele>189</ele>
        <time>2017-12-23T10:54:06Z</time>
      </trkpt>
      <trkpt lat="46.06489" lon="4.73001">
        <ele>189</ele>
        <time>2017-12-23T10:54:07Z</time>
      </trkpt>
      <trkpt lat="46.06493" lon="4.73006">
        <ele>189</ele>
        <time>2017-12-23T10:54:08Z</time>
      </trkpt>
      <trkpt lat="46.06497" lon="4.73011">
        <ele>189</ele>
        <time>2017-12-23T10:54:09Z</time>
      </trkpt>
      <trkpt lat="46.065" lon="4.73017">
        <ele>189</ele>
        <time>2017-12-23T10:54:10Z</time>
      </trkpt>
      <trkpt lat="46.06504" lon="4.73023">
        <ele>189</ele>
        <time>2017-12-23T10:54:11Z</time>
      </trkpt>
      <trkpt lat="46.06507" lon="4.7303">
        <ele>189</ele>
        <time>2017-12-23T10:54:12Z</time>
      </trkpt>
      <trkpt lat="46.0651" lon="4.73038">
        <ele>189</ele>
        <time>2017-12-23T10:54:13Z</time>
      </trkpt>
      <trkpt lat="46.06513" lon="4.73047">
        <ele>188</ele>
        <time>2017-12-23T10:54:14Z</time>
      </trkpt>
      <trkpt lat="46.06517" lon="4.73055">
        <ele>188</ele>
        <time>2017-12-23T10:54:15Z</time>
      </trkpt>
      <trkpt lat="46.0652" lon="4.73063">
        <ele>188</ele>
        <time>2017-12-23T10:54:16Z</time>
      </trkpt>
      <trkpt lat="46.06524" lon="4.7307">
        <ele>188</ele>
        <time>2017-12-23T10:54:17Z</time>
      </trkpt>
      <trkpt lat="46.06526" lon="4.73078">
        <ele>188</ele>
        <time>2017-12-23T10:54:18Z</time>
      </trkpt>
      <trkpt lat="46.06529" lon="4.73086">
        <ele>188</ele>
        <time>2017-12-23T10:54:19Z</time>
      </trkpt>
      <trkpt lat="46.06533" lon="4.73094">
        <ele>188</ele>
        <time>2017-12-23T10:54:20Z</time>
      </trkpt>
      <trkpt lat="46.06536" lon="4.73102">
        <ele>188</ele>
        <time>2017-12-23T10:54:21Z</time>
      </trkpt>
      <trkpt lat="46.0654" lon="4.73109">
        <ele>188</ele>
        <time>2017-12-23T10:54:22Z</time>
      </trkpt>
      <trkpt lat="46.06542" lon="4.73118">
        <ele>187</ele>
        <time>2017-12-23T10:54:23Z</time>
      </trkpt>
      <trkpt lat="46.06546" lon="4.73126">
        <ele>187</ele>
        <time>2017-12-23T10:54:24Z</time>
      </trkpt>
      <trkpt lat="46.06548" lon="4.73133">
        <ele>187</ele>
        <time>2017-12-23T10:54:25Z</time>
      </trkpt>
      <trkpt lat="46.0655" lon="4.73141">
        <ele>187</ele>
        <time>2017-12-23T10:54:26Z</time>
      </trkpt>
      <trkpt lat="46.06551" lon="4.73149">
        <ele>187</ele>
        <time>2017-12-23T10:54:27Z</time>
      </trkpt>
      <trkpt lat="46.06552" lon="4.73157">
        <ele>187</ele>
        <time>2017-12-23T10:54:28Z</time>
      </trkpt>
      <trkpt lat="46.06553" lon="4.73166">
        <ele>187</ele>
        <time>2017-12-23T10:54:29Z</time>
      </trkpt>
      <trkpt lat="46.06553" lon="4.73174">
        <ele>187</ele>
        <time>2017-12-23T10:54:30Z</time>
      </trkpt>
      <trkpt lat="46.06554" lon="4.73182">
        <ele>187</ele>
        <time>2017-12-23T10:54:31Z</time>
      </trkpt>
      <trkpt lat="46.06555" lon="4.73191">
        <ele>186</ele>
        <time>2017-12-23T10:54:32Z</time>
      </trkpt>
      <trkpt lat="46.06555" lon="4.732">
        <ele>186</ele>
        <time>2017-12-23T10:54:33Z</time>
      </trkpt>
      <trkpt lat="46.06557" lon="4.73209">
        <ele>186</ele>
        <time>2017-12-23T10:54:34Z</time>
      </trkpt>
      <trkpt lat="46.06558" lon="4.7322">
        <ele>186</ele>
        <time>2017-12-23T10:54:35Z</time>
      </trkpt>
      <trkpt lat="46.06561" lon="4.7323">
        <ele>186</ele>
        <time>2017-12-23T10:54:36Z</time>
      </trkpt>
      <trkpt lat="46.06564" lon="4.73238">
        <ele>186</ele>
        <time>2017-12-23T10:54:37Z</time>
      </trkpt>
      <trkpt lat="46.06566" lon="4.73246">
        <ele>186</ele>
        <time>2017-12-23T10:54:38Z</time>
      </trkpt>
      <trkpt lat="46.06568" lon="4.73255">
        <ele>184</ele>
        <time>2017-12-23T10:54:39Z</time>
      </trkpt>
      <trkpt lat="46.06571" lon="4.73263">
        <ele>184</ele>
        <time>2017-12-23T10:54:40Z</time>
      </trkpt>
      <trkpt lat="46.06574" lon="4.73271">
        <ele>184</ele>
        <time>2017-12-23T10:54:41Z</time>
      </trkpt>
      <trkpt lat="46.06577" lon="4.73279">
        <ele>184</ele>
        <time>2017-12-23T10:54:42Z</time>
      </trkpt>
      <trkpt lat="46.0658" lon="4.73288">
        <ele>184</ele>
        <time>2017-12-23T10:54:43Z</time>
      </trkpt>
      <trkpt lat="46.06582" lon="4.73296">
        <ele>184</ele>
        <time>2017-12-23T10:54:44Z</time>
      </trkpt>
      <trkpt lat="46.06586" lon="4.73305">
        <ele>183</ele>
        <time>2017-12-23T10:54:45Z</time>
      </trkpt>
      <trkpt lat="46.06589" lon="4.73313">
        <ele>182</ele>
        <time>2017-12-23T10:54:46Z</time>
      </trkpt>
      <trkpt lat="46.0659" lon="4.73321">
        <ele>182</ele>
        <time>2017-12-23T10:54:47Z</time>
      </trkpt>
      <trkpt lat="46.06592" lon="4.7333">
        <ele>182</ele>
        <time>2017-12-23T10:54:48Z</time>
      </trkpt>
      <trkpt lat="46.06595" lon="4.73338">
        <ele>182</ele>
        <time>2017-12-23T10:54:49Z</time>
      </trkpt>
      <trkpt lat="46.06598" lon="4.73343">
        <ele>182</ele>
        <time>2017-12-23T10:54:50Z</time>
      </trkpt>
      <trkpt lat="46.06604" lon="4.73347">
        <ele>182</ele>
        <time>2017-12-23T10:54:51Z</time>
      </trkpt>
      <trkpt lat="46.0661" lon="4.73352">
        <ele>182</ele>
        <time>2017-12-23T10:54:52Z</time>
      </trkpt>
      <trkpt lat="46.06617" lon="4.73355">
        <ele>182</ele>
        <time>2017-12-23T10:54:53Z</time>
      </trkpt>
      <trkpt lat="46.06622" lon="4.73359">
        <ele>182</ele>
        <time>2017-12-23T10:54:54Z</time>
      </trkpt>
      <trkpt lat="46.06628" lon="4.73363">
        <ele>182</ele>
        <time>2017-12-23T10:54:55Z</time>
      </trkpt>
      <trkpt lat="46.06634" lon="4.73366">
        <ele>182</ele>
        <time>2017-12-23T10:54:56Z</time>
      </trkpt>
      <trkpt lat="46.06639" lon="4.7337">
        <ele>182</ele>
        <time>2017-12-23T10:54:57Z</time>
      </trkpt>
      <trkpt lat="46.06644" lon="4.73373">
        <ele>182</ele>
        <time>2017-12-23T10:54:58Z</time>
      </trkpt>
      <trkpt lat="46.0665" lon="4.73378">
        <ele>182</ele>
        <time>2017-12-23T10:54:59Z</time>
      </trkpt>
      <trkpt lat="46.06655" lon="4.73385">
        <ele>182</ele>
        <time>2017-12-23T10:55:00Z</time>
      </trkpt>
      <trkpt lat="46.06659" lon="4.73391">
        <ele>182</ele>
        <time>2017-12-23T10:55:01Z</time>
      </trkpt>
      <trkpt lat="46.06664" lon="4.73398">
        <ele>182</ele>
        <time>2017-12-23T10:55:02Z</time>
      </trkpt>
      <trkpt lat="46.06668" lon="4.73405">
        <ele>181</ele>
        <time>2017-12-23T10:55:03Z</time>
      </trkpt>
      <trkpt lat="46.06674" lon="4.73413">
        <ele>182</ele>
        <time>2017-12-23T10:55:04Z</time>
      </trkpt>
      <trkpt lat="46.06679" lon="4.7342">
        <ele>181</ele>
        <time>2017-12-23T10:55:05Z</time>
      </trkpt>
      <trkpt lat="46.06683" lon="4.73427">
        <ele>181</ele>
        <time>2017-12-23T10:55:06Z</time>
      </trkpt>
      <trkpt lat="46.06688" lon="4.73432">
        <ele>181</ele>
        <time>2017-12-23T10:55:07Z</time>
      </trkpt>
      <trkpt lat="46.06692" lon="4.73438">
        <ele>181</ele>
        <time>2017-12-23T10:55:08Z</time>
      </trkpt>
      <trkpt lat="46.06697" lon="4.73444">
        <ele>181</ele>
        <time>2017-12-23T10:55:09Z</time>
      </trkpt>
      <trkpt lat="46.067" lon="4.73451">
        <ele>180</ele>
        <time>2017-12-23T10:55:10Z</time>
      </trkpt>
      <trkpt lat="46.06704" lon="4.73457">
        <ele>180</ele>
        <time>2017-12-23T10:55:11Z</time>
      </trkpt>
      <trkpt lat="46.06708" lon="4.73463">
        <ele>180</ele>
        <time>2017-12-23T10:55:12Z</time>
      </trkpt>
      <trkpt lat="46.06713" lon="4.73468">
        <ele>180</ele>
        <time>2017-12-23T10:55:13Z</time>
      </trkpt>
      <trkpt lat="46.06716" lon="4.73474">
        <ele>180</ele>
        <time>2017-12-23T10:55:14Z</time>
      </trkpt>
      <trkpt lat="46.0672" lon="4.73482">
        <ele>180</ele>
        <time>2017-12-23T10:55:15Z</time>
      </trkpt>
      <trkpt lat="46.06725" lon="4.73488">
        <ele>180</ele>
        <time>2017-12-23T10:55:16Z</time>
      </trkpt>
      <trkpt lat="46.0673" lon="4.73495">
        <ele>180</ele>
        <time>2017-12-23T10:55:17Z</time>
      </trkpt>
      <trkpt lat="46.06734" lon="4.73502">
        <ele>180</ele>
        <time>2017-12-23T10:55:18Z</time>
      </trkpt>
      <trkpt lat="46.06738" lon="4.73509">
        <ele>180</ele>
        <time>2017-12-23T10:55:19Z</time>
      </trkpt>
      <trkpt lat="46.06742" lon="4.73514">
        <ele>180</ele>
        <time>2017-12-23T10:55:20Z</time>
      </trkpt>
      <trkpt lat="46.06747" lon="4.73521">
        <ele>180</ele>
        <time>2017-12-23T10:55:21Z</time>
      </trkpt>
      <trkpt lat="46.06751" lon="4.73527">
        <ele>179</ele>
        <time>2017-12-23T10:55:22Z</time>
      </trkpt>
      <trkpt lat="46.06754" lon="4.73533">
        <ele>179</ele>
        <time>2017-12-23T10:55:23Z</time>
      </trkpt>
      <trkpt lat="46.06757" lon="4.7354">
        <ele>179</ele>
        <time>2017-12-23T10:55:24Z</time>
      </trkpt>
      <trkpt lat="46.06762" lon="4.73545">
        <ele>179</ele>
        <time>2017-12-23T10:55:25Z</time>
      </trkpt>
      <trkpt lat="46.06767" lon="4.73551">
        <ele>179</ele>
        <time>2017-12-23T10:55:26Z</time>
      </trkpt>
      <trkpt lat="46.0677" lon="4.73557">
        <ele>179</ele>
        <time>2017-12-23T10:55:27Z</time>
      </trkpt>
      <trkpt lat="46.06773" lon="4.73563">
        <ele>179</ele>
        <time>2017-12-23T10:55:28Z</time>
      </trkpt>
      <trkpt lat="46.06777" lon="4.73569">
        <ele>179</ele>
        <time>2017-12-23T10:55:29Z</time>
      </trkpt>
      <trkpt lat="46.0678" lon="4.73576">
        <ele>179</ele>
        <time>2017-12-23T10:55:30Z</time>
      </trkpt>
      <trkpt lat="46.06783" lon="4.73584">
        <ele>179</ele>
        <time>2017-12-23T10:55:31Z</time>
      </trkpt>
      <trkpt lat="46.06786" lon="4.73591">
        <ele>179</ele>
        <time>2017-12-23T10:55:32Z</time>
      </trkpt>
      <trkpt lat="46.06791" lon="4.73597">
        <ele>179</ele>
        <time>2017-12-23T10:55:33Z</time>
      </trkpt>
      <trkpt lat="46.06795" lon="4.73603">
        <ele>178</ele>
        <time>2017-12-23T10:55:34Z</time>
      </trkpt>
      <trkpt lat="46.06799" lon="4.73608">
        <ele>178</ele>
        <time>2017-12-23T10:55:35Z</time>
      </trkpt>
      <trkpt lat="46.06803" lon="4.73614">
        <ele>178</ele>
        <time>2017-12-23T10:55:36Z</time>
      </trkpt>
      <trkpt lat="46.06808" lon="4.7362">
        <ele>178</ele>
        <time>2017-12-23T10:55:37Z</time>
      </trkpt>
      <trkpt lat="46.06813" lon="4.73625">
        <ele>178</ele>
        <time>2017-12-23T10:55:38Z</time>
      </trkpt>
      <trkpt lat="46.06817" lon="4.7363">
        <ele>178</ele>
        <time>2017-12-23T10:55:39Z</time>
      </trkpt>
      <trkpt lat="46.06821" lon="4.73635">
        <ele>178</ele>
        <time>2017-12-23T10:55:40Z</time>
      </trkpt>
      <trkpt lat="46.06825" lon="4.73641">
        <ele>177</ele>
        <time>2017-12-23T10:55:41Z</time>
      </trkpt>
      <trkpt lat="46.0683" lon="4.73646">
        <ele>177</ele>
        <time>2017-12-23T10:55:42Z</time>
      </trkpt>
      <trkpt lat="46.06834" lon="4.7365">
        <ele>176</ele>
        <time>2017-12-23T10:55:43Z</time>
      </trkpt>
      <trkpt lat="46.06838" lon="4.73655">
        <ele>176</ele>
        <time>2017-12-23T10:55:44Z</time>
      </trkpt>
      <trkpt lat="46.06843" lon="4.7366">
        <ele>176</ele>
        <time>2017-12-23T10:55:45Z</time>
      </trkpt>
      <trkpt lat="46.06847" lon="4.73664">
        <ele>176</ele>
        <time>2017-12-23T10:55:46Z</time>
      </trkpt>
      <trkpt lat="46.06851" lon="4.73669">
        <ele>176</ele>
        <time>2017-12-23T10:55:47Z</time>
      </trkpt>
      <trkpt lat="46.06856" lon="4.73674">
        <ele>176</ele>
        <time>2017-12-23T10:55:48Z</time>
      </trkpt>
      <trkpt lat="46.06861" lon="4.73678">
        <ele>176</ele>
        <time>2017-12-23T10:55:49Z</time>
      </trkpt>
      <trkpt lat="46.06865" lon="4.73683">
        <ele>176</ele>
        <time>2017-12-23T10:55:50Z</time>
      </trkpt>
      <trkpt lat="46.0687" lon="4.73689">
        <ele>176</ele>
        <time>2017-12-23T10:55:51Z</time>
      </trkpt>
      <trkpt lat="46.06875" lon="4.73693">
        <ele>176</ele>
        <time>2017-12-23T10:55:52Z</time>
      </trkpt>
      <trkpt lat="46.06879" lon="4.73699">
        <ele>176</ele>
        <time>2017-12-23T10:55:53Z</time>
      </trkpt>
      <trkpt lat="46.06883" lon="4.73704">
        <ele>176</ele>
        <time>2017-12-23T10:55:54Z</time>
      </trkpt>
      <trkpt lat="46.06888" lon="4.73708">
        <ele>176</ele>
        <time>2017-12-23T10:55:55Z</time>
      </trkpt>
      <trkpt lat="46.06892" lon="4.73713">
        <ele>176</ele>
        <time>2017-12-23T10:55:56Z</time>
      </trkpt>
      <trkpt lat="46.06896" lon="4.73719">
        <ele>176</ele>
        <time>2017-12-23T10:55:57Z</time>
      </trkpt>
      <trkpt lat="46.06899" lon="4.73724">
        <ele>176</ele>
        <time>2017-12-23T10:55:58Z</time>
      </trkpt>
      <trkpt lat="46.06905" lon="4.73733">
        <ele>177</ele>
        <time>2017-12-23T10:56:00Z</time>
      </trkpt>
      <trkpt lat="46.06909" lon="4.73738">
        <ele>177</ele>
        <time>2017-12-23T10:56:01Z</time>
      </trkpt>
      <trkpt lat="46.06912" lon="4.73742">
        <ele>177</ele>
        <time>2017-12-23T10:56:02Z</time>
      </trkpt>
      <trkpt lat="46.06916" lon="4.73747">
        <ele>177</ele>
        <time>2017-12-23T10:56:03Z</time>
      </trkpt>
      <trkpt lat="46.0692" lon="4.73752">
        <ele>177</ele>
        <time>2017-12-23T10:56:04Z</time>
      </trkpt>
      <trkpt lat="46.06923" lon="4.73759">
        <ele>177</ele>
        <time>2017-12-23T10:56:05Z</time>
      </trkpt>
      <trkpt lat="46.06926" lon="4.73766">
        <ele>177</ele>
        <time>2017-12-23T10:56:06Z</time>
      </trkpt>
      <trkpt lat="46.06931" lon="4.7377">
        <ele>176</ele>
        <time>2017-12-23T10:56:07Z</time>
      </trkpt>
      <trkpt lat="46.06935" lon="4.73774">
        <ele>176</ele>
        <time>2017-12-23T10:56:08Z</time>
      </trkpt>
      <trkpt lat="46.06939" lon="4.73777">
        <ele>176</ele>
        <time>2017-12-23T10:56:09Z</time>
      </trkpt>
      <trkpt lat="46.06946" lon="4.73779">
        <ele>176</ele>
        <time>2017-12-23T10:56:10Z</time>
      </trkpt>
      <trkpt lat="46.0695" lon="4.73782">
        <ele>176</ele>
        <time>2017-12-23T10:56:11Z</time>
      </trkpt>
      <trkpt lat="46.06955" lon="4.73786">
        <ele>176</ele>
        <time>2017-12-23T10:56:12Z</time>
      </trkpt>
      <trkpt lat="46.0696" lon="4.73789">
        <ele>176</ele>
        <time>2017-12-23T10:56:13Z</time>
      </trkpt>
      <trkpt lat="46.06965" lon="4.73793">
        <ele>176</ele>
        <time>2017-12-23T10:56:14Z</time>
      </trkpt>
      <trkpt lat="46.0697" lon="4.73795">
        <ele>176</ele>
        <time>2017-12-23T10:56:15Z</time>
      </trkpt>
      <trkpt lat="46.06977" lon="4.73797">
        <ele>176</ele>
        <time>2017-12-23T10:56:16Z</time>
      </trkpt>
      <trkpt lat="46.06982" lon="4.73798">
        <ele>176</ele>
        <time>2017-12-23T10:56:17Z</time>
      </trkpt>
      <trkpt lat="46.06988" lon="4.73799">
        <ele>176</ele>
        <time>2017-12-23T10:56:18Z</time>
      </trkpt>
      <trkpt lat="46.06993" lon="4.73799">
        <ele>176</ele>
        <time>2017-12-23T10:56:19Z</time>
      </trkpt>
      <trkpt lat="46.06999" lon="4.73799">
        <ele>176</ele>
        <time>2017-12-23T10:56:20Z</time>
      </trkpt>
      <trkpt lat="46.07004" lon="4.73799">
        <ele>176</ele>
        <time>2017-12-23T10:56:21Z</time>
      </trkpt>
      <trkpt lat="46.07009" lon="4.73799">
        <ele>176</ele>
        <time>2017-12-23T10:56:22Z</time>
      </trkpt>
      <trkpt lat="46.07013" lon="4.73801">
        <ele>176</ele>
        <time>2017-12-23T10:56:23Z</time>
      </trkpt>
      <trkpt lat="46.07017" lon="4.73801">
        <ele>177</ele>
        <time>2017-12-23T10:56:24Z</time>
      </trkpt>
      <trkpt lat="46.07022" lon="4.73802">
        <ele>177</ele>
        <time>2017-12-23T10:56:25Z</time>
      </trkpt>
      <trkpt lat="46.07027" lon="4.73801">
        <ele>177</ele>
        <time>2017-12-23T10:56:26Z</time>
      </trkpt>
      <trkpt lat="46.07032" lon="4.738">
        <ele>177</ele>
        <time>2017-12-23T10:56:27Z</time>
      </trkpt>
      <trkpt lat="46.07037" lon="4.73801">
        <ele>177</ele>
        <time>2017-12-23T10:56:28Z</time>
      </trkpt>
      <trkpt lat="46.07042" lon="4.73802">
        <ele>177</ele>
        <time>2017-12-23T10:56:29Z</time>
      </trkpt>
      <trkpt lat="46.07048" lon="4.73802">
        <ele>177</ele>
        <time>2017-12-23T10:56:30Z</time>
      </trkpt>
      <trkpt lat="46.07053" lon="4.73804">
        <ele>177</ele>
        <time>2017-12-23T10:56:31Z</time>
      </trkpt>
      <trkpt lat="46.07059" lon="4.73805">
        <ele>177</ele>
        <time>2017-12-23T10:56:32Z</time>
      </trkpt>
      <trkpt lat="46.07064" lon="4.73806">
        <ele>178</ele>
        <time>2017-12-23T10:56:33Z</time>
      </trkpt>
      <trkpt lat="46.07069" lon="4.73808">
        <ele>178</ele>
        <time>2017-12-23T10:56:34Z</time>
      </trkpt>
      <trkpt lat="46.07074" lon="4.73809">
        <ele>178</ele>
        <time>2017-12-23T10:56:35Z</time>
      </trkpt>
      <trkpt lat="46.07079" lon="4.73811">
        <ele>178</ele>
        <time>2017-12-23T10:56:36Z</time>
      </trkpt>
      <trkpt lat="46.07084" lon="4.73815">
        <ele>178</ele>
        <time>2017-12-23T10:56:37Z</time>
      </trkpt>
      <trkpt lat="46.07092" lon="4.73819">
        <ele>178</ele>
        <time>2017-12-23T10:56:39Z</time>
      </trkpt>
      <trkpt lat="46.07097" lon="4.7382">
        <ele>178</ele>
        <time>2017-12-23T10:56:40Z</time>
      </trkpt>
      <trkpt lat="46.07101" lon="4.73823">
        <ele>178</ele>
        <time>2017-12-23T10:56:41Z</time>
      </trkpt>
      <trkpt lat="46.07105" lon="4.73825">
        <ele>178</ele>
        <time>2017-12-23T10:56:42Z</time>
      </trkpt>
      <trkpt lat="46.0711" lon="4.73828">
        <ele>178</ele>
        <time>2017-12-23T10:56:43Z</time>
      </trkpt>
      <trkpt lat="46.07114" lon="4.73831">
        <ele>177</ele>
        <time>2017-12-23T10:56:44Z</time>
      </trkpt>
      <trkpt lat="46.07119" lon="4.73835">
        <ele>177</ele>
        <time>2017-12-23T10:56:45Z</time>
      </trkpt>
      <trkpt lat="46.07123" lon="4.73839">
        <ele>177</ele>
        <time>2017-12-23T10:56:46Z</time>
      </trkpt>
      <trkpt lat="46.07126" lon="4.73844">
        <ele>176</ele>
        <time>2017-12-23T10:56:47Z</time>
      </trkpt>
      <trkpt lat="46.0713" lon="4.73848">
        <ele>176</ele>
        <time>2017-12-23T10:56:48Z</time>
      </trkpt>
      <trkpt lat="46.07136" lon="4.73857">
        <ele>176</ele>
        <time>2017-12-23T10:56:50Z</time>
      </trkpt>
      <trkpt lat="46.07139" lon="4.73862">
        <ele>176</ele>
        <time>2017-12-23T10:56:51Z</time>
      </trkpt>
      <trkpt lat="46.0714" lon="4.73868">
        <ele>176</ele>
        <time>2017-12-23T10:56:52Z</time>
      </trkpt>
      <trkpt lat="46.07143" lon="4.73873">
        <ele>176</ele>
        <time>2017-12-23T10:56:53Z</time>
      </trkpt>
      <trkpt lat="46.07146" lon="4.7388">
        <ele>176</ele>
        <time>2017-12-23T10:56:54Z</time>
      </trkpt>
      <trkpt lat="46.0715" lon="4.73886">
        <ele>176</ele>
        <time>2017-12-23T10:56:55Z</time>
      </trkpt>
      <trkpt lat="46.07152" lon="4.73892">
        <ele>177</ele>
        <time>2017-12-23T10:56:56Z</time>
      </trkpt>
      <trkpt lat="46.07155" lon="4.73898">
        <ele>177</ele>
        <time>2017-12-23T10:56:57Z</time>
      </trkpt>
      <trkpt lat="46.07158" lon="4.73904">
        <ele>177</ele>
        <time>2017-12-23T10:56:58Z</time>
      </trkpt>
      <trkpt lat="46.0716" lon="4.7391">
        <ele>177</ele>
        <time>2017-12-23T10:56:59Z</time>
      </trkpt>
      <trkpt lat="46.07162" lon="4.73917">
        <ele>177</ele>
        <time>2017-12-23T10:57:00Z</time>
      </trkpt>
      <trkpt lat="46.07165" lon="4.73924">
        <ele>177</ele>
        <time>2017-12-23T10:57:01Z</time>
      </trkpt>
      <trkpt lat="46.07167" lon="4.7393">
        <ele>177</ele>
        <time>2017-12-23T10:57:02Z</time>
      </trkpt>
      <trkpt lat="46.07169" lon="4.73938">
        <ele>177</ele>
        <time>2017-12-23T10:57:03Z</time>
      </trkpt>
      <trkpt lat="46.07172" lon="4.73944">
        <ele>177</ele>
        <time>2017-12-23T10:57:04Z</time>
      </trkpt>
      <trkpt lat="46.07174" lon="4.73951">
        <ele>177</ele>
        <time>2017-12-23T10:57:05Z</time>
      </trkpt>
      <trkpt lat="46.07176" lon="4.73958">
        <ele>177</ele>
        <time>2017-12-23T10:57:06Z</time>
      </trkpt>
      <trkpt lat="46.07179" lon="4.73964">
        <ele>178</ele>
        <time>2017-12-23T10:57:07Z</time>
      </trkpt>
      <trkpt lat="46.07181" lon="4.73971">
        <ele>178</ele>
        <time>2017-12-23T10:57:08Z</time>
      </trkpt>
      <trkpt lat="46.07184" lon="4.73978">
        <ele>178</ele>
        <time>2017-12-23T10:57:09Z</time>
      </trkpt>
      <trkpt lat="46.07186" lon="4.73983">
        <ele>178</ele>
        <time>2017-12-23T10:57:10Z</time>
      </trkpt>
      <trkpt lat="46.07187" lon="4.7399">
        <ele>178</ele>
        <time>2017-12-23T10:57:11Z</time>
      </trkpt>
      <trkpt lat="46.07189" lon="4.73996">
        <ele>178</ele>
        <time>2017-12-23T10:57:12Z</time>
      </trkpt>
      <trkpt lat="46.07191" lon="4.74002">
        <ele>178</ele>
        <time>2017-12-23T10:57:13Z</time>
      </trkpt>
      <trkpt lat="46.07195" lon="4.74013">
        <ele>178</ele>
        <time>2017-12-23T10:57:15Z</time>
      </trkpt>
      <trkpt lat="46.07197" lon="4.74018">
        <ele>178</ele>
        <time>2017-12-23T10:57:16Z</time>
      </trkpt>
      <trkpt lat="46.072" lon="4.74028">
        <ele>178</ele>
        <time>2017-12-23T10:57:18Z</time>
      </trkpt>
      <trkpt lat="46.07202" lon="4.74032">
        <ele>178</ele>
        <time>2017-12-23T10:57:19Z</time>
      </trkpt>
      <trkpt lat="46.07206" lon="4.74042">
        <ele>178</ele>
        <time>2017-12-23T10:57:21Z</time>
      </trkpt>
      <trkpt lat="46.07208" lon="4.74047">
        <ele>178</ele>
        <time>2017-12-23T10:57:22Z</time>
      </trkpt>
      <trkpt lat="46.07212" lon="4.74057">
        <ele>177</ele>
        <time>2017-12-23T10:57:24Z</time>
      </trkpt>
      <trkpt lat="46.07214" lon="4.74061">
        <ele>177</ele>
        <time>2017-12-23T10:57:25Z</time>
      </trkpt>
      <trkpt lat="46.07217" lon="4.7407">
        <ele>177</ele>
        <time>2017-12-23T10:57:27Z</time>
      </trkpt>
      <trkpt lat="46.07219" lon="4.74075">
        <ele>177</ele>
        <time>2017-12-23T10:57:28Z</time>
      </trkpt>
      <trkpt lat="46.07222" lon="4.74086">
        <ele>177</ele>
        <time>2017-12-23T10:57:30Z</time>
      </trkpt>
      <trkpt lat="46.07223" lon="4.74091">
        <ele>177</ele>
        <time>2017-12-23T10:57:31Z</time>
      </trkpt>
      <trkpt lat="46.07226" lon="4.74103">
        <ele>177</ele>
        <time>2017-12-23T10:57:33Z</time>
      </trkpt>
      <trkpt lat="46.07228" lon="4.74108">
        <ele>177</ele>
        <time>2017-12-23T10:57:34Z</time>
      </trkpt>
      <trkpt lat="46.0723" lon="4.74115">
        <ele>177</ele>
        <time>2017-12-23T10:57:35Z</time>
      </trkpt>
      <trkpt lat="46.07232" lon="4.74122">
        <ele>177</ele>
        <time>2017-12-23T10:57:36Z</time>
      </trkpt>
      <trkpt lat="46.07235" lon="4.74127">
        <ele>177</ele>
        <time>2017-12-23T10:57:37Z</time>
      </trkpt>
      <trkpt lat="46.07237" lon="4.74134">
        <ele>177</ele>
        <time>2017-12-23T10:57:38Z</time>
      </trkpt>
      <trkpt lat="46.07239" lon="4.7414">
        <ele>177</ele>
        <time>2017-12-23T10:57:39Z</time>
      </trkpt>
      <trkpt lat="46.07242" lon="4.74147">
        <ele>177</ele>
        <time>2017-12-23T10:57:40Z</time>
      </trkpt>
      <trkpt lat="46.07244" lon="4.74152">
        <ele>177</ele>
        <time>2017-12-23T10:57:41Z</time>
      </trkpt>
      <trkpt lat="46.07246" lon="4.74159">
        <ele>177</ele>
        <time>2017-12-23T10:57:42Z</time>
      </trkpt>
      <trkpt lat="46.07249" lon="4.74166">
        <ele>177</ele>
        <time>2017-12-23T10:57:43Z</time>
      </trkpt>
      <trkpt lat="46.07251" lon="4.74173">
        <ele>177</ele>
        <time>2017-12-23T10:57:44Z</time>
      </trkpt>
      <trkpt lat="46.07254" lon="4.7418">
        <ele>176</ele>
        <time>2017-12-23T10:57:45Z</time>
      </trkpt>
      <trkpt lat="46.07255" lon="4.74187">
        <ele>176</ele>
        <time>2017-12-23T10:57:46Z</time>
      </trkpt>
      <trkpt lat="46.07258" lon="4.74195">
        <ele>176</ele>
        <time>2017-12-23T10:57:47Z</time>
      </trkpt>
      <trkpt lat="46.0726" lon="4.74202">
        <ele>176</ele>
        <time>2017-12-23T10:57:48Z</time>
      </trkpt>
      <trkpt lat="46.07262" lon="4.74211">
        <ele>176</ele>
        <time>2017-12-23T10:57:49Z</time>
      </trkpt>
      <trkpt lat="46.07266" lon="4.74221">
        <ele>176</ele>
        <time>2017-12-23T10:57:50Z</time>
      </trkpt>
      <trkpt lat="46.07269" lon="4.74229">
        <ele>176</ele>
        <time>2017-12-23T10:57:51Z</time>
      </trkpt>
      <trkpt lat="46.07271" lon="4.74238">
        <ele>175</ele>
        <time>2017-12-23T10:57:52Z</time>
      </trkpt>
      <trkpt lat="46.07275" lon="4.74247">
        <ele>175</ele>
        <time>2017-12-23T10:57:53Z</time>
      </trkpt>
      <trkpt lat="46.07278" lon="4.74257">
        <ele>175</ele>
        <time>2017-12-23T10:57:54Z</time>
      </trkpt>
      <trkpt lat="46.07283" lon="4.74268">
        <ele>175</ele>
        <time>2017-12-23T10:57:55Z</time>
      </trkpt>
      <trkpt lat="46.07286" lon="4.74278">
        <ele>175</ele>
        <time>2017-12-23T10:57:56Z</time>
      </trkpt>
      <trkpt lat="46.07289" lon="4.74289">
        <ele>175</ele>
        <time>2017-12-23T10:57:57Z</time>
      </trkpt>
      <trkpt lat="46.07292" lon="4.743">
        <ele>174</ele>
        <time>2017-12-23T10:57:58Z</time>
      </trkpt>
      <trkpt lat="46.07295" lon="4.7431">
        <ele>174</ele>
        <time>2017-12-23T10:57:59Z</time>
      </trkpt>
      <trkpt lat="46.07296" lon="4.74321">
        <ele>174</ele>
        <time>2017-12-23T10:58:00Z</time>
      </trkpt>
      <trkpt lat="46.07298" lon="4.74332">
        <ele>174</ele>
        <time>2017-12-23T10:58:01Z</time>
      </trkpt>
      <trkpt lat="46.07299" lon="4.74344">
        <ele>174</ele>
        <time>2017-12-23T10:58:02Z</time>
      </trkpt>
      <trkpt lat="46.073" lon="4.74354">
        <ele>174</ele>
        <time>2017-12-23T10:58:03Z</time>
      </trkpt>
      <trkpt lat="46.07302" lon="4.74364">
        <ele>174</ele>
        <time>2017-12-23T10:58:04Z</time>
      </trkpt>
      <trkpt lat="46.07303" lon="4.74374">
        <ele>174</ele>
        <time>2017-12-23T10:58:05Z</time>
      </trkpt>
      <trkpt lat="46.07304" lon="4.74383">
        <ele>174</ele>
        <time>2017-12-23T10:58:06Z</time>
      </trkpt>
      <trkpt lat="46.07305" lon="4.74392">
        <ele>174</ele>
        <time>2017-12-23T10:58:07Z</time>
      </trkpt>
      <trkpt lat="46.07306" lon="4.74401">
        <ele>174</ele>
        <time>2017-12-23T10:58:08Z</time>
      </trkpt>
      <trkpt lat="46.07307" lon="4.7441">
        <ele>175</ele>
        <time>2017-12-23T10:58:09Z</time>
      </trkpt>
      <trkpt lat="46.07308" lon="4.74418">
        <ele>175</ele>
        <time>2017-12-23T10:58:10Z</time>
      </trkpt>
      <trkpt lat="46.07309" lon="4.74427">
        <ele>175</ele>
        <time>2017-12-23T10:58:11Z</time>
      </trkpt>
      <trkpt lat="46.0731" lon="4.74435">
        <ele>175</ele>
        <time>2017-12-23T10:58:12Z</time>
      </trkpt>
      <trkpt lat="46.07312" lon="4.74443">
        <ele>175</ele>
        <time>2017-12-23T10:58:13Z</time>
      </trkpt>
      <trkpt lat="46.07313" lon="4.74453">
        <ele>175</ele>
        <time>2017-12-23T10:58:14Z</time>
      </trkpt>
      <trkpt lat="46.07315" lon="4.74462">
        <ele>175</ele>
        <time>2017-12-23T10:58:15Z</time>
      </trkpt>
      <trkpt lat="46.07318" lon="4.7447">
        <ele>175</ele>
        <time>2017-12-23T10:58:16Z</time>
      </trkpt>
      <trkpt lat="46.07319" lon="4.74478">
        <ele>175</ele>
        <time>2017-12-23T10:58:17Z</time>
      </trkpt>
      <trkpt lat="46.07321" lon="4.74486">
        <ele>175</ele>
        <time>2017-12-23T10:58:18Z</time>
      </trkpt>
      <trkpt lat="46.07324" lon="4.74493">
        <ele>176</ele>
        <time>2017-12-23T10:58:19Z</time>
      </trkpt>
      <trkpt lat="46.07328" lon="4.74501">
        <ele>176</ele>
        <time>2017-12-23T10:58:20Z</time>
      </trkpt>
      <trkpt lat="46.07331" lon="4.74507">
        <ele>176</ele>
        <time>2017-12-23T10:58:21Z</time>
      </trkpt>
      <trkpt lat="46.07336" lon="4.74517">
        <ele>175</ele>
        <time>2017-12-23T10:58:22Z</time>
      </trkpt>
      <trkpt lat="46.0734" lon="4.74524">
        <ele>175</ele>
        <time>2017-12-23T10:58:23Z</time>
      </trkpt>
      <trkpt lat="46.07344" lon="4.74531">
        <ele>175</ele>
        <time>2017-12-23T10:58:24Z</time>
      </trkpt>
      <trkpt lat="46.07347" lon="4.74537">
        <ele>175</ele>
        <time>2017-12-23T10:58:25Z</time>
      </trkpt>
      <trkpt lat="46.07351" lon="4.74544">
        <ele>175</ele>
        <time>2017-12-23T10:58:26Z</time>
      </trkpt>
      <trkpt lat="46.07355" lon="4.7455">
        <ele>175</ele>
        <time>2017-12-23T10:58:27Z</time>
      </trkpt>
      <trkpt lat="46.07359" lon="4.74555">
        <ele>175</ele>
        <time>2017-12-23T10:58:28Z</time>
      </trkpt>
      <trkpt lat="46.07363" lon="4.74561">
        <ele>175</ele>
        <time>2017-12-23T10:58:29Z</time>
      </trkpt>
      <trkpt lat="46.07368" lon="4.74567">
        <ele>175</ele>
        <time>2017-12-23T10:58:30Z</time>
      </trkpt>
      <trkpt lat="46.07371" lon="4.74574">
        <ele>175</ele>
        <time>2017-12-23T10:58:31Z</time>
      </trkpt>
      <trkpt lat="46.07374" lon="4.74579">
        <ele>175</ele>
        <time>2017-12-23T10:58:32Z</time>
      </trkpt>
      <trkpt lat="46.07378" lon="4.74586">
        <ele>174</ele>
        <time>2017-12-23T10:58:33Z</time>
      </trkpt>
      <trkpt lat="46.07381" lon="4.74593">
        <ele>174</ele>
        <time>2017-12-23T10:58:34Z</time>
      </trkpt>
      <trkpt lat="46.07384" lon="4.74598">
        <ele>174</ele>
        <time>2017-12-23T10:58:35Z</time>
      </trkpt>
      <trkpt lat="46.07387" lon="4.74605">
        <ele>174</ele>
        <time>2017-12-23T10:58:36Z</time>
      </trkpt>
      <trkpt lat="46.07389" lon="4.74611">
        <ele>174</ele>
        <time>2017-12-23T10:58:37Z</time>
      </trkpt>
      <trkpt lat="46.07392" lon="4.7462">
        <ele>174</ele>
        <time>2017-12-23T10:58:38Z</time>
      </trkpt>
      <trkpt lat="46.07396" lon="4.74624">
        <ele>174</ele>
        <time>2017-12-23T10:58:39Z</time>
      </trkpt>
      <trkpt lat="46.07399" lon="4.7463">
        <ele>174</ele>
        <time>2017-12-23T10:58:40Z</time>
      </trkpt>
      <trkpt lat="46.07401" lon="4.74636">
        <ele>174</ele>
        <time>2017-12-23T10:58:41Z</time>
      </trkpt>
      <trkpt lat="46.07405" lon="4.74642">
        <ele>173</ele>
        <time>2017-12-23T10:58:42Z</time>
      </trkpt>
      <trkpt lat="46.07408" lon="4.74647">
        <ele>173</ele>
        <time>2017-12-23T10:58:43Z</time>
      </trkpt>
      <trkpt lat="46.07411" lon="4.74655">
        <ele>173</ele>
        <time>2017-12-23T10:58:44Z</time>
      </trkpt>
      <trkpt lat="46.07413" lon="4.74661">
        <ele>173</ele>
        <time>2017-12-23T10:58:45Z</time>
      </trkpt>
      <trkpt lat="46.07417" lon="4.74668">
        <ele>172</ele>
        <time>2017-12-23T10:58:46Z</time>
      </trkpt>
      <trkpt lat="46.0742" lon="4.74674">
        <ele>172</ele>
        <time>2017-12-23T10:58:47Z</time>
      </trkpt>
      <trkpt lat="46.07424" lon="4.74681">
        <ele>172</ele>
        <time>2017-12-23T10:58:48Z</time>
      </trkpt>
      <trkpt lat="46.07428" lon="4.74687">
        <ele>172</ele>
        <time>2017-12-23T10:58:49Z</time>
      </trkpt>
      <trkpt lat="46.07432" lon="4.74693">
        <ele>173</ele>
        <time>2017-12-23T10:58:50Z</time>
      </trkpt>
      <trkpt lat="46.07435" lon="4.74699">
        <ele>173</ele>
        <time>2017-12-23T10:58:51Z</time>
      </trkpt>
      <trkpt lat="46.07438" lon="4.74705">
        <ele>173</ele>
        <time>2017-12-23T10:58:52Z</time>
      </trkpt>
      <trkpt lat="46.07441" lon="4.74712">
        <ele>173</ele>
        <time>2017-12-23T10:58:53Z</time>
      </trkpt>
      <trkpt lat="46.07445" lon="4.74718">
        <ele>173</ele>
        <time>2017-12-23T10:58:54Z</time>
      </trkpt>
      <trkpt lat="46.07447" lon="4.74726">
        <ele>173</ele>
        <time>2017-12-23T10:58:55Z</time>
      </trkpt>
      <trkpt lat="46.0745" lon="4.74732">
        <ele>173</ele>
        <time>2017-12-23T10:58:56Z</time>
      </trkpt>
      <trkpt lat="46.07452" lon="4.74737">
        <ele>173</ele>
        <time>2017-12-23T10:58:57Z</time>
      </trkpt>
      <trkpt lat="46.07455" lon="4.74742">
        <ele>173</ele>
        <time>2017-12-23T10:58:58Z</time>
      </trkpt>
      <trkpt lat="46.07458" lon="4.74748">
        <ele>173</ele>
        <time>2017-12-23T10:58:59Z</time>
      </trkpt>
      <trkpt lat="46.07462" lon="4.74753">
        <ele>173</ele>
        <time>2017-12-23T10:59:00Z</time>
      </trkpt>
      <trkpt lat="46.07466" lon="4.74759">
        <ele>173</ele>
        <time>2017-12-23T10:59:01Z</time>
      </trkpt>
      <trkpt lat="46.0747" lon="4.74764">
        <ele>173</ele>
        <time>2017-12-23T10:59:02Z</time>
      </trkpt>
      <trkpt lat="46.07474" lon="4.74769">
        <ele>173</ele>
        <time>2017-12-23T10:59:03Z</time>
      </trkpt>
      <trkpt lat="46.07479" lon="4.74773">
        <ele>173</ele>
        <time>2017-12-23T10:59:04Z</time>
      </trkpt>
      <trkpt lat="46.07483" lon="4.74778">
        <ele>173</ele>
        <time>2017-12-23T10:59:05Z</time>
      </trkpt>
      <trkpt lat="46.07488" lon="4.74782">
        <ele>173</ele>
        <time>2017-12-23T10:59:06Z</time>
      </trkpt>
      <trkpt lat="46.07492" lon="4.74787">
        <ele>173</ele>
        <time>2017-12-23T10:59:07Z</time>
      </trkpt>
      <trkpt lat="46.07496" lon="4.74791">
        <ele>173</ele>
        <time>2017-12-23T10:59:08Z</time>
      </trkpt>
      <trkpt lat="46.075" lon="4.74794">
        <ele>172</ele>
        <time>2017-12-23T10:59:09Z</time>
      </trkpt>
      <trkpt lat="46.07504" lon="4.74797">
        <ele>172</ele>
        <time>2017-12-23T10:59:10Z</time>
      </trkpt>
      <trkpt lat="46.07508" lon="4.74802">
        <ele>172</ele>
        <time>2017-12-23T10:59:11Z</time>
      </trkpt>
      <trkpt lat="46.07512" lon="4.74807">
        <ele>172</ele>
        <time>2017-12-23T10:59:12Z</time>
      </trkpt>
      <trkpt lat="46.07516" lon="4.7481">
        <ele>172</ele>
        <time>2017-12-23T10:59:13Z</time>
      </trkpt>
      <trkpt lat="46.0752" lon="4.74814">
        <ele>172</ele>
        <time>2017-12-23T10:59:14Z</time>
      </trkpt>
      <trkpt lat="46.07525" lon="4.74817">
        <ele>172</ele>
        <time>2017-12-23T10:59:15Z</time>
      </trkpt>
      <trkpt lat="46.0753" lon="4.7482">
        <ele>172</ele>
        <time>2017-12-23T10:59:16Z</time>
      </trkpt>
      <trkpt lat="46.07535" lon="4.74823">
        <ele>172</ele>
        <time>2017-12-23T10:59:17Z</time>
      </trkpt>
      <trkpt lat="46.07539" lon="4.74826">
        <ele>172</ele>
        <time>2017-12-23T10:59:18Z</time>
      </trkpt>
      <trkpt lat="46.07544" lon="4.74829">
        <ele>172</ele>
        <time>2017-12-23T10:59:19Z</time>
      </trkpt>
      <trkpt lat="46.07548" lon="4.74832">
        <ele>172</ele>
        <time>2017-12-23T10:59:20Z</time>
      </trkpt>
      <trkpt lat="46.07552" lon="4.74835">
        <ele>171</ele>
        <time>2017-12-23T10:59:21Z</time>
      </trkpt>
      <trkpt lat="46.07557" lon="4.74838">
        <ele>171</ele>
        <time>2017-12-23T10:59:22Z</time>
      </trkpt>
      <trkpt lat="46.07562" lon="4.74842">
        <ele>171</ele>
        <time>2017-12-23T10:59:23Z</time>
      </trkpt>
      <trkpt lat="46.07567" lon="4.74844">
        <ele>171</ele>
        <time>2017-12-23T10:59:24Z</time>
      </trkpt>
      <trkpt lat="46.07571" lon="4.74848">
        <ele>171</ele>
        <time>2017-12-23T10:59:25Z</time>
      </trkpt>
      <trkpt lat="46.07575" lon="4.74852">
        <ele>171</ele>
        <time>2017-12-23T10:59:26Z</time>
      </trkpt>
      <trkpt lat="46.0758" lon="4.74855">
        <ele>171</ele>
        <time>2017-12-23T10:59:27Z</time>
      </trkpt>
      <trkpt lat="46.07584" lon="4.74859">
        <ele>171</ele>
        <time>2017-12-23T10:59:28Z</time>
      </trkpt>
      <trkpt lat="46.07588" lon="4.74864">
        <ele>171</ele>
        <time>2017-12-23T10:59:29Z</time>
      </trkpt>
      <trkpt lat="46.07593" lon="4.74866">
        <ele>171</ele>
        <time>2017-12-23T10:59:30Z</time>
      </trkpt>
      <trkpt lat="46.07598" lon="4.74869">
        <ele>171</ele>
        <time>2017-12-23T10:59:31Z</time>
      </trkpt>
      <trkpt lat="46.07605" lon="4.74876">
        <ele>171</ele>
        <time>2017-12-23T10:59:33Z</time>
      </trkpt>
      <trkpt lat="46.0761" lon="4.74879">
        <ele>171</ele>
        <time>2017-12-23T10:59:34Z</time>
      </trkpt>
      <trkpt lat="46.07613" lon="4.74882">
        <ele>171</ele>
        <time>2017-12-23T10:59:35Z</time>
      </trkpt>
      <trkpt lat="46.07618" lon="4.74886">
        <ele>171</ele>
        <time>2017-12-23T10:59:36Z</time>
      </trkpt>
      <trkpt lat="46.07622" lon="4.7489">
        <ele>171</ele>
        <time>2017-12-23T10:59:37Z</time>
      </trkpt>
      <trkpt lat="46.07626" lon="4.74894">
        <ele>171</ele>
        <time>2017-12-23T10:59:38Z</time>
      </trkpt>
      <trkpt lat="46.07631" lon="4.74898">
        <ele>171</ele>
        <time>2017-12-23T10:59:39Z</time>
      </trkpt>
      <trkpt lat="46.07635" lon="4.74902">
        <ele>171</ele>
        <time>2017-12-23T10:59:40Z</time>
      </trkpt>
      <trkpt lat="46.07639" lon="4.74904">
        <ele>171</ele>
        <time>2017-12-23T10:59:41Z</time>
      </trkpt>
      <trkpt lat="46.07643" lon="4.74908">
        <ele>171</ele>
        <time>2017-12-23T10:59:42Z</time>
      </trkpt>
      <trkpt lat="46.07647" lon="4.74912">
        <ele>171</ele>
        <time>2017-12-23T10:59:43Z</time>
      </trkpt>
      <trkpt lat="46.07651" lon="4.74915">
        <ele>171</ele>
        <time>2017-12-23T10:59:44Z</time>
      </trkpt>
      <trkpt lat="46.07656" lon="4.74919">
        <ele>172</ele>
        <time>2017-12-23T10:59:45Z</time>
      </trkpt>
      <trkpt lat="46.0766" lon="4.74924">
        <ele>172</ele>
        <time>2017-12-23T10:59:46Z</time>
      </trkpt>
      <trkpt lat="46.07665" lon="4.74928">
        <ele>172</ele>
        <time>2017-12-23T10:59:47Z</time>
      </trkpt>
      <trkpt lat="46.07669" lon="4.74932">
        <ele>172</ele>
        <time>2017-12-23T10:59:48Z</time>
      </trkpt>
      <trkpt lat="46.07677" lon="4.74938">
        <ele>172</ele>
        <time>2017-12-23T10:59:50Z</time>
      </trkpt>
      <trkpt lat="46.07682" lon="4.74941">
        <ele>172</ele>
        <time>2017-12-23T10:59:51Z</time>
      </trkpt>
      <trkpt lat="46.07689" lon="4.74947">
        <ele>172</ele>
        <time>2017-12-23T10:59:53Z</time>
      </trkpt>
      <trkpt lat="46.07694" lon="4.7495">
        <ele>172</ele>
        <time>2017-12-23T10:59:54Z</time>
      </trkpt>
      <trkpt lat="46.07698" lon="4.74954">
        <ele>172</ele>
        <time>2017-12-23T10:59:55Z</time>
      </trkpt>
      <trkpt lat="46.07702" lon="4.74957">
        <ele>172</ele>
        <time>2017-12-23T10:59:56Z</time>
      </trkpt>
      <trkpt lat="46.07706" lon="4.7496">
        <ele>172</ele>
        <time>2017-12-23T10:59:57Z</time>
      </trkpt>
      <trkpt lat="46.07711" lon="4.74963">
        <ele>172</ele>
        <time>2017-12-23T10:59:58Z</time>
      </trkpt>
      <trkpt lat="46.07716" lon="4.74966">
        <ele>172</ele>
        <time>2017-12-23T10:59:59Z</time>
      </trkpt>
      <trkpt lat="46.07721" lon="4.74969">
        <ele>172</ele>
        <time>2017-12-23T11:00:00Z</time>
      </trkpt>
      <trkpt lat="46.07725" lon="4.74973">
        <ele>172</ele>
        <time>2017-12-23T11:00:01Z</time>
      </trkpt>
      <trkpt lat="46.07729" lon="4.74978">
        <ele>172</ele>
        <time>2017-12-23T11:00:02Z</time>
      </trkpt>
      <trkpt lat="46.07734" lon="4.74981">
        <ele>172</ele>
        <time>2017-12-23T11:00:03Z</time>
      </trkpt>
      <trkpt lat="46.07738" lon="4.74984">
        <ele>173</ele>
        <time>2017-12-23T11:00:04Z</time>
      </trkpt>
      <trkpt lat="46.07745" lon="4.7499">
        <ele>173</ele>
        <time>2017-12-23T11:00:06Z</time>
      </trkpt>
      <trkpt lat="46.0775" lon="4.74993">
        <ele>173</ele>
        <time>2017-12-23T11:00:07Z</time>
      </trkpt>
      <trkpt lat="46.07754" lon="4.74998">
        <ele>173</ele>
        <time>2017-12-23T11:00:08Z</time>
      </trkpt>
      <trkpt lat="46.07759" lon="4.75">
        <ele>173</ele>
        <time>2017-12-23T11:00:09Z</time>
      </trkpt>
      <trkpt lat="46.07763" lon="4.75003">
        <ele>172</ele>
        <time>2017-12-23T11:00:10Z</time>
      </trkpt>
      <trkpt lat="46.07768" lon="4.75006">
        <ele>172</ele>
        <time>2017-12-23T11:00:11Z</time>
      </trkpt>
      <trkpt lat="46.07772" lon="4.7501">
        <ele>172</ele>
        <time>2017-12-23T11:00:12Z</time>
      </trkpt>
      <trkpt lat="46.07777" lon="4.75015">
        <ele>172</ele>
        <time>2017-12-23T11:00:13Z</time>
      </trkpt>
      <trkpt lat="46.07781" lon="4.75019">
        <ele>172</ele>
        <time>2017-12-23T11:00:14Z</time>
      </trkpt>
      <trkpt lat="46.07787" lon="4.75022">
        <ele>172</ele>
        <time>2017-12-23T11:00:15Z</time>
      </trkpt>
      <trkpt lat="46.0779" lon="4.75026">
        <ele>172</ele>
        <time>2017-12-23T11:00:16Z</time>
      </trkpt>
      <trkpt lat="46.07795" lon="4.75029">
        <ele>171</ele>
        <time>2017-12-23T11:00:17Z</time>
      </trkpt>
      <trkpt lat="46.07802" lon="4.75036">
        <ele>171</ele>
        <time>2017-12-23T11:00:19Z</time>
      </trkpt>
      <trkpt lat="46.07806" lon="4.7504">
        <ele>171</ele>
        <time>2017-12-23T11:00:20Z</time>
      </trkpt>
      <trkpt lat="46.0781" lon="4.75044">
        <ele>171</ele>
        <time>2017-12-23T11:00:21Z</time>
      </trkpt>
      <trkpt lat="46.07815" lon="4.75047">
        <ele>171</ele>
        <time>2017-12-23T11:00:22Z</time>
      </trkpt>
      <trkpt lat="46.07819" lon="4.7505">
        <ele>171</ele>
        <time>2017-12-23T11:00:23Z</time>
      </trkpt>
      <trkpt lat="46.07823" lon="4.75055">
        <ele>171</ele>
        <time>2017-12-23T11:00:24Z</time>
      </trkpt>
      <trkpt lat="46.07829" lon="4.7506">
        <ele>171</ele>
        <time>2017-12-23T11:00:25Z</time>
      </trkpt>
      <trkpt lat="46.07832" lon="4.75065">
        <ele>171</ele>
        <time>2017-12-23T11:00:26Z</time>
      </trkpt>
      <trkpt lat="46.07837" lon="4.7507">
        <ele>171</ele>
        <time>2017-12-23T11:00:27Z</time>
      </trkpt>
      <trkpt lat="46.07841" lon="4.75075">
        <ele>171</ele>
        <time>2017-12-23T11:00:28Z</time>
      </trkpt>
      <trkpt lat="46.07845" lon="4.7508">
        <ele>171</ele>
        <time>2017-12-23T11:00:29Z</time>
      </trkpt>
      <trkpt lat="46.07849" lon="4.75085">
        <ele>171</ele>
        <time>2017-12-23T11:00:30Z</time>
      </trkpt>
      <trkpt lat="46.07852" lon="4.7509">
        <ele>171</ele>
        <time>2017-12-23T11:00:31Z</time>
      </trkpt>
      <trkpt lat="46.07856" lon="4.75096">
        <ele>171</ele>
        <time>2017-12-23T11:00:32Z</time>
      </trkpt>
      <trkpt lat="46.07859" lon="4.75101">
        <ele>171</ele>
        <time>2017-12-23T11:00:33Z</time>
      </trkpt>
      <trkpt lat="46.07861" lon="4.75107">
        <ele>171</ele>
        <time>2017-12-23T11:00:34Z</time>
      </trkpt>
      <trkpt lat="46.07866" lon="4.75111">
        <ele>171</ele>
        <time>2017-12-23T11:00:35Z</time>
      </trkpt>
      <trkpt lat="46.07869" lon="4.75117">
        <ele>171</ele>
        <time>2017-12-23T11:00:36Z</time>
      </trkpt>
      <trkpt lat="46.07873" lon="4.75121">
        <ele>171</ele>
        <time>2017-12-23T11:00:37Z</time>
      </trkpt>
      <trkpt lat="46.07876" lon="4.75127">
        <ele>171</ele>
        <time>2017-12-23T11:00:38Z</time>
      </trkpt>
      <trkpt lat="46.0788" lon="4.75133">
        <ele>171</ele>
        <time>2017-12-23T11:00:39Z</time>
      </trkpt>
      <trkpt lat="46.07883" lon="4.75139">
        <ele>171</ele>
        <time>2017-12-23T11:00:40Z</time>
      </trkpt>
      <trkpt lat="46.07886" lon="4.75145">
        <ele>171</ele>
        <time>2017-12-23T11:00:41Z</time>
      </trkpt>
      <trkpt lat="46.0789" lon="4.7515">
        <ele>171</ele>
        <time>2017-12-23T11:00:42Z</time>
      </trkpt>
      <trkpt lat="46.07894" lon="4.75156">
        <ele>171</ele>
        <time>2017-12-23T11:00:43Z</time>
      </trkpt>
      <trkpt lat="46.07898" lon="4.75162">
        <ele>171</ele>
        <time>2017-12-23T11:00:44Z</time>
      </trkpt>
      <trkpt lat="46.07902" lon="4.75168">
        <ele>172</ele>
        <time>2017-12-23T11:00:45Z</time>
      </trkpt>
      <trkpt lat="46.07905" lon="4.75174">
        <ele>172</ele>
        <time>2017-12-23T11:00:46Z</time>
      </trkpt>
      <trkpt lat="46.07909" lon="4.7518">
        <ele>171</ele>
        <time>2017-12-23T11:00:47Z</time>
      </trkpt>
      <trkpt lat="46.07911" lon="4.75188">
        <ele>171</ele>
        <time>2017-12-23T11:00:48Z</time>
      </trkpt>
      <trkpt lat="46.07914" lon="4.75195">
        <ele>171</ele>
        <time>2017-12-23T11:00:49Z</time>
      </trkpt>
      <trkpt lat="46.07916" lon="4.752">
        <ele>171</ele>
        <time>2017-12-23T11:00:50Z</time>
      </trkpt>
      <trkpt lat="46.0792" lon="4.75206">
        <ele>171</ele>
        <time>2017-12-23T11:00:51Z</time>
      </trkpt>
      <trkpt lat="46.07923" lon="4.75213">
        <ele>171</ele>
        <time>2017-12-23T11:00:52Z</time>
      </trkpt>
      <trkpt lat="46.07925" lon="4.75219">
        <ele>171</ele>
        <time>2017-12-23T11:00:53Z</time>
      </trkpt>
      <trkpt lat="46.07928" lon="4.75225">
        <ele>171</ele>
        <time>2017-12-23T11:00:54Z</time>
      </trkpt>
      <trkpt lat="46.07932" lon="4.75232">
        <ele>170</ele>
        <time>2017-12-23T11:00:55Z</time>
      </trkpt>
      <trkpt lat="46.07935" lon="4.75238">
        <ele>170</ele>
        <time>2017-12-23T11:00:56Z</time>
      </trkpt>
      <trkpt lat="46.07938" lon="4.75244">
        <ele>170</ele>
        <time>2017-12-23T11:00:57Z</time>
      </trkpt>
      <trkpt lat="46.07941" lon="4.75251">
        <ele>170</ele>
        <time>2017-12-23T11:00:58Z</time>
      </trkpt>
      <trkpt lat="46.07944" lon="4.75257">
        <ele>170</ele>
        <time>2017-12-23T11:00:59Z</time>
      </trkpt>
      <trkpt lat="46.07947" lon="4.75263">
        <ele>169</ele>
        <time>2017-12-23T11:01:00Z</time>
      </trkpt>
      <trkpt lat="46.0795" lon="4.7527">
        <ele>169</ele>
        <time>2017-12-23T11:01:01Z</time>
      </trkpt>
      <trkpt lat="46.07953" lon="4.75277">
        <ele>169</ele>
        <time>2017-12-23T11:01:02Z</time>
      </trkpt>
      <trkpt lat="46.07957" lon="4.75283">
        <ele>169</ele>
        <time>2017-12-23T11:01:03Z</time>
      </trkpt>
      <trkpt lat="46.0796" lon="4.75291">
        <ele>169</ele>
        <time>2017-12-23T11:01:04Z</time>
      </trkpt>
      <trkpt lat="46.07964" lon="4.75297">
        <ele>169</ele>
        <time>2017-12-23T11:01:05Z</time>
      </trkpt>
      <trkpt lat="46.07967" lon="4.75303">
        <ele>169</ele>
        <time>2017-12-23T11:01:06Z</time>
      </trkpt>
      <trkpt lat="46.0797" lon="4.75309">
        <ele>169</ele>
        <time>2017-12-23T11:01:07Z</time>
      </trkpt>
      <trkpt lat="46.07971" lon="4.75316">
        <ele>169</ele>
        <time>2017-12-23T11:01:08Z</time>
      </trkpt>
      <trkpt lat="46.07975" lon="4.75323">
        <ele>169</ele>
        <time>2017-12-23T11:01:09Z</time>
      </trkpt>
      <trkpt lat="46.07978" lon="4.7533">
        <ele>169</ele>
        <time>2017-12-23T11:01:10Z</time>
      </trkpt>
      <trkpt lat="46.07981" lon="4.75336">
        <ele>168</ele>
        <time>2017-12-23T11:01:11Z</time>
      </trkpt>
      <trkpt lat="46.07984" lon="4.75343">
        <ele>168</ele>
        <time>2017-12-23T11:01:12Z</time>
      </trkpt>
      <trkpt lat="46.07987" lon="4.7535">
        <ele>168</ele>
        <time>2017-12-23T11:01:13Z</time>
      </trkpt>
      <trkpt lat="46.0799" lon="4.75356">
        <ele>168</ele>
        <time>2017-12-23T11:01:14Z</time>
      </trkpt>
      <trkpt lat="46.07993" lon="4.75362">
        <ele>168</ele>
        <time>2017-12-23T11:01:15Z</time>
      </trkpt>
      <trkpt lat="46.07995" lon="4.75368">
        <ele>168</ele>
        <time>2017-12-23T11:01:16Z</time>
      </trkpt>
      <trkpt lat="46.07999" lon="4.75374">
        <ele>168</ele>
        <time>2017-12-23T11:01:17Z</time>
      </trkpt>
      <trkpt lat="46.08001" lon="4.75381">
        <ele>167</ele>
        <time>2017-12-23T11:01:18Z</time>
      </trkpt>
      <trkpt lat="46.08006" lon="4.75391">
        <ele>167</ele>
        <time>2017-12-23T11:01:20Z</time>
      </trkpt>
      <trkpt lat="46.08008" lon="4.75397">
        <ele>167</ele>
        <time>2017-12-23T11:01:21Z</time>
      </trkpt>
      <trkpt lat="46.08012" lon="4.75406">
        <ele>166</ele>
        <time>2017-12-23T11:01:23Z</time>
      </trkpt>
      <trkpt lat="46.08015" lon="4.7541">
        <ele>166</ele>
        <time>2017-12-23T11:01:24Z</time>
      </trkpt>
      <trkpt lat="46.0802" lon="4.75419">
        <ele>166</ele>
        <time>2017-12-23T11:01:26Z</time>
      </trkpt>
      <trkpt lat="46.08022" lon="4.75425">
        <ele>166</ele>
        <time>2017-12-23T11:01:27Z</time>
      </trkpt>
      <trkpt lat="46.08026" lon="4.75435">
        <ele>166</ele>
        <time>2017-12-23T11:01:29Z</time>
      </trkpt>
      <trkpt lat="46.08028" lon="4.75439">
        <ele>166</ele>
        <time>2017-12-23T11:01:30Z</time>
      </trkpt>
      <trkpt lat="46.08032" lon="4.75448">
        <ele>166</ele>
        <time>2017-12-23T11:01:32Z</time>
      </trkpt>
      <trkpt lat="46.08034" lon="4.75452">
        <ele>166</ele>
        <time>2017-12-23T11:01:33Z</time>
      </trkpt>
      <trkpt lat="46.08038" lon="4.75462">
        <ele>166</ele>
        <time>2017-12-23T11:01:35Z</time>
      </trkpt>
      <trkpt lat="46.08039" lon="4.75465">
        <ele>166</ele>
        <time>2017-12-23T11:01:36Z</time>
      </trkpt>
      <trkpt lat="46.08043" lon="4.75474">
        <ele>166</ele>
        <time>2017-12-23T11:01:40Z</time>
      </trkpt>
      <trkpt lat="46.08044" lon="4.75477">
        <ele>166</ele>
        <time>2017-12-23T11:01:41Z</time>
      </trkpt>
      <trkpt lat="46.08049" lon="4.75488">
        <ele>166</ele>
        <time>2017-12-23T11:01:45Z</time>
      </trkpt>
      <trkpt lat="46.08051" lon="4.75491">
        <ele>166</ele>
        <time>2017-12-23T11:01:46Z</time>
      </trkpt>
      <trkpt lat="46.08054" lon="4.75498">
        <ele>166</ele>
        <time>2017-12-23T11:01:48Z</time>
      </trkpt>
      <trkpt lat="46.08056" lon="4.75502">
        <ele>167</ele>
        <time>2017-12-23T11:01:49Z</time>
      </trkpt>
      <trkpt lat="46.0806" lon="4.75512">
        <ele>167</ele>
        <time>2017-12-23T11:01:51Z</time>
      </trkpt>
      <trkpt lat="46.08062" lon="4.75517">
        <ele>167</ele>
        <time>2017-12-23T11:01:52Z</time>
      </trkpt>
      <trkpt lat="46.08065" lon="4.75522">
        <ele>168</ele>
        <time>2017-12-23T11:01:53Z</time>
      </trkpt>
      <trkpt lat="46.08067" lon="4.75528">
        <ele>168</ele>
        <time>2017-12-23T11:01:54Z</time>
      </trkpt>
      <trkpt lat="46.08072" lon="4.75538">
        <ele>168</ele>
        <time>2017-12-23T11:01:56Z</time>
      </trkpt>
      <trkpt lat="46.08076" lon="4.75544">
        <ele>169</ele>
        <time>2017-12-23T11:01:57Z</time>
      </trkpt>
      <trkpt lat="46.08078" lon="4.75549">
        <ele>169</ele>
        <time>2017-12-23T11:01:58Z</time>
      </trkpt>
      <trkpt lat="46.0808" lon="4.75556">
        <ele>170</ele>
        <time>2017-12-23T11:01:59Z</time>
      </trkpt>
      <trkpt lat="46.08086" lon="4.75566">
        <ele>173</ele>
        <time>2017-12-23T11:02:01Z</time>
      </trkpt>
      <trkpt lat="46.08087" lon="4.75571">
        <ele>173</ele>
        <time>2017-12-23T11:02:02Z</time>
      </trkpt>
      <trkpt lat="46.08091" lon="4.75579">
        <ele>173</ele>
        <time>2017-12-23T11:02:04Z</time>
      </trkpt>
      <trkpt lat="46.08093" lon="4.75582">
        <ele>173</ele>
        <time>2017-12-23T11:02:05Z</time>
      </trkpt>
      <trkpt lat="46.08089" lon="4.75592">
        <ele>174</ele>
        <time>2017-12-23T11:02:09Z</time>
      </trkpt>
      <trkpt lat="46.08087" lon="4.75595">
        <ele>175</ele>
        <time>2017-12-23T11:02:10Z</time>
      </trkpt>
      <trkpt lat="46.08081" lon="4.75603">
        <ele>173</ele>
        <time>2017-12-23T11:02:12Z</time>
      </trkpt>
      <trkpt lat="46.08078" lon="4.75607">
        <ele>173</ele>
        <time>2017-12-23T11:02:13Z</time>
      </trkpt>
      <trkpt lat="46.08071" lon="4.75614">
        <ele>173</ele>
        <time>2017-12-23T11:02:17Z</time>
      </trkpt>
      <trkpt lat="46.08071" lon="4.75615">
        <ele>173</ele>
        <time>2017-12-23T11:02:18Z</time>
      </trkpt>
      <trkpt lat="46.08065" lon="4.75623">
        <ele>173</ele>
        <time>2017-12-23T11:02:24Z</time>
      </trkpt>
      <trkpt lat="46.08064" lon="4.75624">
        <ele>173</ele>
        <time>2017-12-23T11:02:25Z</time>
      </trkpt>
      <trkpt lat="46.08055" lon="4.7562">
        <ele>173</ele>
        <time>2017-12-23T11:03:47Z</time>
      </trkpt>
      <trkpt lat="46.08055" lon="4.7562">
        <ele>173</ele>
        <time>2017-12-23T11:03:48Z</time>
      </trkpt>
      <trkpt lat="46.08057" lon="4.75633">
        <ele>174</ele>
        <time>2017-12-23T11:13:39Z</time>
      </trkpt>
      <trkpt lat="46.08057" lon="4.75633">
        <ele>174</ele>
        <time>2017-12-23T11:13:40Z</time>
      </trkpt>
      <trkpt lat="46.08049" lon="4.75635">
        <ele>173</ele>
        <time>2017-12-23T11:15:03Z</time>
      </trkpt>
      <trkpt lat="46.08048" lon="4.75636">
        <ele>174</ele>
        <time>2017-12-23T11:15:04Z</time>
      </trkpt>
      <trkpt lat="46.08041" lon="4.75644">
        <ele>174</ele>
        <time>2017-12-23T11:15:09Z</time>
      </trkpt>
      <trkpt lat="46.0804" lon="4.75645">
        <ele>174</ele>
        <time>2017-12-23T11:15:10Z</time>
      </trkpt>
      <trkpt lat="46.08032" lon="4.75649">
        <ele>174</ele>
        <time>2017-12-23T11:15:16Z</time>
      </trkpt>
      <trkpt lat="46.08031" lon="4.75648">
        <ele>174</ele>
        <time>2017-12-23T11:15:17Z</time>
      </trkpt>
      <trkpt lat="46.08023" lon="4.75651">
        <ele>174</ele>
        <time>2017-12-23T11:15:20Z</time>
      </trkpt>
      <trkpt lat="46.08021" lon="4.75652">
        <ele>174</ele>
        <time>2017-12-23T11:15:21Z</time>
      </trkpt>
      <trkpt lat="46.08014" lon="4.75658">
        <ele>174</ele>
        <time>2017-12-23T11:15:24Z</time>
      </trkpt>
      <trkpt lat="46.0801" lon="4.75661">
        <ele>175</ele>
        <time>2017-12-23T11:15:25Z</time>
      </trkpt>
      <trkpt lat="46.08003" lon="4.75666">
        <ele>176</ele>
        <time>2017-12-23T11:15:27Z</time>
      </trkpt>
      <trkpt lat="46.07999" lon="4.75669">
        <ele>176</ele>
        <time>2017-12-23T11:15:28Z</time>
      </trkpt>
      <trkpt lat="46.07992" lon="4.75676">
        <ele>175</ele>
        <time>2017-12-23T11:15:30Z</time>
      </trkpt>
      <trkpt lat="46.07989" lon="4.75679">
        <ele>174</ele>
        <time>2017-12-23T11:15:31Z</time>
      </trkpt>
      <trkpt lat="46.07981" lon="4.75685">
        <ele>174</ele>
        <time>2017-12-23T11:15:33Z</time>
      </trkpt>
      <trkpt lat="46.07977" lon="4.75689">
        <ele>174</ele>
        <time>2017-12-23T11:15:34Z</time>
      </trkpt>
      <trkpt lat="46.07971" lon="4.75695">
        <ele>173</ele>
        <time>2017-12-23T11:15:36Z</time>
      </trkpt>
      <trkpt lat="46.07967" lon="4.75698">
        <ele>173</ele>
        <time>2017-12-23T11:15:37Z</time>
      </trkpt>
      <trkpt lat="46.07959" lon="4.75703">
        <ele>173</ele>
        <time>2017-12-23T11:15:39Z</time>
      </trkpt>
      <trkpt lat="46.07955" lon="4.75708">
        <ele>173</ele>
        <time>2017-12-23T11:15:40Z</time>
      </trkpt>
      <trkpt lat="46.0795" lon="4.7571">
        <ele>173</ele>
        <time>2017-12-23T11:15:41Z</time>
      </trkpt>
      <trkpt lat="46.07946" lon="4.75714">
        <ele>173</ele>
        <time>2017-12-23T11:15:42Z</time>
      </trkpt>
      <trkpt lat="46.07942" lon="4.75718">
        <ele>173</ele>
        <time>2017-12-23T11:15:43Z</time>
      </trkpt>
      <trkpt lat="46.07938" lon="4.75723">
        <ele>173</ele>
        <time>2017-12-23T11:15:44Z</time>
      </trkpt>
      <trkpt lat="46.07933" lon="4.75729">
        <ele>173</ele>
        <time>2017-12-23T11:15:45Z</time>
      </trkpt>
      <trkpt lat="46.07929" lon="4.75733">
        <ele>173</ele>
        <time>2017-12-23T11:15:46Z</time>
      </trkpt>
      <trkpt lat="46.07925" lon="4.75737">
        <ele>173</ele>
        <time>2017-12-23T11:15:47Z</time>
      </trkpt>
      <trkpt lat="46.07921" lon="4.75742">
        <ele>173</ele>
        <time>2017-12-23T11:15:48Z</time>
      </trkpt>
      <trkpt lat="46.07917" lon="4.75746">
        <ele>173</ele>
        <time>2017-12-23T11:15:49Z</time>
      </trkpt>
      <trkpt lat="46.07913" lon="4.75751">
        <ele>173</ele>
        <time>2017-12-23T11:15:50Z</time>
      </trkpt>
      <trkpt lat="46.0791" lon="4.75756">
        <ele>172</ele>
        <time>2017-12-23T11:15:51Z</time>
      </trkpt>
      <trkpt lat="46.07907" lon="4.7576">
        <ele>172</ele>
        <time>2017-12-23T11:15:52Z</time>
      </trkpt>
      <trkpt lat="46.079" lon="4.75763">
        <ele>172</ele>
        <time>2017-12-23T11:15:54Z</time>
      </trkpt>
      <trkpt lat="46.07896" lon="4.75766">
        <ele>172</ele>
        <time>2017-12-23T11:15:55Z</time>
      </trkpt>
      <trkpt lat="46.07892" lon="4.7577">
        <ele>172</ele>
        <time>2017-12-23T11:15:56Z</time>
      </trkpt>
      <trkpt lat="46.07888" lon="4.75774">
        <ele>172</ele>
        <time>2017-12-23T11:15:57Z</time>
      </trkpt>
      <trkpt lat="46.07882" lon="4.75782">
        <ele>171</ele>
        <time>2017-12-23T11:15:59Z</time>
      </trkpt>
      <trkpt lat="46.07879" lon="4.75786">
        <ele>171</ele>
        <time>2017-12-23T11:16:00Z</time>
      </trkpt>
      <trkpt lat="46.07875" lon="4.7579">
        <ele>171</ele>
        <time>2017-12-23T11:16:01Z</time>
      </trkpt>
      <trkpt lat="46.07871" lon="4.75796">
        <ele>172</ele>
        <time>2017-12-23T11:16:02Z</time>
      </trkpt>
      <trkpt lat="46.07867" lon="4.758">
        <ele>172</ele>
        <time>2017-12-23T11:16:03Z</time>
      </trkpt>
      <trkpt lat="46.07863" lon="4.75803">
        <ele>172</ele>
        <time>2017-12-23T11:16:04Z</time>
      </trkpt>
      <trkpt lat="46.07858" lon="4.75807">
        <ele>172</ele>
        <time>2017-12-23T11:16:05Z</time>
      </trkpt>
      <trkpt lat="46.07853" lon="4.7581">
        <ele>172</ele>
        <time>2017-12-23T11:16:06Z</time>
      </trkpt>
      <trkpt lat="46.07849" lon="4.75814">
        <ele>172</ele>
        <time>2017-12-23T11:16:07Z</time>
      </trkpt>
      <trkpt lat="46.07844" lon="4.75819">
        <ele>172</ele>
        <time>2017-12-23T11:16:08Z</time>
      </trkpt>
      <trkpt lat="46.07841" lon="4.75822">
        <ele>172</ele>
        <time>2017-12-23T11:16:09Z</time>
      </trkpt>
      <trkpt lat="46.07837" lon="4.75827">
        <ele>173</ele>
        <time>2017-12-23T11:16:10Z</time>
      </trkpt>
      <trkpt lat="46.07833" lon="4.75832">
        <ele>173</ele>
        <time>2017-12-23T11:16:11Z</time>
      </trkpt>
      <trkpt lat="46.0783" lon="4.75836">
        <ele>173</ele>
        <time>2017-12-23T11:16:12Z</time>
      </trkpt>
      <trkpt lat="46.07826" lon="4.75839">
        <ele>173</ele>
        <time>2017-12-23T11:16:13Z</time>
      </trkpt>
      <trkpt lat="46.07823" lon="4.75846">
        <ele>173</ele>
        <time>2017-12-23T11:16:14Z</time>
      </trkpt>
      <trkpt lat="46.0782" lon="4.75852">
        <ele>172</ele>
        <time>2017-12-23T11:16:15Z</time>
      </trkpt>
      <trkpt lat="46.07816" lon="4.75856">
        <ele>172</ele>
        <time>2017-12-23T11:16:16Z</time>
      </trkpt>
      <trkpt lat="46.07812" lon="4.75862">
        <ele>172</ele>
        <time>2017-12-23T11:16:17Z</time>
      </trkpt>
      <trkpt lat="46.07808" lon="4.75865">
        <ele>172</ele>
        <time>2017-12-23T11:16:18Z</time>
      </trkpt>
      <trkpt lat="46.07803" lon="4.75869">
        <ele>172</ele>
        <time>2017-12-23T11:16:19Z</time>
      </trkpt>
      <trkpt lat="46.07798" lon="4.75874">
        <ele>172</ele>
        <time>2017-12-23T11:16:20Z</time>
      </trkpt>
      <trkpt lat="46.07793" lon="4.75878">
        <ele>172</ele>
        <time>2017-12-23T11:16:21Z</time>
      </trkpt>
      <trkpt lat="46.07789" lon="4.75882">
        <ele>172</ele>
        <time>2017-12-23T11:16:22Z</time>
      </trkpt>
      <trkpt lat="46.07785" lon="4.75885">
        <ele>172</ele>
        <time>2017-12-23T11:16:23Z</time>
      </trkpt>
      <trkpt lat="46.07781" lon="4.75888">
        <ele>172</ele>
        <time>2017-12-23T11:16:24Z</time>
      </trkpt>
      <trkpt lat="46.07773" lon="4.75895">
        <ele>173</ele>
        <time>2017-12-23T11:16:26Z</time>
      </trkpt>
      <trkpt lat="46.07769" lon="4.75898">
        <ele>173</ele>
        <time>2017-12-23T11:16:27Z</time>
      </trkpt>
      <trkpt lat="46.07765" lon="4.75901">
        <ele>173</ele>
        <time>2017-12-23T11:16:28Z</time>
      </trkpt>
      <trkpt lat="46.07761" lon="4.75904">
        <ele>173</ele>
        <time>2017-12-23T11:16:29Z</time>
      </trkpt>
      <trkpt lat="46.07757" lon="4.75908">
        <ele>173</ele>
        <time>2017-12-23T11:16:30Z</time>
      </trkpt>
      <trkpt lat="46.07752" lon="4.75913">
        <ele>174</ele>
        <time>2017-12-23T11:16:31Z</time>
      </trkpt>
      <trkpt lat="46.07748" lon="4.75917">
        <ele>174</ele>
        <time>2017-12-23T11:16:32Z</time>
      </trkpt>
      <trkpt lat="46.07744" lon="4.7592">
        <ele>174</ele>
        <time>2017-12-23T11:16:33Z</time>
      </trkpt>
      <trkpt lat="46.0774" lon="4.75924">
        <ele>173</ele>
        <time>2017-12-23T11:16:34Z</time>
      </trkpt>
      <trkpt lat="46.07735" lon="4.75928">
        <ele>173</ele>
        <time>2017-12-23T11:16:35Z</time>
      </trkpt>
      <trkpt lat="46.07731" lon="4.75931">
        <ele>173</ele>
        <time>2017-12-23T11:16:36Z</time>
      </trkpt>
      <trkpt lat="46.07727" lon="4.75933">
        <ele>173</ele>
        <time>2017-12-23T11:16:37Z</time>
      </trkpt>
      <trkpt lat="46.07722" lon="4.75936">
        <ele>173</ele>
        <time>2017-12-23T11:16:38Z</time>
      </trkpt>
      <trkpt lat="46.07718" lon="4.7594">
        <ele>172</ele>
        <time>2017-12-23T11:16:39Z</time>
      </trkpt>
      <trkpt lat="46.07713" lon="4.75943">
        <ele>172</ele>
        <time>2017-12-23T11:16:40Z</time>
      </trkpt>
      <trkpt lat="46.0771" lon="4.75947">
        <ele>172</ele>
        <time>2017-12-23T11:16:41Z</time>
      </trkpt>
      <trkpt lat="46.07702" lon="4.75953">
        <ele>172</ele>
        <time>2017-12-23T11:16:43Z</time>
      </trkpt>
      <trkpt lat="46.07698" lon="4.75955">
        <ele>172</ele>
        <time>2017-12-23T11:16:44Z</time>
      </trkpt>
      <trkpt lat="46.07693" lon="4.75959">
        <ele>172</ele>
        <time>2017-12-23T11:16:45Z</time>
      </trkpt>
      <trkpt lat="46.07689" lon="4.75962">
        <ele>172</ele>
        <time>2017-12-23T11:16:46Z</time>
      </trkpt>
      <trkpt lat="46.07685" lon="4.75965">
        <ele>172</ele>
        <time>2017-12-23T11:16:47Z</time>
      </trkpt>
      <trkpt lat="46.07681" lon="4.75967">
        <ele>172</ele>
        <time>2017-12-23T11:16:48Z</time>
      </trkpt>
      <trkpt lat="46.07677" lon="4.7597">
        <ele>172</ele>
        <time>2017-12-23T11:16:49Z</time>
      </trkpt>
      <trkpt lat="46.07672" lon="4.75975">
        <ele>172</ele>
        <time>2017-12-23T11:16:50Z</time>
      </trkpt>
      <trkpt lat="46.07668" lon="4.75977">
        <ele>172</ele>
        <time>2017-12-23T11:16:51Z</time>
      </trkpt>
      <trkpt lat="46.07664" lon="4.75979">
        <ele>170</ele>
        <time>2017-12-23T11:16:52Z</time>
      </trkpt>
      <trkpt lat="46.07659" lon="4.75982">
        <ele>170</ele>
        <time>2017-12-23T11:16:53Z</time>
      </trkpt>
      <trkpt lat="46.07655" lon="4.75984">
        <ele>170</ele>
        <time>2017-12-23T11:16:54Z</time>
      </trkpt>
      <trkpt lat="46.07648" lon="4.75991">
        <ele>170</ele>
        <time>2017-12-23T11:16:56Z</time>
      </trkpt>
      <trkpt lat="46.07648" lon="4.75998">
        <ele>170</ele>
        <time>2017-12-23T11:16:57Z</time>
      </trkpt>
      <trkpt lat="46.07648" lon="4.76009">
        <ele>172</ele>
        <time>2017-12-23T11:16:59Z</time>
      </trkpt>
      <trkpt lat="46.07649" lon="4.76013">
        <ele>172</ele>
        <time>2017-12-23T11:17:00Z</time>
      </trkpt>
      <trkpt lat="46.07654" lon="4.76021">
        <ele>172</ele>
        <time>2017-12-23T11:17:02Z</time>
      </trkpt>
      <trkpt lat="46.07656" lon="4.76026">
        <ele>172</ele>
        <time>2017-12-23T11:17:03Z</time>
      </trkpt>
      <trkpt lat="46.07661" lon="4.76034">
        <ele>172</ele>
        <time>2017-12-23T11:17:05Z</time>
      </trkpt>
      <trkpt lat="46.07663" lon="4.76039">
        <ele>172</ele>
        <time>2017-12-23T11:17:06Z</time>
      </trkpt>
      <trkpt lat="46.07668" lon="4.76049">
        <ele>174</ele>
        <time>2017-12-23T11:17:08Z</time>
      </trkpt>
      <trkpt lat="46.07669" lon="4.76054">
        <ele>174</ele>
        <time>2017-12-23T11:17:09Z</time>
      </trkpt>
      <trkpt lat="46.07672" lon="4.76062">
        <ele>174</ele>
        <time>2017-12-23T11:17:11Z</time>
      </trkpt>
      <trkpt lat="46.07674" lon="4.76066">
        <ele>174</ele>
        <time>2017-12-23T11:17:12Z</time>
      </trkpt>
      <trkpt lat="46.07679" lon="4.76074">
        <ele>174</ele>
        <time>2017-12-23T11:17:15Z</time>
      </trkpt>
      <trkpt lat="46.0768" lon="4.76077">
        <ele>174</ele>
        <time>2017-12-23T11:17:16Z</time>
      </trkpt>
      <trkpt lat="46.07684" lon="4.76087">
        <ele>173</ele>
        <time>2017-12-23T11:17:19Z</time>
      </trkpt>
      <trkpt lat="46.07685" lon="4.7609">
        <ele>173</ele>
        <time>2017-12-23T11:17:20Z</time>
      </trkpt>
      <trkpt lat="46.07684" lon="4.76102">
        <ele>173</ele>
        <time>2017-12-23T11:17:23Z</time>
      </trkpt>
      <trkpt lat="46.07683" lon="4.76105">
        <ele>173</ele>
        <time>2017-12-23T11:17:24Z</time>
      </trkpt>
      <trkpt lat="46.07678" lon="4.76112">
        <ele>173</ele>
        <time>2017-12-23T11:17:26Z</time>
      </trkpt>
      <trkpt lat="46.07676" lon="4.76116">
        <ele>173</ele>
        <time>2017-12-23T11:17:27Z</time>
      </trkpt>
      <trkpt lat="46.0767" lon="4.76124">
        <ele>173</ele>
        <time>2017-12-23T11:17:29Z</time>
      </trkpt>
      <trkpt lat="46.07664" lon="4.76128">
        <ele>172</ele>
        <time>2017-12-23T11:17:30Z</time>
      </trkpt>
      <trkpt lat="46.07661" lon="4.76134">
        <ele>172</ele>
        <time>2017-12-23T11:17:31Z</time>
      </trkpt>
      <trkpt lat="46.07654" lon="4.76139">
        <ele>172</ele>
        <time>2017-12-23T11:17:32Z</time>
      </trkpt>
      <trkpt lat="46.0765" lon="4.76145">
        <ele>172</ele>
        <time>2017-12-23T11:17:33Z</time>
      </trkpt>
      <trkpt lat="46.07644" lon="4.76151">
        <ele>172</ele>
        <time>2017-12-23T11:17:34Z</time>
      </trkpt>
      <trkpt lat="46.0764" lon="4.76155">
        <ele>172</ele>
        <time>2017-12-23T11:17:35Z</time>
      </trkpt>
      <trkpt lat="46.07634" lon="4.76161">
        <ele>172</ele>
        <time>2017-12-23T11:17:36Z</time>
      </trkpt>
      <trkpt lat="46.0763" lon="4.76166">
        <ele>172</ele>
        <time>2017-12-23T11:17:37Z</time>
      </trkpt>
      <trkpt lat="46.07626" lon="4.7617">
        <ele>173</ele>
        <time>2017-12-23T11:17:38Z</time>
      </trkpt>
      <trkpt lat="46.07622" lon="4.76174">
        <ele>173</ele>
        <time>2017-12-23T11:17:39Z</time>
      </trkpt>
      <trkpt lat="46.07617" lon="4.76179">
        <ele>173</ele>
        <time>2017-12-23T11:17:40Z</time>
      </trkpt>
      <trkpt lat="46.07613" lon="4.76183">
        <ele>173</ele>
        <time>2017-12-23T11:17:41Z</time>
      </trkpt>
      <trkpt lat="46.07608" lon="4.76188">
        <ele>173</ele>
        <time>2017-12-23T11:17:42Z</time>
      </trkpt>
      <trkpt lat="46.07603" lon="4.76194">
        <ele>173</ele>
        <time>2017-12-23T11:17:43Z</time>
      </trkpt>
      <trkpt lat="46.07598" lon="4.762">
        <ele>173</ele>
        <time>2017-12-23T11:17:44Z</time>
      </trkpt>
      <trkpt lat="46.07593" lon="4.76207">
        <ele>173</ele>
        <time>2017-12-23T11:17:45Z</time>
      </trkpt>
      <trkpt lat="46.07589" lon="4.7621">
        <ele>173</ele>
        <time>2017-12-23T11:17:46Z</time>
      </trkpt>
      <trkpt lat="46.07584" lon="4.76215">
        <ele>173</ele>
        <time>2017-12-23T11:17:47Z</time>
      </trkpt>
      <trkpt lat="46.0758" lon="4.76219">
        <ele>173</ele>
        <time>2017-12-23T11:17:48Z</time>
      </trkpt>
      <trkpt lat="46.07576" lon="4.76222">
        <ele>173</ele>
        <time>2017-12-23T11:17:49Z</time>
      </trkpt>
      <trkpt lat="46.07572" lon="4.76227">
        <ele>173</ele>
        <time>2017-12-23T11:17:50Z</time>
      </trkpt>
      <trkpt lat="46.07567" lon="4.76232">
        <ele>173</ele>
        <time>2017-12-23T11:17:51Z</time>
      </trkpt>
      <trkpt lat="46.07564" lon="4.76237">
        <ele>173</ele>
        <time>2017-12-23T11:17:52Z</time>
      </trkpt>
      <trkpt lat="46.07559" lon="4.76242">
        <ele>173</ele>
        <time>2017-12-23T11:17:53Z</time>
      </trkpt>
      <trkpt lat="46.07555" lon="4.76245">
        <ele>173</ele>
        <time>2017-12-23T11:17:54Z</time>
      </trkpt>
      <trkpt lat="46.07549" lon="4.76248">
        <ele>173</ele>
        <time>2017-12-23T11:17:55Z</time>
      </trkpt>
      <trkpt lat="46.07543" lon="4.76253">
        <ele>174</ele>
        <time>2017-12-23T11:17:56Z</time>
      </trkpt>
      <trkpt lat="46.07539" lon="4.76259">
        <ele>174</ele>
        <time>2017-12-23T11:17:57Z</time>
      </trkpt>
      <trkpt lat="46.07534" lon="4.76263">
        <ele>174</ele>
        <time>2017-12-23T11:17:58Z</time>
      </trkpt>
      <trkpt lat="46.0753" lon="4.76269">
        <ele>174</ele>
        <time>2017-12-23T11:17:59Z</time>
      </trkpt>
      <trkpt lat="46.07526" lon="4.76272">
        <ele>174</ele>
        <time>2017-12-23T11:18:00Z</time>
      </trkpt>
      <trkpt lat="46.07522" lon="4.76277">
        <ele>174</ele>
        <time>2017-12-23T11:18:01Z</time>
      </trkpt>
      <trkpt lat="46.07518" lon="4.76281">
        <ele>174</ele>
        <time>2017-12-23T11:18:02Z</time>
      </trkpt>
      <trkpt lat="46.07512" lon="4.76286">
        <ele>174</ele>
        <time>2017-12-23T11:18:03Z</time>
      </trkpt>
      <trkpt lat="46.07507" lon="4.7629">
        <ele>174</ele>
        <time>2017-12-23T11:18:04Z</time>
      </trkpt>
      <trkpt lat="46.07503" lon="4.76294">
        <ele>174</ele>
        <time>2017-12-23T11:18:05Z</time>
      </trkpt>
      <trkpt lat="46.075" lon="4.763">
        <ele>173</ele>
        <time>2017-12-23T11:18:06Z</time>
      </trkpt>
      <trkpt lat="46.07496" lon="4.76303">
        <ele>173</ele>
        <time>2017-12-23T11:18:07Z</time>
      </trkpt>
      <trkpt lat="46.07491" lon="4.76305">
        <ele>173</ele>
        <time>2017-12-23T11:18:08Z</time>
      </trkpt>
      <trkpt lat="46.07486" lon="4.76306">
        <ele>173</ele>
        <time>2017-12-23T11:18:09Z</time>
      </trkpt>
      <trkpt lat="46.07482" lon="4.76308">
        <ele>173</ele>
        <time>2017-12-23T11:18:10Z</time>
      </trkpt>
      <trkpt lat="46.07476" lon="4.76311">
        <ele>172</ele>
        <time>2017-12-23T11:18:11Z</time>
      </trkpt>
      <trkpt lat="46.07471" lon="4.76315">
        <ele>172</ele>
        <time>2017-12-23T11:18:12Z</time>
      </trkpt>
      <trkpt lat="46.07469" lon="4.76322">
        <ele>172</ele>
        <time>2017-12-23T11:18:13Z</time>
      </trkpt>
      <trkpt lat="46.07467" lon="4.76329">
        <ele>172</ele>
        <time>2017-12-23T11:18:14Z</time>
      </trkpt>
      <trkpt lat="46.07465" lon="4.76337">
        <ele>172</ele>
        <time>2017-12-23T11:18:15Z</time>
      </trkpt>
      <trkpt lat="46.07462" lon="4.76344">
        <ele>172</ele>
        <time>2017-12-23T11:18:16Z</time>
      </trkpt>
      <trkpt lat="46.07457" lon="4.76348">
        <ele>172</ele>
        <time>2017-12-23T11:18:17Z</time>
      </trkpt>
      <trkpt lat="46.07452" lon="4.76353">
        <ele>172</ele>
        <time>2017-12-23T11:18:18Z</time>
      </trkpt>
      <trkpt lat="46.07447" lon="4.76357">
        <ele>172</ele>
        <time>2017-12-23T11:18:19Z</time>
      </trkpt>
      <trkpt lat="46.07442" lon="4.76361">
        <ele>171</ele>
        <time>2017-12-23T11:18:20Z</time>
      </trkpt>
      <trkpt lat="46.07438" lon="4.76366">
        <ele>171</ele>
        <time>2017-12-23T11:18:21Z</time>
      </trkpt>
      <trkpt lat="46.07433" lon="4.76371">
        <ele>171</ele>
        <time>2017-12-23T11:18:22Z</time>
      </trkpt>
      <trkpt lat="46.07428" lon="4.76375">
        <ele>171</ele>
        <time>2017-12-23T11:18:23Z</time>
      </trkpt>
      <trkpt lat="46.07424" lon="4.76379">
        <ele>171</ele>
        <time>2017-12-23T11:18:24Z</time>
      </trkpt>
      <trkpt lat="46.0742" lon="4.76384">
        <ele>171</ele>
        <time>2017-12-23T11:18:25Z</time>
      </trkpt>
      <trkpt lat="46.07415" lon="4.76389">
        <ele>170</ele>
        <time>2017-12-23T11:18:26Z</time>
      </trkpt>
      <trkpt lat="46.0741" lon="4.76395">
        <ele>170</ele>
        <time>2017-12-23T11:18:27Z</time>
      </trkpt>
      <trkpt lat="46.07406" lon="4.764">
        <ele>170</ele>
        <time>2017-12-23T11:18:28Z</time>
      </trkpt>
      <trkpt lat="46.07401" lon="4.76404">
        <ele>171</ele>
        <time>2017-12-23T11:18:29Z</time>
      </trkpt>
      <trkpt lat="46.07396" lon="4.7641">
        <ele>170</ele>
        <time>2017-12-23T11:18:30Z</time>
      </trkpt>
      <trkpt lat="46.07391" lon="4.76415">
        <ele>170</ele>
        <time>2017-12-23T11:18:31Z</time>
      </trkpt>
      <trkpt lat="46.07386" lon="4.76421">
        <ele>171</ele>
        <time>2017-12-23T11:18:32Z</time>
      </trkpt>
      <trkpt lat="46.07382" lon="4.76427">
        <ele>171</ele>
        <time>2017-12-23T11:18:33Z</time>
      </trkpt>
      <trkpt lat="46.07378" lon="4.76433">
        <ele>171</ele>
        <time>2017-12-23T11:18:34Z</time>
      </trkpt>
      <trkpt lat="46.07374" lon="4.76437">
        <ele>171</ele>
        <time>2017-12-23T11:18:35Z</time>
      </trkpt>
      <trkpt lat="46.07369" lon="4.76442">
        <ele>171</ele>
        <time>2017-12-23T11:18:36Z</time>
      </trkpt>
      <trkpt lat="46.07364" lon="4.76446">
        <ele>171</ele>
        <time>2017-12-23T11:18:37Z</time>
      </trkpt>
      <trkpt lat="46.0736" lon="4.76452">
        <ele>171</ele>
        <time>2017-12-23T11:18:38Z</time>
      </trkpt>
      <trkpt lat="46.07355" lon="4.76457">
        <ele>171</ele>
        <time>2017-12-23T11:18:39Z</time>
      </trkpt>
      <trkpt lat="46.0735" lon="4.76462">
        <ele>171</ele>
        <time>2017-12-23T11:18:40Z</time>
      </trkpt>
      <trkpt lat="46.07345" lon="4.76467">
        <ele>171</ele>
        <time>2017-12-23T11:18:41Z</time>
      </trkpt>
      <trkpt lat="46.0734" lon="4.76471">
        <ele>171</ele>
        <time>2017-12-23T11:18:42Z</time>
      </trkpt>
      <trkpt lat="46.07334" lon="4.76476">
        <ele>171</ele>
        <time>2017-12-23T11:18:43Z</time>
      </trkpt>
      <trkpt lat="46.0733" lon="4.76481">
        <ele>170</ele>
        <time>2017-12-23T11:18:44Z</time>
      </trkpt>
      <trkpt lat="46.07325" lon="4.76485">
        <ele>170</ele>
        <time>2017-12-23T11:18:45Z</time>
      </trkpt>
      <trkpt lat="46.07319" lon="4.7649">
        <ele>170</ele>
        <time>2017-12-23T11:18:46Z</time>
      </trkpt>
      <trkpt lat="46.07315" lon="4.76494">
        <ele>170</ele>
        <time>2017-12-23T11:18:47Z</time>
      </trkpt>
      <trkpt lat="46.07311" lon="4.76499">
        <ele>170</ele>
        <time>2017-12-23T11:18:48Z</time>
      </trkpt>
      <trkpt lat="46.07307" lon="4.76504">
        <ele>170</ele>
        <time>2017-12-23T11:18:49Z</time>
      </trkpt>
      <trkpt lat="46.07303" lon="4.76509">
        <ele>170</ele>
        <time>2017-12-23T11:18:50Z</time>
      </trkpt>
      <trkpt lat="46.07299" lon="4.76513">
        <ele>170</ele>
        <time>2017-12-23T11:18:51Z</time>
      </trkpt>
      <trkpt lat="46.07295" lon="4.76516">
        <ele>170</ele>
        <time>2017-12-23T11:18:52Z</time>
      </trkpt>
      <trkpt lat="46.07291" lon="4.76521">
        <ele>170</ele>
        <time>2017-12-23T11:18:53Z</time>
      </trkpt>
      <trkpt lat="46.07287" lon="4.76526">
        <ele>170</ele>
        <time>2017-12-23T11:18:54Z</time>
      </trkpt>
      <trkpt lat="46.07283" lon="4.7653">
        <ele>170</ele>
        <time>2017-12-23T11:18:55Z</time>
      </trkpt>
      <trkpt lat="46.07279" lon="4.76535">
        <ele>170</ele>
        <time>2017-12-23T11:18:56Z</time>
      </trkpt>
      <trkpt lat="46.07275" lon="4.76541">
        <ele>170</ele>
        <time>2017-12-23T11:18:57Z</time>
      </trkpt>
      <trkpt lat="46.07271" lon="4.76547">
        <ele>170</ele>
        <time>2017-12-23T11:18:58Z</time>
      </trkpt>
      <trkpt lat="46.07266" lon="4.76551">
        <ele>170</ele>
        <time>2017-12-23T11:18:59Z</time>
      </trkpt>
      <trkpt lat="46.07262" lon="4.76558">
        <ele>170</ele>
        <time>2017-12-23T11:19:00Z</time>
      </trkpt>
      <trkpt lat="46.07257" lon="4.76563">
        <ele>170</ele>
        <time>2017-12-23T11:19:01Z</time>
      </trkpt>
      <trkpt lat="46.07253" lon="4.76569">
        <ele>170</ele>
        <time>2017-12-23T11:19:02Z</time>
      </trkpt>
      <trkpt lat="46.07248" lon="4.76575">
        <ele>170</ele>
        <time>2017-12-23T11:19:03Z</time>
      </trkpt>
      <trkpt lat="46.07243" lon="4.76581">
        <ele>170</ele>
        <time>2017-12-23T11:19:04Z</time>
      </trkpt>
      <trkpt lat="46.07238" lon="4.76586">
        <ele>170</ele>
        <time>2017-12-23T11:19:05Z</time>
      </trkpt>
      <trkpt lat="46.07234" lon="4.76592">
        <ele>170</ele>
        <time>2017-12-23T11:19:06Z</time>
      </trkpt>
      <trkpt lat="46.07229" lon="4.76597">
        <ele>170</ele>
        <time>2017-12-23T11:19:07Z</time>
      </trkpt>
      <trkpt lat="46.07225" lon="4.76603">
        <ele>170</ele>
        <time>2017-12-23T11:19:08Z</time>
      </trkpt>
      <trkpt lat="46.0722" lon="4.76609">
        <ele>170</ele>
        <time>2017-12-23T11:19:09Z</time>
      </trkpt>
      <trkpt lat="46.07216" lon="4.76614">
        <ele>170</ele>
        <time>2017-12-23T11:19:10Z</time>
      </trkpt>
      <trkpt lat="46.07211" lon="4.7662">
        <ele>170</ele>
        <time>2017-12-23T11:19:11Z</time>
      </trkpt>
      <trkpt lat="46.07206" lon="4.76625">
        <ele>170</ele>
        <time>2017-12-23T11:19:12Z</time>
      </trkpt>
      <trkpt lat="46.07202" lon="4.76632">
        <ele>170</ele>
        <time>2017-12-23T11:19:13Z</time>
      </trkpt>
      <trkpt lat="46.07197" lon="4.76638">
        <ele>170</ele>
        <time>2017-12-23T11:19:14Z</time>
      </trkpt>
      <trkpt lat="46.07194" lon="4.76646">
        <ele>170</ele>
        <time>2017-12-23T11:19:15Z</time>
      </trkpt>
      <trkpt lat="46.0719" lon="4.76653">
        <ele>170</ele>
        <time>2017-12-23T11:19:16Z</time>
      </trkpt>
      <trkpt lat="46.07185" lon="4.76659">
        <ele>170</ele>
        <time>2017-12-23T11:19:17Z</time>
      </trkpt>
      <trkpt lat="46.07181" lon="4.76666">
        <ele>170</ele>
        <time>2017-12-23T11:19:18Z</time>
      </trkpt>
      <trkpt lat="46.07177" lon="4.76673">
        <ele>170</ele>
        <time>2017-12-23T11:19:19Z</time>
      </trkpt>
      <trkpt lat="46.07173" lon="4.7668">
        <ele>170</ele>
        <time>2017-12-23T11:19:20Z</time>
      </trkpt>
      <trkpt lat="46.07169" lon="4.76687">
        <ele>170</ele>
        <time>2017-12-23T11:19:21Z</time>
      </trkpt>
      <trkpt lat="46.07167" lon="4.76696">
        <ele>170</ele>
        <time>2017-12-23T11:19:22Z</time>
      </trkpt>
      <trkpt lat="46.07163" lon="4.76703">
        <ele>170</ele>
        <time>2017-12-23T11:19:23Z</time>
      </trkpt>
      <trkpt lat="46.07159" lon="4.76711">
        <ele>170</ele>
        <time>2017-12-23T11:19:24Z</time>
      </trkpt>
      <trkpt lat="46.07155" lon="4.76717">
        <ele>170</ele>
        <time>2017-12-23T11:19:25Z</time>
      </trkpt>
      <trkpt lat="46.07151" lon="4.76724">
        <ele>170</ele>
        <time>2017-12-23T11:19:26Z</time>
      </trkpt>
      <trkpt lat="46.07147" lon="4.7673">
        <ele>171</ele>
        <time>2017-12-23T11:19:27Z</time>
      </trkpt>
      <trkpt lat="46.07143" lon="4.76738">
        <ele>171</ele>
        <time>2017-12-23T11:19:28Z</time>
      </trkpt>
      <trkpt lat="46.0714" lon="4.76745">
        <ele>171</ele>
        <time>2017-12-23T11:19:29Z</time>
      </trkpt>
      <trkpt lat="46.07137" lon="4.76751">
        <ele>171</ele>
        <time>2017-12-23T11:19:30Z</time>
      </trkpt>
      <trkpt lat="46.07134" lon="4.76758">
        <ele>171</ele>
        <time>2017-12-23T11:19:31Z</time>
      </trkpt>
      <trkpt lat="46.07131" lon="4.76764">
        <ele>171</ele>
        <time>2017-12-23T11:19:32Z</time>
      </trkpt>
      <trkpt lat="46.07127" lon="4.7677">
        <ele>171</ele>
        <time>2017-12-23T11:19:33Z</time>
      </trkpt>
      <trkpt lat="46.07124" lon="4.76776">
        <ele>171</ele>
        <time>2017-12-23T11:19:34Z</time>
      </trkpt>
      <trkpt lat="46.0712" lon="4.76783">
        <ele>171</ele>
        <time>2017-12-23T11:19:35Z</time>
      </trkpt>
      <trkpt lat="46.07117" lon="4.7679">
        <ele>171</ele>
        <time>2017-12-23T11:19:36Z</time>
      </trkpt>
      <trkpt lat="46.07113" lon="4.76797">
        <ele>172</ele>
        <time>2017-12-23T11:19:37Z</time>
      </trkpt>
      <trkpt lat="46.07109" lon="4.76804">
        <ele>172</ele>
        <time>2017-12-23T11:19:38Z</time>
      </trkpt>
      <trkpt lat="46.07105" lon="4.76811">
        <ele>172</ele>
        <time>2017-12-23T11:19:39Z</time>
      </trkpt>
      <trkpt lat="46.07102" lon="4.76818">
        <ele>172</ele>
        <time>2017-12-23T11:19:40Z</time>
      </trkpt>
      <trkpt lat="46.07099" lon="4.76824">
        <ele>172</ele>
        <time>2017-12-23T11:19:41Z</time>
      </trkpt>
      <trkpt lat="46.07095" lon="4.76831">
        <ele>172</ele>
        <time>2017-12-23T11:19:42Z</time>
      </trkpt>
      <trkpt lat="46.07092" lon="4.76839">
        <ele>172</ele>
        <time>2017-12-23T11:19:43Z</time>
      </trkpt>
      <trkpt lat="46.07088" lon="4.76846">
        <ele>172</ele>
        <time>2017-12-23T11:19:44Z</time>
      </trkpt>
      <trkpt lat="46.07085" lon="4.76852">
        <ele>172</ele>
        <time>2017-12-23T11:19:45Z</time>
      </trkpt>
      <trkpt lat="46.0708" lon="4.7686">
        <ele>172</ele>
        <time>2017-12-23T11:19:46Z</time>
      </trkpt>
      <trkpt lat="46.07077" lon="4.76866">
        <ele>172</ele>
        <time>2017-12-23T11:19:47Z</time>
      </trkpt>
      <trkpt lat="46.07073" lon="4.76872">
        <ele>172</ele>
        <time>2017-12-23T11:19:48Z</time>
      </trkpt>
      <trkpt lat="46.0707" lon="4.76881">
        <ele>172</ele>
        <time>2017-12-23T11:19:49Z</time>
      </trkpt>
      <trkpt lat="46.07067" lon="4.76887">
        <ele>172</ele>
        <time>2017-12-23T11:19:50Z</time>
      </trkpt>
      <trkpt lat="46.07064" lon="4.76895">
        <ele>172</ele>
        <time>2017-12-23T11:19:51Z</time>
      </trkpt>
      <trkpt lat="46.0706" lon="4.76901">
        <ele>172</ele>
        <time>2017-12-23T11:19:52Z</time>
      </trkpt>
      <trkpt lat="46.07057" lon="4.76907">
        <ele>172</ele>
        <time>2017-12-23T11:19:53Z</time>
      </trkpt>
      <trkpt lat="46.07053" lon="4.76913">
        <ele>172</ele>
        <time>2017-12-23T11:19:54Z</time>
      </trkpt>
      <trkpt lat="46.0705" lon="4.76919">
        <ele>173</ele>
        <time>2017-12-23T11:19:55Z</time>
      </trkpt>
      <trkpt lat="46.07047" lon="4.76925">
        <ele>173</ele>
        <time>2017-12-23T11:19:56Z</time>
      </trkpt>
      <trkpt lat="46.07044" lon="4.76932">
        <ele>173</ele>
        <time>2017-12-23T11:19:57Z</time>
      </trkpt>
      <trkpt lat="46.07041" lon="4.76939">
        <ele>173</ele>
        <time>2017-12-23T11:19:58Z</time>
      </trkpt>
      <trkpt lat="46.07037" lon="4.76945">
        <ele>173</ele>
        <time>2017-12-23T11:19:59Z</time>
      </trkpt>
      <trkpt lat="46.07034" lon="4.7695">
        <ele>173</ele>
        <time>2017-12-23T11:20:00Z</time>
      </trkpt>
      <trkpt lat="46.07032" lon="4.76959">
        <ele>173</ele>
        <time>2017-12-23T11:20:01Z</time>
      </trkpt>
      <trkpt lat="46.07028" lon="4.76966">
        <ele>173</ele>
        <time>2017-12-23T11:20:02Z</time>
      </trkpt>
      <trkpt lat="46.07025" lon="4.76973">
        <ele>173</ele>
        <time>2017-12-23T11:20:03Z</time>
      </trkpt>
      <trkpt lat="46.07022" lon="4.7698">
        <ele>173</ele>
        <time>2017-12-23T11:20:04Z</time>
      </trkpt>
      <trkpt lat="46.07018" lon="4.76986">
        <ele>173</ele>
        <time>2017-12-23T11:20:05Z</time>
      </trkpt>
      <trkpt lat="46.07014" lon="4.76992">
        <ele>173</ele>
        <time>2017-12-23T11:20:06Z</time>
      </trkpt>
      <trkpt lat="46.07011" lon="4.76999">
        <ele>173</ele>
        <time>2017-12-23T11:20:07Z</time>
      </trkpt>
      <trkpt lat="46.07007" lon="4.77004">
        <ele>173</ele>
        <time>2017-12-23T11:20:08Z</time>
      </trkpt>
      <trkpt lat="46.07004" lon="4.7701">
        <ele>173</ele>
        <time>2017-12-23T11:20:09Z</time>
      </trkpt>
      <trkpt lat="46.07" lon="4.77017">
        <ele>174</ele>
        <time>2017-12-23T11:20:10Z</time>
      </trkpt>
      <trkpt lat="46.06997" lon="4.77022">
        <ele>173</ele>
        <time>2017-12-23T11:20:11Z</time>
      </trkpt>
      <trkpt lat="46.06994" lon="4.77027">
        <ele>173</ele>
        <time>2017-12-23T11:20:12Z</time>
      </trkpt>
      <trkpt lat="46.06992" lon="4.77033">
        <ele>173</ele>
        <time>2017-12-23T11:20:13Z</time>
      </trkpt>
      <trkpt lat="46.06989" lon="4.77038">
        <ele>173</ele>
        <time>2017-12-23T11:20:14Z</time>
      </trkpt>
      <trkpt lat="46.06985" lon="4.77048">
        <ele>173</ele>
        <time>2017-12-23T11:20:16Z</time>
      </trkpt>
      <trkpt lat="46.06982" lon="4.77053">
        <ele>173</ele>
        <time>2017-12-23T11:20:17Z</time>
      </trkpt>
      <trkpt lat="46.06976" lon="4.7706">
        <ele>173</ele>
        <time>2017-12-23T11:20:20Z</time>
      </trkpt>
      <trkpt lat="46.06973" lon="4.77062">
        <ele>173</ele>
        <time>2017-12-23T11:20:21Z</time>
      </trkpt>
      <trkpt lat="46.06965" lon="4.77064">
        <ele>173</ele>
        <time>2017-12-23T11:20:23Z</time>
      </trkpt>
      <trkpt lat="46.0696" lon="4.77064">
        <ele>173</ele>
        <time>2017-12-23T11:20:24Z</time>
      </trkpt>
      <trkpt lat="46.06954" lon="4.77065">
        <ele>173</ele>
        <time>2017-12-23T11:20:25Z</time>
      </trkpt>
      <trkpt lat="46.06948" lon="4.77066">
        <ele>173</ele>
        <time>2017-12-23T11:20:26Z</time>
      </trkpt>
      <trkpt lat="46.06942" lon="4.77066">
        <ele>173</ele>
        <time>2017-12-23T11:20:27Z</time>
      </trkpt>
      <trkpt lat="46.06936" lon="4.77067">
        <ele>173</ele>
        <time>2017-12-23T11:20:28Z</time>
      </trkpt>
      <trkpt lat="46.0693" lon="4.77068">
        <ele>173</ele>
        <time>2017-12-23T11:20:29Z</time>
      </trkpt>
      <trkpt lat="46.06924" lon="4.77068">
        <ele>173</ele>
        <time>2017-12-23T11:20:30Z</time>
      </trkpt>
      <trkpt lat="46.06916" lon="4.77069">
        <ele>173</ele>
        <time>2017-12-23T11:20:31Z</time>
      </trkpt>
      <trkpt lat="46.06911" lon="4.77069">
        <ele>173</ele>
        <time>2017-12-23T11:20:32Z</time>
      </trkpt>
      <trkpt lat="46.06905" lon="4.77069">
        <ele>173</ele>
        <time>2017-12-23T11:20:33Z</time>
      </trkpt>
      <trkpt lat="46.069" lon="4.7707">
        <ele>173</ele>
        <time>2017-12-23T11:20:34Z</time>
      </trkpt>
      <trkpt lat="46.06895" lon="4.77072">
        <ele>173</ele>
        <time>2017-12-23T11:20:35Z</time>
      </trkpt>
      <trkpt lat="46.0689" lon="4.77071">
        <ele>173</ele>
        <time>2017-12-23T11:20:36Z</time>
      </trkpt>
      <trkpt lat="46.06884" lon="4.77072">
        <ele>173</ele>
        <time>2017-12-23T11:20:37Z</time>
      </trkpt>
      <trkpt lat="46.0688" lon="4.77073">
        <ele>173</ele>
        <time>2017-12-23T11:20:38Z</time>
      </trkpt>
      <trkpt lat="46.06874" lon="4.77075">
        <ele>173</ele>
        <time>2017-12-23T11:20:39Z</time>
      </trkpt>
      <trkpt lat="46.06867" lon="4.77074">
        <ele>173</ele>
        <time>2017-12-23T11:20:40Z</time>
      </trkpt>
      <trkpt lat="46.06861" lon="4.77076">
        <ele>173</ele>
        <time>2017-12-23T11:20:41Z</time>
      </trkpt>
      <trkpt lat="46.06856" lon="4.77078">
        <ele>173</ele>
        <time>2017-12-23T11:20:42Z</time>
      </trkpt>
      <trkpt lat="46.0685" lon="4.77081">
        <ele>173</ele>
        <time>2017-12-23T11:20:43Z</time>
      </trkpt>
      <trkpt lat="46.06844" lon="4.77084">
        <ele>173</ele>
        <time>2017-12-23T11:20:44Z</time>
      </trkpt>
      <trkpt lat="46.06839" lon="4.77089">
        <ele>173</ele>
        <time>2017-12-23T11:20:45Z</time>
      </trkpt>
      <trkpt lat="46.06833" lon="4.77091">
        <ele>173</ele>
        <time>2017-12-23T11:20:46Z</time>
      </trkpt>
      <trkpt lat="46.06828" lon="4.77094">
        <ele>173</ele>
        <time>2017-12-23T11:20:47Z</time>
      </trkpt>
      <trkpt lat="46.06821" lon="4.77098">
        <ele>173</ele>
        <time>2017-12-23T11:20:48Z</time>
      </trkpt>
      <trkpt lat="46.06815" lon="4.77103">
        <ele>172</ele>
        <time>2017-12-23T11:20:49Z</time>
      </trkpt>
      <trkpt lat="46.06809" lon="4.77107">
        <ele>172</ele>
        <time>2017-12-23T11:20:50Z</time>
      </trkpt>
      <trkpt lat="46.06804" lon="4.77112">
        <ele>172</ele>
        <time>2017-12-23T11:20:51Z</time>
      </trkpt>
      <trkpt lat="46.06798" lon="4.77118">
        <ele>172</ele>
        <time>2017-12-23T11:20:52Z</time>
      </trkpt>
      <trkpt lat="46.06793" lon="4.77125">
        <ele>172</ele>
        <time>2017-12-23T11:20:53Z</time>
      </trkpt>
      <trkpt lat="46.06789" lon="4.7713">
        <ele>172</ele>
        <time>2017-12-23T11:20:54Z</time>
      </trkpt>
      <trkpt lat="46.06784" lon="4.77136">
        <ele>172</ele>
        <time>2017-12-23T11:20:55Z</time>
      </trkpt>
      <trkpt lat="46.06778" lon="4.77142">
        <ele>172</ele>
        <time>2017-12-23T11:20:56Z</time>
      </trkpt>
      <trkpt lat="46.06772" lon="4.77147">
        <ele>172</ele>
        <time>2017-12-23T11:20:57Z</time>
      </trkpt>
      <trkpt lat="46.06766" lon="4.77153">
        <ele>172</ele>
        <time>2017-12-23T11:20:58Z</time>
      </trkpt>
      <trkpt lat="46.06761" lon="4.77158">
        <ele>172</ele>
        <time>2017-12-23T11:20:59Z</time>
      </trkpt>
      <trkpt lat="46.06755" lon="4.77165">
        <ele>172</ele>
        <time>2017-12-23T11:21:00Z</time>
      </trkpt>
      <trkpt lat="46.06749" lon="4.77169">
        <ele>172</ele>
        <time>2017-12-23T11:21:01Z</time>
      </trkpt>
      <trkpt lat="46.06744" lon="4.77173">
        <ele>172</ele>
        <time>2017-12-23T11:21:02Z</time>
      </trkpt>
      <trkpt lat="46.06738" lon="4.77176">
        <ele>172</ele>
        <time>2017-12-23T11:21:03Z</time>
      </trkpt>
      <trkpt lat="46.06733" lon="4.77179">
        <ele>172</ele>
        <time>2017-12-23T11:21:04Z</time>
      </trkpt>
      <trkpt lat="46.06727" lon="4.77182">
        <ele>172</ele>
        <time>2017-12-23T11:21:05Z</time>
      </trkpt>
      <trkpt lat="46.06722" lon="4.77184">
        <ele>172</ele>
        <time>2017-12-23T11:21:06Z</time>
      </trkpt>
      <trkpt lat="46.06717" lon="4.77187">
        <ele>172</ele>
        <time>2017-12-23T11:21:07Z</time>
      </trkpt>
      <trkpt lat="46.06712" lon="4.77189">
        <ele>172</ele>
        <time>2017-12-23T11:21:08Z</time>
      </trkpt>
      <trkpt lat="46.06707" lon="4.7719">
        <ele>172</ele>
        <time>2017-12-23T11:21:09Z</time>
      </trkpt>
      <trkpt lat="46.06702" lon="4.77191">
        <ele>172</ele>
        <time>2017-12-23T11:21:10Z</time>
      </trkpt>
      <trkpt lat="46.06693" lon="4.77194">
        <ele>172</ele>
        <time>2017-12-23T11:21:12Z</time>
      </trkpt>
      <trkpt lat="46.06689" lon="4.77196">
        <ele>172</ele>
        <time>2017-12-23T11:21:13Z</time>
      </trkpt>
      <trkpt lat="46.06684" lon="4.772">
        <ele>172</ele>
        <time>2017-12-23T11:21:14Z</time>
      </trkpt>
      <trkpt lat="46.06682" lon="4.77206">
        <ele>172</ele>
        <time>2017-12-23T11:21:15Z</time>
      </trkpt>
      <trkpt lat="46.0668" lon="4.77214">
        <ele>172</ele>
        <time>2017-12-23T11:21:16Z</time>
      </trkpt>
      <trkpt lat="46.06679" lon="4.7722">
        <ele>172</ele>
        <time>2017-12-23T11:21:17Z</time>
      </trkpt>
      <trkpt lat="46.06679" lon="4.7723">
        <ele>172</ele>
        <time>2017-12-23T11:21:18Z</time>
      </trkpt>
      <trkpt lat="46.06678" lon="4.77237">
        <ele>172</ele>
        <time>2017-12-23T11:21:19Z</time>
      </trkpt>
      <trkpt lat="46.06677" lon="4.77244">
        <ele>173</ele>
        <time>2017-12-23T11:21:20Z</time>
      </trkpt>
      <trkpt lat="46.06675" lon="4.77251">
        <ele>173</ele>
        <time>2017-12-23T11:21:21Z</time>
      </trkpt>
      <trkpt lat="46.06672" lon="4.77257">
        <ele>173</ele>
        <time>2017-12-23T11:21:22Z</time>
      </trkpt>
      <trkpt lat="46.0667" lon="4.77264">
        <ele>173</ele>
        <time>2017-12-23T11:21:23Z</time>
      </trkpt>
      <trkpt lat="46.06667" lon="4.77271">
        <ele>173</ele>
        <time>2017-12-23T11:21:24Z</time>
      </trkpt>
      <trkpt lat="46.06664" lon="4.77278">
        <ele>174</ele>
        <time>2017-12-23T11:21:25Z</time>
      </trkpt>
      <trkpt lat="46.06663" lon="4.77285">
        <ele>174</ele>
        <time>2017-12-23T11:21:26Z</time>
      </trkpt>
      <trkpt lat="46.06661" lon="4.77292">
        <ele>174</ele>
        <time>2017-12-23T11:21:27Z</time>
      </trkpt>
      <trkpt lat="46.06659" lon="4.77299">
        <ele>174</ele>
        <time>2017-12-23T11:21:28Z</time>
      </trkpt>
      <trkpt lat="46.06658" lon="4.77305">
        <ele>174</ele>
        <time>2017-12-23T11:21:29Z</time>
      </trkpt>
      <trkpt lat="46.06655" lon="4.77312">
        <ele>174</ele>
        <time>2017-12-23T11:21:30Z</time>
      </trkpt>
      <trkpt lat="46.06653" lon="4.77318">
        <ele>174</ele>
        <time>2017-12-23T11:21:31Z</time>
      </trkpt>
      <trkpt lat="46.06648" lon="4.77326">
        <ele>174</ele>
        <time>2017-12-23T11:21:32Z</time>
      </trkpt>
      <trkpt lat="46.06645" lon="4.77331">
        <ele>174</ele>
        <time>2017-12-23T11:21:33Z</time>
      </trkpt>
      <trkpt lat="46.06641" lon="4.77338">
        <ele>175</ele>
        <time>2017-12-23T11:21:34Z</time>
      </trkpt>
      <trkpt lat="46.06639" lon="4.77346">
        <ele>176</ele>
        <time>2017-12-23T11:21:35Z</time>
      </trkpt>
      <trkpt lat="46.06637" lon="4.77352">
        <ele>176</ele>
        <time>2017-12-23T11:21:36Z</time>
      </trkpt>
      <trkpt lat="46.06635" lon="4.77359">
        <ele>176</ele>
        <time>2017-12-23T11:21:37Z</time>
      </trkpt>
      <trkpt lat="46.06632" lon="4.77367">
        <ele>176</ele>
        <time>2017-12-23T11:21:38Z</time>
      </trkpt>
      <trkpt lat="46.0663" lon="4.77374">
        <ele>176</ele>
        <time>2017-12-23T11:21:39Z</time>
      </trkpt>
      <trkpt lat="46.06626" lon="4.77384">
        <ele>176</ele>
        <time>2017-12-23T11:21:41Z</time>
      </trkpt>
      <trkpt lat="46.06623" lon="4.7739">
        <ele>176</ele>
        <time>2017-12-23T11:21:42Z</time>
      </trkpt>
      <trkpt lat="46.06619" lon="4.77399">
        <ele>177</ele>
        <time>2017-12-23T11:21:44Z</time>
      </trkpt>
      <trkpt lat="46.06615" lon="4.77407">
        <ele>177</ele>
        <time>2017-12-23T11:21:45Z</time>
      </trkpt>
      <trkpt lat="46.06612" lon="4.77413">
        <ele>177</ele>
        <time>2017-12-23T11:21:46Z</time>
      </trkpt>
      <trkpt lat="46.0661" lon="4.7742">
        <ele>179</ele>
        <time>2017-12-23T11:21:47Z</time>
      </trkpt>
      <trkpt lat="46.06608" lon="4.77428">
        <ele>179</ele>
        <time>2017-12-23T11:21:48Z</time>
      </trkpt>
      <trkpt lat="46.06606" lon="4.77435">
        <ele>179</ele>
        <time>2017-12-23T11:21:49Z</time>
      </trkpt>
      <trkpt lat="46.06602" lon="4.77446">
        <ele>180</ele>
        <time>2017-12-23T11:21:51Z</time>
      </trkpt>
      <trkpt lat="46.06602" lon="4.77455">
        <ele>180</ele>
        <time>2017-12-23T11:21:52Z</time>
      </trkpt>
      <trkpt lat="46.06604" lon="4.77463">
        <ele>180</ele>
        <time>2017-12-23T11:21:53Z</time>
      </trkpt>
      <trkpt lat="46.06605" lon="4.7747">
        <ele>180</ele>
        <time>2017-12-23T11:21:54Z</time>
      </trkpt>
      <trkpt lat="46.06608" lon="4.77481">
        <ele>181</ele>
        <time>2017-12-23T11:21:56Z</time>
      </trkpt>
      <trkpt lat="46.0661" lon="4.77485">
        <ele>181</ele>
        <time>2017-12-23T11:21:57Z</time>
      </trkpt>
      <trkpt lat="46.06615" lon="4.77494">
        <ele>181</ele>
        <time>2017-12-23T11:21:59Z</time>
      </trkpt>
      <trkpt lat="46.06618" lon="4.77498">
        <ele>181</ele>
        <time>2017-12-23T11:22:00Z</time>
      </trkpt>
      <trkpt lat="46.06623" lon="4.77505">
        <ele>182</ele>
        <time>2017-12-23T11:22:02Z</time>
      </trkpt>
      <trkpt lat="46.06625" lon="4.77508">
        <ele>182</ele>
        <time>2017-12-23T11:22:03Z</time>
      </trkpt>
      <trkpt lat="46.06628" lon="4.77516">
        <ele>182</ele>
        <time>2017-12-23T11:22:05Z</time>
      </trkpt>
      <trkpt lat="46.0663" lon="4.7752">
        <ele>182</ele>
        <time>2017-12-23T11:22:06Z</time>
      </trkpt>
      <trkpt lat="46.06633" lon="4.7753">
        <ele>182</ele>
        <time>2017-12-23T11:22:08Z</time>
      </trkpt>
      <trkpt lat="46.06635" lon="4.77534">
        <ele>182</ele>
        <time>2017-12-23T11:22:09Z</time>
      </trkpt>
      <trkpt lat="46.06637" lon="4.77543">
        <ele>183</ele>
        <time>2017-12-23T11:22:11Z</time>
      </trkpt>
      <trkpt lat="46.06638" lon="4.77547">
        <ele>183</ele>
        <time>2017-12-23T11:22:12Z</time>
      </trkpt>
      <trkpt lat="46.06639" lon="4.77557">
        <ele>183</ele>
        <time>2017-12-23T11:22:14Z</time>
      </trkpt>
      <trkpt lat="46.06639" lon="4.77562">
        <ele>183</ele>
        <time>2017-12-23T11:22:15Z</time>
      </trkpt>
      <trkpt lat="46.06639" lon="4.77571">
        <ele>183</ele>
        <time>2017-12-23T11:22:17Z</time>
      </trkpt>
      <trkpt lat="46.06639" lon="4.77576">
        <ele>183</ele>
        <time>2017-12-23T11:22:18Z</time>
      </trkpt>
      <trkpt lat="46.06639" lon="4.77585">
        <ele>184</ele>
        <time>2017-12-23T11:22:20Z</time>
      </trkpt>
      <trkpt lat="46.06639" lon="4.7759">
        <ele>184</ele>
        <time>2017-12-23T11:22:21Z</time>
      </trkpt>
      <trkpt lat="46.06637" lon="4.776">
        <ele>185</ele>
        <time>2017-12-23T11:22:23Z</time>
      </trkpt>
      <trkpt lat="46.06637" lon="4.77604">
        <ele>185</ele>
        <time>2017-12-23T11:22:24Z</time>
      </trkpt>
      <trkpt lat="46.06635" lon="4.77614">
        <ele>185</ele>
        <time>2017-12-23T11:22:26Z</time>
      </trkpt>
      <trkpt lat="46.06635" lon="4.77618">
        <ele>185</ele>
        <time>2017-12-23T11:22:27Z</time>
      </trkpt>
      <trkpt lat="46.06634" lon="4.77627">
        <ele>185</ele>
        <time>2017-12-23T11:22:29Z</time>
      </trkpt>
      <trkpt lat="46.06633" lon="4.77631">
        <ele>185</ele>
        <time>2017-12-23T11:22:30Z</time>
      </trkpt>
      <trkpt lat="46.06632" lon="4.77639">
        <ele>185</ele>
        <time>2017-12-23T11:22:32Z</time>
      </trkpt>
      <trkpt lat="46.06631" lon="4.77644">
        <ele>185</ele>
        <time>2017-12-23T11:22:33Z</time>
      </trkpt>
      <trkpt lat="46.06629" lon="4.77653">
        <ele>185</ele>
        <time>2017-12-23T11:22:35Z</time>
      </trkpt>
      <trkpt lat="46.06629" lon="4.77657">
        <ele>185</ele>
        <time>2017-12-23T11:22:36Z</time>
      </trkpt>
      <trkpt lat="46.06625" lon="4.77665">
        <ele>185</ele>
        <time>2017-12-23T11:22:38Z</time>
      </trkpt>
      <trkpt lat="46.06623" lon="4.77669">
        <ele>187</ele>
        <time>2017-12-23T11:22:39Z</time>
      </trkpt>
      <trkpt lat="46.06616" lon="4.77675">
        <ele>187</ele>
        <time>2017-12-23T11:22:41Z</time>
      </trkpt>
      <trkpt lat="46.06613" lon="4.77678">
        <ele>187</ele>
        <time>2017-12-23T11:22:42Z</time>
      </trkpt>
      <trkpt lat="46.06605" lon="4.77681">
        <ele>187</ele>
        <time>2017-12-23T11:22:45Z</time>
      </trkpt>
      <trkpt lat="46.06603" lon="4.77682">
        <ele>187</ele>
        <time>2017-12-23T11:22:46Z</time>
      </trkpt>
      <trkpt lat="46.06595" lon="4.77687">
        <ele>187</ele>
        <time>2017-12-23T11:22:49Z</time>
      </trkpt>
      <trkpt lat="46.06592" lon="4.77689">
        <ele>187</ele>
        <time>2017-12-23T11:22:50Z</time>
      </trkpt>
      <trkpt lat="46.06585" lon="4.77693">
        <ele>187</ele>
        <time>2017-12-23T11:22:52Z</time>
      </trkpt>
      <trkpt lat="46.06582" lon="4.77694">
        <ele>188</ele>
        <time>2017-12-23T11:22:53Z</time>
      </trkpt>
      <trkpt lat="46.06576" lon="4.77697">
        <ele>188</ele>
        <time>2017-12-23T11:22:55Z</time>
      </trkpt>
      <trkpt lat="46.06573" lon="4.777">
        <ele>188</ele>
        <time>2017-12-23T11:22:56Z</time>
      </trkpt>
      <trkpt lat="46.06567" lon="4.77709">
        <ele>189</ele>
        <time>2017-12-23T11:22:58Z</time>
      </trkpt>
      <trkpt lat="46.06565" lon="4.77713">
        <ele>189</ele>
        <time>2017-12-23T11:22:59Z</time>
      </trkpt>
      <trkpt lat="46.06558" lon="4.77723">
        <ele>189</ele>
        <time>2017-12-23T11:23:01Z</time>
      </trkpt>
      <trkpt lat="46.06556" lon="4.77727">
        <ele>189</ele>
        <time>2017-12-23T11:23:02Z</time>
      </trkpt>
      <trkpt lat="46.06548" lon="4.77734">
        <ele>189</ele>
        <time>2017-12-23T11:23:03Z</time>
      </trkpt>
      <trkpt lat="46.06543" lon="4.77744">
        <ele>190</ele>
        <time>2017-12-23T11:23:05Z</time>
      </trkpt>
      <trkpt lat="46.06542" lon="4.77748">
        <ele>190</ele>
        <time>2017-12-23T11:23:06Z</time>
      </trkpt>
      <trkpt lat="46.06536" lon="4.77756">
        <ele>191</ele>
        <time>2017-12-23T11:23:08Z</time>
      </trkpt>
      <trkpt lat="46.06534" lon="4.7776">
        <ele>191</ele>
        <time>2017-12-23T11:23:09Z</time>
      </trkpt>
      <trkpt lat="46.06529" lon="4.77769">
        <ele>192</ele>
        <time>2017-12-23T11:23:11Z</time>
      </trkpt>
      <trkpt lat="46.06527" lon="4.77774">
        <ele>192</ele>
        <time>2017-12-23T11:23:12Z</time>
      </trkpt>
      <trkpt lat="46.06522" lon="4.77783">
        <ele>192</ele>
        <time>2017-12-23T11:23:14Z</time>
      </trkpt>
      <trkpt lat="46.0652" lon="4.77788">
        <ele>192</ele>
        <time>2017-12-23T11:23:15Z</time>
      </trkpt>
      <trkpt lat="46.06515" lon="4.77796">
        <ele>192</ele>
        <time>2017-12-23T11:23:17Z</time>
      </trkpt>
      <trkpt lat="46.06513" lon="4.77801">
        <ele>192</ele>
        <time>2017-12-23T11:23:18Z</time>
      </trkpt>
      <trkpt lat="46.06508" lon="4.77811">
        <ele>192</ele>
        <time>2017-12-23T11:23:20Z</time>
      </trkpt>
      <trkpt lat="46.06506" lon="4.77816">
        <ele>192</ele>
        <time>2017-12-23T11:23:21Z</time>
      </trkpt>
      <trkpt lat="46.06503" lon="4.77827">
        <ele>192</ele>
        <time>2017-12-23T11:23:23Z</time>
      </trkpt>
      <trkpt lat="46.06501" lon="4.77832">
        <ele>192</ele>
        <time>2017-12-23T11:23:24Z</time>
      </trkpt>
      <trkpt lat="46.06497" lon="4.77842">
        <ele>192</ele>
        <time>2017-12-23T11:23:26Z</time>
      </trkpt>
      <trkpt lat="46.06495" lon="4.77847">
        <ele>192</ele>
        <time>2017-12-23T11:23:27Z</time>
      </trkpt>
      <trkpt lat="46.06491" lon="4.77857">
        <ele>192</ele>
        <time>2017-12-23T11:23:29Z</time>
      </trkpt>
      <trkpt lat="46.06489" lon="4.77861">
        <ele>192</ele>
        <time>2017-12-23T11:23:30Z</time>
      </trkpt>
      <trkpt lat="46.06485" lon="4.77871">
        <ele>193</ele>
        <time>2017-12-23T11:23:32Z</time>
      </trkpt>
      <trkpt lat="46.06484" lon="4.77876">
        <ele>193</ele>
        <time>2017-12-23T11:23:33Z</time>
      </trkpt>
      <trkpt lat="46.0648" lon="4.77885">
        <ele>193</ele>
        <time>2017-12-23T11:23:35Z</time>
      </trkpt>
      <trkpt lat="46.06479" lon="4.77889">
        <ele>193</ele>
        <time>2017-12-23T11:23:36Z</time>
      </trkpt>
      <trkpt lat="46.06475" lon="4.77896">
        <ele>193</ele>
        <time>2017-12-23T11:23:38Z</time>
      </trkpt>
      <trkpt lat="46.06474" lon="4.779">
        <ele>193</ele>
        <time>2017-12-23T11:23:39Z</time>
      </trkpt>
      <trkpt lat="46.0647" lon="4.7791">
        <ele>193</ele>
        <time>2017-12-23T11:23:41Z</time>
      </trkpt>
      <trkpt lat="46.06468" lon="4.77914">
        <ele>193</ele>
        <time>2017-12-23T11:23:42Z</time>
      </trkpt>
      <trkpt lat="46.06465" lon="4.77923">
        <ele>195</ele>
        <time>2017-12-23T11:23:44Z</time>
      </trkpt>
      <trkpt lat="46.06463" lon="4.77927">
        <ele>195</ele>
        <time>2017-12-23T11:23:45Z</time>
      </trkpt>
      <trkpt lat="46.06461" lon="4.77936">
        <ele>195</ele>
        <time>2017-12-23T11:23:47Z</time>
      </trkpt>
      <trkpt lat="46.06459" lon="4.77941">
        <ele>195</ele>
        <time>2017-12-23T11:23:48Z</time>
      </trkpt>
      <trkpt lat="46.06457" lon="4.7795">
        <ele>195</ele>
        <time>2017-12-23T11:23:50Z</time>
      </trkpt>
      <trkpt lat="46.06456" lon="4.77955">
        <ele>195</ele>
        <time>2017-12-23T11:23:51Z</time>
      </trkpt>
      <trkpt lat="46.06454" lon="4.77966">
        <ele>195</ele>
        <time>2017-12-23T11:23:53Z</time>
      </trkpt>
      <trkpt lat="46.06453" lon="4.77971">
        <ele>195</ele>
        <time>2017-12-23T11:23:54Z</time>
      </trkpt>
      <trkpt lat="46.06451" lon="4.77981">
        <ele>195</ele>
        <time>2017-12-23T11:23:56Z</time>
      </trkpt>
      <trkpt lat="46.06451" lon="4.77985">
        <ele>195</ele>
        <time>2017-12-23T11:23:57Z</time>
      </trkpt>
      <trkpt lat="46.06449" lon="4.77994">
        <ele>195</ele>
        <time>2017-12-23T11:23:59Z</time>
      </trkpt>
      <trkpt lat="46.06448" lon="4.77999">
        <ele>195</ele>
        <time>2017-12-23T11:24:00Z</time>
      </trkpt>
      <trkpt lat="46.06446" lon="4.78007">
        <ele>198</ele>
        <time>2017-12-23T11:24:02Z</time>
      </trkpt>
      <trkpt lat="46.06444" lon="4.78011">
        <ele>198</ele>
        <time>2017-12-23T11:24:03Z</time>
      </trkpt>
      <trkpt lat="46.06442" lon="4.7802">
        <ele>198</ele>
        <time>2017-12-23T11:24:05Z</time>
      </trkpt>
      <trkpt lat="46.0644" lon="4.78024">
        <ele>198</ele>
        <time>2017-12-23T11:24:06Z</time>
      </trkpt>
      <trkpt lat="46.06436" lon="4.78031">
        <ele>198</ele>
        <time>2017-12-23T11:24:08Z</time>
      </trkpt>
      <trkpt lat="46.06434" lon="4.78034">
        <ele>198</ele>
        <time>2017-12-23T11:24:09Z</time>
      </trkpt>
      <trkpt lat="46.06429" lon="4.7804">
        <ele>198</ele>
        <time>2017-12-23T11:24:11Z</time>
      </trkpt>
      <trkpt lat="46.06426" lon="4.78043">
        <ele>198</ele>
        <time>2017-12-23T11:24:12Z</time>
      </trkpt>
      <trkpt lat="46.0642" lon="4.78049">
        <ele>198</ele>
        <time>2017-12-23T11:24:14Z</time>
      </trkpt>
      <trkpt lat="46.06417" lon="4.78053">
        <ele>198</ele>
        <time>2017-12-23T11:24:15Z</time>
      </trkpt>
      <trkpt lat="46.06411" lon="4.78063">
        <ele>198</ele>
        <time>2017-12-23T11:24:17Z</time>
      </trkpt>
      <trkpt lat="46.06409" lon="4.78068">
        <ele>198</ele>
        <time>2017-12-23T11:24:18Z</time>
      </trkpt>
      <trkpt lat="46.06404" lon="4.78078">
        <ele>198</ele>
        <time>2017-12-23T11:24:20Z</time>
      </trkpt>
      <trkpt lat="46.06402" lon="4.78083">
        <ele>198</ele>
        <time>2017-12-23T11:24:21Z</time>
      </trkpt>
      <trkpt lat="46.06398" lon="4.78094">
        <ele>200</ele>
        <time>2017-12-23T11:24:23Z</time>
      </trkpt>
      <trkpt lat="46.06397" lon="4.781">
        <ele>200</ele>
        <time>2017-12-23T11:24:24Z</time>
      </trkpt>
      <trkpt lat="46.06395" lon="4.78111">
        <ele>200</ele>
        <time>2017-12-23T11:24:26Z</time>
      </trkpt>
      <trkpt lat="46.06394" lon="4.78117">
        <ele>200</ele>
        <time>2017-12-23T11:24:27Z</time>
      </trkpt>
      <trkpt lat="46.06392" lon="4.78129">
        <ele>201</ele>
        <time>2017-12-23T11:24:29Z</time>
      </trkpt>
      <trkpt lat="46.06392" lon="4.78135">
        <ele>201</ele>
        <time>2017-12-23T11:24:30Z</time>
      </trkpt>
      <trkpt lat="46.06392" lon="4.78148">
        <ele>201</ele>
        <time>2017-12-23T11:24:32Z</time>
      </trkpt>
      <trkpt lat="46.06392" lon="4.78154">
        <ele>201</ele>
        <time>2017-12-23T11:24:33Z</time>
      </trkpt>
      <trkpt lat="46.06394" lon="4.78165">
        <ele>202</ele>
        <time>2017-12-23T11:24:35Z</time>
      </trkpt>
      <trkpt lat="46.06394" lon="4.7817">
        <ele>204</ele>
        <time>2017-12-23T11:24:36Z</time>
      </trkpt>
      <trkpt lat="46.06393" lon="4.7818">
        <ele>204</ele>
        <time>2017-12-23T11:24:38Z</time>
      </trkpt>
      <trkpt lat="46.06393" lon="4.78185">
        <ele>204</ele>
        <time>2017-12-23T11:24:39Z</time>
      </trkpt>
      <trkpt lat="46.06391" lon="4.78196">
        <ele>204</ele>
        <time>2017-12-23T11:24:41Z</time>
      </trkpt>
      <trkpt lat="46.0639" lon="4.78201">
        <ele>204</ele>
        <time>2017-12-23T11:24:42Z</time>
      </trkpt>
      <trkpt lat="46.06385" lon="4.7821">
        <ele>204</ele>
        <time>2017-12-23T11:24:44Z</time>
      </trkpt>
      <trkpt lat="46.06382" lon="4.78214">
        <ele>204</ele>
        <time>2017-12-23T11:24:45Z</time>
      </trkpt>
      <trkpt lat="46.06375" lon="4.7822">
        <ele>204</ele>
        <time>2017-12-23T11:24:47Z</time>
      </trkpt>
      <trkpt lat="46.06372" lon="4.78224">
        <ele>205</ele>
        <time>2017-12-23T11:24:48Z</time>
      </trkpt>
      <trkpt lat="46.06366" lon="4.78229">
        <ele>205</ele>
        <time>2017-12-23T11:24:50Z</time>
      </trkpt>
      <trkpt lat="46.06362" lon="4.78233">
        <ele>205</ele>
        <time>2017-12-23T11:24:51Z</time>
      </trkpt>
      <trkpt lat="46.06355" lon="4.78237">
        <ele>205</ele>
        <time>2017-12-23T11:24:53Z</time>
      </trkpt>
      <trkpt lat="46.06351" lon="4.78237">
        <ele>205</ele>
        <time>2017-12-23T11:24:54Z</time>
      </trkpt>
      <trkpt lat="46.06344" lon="4.78235">
        <ele>205</ele>
        <time>2017-12-23T11:24:55Z</time>
      </trkpt>
      <trkpt lat="46.06339" lon="4.78234">
        <ele>205</ele>
        <time>2017-12-23T11:24:56Z</time>
      </trkpt>
      <trkpt lat="46.06331" lon="4.78233">
        <ele>206</ele>
        <time>2017-12-23T11:24:58Z</time>
      </trkpt>
      <trkpt lat="46.06327" lon="4.78232">
        <ele>205</ele>
        <time>2017-12-23T11:24:59Z</time>
      </trkpt>
      <trkpt lat="46.06322" lon="4.78229">
        <ele>205</ele>
        <time>2017-12-23T11:25:00Z</time>
      </trkpt>
      <trkpt lat="46.06318" lon="4.78228">
        <ele>205</ele>
        <time>2017-12-23T11:25:01Z</time>
      </trkpt>
      <trkpt lat="46.0631" lon="4.78224">
        <ele>205</ele>
        <time>2017-12-23T11:25:03Z</time>
      </trkpt>
      <trkpt lat="46.06306" lon="4.78221">
        <ele>205</ele>
        <time>2017-12-23T11:25:04Z</time>
      </trkpt>
      <trkpt lat="46.06297" lon="4.78216">
        <ele>205</ele>
        <time>2017-12-23T11:25:06Z</time>
      </trkpt>
      <trkpt lat="46.06293" lon="4.78214">
        <ele>205</ele>
        <time>2017-12-23T11:25:07Z</time>
      </trkpt>
      <trkpt lat="46.06286" lon="4.78209">
        <ele>205</ele>
        <time>2017-12-23T11:25:09Z</time>
      </trkpt>
      <trkpt lat="46.06282" lon="4.78206">
        <ele>205</ele>
        <time>2017-12-23T11:25:10Z</time>
      </trkpt>
      <trkpt lat="46.06276" lon="4.78203">
        <ele>205</ele>
        <time>2017-12-23T11:25:12Z</time>
      </trkpt>
      <trkpt lat="46.06272" lon="4.78201">
        <ele>205</ele>
        <time>2017-12-23T11:25:13Z</time>
      </trkpt>
      <trkpt lat="46.06269" lon="4.78198">
        <ele>205</ele>
        <time>2017-12-23T11:25:14Z</time>
      </trkpt>
      <trkpt lat="46.06264" lon="4.78196">
        <ele>205</ele>
        <time>2017-12-23T11:25:15Z</time>
      </trkpt>
      <trkpt lat="46.06259" lon="4.78193">
        <ele>205</ele>
        <time>2017-12-23T11:25:16Z</time>
      </trkpt>
      <trkpt lat="46.06256" lon="4.7819">
        <ele>205</ele>
        <time>2017-12-23T11:25:17Z</time>
      </trkpt>
      <trkpt lat="46.06248" lon="4.78187">
        <ele>206</ele>
        <time>2017-12-23T11:25:19Z</time>
      </trkpt>
      <trkpt lat="46.06244" lon="4.78184">
        <ele>206</ele>
        <time>2017-12-23T11:25:20Z</time>
      </trkpt>
      <trkpt lat="46.06237" lon="4.78178">
        <ele>206</ele>
        <time>2017-12-23T11:25:22Z</time>
      </trkpt>
      <trkpt lat="46.06234" lon="4.78175">
        <ele>206</ele>
        <time>2017-12-23T11:25:23Z</time>
      </trkpt>
      <trkpt lat="46.06229" lon="4.78173">
        <ele>206</ele>
        <time>2017-12-23T11:25:24Z</time>
      </trkpt>
      <trkpt lat="46.06225" lon="4.78169">
        <ele>206</ele>
        <time>2017-12-23T11:25:25Z</time>
      </trkpt>
      <trkpt lat="46.06221" lon="4.78167">
        <ele>206</ele>
        <time>2017-12-23T11:25:26Z</time>
      </trkpt>
      <trkpt lat="46.06217" lon="4.78164">
        <ele>205</ele>
        <time>2017-12-23T11:25:27Z</time>
      </trkpt>
      <trkpt lat="46.06209" lon="4.78158">
        <ele>205</ele>
        <time>2017-12-23T11:25:29Z</time>
      </trkpt>
      <trkpt lat="46.06204" lon="4.78155">
        <ele>205</ele>
        <time>2017-12-23T11:25:30Z</time>
      </trkpt>
      <trkpt lat="46.062" lon="4.78152">
        <ele>205</ele>
        <time>2017-12-23T11:25:31Z</time>
      </trkpt>
      <trkpt lat="46.06195" lon="4.7815">
        <ele>205</ele>
        <time>2017-12-23T11:25:32Z</time>
      </trkpt>
      <trkpt lat="46.06191" lon="4.78149">
        <ele>206</ele>
        <time>2017-12-23T11:25:33Z</time>
      </trkpt>
      <trkpt lat="46.06186" lon="4.78146">
        <ele>206</ele>
        <time>2017-12-23T11:25:34Z</time>
      </trkpt>
      <trkpt lat="46.06179" lon="4.78141">
        <ele>206</ele>
        <time>2017-12-23T11:25:36Z</time>
      </trkpt>
      <trkpt lat="46.06174" lon="4.78139">
        <ele>206</ele>
        <time>2017-12-23T11:25:37Z</time>
      </trkpt>
      <trkpt lat="46.0617" lon="4.78136">
        <ele>206</ele>
        <time>2017-12-23T11:25:38Z</time>
      </trkpt>
      <trkpt lat="46.06166" lon="4.78134">
        <ele>208</ele>
        <time>2017-12-23T11:25:39Z</time>
      </trkpt>
      <trkpt lat="46.06158" lon="4.78129">
        <ele>208</ele>
        <time>2017-12-23T11:25:42Z</time>
      </trkpt>
      <trkpt lat="46.06155" lon="4.78126">
        <ele>208</ele>
        <time>2017-12-23T11:25:43Z</time>
      </trkpt>
      <trkpt lat="46.06148" lon="4.78118">
        <ele>208</ele>
        <time>2017-12-23T11:25:45Z</time>
      </trkpt>
      <trkpt lat="46.06145" lon="4.78115">
        <ele>208</ele>
        <time>2017-12-23T11:25:46Z</time>
      </trkpt>
      <trkpt lat="46.06138" lon="4.7811">
        <ele>208</ele>
        <time>2017-12-23T11:25:48Z</time>
      </trkpt>
      <trkpt lat="46.06134" lon="4.78105">
        <ele>209</ele>
        <time>2017-12-23T11:25:49Z</time>
      </trkpt>
      <trkpt lat="46.06129" lon="4.78099">
        <ele>209</ele>
        <time>2017-12-23T11:25:51Z</time>
      </trkpt>
      <trkpt lat="46.06126" lon="4.78096">
        <ele>209</ele>
        <time>2017-12-23T11:25:52Z</time>
      </trkpt>
      <trkpt lat="46.06121" lon="4.78088">
        <ele>209</ele>
        <time>2017-12-23T11:25:54Z</time>
      </trkpt>
      <trkpt lat="46.06118" lon="4.78084">
        <ele>209</ele>
        <time>2017-12-23T11:25:55Z</time>
      </trkpt>
      <trkpt lat="46.06111" lon="4.78076">
        <ele>210</ele>
        <time>2017-12-23T11:25:57Z</time>
      </trkpt>
      <trkpt lat="46.06108" lon="4.78072">
        <ele>210</ele>
        <time>2017-12-23T11:25:58Z</time>
      </trkpt>
      <trkpt lat="46.06102" lon="4.78065">
        <ele>210</ele>
        <time>2017-12-23T11:26:00Z</time>
      </trkpt>
      <trkpt lat="46.06099" lon="4.78062">
        <ele>210</ele>
        <time>2017-12-23T11:26:01Z</time>
      </trkpt>
      <trkpt lat="46.06092" lon="4.78054">
        <ele>210</ele>
        <time>2017-12-23T11:26:03Z</time>
      </trkpt>
      <trkpt lat="46.06089" lon="4.78052">
        <ele>210</ele>
        <time>2017-12-23T11:26:04Z</time>
      </trkpt>
      <trkpt lat="46.06085" lon="4.78049">
        <ele>210</ele>
        <time>2017-12-23T11:26:05Z</time>
      </trkpt>
      <trkpt lat="46.06079" lon="4.78046">
        <ele>211</ele>
        <time>2017-12-23T11:26:06Z</time>
      </trkpt>
      <trkpt lat="46.06074" lon="4.78044">
        <ele>211</ele>
        <time>2017-12-23T11:26:07Z</time>
      </trkpt>
      <trkpt lat="46.06069" lon="4.78041">
        <ele>211</ele>
        <time>2017-12-23T11:26:08Z</time>
      </trkpt>
      <trkpt lat="46.06062" lon="4.78033">
        <ele>211</ele>
        <time>2017-12-23T11:26:10Z</time>
      </trkpt>
      <trkpt lat="46.06058" lon="4.78031">
        <ele>211</ele>
        <time>2017-12-23T11:26:11Z</time>
      </trkpt>
      <trkpt lat="46.06051" lon="4.78025">
        <ele>211</ele>
        <time>2017-12-23T11:26:13Z</time>
      </trkpt>
      <trkpt lat="46.06047" lon="4.78021">
        <ele>211</ele>
        <time>2017-12-23T11:26:14Z</time>
      </trkpt>
      <trkpt lat="46.06043" lon="4.78015">
        <ele>211</ele>
        <time>2017-12-23T11:26:15Z</time>
      </trkpt>
      <trkpt lat="46.0604" lon="4.78011">
        <ele>211</ele>
        <time>2017-12-23T11:26:16Z</time>
      </trkpt>
      <trkpt lat="46.06037" lon="4.78005">
        <ele>211</ele>
        <time>2017-12-23T11:26:17Z</time>
      </trkpt>
      <trkpt lat="46.06034" lon="4.78001">
        <ele>211</ele>
        <time>2017-12-23T11:26:18Z</time>
      </trkpt>
      <trkpt lat="46.06027" lon="4.77993">
        <ele>211</ele>
        <time>2017-12-23T11:26:20Z</time>
      </trkpt>
      <trkpt lat="46.06023" lon="4.77989">
        <ele>211</ele>
        <time>2017-12-23T11:26:21Z</time>
      </trkpt>
      <trkpt lat="46.06019" lon="4.77985">
        <ele>211</ele>
        <time>2017-12-23T11:26:22Z</time>
      </trkpt>
      <trkpt lat="46.06015" lon="4.7798">
        <ele>211</ele>
        <time>2017-12-23T11:26:23Z</time>
      </trkpt>
      <trkpt lat="46.06011" lon="4.77976">
        <ele>211</ele>
        <time>2017-12-23T11:26:24Z</time>
      </trkpt>
      <trkpt lat="46.06008" lon="4.77972">
        <ele>211</ele>
        <time>2017-12-23T11:26:25Z</time>
      </trkpt>
      <trkpt lat="46.06004" lon="4.77969">
        <ele>211</ele>
        <time>2017-12-23T11:26:26Z</time>
      </trkpt>
      <trkpt lat="46.06" lon="4.77963">
        <ele>212</ele>
        <time>2017-12-23T11:26:27Z</time>
      </trkpt>
      <trkpt lat="46.05997" lon="4.77956">
        <ele>212</ele>
        <time>2017-12-23T11:26:28Z</time>
      </trkpt>
      <trkpt lat="46.05994" lon="4.77951">
        <ele>212</ele>
        <time>2017-12-23T11:26:29Z</time>
      </trkpt>
      <trkpt lat="46.05992" lon="4.77945">
        <ele>212</ele>
        <time>2017-12-23T11:26:30Z</time>
      </trkpt>
      <trkpt lat="46.05992" lon="4.77935">
        <ele>212</ele>
        <time>2017-12-23T11:26:31Z</time>
      </trkpt>
      <trkpt lat="46.0599" lon="4.77928">
        <ele>212</ele>
        <time>2017-12-23T11:26:32Z</time>
      </trkpt>
      <trkpt lat="46.05988" lon="4.77922">
        <ele>212</ele>
        <time>2017-12-23T11:26:33Z</time>
      </trkpt>
      <trkpt lat="46.05988" lon="4.77915">
        <ele>211</ele>
        <time>2017-12-23T11:26:34Z</time>
      </trkpt>
      <trkpt lat="46.05986" lon="4.77909">
        <ele>211</ele>
        <time>2017-12-23T11:26:35Z</time>
      </trkpt>
      <trkpt lat="46.05983" lon="4.77904">
        <ele>211</ele>
        <time>2017-12-23T11:26:36Z</time>
      </trkpt>
      <trkpt lat="46.05979" lon="4.779">
        <ele>211</ele>
        <time>2017-12-23T11:26:37Z</time>
      </trkpt>
      <trkpt lat="46.05976" lon="4.77894">
        <ele>211</ele>
        <time>2017-12-23T11:26:38Z</time>
      </trkpt>
      <trkpt lat="46.05972" lon="4.77889">
        <ele>211</ele>
        <time>2017-12-23T11:26:39Z</time>
      </trkpt>
      <trkpt lat="46.05969" lon="4.7788">
        <ele>211</ele>
        <time>2017-12-23T11:26:41Z</time>
      </trkpt>
      <trkpt lat="46.05966" lon="4.77873">
        <ele>211</ele>
        <time>2017-12-23T11:26:42Z</time>
      </trkpt>
      <trkpt lat="46.05963" lon="4.77868">
        <ele>211</ele>
        <time>2017-12-23T11:26:43Z</time>
      </trkpt>
      <trkpt lat="46.05961" lon="4.77862">
        <ele>211</ele>
        <time>2017-12-23T11:26:44Z</time>
      </trkpt>
      <trkpt lat="46.05957" lon="4.77855">
        <ele>211</ele>
        <time>2017-12-23T11:26:45Z</time>
      </trkpt>
      <trkpt lat="46.05954" lon="4.77851">
        <ele>211</ele>
        <time>2017-12-23T11:26:46Z</time>
      </trkpt>
      <trkpt lat="46.05948" lon="4.77843">
        <ele>211</ele>
        <time>2017-12-23T11:26:48Z</time>
      </trkpt>
      <trkpt lat="46.05946" lon="4.77836">
        <ele>211</ele>
        <time>2017-12-23T11:26:49Z</time>
      </trkpt>
      <trkpt lat="46.0594" lon="4.77827">
        <ele>210</ele>
        <time>2017-12-23T11:26:51Z</time>
      </trkpt>
      <trkpt lat="46.05938" lon="4.77822">
        <ele>210</ele>
        <time>2017-12-23T11:26:52Z</time>
      </trkpt>
      <trkpt lat="46.05933" lon="4.77816">
        <ele>210</ele>
        <time>2017-12-23T11:26:53Z</time>
      </trkpt>
      <trkpt lat="46.05928" lon="4.7781">
        <ele>210</ele>
        <time>2017-12-23T11:26:54Z</time>
      </trkpt>
      <trkpt lat="46.05924" lon="4.77804">
        <ele>210</ele>
        <time>2017-12-23T11:26:55Z</time>
      </trkpt>
      <trkpt lat="46.0592" lon="4.77799">
        <ele>210</ele>
        <time>2017-12-23T11:26:56Z</time>
      </trkpt>
      <trkpt lat="46.05916" lon="4.77794">
        <ele>210</ele>
        <time>2017-12-23T11:26:57Z</time>
      </trkpt>
      <trkpt lat="46.05913" lon="4.77788">
        <ele>210</ele>
        <time>2017-12-23T11:26:58Z</time>
      </trkpt>
      <trkpt lat="46.05909" lon="4.77782">
        <ele>210</ele>
        <time>2017-12-23T11:26:59Z</time>
      </trkpt>
      <trkpt lat="46.05906" lon="4.77775">
        <ele>210</ele>
        <time>2017-12-23T11:27:00Z</time>
      </trkpt>
      <trkpt lat="46.05903" lon="4.77765">
        <ele>209</ele>
        <time>2017-12-23T11:27:01Z</time>
      </trkpt>
      <trkpt lat="46.059" lon="4.77759">
        <ele>209</ele>
        <time>2017-12-23T11:27:02Z</time>
      </trkpt>
      <trkpt lat="46.05897" lon="4.77752">
        <ele>209</ele>
        <time>2017-12-23T11:27:03Z</time>
      </trkpt>
      <trkpt lat="46.05895" lon="4.77744">
        <ele>209</ele>
        <time>2017-12-23T11:27:04Z</time>
      </trkpt>
      <trkpt lat="46.05895" lon="4.77736">
        <ele>209</ele>
        <time>2017-12-23T11:27:05Z</time>
      </trkpt>
      <trkpt lat="46.05893" lon="4.77727">
        <ele>209</ele>
        <time>2017-12-23T11:27:06Z</time>
      </trkpt>
      <trkpt lat="46.05892" lon="4.7772">
        <ele>209</ele>
        <time>2017-12-23T11:27:07Z</time>
      </trkpt>
      <trkpt lat="46.05891" lon="4.77712">
        <ele>208</ele>
        <time>2017-12-23T11:27:08Z</time>
      </trkpt>
      <trkpt lat="46.0589" lon="4.77704">
        <ele>208</ele>
        <time>2017-12-23T11:27:09Z</time>
      </trkpt>
      <trkpt lat="46.05889" lon="4.77695">
        <ele>208</ele>
        <time>2017-12-23T11:27:10Z</time>
      </trkpt>
      <trkpt lat="46.05888" lon="4.77687">
        <ele>208</ele>
        <time>2017-12-23T11:27:11Z</time>
      </trkpt>
      <trkpt lat="46.05886" lon="4.77682">
        <ele>208</ele>
        <time>2017-12-23T11:27:12Z</time>
      </trkpt>
      <trkpt lat="46.05883" lon="4.77675">
        <ele>208</ele>
        <time>2017-12-23T11:27:13Z</time>
      </trkpt>
      <trkpt lat="46.05881" lon="4.7767">
        <ele>208</ele>
        <time>2017-12-23T11:27:14Z</time>
      </trkpt>
      <trkpt lat="46.05878" lon="4.77665">
        <ele>208</ele>
        <time>2017-12-23T11:27:15Z</time>
      </trkpt>
      <trkpt lat="46.05873" lon="4.7766">
        <ele>208</ele>
        <time>2017-12-23T11:27:16Z</time>
      </trkpt>
      <trkpt lat="46.05869" lon="4.77653">
        <ele>208</ele>
        <time>2017-12-23T11:27:17Z</time>
      </trkpt>
      <trkpt lat="46.05865" lon="4.77649">
        <ele>208</ele>
        <time>2017-12-23T11:27:18Z</time>
      </trkpt>
      <trkpt lat="46.05861" lon="4.77645">
        <ele>208</ele>
        <time>2017-12-23T11:27:19Z</time>
      </trkpt>
      <trkpt lat="46.05857" lon="4.7764">
        <ele>208</ele>
        <time>2017-12-23T11:27:20Z</time>
      </trkpt>
      <trkpt lat="46.05853" lon="4.77635">
        <ele>208</ele>
        <time>2017-12-23T11:27:21Z</time>
      </trkpt>
      <trkpt lat="46.05848" lon="4.7763">
        <ele>208</ele>
        <time>2017-12-23T11:27:22Z</time>
      </trkpt>
      <trkpt lat="46.05843" lon="4.77625">
        <ele>208</ele>
        <time>2017-12-23T11:27:23Z</time>
      </trkpt>
      <trkpt lat="46.05839" lon="4.77621">
        <ele>208</ele>
        <time>2017-12-23T11:27:24Z</time>
      </trkpt>
      <trkpt lat="46.05834" lon="4.77616">
        <ele>208</ele>
        <time>2017-12-23T11:27:25Z</time>
      </trkpt>
      <trkpt lat="46.05829" lon="4.7761">
        <ele>209</ele>
        <time>2017-12-23T11:27:26Z</time>
      </trkpt>
      <trkpt lat="46.05825" lon="4.77606">
        <ele>208</ele>
        <time>2017-12-23T11:27:27Z</time>
      </trkpt>
      <trkpt lat="46.05821" lon="4.776">
        <ele>208</ele>
        <time>2017-12-23T11:27:28Z</time>
      </trkpt>
      <trkpt lat="46.05816" lon="4.77596">
        <ele>208</ele>
        <time>2017-12-23T11:27:29Z</time>
      </trkpt>
      <trkpt lat="46.05813" lon="4.77593">
        <ele>208</ele>
        <time>2017-12-23T11:27:30Z</time>
      </trkpt>
      <trkpt lat="46.05806" lon="4.77585">
        <ele>209</ele>
        <time>2017-12-23T11:27:32Z</time>
      </trkpt>
      <trkpt lat="46.05802" lon="4.7758">
        <ele>208</ele>
        <time>2017-12-23T11:27:33Z</time>
      </trkpt>
      <trkpt lat="46.05799" lon="4.77576">
        <ele>208</ele>
        <time>2017-12-23T11:27:34Z</time>
      </trkpt>
      <trkpt lat="46.05795" lon="4.77571">
        <ele>208</ele>
        <time>2017-12-23T11:27:35Z</time>
      </trkpt>
      <trkpt lat="46.05791" lon="4.77567">
        <ele>208</ele>
        <time>2017-12-23T11:27:36Z</time>
      </trkpt>
      <trkpt lat="46.05787" lon="4.77562">
        <ele>208</ele>
        <time>2017-12-23T11:27:37Z</time>
      </trkpt>
      <trkpt lat="46.05783" lon="4.77557">
        <ele>208</ele>
        <time>2017-12-23T11:27:38Z</time>
      </trkpt>
      <trkpt lat="46.0578" lon="4.77552">
        <ele>208</ele>
        <time>2017-12-23T11:27:39Z</time>
      </trkpt>
      <trkpt lat="46.05775" lon="4.77547">
        <ele>208</ele>
        <time>2017-12-23T11:27:40Z</time>
      </trkpt>
      <trkpt lat="46.05772" lon="4.77541">
        <ele>208</ele>
        <time>2017-12-23T11:27:41Z</time>
      </trkpt>
      <trkpt lat="46.05767" lon="4.77536">
        <ele>208</ele>
        <time>2017-12-23T11:27:42Z</time>
      </trkpt>
      <trkpt lat="46.05764" lon="4.77533">
        <ele>208</ele>
        <time>2017-12-23T11:27:43Z</time>
      </trkpt>
      <trkpt lat="46.05759" lon="4.77524">
        <ele>208</ele>
        <time>2017-12-23T11:27:45Z</time>
      </trkpt>
      <trkpt lat="46.05755" lon="4.77518">
        <ele>208</ele>
        <time>2017-12-23T11:27:46Z</time>
      </trkpt>
      <trkpt lat="46.05751" lon="4.77512">
        <ele>208</ele>
        <time>2017-12-23T11:27:47Z</time>
      </trkpt>
      <trkpt lat="46.05747" lon="4.77506">
        <ele>208</ele>
        <time>2017-12-23T11:27:48Z</time>
      </trkpt>
      <trkpt lat="46.05744" lon="4.77501">
        <ele>208</ele>
        <time>2017-12-23T11:27:49Z</time>
      </trkpt>
      <trkpt lat="46.0574" lon="4.77495">
        <ele>208</ele>
        <time>2017-12-23T11:27:50Z</time>
      </trkpt>
      <trkpt lat="46.05736" lon="4.77489">
        <ele>207</ele>
        <time>2017-12-23T11:27:51Z</time>
      </trkpt>
      <trkpt lat="46.05733" lon="4.77483">
        <ele>207</ele>
        <time>2017-12-23T11:27:52Z</time>
      </trkpt>
      <trkpt lat="46.05729" lon="4.77478">
        <ele>207</ele>
        <time>2017-12-23T11:27:53Z</time>
      </trkpt>
      <trkpt lat="46.05725" lon="4.77473">
        <ele>207</ele>
        <time>2017-12-23T11:27:54Z</time>
      </trkpt>
      <trkpt lat="46.05722" lon="4.77469">
        <ele>207</ele>
        <time>2017-12-23T11:27:55Z</time>
      </trkpt>
      <trkpt lat="46.05716" lon="4.77463">
        <ele>207</ele>
        <time>2017-12-23T11:27:56Z</time>
      </trkpt>
      <trkpt lat="46.05711" lon="4.77459">
        <ele>207</ele>
        <time>2017-12-23T11:27:57Z</time>
      </trkpt>
      <trkpt lat="46.05706" lon="4.77454">
        <ele>207</ele>
        <time>2017-12-23T11:27:58Z</time>
      </trkpt>
      <trkpt lat="46.057" lon="4.7745">
        <ele>207</ele>
        <time>2017-12-23T11:27:59Z</time>
      </trkpt>
      <trkpt lat="46.05695" lon="4.77447">
        <ele>207</ele>
        <time>2017-12-23T11:28:00Z</time>
      </trkpt>
      <trkpt lat="46.05691" lon="4.77444">
        <ele>206</ele>
        <time>2017-12-23T11:28:01Z</time>
      </trkpt>
      <trkpt lat="46.05686" lon="4.7744">
        <ele>206</ele>
        <time>2017-12-23T11:28:02Z</time>
      </trkpt>
      <trkpt lat="46.05681" lon="4.77437">
        <ele>206</ele>
        <time>2017-12-23T11:28:03Z</time>
      </trkpt>
      <trkpt lat="46.05676" lon="4.77433">
        <ele>206</ele>
        <time>2017-12-23T11:28:04Z</time>
      </trkpt>
      <trkpt lat="46.05671" lon="4.77428">
        <ele>206</ele>
        <time>2017-12-23T11:28:05Z</time>
      </trkpt>
      <trkpt lat="46.05666" lon="4.7742">
        <ele>205</ele>
        <time>2017-12-23T11:28:06Z</time>
      </trkpt>
      <trkpt lat="46.05661" lon="4.77414">
        <ele>204</ele>
        <time>2017-12-23T11:28:07Z</time>
      </trkpt>
      <trkpt lat="46.05655" lon="4.77408">
        <ele>204</ele>
        <time>2017-12-23T11:28:08Z</time>
      </trkpt>
      <trkpt lat="46.0565" lon="4.77402">
        <ele>204</ele>
        <time>2017-12-23T11:28:09Z</time>
      </trkpt>
      <trkpt lat="46.05644" lon="4.77397">
        <ele>203</ele>
        <time>2017-12-23T11:28:10Z</time>
      </trkpt>
      <trkpt lat="46.05639" lon="4.77392">
        <ele>203</ele>
        <time>2017-12-23T11:28:11Z</time>
      </trkpt>
      <trkpt lat="46.05633" lon="4.77387">
        <ele>203</ele>
        <time>2017-12-23T11:28:12Z</time>
      </trkpt>
      <trkpt lat="46.05627" lon="4.77382">
        <ele>203</ele>
        <time>2017-12-23T11:28:13Z</time>
      </trkpt>
      <trkpt lat="46.05621" lon="4.77377">
        <ele>203</ele>
        <time>2017-12-23T11:28:14Z</time>
      </trkpt>
      <trkpt lat="46.05616" lon="4.77372">
        <ele>203</ele>
        <time>2017-12-23T11:28:15Z</time>
      </trkpt>
      <trkpt lat="46.05609" lon="4.77367">
        <ele>202</ele>
        <time>2017-12-23T11:28:16Z</time>
      </trkpt>
      <trkpt lat="46.05603" lon="4.77362">
        <ele>202</ele>
        <time>2017-12-23T11:28:17Z</time>
      </trkpt>
      <trkpt lat="46.05596" lon="4.77358">
        <ele>202</ele>
        <time>2017-12-23T11:28:18Z</time>
      </trkpt>
      <trkpt lat="46.05589" lon="4.77354">
        <ele>202</ele>
        <time>2017-12-23T11:28:19Z</time>
      </trkpt>
      <trkpt lat="46.05583" lon="4.7735">
        <ele>201</ele>
        <time>2017-12-23T11:28:20Z</time>
      </trkpt>
      <trkpt lat="46.05576" lon="4.77346">
        <ele>201</ele>
        <time>2017-12-23T11:28:21Z</time>
      </trkpt>
      <trkpt lat="46.05569" lon="4.77341">
        <ele>201</ele>
        <time>2017-12-23T11:28:22Z</time>
      </trkpt>
      <trkpt lat="46.05562" lon="4.77337">
        <ele>201</ele>
        <time>2017-12-23T11:28:23Z</time>
      </trkpt>
      <trkpt lat="46.05555" lon="4.77333">
        <ele>200</ele>
        <time>2017-12-23T11:28:24Z</time>
      </trkpt>
      <trkpt lat="46.05549" lon="4.77327">
        <ele>200</ele>
        <time>2017-12-23T11:28:25Z</time>
      </trkpt>
      <trkpt lat="46.05542" lon="4.77323">
        <ele>200</ele>
        <time>2017-12-23T11:28:26Z</time>
      </trkpt>
      <trkpt lat="46.05535" lon="4.77319">
        <ele>200</ele>
        <time>2017-12-23T11:28:27Z</time>
      </trkpt>
      <trkpt lat="46.05528" lon="4.77316">
        <ele>200</ele>
        <time>2017-12-23T11:28:28Z</time>
      </trkpt>
      <trkpt lat="46.05522" lon="4.77312">
        <ele>200</ele>
        <time>2017-12-23T11:28:29Z</time>
      </trkpt>
      <trkpt lat="46.05516" lon="4.7731">
        <ele>200</ele>
        <time>2017-12-23T11:28:30Z</time>
      </trkpt>
      <trkpt lat="46.05509" lon="4.77306">
        <ele>200</ele>
        <time>2017-12-23T11:28:31Z</time>
      </trkpt>
      <trkpt lat="46.05503" lon="4.77302">
        <ele>200</ele>
        <time>2017-12-23T11:28:32Z</time>
      </trkpt>
      <trkpt lat="46.05498" lon="4.77298">
        <ele>201</ele>
        <time>2017-12-23T11:28:33Z</time>
      </trkpt>
      <trkpt lat="46.05492" lon="4.77294">
        <ele>201</ele>
        <time>2017-12-23T11:28:34Z</time>
      </trkpt>
      <trkpt lat="46.05486" lon="4.77291">
        <ele>201</ele>
        <time>2017-12-23T11:28:35Z</time>
      </trkpt>
      <trkpt lat="46.0548" lon="4.77288">
        <ele>201</ele>
        <time>2017-12-23T11:28:36Z</time>
      </trkpt>
      <trkpt lat="46.05473" lon="4.77285">
        <ele>201</ele>
        <time>2017-12-23T11:28:37Z</time>
      </trkpt>
      <trkpt lat="46.05468" lon="4.77282">
        <ele>201</ele>
        <time>2017-12-23T11:28:38Z</time>
      </trkpt>
      <trkpt lat="46.05463" lon="4.77278">
        <ele>201</ele>
        <time>2017-12-23T11:28:39Z</time>
      </trkpt>
      <trkpt lat="46.05457" lon="4.77277">
        <ele>201</ele>
        <time>2017-12-23T11:28:40Z</time>
      </trkpt>
      <trkpt lat="46.05452" lon="4.77274">
        <ele>201</ele>
        <time>2017-12-23T11:28:41Z</time>
      </trkpt>
      <trkpt lat="46.05446" lon="4.77272">
        <ele>201</ele>
        <time>2017-12-23T11:28:42Z</time>
      </trkpt>
      <trkpt lat="46.05439" lon="4.7727">
        <ele>201</ele>
        <time>2017-12-23T11:28:43Z</time>
      </trkpt>
      <trkpt lat="46.05433" lon="4.77268">
        <ele>201</ele>
        <time>2017-12-23T11:28:44Z</time>
      </trkpt>
      <trkpt lat="46.05427" lon="4.77267">
        <ele>201</ele>
        <time>2017-12-23T11:28:45Z</time>
      </trkpt>
      <trkpt lat="46.05422" lon="4.77264">
        <ele>201</ele>
        <time>2017-12-23T11:28:46Z</time>
      </trkpt>
      <trkpt lat="46.05417" lon="4.77262">
        <ele>201</ele>
        <time>2017-12-23T11:28:47Z</time>
      </trkpt>
      <trkpt lat="46.05413" lon="4.77259">
        <ele>202</ele>
        <time>2017-12-23T11:28:48Z</time>
      </trkpt>
      <trkpt lat="46.05408" lon="4.77257">
        <ele>202</ele>
        <time>2017-12-23T11:28:49Z</time>
      </trkpt>
      <trkpt lat="46.05403" lon="4.77255">
        <ele>202</ele>
        <time>2017-12-23T11:28:50Z</time>
      </trkpt>
      <trkpt lat="46.05398" lon="4.77252">
        <ele>203</ele>
        <time>2017-12-23T11:28:51Z</time>
      </trkpt>
      <trkpt lat="46.05393" lon="4.7725">
        <ele>202</ele>
        <time>2017-12-23T11:28:52Z</time>
      </trkpt>
      <trkpt lat="46.05388" lon="4.77248">
        <ele>202</ele>
        <time>2017-12-23T11:28:53Z</time>
      </trkpt>
      <trkpt lat="46.05383" lon="4.77245">
        <ele>203</ele>
        <time>2017-12-23T11:28:54Z</time>
      </trkpt>
      <trkpt lat="46.05378" lon="4.77243">
        <ele>203</ele>
        <time>2017-12-23T11:28:55Z</time>
      </trkpt>
      <trkpt lat="46.05374" lon="4.77241">
        <ele>203</ele>
        <time>2017-12-23T11:28:56Z</time>
      </trkpt>
      <trkpt lat="46.0537" lon="4.77237">
        <ele>203</ele>
        <time>2017-12-23T11:28:57Z</time>
      </trkpt>
      <trkpt lat="46.05365" lon="4.77233">
        <ele>203</ele>
        <time>2017-12-23T11:28:58Z</time>
      </trkpt>
      <trkpt lat="46.05357" lon="4.77231">
        <ele>203</ele>
        <time>2017-12-23T11:29:00Z</time>
      </trkpt>
      <trkpt lat="46.05353" lon="4.7723">
        <ele>204</ele>
        <time>2017-12-23T11:29:01Z</time>
      </trkpt>
      <trkpt lat="46.05348" lon="4.77226">
        <ele>204</ele>
        <time>2017-12-23T11:29:02Z</time>
      </trkpt>
      <trkpt lat="46.05344" lon="4.77222">
        <ele>204</ele>
        <time>2017-12-23T11:29:03Z</time>
      </trkpt>
      <trkpt lat="46.05338" lon="4.77217">
        <ele>204</ele>
        <time>2017-12-23T11:29:05Z</time>
      </trkpt>
      <trkpt lat="46.05335" lon="4.77215">
        <ele>204</ele>
        <time>2017-12-23T11:29:06Z</time>
      </trkpt>
      <trkpt lat="46.05331" lon="4.77213">
        <ele>206</ele>
        <time>2017-12-23T11:29:07Z</time>
      </trkpt>
      <trkpt lat="46.05327" lon="4.77209">
        <ele>205</ele>
        <time>2017-12-23T11:29:08Z</time>
      </trkpt>
      <trkpt lat="46.05323" lon="4.77204">
        <ele>205</ele>
        <time>2017-12-23T11:29:09Z</time>
      </trkpt>
      <trkpt lat="46.05317" lon="4.77199">
        <ele>205</ele>
        <time>2017-12-23T11:29:10Z</time>
      </trkpt>
      <trkpt lat="46.05313" lon="4.77194">
        <ele>205</ele>
        <time>2017-12-23T11:29:11Z</time>
      </trkpt>
      <trkpt lat="46.05309" lon="4.7719">
        <ele>205</ele>
        <time>2017-12-23T11:29:12Z</time>
      </trkpt>
      <trkpt lat="46.05304" lon="4.77187">
        <ele>205</ele>
        <time>2017-12-23T11:29:13Z</time>
      </trkpt>
      <trkpt lat="46.05298" lon="4.77182">
        <ele>205</ele>
        <time>2017-12-23T11:29:14Z</time>
      </trkpt>
      <trkpt lat="46.05294" lon="4.77177">
        <ele>205</ele>
        <time>2017-12-23T11:29:15Z</time>
      </trkpt>
      <trkpt lat="46.05291" lon="4.77172">
        <ele>206</ele>
        <time>2017-12-23T11:29:16Z</time>
      </trkpt>
      <trkpt lat="46.05287" lon="4.77167">
        <ele>206</ele>
        <time>2017-12-23T11:29:17Z</time>
      </trkpt>
      <trkpt lat="46.05282" lon="4.77162">
        <ele>204</ele>
        <time>2017-12-23T11:29:18Z</time>
      </trkpt>
      <trkpt lat="46.05278" lon="4.77157">
        <ele>204</ele>
        <time>2017-12-23T11:29:19Z</time>
      </trkpt>
      <trkpt lat="46.05274" lon="4.77151">
        <ele>204</ele>
        <time>2017-12-23T11:29:20Z</time>
      </trkpt>
      <trkpt lat="46.0527" lon="4.77146">
        <ele>204</ele>
        <time>2017-12-23T11:29:21Z</time>
      </trkpt>
      <trkpt lat="46.05264" lon="4.77142">
        <ele>204</ele>
        <time>2017-12-23T11:29:22Z</time>
      </trkpt>
      <trkpt lat="46.0526" lon="4.77136">
        <ele>204</ele>
        <time>2017-12-23T11:29:23Z</time>
      </trkpt>
      <trkpt lat="46.05256" lon="4.77132">
        <ele>204</ele>
        <time>2017-12-23T11:29:24Z</time>
      </trkpt>
      <trkpt lat="46.05252" lon="4.77126">
        <ele>204</ele>
        <time>2017-12-23T11:29:25Z</time>
      </trkpt>
      <trkpt lat="46.05248" lon="4.7712">
        <ele>204</ele>
        <time>2017-12-23T11:29:26Z</time>
      </trkpt>
      <trkpt lat="46.05244" lon="4.77115">
        <ele>203</ele>
        <time>2017-12-23T11:29:27Z</time>
      </trkpt>
      <trkpt lat="46.05238" lon="4.77112">
        <ele>203</ele>
        <time>2017-12-23T11:29:28Z</time>
      </trkpt>
      <trkpt lat="46.05234" lon="4.77108">
        <ele>203</ele>
        <time>2017-12-23T11:29:29Z</time>
      </trkpt>
      <trkpt lat="46.0523" lon="4.77101">
        <ele>203</ele>
        <time>2017-12-23T11:29:30Z</time>
      </trkpt>
      <trkpt lat="46.05226" lon="4.77093">
        <ele>203</ele>
        <time>2017-12-23T11:29:31Z</time>
      </trkpt>
      <trkpt lat="46.05223" lon="4.77085">
        <ele>203</ele>
        <time>2017-12-23T11:29:32Z</time>
      </trkpt>
      <trkpt lat="46.05219" lon="4.77078">
        <ele>201</ele>
        <time>2017-12-23T11:29:33Z</time>
      </trkpt>
      <trkpt lat="46.05215" lon="4.77069">
        <ele>201</ele>
        <time>2017-12-23T11:29:34Z</time>
      </trkpt>
      <trkpt lat="46.05212" lon="4.77061">
        <ele>201</ele>
        <time>2017-12-23T11:29:35Z</time>
      </trkpt>
      <trkpt lat="46.05211" lon="4.77051">
        <ele>201</ele>
        <time>2017-12-23T11:29:36Z</time>
      </trkpt>
      <trkpt lat="46.05209" lon="4.77042">
        <ele>201</ele>
        <time>2017-12-23T11:29:37Z</time>
      </trkpt>
      <trkpt lat="46.05206" lon="4.77034">
        <ele>200</ele>
        <time>2017-12-23T11:29:38Z</time>
      </trkpt>
      <trkpt lat="46.05202" lon="4.77026">
        <ele>200</ele>
        <time>2017-12-23T11:29:39Z</time>
      </trkpt>
      <trkpt lat="46.05201" lon="4.77017">
        <ele>200</ele>
        <time>2017-12-23T11:29:40Z</time>
      </trkpt>
      <trkpt lat="46.05197" lon="4.77009">
        <ele>200</ele>
        <time>2017-12-23T11:29:41Z</time>
      </trkpt>
      <trkpt lat="46.05193" lon="4.77001">
        <ele>200</ele>
        <time>2017-12-23T11:29:42Z</time>
      </trkpt>
      <trkpt lat="46.05189" lon="4.76992">
        <ele>198</ele>
        <time>2017-12-23T11:29:43Z</time>
      </trkpt>
      <trkpt lat="46.05186" lon="4.76985">
        <ele>198</ele>
        <time>2017-12-23T11:29:44Z</time>
      </trkpt>
      <trkpt lat="46.05183" lon="4.76976">
        <ele>198</ele>
        <time>2017-12-23T11:29:45Z</time>
      </trkpt>
      <trkpt lat="46.0518" lon="4.76967">
        <ele>198</ele>
        <time>2017-12-23T11:29:46Z</time>
      </trkpt>
      <trkpt lat="46.05176" lon="4.76957">
        <ele>197</ele>
        <time>2017-12-23T11:29:47Z</time>
      </trkpt>
      <trkpt lat="46.05173" lon="4.76949">
        <ele>197</ele>
        <time>2017-12-23T11:29:48Z</time>
      </trkpt>
      <trkpt lat="46.05169" lon="4.76939">
        <ele>197</ele>
        <time>2017-12-23T11:29:49Z</time>
      </trkpt>
      <trkpt lat="46.05164" lon="4.7693">
        <ele>196</ele>
        <time>2017-12-23T11:29:50Z</time>
      </trkpt>
      <trkpt lat="46.05159" lon="4.76923">
        <ele>196</ele>
        <time>2017-12-23T11:29:51Z</time>
      </trkpt>
      <trkpt lat="46.05155" lon="4.76915">
        <ele>196</ele>
        <time>2017-12-23T11:29:52Z</time>
      </trkpt>
      <trkpt lat="46.05151" lon="4.76907">
        <ele>195</ele>
        <time>2017-12-23T11:29:53Z</time>
      </trkpt>
      <trkpt lat="46.05147" lon="4.76898">
        <ele>195</ele>
        <time>2017-12-23T11:29:54Z</time>
      </trkpt>
      <trkpt lat="46.05143" lon="4.7689">
        <ele>195</ele>
        <time>2017-12-23T11:29:55Z</time>
      </trkpt>
      <trkpt lat="46.05139" lon="4.76881">
        <ele>195</ele>
        <time>2017-12-23T11:29:56Z</time>
      </trkpt>
      <trkpt lat="46.05134" lon="4.76872">
        <ele>195</ele>
        <time>2017-12-23T11:29:57Z</time>
      </trkpt>
      <trkpt lat="46.05131" lon="4.76864">
        <ele>195</ele>
        <time>2017-12-23T11:29:58Z</time>
      </trkpt>
      <trkpt lat="46.05128" lon="4.76854">
        <ele>195</ele>
        <time>2017-12-23T11:29:59Z</time>
      </trkpt>
      <trkpt lat="46.05124" lon="4.76847">
        <ele>195</ele>
        <time>2017-12-23T11:30:00Z</time>
      </trkpt>
      <trkpt lat="46.05121" lon="4.76838">
        <ele>195</ele>
        <time>2017-12-23T11:30:01Z</time>
      </trkpt>
      <trkpt lat="46.05118" lon="4.76829">
        <ele>194</ele>
        <time>2017-12-23T11:30:02Z</time>
      </trkpt>
      <trkpt lat="46.05116" lon="4.7682">
        <ele>194</ele>
        <time>2017-12-23T11:30:03Z</time>
      </trkpt>
      <trkpt lat="46.05112" lon="4.76812">
        <ele>194</ele>
        <time>2017-12-23T11:30:04Z</time>
      </trkpt>
      <trkpt lat="46.0511" lon="4.76802">
        <ele>194</ele>
        <time>2017-12-23T11:30:05Z</time>
      </trkpt>
      <trkpt lat="46.05108" lon="4.76794">
        <ele>194</ele>
        <time>2017-12-23T11:30:06Z</time>
      </trkpt>
      <trkpt lat="46.05105" lon="4.76785">
        <ele>194</ele>
        <time>2017-12-23T11:30:07Z</time>
      </trkpt>
      <trkpt lat="46.05102" lon="4.76777">
        <ele>194</ele>
        <time>2017-12-23T11:30:08Z</time>
      </trkpt>
      <trkpt lat="46.051" lon="4.76768">
        <ele>194</ele>
        <time>2017-12-23T11:30:09Z</time>
      </trkpt>
      <trkpt lat="46.05099" lon="4.76763">
        <ele>194</ele>
        <time>2017-12-23T11:30:10Z</time>
      </trkpt>
      <trkpt lat="46.05097" lon="4.76755">
        <ele>194</ele>
        <time>2017-12-23T11:30:11Z</time>
      </trkpt>
      <trkpt lat="46.05096" lon="4.76746">
        <ele>193</ele>
        <time>2017-12-23T11:30:12Z</time>
      </trkpt>
      <trkpt lat="46.05095" lon="4.76737">
        <ele>193</ele>
        <time>2017-12-23T11:30:13Z</time>
      </trkpt>
      <trkpt lat="46.05094" lon="4.7673">
        <ele>193</ele>
        <time>2017-12-23T11:30:14Z</time>
      </trkpt>
      <trkpt lat="46.05092" lon="4.76722">
        <ele>193</ele>
        <time>2017-12-23T11:30:15Z</time>
      </trkpt>
      <trkpt lat="46.0509" lon="4.76714">
        <ele>193</ele>
        <time>2017-12-23T11:30:16Z</time>
      </trkpt>
      <trkpt lat="46.05089" lon="4.76705">
        <ele>193</ele>
        <time>2017-12-23T11:30:17Z</time>
      </trkpt>
      <trkpt lat="46.05087" lon="4.76697">
        <ele>193</ele>
        <time>2017-12-23T11:30:18Z</time>
      </trkpt>
      <trkpt lat="46.05086" lon="4.76689">
        <ele>193</ele>
        <time>2017-12-23T11:30:19Z</time>
      </trkpt>
      <trkpt lat="46.05085" lon="4.76681">
        <ele>193</ele>
        <time>2017-12-23T11:30:20Z</time>
      </trkpt>
      <trkpt lat="46.05083" lon="4.76675">
        <ele>193</ele>
        <time>2017-12-23T11:30:21Z</time>
      </trkpt>
      <trkpt lat="46.05083" lon="4.76668">
        <ele>193</ele>
        <time>2017-12-23T11:30:22Z</time>
      </trkpt>
      <trkpt lat="46.05082" lon="4.7666">
        <ele>193</ele>
        <time>2017-12-23T11:30:23Z</time>
      </trkpt>
      <trkpt lat="46.05082" lon="4.76653">
        <ele>192</ele>
        <time>2017-12-23T11:30:24Z</time>
      </trkpt>
      <trkpt lat="46.05081" lon="4.76645">
        <ele>192</ele>
        <time>2017-12-23T11:30:25Z</time>
      </trkpt>
      <trkpt lat="46.0508" lon="4.76638">
        <ele>192</ele>
        <time>2017-12-23T11:30:26Z</time>
      </trkpt>
      <trkpt lat="46.0508" lon="4.76628">
        <ele>192</ele>
        <time>2017-12-23T11:30:28Z</time>
      </trkpt>
      <trkpt lat="46.05081" lon="4.76623">
        <ele>192</ele>
        <time>2017-12-23T11:30:29Z</time>
      </trkpt>
      <trkpt lat="46.0508" lon="4.76613">
        <ele>191</ele>
        <time>2017-12-23T11:30:40Z</time>
      </trkpt>
      <trkpt lat="46.05079" lon="4.7661">
        <ele>191</ele>
        <time>2017-12-23T11:30:41Z</time>
      </trkpt>
      <trkpt lat="46.05072" lon="4.76603">
        <ele>191</ele>
        <time>2017-12-23T11:30:44Z</time>
      </trkpt>
      <trkpt lat="46.05069" lon="4.76601">
        <ele>191</ele>
        <time>2017-12-23T11:30:45Z</time>
      </trkpt>
      <trkpt lat="46.05062" lon="4.76596">
        <ele>191</ele>
        <time>2017-12-23T11:30:47Z</time>
      </trkpt>
      <trkpt lat="46.05059" lon="4.76594">
        <ele>191</ele>
        <time>2017-12-23T11:30:48Z</time>
      </trkpt>
      <trkpt lat="46.05052" lon="4.76588">
        <ele>191</ele>
        <time>2017-12-23T11:30:50Z</time>
      </trkpt>
      <trkpt lat="46.05048" lon="4.76585">
        <ele>191</ele>
        <time>2017-12-23T11:30:51Z</time>
      </trkpt>
      <trkpt lat="46.0504" lon="4.7658">
        <ele>190</ele>
        <time>2017-12-23T11:30:53Z</time>
      </trkpt>
      <trkpt lat="46.05035" lon="4.76575">
        <ele>190</ele>
        <time>2017-12-23T11:30:54Z</time>
      </trkpt>
      <trkpt lat="46.05026" lon="4.76571">
        <ele>190</ele>
        <time>2017-12-23T11:30:56Z</time>
      </trkpt>
      <trkpt lat="46.05022" lon="4.76569">
        <ele>190</ele>
        <time>2017-12-23T11:30:57Z</time>
      </trkpt>
      <trkpt lat="46.05014" lon="4.76563">
        <ele>190</ele>
        <time>2017-12-23T11:30:59Z</time>
      </trkpt>
      <trkpt lat="46.05011" lon="4.76555">
        <ele>190</ele>
        <time>2017-12-23T11:31:00Z</time>
      </trkpt>
      <trkpt lat="46.05007" lon="4.76545">
        <ele>190</ele>
        <time>2017-12-23T11:31:02Z</time>
      </trkpt>
      <trkpt lat="46.05004" lon="4.7654">
        <ele>190</ele>
        <time>2017-12-23T11:31:03Z</time>
      </trkpt>
      <trkpt lat="46.04999" lon="4.76531">
        <ele>191</ele>
        <time>2017-12-23T11:31:05Z</time>
      </trkpt>
      <trkpt lat="46.04997" lon="4.76525">
        <ele>191</ele>
        <time>2017-12-23T11:31:06Z</time>
      </trkpt>
      <trkpt lat="46.04995" lon="4.76519">
        <ele>191</ele>
        <time>2017-12-23T11:31:07Z</time>
      </trkpt>
      <trkpt lat="46.04993" lon="4.76513">
        <ele>191</ele>
        <time>2017-12-23T11:31:08Z</time>
      </trkpt>
      <trkpt lat="46.0499" lon="4.76507">
        <ele>191</ele>
        <time>2017-12-23T11:31:09Z</time>
      </trkpt>
      <trkpt lat="46.04987" lon="4.76501">
        <ele>191</ele>
        <time>2017-12-23T11:31:10Z</time>
      </trkpt>
      <trkpt lat="46.04984" lon="4.76495">
        <ele>190</ele>
        <time>2017-12-23T11:31:11Z</time>
      </trkpt>
      <trkpt lat="46.04982" lon="4.76489">
        <ele>190</ele>
        <time>2017-12-23T11:31:12Z</time>
      </trkpt>
      <trkpt lat="46.0498" lon="4.76483">
        <ele>190</ele>
        <time>2017-12-23T11:31:13Z</time>
      </trkpt>
      <trkpt lat="46.04977" lon="4.76477">
        <ele>191</ele>
        <time>2017-12-23T11:31:14Z</time>
      </trkpt>
      <trkpt lat="46.04976" lon="4.76471">
        <ele>191</ele>
        <time>2017-12-23T11:31:15Z</time>
      </trkpt>
      <trkpt lat="46.04974" lon="4.76465">
        <ele>191</ele>
        <time>2017-12-23T11:31:16Z</time>
      </trkpt>
      <trkpt lat="46.04972" lon="4.76459">
        <ele>190</ele>
        <time>2017-12-23T11:31:17Z</time>
      </trkpt>
      <trkpt lat="46.0497" lon="4.76452">
        <ele>190</ele>
        <time>2017-12-23T11:31:18Z</time>
      </trkpt>
      <trkpt lat="46.04967" lon="4.76446">
        <ele>190</ele>
        <time>2017-12-23T11:31:19Z</time>
      </trkpt>
      <trkpt lat="46.04965" lon="4.76439">
        <ele>190</ele>
        <time>2017-12-23T11:31:20Z</time>
      </trkpt>
      <trkpt lat="46.04957" lon="4.76433">
        <ele>191</ele>
        <time>2017-12-23T11:31:22Z</time>
      </trkpt>
      <trkpt lat="46.04953" lon="4.76431">
        <ele>191</ele>
        <time>2017-12-23T11:31:23Z</time>
      </trkpt>
      <trkpt lat="46.04946" lon="4.76428">
        <ele>191</ele>
        <time>2017-12-23T11:31:25Z</time>
      </trkpt>
      <trkpt lat="46.04941" lon="4.76428">
        <ele>191</ele>
        <time>2017-12-23T11:31:26Z</time>
      </trkpt>
      <trkpt lat="46.04936" lon="4.76429">
        <ele>191</ele>
        <time>2017-12-23T11:31:27Z</time>
      </trkpt>
      <trkpt lat="46.04932" lon="4.7643">
        <ele>191</ele>
        <time>2017-12-23T11:31:28Z</time>
      </trkpt>
      <trkpt lat="46.04925" lon="4.76433">
        <ele>191</ele>
        <time>2017-12-23T11:31:30Z</time>
      </trkpt>
      <trkpt lat="46.04921" lon="4.76435">
        <ele>191</ele>
        <time>2017-12-23T11:31:31Z</time>
      </trkpt>
      <trkpt lat="46.04912" lon="4.76439">
        <ele>193</ele>
        <time>2017-12-23T11:31:33Z</time>
      </trkpt>
      <trkpt lat="46.04909" lon="4.7644">
        <ele>193</ele>
        <time>2017-12-23T11:31:34Z</time>
      </trkpt>
      <trkpt lat="46.04901" lon="4.76442">
        <ele>193</ele>
        <time>2017-12-23T11:31:36Z</time>
      </trkpt>
      <trkpt lat="46.04896" lon="4.76442">
        <ele>193</ele>
        <time>2017-12-23T11:31:37Z</time>
      </trkpt>
      <trkpt lat="46.04891" lon="4.76442">
        <ele>193</ele>
        <time>2017-12-23T11:31:38Z</time>
      </trkpt>
      <trkpt lat="46.04885" lon="4.76444">
        <ele>193</ele>
        <time>2017-12-23T11:31:39Z</time>
      </trkpt>
      <trkpt lat="46.0488" lon="4.76446">
        <ele>193</ele>
        <time>2017-12-23T11:31:40Z</time>
      </trkpt>
      <trkpt lat="46.04875" lon="4.76446">
        <ele>193</ele>
        <time>2017-12-23T11:31:41Z</time>
      </trkpt>
      <trkpt lat="46.04866" lon="4.76447">
        <ele>193</ele>
        <time>2017-12-23T11:31:43Z</time>
      </trkpt>
      <trkpt lat="46.04863" lon="4.76449">
        <ele>193</ele>
        <time>2017-12-23T11:31:44Z</time>
      </trkpt>
      <trkpt lat="46.04854" lon="4.76446">
        <ele>193</ele>
        <time>2017-12-23T11:31:47Z</time>
      </trkpt>
      <trkpt lat="46.04851" lon="4.76445">
        <ele>193</ele>
        <time>2017-12-23T11:31:48Z</time>
      </trkpt>
      <trkpt lat="46.04844" lon="4.76444">
        <ele>194</ele>
        <time>2017-12-23T11:31:50Z</time>
      </trkpt>
      <trkpt lat="46.04841" lon="4.76446">
        <ele>194</ele>
        <time>2017-12-23T11:31:51Z</time>
      </trkpt>
      <trkpt lat="46.04832" lon="4.76444">
        <ele>193</ele>
        <time>2017-12-23T11:31:53Z</time>
      </trkpt>
      <trkpt lat="46.04828" lon="4.76444">
        <ele>193</ele>
        <time>2017-12-23T11:31:54Z</time>
      </trkpt>
      <trkpt lat="46.04822" lon="4.76441">
        <ele>193</ele>
        <time>2017-12-23T11:31:56Z</time>
      </trkpt>
      <trkpt lat="46.04818" lon="4.76441">
        <ele>193</ele>
        <time>2017-12-23T11:31:57Z</time>
      </trkpt>
      <trkpt lat="46.04811" lon="4.76441">
        <ele>193</ele>
        <time>2017-12-23T11:31:59Z</time>
      </trkpt>
      <trkpt lat="46.04799" lon="4.76448">
        <ele>193</ele>
        <time>2017-12-23T11:32:00Z</time>
      </trkpt>
      <trkpt lat="46.04792" lon="4.76451">
        <ele>193</ele>
        <time>2017-12-23T11:32:01Z</time>
      </trkpt>
      <trkpt lat="46.04788" lon="4.76449">
        <ele>192</ele>
        <time>2017-12-23T11:32:02Z</time>
      </trkpt>
      <trkpt lat="46.04783" lon="4.76451">
        <ele>192</ele>
        <time>2017-12-23T11:32:03Z</time>
      </trkpt>
      <trkpt lat="46.04778" lon="4.76454">
        <ele>192</ele>
        <time>2017-12-23T11:32:04Z</time>
      </trkpt>
      <trkpt lat="46.04771" lon="4.76459">
        <ele>192</ele>
        <time>2017-12-23T11:32:06Z</time>
      </trkpt>
      <trkpt lat="46.04766" lon="4.76462">
        <ele>192</ele>
        <time>2017-12-23T11:32:07Z</time>
      </trkpt>
      <trkpt lat="46.04759" lon="4.76469">
        <ele>192</ele>
        <time>2017-12-23T11:32:09Z</time>
      </trkpt>
      <trkpt lat="46.04754" lon="4.76472">
        <ele>192</ele>
        <time>2017-12-23T11:32:10Z</time>
      </trkpt>
      <trkpt lat="46.0475" lon="4.76473">
        <ele>192</ele>
        <time>2017-12-23T11:32:11Z</time>
      </trkpt>
      <trkpt lat="46.04744" lon="4.76476">
        <ele>190</ele>
        <time>2017-12-23T11:32:12Z</time>
      </trkpt>
      <trkpt lat="46.0474" lon="4.76478">
        <ele>190</ele>
        <time>2017-12-23T11:32:13Z</time>
      </trkpt>
      <trkpt lat="46.04735" lon="4.7648">
        <ele>190</ele>
        <time>2017-12-23T11:32:14Z</time>
      </trkpt>
      <trkpt lat="46.04731" lon="4.76483">
        <ele>189</ele>
        <time>2017-12-23T11:32:15Z</time>
      </trkpt>
      <trkpt lat="46.04725" lon="4.76485">
        <ele>189</ele>
        <time>2017-12-23T11:32:16Z</time>
      </trkpt>
      <trkpt lat="46.04721" lon="4.76486">
        <ele>189</ele>
        <time>2017-12-23T11:32:17Z</time>
      </trkpt>
      <trkpt lat="46.04714" lon="4.76488">
        <ele>189</ele>
        <time>2017-12-23T11:32:18Z</time>
      </trkpt>
      <trkpt lat="46.0471" lon="4.76489">
        <ele>189</ele>
        <time>2017-12-23T11:32:19Z</time>
      </trkpt>
      <trkpt lat="46.04705" lon="4.7649">
        <ele>189</ele>
        <time>2017-12-23T11:32:20Z</time>
      </trkpt>
      <trkpt lat="46.04697" lon="4.76494">
        <ele>188</ele>
        <time>2017-12-23T11:32:22Z</time>
      </trkpt>
      <trkpt lat="46.04694" lon="4.76495">
        <ele>188</ele>
        <time>2017-12-23T11:32:23Z</time>
      </trkpt>
      <trkpt lat="46.04688" lon="4.76502">
        <ele>187</ele>
        <time>2017-12-23T11:32:25Z</time>
      </trkpt>
      <trkpt lat="46.04684" lon="4.76505">
        <ele>187</ele>
        <time>2017-12-23T11:32:26Z</time>
      </trkpt>
      <trkpt lat="46.04679" lon="4.76508">
        <ele>187</ele>
        <time>2017-12-23T11:32:27Z</time>
      </trkpt>
      <trkpt lat="46.04674" lon="4.7651">
        <ele>187</ele>
        <time>2017-12-23T11:32:28Z</time>
      </trkpt>
      <trkpt lat="46.04667" lon="4.7651">
        <ele>187</ele>
        <time>2017-12-23T11:32:29Z</time>
      </trkpt>
      <trkpt lat="46.04661" lon="4.76511">
        <ele>186</ele>
        <time>2017-12-23T11:32:30Z</time>
      </trkpt>
      <trkpt lat="46.04654" lon="4.76511">
        <ele>186</ele>
        <time>2017-12-23T11:32:31Z</time>
      </trkpt>
      <trkpt lat="46.04648" lon="4.76514">
        <ele>186</ele>
        <time>2017-12-23T11:32:32Z</time>
      </trkpt>
      <trkpt lat="46.04642" lon="4.76515">
        <ele>186</ele>
        <time>2017-12-23T11:32:33Z</time>
      </trkpt>
      <trkpt lat="46.04636" lon="4.76516">
        <ele>186</ele>
        <time>2017-12-23T11:32:34Z</time>
      </trkpt>
      <trkpt lat="46.04629" lon="4.76518">
        <ele>186</ele>
        <time>2017-12-23T11:32:35Z</time>
      </trkpt>
      <trkpt lat="46.04624" lon="4.7652">
        <ele>186</ele>
        <time>2017-12-23T11:32:36Z</time>
      </trkpt>
      <trkpt lat="46.04617" lon="4.76525">
        <ele>186</ele>
        <time>2017-12-23T11:32:38Z</time>
      </trkpt>
      <trkpt lat="46.0461" lon="4.76527">
        <ele>186</ele>
        <time>2017-12-23T11:32:39Z</time>
      </trkpt>
      <trkpt lat="46.04604" lon="4.7653">
        <ele>186</ele>
        <time>2017-12-23T11:32:41Z</time>
      </trkpt>
      <trkpt lat="46.04601" lon="4.76532">
        <ele>186</ele>
        <time>2017-12-23T11:32:42Z</time>
      </trkpt>
      <trkpt lat="46.04596" lon="4.76535">
        <ele>186</ele>
        <time>2017-12-23T11:32:43Z</time>
      </trkpt>
      <trkpt lat="46.0459" lon="4.76539">
        <ele>186</ele>
        <time>2017-12-23T11:32:44Z</time>
      </trkpt>
      <trkpt lat="46.04586" lon="4.76542">
        <ele>186</ele>
        <time>2017-12-23T11:32:45Z</time>
      </trkpt>
      <trkpt lat="46.04581" lon="4.76544">
        <ele>187</ele>
        <time>2017-12-23T11:32:46Z</time>
      </trkpt>
      <trkpt lat="46.04575" lon="4.76546">
        <ele>187</ele>
        <time>2017-12-23T11:32:47Z</time>
      </trkpt>
      <trkpt lat="46.04568" lon="4.76548">
        <ele>187</ele>
        <time>2017-12-23T11:32:48Z</time>
      </trkpt>
      <trkpt lat="46.04561" lon="4.7655">
        <ele>187</ele>
        <time>2017-12-23T11:32:50Z</time>
      </trkpt>
      <trkpt lat="46.04558" lon="4.7655">
        <ele>188</ele>
        <time>2017-12-23T11:32:51Z</time>
      </trkpt>
      <trkpt lat="46.04551" lon="4.76553">
        <ele>188</ele>
        <time>2017-12-23T11:32:52Z</time>
      </trkpt>
      <trkpt lat="46.04547" lon="4.76553">
        <ele>188</ele>
        <time>2017-12-23T11:32:53Z</time>
      </trkpt>
      <trkpt lat="46.04539" lon="4.76552">
        <ele>188</ele>
        <time>2017-12-23T11:32:57Z</time>
      </trkpt>
      <trkpt lat="46.04536" lon="4.76551">
        <ele>188</ele>
        <time>2017-12-23T11:32:58Z</time>
      </trkpt>
      <trkpt lat="46.0453" lon="4.76552">
        <ele>188</ele>
        <time>2017-12-23T11:33:00Z</time>
      </trkpt>
      <trkpt lat="46.04527" lon="4.76553">
        <ele>189</ele>
        <time>2017-12-23T11:33:01Z</time>
      </trkpt>
      <trkpt lat="46.04518" lon="4.76555">
        <ele>189</ele>
        <time>2017-12-23T11:33:04Z</time>
      </trkpt>
      <trkpt lat="46.04516" lon="4.76555">
        <ele>189</ele>
        <time>2017-12-23T11:33:05Z</time>
      </trkpt>
      <trkpt lat="46.0451" lon="4.76556">
        <ele>189</ele>
        <time>2017-12-23T11:33:07Z</time>
      </trkpt>
      <trkpt lat="46.04506" lon="4.76556">
        <ele>189</ele>
        <time>2017-12-23T11:33:08Z</time>
      </trkpt>
      <trkpt lat="46.04499" lon="4.76558">
        <ele>192</ele>
        <time>2017-12-23T11:33:11Z</time>
      </trkpt>
      <trkpt lat="46.04496" lon="4.76558">
        <ele>192</ele>
        <time>2017-12-23T11:33:12Z</time>
      </trkpt>
      <trkpt lat="46.04489" lon="4.76559">
        <ele>193</ele>
        <time>2017-12-23T11:33:14Z</time>
      </trkpt>
      <trkpt lat="46.04485" lon="4.76559">
        <ele>193</ele>
        <time>2017-12-23T11:33:15Z</time>
      </trkpt>
      <trkpt lat="46.0448" lon="4.7656">
        <ele>193</ele>
        <time>2017-12-23T11:33:16Z</time>
      </trkpt>
      <trkpt lat="46.04475" lon="4.7656">
        <ele>193</ele>
        <time>2017-12-23T11:33:17Z</time>
      </trkpt>
      <trkpt lat="46.04468" lon="4.76561">
        <ele>193</ele>
        <time>2017-12-23T11:33:19Z</time>
      </trkpt>
      <trkpt lat="46.04464" lon="4.76561">
        <ele>194</ele>
        <time>2017-12-23T11:33:20Z</time>
      </trkpt>
      <trkpt lat="46.04456" lon="4.76561">
        <ele>194</ele>
        <time>2017-12-23T11:33:22Z</time>
      </trkpt>
      <trkpt lat="46.04451" lon="4.76561">
        <ele>194</ele>
        <time>2017-12-23T11:33:23Z</time>
      </trkpt>
      <trkpt lat="46.04444" lon="4.76558">
        <ele>194</ele>
        <time>2017-12-23T11:33:26Z</time>
      </trkpt>
      <trkpt lat="46.04441" lon="4.76557">
        <ele>195</ele>
        <time>2017-12-23T11:33:27Z</time>
      </trkpt>
      <trkpt lat="46.04437" lon="4.76557">
        <ele>195</ele>
        <time>2017-12-23T11:33:28Z</time>
      </trkpt>
      <trkpt lat="46.04431" lon="4.76557">
        <ele>195</ele>
        <time>2017-12-23T11:33:29Z</time>
      </trkpt>
      <trkpt lat="46.04426" lon="4.76558">
        <ele>195</ele>
        <time>2017-12-23T11:33:30Z</time>
      </trkpt>
      <trkpt lat="46.04421" lon="4.7656">
        <ele>196</ele>
        <time>2017-12-23T11:33:31Z</time>
      </trkpt>
      <trkpt lat="46.04415" lon="4.76565">
        <ele>198</ele>
        <time>2017-12-23T11:33:33Z</time>
      </trkpt>
      <trkpt lat="46.0441" lon="4.76567">
        <ele>198</ele>
        <time>2017-12-23T11:33:34Z</time>
      </trkpt>
      <trkpt lat="46.04405" lon="4.76569">
        <ele>198</ele>
        <time>2017-12-23T11:33:35Z</time>
      </trkpt>
      <trkpt lat="46.04401" lon="4.7657">
        <ele>198</ele>
        <time>2017-12-23T11:33:36Z</time>
      </trkpt>
      <trkpt lat="46.04392" lon="4.76571">
        <ele>197</ele>
        <time>2017-12-23T11:33:38Z</time>
      </trkpt>
      <trkpt lat="46.04389" lon="4.76572">
        <ele>197</ele>
        <time>2017-12-23T11:33:39Z</time>
      </trkpt>
      <trkpt lat="46.04377" lon="4.76573">
        <ele>197</ele>
        <time>2017-12-23T11:33:40Z</time>
      </trkpt>
      <trkpt lat="46.04372" lon="4.76574">
        <ele>197</ele>
        <time>2017-12-23T11:33:42Z</time>
      </trkpt>
      <trkpt lat="46.04366" lon="4.76576">
        <ele>197</ele>
        <time>2017-12-23T11:33:43Z</time>
      </trkpt>
      <trkpt lat="46.04358" lon="4.76577">
        <ele>198</ele>
        <time>2017-12-23T11:33:45Z</time>
      </trkpt>
      <trkpt lat="46.04355" lon="4.76578">
        <ele>198</ele>
        <time>2017-12-23T11:33:46Z</time>
      </trkpt>
      <trkpt lat="46.0435" lon="4.76579">
        <ele>198</ele>
        <time>2017-12-23T11:33:47Z</time>
      </trkpt>
      <trkpt lat="46.04345" lon="4.76578">
        <ele>198</ele>
        <time>2017-12-23T11:33:48Z</time>
      </trkpt>
      <trkpt lat="46.0434" lon="4.76578">
        <ele>198</ele>
        <time>2017-12-23T11:33:49Z</time>
      </trkpt>
      <trkpt lat="46.04334" lon="4.76579">
        <ele>199</ele>
        <time>2017-12-23T11:33:50Z</time>
      </trkpt>
      <trkpt lat="46.04329" lon="4.76579">
        <ele>198</ele>
        <time>2017-12-23T11:33:51Z</time>
      </trkpt>
      <trkpt lat="46.04324" lon="4.76578">
        <ele>198</ele>
        <time>2017-12-23T11:33:52Z</time>
      </trkpt>
      <trkpt lat="46.04319" lon="4.76578">
        <ele>198</ele>
        <time>2017-12-23T11:33:53Z</time>
      </trkpt>
      <trkpt lat="46.04311" lon="4.7658">
        <ele>197</ele>
        <time>2017-12-23T11:33:54Z</time>
      </trkpt>
      <trkpt lat="46.04303" lon="4.76582">
        <ele>197</ele>
        <time>2017-12-23T11:33:56Z</time>
      </trkpt>
      <trkpt lat="46.043" lon="4.76581">
        <ele>197</ele>
        <time>2017-12-23T11:33:57Z</time>
      </trkpt>
      <trkpt lat="46.04295" lon="4.76587">
        <ele>198</ele>
        <time>2017-12-23T11:34:00Z</time>
      </trkpt>
      <trkpt lat="46.04288" lon="4.7659">
        <ele>198</ele>
        <time>2017-12-23T11:34:01Z</time>
      </trkpt>
      <trkpt lat="46.04279" lon="4.7659">
        <ele>198</ele>
        <time>2017-12-23T11:34:03Z</time>
      </trkpt>
      <trkpt lat="46.04277" lon="4.7659">
        <ele>198</ele>
        <time>2017-12-23T11:34:04Z</time>
      </trkpt>
      <trkpt lat="46.04269" lon="4.76591">
        <ele>197</ele>
        <time>2017-12-23T11:34:06Z</time>
      </trkpt>
      <trkpt lat="46.04266" lon="4.76592">
        <ele>197</ele>
        <time>2017-12-23T11:34:07Z</time>
      </trkpt>
      <trkpt lat="46.04258" lon="4.76593">
        <ele>197</ele>
        <time>2017-12-23T11:34:09Z</time>
      </trkpt>
      <trkpt lat="46.04253" lon="4.76593">
        <ele>197</ele>
        <time>2017-12-23T11:34:10Z</time>
      </trkpt>
      <trkpt lat="46.04248" lon="4.76593">
        <ele>197</ele>
        <time>2017-12-23T11:34:11Z</time>
      </trkpt>
      <trkpt lat="46.04243" lon="4.76594">
        <ele>197</ele>
        <time>2017-12-23T11:34:12Z</time>
      </trkpt>
      <trkpt lat="46.04239" lon="4.76594">
        <ele>197</ele>
        <time>2017-12-23T11:34:13Z</time>
      </trkpt>
      <trkpt lat="46.04234" lon="4.76594">
        <ele>198</ele>
        <time>2017-12-23T11:34:14Z</time>
      </trkpt>
      <trkpt lat="46.04229" lon="4.76594">
        <ele>198</ele>
        <time>2017-12-23T11:34:15Z</time>
      </trkpt>
      <trkpt lat="46.04224" lon="4.76595">
        <ele>198</ele>
        <time>2017-12-23T11:34:16Z</time>
      </trkpt>
      <trkpt lat="46.04215" lon="4.76598">
        <ele>198</ele>
        <time>2017-12-23T11:34:18Z</time>
      </trkpt>
      <trkpt lat="46.04211" lon="4.766">
        <ele>198</ele>
        <time>2017-12-23T11:34:19Z</time>
      </trkpt>
      <trkpt lat="46.04203" lon="4.76605">
        <ele>198</ele>
        <time>2017-12-23T11:34:21Z</time>
      </trkpt>
      <trkpt lat="46.042" lon="4.76607">
        <ele>198</ele>
        <time>2017-12-23T11:34:22Z</time>
      </trkpt>
      <trkpt lat="46.04192" lon="4.76612">
        <ele>198</ele>
        <time>2017-12-23T11:34:24Z</time>
      </trkpt>
      <trkpt lat="46.04189" lon="4.76614">
        <ele>198</ele>
        <time>2017-12-23T11:34:25Z</time>
      </trkpt>
      <trkpt lat="46.04182" lon="4.76621">
        <ele>198</ele>
        <time>2017-12-23T11:34:27Z</time>
      </trkpt>
      <trkpt lat="46.04179" lon="4.76624">
        <ele>198</ele>
        <time>2017-12-23T11:34:28Z</time>
      </trkpt>
      <trkpt lat="46.04173" lon="4.76629">
        <ele>198</ele>
        <time>2017-12-23T11:34:30Z</time>
      </trkpt>
      <trkpt lat="46.04169" lon="4.76631">
        <ele>198</ele>
        <time>2017-12-23T11:34:31Z</time>
      </trkpt>
      <trkpt lat="46.04164" lon="4.76633">
        <ele>199</ele>
        <time>2017-12-23T11:34:32Z</time>
      </trkpt>
      <trkpt lat="46.0416" lon="4.76635">
        <ele>199</ele>
        <time>2017-12-23T11:34:33Z</time>
      </trkpt>
      <trkpt lat="46.04152" lon="4.76639">
        <ele>200</ele>
        <time>2017-12-23T11:34:35Z</time>
      </trkpt>
      <trkpt lat="46.04148" lon="4.76641">
        <ele>200</ele>
        <time>2017-12-23T11:34:36Z</time>
      </trkpt>
      <trkpt lat="46.04143" lon="4.76643">
        <ele>200</ele>
        <time>2017-12-23T11:34:37Z</time>
      </trkpt>
      <trkpt lat="46.04139" lon="4.76644">
        <ele>200</ele>
        <time>2017-12-23T11:34:38Z</time>
      </trkpt>
      <trkpt lat="46.04134" lon="4.76646">
        <ele>200</ele>
        <time>2017-12-23T11:34:39Z</time>
      </trkpt>
      <trkpt lat="46.0413" lon="4.76648">
        <ele>200</ele>
        <time>2017-12-23T11:34:40Z</time>
      </trkpt>
      <trkpt lat="46.04121" lon="4.7665">
        <ele>200</ele>
        <time>2017-12-23T11:34:42Z</time>
      </trkpt>
      <trkpt lat="46.04117" lon="4.76651">
        <ele>200</ele>
        <time>2017-12-23T11:34:43Z</time>
      </trkpt>
      <trkpt lat="46.04111" lon="4.76651">
        <ele>200</ele>
        <time>2017-12-23T11:34:44Z</time>
      </trkpt>
      <trkpt lat="46.04106" lon="4.76651">
        <ele>200</ele>
        <time>2017-12-23T11:34:45Z</time>
      </trkpt>
      <trkpt lat="46.04102" lon="4.76653">
        <ele>201</ele>
        <time>2017-12-23T11:34:46Z</time>
      </trkpt>
      <trkpt lat="46.04098" lon="4.76654">
        <ele>201</ele>
        <time>2017-12-23T11:34:47Z</time>
      </trkpt>
      <trkpt lat="46.04092" lon="4.76657">
        <ele>201</ele>
        <time>2017-12-23T11:34:49Z</time>
      </trkpt>
      <trkpt lat="46.04087" lon="4.76657">
        <ele>201</ele>
        <time>2017-12-23T11:34:50Z</time>
      </trkpt>
      <trkpt lat="46.04083" lon="4.76659">
        <ele>201</ele>
        <time>2017-12-23T11:34:51Z</time>
      </trkpt>
      <trkpt lat="46.04078" lon="4.76659">
        <ele>202</ele>
        <time>2017-12-23T11:34:52Z</time>
      </trkpt>
      <trkpt lat="46.04075" lon="4.76661">
        <ele>202</ele>
        <time>2017-12-23T11:34:53Z</time>
      </trkpt>
      <trkpt lat="46.04069" lon="4.76662">
        <ele>201</ele>
        <time>2017-12-23T11:34:54Z</time>
      </trkpt>
      <trkpt lat="46.04064" lon="4.76661">
        <ele>201</ele>
        <time>2017-12-23T11:34:55Z</time>
      </trkpt>
      <trkpt lat="46.04059" lon="4.76662">
        <ele>201</ele>
        <time>2017-12-23T11:34:56Z</time>
      </trkpt>
      <trkpt lat="46.0405" lon="4.76662">
        <ele>201</ele>
        <time>2017-12-23T11:34:58Z</time>
      </trkpt>
      <trkpt lat="46.04046" lon="4.76663">
        <ele>201</ele>
        <time>2017-12-23T11:34:59Z</time>
      </trkpt>
      <trkpt lat="46.04039" lon="4.76665">
        <ele>201</ele>
        <time>2017-12-23T11:35:01Z</time>
      </trkpt>
      <trkpt lat="46.04035" lon="4.76666">
        <ele>201</ele>
        <time>2017-12-23T11:35:02Z</time>
      </trkpt>
      <trkpt lat="46.04026" lon="4.76668">
        <ele>202</ele>
        <time>2017-12-23T11:35:04Z</time>
      </trkpt>
      <trkpt lat="46.04022" lon="4.76668">
        <ele>202</ele>
        <time>2017-12-23T11:35:05Z</time>
      </trkpt>
      <trkpt lat="46.04013" lon="4.76671">
        <ele>202</ele>
        <time>2017-12-23T11:35:07Z</time>
      </trkpt>
      <trkpt lat="46.04009" lon="4.76672">
        <ele>202</ele>
        <time>2017-12-23T11:35:08Z</time>
      </trkpt>
      <trkpt lat="46.04003" lon="4.76671">
        <ele>202</ele>
        <time>2017-12-23T11:35:09Z</time>
      </trkpt>
      <trkpt lat="46.03998" lon="4.76672">
        <ele>202</ele>
        <time>2017-12-23T11:35:10Z</time>
      </trkpt>
      <trkpt lat="46.03989" lon="4.76673">
        <ele>203</ele>
        <time>2017-12-23T11:35:12Z</time>
      </trkpt>
      <trkpt lat="46.03981" lon="4.76672">
        <ele>203</ele>
        <time>2017-12-23T11:35:13Z</time>
      </trkpt>
      <trkpt lat="46.03976" lon="4.76673">
        <ele>203</ele>
        <time>2017-12-23T11:35:14Z</time>
      </trkpt>
      <trkpt lat="46.03972" lon="4.76673">
        <ele>203</ele>
        <time>2017-12-23T11:35:15Z</time>
      </trkpt>
      <trkpt lat="46.03963" lon="4.76675">
        <ele>203</ele>
        <time>2017-12-23T11:35:17Z</time>
      </trkpt>
      <trkpt lat="46.03959" lon="4.76676">
        <ele>203</ele>
        <time>2017-12-23T11:35:18Z</time>
      </trkpt>
      <trkpt lat="46.0395" lon="4.76679">
        <ele>204</ele>
        <time>2017-12-23T11:35:20Z</time>
      </trkpt>
      <trkpt lat="46.03943" lon="4.7668">
        <ele>204</ele>
        <time>2017-12-23T11:35:21Z</time>
      </trkpt>
      <trkpt lat="46.03938" lon="4.76682">
        <ele>204</ele>
        <time>2017-12-23T11:35:22Z</time>
      </trkpt>
      <trkpt lat="46.03933" lon="4.76684">
        <ele>204</ele>
        <time>2017-12-23T11:35:23Z</time>
      </trkpt>
      <trkpt lat="46.03924" lon="4.76688">
        <ele>204</ele>
        <time>2017-12-23T11:35:25Z</time>
      </trkpt>
      <trkpt lat="46.03919" lon="4.76689">
        <ele>204</ele>
        <time>2017-12-23T11:35:26Z</time>
      </trkpt>
      <trkpt lat="46.03911" lon="4.76692">
        <ele>205</ele>
        <time>2017-12-23T11:35:28Z</time>
      </trkpt>
      <trkpt lat="46.03906" lon="4.76694">
        <ele>205</ele>
        <time>2017-12-23T11:35:29Z</time>
      </trkpt>
      <trkpt lat="46.03902" lon="4.76694">
        <ele>205</ele>
        <time>2017-12-23T11:35:30Z</time>
      </trkpt>
      <trkpt lat="46.03896" lon="4.76693">
        <ele>205</ele>
        <time>2017-12-23T11:35:31Z</time>
      </trkpt>
      <trkpt lat="46.03892" lon="4.76694">
        <ele>205</ele>
        <time>2017-12-23T11:35:32Z</time>
      </trkpt>
      <trkpt lat="46.03887" lon="4.76695">
        <ele>205</ele>
        <time>2017-12-23T11:35:33Z</time>
      </trkpt>
      <trkpt lat="46.03879" lon="4.76696">
        <ele>205</ele>
        <time>2017-12-23T11:35:35Z</time>
      </trkpt>
      <trkpt lat="46.03874" lon="4.76695">
        <ele>205</ele>
        <time>2017-12-23T11:35:36Z</time>
      </trkpt>
      <trkpt lat="46.03867" lon="4.76697">
        <ele>205</ele>
        <time>2017-12-23T11:35:38Z</time>
      </trkpt>
      <trkpt lat="46.03863" lon="4.76698">
        <ele>205</ele>
        <time>2017-12-23T11:35:39Z</time>
      </trkpt>
      <trkpt lat="46.03855" lon="4.76702">
        <ele>205</ele>
        <time>2017-12-23T11:35:41Z</time>
      </trkpt>
      <trkpt lat="46.0385" lon="4.76705">
        <ele>205</ele>
        <time>2017-12-23T11:35:42Z</time>
      </trkpt>
      <trkpt lat="46.03841" lon="4.76705">
        <ele>205</ele>
        <time>2017-12-23T11:35:44Z</time>
      </trkpt>
      <trkpt lat="46.03835" lon="4.76707">
        <ele>205</ele>
        <time>2017-12-23T11:35:45Z</time>
      </trkpt>
      <trkpt lat="46.03827" lon="4.76709">
        <ele>205</ele>
        <time>2017-12-23T11:35:47Z</time>
      </trkpt>
      <trkpt lat="46.03823" lon="4.7671">
        <ele>205</ele>
        <time>2017-12-23T11:35:48Z</time>
      </trkpt>
      <trkpt lat="46.03815" lon="4.7671">
        <ele>205</ele>
        <time>2017-12-23T11:35:50Z</time>
      </trkpt>
      <trkpt lat="46.0381" lon="4.7671">
        <ele>205</ele>
        <time>2017-12-23T11:35:51Z</time>
      </trkpt>
      <trkpt lat="46.03801" lon="4.76711">
        <ele>205</ele>
        <time>2017-12-23T11:35:53Z</time>
      </trkpt>
      <trkpt lat="46.03796" lon="4.76712">
        <ele>205</ele>
        <time>2017-12-23T11:35:54Z</time>
      </trkpt>
      <trkpt lat="46.03787" lon="4.76711">
        <ele>205</ele>
        <time>2017-12-23T11:35:56Z</time>
      </trkpt>
      <trkpt lat="46.03783" lon="4.76711">
        <ele>205</ele>
        <time>2017-12-23T11:35:57Z</time>
      </trkpt>
      <trkpt lat="46.03778" lon="4.76712">
        <ele>205</ele>
        <time>2017-12-23T11:35:58Z</time>
      </trkpt>
      <trkpt lat="46.03771" lon="4.76708">
        <ele>205</ele>
        <time>2017-12-23T11:35:59Z</time>
      </trkpt>
      <trkpt lat="46.03767" lon="4.76705">
        <ele>205</ele>
        <time>2017-12-23T11:36:00Z</time>
      </trkpt>
      <trkpt lat="46.03761" lon="4.76702">
        <ele>205</ele>
        <time>2017-12-23T11:36:01Z</time>
      </trkpt>
      <trkpt lat="46.03755" lon="4.767">
        <ele>205</ele>
        <time>2017-12-23T11:36:02Z</time>
      </trkpt>
      <trkpt lat="46.0375" lon="4.76699">
        <ele>205</ele>
        <time>2017-12-23T11:36:03Z</time>
      </trkpt>
      <trkpt lat="46.03746" lon="4.76699">
        <ele>205</ele>
        <time>2017-12-23T11:36:04Z</time>
      </trkpt>
      <trkpt lat="46.03739" lon="4.76698">
        <ele>205</ele>
        <time>2017-12-23T11:36:05Z</time>
      </trkpt>
      <trkpt lat="46.03733" lon="4.76696">
        <ele>205</ele>
        <time>2017-12-23T11:36:06Z</time>
      </trkpt>
      <trkpt lat="46.03727" lon="4.76695">
        <ele>205</ele>
        <time>2017-12-23T11:36:07Z</time>
      </trkpt>
      <trkpt lat="46.0372" lon="4.76692">
        <ele>205</ele>
        <time>2017-12-23T11:36:08Z</time>
      </trkpt>
      <trkpt lat="46.03715" lon="4.7669">
        <ele>205</ele>
        <time>2017-12-23T11:36:09Z</time>
      </trkpt>
      <trkpt lat="46.0371" lon="4.76689">
        <ele>205</ele>
        <time>2017-12-23T11:36:10Z</time>
      </trkpt>
      <trkpt lat="46.03706" lon="4.76689">
        <ele>205</ele>
        <time>2017-12-23T11:36:11Z</time>
      </trkpt>
      <trkpt lat="46.03699" lon="4.76681">
        <ele>205</ele>
        <time>2017-12-23T11:36:13Z</time>
      </trkpt>
      <trkpt lat="46.03694" lon="4.76675">
        <ele>205</ele>
        <time>2017-12-23T11:36:14Z</time>
      </trkpt>
      <trkpt lat="46.03689" lon="4.76667">
        <ele>205</ele>
        <time>2017-12-23T11:36:15Z</time>
      </trkpt>
      <trkpt lat="46.03686" lon="4.76659">
        <ele>204</ele>
        <time>2017-12-23T11:36:16Z</time>
      </trkpt>
      <trkpt lat="46.03684" lon="4.76651">
        <ele>204</ele>
        <time>2017-12-23T11:36:17Z</time>
      </trkpt>
      <trkpt lat="46.03683" lon="4.76642">
        <ele>204</ele>
        <time>2017-12-23T11:36:18Z</time>
      </trkpt>
      <trkpt lat="46.03682" lon="4.76633">
        <ele>203</ele>
        <time>2017-12-23T11:36:19Z</time>
      </trkpt>
      <trkpt lat="46.03681" lon="4.76624">
        <ele>203</ele>
        <time>2017-12-23T11:36:20Z</time>
      </trkpt>
      <trkpt lat="46.03679" lon="4.76615">
        <ele>203</ele>
        <time>2017-12-23T11:36:21Z</time>
      </trkpt>
      <trkpt lat="46.03676" lon="4.76608">
        <ele>203</ele>
        <time>2017-12-23T11:36:22Z</time>
      </trkpt>
      <trkpt lat="46.03671" lon="4.76601">
        <ele>203</ele>
        <time>2017-12-23T11:36:23Z</time>
      </trkpt>
      <trkpt lat="46.03667" lon="4.76595">
        <ele>203</ele>
        <time>2017-12-23T11:36:24Z</time>
      </trkpt>
      <trkpt lat="46.03663" lon="4.76591">
        <ele>202</ele>
        <time>2017-12-23T11:36:25Z</time>
      </trkpt>
      <trkpt lat="46.03658" lon="4.76583">
        <ele>201</ele>
        <time>2017-12-23T11:36:26Z</time>
      </trkpt>
      <trkpt lat="46.03652" lon="4.76576">
        <ele>201</ele>
        <time>2017-12-23T11:36:27Z</time>
      </trkpt>
      <trkpt lat="46.03648" lon="4.76568">
        <ele>201</ele>
        <time>2017-12-23T11:36:28Z</time>
      </trkpt>
      <trkpt lat="46.03643" lon="4.76561">
        <ele>201</ele>
        <time>2017-12-23T11:36:29Z</time>
      </trkpt>
      <trkpt lat="46.03639" lon="4.76553">
        <ele>200</ele>
        <time>2017-12-23T11:36:30Z</time>
      </trkpt>
      <trkpt lat="46.03636" lon="4.76544">
        <ele>200</ele>
        <time>2017-12-23T11:36:31Z</time>
      </trkpt>
      <trkpt lat="46.03634" lon="4.76535">
        <ele>200</ele>
        <time>2017-12-23T11:36:32Z</time>
      </trkpt>
      <trkpt lat="46.03631" lon="4.76526">
        <ele>200</ele>
        <time>2017-12-23T11:36:33Z</time>
      </trkpt>
      <trkpt lat="46.03628" lon="4.76518">
        <ele>200</ele>
        <time>2017-12-23T11:36:34Z</time>
      </trkpt>
      <trkpt lat="46.03623" lon="4.76509">
        <ele>200</ele>
        <time>2017-12-23T11:36:35Z</time>
      </trkpt>
      <trkpt lat="46.03619" lon="4.76503">
        <ele>200</ele>
        <time>2017-12-23T11:36:36Z</time>
      </trkpt>
      <trkpt lat="46.03615" lon="4.76496">
        <ele>199</ele>
        <time>2017-12-23T11:36:37Z</time>
      </trkpt>
      <trkpt lat="46.03609" lon="4.76491">
        <ele>199</ele>
        <time>2017-12-23T11:36:38Z</time>
      </trkpt>
      <trkpt lat="46.03608" lon="4.76482">
        <ele>199</ele>
        <time>2017-12-23T11:36:39Z</time>
      </trkpt>
      <trkpt lat="46.03609" lon="4.76473">
        <ele>199</ele>
        <time>2017-12-23T11:36:40Z</time>
      </trkpt>
      <trkpt lat="46.03606" lon="4.76467">
        <ele>199</ele>
        <time>2017-12-23T11:36:41Z</time>
      </trkpt>
      <trkpt lat="46.03605" lon="4.76459">
        <ele>199</ele>
        <time>2017-12-23T11:36:42Z</time>
      </trkpt>
      <trkpt lat="46.03605" lon="4.76452">
        <ele>199</ele>
        <time>2017-12-23T11:36:43Z</time>
      </trkpt>
      <trkpt lat="46.03604" lon="4.76442">
        <ele>199</ele>
        <time>2017-12-23T11:36:44Z</time>
      </trkpt>
      <trkpt lat="46.03605" lon="4.76434">
        <ele>199</ele>
        <time>2017-12-23T11:36:45Z</time>
      </trkpt>
      <trkpt lat="46.03606" lon="4.76425">
        <ele>199</ele>
        <time>2017-12-23T11:36:46Z</time>
      </trkpt>
      <trkpt lat="46.03606" lon="4.76417">
        <ele>199</ele>
        <time>2017-12-23T11:36:47Z</time>
      </trkpt>
      <trkpt lat="46.03607" lon="4.76408">
        <ele>198</ele>
        <time>2017-12-23T11:36:48Z</time>
      </trkpt>
      <trkpt lat="46.03608" lon="4.76397">
        <ele>197</ele>
        <time>2017-12-23T11:36:49Z</time>
      </trkpt>
      <trkpt lat="46.03609" lon="4.76387">
        <ele>197</ele>
        <time>2017-12-23T11:36:50Z</time>
      </trkpt>
      <trkpt lat="46.03608" lon="4.76377">
        <ele>197</ele>
        <time>2017-12-23T11:36:51Z</time>
      </trkpt>
      <trkpt lat="46.03609" lon="4.76367">
        <ele>197</ele>
        <time>2017-12-23T11:36:52Z</time>
      </trkpt>
      <trkpt lat="46.0361" lon="4.76356">
        <ele>196</ele>
        <time>2017-12-23T11:36:53Z</time>
      </trkpt>
      <trkpt lat="46.0361" lon="4.76347">
        <ele>196</ele>
        <time>2017-12-23T11:36:54Z</time>
      </trkpt>
      <trkpt lat="46.0361" lon="4.76338">
        <ele>196</ele>
        <time>2017-12-23T11:36:55Z</time>
      </trkpt>
      <trkpt lat="46.03611" lon="4.7633">
        <ele>195</ele>
        <time>2017-12-23T11:36:56Z</time>
      </trkpt>
      <trkpt lat="46.03612" lon="4.7632">
        <ele>195</ele>
        <time>2017-12-23T11:36:57Z</time>
      </trkpt>
      <trkpt lat="46.03614" lon="4.76311">
        <ele>195</ele>
        <time>2017-12-23T11:36:58Z</time>
      </trkpt>
      <trkpt lat="46.03615" lon="4.76301">
        <ele>195</ele>
        <time>2017-12-23T11:36:59Z</time>
      </trkpt>
      <trkpt lat="46.03616" lon="4.76292">
        <ele>195</ele>
        <time>2017-12-23T11:37:00Z</time>
      </trkpt>
      <trkpt lat="46.03616" lon="4.76284">
        <ele>194</ele>
        <time>2017-12-23T11:37:01Z</time>
      </trkpt>
      <trkpt lat="46.03618" lon="4.76277">
        <ele>194</ele>
        <time>2017-12-23T11:37:02Z</time>
      </trkpt>
      <trkpt lat="46.03618" lon="4.76269">
        <ele>194</ele>
        <time>2017-12-23T11:37:03Z</time>
      </trkpt>
      <trkpt lat="46.0362" lon="4.7626">
        <ele>194</ele>
        <time>2017-12-23T11:37:04Z</time>
      </trkpt>
      <trkpt lat="46.0362" lon="4.76251">
        <ele>194</ele>
        <time>2017-12-23T11:37:05Z</time>
      </trkpt>
      <trkpt lat="46.03622" lon="4.76242">
        <ele>193</ele>
        <time>2017-12-23T11:37:06Z</time>
      </trkpt>
      <trkpt lat="46.03623" lon="4.76233">
        <ele>193</ele>
        <time>2017-12-23T11:37:07Z</time>
      </trkpt>
      <trkpt lat="46.03624" lon="4.76225">
        <ele>193</ele>
        <time>2017-12-23T11:37:08Z</time>
      </trkpt>
      <trkpt lat="46.03625" lon="4.76217">
        <ele>193</ele>
        <time>2017-12-23T11:37:09Z</time>
      </trkpt>
      <trkpt lat="46.03627" lon="4.7621">
        <ele>193</ele>
        <time>2017-12-23T11:37:10Z</time>
      </trkpt>
      <trkpt lat="46.03627" lon="4.76203">
        <ele>193</ele>
        <time>2017-12-23T11:37:11Z</time>
      </trkpt>
      <trkpt lat="46.03627" lon="4.76195">
        <ele>193</ele>
        <time>2017-12-23T11:37:12Z</time>
      </trkpt>
      <trkpt lat="46.03628" lon="4.76185">
        <ele>193</ele>
        <time>2017-12-23T11:37:13Z</time>
      </trkpt>
      <trkpt lat="46.03629" lon="4.76177">
        <ele>193</ele>
        <time>2017-12-23T11:37:14Z</time>
      </trkpt>
      <trkpt lat="46.03629" lon="4.76168">
        <ele>192</ele>
        <time>2017-12-23T11:37:15Z</time>
      </trkpt>
      <trkpt lat="46.03631" lon="4.76161">
        <ele>192</ele>
        <time>2017-12-23T11:37:16Z</time>
      </trkpt>
      <trkpt lat="46.03631" lon="4.76154">
        <ele>192</ele>
        <time>2017-12-23T11:37:17Z</time>
      </trkpt>
      <trkpt lat="46.03631" lon="4.76148">
        <ele>192</ele>
        <time>2017-12-23T11:37:18Z</time>
      </trkpt>
      <trkpt lat="46.03632" lon="4.76135">
        <ele>192</ele>
        <time>2017-12-23T11:37:20Z</time>
      </trkpt>
      <trkpt lat="46.03632" lon="4.76128">
        <ele>192</ele>
        <time>2017-12-23T11:37:21Z</time>
      </trkpt>
      <trkpt lat="46.03632" lon="4.7612">
        <ele>192</ele>
        <time>2017-12-23T11:37:22Z</time>
      </trkpt>
      <trkpt lat="46.03631" lon="4.76111">
        <ele>192</ele>
        <time>2017-12-23T11:37:23Z</time>
      </trkpt>
      <trkpt lat="46.03631" lon="4.761">
        <ele>192</ele>
        <time>2017-12-23T11:37:24Z</time>
      </trkpt>
      <trkpt lat="46.03631" lon="4.76092">
        <ele>192</ele>
        <time>2017-12-23T11:37:25Z</time>
      </trkpt>
      <trkpt lat="46.03629" lon="4.76084">
        <ele>192</ele>
        <time>2017-12-23T11:37:26Z</time>
      </trkpt>
      <trkpt lat="46.03627" lon="4.76076">
        <ele>191</ele>
        <time>2017-12-23T11:37:27Z</time>
      </trkpt>
      <trkpt lat="46.03625" lon="4.76068">
        <ele>191</ele>
        <time>2017-12-23T11:37:28Z</time>
      </trkpt>
      <trkpt lat="46.03623" lon="4.7606">
        <ele>191</ele>
        <time>2017-12-23T11:37:29Z</time>
      </trkpt>
      <trkpt lat="46.03619" lon="4.76049">
        <ele>191</ele>
        <time>2017-12-23T11:37:31Z</time>
      </trkpt>
      <trkpt lat="46.03616" lon="4.76043">
        <ele>191</ele>
        <time>2017-12-23T11:37:32Z</time>
      </trkpt>
      <trkpt lat="46.03615" lon="4.76034">
        <ele>191</ele>
        <time>2017-12-23T11:37:33Z</time>
      </trkpt>
      <trkpt lat="46.03613" lon="4.76026">
        <ele>191</ele>
        <time>2017-12-23T11:37:34Z</time>
      </trkpt>
      <trkpt lat="46.0361" lon="4.7602">
        <ele>191</ele>
        <time>2017-12-23T11:37:35Z</time>
      </trkpt>
      <trkpt lat="46.03607" lon="4.76013">
        <ele>191</ele>
        <time>2017-12-23T11:37:36Z</time>
      </trkpt>
      <trkpt lat="46.03605" lon="4.76005">
        <ele>191</ele>
        <time>2017-12-23T11:37:37Z</time>
      </trkpt>
      <trkpt lat="46.03602" lon="4.75997">
        <ele>190</ele>
        <time>2017-12-23T11:37:38Z</time>
      </trkpt>
      <trkpt lat="46.03599" lon="4.75989">
        <ele>190</ele>
        <time>2017-12-23T11:37:39Z</time>
      </trkpt>
      <trkpt lat="46.03597" lon="4.75982">
        <ele>190</ele>
        <time>2017-12-23T11:37:40Z</time>
      </trkpt>
      <trkpt lat="46.03593" lon="4.75975">
        <ele>190</ele>
        <time>2017-12-23T11:37:41Z</time>
      </trkpt>
      <trkpt lat="46.0359" lon="4.75968">
        <ele>190</ele>
        <time>2017-12-23T11:37:42Z</time>
      </trkpt>
      <trkpt lat="46.03586" lon="4.75961">
        <ele>190</ele>
        <time>2017-12-23T11:37:43Z</time>
      </trkpt>
      <trkpt lat="46.03583" lon="4.75954">
        <ele>190</ele>
        <time>2017-12-23T11:37:44Z</time>
      </trkpt>
      <trkpt lat="46.0358" lon="4.75947">
        <ele>190</ele>
        <time>2017-12-23T11:37:45Z</time>
      </trkpt>
      <trkpt lat="46.03577" lon="4.75941">
        <ele>190</ele>
        <time>2017-12-23T11:37:46Z</time>
      </trkpt>
      <trkpt lat="46.03574" lon="4.75933">
        <ele>190</ele>
        <time>2017-12-23T11:37:47Z</time>
      </trkpt>
      <trkpt lat="46.03571" lon="4.75927">
        <ele>190</ele>
        <time>2017-12-23T11:37:48Z</time>
      </trkpt>
      <trkpt lat="46.03568" lon="4.7592">
        <ele>189</ele>
        <time>2017-12-23T11:37:49Z</time>
      </trkpt>
      <trkpt lat="46.03565" lon="4.75913">
        <ele>189</ele>
        <time>2017-12-23T11:37:50Z</time>
      </trkpt>
      <trkpt lat="46.03562" lon="4.75907">
        <ele>189</ele>
        <time>2017-12-23T11:37:51Z</time>
      </trkpt>
      <trkpt lat="46.03559" lon="4.75901">
        <ele>189</ele>
        <time>2017-12-23T11:37:52Z</time>
      </trkpt>
      <trkpt lat="46.03555" lon="4.75893">
        <ele>189</ele>
        <time>2017-12-23T11:37:53Z</time>
      </trkpt>
      <trkpt lat="46.03552" lon="4.75886">
        <ele>189</ele>
        <time>2017-12-23T11:37:54Z</time>
      </trkpt>
      <trkpt lat="46.0355" lon="4.75879">
        <ele>189</ele>
        <time>2017-12-23T11:37:55Z</time>
      </trkpt>
      <trkpt lat="46.03546" lon="4.75873">
        <ele>189</ele>
        <time>2017-12-23T11:37:56Z</time>
      </trkpt>
      <trkpt lat="46.03543" lon="4.75867">
        <ele>189</ele>
        <time>2017-12-23T11:37:57Z</time>
      </trkpt>
      <trkpt lat="46.03539" lon="4.75859">
        <ele>190</ele>
        <time>2017-12-23T11:37:58Z</time>
      </trkpt>
      <trkpt lat="46.03536" lon="4.75852">
        <ele>190</ele>
        <time>2017-12-23T11:37:59Z</time>
      </trkpt>
      <trkpt lat="46.03534" lon="4.75845">
        <ele>190</ele>
        <time>2017-12-23T11:38:00Z</time>
      </trkpt>
      <trkpt lat="46.03531" lon="4.75837">
        <ele>190</ele>
        <time>2017-12-23T11:38:01Z</time>
      </trkpt>
      <trkpt lat="46.03527" lon="4.7583">
        <ele>189</ele>
        <time>2017-12-23T11:38:02Z</time>
      </trkpt>
      <trkpt lat="46.03524" lon="4.75823">
        <ele>189</ele>
        <time>2017-12-23T11:38:03Z</time>
      </trkpt>
      <trkpt lat="46.0352" lon="4.75816">
        <ele>189</ele>
        <time>2017-12-23T11:38:04Z</time>
      </trkpt>
      <trkpt lat="46.03517" lon="4.7581">
        <ele>189</ele>
        <time>2017-12-23T11:38:05Z</time>
      </trkpt>
      <trkpt lat="46.03515" lon="4.75804">
        <ele>189</ele>
        <time>2017-12-23T11:38:06Z</time>
      </trkpt>
      <trkpt lat="46.03511" lon="4.75793">
        <ele>189</ele>
        <time>2017-12-23T11:38:08Z</time>
      </trkpt>
      <trkpt lat="46.03508" lon="4.75787">
        <ele>189</ele>
        <time>2017-12-23T11:38:09Z</time>
      </trkpt>
      <trkpt lat="46.03505" lon="4.75781">
        <ele>189</ele>
        <time>2017-12-23T11:38:10Z</time>
      </trkpt>
      <trkpt lat="46.03503" lon="4.75774">
        <ele>189</ele>
        <time>2017-12-23T11:38:11Z</time>
      </trkpt>
      <trkpt lat="46.035" lon="4.75767">
        <ele>189</ele>
        <time>2017-12-23T11:38:12Z</time>
      </trkpt>
      <trkpt lat="46.03496" lon="4.7576">
        <ele>189</ele>
        <time>2017-12-23T11:38:13Z</time>
      </trkpt>
      <trkpt lat="46.03494" lon="4.75753">
        <ele>189</ele>
        <time>2017-12-23T11:38:14Z</time>
      </trkpt>
      <trkpt lat="46.03491" lon="4.75747">
        <ele>189</ele>
        <time>2017-12-23T11:38:15Z</time>
      </trkpt>
      <trkpt lat="46.03489" lon="4.75741">
        <ele>189</ele>
        <time>2017-12-23T11:38:16Z</time>
      </trkpt>
      <trkpt lat="46.03488" lon="4.75733">
        <ele>189</ele>
        <time>2017-12-23T11:38:17Z</time>
      </trkpt>
      <trkpt lat="46.03482" lon="4.75724">
        <ele>189</ele>
        <time>2017-12-23T11:38:19Z</time>
      </trkpt>
      <trkpt lat="46.03479" lon="4.75716">
        <ele>189</ele>
        <time>2017-12-23T11:38:20Z</time>
      </trkpt>
      <trkpt lat="46.03477" lon="4.75712">
        <ele>189</ele>
        <time>2017-12-23T11:38:21Z</time>
      </trkpt>
      <trkpt lat="46.03474" lon="4.75706">
        <ele>189</ele>
        <time>2017-12-23T11:38:22Z</time>
      </trkpt>
      <trkpt lat="46.03471" lon="4.757">
        <ele>189</ele>
        <time>2017-12-23T11:38:23Z</time>
      </trkpt>
      <trkpt lat="46.03469" lon="4.75694">
        <ele>189</ele>
        <time>2017-12-23T11:38:24Z</time>
      </trkpt>
      <trkpt lat="46.03466" lon="4.75685">
        <ele>189</ele>
        <time>2017-12-23T11:38:25Z</time>
      </trkpt>
      <trkpt lat="46.03463" lon="4.75675">
        <ele>189</ele>
        <time>2017-12-23T11:38:26Z</time>
      </trkpt>
      <trkpt lat="46.03459" lon="4.75669">
        <ele>189</ele>
        <time>2017-12-23T11:38:27Z</time>
      </trkpt>
      <trkpt lat="46.03457" lon="4.75662">
        <ele>188</ele>
        <time>2017-12-23T11:38:28Z</time>
      </trkpt>
      <trkpt lat="46.03455" lon="4.75655">
        <ele>188</ele>
        <time>2017-12-23T11:38:29Z</time>
      </trkpt>
      <trkpt lat="46.03451" lon="4.75649">
        <ele>188</ele>
        <time>2017-12-23T11:38:30Z</time>
      </trkpt>
      <trkpt lat="46.03447" lon="4.75638">
        <ele>188</ele>
        <time>2017-12-23T11:38:32Z</time>
      </trkpt>
      <trkpt lat="46.03445" lon="4.75632">
        <ele>188</ele>
        <time>2017-12-23T11:38:33Z</time>
      </trkpt>
      <trkpt lat="46.03439" lon="4.75624">
        <ele>188</ele>
        <time>2017-12-23T11:38:37Z</time>
      </trkpt>
      <trkpt lat="46.03437" lon="4.75621">
        <ele>188</ele>
        <time>2017-12-23T11:38:38Z</time>
      </trkpt>
      <trkpt lat="46.03432" lon="4.75619">
        <ele>188</ele>
        <time>2017-12-23T11:38:40Z</time>
      </trkpt>
      <trkpt lat="46.03428" lon="4.75618">
        <ele>188</ele>
        <time>2017-12-23T11:38:41Z</time>
      </trkpt>
      <trkpt lat="46.03421" lon="4.7562">
        <ele>188</ele>
        <time>2017-12-23T11:38:43Z</time>
      </trkpt>
      <trkpt lat="46.03417" lon="4.75621">
        <ele>188</ele>
        <time>2017-12-23T11:38:44Z</time>
      </trkpt>
      <trkpt lat="46.03409" lon="4.75622">
        <ele>188</ele>
        <time>2017-12-23T11:38:46Z</time>
      </trkpt>
      <trkpt lat="46.03404" lon="4.75624">
        <ele>188</ele>
        <time>2017-12-23T11:38:47Z</time>
      </trkpt>
      <trkpt lat="46.03399" lon="4.75624">
        <ele>188</ele>
        <time>2017-12-23T11:38:48Z</time>
      </trkpt>
      <trkpt lat="46.03394" lon="4.75625">
        <ele>188</ele>
        <time>2017-12-23T11:38:49Z</time>
      </trkpt>
      <trkpt lat="46.03389" lon="4.75626">
        <ele>188</ele>
        <time>2017-12-23T11:38:50Z</time>
      </trkpt>
      <trkpt lat="46.03382" lon="4.75626">
        <ele>188</ele>
        <time>2017-12-23T11:38:51Z</time>
      </trkpt>
      <trkpt lat="46.03378" lon="4.75628">
        <ele>188</ele>
        <time>2017-12-23T11:38:52Z</time>
      </trkpt>
      <trkpt lat="46.03372" lon="4.75628">
        <ele>188</ele>
        <time>2017-12-23T11:38:53Z</time>
      </trkpt>
      <trkpt lat="46.03365" lon="4.75629">
        <ele>188</ele>
        <time>2017-12-23T11:38:54Z</time>
      </trkpt>
      <trkpt lat="46.0336" lon="4.7563">
        <ele>188</ele>
        <time>2017-12-23T11:38:55Z</time>
      </trkpt>
      <trkpt lat="46.03355" lon="4.75631">
        <ele>188</ele>
        <time>2017-12-23T11:38:56Z</time>
      </trkpt>
      <trkpt lat="46.03349" lon="4.75629">
        <ele>188</ele>
        <time>2017-12-23T11:38:57Z</time>
      </trkpt>
      <trkpt lat="46.03344" lon="4.75631">
        <ele>188</ele>
        <time>2017-12-23T11:38:58Z</time>
      </trkpt>
      <trkpt lat="46.03339" lon="4.75631">
        <ele>188</ele>
        <time>2017-12-23T11:38:59Z</time>
      </trkpt>
      <trkpt lat="46.03334" lon="4.75631">
        <ele>188</ele>
        <time>2017-12-23T11:39:00Z</time>
      </trkpt>
      <trkpt lat="46.03328" lon="4.75631">
        <ele>189</ele>
        <time>2017-12-23T11:39:01Z</time>
      </trkpt>
      <trkpt lat="46.03323" lon="4.75632">
        <ele>189</ele>
        <time>2017-12-23T11:39:02Z</time>
      </trkpt>
      <trkpt lat="46.03317" lon="4.75634">
        <ele>189</ele>
        <time>2017-12-23T11:39:03Z</time>
      </trkpt>
      <trkpt lat="46.03311" lon="4.75635">
        <ele>189</ele>
        <time>2017-12-23T11:39:04Z</time>
      </trkpt>
      <trkpt lat="46.03305" lon="4.75636">
        <ele>189</ele>
        <time>2017-12-23T11:39:05Z</time>
      </trkpt>
      <trkpt lat="46.033" lon="4.75639">
        <ele>189</ele>
        <time>2017-12-23T11:39:06Z</time>
      </trkpt>
      <trkpt lat="46.03293" lon="4.75643">
        <ele>190</ele>
        <time>2017-12-23T11:39:07Z</time>
      </trkpt>
      <trkpt lat="46.03287" lon="4.75647">
        <ele>190</ele>
        <time>2017-12-23T11:39:08Z</time>
      </trkpt>
      <trkpt lat="46.03282" lon="4.7565">
        <ele>190</ele>
        <time>2017-12-23T11:39:09Z</time>
      </trkpt>
      <trkpt lat="46.03274" lon="4.75652">
        <ele>191</ele>
        <time>2017-12-23T11:39:10Z</time>
      </trkpt>
      <trkpt lat="46.03268" lon="4.75655">
        <ele>192</ele>
        <time>2017-12-23T11:39:11Z</time>
      </trkpt>
      <trkpt lat="46.03262" lon="4.75656">
        <ele>192</ele>
        <time>2017-12-23T11:39:12Z</time>
      </trkpt>
      <trkpt lat="46.03256" lon="4.75657">
        <ele>193</ele>
        <time>2017-12-23T11:39:13Z</time>
      </trkpt>
      <trkpt lat="46.03252" lon="4.75659">
        <ele>193</ele>
        <time>2017-12-23T11:39:14Z</time>
      </trkpt>
      <trkpt lat="46.03247" lon="4.75661">
        <ele>193</ele>
        <time>2017-12-23T11:39:15Z</time>
      </trkpt>
      <trkpt lat="46.03242" lon="4.75662">
        <ele>193</ele>
        <time>2017-12-23T11:39:16Z</time>
      </trkpt>
      <trkpt lat="46.03231" lon="4.75664">
        <ele>192</ele>
        <time>2017-12-23T11:39:17Z</time>
      </trkpt>
      <trkpt lat="46.03223" lon="4.75666">
        <ele>191</ele>
        <time>2017-12-23T11:39:19Z</time>
      </trkpt>
      <trkpt lat="46.03222" lon="4.75669">
        <ele>194</ele>
        <time>2017-12-23T11:39:20Z</time>
      </trkpt>
      <trkpt lat="46.03215" lon="4.75666">
        <ele>190</ele>
        <time>2017-12-23T11:39:21Z</time>
      </trkpt>
      <trkpt lat="46.03209" lon="4.75667">
        <ele>193</ele>
        <time>2017-12-23T11:39:22Z</time>
      </trkpt>
      <trkpt lat="46.03204" lon="4.75668">
        <ele>192</ele>
        <time>2017-12-23T11:39:23Z</time>
      </trkpt>
      <trkpt lat="46.03197" lon="4.75667">
        <ele>192</ele>
        <time>2017-12-23T11:39:24Z</time>
      </trkpt>
      <trkpt lat="46.03189" lon="4.75668">
        <ele>191</ele>
        <time>2017-12-23T11:39:26Z</time>
      </trkpt>
      <trkpt lat="46.03184" lon="4.75669">
        <ele>191</ele>
        <time>2017-12-23T11:39:27Z</time>
      </trkpt>
      <trkpt lat="46.03179" lon="4.7567">
        <ele>190</ele>
        <time>2017-12-23T11:39:28Z</time>
      </trkpt>
      <trkpt lat="46.03174" lon="4.75672">
        <ele>190</ele>
        <time>2017-12-23T11:39:29Z</time>
      </trkpt>
      <trkpt lat="46.03162" lon="4.75671">
        <ele>188</ele>
        <time>2017-12-23T11:39:30Z</time>
      </trkpt>
      <trkpt lat="46.03154" lon="4.75672">
        <ele>187</ele>
        <time>2017-12-23T11:39:31Z</time>
      </trkpt>
      <trkpt lat="46.03145" lon="4.75671">
        <ele>187</ele>
        <time>2017-12-23T11:39:32Z</time>
      </trkpt>
      <trkpt lat="46.03138" lon="4.75671">
        <ele>187</ele>
        <time>2017-12-23T11:39:33Z</time>
      </trkpt>
      <trkpt lat="46.03132" lon="4.75671">
        <ele>187</ele>
        <time>2017-12-23T11:39:34Z</time>
      </trkpt>
      <trkpt lat="46.03123" lon="4.75673">
        <ele>186</ele>
        <time>2017-12-23T11:39:35Z</time>
      </trkpt>
      <trkpt lat="46.03117" lon="4.75673">
        <ele>186</ele>
        <time>2017-12-23T11:39:36Z</time>
      </trkpt>
      <trkpt lat="46.03111" lon="4.75675">
        <ele>186</ele>
        <time>2017-12-23T11:39:37Z</time>
      </trkpt>
      <trkpt lat="46.03105" lon="4.75675">
        <ele>186</ele>
        <time>2017-12-23T11:39:38Z</time>
      </trkpt>
      <trkpt lat="46.03099" lon="4.75675">
        <ele>185</ele>
        <time>2017-12-23T11:39:39Z</time>
      </trkpt>
      <trkpt lat="46.03092" lon="4.75676">
        <ele>185</ele>
        <time>2017-12-23T11:39:40Z</time>
      </trkpt>
      <trkpt lat="46.03083" lon="4.75676">
        <ele>184</ele>
        <time>2017-12-23T11:39:41Z</time>
      </trkpt>
      <trkpt lat="46.03076" lon="4.75678">
        <ele>184</ele>
        <time>2017-12-23T11:39:42Z</time>
      </trkpt>
      <trkpt lat="46.0307" lon="4.75678">
        <ele>184</ele>
        <time>2017-12-23T11:39:43Z</time>
      </trkpt>
      <trkpt lat="46.03064" lon="4.75679">
        <ele>184</ele>
        <time>2017-12-23T11:39:44Z</time>
      </trkpt>
      <trkpt lat="46.03059" lon="4.75682">
        <ele>184</ele>
        <time>2017-12-23T11:39:45Z</time>
      </trkpt>
      <trkpt lat="46.03053" lon="4.75684">
        <ele>184</ele>
        <time>2017-12-23T11:39:46Z</time>
      </trkpt>
      <trkpt lat="46.03048" lon="4.75685">
        <ele>184</ele>
        <time>2017-12-23T11:39:47Z</time>
      </trkpt>
      <trkpt lat="46.03042" lon="4.75686">
        <ele>184</ele>
        <time>2017-12-23T11:39:48Z</time>
      </trkpt>
      <trkpt lat="46.03036" lon="4.7569">
        <ele>184</ele>
        <time>2017-12-23T11:39:49Z</time>
      </trkpt>
      <trkpt lat="46.0303" lon="4.75693">
        <ele>184</ele>
        <time>2017-12-23T11:39:50Z</time>
      </trkpt>
      <trkpt lat="46.03024" lon="4.75696">
        <ele>183</ele>
        <time>2017-12-23T11:39:51Z</time>
      </trkpt>
      <trkpt lat="46.03017" lon="4.75697">
        <ele>183</ele>
        <time>2017-12-23T11:39:52Z</time>
      </trkpt>
      <trkpt lat="46.03011" lon="4.757">
        <ele>183</ele>
        <time>2017-12-23T11:39:53Z</time>
      </trkpt>
      <trkpt lat="46.03006" lon="4.75703">
        <ele>184</ele>
        <time>2017-12-23T11:39:54Z</time>
      </trkpt>
      <trkpt lat="46.03" lon="4.75705">
        <ele>184</ele>
        <time>2017-12-23T11:39:55Z</time>
      </trkpt>
      <trkpt lat="46.02994" lon="4.75708">
        <ele>183</ele>
        <time>2017-12-23T11:39:56Z</time>
      </trkpt>
      <trkpt lat="46.02988" lon="4.7571">
        <ele>183</ele>
        <time>2017-12-23T11:39:57Z</time>
      </trkpt>
      <trkpt lat="46.02982" lon="4.75712">
        <ele>183</ele>
        <time>2017-12-23T11:39:58Z</time>
      </trkpt>
      <trkpt lat="46.02976" lon="4.75712">
        <ele>183</ele>
        <time>2017-12-23T11:39:59Z</time>
      </trkpt>
      <trkpt lat="46.02971" lon="4.75713">
        <ele>183</ele>
        <time>2017-12-23T11:40:00Z</time>
      </trkpt>
      <trkpt lat="46.02965" lon="4.75715">
        <ele>183</ele>
        <time>2017-12-23T11:40:01Z</time>
      </trkpt>
      <trkpt lat="46.02959" lon="4.75717">
        <ele>183</ele>
        <time>2017-12-23T11:40:02Z</time>
      </trkpt>
      <trkpt lat="46.02953" lon="4.75717">
        <ele>183</ele>
        <time>2017-12-23T11:40:03Z</time>
      </trkpt>
      <trkpt lat="46.02948" lon="4.75719">
        <ele>183</ele>
        <time>2017-12-23T11:40:04Z</time>
      </trkpt>
      <trkpt lat="46.02942" lon="4.75719">
        <ele>183</ele>
        <time>2017-12-23T11:40:05Z</time>
      </trkpt>
      <trkpt lat="46.02938" lon="4.75722">
        <ele>183</ele>
        <time>2017-12-23T11:40:06Z</time>
      </trkpt>
      <trkpt lat="46.02931" lon="4.75722">
        <ele>183</ele>
        <time>2017-12-23T11:40:07Z</time>
      </trkpt>
      <trkpt lat="46.02925" lon="4.75723">
        <ele>183</ele>
        <time>2017-12-23T11:40:08Z</time>
      </trkpt>
      <trkpt lat="46.02918" lon="4.75724">
        <ele>183</ele>
        <time>2017-12-23T11:40:09Z</time>
      </trkpt>
      <trkpt lat="46.02912" lon="4.75724">
        <ele>183</ele>
        <time>2017-12-23T11:40:10Z</time>
      </trkpt>
      <trkpt lat="46.02906" lon="4.75724">
        <ele>183</ele>
        <time>2017-12-23T11:40:11Z</time>
      </trkpt>
      <trkpt lat="46.02899" lon="4.75724">
        <ele>183</ele>
        <time>2017-12-23T11:40:12Z</time>
      </trkpt>
      <trkpt lat="46.02893" lon="4.75725">
        <ele>183</ele>
        <time>2017-12-23T11:40:13Z</time>
      </trkpt>
      <trkpt lat="46.02882" lon="4.75728">
        <ele>183</ele>
        <time>2017-12-23T11:40:14Z</time>
      </trkpt>
      <trkpt lat="46.02874" lon="4.75728">
        <ele>183</ele>
        <time>2017-12-23T11:40:15Z</time>
      </trkpt>
      <trkpt lat="46.02868" lon="4.75728">
        <ele>183</ele>
        <time>2017-12-23T11:40:16Z</time>
      </trkpt>
      <trkpt lat="46.02861" lon="4.75728">
        <ele>184</ele>
        <time>2017-12-23T11:40:17Z</time>
      </trkpt>
      <trkpt lat="46.02853" lon="4.75728">
        <ele>184</ele>
        <time>2017-12-23T11:40:18Z</time>
      </trkpt>
      <trkpt lat="46.02846" lon="4.75727">
        <ele>184</ele>
        <time>2017-12-23T11:40:19Z</time>
      </trkpt>
      <trkpt lat="46.0284" lon="4.75726">
        <ele>184</ele>
        <time>2017-12-23T11:40:20Z</time>
      </trkpt>
      <trkpt lat="46.02832" lon="4.75724">
        <ele>184</ele>
        <time>2017-12-23T11:40:21Z</time>
      </trkpt>
      <trkpt lat="46.02825" lon="4.75723">
        <ele>184</ele>
        <time>2017-12-23T11:40:22Z</time>
      </trkpt>
      <trkpt lat="46.02817" lon="4.7572">
        <ele>184</ele>
        <time>2017-12-23T11:40:23Z</time>
      </trkpt>
      <trkpt lat="46.02811" lon="4.7572">
        <ele>183</ele>
        <time>2017-12-23T11:40:24Z</time>
      </trkpt>
      <trkpt lat="46.02804" lon="4.75719">
        <ele>183</ele>
        <time>2017-12-23T11:40:25Z</time>
      </trkpt>
      <trkpt lat="46.02798" lon="4.75716">
        <ele>183</ele>
        <time>2017-12-23T11:40:26Z</time>
      </trkpt>
      <trkpt lat="46.02793" lon="4.75715">
        <ele>183</ele>
        <time>2017-12-23T11:40:27Z</time>
      </trkpt>
      <trkpt lat="46.02785" lon="4.75716">
        <ele>183</ele>
        <time>2017-12-23T11:40:28Z</time>
      </trkpt>
      <trkpt lat="46.02778" lon="4.75716">
        <ele>183</ele>
        <time>2017-12-23T11:40:29Z</time>
      </trkpt>
      <trkpt lat="46.02774" lon="4.75718">
        <ele>183</ele>
        <time>2017-12-23T11:40:30Z</time>
      </trkpt>
      <trkpt lat="46.02766" lon="4.75717">
        <ele>183</ele>
        <time>2017-12-23T11:40:31Z</time>
      </trkpt>
      <trkpt lat="46.02761" lon="4.75716">
        <ele>183</ele>
        <time>2017-12-23T11:40:32Z</time>
      </trkpt>
      <trkpt lat="46.02754" lon="4.75717">
        <ele>183</ele>
        <time>2017-12-23T11:40:33Z</time>
      </trkpt>
      <trkpt lat="46.02749" lon="4.75719">
        <ele>183</ele>
        <time>2017-12-23T11:40:34Z</time>
      </trkpt>
      <trkpt lat="46.0274" lon="4.75719">
        <ele>182</ele>
        <time>2017-12-23T11:40:36Z</time>
      </trkpt>
      <trkpt lat="46.02736" lon="4.7572">
        <ele>182</ele>
        <time>2017-12-23T11:40:37Z</time>
      </trkpt>
      <trkpt lat="46.02732" lon="4.75723">
        <ele>182</ele>
        <time>2017-12-23T11:40:38Z</time>
      </trkpt>
      <trkpt lat="46.02727" lon="4.75724">
        <ele>182</ele>
        <time>2017-12-23T11:40:39Z</time>
      </trkpt>
      <trkpt lat="46.02723" lon="4.75726">
        <ele>182</ele>
        <time>2017-12-23T11:40:40Z</time>
      </trkpt>
      <trkpt lat="46.02717" lon="4.75728">
        <ele>182</ele>
        <time>2017-12-23T11:40:41Z</time>
      </trkpt>
      <trkpt lat="46.0271" lon="4.75732">
        <ele>182</ele>
        <time>2017-12-23T11:40:42Z</time>
      </trkpt>
      <trkpt lat="46.02705" lon="4.75733">
        <ele>182</ele>
        <time>2017-12-23T11:40:43Z</time>
      </trkpt>
      <trkpt lat="46.02699" lon="4.75736">
        <ele>182</ele>
        <time>2017-12-23T11:40:44Z</time>
      </trkpt>
      <trkpt lat="46.02694" lon="4.75739">
        <ele>182</ele>
        <time>2017-12-23T11:40:45Z</time>
      </trkpt>
      <trkpt lat="46.0269" lon="4.75746">
        <ele>182</ele>
        <time>2017-12-23T11:40:46Z</time>
      </trkpt>
      <trkpt lat="46.02684" lon="4.75747">
        <ele>181</ele>
        <time>2017-12-23T11:40:47Z</time>
      </trkpt>
      <trkpt lat="46.02678" lon="4.75747">
        <ele>181</ele>
        <time>2017-12-23T11:40:48Z</time>
      </trkpt>
      <trkpt lat="46.02673" lon="4.7575">
        <ele>182</ele>
        <time>2017-12-23T11:40:49Z</time>
      </trkpt>
      <trkpt lat="46.02667" lon="4.75749">
        <ele>181</ele>
        <time>2017-12-23T11:40:50Z</time>
      </trkpt>
      <trkpt lat="46.02662" lon="4.7575">
        <ele>181</ele>
        <time>2017-12-23T11:40:51Z</time>
      </trkpt>
      <trkpt lat="46.02657" lon="4.75749">
        <ele>181</ele>
        <time>2017-12-23T11:40:52Z</time>
      </trkpt>
      <trkpt lat="46.02652" lon="4.75749">
        <ele>182</ele>
        <time>2017-12-23T11:40:53Z</time>
      </trkpt>
      <trkpt lat="46.02645" lon="4.75748">
        <ele>182</ele>
        <time>2017-12-23T11:40:55Z</time>
      </trkpt>
      <trkpt lat="46.02641" lon="4.75746">
        <ele>182</ele>
        <time>2017-12-23T11:40:56Z</time>
      </trkpt>
      <trkpt lat="46.02632" lon="4.75745">
        <ele>182</ele>
        <time>2017-12-23T11:40:58Z</time>
      </trkpt>
      <trkpt lat="46.02628" lon="4.75746">
        <ele>182</ele>
        <time>2017-12-23T11:40:59Z</time>
      </trkpt>
      <trkpt lat="46.02621" lon="4.75745">
        <ele>182</ele>
        <time>2017-12-23T11:41:01Z</time>
      </trkpt>
      <trkpt lat="46.02618" lon="4.75746">
        <ele>182</ele>
        <time>2017-12-23T11:41:02Z</time>
      </trkpt>
      <trkpt lat="46.02612" lon="4.75746">
        <ele>182</ele>
        <time>2017-12-23T11:41:04Z</time>
      </trkpt>
      <trkpt lat="46.02609" lon="4.75747">
        <ele>182</ele>
        <time>2017-12-23T11:41:05Z</time>
      </trkpt>
      <trkpt lat="46.026" lon="4.75746">
        <ele>183</ele>
        <time>2017-12-23T11:41:08Z</time>
      </trkpt>
      <trkpt lat="46.02598" lon="4.75745">
        <ele>183</ele>
        <time>2017-12-23T11:41:09Z</time>
      </trkpt>
      <trkpt lat="46.02592" lon="4.75744">
        <ele>183</ele>
        <time>2017-12-23T11:41:11Z</time>
      </trkpt>
      <trkpt lat="46.02588" lon="4.75744">
        <ele>183</ele>
        <time>2017-12-23T11:41:12Z</time>
      </trkpt>
      <trkpt lat="46.02582" lon="4.75744">
        <ele>184</ele>
        <time>2017-12-23T11:41:14Z</time>
      </trkpt>
      <trkpt lat="46.02579" lon="4.75744">
        <ele>184</ele>
        <time>2017-12-23T11:41:15Z</time>
      </trkpt>
      <trkpt lat="46.02572" lon="4.75743">
        <ele>184</ele>
        <time>2017-12-23T11:41:17Z</time>
      </trkpt>
      <trkpt lat="46.02569" lon="4.75743">
        <ele>185</ele>
        <time>2017-12-23T11:41:18Z</time>
      </trkpt>
      <trkpt lat="46.0256" lon="4.75743">
        <ele>185</ele>
        <time>2017-12-23T11:41:21Z</time>
      </trkpt>
      <trkpt lat="46.02557" lon="4.75744">
        <ele>185</ele>
        <time>2017-12-23T11:41:22Z</time>
      </trkpt>
      <trkpt lat="46.02551" lon="4.75745">
        <ele>186</ele>
        <time>2017-12-23T11:41:24Z</time>
      </trkpt>
      <trkpt lat="46.02548" lon="4.75745">
        <ele>186</ele>
        <time>2017-12-23T11:41:25Z</time>
      </trkpt>
      <trkpt lat="46.02541" lon="4.75746">
        <ele>186</ele>
        <time>2017-12-23T11:41:27Z</time>
      </trkpt>
      <trkpt lat="46.02538" lon="4.75747">
        <ele>187</ele>
        <time>2017-12-23T11:41:28Z</time>
      </trkpt>
      <trkpt lat="46.02531" lon="4.75748">
        <ele>187</ele>
        <time>2017-12-23T11:41:30Z</time>
      </trkpt>
      <trkpt lat="46.02527" lon="4.75748">
        <ele>187</ele>
        <time>2017-12-23T11:41:31Z</time>
      </trkpt>
      <trkpt lat="46.02521" lon="4.7575">
        <ele>188</ele>
        <time>2017-12-23T11:41:33Z</time>
      </trkpt>
      <trkpt lat="46.02518" lon="4.7575">
        <ele>188</ele>
        <time>2017-12-23T11:41:34Z</time>
      </trkpt>
      <trkpt lat="46.02511" lon="4.7575">
        <ele>189</ele>
        <time>2017-12-23T11:41:36Z</time>
      </trkpt>
      <trkpt lat="46.02507" lon="4.75751">
        <ele>189</ele>
        <time>2017-12-23T11:41:37Z</time>
      </trkpt>
      <trkpt lat="46.025" lon="4.75753">
        <ele>189</ele>
        <time>2017-12-23T11:41:39Z</time>
      </trkpt>
      <trkpt lat="46.02497" lon="4.75755">
        <ele>190</ele>
        <time>2017-12-23T11:41:40Z</time>
      </trkpt>
      <trkpt lat="46.0249" lon="4.75758">
        <ele>190</ele>
        <time>2017-12-23T11:41:42Z</time>
      </trkpt>
      <trkpt lat="46.02487" lon="4.75759">
        <ele>190</ele>
        <time>2017-12-23T11:41:43Z</time>
      </trkpt>
      <trkpt lat="46.02481" lon="4.75761">
        <ele>191</ele>
        <time>2017-12-23T11:41:45Z</time>
      </trkpt>
      <trkpt lat="46.02478" lon="4.75763">
        <ele>191</ele>
        <time>2017-12-23T11:41:46Z</time>
      </trkpt>
      <trkpt lat="46.02472" lon="4.75766">
        <ele>191</ele>
        <time>2017-12-23T11:41:48Z</time>
      </trkpt>
      <trkpt lat="46.02469" lon="4.75767">
        <ele>191</ele>
        <time>2017-12-23T11:41:49Z</time>
      </trkpt>
      <trkpt lat="46.02462" lon="4.75771">
        <ele>191</ele>
        <time>2017-12-23T11:41:52Z</time>
      </trkpt>
      <trkpt lat="46.0246" lon="4.75772">
        <ele>191</ele>
        <time>2017-12-23T11:41:53Z</time>
      </trkpt>
      <trkpt lat="46.02454" lon="4.75776">
        <ele>191</ele>
        <time>2017-12-23T11:41:55Z</time>
      </trkpt>
      <trkpt lat="46.02451" lon="4.75777">
        <ele>191</ele>
        <time>2017-12-23T11:41:56Z</time>
      </trkpt>
      <trkpt lat="46.02445" lon="4.75779">
        <ele>191</ele>
        <time>2017-12-23T11:41:58Z</time>
      </trkpt>
      <trkpt lat="46.02442" lon="4.75781">
        <ele>191</ele>
        <time>2017-12-23T11:41:59Z</time>
      </trkpt>
      <trkpt lat="46.02433" lon="4.75786">
        <ele>191</ele>
        <time>2017-12-23T11:42:02Z</time>
      </trkpt>
      <trkpt lat="46.02431" lon="4.75788">
        <ele>191</ele>
        <time>2017-12-23T11:42:03Z</time>
      </trkpt>
      <trkpt lat="46.02423" lon="4.75794">
        <ele>192</ele>
        <time>2017-12-23T11:42:06Z</time>
      </trkpt>
      <trkpt lat="46.0242" lon="4.75796">
        <ele>192</ele>
        <time>2017-12-23T11:42:07Z</time>
      </trkpt>
      <trkpt lat="46.02413" lon="4.758">
        <ele>192</ele>
        <time>2017-12-23T11:42:09Z</time>
      </trkpt>
      <trkpt lat="46.0241" lon="4.75802">
        <ele>192</ele>
        <time>2017-12-23T11:42:10Z</time>
      </trkpt>
      <trkpt lat="46.02404" lon="4.75806">
        <ele>192</ele>
        <time>2017-12-23T11:42:12Z</time>
      </trkpt>
      <trkpt lat="46.024" lon="4.75808">
        <ele>192</ele>
        <time>2017-12-23T11:42:13Z</time>
      </trkpt>
      <trkpt lat="46.02394" lon="4.75812">
        <ele>192</ele>
        <time>2017-12-23T11:42:15Z</time>
      </trkpt>
      <trkpt lat="46.02391" lon="4.75814">
        <ele>192</ele>
        <time>2017-12-23T11:42:16Z</time>
      </trkpt>
      <trkpt lat="46.02384" lon="4.75819">
        <ele>192</ele>
        <time>2017-12-23T11:42:18Z</time>
      </trkpt>
      <trkpt lat="46.0238" lon="4.75822">
        <ele>192</ele>
        <time>2017-12-23T11:42:19Z</time>
      </trkpt>
      <trkpt lat="46.02373" lon="4.75827">
        <ele>192</ele>
        <time>2017-12-23T11:42:21Z</time>
      </trkpt>
      <trkpt lat="46.02369" lon="4.7583">
        <ele>192</ele>
        <time>2017-12-23T11:42:22Z</time>
      </trkpt>
      <trkpt lat="46.02362" lon="4.75836">
        <ele>193</ele>
        <time>2017-12-23T11:42:24Z</time>
      </trkpt>
      <trkpt lat="46.02358" lon="4.75839">
        <ele>193</ele>
        <time>2017-12-23T11:42:25Z</time>
      </trkpt>
      <trkpt lat="46.02351" lon="4.75845">
        <ele>193</ele>
        <time>2017-12-23T11:42:27Z</time>
      </trkpt>
      <trkpt lat="46.02348" lon="4.75848">
        <ele>193</ele>
        <time>2017-12-23T11:42:28Z</time>
      </trkpt>
      <trkpt lat="46.02341" lon="4.75853">
        <ele>193</ele>
        <time>2017-12-23T11:42:30Z</time>
      </trkpt>
      <trkpt lat="46.02338" lon="4.75856">
        <ele>193</ele>
        <time>2017-12-23T11:42:31Z</time>
      </trkpt>
      <trkpt lat="46.0233" lon="4.75863">
        <ele>193</ele>
        <time>2017-12-23T11:42:33Z</time>
      </trkpt>
      <trkpt lat="46.02326" lon="4.75866">
        <ele>193</ele>
        <time>2017-12-23T11:42:34Z</time>
      </trkpt>
      <trkpt lat="46.02322" lon="4.75869">
        <ele>193</ele>
        <time>2017-12-23T11:42:35Z</time>
      </trkpt>
      <trkpt lat="46.02317" lon="4.75872">
        <ele>193</ele>
        <time>2017-12-23T11:42:36Z</time>
      </trkpt>
      <trkpt lat="46.02313" lon="4.75876">
        <ele>193</ele>
        <time>2017-12-23T11:42:37Z</time>
      </trkpt>
      <trkpt lat="46.02308" lon="4.7588">
        <ele>193</ele>
        <time>2017-12-23T11:42:38Z</time>
      </trkpt>
      <trkpt lat="46.02301" lon="4.75889">
        <ele>193</ele>
        <time>2017-12-23T11:42:40Z</time>
      </trkpt>
      <trkpt lat="46.02297" lon="4.75893">
        <ele>193</ele>
        <time>2017-12-23T11:42:41Z</time>
      </trkpt>
      <trkpt lat="46.02293" lon="4.75897">
        <ele>193</ele>
        <time>2017-12-23T11:42:42Z</time>
      </trkpt>
      <trkpt lat="46.02289" lon="4.759">
        <ele>193</ele>
        <time>2017-12-23T11:42:43Z</time>
      </trkpt>
      <trkpt lat="46.02284" lon="4.75904">
        <ele>193</ele>
        <time>2017-12-23T11:42:44Z</time>
      </trkpt>
      <trkpt lat="46.02278" lon="4.75909">
        <ele>193</ele>
        <time>2017-12-23T11:42:45Z</time>
      </trkpt>
      <trkpt lat="46.02274" lon="4.75913">
        <ele>193</ele>
        <time>2017-12-23T11:42:46Z</time>
      </trkpt>
      <trkpt lat="46.02269" lon="4.75917">
        <ele>193</ele>
        <time>2017-12-23T11:42:47Z</time>
      </trkpt>
      <trkpt lat="46.02265" lon="4.75921">
        <ele>193</ele>
        <time>2017-12-23T11:42:48Z</time>
      </trkpt>
      <trkpt lat="46.0226" lon="4.75925">
        <ele>193</ele>
        <time>2017-12-23T11:42:49Z</time>
      </trkpt>
      <trkpt lat="46.02255" lon="4.7593">
        <ele>193</ele>
        <time>2017-12-23T11:42:50Z</time>
      </trkpt>
      <trkpt lat="46.02251" lon="4.75934">
        <ele>193</ele>
        <time>2017-12-23T11:42:51Z</time>
      </trkpt>
      <trkpt lat="46.02246" lon="4.75938">
        <ele>193</ele>
        <time>2017-12-23T11:42:52Z</time>
      </trkpt>
      <trkpt lat="46.02241" lon="4.75942">
        <ele>193</ele>
        <time>2017-12-23T11:42:53Z</time>
      </trkpt>
      <trkpt lat="46.02236" lon="4.75946">
        <ele>193</ele>
        <time>2017-12-23T11:42:54Z</time>
      </trkpt>
      <trkpt lat="46.02231" lon="4.7595">
        <ele>193</ele>
        <time>2017-12-23T11:42:55Z</time>
      </trkpt>
      <trkpt lat="46.02227" lon="4.75953">
        <ele>193</ele>
        <time>2017-12-23T11:42:56Z</time>
      </trkpt>
      <trkpt lat="46.02221" lon="4.75958">
        <ele>193</ele>
        <time>2017-12-23T11:42:57Z</time>
      </trkpt>
      <trkpt lat="46.02216" lon="4.75963">
        <ele>192</ele>
        <time>2017-12-23T11:42:58Z</time>
      </trkpt>
      <trkpt lat="46.0221" lon="4.75967">
        <ele>192</ele>
        <time>2017-12-23T11:42:59Z</time>
      </trkpt>
      <trkpt lat="46.02205" lon="4.75971">
        <ele>192</ele>
        <time>2017-12-23T11:43:00Z</time>
      </trkpt>
      <trkpt lat="46.02198" lon="4.75976">
        <ele>192</ele>
        <time>2017-12-23T11:43:01Z</time>
      </trkpt>
      <trkpt lat="46.02194" lon="4.75981">
        <ele>192</ele>
        <time>2017-12-23T11:43:02Z</time>
      </trkpt>
      <trkpt lat="46.02189" lon="4.75985">
        <ele>192</ele>
        <time>2017-12-23T11:43:03Z</time>
      </trkpt>
      <trkpt lat="46.02185" lon="4.7599">
        <ele>192</ele>
        <time>2017-12-23T11:43:04Z</time>
      </trkpt>
      <trkpt lat="46.0218" lon="4.75993">
        <ele>192</ele>
        <time>2017-12-23T11:43:05Z</time>
      </trkpt>
      <trkpt lat="46.02175" lon="4.76">
        <ele>192</ele>
        <time>2017-12-23T11:43:06Z</time>
      </trkpt>
      <trkpt lat="46.02171" lon="4.76004">
        <ele>192</ele>
        <time>2017-12-23T11:43:07Z</time>
      </trkpt>
      <trkpt lat="46.02167" lon="4.76008">
        <ele>192</ele>
        <time>2017-12-23T11:43:08Z</time>
      </trkpt>
      <trkpt lat="46.02162" lon="4.76013">
        <ele>193</ele>
        <time>2017-12-23T11:43:09Z</time>
      </trkpt>
      <trkpt lat="46.02156" lon="4.76017">
        <ele>193</ele>
        <time>2017-12-23T11:43:10Z</time>
      </trkpt>
      <trkpt lat="46.02152" lon="4.76022">
        <ele>193</ele>
        <time>2017-12-23T11:43:11Z</time>
      </trkpt>
      <trkpt lat="46.02147" lon="4.76026">
        <ele>193</ele>
        <time>2017-12-23T11:43:12Z</time>
      </trkpt>
      <trkpt lat="46.02142" lon="4.76031">
        <ele>193</ele>
        <time>2017-12-23T11:43:13Z</time>
      </trkpt>
      <trkpt lat="46.02138" lon="4.76036">
        <ele>193</ele>
        <time>2017-12-23T11:43:14Z</time>
      </trkpt>
      <trkpt lat="46.02134" lon="4.76039">
        <ele>193</ele>
        <time>2017-12-23T11:43:15Z</time>
      </trkpt>
      <trkpt lat="46.02129" lon="4.76044">
        <ele>194</ele>
        <time>2017-12-23T11:43:16Z</time>
      </trkpt>
      <trkpt lat="46.02125" lon="4.76048">
        <ele>194</ele>
        <time>2017-12-23T11:43:17Z</time>
      </trkpt>
      <trkpt lat="46.02121" lon="4.76053">
        <ele>194</ele>
        <time>2017-12-23T11:43:18Z</time>
      </trkpt>
      <trkpt lat="46.02116" lon="4.76057">
        <ele>194</ele>
        <time>2017-12-23T11:43:19Z</time>
      </trkpt>
      <trkpt lat="46.02112" lon="4.76061">
        <ele>194</ele>
        <time>2017-12-23T11:43:20Z</time>
      </trkpt>
      <trkpt lat="46.02107" lon="4.76064">
        <ele>194</ele>
        <time>2017-12-23T11:43:21Z</time>
      </trkpt>
      <trkpt lat="46.02103" lon="4.76068">
        <ele>194</ele>
        <time>2017-12-23T11:43:22Z</time>
      </trkpt>
      <trkpt lat="46.02098" lon="4.76071">
        <ele>195</ele>
        <time>2017-12-23T11:43:23Z</time>
      </trkpt>
      <trkpt lat="46.02091" lon="4.76074">
        <ele>195</ele>
        <time>2017-12-23T11:43:25Z</time>
      </trkpt>
      <trkpt lat="46.02089" lon="4.76076">
        <ele>195</ele>
        <time>2017-12-23T11:43:26Z</time>
      </trkpt>
      <trkpt lat="46.02083" lon="4.76085">
        <ele>196</ele>
        <time>2017-12-23T11:44:37Z</time>
      </trkpt>
      <trkpt lat="46.02082" lon="4.76085">
        <ele>196</ele>
        <time>2017-12-23T11:44:38Z</time>
      </trkpt>
      <trkpt lat="46.02074" lon="4.76082">
        <ele>196</ele>
        <time>2017-12-23T11:45:09Z</time>
      </trkpt>
      <trkpt lat="46.02073" lon="4.76083">
        <ele>196</ele>
        <time>2017-12-23T11:45:10Z</time>
      </trkpt>
      <trkpt lat="46.02064" lon="4.76086">
        <ele>197</ele>
        <time>2017-12-23T11:45:15Z</time>
      </trkpt>
      <trkpt lat="46.02062" lon="4.76087">
        <ele>197</ele>
        <time>2017-12-23T11:45:16Z</time>
      </trkpt>
      <trkpt lat="46.02054" lon="4.76089">
        <ele>197</ele>
        <time>2017-12-23T11:45:19Z</time>
      </trkpt>
      <trkpt lat="46.02052" lon="4.7609">
        <ele>197</ele>
        <time>2017-12-23T11:45:20Z</time>
      </trkpt>
      <trkpt lat="46.02046" lon="4.76091">
        <ele>197</ele>
        <time>2017-12-23T11:45:22Z</time>
      </trkpt>
      <trkpt lat="46.02042" lon="4.76092">
        <ele>197</ele>
        <time>2017-12-23T11:45:23Z</time>
      </trkpt>
      <trkpt lat="46.02037" lon="4.76094">
        <ele>197</ele>
        <time>2017-12-23T11:45:24Z</time>
      </trkpt>
      <trkpt lat="46.02033" lon="4.76095">
        <ele>197</ele>
        <time>2017-12-23T11:45:25Z</time>
      </trkpt>
      <trkpt lat="46.0203" lon="4.76096">
        <ele>197</ele>
        <time>2017-12-23T11:45:26Z</time>
      </trkpt>
      <trkpt lat="46.02024" lon="4.76097">
        <ele>197</ele>
        <time>2017-12-23T11:45:27Z</time>
      </trkpt>
      <trkpt lat="46.02016" lon="4.76099">
        <ele>197</ele>
        <time>2017-12-23T11:45:29Z</time>
      </trkpt>
      <trkpt lat="46.02012" lon="4.761">
        <ele>197</ele>
        <time>2017-12-23T11:45:30Z</time>
      </trkpt>
      <trkpt lat="46.02003" lon="4.76102">
        <ele>197</ele>
        <time>2017-12-23T11:45:32Z</time>
      </trkpt>
      <trkpt lat="46.02" lon="4.76103">
        <ele>197</ele>
        <time>2017-12-23T11:45:33Z</time>
      </trkpt>
      <trkpt lat="46.01994" lon="4.76105">
        <ele>198</ele>
        <time>2017-12-23T11:45:35Z</time>
      </trkpt>
      <trkpt lat="46.01991" lon="4.76105">
        <ele>198</ele>
        <time>2017-12-23T11:45:36Z</time>
      </trkpt>
      <trkpt lat="46.01986" lon="4.76107">
        <ele>198</ele>
        <time>2017-12-23T11:45:37Z</time>
      </trkpt>
      <trkpt lat="46.01981" lon="4.76108">
        <ele>198</ele>
        <time>2017-12-23T11:45:38Z</time>
      </trkpt>
      <trkpt lat="46.01975" lon="4.76109">
        <ele>198</ele>
        <time>2017-12-23T11:45:39Z</time>
      </trkpt>
      <trkpt lat="46.01971" lon="4.76111">
        <ele>198</ele>
        <time>2017-12-23T11:45:40Z</time>
      </trkpt>
      <trkpt lat="46.01966" lon="4.76112">
        <ele>198</ele>
        <time>2017-12-23T11:45:41Z</time>
      </trkpt>
      <trkpt lat="46.01962" lon="4.76113">
        <ele>198</ele>
        <time>2017-12-23T11:45:42Z</time>
      </trkpt>
      <trkpt lat="46.01958" lon="4.76114">
        <ele>198</ele>
        <time>2017-12-23T11:45:43Z</time>
      </trkpt>
      <trkpt lat="46.01953" lon="4.76114">
        <ele>198</ele>
        <time>2017-12-23T11:45:44Z</time>
      </trkpt>
      <trkpt lat="46.01945" lon="4.76116">
        <ele>198</ele>
        <time>2017-12-23T11:45:46Z</time>
      </trkpt>
      <trkpt lat="46.0194" lon="4.76118">
        <ele>198</ele>
        <time>2017-12-23T11:45:47Z</time>
      </trkpt>
      <trkpt lat="46.01935" lon="4.76119">
        <ele>198</ele>
        <time>2017-12-23T11:45:48Z</time>
      </trkpt>
      <trkpt lat="46.01931" lon="4.76121">
        <ele>198</ele>
        <time>2017-12-23T11:45:49Z</time>
      </trkpt>
      <trkpt lat="46.01926" lon="4.76122">
        <ele>198</ele>
        <time>2017-12-23T11:45:50Z</time>
      </trkpt>
      <trkpt lat="46.01921" lon="4.76123">
        <ele>198</ele>
        <time>2017-12-23T11:45:51Z</time>
      </trkpt>
      <trkpt lat="46.01915" lon="4.76124">
        <ele>199</ele>
        <time>2017-12-23T11:45:52Z</time>
      </trkpt>
      <trkpt lat="46.01911" lon="4.76126">
        <ele>199</ele>
        <time>2017-12-23T11:45:53Z</time>
      </trkpt>
      <trkpt lat="46.01903" lon="4.76129">
        <ele>199</ele>
        <time>2017-12-23T11:45:55Z</time>
      </trkpt>
      <trkpt lat="46.01899" lon="4.76132">
        <ele>199</ele>
        <time>2017-12-23T11:45:56Z</time>
      </trkpt>
      <trkpt lat="46.01891" lon="4.76132">
        <ele>199</ele>
        <time>2017-12-23T11:45:58Z</time>
      </trkpt>
      <trkpt lat="46.01886" lon="4.76134">
        <ele>199</ele>
        <time>2017-12-23T11:45:59Z</time>
      </trkpt>
      <trkpt lat="46.01877" lon="4.76134">
        <ele>199</ele>
        <time>2017-12-23T11:46:01Z</time>
      </trkpt>
      <trkpt lat="46.01872" lon="4.76134">
        <ele>199</ele>
        <time>2017-12-23T11:46:02Z</time>
      </trkpt>
      <trkpt lat="46.01867" lon="4.76134">
        <ele>199</ele>
        <time>2017-12-23T11:46:03Z</time>
      </trkpt>
      <trkpt lat="46.01862" lon="4.76133">
        <ele>199</ele>
        <time>2017-12-23T11:46:04Z</time>
      </trkpt>
      <trkpt lat="46.01857" lon="4.76133">
        <ele>199</ele>
        <time>2017-12-23T11:46:05Z</time>
      </trkpt>
      <trkpt lat="46.01852" lon="4.76133">
        <ele>199</ele>
        <time>2017-12-23T11:46:06Z</time>
      </trkpt>
      <trkpt lat="46.01844" lon="4.76132">
        <ele>199</ele>
        <time>2017-12-23T11:46:08Z</time>
      </trkpt>
      <trkpt lat="46.0184" lon="4.76131">
        <ele>199</ele>
        <time>2017-12-23T11:46:09Z</time>
      </trkpt>
      <trkpt lat="46.01835" lon="4.7613">
        <ele>199</ele>
        <time>2017-12-23T11:46:10Z</time>
      </trkpt>
      <trkpt lat="46.01829" lon="4.7613">
        <ele>198</ele>
        <time>2017-12-23T11:46:11Z</time>
      </trkpt>
      <trkpt lat="46.01825" lon="4.76129">
        <ele>198</ele>
        <time>2017-12-23T11:46:12Z</time>
      </trkpt>
      <trkpt lat="46.01819" lon="4.7613">
        <ele>198</ele>
        <time>2017-12-23T11:46:13Z</time>
      </trkpt>
      <trkpt lat="46.01814" lon="4.76129">
        <ele>198</ele>
        <time>2017-12-23T11:46:14Z</time>
      </trkpt>
      <trkpt lat="46.01809" lon="4.76127">
        <ele>198</ele>
        <time>2017-12-23T11:46:15Z</time>
      </trkpt>
      <trkpt lat="46.01803" lon="4.76128">
        <ele>198</ele>
        <time>2017-12-23T11:46:16Z</time>
      </trkpt>
      <trkpt lat="46.01798" lon="4.76127">
        <ele>198</ele>
        <time>2017-12-23T11:46:17Z</time>
      </trkpt>
      <trkpt lat="46.01793" lon="4.76126">
        <ele>198</ele>
        <time>2017-12-23T11:46:18Z</time>
      </trkpt>
      <trkpt lat="46.01788" lon="4.76127">
        <ele>198</ele>
        <time>2017-12-23T11:46:19Z</time>
      </trkpt>
      <trkpt lat="46.01783" lon="4.76126">
        <ele>198</ele>
        <time>2017-12-23T11:46:20Z</time>
      </trkpt>
      <trkpt lat="46.01779" lon="4.76125">
        <ele>198</ele>
        <time>2017-12-23T11:46:21Z</time>
      </trkpt>
      <trkpt lat="46.01774" lon="4.76126">
        <ele>198</ele>
        <time>2017-12-23T11:46:22Z</time>
      </trkpt>
      <trkpt lat="46.01769" lon="4.76127">
        <ele>198</ele>
        <time>2017-12-23T11:46:23Z</time>
      </trkpt>
      <trkpt lat="46.01763" lon="4.76129">
        <ele>198</ele>
        <time>2017-12-23T11:46:24Z</time>
      </trkpt>
      <trkpt lat="46.01758" lon="4.76128">
        <ele>198</ele>
        <time>2017-12-23T11:46:25Z</time>
      </trkpt>
      <trkpt lat="46.01752" lon="4.76126">
        <ele>198</ele>
        <time>2017-12-23T11:46:26Z</time>
      </trkpt>
      <trkpt lat="46.01747" lon="4.76124">
        <ele>197</ele>
        <time>2017-12-23T11:46:27Z</time>
      </trkpt>
      <trkpt lat="46.01741" lon="4.76122">
        <ele>197</ele>
        <time>2017-12-23T11:46:28Z</time>
      </trkpt>
      <trkpt lat="46.01736" lon="4.76121">
        <ele>197</ele>
        <time>2017-12-23T11:46:29Z</time>
      </trkpt>
      <trkpt lat="46.01731" lon="4.76121">
        <ele>197</ele>
        <time>2017-12-23T11:46:30Z</time>
      </trkpt>
      <trkpt lat="46.01726" lon="4.7612">
        <ele>197</ele>
        <time>2017-12-23T11:46:31Z</time>
      </trkpt>
      <trkpt lat="46.01721" lon="4.7612">
        <ele>197</ele>
        <time>2017-12-23T11:46:32Z</time>
      </trkpt>
      <trkpt lat="46.01717" lon="4.76118">
        <ele>198</ele>
        <time>2017-12-23T11:46:33Z</time>
      </trkpt>
      <trkpt lat="46.01709" lon="4.76119">
        <ele>198</ele>
        <time>2017-12-23T11:46:35Z</time>
      </trkpt>
      <trkpt lat="46.01704" lon="4.76118">
        <ele>198</ele>
        <time>2017-12-23T11:46:36Z</time>
      </trkpt>
      <trkpt lat="46.01695" lon="4.76118">
        <ele>198</ele>
        <time>2017-12-23T11:46:38Z</time>
      </trkpt>
      <trkpt lat="46.0169" lon="4.76118">
        <ele>198</ele>
        <time>2017-12-23T11:46:39Z</time>
      </trkpt>
      <trkpt lat="46.01683" lon="4.76117">
        <ele>198</ele>
        <time>2017-12-23T11:46:41Z</time>
      </trkpt>
      <trkpt lat="46.01678" lon="4.76117">
        <ele>198</ele>
        <time>2017-12-23T11:46:42Z</time>
      </trkpt>
      <trkpt lat="46.01673" lon="4.76117">
        <ele>198</ele>
        <time>2017-12-23T11:46:43Z</time>
      </trkpt>
      <trkpt lat="46.01668" lon="4.76117">
        <ele>198</ele>
        <time>2017-12-23T11:46:44Z</time>
      </trkpt>
      <trkpt lat="46.01663" lon="4.76116">
        <ele>199</ele>
        <time>2017-12-23T11:46:45Z</time>
      </trkpt>
      <trkpt lat="46.01658" lon="4.76115">
        <ele>199</ele>
        <time>2017-12-23T11:46:46Z</time>
      </trkpt>
      <trkpt lat="46.0165" lon="4.76115">
        <ele>199</ele>
        <time>2017-12-23T11:46:48Z</time>
      </trkpt>
      <trkpt lat="46.01644" lon="4.76114">
        <ele>199</ele>
        <time>2017-12-23T11:46:49Z</time>
      </trkpt>
      <trkpt lat="46.01639" lon="4.76114">
        <ele>199</ele>
        <time>2017-12-23T11:46:50Z</time>
      </trkpt>
      <trkpt lat="46.01634" lon="4.76112">
        <ele>199</ele>
        <time>2017-12-23T11:46:51Z</time>
      </trkpt>
      <trkpt lat="46.01629" lon="4.7611">
        <ele>199</ele>
        <time>2017-12-23T11:46:52Z</time>
      </trkpt>
      <trkpt lat="46.01624" lon="4.76111">
        <ele>200</ele>
        <time>2017-12-23T11:46:53Z</time>
      </trkpt>
      <trkpt lat="46.01617" lon="4.76109">
        <ele>200</ele>
        <time>2017-12-23T11:46:54Z</time>
      </trkpt>
      <trkpt lat="46.01611" lon="4.76108">
        <ele>200</ele>
        <time>2017-12-23T11:46:55Z</time>
      </trkpt>
      <trkpt lat="46.01606" lon="4.76107">
        <ele>200</ele>
        <time>2017-12-23T11:46:56Z</time>
      </trkpt>
      <trkpt lat="46.01601" lon="4.76106">
        <ele>200</ele>
        <time>2017-12-23T11:46:57Z</time>
      </trkpt>
      <trkpt lat="46.01592" lon="4.76105">
        <ele>200</ele>
        <time>2017-12-23T11:46:59Z</time>
      </trkpt>
      <trkpt lat="46.01588" lon="4.76105">
        <ele>200</ele>
        <time>2017-12-23T11:47:00Z</time>
      </trkpt>
      <trkpt lat="46.0158" lon="4.76104">
        <ele>202</ele>
        <time>2017-12-23T11:47:02Z</time>
      </trkpt>
      <trkpt lat="46.01576" lon="4.76104">
        <ele>202</ele>
        <time>2017-12-23T11:47:03Z</time>
      </trkpt>
      <trkpt lat="46.01572" lon="4.76104">
        <ele>202</ele>
        <time>2017-12-23T11:47:04Z</time>
      </trkpt>
      <trkpt lat="46.01567" lon="4.76102">
        <ele>202</ele>
        <time>2017-12-23T11:47:05Z</time>
      </trkpt>
      <trkpt lat="46.01563" lon="4.76099">
        <ele>202</ele>
        <time>2017-12-23T11:47:06Z</time>
      </trkpt>
      <trkpt lat="46.01559" lon="4.76096">
        <ele>202</ele>
        <time>2017-12-23T11:47:07Z</time>
      </trkpt>
      <trkpt lat="46.01554" lon="4.76093">
        <ele>202</ele>
        <time>2017-12-23T11:47:08Z</time>
      </trkpt>
      <trkpt lat="46.01549" lon="4.76091">
        <ele>202</ele>
        <time>2017-12-23T11:47:09Z</time>
      </trkpt>
      <trkpt lat="46.01545" lon="4.76088">
        <ele>202</ele>
        <time>2017-12-23T11:47:10Z</time>
      </trkpt>
      <trkpt lat="46.0154" lon="4.76086">
        <ele>202</ele>
        <time>2017-12-23T11:47:11Z</time>
      </trkpt>
      <trkpt lat="46.01532" lon="4.76083">
        <ele>202</ele>
        <time>2017-12-23T11:47:13Z</time>
      </trkpt>
      <trkpt lat="46.01528" lon="4.76084">
        <ele>202</ele>
        <time>2017-12-23T11:47:14Z</time>
      </trkpt>
      <trkpt lat="46.01523" lon="4.76084">
        <ele>202</ele>
        <time>2017-12-23T11:47:15Z</time>
      </trkpt>
      <trkpt lat="46.01518" lon="4.76083">
        <ele>202</ele>
        <time>2017-12-23T11:47:16Z</time>
      </trkpt>
      <trkpt lat="46.01514" lon="4.76081">
        <ele>202</ele>
        <time>2017-12-23T11:47:17Z</time>
      </trkpt>
      <trkpt lat="46.01509" lon="4.7608">
        <ele>203</ele>
        <time>2017-12-23T11:47:18Z</time>
      </trkpt>
      <trkpt lat="46.01503" lon="4.76079">
        <ele>203</ele>
        <time>2017-12-23T11:47:19Z</time>
      </trkpt>
      <trkpt lat="46.01498" lon="4.76078">
        <ele>203</ele>
        <time>2017-12-23T11:47:20Z</time>
      </trkpt>
      <trkpt lat="46.01494" lon="4.76078">
        <ele>203</ele>
        <time>2017-12-23T11:47:21Z</time>
      </trkpt>
      <trkpt lat="46.01489" lon="4.76077">
        <ele>203</ele>
        <time>2017-12-23T11:47:22Z</time>
      </trkpt>
      <trkpt lat="46.01483" lon="4.76077">
        <ele>203</ele>
        <time>2017-12-23T11:47:23Z</time>
      </trkpt>
      <trkpt lat="46.01478" lon="4.76075">
        <ele>203</ele>
        <time>2017-12-23T11:47:24Z</time>
      </trkpt>
      <trkpt lat="46.01472" lon="4.76073">
        <ele>203</ele>
        <time>2017-12-23T11:47:25Z</time>
      </trkpt>
      <trkpt lat="46.01467" lon="4.76071">
        <ele>203</ele>
        <time>2017-12-23T11:47:26Z</time>
      </trkpt>
      <trkpt lat="46.01462" lon="4.7607">
        <ele>203</ele>
        <time>2017-12-23T11:47:27Z</time>
      </trkpt>
      <trkpt lat="46.01458" lon="4.76069">
        <ele>203</ele>
        <time>2017-12-23T11:47:28Z</time>
      </trkpt>
      <trkpt lat="46.01453" lon="4.76067">
        <ele>203</ele>
        <time>2017-12-23T11:47:29Z</time>
      </trkpt>
      <trkpt lat="46.01448" lon="4.76066">
        <ele>203</ele>
        <time>2017-12-23T11:47:30Z</time>
      </trkpt>
      <trkpt lat="46.01443" lon="4.76064">
        <ele>203</ele>
        <time>2017-12-23T11:47:31Z</time>
      </trkpt>
      <trkpt lat="46.01437" lon="4.76063">
        <ele>203</ele>
        <time>2017-12-23T11:47:32Z</time>
      </trkpt>
      <trkpt lat="46.01432" lon="4.76059">
        <ele>203</ele>
        <time>2017-12-23T11:47:33Z</time>
      </trkpt>
      <trkpt lat="46.01428" lon="4.76056">
        <ele>203</ele>
        <time>2017-12-23T11:47:34Z</time>
      </trkpt>
      <trkpt lat="46.01423" lon="4.76052">
        <ele>204</ele>
        <time>2017-12-23T11:47:35Z</time>
      </trkpt>
      <trkpt lat="46.01419" lon="4.76049">
        <ele>204</ele>
        <time>2017-12-23T11:47:36Z</time>
      </trkpt>
      <trkpt lat="46.01415" lon="4.76045">
        <ele>203</ele>
        <time>2017-12-23T11:47:37Z</time>
      </trkpt>
      <trkpt lat="46.0141" lon="4.76042">
        <ele>204</ele>
        <time>2017-12-23T11:47:38Z</time>
      </trkpt>
      <trkpt lat="46.01404" lon="4.7604">
        <ele>204</ele>
        <time>2017-12-23T11:47:39Z</time>
      </trkpt>
      <trkpt lat="46.014" lon="4.76038">
        <ele>204</ele>
        <time>2017-12-23T11:47:40Z</time>
      </trkpt>
      <trkpt lat="46.01395" lon="4.76038">
        <ele>203</ele>
        <time>2017-12-23T11:47:41Z</time>
      </trkpt>
      <trkpt lat="46.0139" lon="4.76039">
        <ele>203</ele>
        <time>2017-12-23T11:47:42Z</time>
      </trkpt>
      <trkpt lat="46.01385" lon="4.7604">
        <ele>203</ele>
        <time>2017-12-23T11:47:43Z</time>
      </trkpt>
      <trkpt lat="46.0138" lon="4.7604">
        <ele>203</ele>
        <time>2017-12-23T11:47:44Z</time>
      </trkpt>
      <trkpt lat="46.01375" lon="4.76041">
        <ele>203</ele>
        <time>2017-12-23T11:47:45Z</time>
      </trkpt>
      <trkpt lat="46.0137" lon="4.76043">
        <ele>203</ele>
        <time>2017-12-23T11:47:46Z</time>
      </trkpt>
      <trkpt lat="46.01365" lon="4.76044">
        <ele>203</ele>
        <time>2017-12-23T11:47:47Z</time>
      </trkpt>
      <trkpt lat="46.0136" lon="4.76045">
        <ele>203</ele>
        <time>2017-12-23T11:47:48Z</time>
      </trkpt>
      <trkpt lat="46.01355" lon="4.76047">
        <ele>203</ele>
        <time>2017-12-23T11:47:49Z</time>
      </trkpt>
      <trkpt lat="46.0135" lon="4.76048">
        <ele>203</ele>
        <time>2017-12-23T11:47:50Z</time>
      </trkpt>
      <trkpt lat="46.01345" lon="4.7605">
        <ele>203</ele>
        <time>2017-12-23T11:47:51Z</time>
      </trkpt>
      <trkpt lat="46.01341" lon="4.76051">
        <ele>203</ele>
        <time>2017-12-23T11:47:52Z</time>
      </trkpt>
      <trkpt lat="46.01332" lon="4.76054">
        <ele>203</ele>
        <time>2017-12-23T11:47:54Z</time>
      </trkpt>
      <trkpt lat="46.01327" lon="4.76055">
        <ele>203</ele>
        <time>2017-12-23T11:47:55Z</time>
      </trkpt>
      <trkpt lat="46.01322" lon="4.76056">
        <ele>203</ele>
        <time>2017-12-23T11:47:56Z</time>
      </trkpt>
      <trkpt lat="46.01318" lon="4.76057">
        <ele>203</ele>
        <time>2017-12-23T11:47:57Z</time>
      </trkpt>
      <trkpt lat="46.01313" lon="4.76059">
        <ele>203</ele>
        <time>2017-12-23T11:47:58Z</time>
      </trkpt>
      <trkpt lat="46.01308" lon="4.76061">
        <ele>203</ele>
        <time>2017-12-23T11:47:59Z</time>
      </trkpt>
      <trkpt lat="46.01304" lon="4.76061">
        <ele>203</ele>
        <time>2017-12-23T11:48:00Z</time>
      </trkpt>
      <trkpt lat="46.01299" lon="4.76062">
        <ele>203</ele>
        <time>2017-12-23T11:48:01Z</time>
      </trkpt>
      <trkpt lat="46.01294" lon="4.76063">
        <ele>204</ele>
        <time>2017-12-23T11:48:02Z</time>
      </trkpt>
      <trkpt lat="46.01289" lon="4.76065">
        <ele>204</ele>
        <time>2017-12-23T11:48:03Z</time>
      </trkpt>
      <trkpt lat="46.01281" lon="4.76066">
        <ele>204</ele>
        <time>2017-12-23T11:48:05Z</time>
      </trkpt>
      <trkpt lat="46.01276" lon="4.76066">
        <ele>204</ele>
        <time>2017-12-23T11:48:06Z</time>
      </trkpt>
      <trkpt lat="46.01271" lon="4.76067">
        <ele>204</ele>
        <time>2017-12-23T11:48:07Z</time>
      </trkpt>
      <trkpt lat="46.01267" lon="4.76068">
        <ele>204</ele>
        <time>2017-12-23T11:48:08Z</time>
      </trkpt>
      <trkpt lat="46.01258" lon="4.76069">
        <ele>204</ele>
        <time>2017-12-23T11:48:10Z</time>
      </trkpt>
      <trkpt lat="46.01254" lon="4.76068">
        <ele>204</ele>
        <time>2017-12-23T11:48:11Z</time>
      </trkpt>
      <trkpt lat="46.01245" lon="4.76068">
        <ele>205</ele>
        <time>2017-12-23T11:48:13Z</time>
      </trkpt>
      <trkpt lat="46.0124" lon="4.76068">
        <ele>205</ele>
        <time>2017-12-23T11:48:14Z</time>
      </trkpt>
      <trkpt lat="46.01232" lon="4.76066">
        <ele>205</ele>
        <time>2017-12-23T11:48:16Z</time>
      </trkpt>
      <trkpt lat="46.01228" lon="4.76064">
        <ele>206</ele>
        <time>2017-12-23T11:48:17Z</time>
      </trkpt>
      <trkpt lat="46.01223" lon="4.76063">
        <ele>206</ele>
        <time>2017-12-23T11:48:18Z</time>
      </trkpt>
      <trkpt lat="46.01219" lon="4.76062">
        <ele>206</ele>
        <time>2017-12-23T11:48:19Z</time>
      </trkpt>
      <trkpt lat="46.0121" lon="4.7606">
        <ele>206</ele>
        <time>2017-12-23T11:48:21Z</time>
      </trkpt>
      <trkpt lat="46.01206" lon="4.76059">
        <ele>206</ele>
        <time>2017-12-23T11:48:22Z</time>
      </trkpt>
      <trkpt lat="46.01201" lon="4.76059">
        <ele>206</ele>
        <time>2017-12-23T11:48:23Z</time>
      </trkpt>
      <trkpt lat="46.01197" lon="4.76058">
        <ele>206</ele>
        <time>2017-12-23T11:48:24Z</time>
      </trkpt>
      <trkpt lat="46.01188" lon="4.76056">
        <ele>206</ele>
        <time>2017-12-23T11:48:26Z</time>
      </trkpt>
      <trkpt lat="46.01184" lon="4.76055">
        <ele>207</ele>
        <time>2017-12-23T11:48:27Z</time>
      </trkpt>
      <trkpt lat="46.01176" lon="4.76051">
        <ele>207</ele>
        <time>2017-12-23T11:48:29Z</time>
      </trkpt>
      <trkpt lat="46.01172" lon="4.7605">
        <ele>207</ele>
        <time>2017-12-23T11:48:30Z</time>
      </trkpt>
      <trkpt lat="46.01166" lon="4.76049">
        <ele>208</ele>
        <time>2017-12-23T11:48:32Z</time>
      </trkpt>
      <trkpt lat="46.01163" lon="4.7605">
        <ele>208</ele>
        <time>2017-12-23T11:48:33Z</time>
      </trkpt>
      <trkpt lat="46.01155" lon="4.76051">
        <ele>208</ele>
        <time>2017-12-23T11:48:35Z</time>
      </trkpt>
      <trkpt lat="46.01152" lon="4.76051">
        <ele>208</ele>
        <time>2017-12-23T11:48:36Z</time>
      </trkpt>
      <trkpt lat="46.01147" lon="4.76052">
        <ele>208</ele>
        <time>2017-12-23T11:48:37Z</time>
      </trkpt>
      <trkpt lat="46.01142" lon="4.76052">
        <ele>208</ele>
        <time>2017-12-23T11:48:38Z</time>
      </trkpt>
      <trkpt lat="46.01133" lon="4.76052">
        <ele>208</ele>
        <time>2017-12-23T11:48:40Z</time>
      </trkpt>
      <trkpt lat="46.01127" lon="4.76053">
        <ele>208</ele>
        <time>2017-12-23T11:48:41Z</time>
      </trkpt>
      <trkpt lat="46.01123" lon="4.76054">
        <ele>208</ele>
        <time>2017-12-23T11:48:42Z</time>
      </trkpt>
      <trkpt lat="46.01118" lon="4.76055">
        <ele>208</ele>
        <time>2017-12-23T11:48:43Z</time>
      </trkpt>
      <trkpt lat="46.01113" lon="4.76055">
        <ele>208</ele>
        <time>2017-12-23T11:48:44Z</time>
      </trkpt>
      <trkpt lat="46.01109" lon="4.76056">
        <ele>208</ele>
        <time>2017-12-23T11:48:45Z</time>
      </trkpt>
      <trkpt lat="46.01104" lon="4.76057">
        <ele>208</ele>
        <time>2017-12-23T11:48:46Z</time>
      </trkpt>
      <trkpt lat="46.01099" lon="4.76058">
        <ele>208</ele>
        <time>2017-12-23T11:48:47Z</time>
      </trkpt>
      <trkpt lat="46.01094" lon="4.76059">
        <ele>208</ele>
        <time>2017-12-23T11:48:48Z</time>
      </trkpt>
      <trkpt lat="46.01089" lon="4.7606">
        <ele>208</ele>
        <time>2017-12-23T11:48:49Z</time>
      </trkpt>
      <trkpt lat="46.01081" lon="4.76061">
        <ele>209</ele>
        <time>2017-12-23T11:48:51Z</time>
      </trkpt>
      <trkpt lat="46.01077" lon="4.76062">
        <ele>209</ele>
        <time>2017-12-23T11:48:52Z</time>
      </trkpt>
      <trkpt lat="46.01069" lon="4.76063">
        <ele>209</ele>
        <time>2017-12-23T11:48:54Z</time>
      </trkpt>
      <trkpt lat="46.01065" lon="4.76063">
        <ele>209</ele>
        <time>2017-12-23T11:48:55Z</time>
      </trkpt>
      <trkpt lat="46.01056" lon="4.76064">
        <ele>209</ele>
        <time>2017-12-23T11:48:57Z</time>
      </trkpt>
      <trkpt lat="46.01052" lon="4.76065">
        <ele>210</ele>
        <time>2017-12-23T11:48:58Z</time>
      </trkpt>
      <trkpt lat="46.01044" lon="4.76066">
        <ele>210</ele>
        <time>2017-12-23T11:49:00Z</time>
      </trkpt>
      <trkpt lat="46.0104" lon="4.76067">
        <ele>210</ele>
        <time>2017-12-23T11:49:01Z</time>
      </trkpt>
      <trkpt lat="46.01032" lon="4.76068">
        <ele>210</ele>
        <time>2017-12-23T11:49:03Z</time>
      </trkpt>
      <trkpt lat="46.01028" lon="4.76068">
        <ele>210</ele>
        <time>2017-12-23T11:49:04Z</time>
      </trkpt>
      <trkpt lat="46.01021" lon="4.76069">
        <ele>210</ele>
        <time>2017-12-23T11:49:06Z</time>
      </trkpt>
      <trkpt lat="46.01018" lon="4.76069">
        <ele>210</ele>
        <time>2017-12-23T11:49:07Z</time>
      </trkpt>
      <trkpt lat="46.0101" lon="4.7607">
        <ele>211</ele>
        <time>2017-12-23T11:49:09Z</time>
      </trkpt>
      <trkpt lat="46.01006" lon="4.7607">
        <ele>211</ele>
        <time>2017-12-23T11:49:10Z</time>
      </trkpt>
      <trkpt lat="46.00998" lon="4.76071">
        <ele>212</ele>
        <time>2017-12-23T11:49:12Z</time>
      </trkpt>
      <trkpt lat="46.00994" lon="4.76071">
        <ele>212</ele>
        <time>2017-12-23T11:49:13Z</time>
      </trkpt>
      <trkpt lat="46.00987" lon="4.76072">
        <ele>212</ele>
        <time>2017-12-23T11:49:15Z</time>
      </trkpt>
      <trkpt lat="46.00983" lon="4.76072">
        <ele>212</ele>
        <time>2017-12-23T11:49:16Z</time>
      </trkpt>
      <trkpt lat="46.00975" lon="4.76072">
        <ele>212</ele>
        <time>2017-12-23T11:49:18Z</time>
      </trkpt>
      <trkpt lat="46.00972" lon="4.76073">
        <ele>212</ele>
        <time>2017-12-23T11:49:19Z</time>
      </trkpt>
      <trkpt lat="46.00964" lon="4.76074">
        <ele>212</ele>
        <time>2017-12-23T11:49:21Z</time>
      </trkpt>
      <trkpt lat="46.0096" lon="4.76075">
        <ele>212</ele>
        <time>2017-12-23T11:49:22Z</time>
      </trkpt>
      <trkpt lat="46.00952" lon="4.76076">
        <ele>212</ele>
        <time>2017-12-23T11:49:24Z</time>
      </trkpt>
      <trkpt lat="46.00948" lon="4.76077">
        <ele>212</ele>
        <time>2017-12-23T11:49:25Z</time>
      </trkpt>
      <trkpt lat="46.00941" lon="4.76079">
        <ele>212</ele>
        <time>2017-12-23T11:49:27Z</time>
      </trkpt>
      <trkpt lat="46.00937" lon="4.7608">
        <ele>212</ele>
        <time>2017-12-23T11:49:28Z</time>
      </trkpt>
      <trkpt lat="46.00929" lon="4.76081">
        <ele>213</ele>
        <time>2017-12-23T11:49:30Z</time>
      </trkpt>
      <trkpt lat="46.00925" lon="4.76082">
        <ele>213</ele>
        <time>2017-12-23T11:49:31Z</time>
      </trkpt>
      <trkpt lat="46.00917" lon="4.76083">
        <ele>213</ele>
        <time>2017-12-23T11:49:33Z</time>
      </trkpt>
      <trkpt lat="46.00913" lon="4.76084">
        <ele>213</ele>
        <time>2017-12-23T11:49:34Z</time>
      </trkpt>
      <trkpt lat="46.00906" lon="4.76085">
        <ele>214</ele>
        <time>2017-12-23T11:49:36Z</time>
      </trkpt>
      <trkpt lat="46.00902" lon="4.76086">
        <ele>214</ele>
        <time>2017-12-23T11:49:37Z</time>
      </trkpt>
      <trkpt lat="46.00895" lon="4.76087">
        <ele>214</ele>
        <time>2017-12-23T11:49:39Z</time>
      </trkpt>
      <trkpt lat="46.00891" lon="4.76088">
        <ele>214</ele>
        <time>2017-12-23T11:49:40Z</time>
      </trkpt>
      <trkpt lat="46.00884" lon="4.76089">
        <ele>215</ele>
        <time>2017-12-23T11:49:42Z</time>
      </trkpt>
      <trkpt lat="46.0088" lon="4.7609">
        <ele>215</ele>
        <time>2017-12-23T11:49:43Z</time>
      </trkpt>
      <trkpt lat="46.00873" lon="4.76091">
        <ele>215</ele>
        <time>2017-12-23T11:49:45Z</time>
      </trkpt>
      <trkpt lat="46.00869" lon="4.76091">
        <ele>215</ele>
        <time>2017-12-23T11:49:46Z</time>
      </trkpt>
      <trkpt lat="46.00862" lon="4.76093">
        <ele>215</ele>
        <time>2017-12-23T11:49:48Z</time>
      </trkpt>
      <trkpt lat="46.00858" lon="4.76093">
        <ele>215</ele>
        <time>2017-12-23T11:49:49Z</time>
      </trkpt>
      <trkpt lat="46.00851" lon="4.76096">
        <ele>216</ele>
        <time>2017-12-23T11:49:51Z</time>
      </trkpt>
      <trkpt lat="46.00848" lon="4.76097">
        <ele>216</ele>
        <time>2017-12-23T11:49:52Z</time>
      </trkpt>
      <trkpt lat="46.00841" lon="4.76098">
        <ele>216</ele>
        <time>2017-12-23T11:49:54Z</time>
      </trkpt>
      <trkpt lat="46.00838" lon="4.76099">
        <ele>216</ele>
        <time>2017-12-23T11:49:55Z</time>
      </trkpt>
      <trkpt lat="46.00832" lon="4.761">
        <ele>217</ele>
        <time>2017-12-23T11:49:57Z</time>
      </trkpt>
      <trkpt lat="46.00829" lon="4.76101">
        <ele>217</ele>
        <time>2017-12-23T11:49:58Z</time>
      </trkpt>
      <trkpt lat="46.00822" lon="4.76102">
        <ele>218</ele>
        <time>2017-12-23T11:50:00Z</time>
      </trkpt>
      <trkpt lat="46.00818" lon="4.76103">
        <ele>218</ele>
        <time>2017-12-23T11:50:01Z</time>
      </trkpt>
      <trkpt lat="46.00811" lon="4.76104">
        <ele>218</ele>
        <time>2017-12-23T11:50:03Z</time>
      </trkpt>
      <trkpt lat="46.00808" lon="4.76105">
        <ele>218</ele>
        <time>2017-12-23T11:50:04Z</time>
      </trkpt>
      <trkpt lat="46.008" lon="4.76105">
        <ele>218</ele>
        <time>2017-12-23T11:50:06Z</time>
      </trkpt>
      <trkpt lat="46.00797" lon="4.76105">
        <ele>218</ele>
        <time>2017-12-23T11:50:07Z</time>
      </trkpt>
      <trkpt lat="46.0079" lon="4.76106">
        <ele>219</ele>
        <time>2017-12-23T11:50:09Z</time>
      </trkpt>
      <trkpt lat="46.00787" lon="4.76107">
        <ele>219</ele>
        <time>2017-12-23T11:50:10Z</time>
      </trkpt>
      <trkpt lat="46.0078" lon="4.76108">
        <ele>219</ele>
        <time>2017-12-23T11:50:12Z</time>
      </trkpt>
      <trkpt lat="46.00776" lon="4.76108">
        <ele>219</ele>
        <time>2017-12-23T11:50:13Z</time>
      </trkpt>
      <trkpt lat="46.0077" lon="4.76108">
        <ele>219</ele>
        <time>2017-12-23T11:50:15Z</time>
      </trkpt>
      <trkpt lat="46.00766" lon="4.76108">
        <ele>219</ele>
        <time>2017-12-23T11:50:16Z</time>
      </trkpt>
      <trkpt lat="46.00757" lon="4.76109">
        <ele>219</ele>
        <time>2017-12-23T11:50:19Z</time>
      </trkpt>
      <trkpt lat="46.00755" lon="4.76109">
        <ele>219</ele>
        <time>2017-12-23T11:50:20Z</time>
      </trkpt>
      <trkpt lat="46.00747" lon="4.7611">
        <ele>223</ele>
        <time>2017-12-23T11:50:23Z</time>
      </trkpt>
      <trkpt lat="46.00744" lon="4.76111">
        <ele>223</ele>
        <time>2017-12-23T11:50:24Z</time>
      </trkpt>
      <trkpt lat="46.00736" lon="4.76111">
        <ele>223</ele>
        <time>2017-12-23T11:50:27Z</time>
      </trkpt>
      <trkpt lat="46.00734" lon="4.7611">
        <ele>223</ele>
        <time>2017-12-23T11:50:28Z</time>
      </trkpt>
      <trkpt lat="46.00726" lon="4.7611">
        <ele>223</ele>
        <time>2017-12-23T11:50:31Z</time>
      </trkpt>
      <trkpt lat="46.00723" lon="4.7611">
        <ele>224</ele>
        <time>2017-12-23T11:50:32Z</time>
      </trkpt>
      <trkpt lat="46.00715" lon="4.76111">
        <ele>224</ele>
        <time>2017-12-23T11:50:35Z</time>
      </trkpt>
      <trkpt lat="46.00713" lon="4.76112">
        <ele>224</ele>
        <time>2017-12-23T11:50:36Z</time>
      </trkpt>
      <trkpt lat="46.00705" lon="4.76115">
        <ele>225</ele>
        <time>2017-12-23T11:50:39Z</time>
      </trkpt>
      <trkpt lat="46.00703" lon="4.76115">
        <ele>225</ele>
        <time>2017-12-23T11:50:40Z</time>
      </trkpt>
      <trkpt lat="46.00696" lon="4.76116">
        <ele>225</ele>
        <time>2017-12-23T11:50:43Z</time>
      </trkpt>
      <trkpt lat="46.00694" lon="4.76117">
        <ele>225</ele>
        <time>2017-12-23T11:50:44Z</time>
      </trkpt>
      <trkpt lat="46.00685" lon="4.76116">
        <ele>225</ele>
        <time>2017-12-23T11:50:48Z</time>
      </trkpt>
      <trkpt lat="46.00683" lon="4.76116">
        <ele>225</ele>
        <time>2017-12-23T11:50:49Z</time>
      </trkpt>
      <trkpt lat="46.00676" lon="4.7612">
        <ele>226</ele>
        <time>2017-12-23T11:50:53Z</time>
      </trkpt>
      <trkpt lat="46.00674" lon="4.76121">
        <ele>226</ele>
        <time>2017-12-23T11:50:54Z</time>
      </trkpt>
      <trkpt lat="46.00666" lon="4.76122">
        <ele>228</ele>
        <time>2017-12-23T11:50:58Z</time>
      </trkpt>
      <trkpt lat="46.00664" lon="4.76122">
        <ele>228</ele>
        <time>2017-12-23T11:50:59Z</time>
      </trkpt>
      <trkpt lat="46.00656" lon="4.7612">
        <ele>228</ele>
        <time>2017-12-23T11:51:03Z</time>
      </trkpt>
      <trkpt lat="46.00654" lon="4.76119">
        <ele>228</ele>
        <time>2017-12-23T11:51:04Z</time>
      </trkpt>
      <trkpt lat="46.00646" lon="4.76116">
        <ele>228</ele>
        <time>2017-12-23T11:51:09Z</time>
      </trkpt>
      <trkpt lat="46.00644" lon="4.76115">
        <ele>228</ele>
        <time>2017-12-23T11:51:10Z</time>
      </trkpt>
      <trkpt lat="46.00637" lon="4.7611">
        <ele>228</ele>
        <time>2017-12-23T11:51:14Z</time>
      </trkpt>
      <trkpt lat="46.00635" lon="4.7611">
        <ele>228</ele>
        <time>2017-12-23T11:51:15Z</time>
      </trkpt>
      <trkpt lat="46.00629" lon="4.76119">
        <ele>228</ele>
        <time>2017-12-23T11:51:19Z</time>
      </trkpt>
      <trkpt lat="46.00628" lon="4.76124">
        <ele>228</ele>
        <time>2017-12-23T11:51:20Z</time>
      </trkpt>
      <trkpt lat="46.00629" lon="4.76136">
        <ele>228</ele>
        <time>2017-12-23T11:51:23Z</time>
      </trkpt>
      <trkpt lat="46.00629" lon="4.7614">
        <ele>228</ele>
        <time>2017-12-23T11:51:24Z</time>
      </trkpt>
      <trkpt lat="46.00629" lon="4.76151">
        <ele>228</ele>
        <time>2017-12-23T11:51:27Z</time>
      </trkpt>
      <trkpt lat="46.00628" lon="4.76155">
        <ele>228</ele>
        <time>2017-12-23T11:51:28Z</time>
      </trkpt>
      <trkpt lat="46.00628" lon="4.76167">
        <ele>228</ele>
        <time>2017-12-23T11:51:31Z</time>
      </trkpt>
      <trkpt lat="46.00628" lon="4.7617">
        <ele>230</ele>
        <time>2017-12-23T11:51:32Z</time>
      </trkpt>
      <trkpt lat="46.00626" lon="4.76182">
        <ele>230</ele>
        <time>2017-12-23T11:51:35Z</time>
      </trkpt>
      <trkpt lat="46.00625" lon="4.76186">
        <ele>230</ele>
        <time>2017-12-23T11:51:36Z</time>
      </trkpt>
      <trkpt lat="46.00622" lon="4.76193">
        <ele>230</ele>
        <time>2017-12-23T11:51:38Z</time>
      </trkpt>
      <trkpt lat="46.00619" lon="4.76195">
        <ele>230</ele>
        <time>2017-12-23T11:51:39Z</time>
      </trkpt>
      <trkpt lat="46.00613" lon="4.76197">
        <ele>230</ele>
        <time>2017-12-23T11:51:41Z</time>
      </trkpt>
      <trkpt lat="46.00609" lon="4.76196">
        <ele>230</ele>
        <time>2017-12-23T11:51:42Z</time>
      </trkpt>
      <trkpt lat="46.00604" lon="4.76192">
        <ele>230</ele>
        <time>2017-12-23T11:51:43Z</time>
      </trkpt>
      <trkpt lat="46.00601" lon="4.7619">
        <ele>230</ele>
        <time>2017-12-23T11:51:44Z</time>
      </trkpt>
      <trkpt lat="46.00596" lon="4.76188">
        <ele>230</ele>
        <time>2017-12-23T11:51:45Z</time>
      </trkpt>
      <trkpt lat="46.00591" lon="4.76186">
        <ele>230</ele>
        <time>2017-12-23T11:51:46Z</time>
      </trkpt>
      <trkpt lat="46.00585" lon="4.76185">
        <ele>230</ele>
        <time>2017-12-23T11:51:47Z</time>
      </trkpt>
      <trkpt lat="46.00579" lon="4.76183">
        <ele>230</ele>
        <time>2017-12-23T11:51:48Z</time>
      </trkpt>
      <trkpt lat="46.00573" lon="4.76182">
        <ele>230</ele>
        <time>2017-12-23T11:51:49Z</time>
      </trkpt>
      <trkpt lat="46.00566" lon="4.7618">
        <ele>230</ele>
        <time>2017-12-23T11:51:50Z</time>
      </trkpt>
      <trkpt lat="46.00559" lon="4.76178">
        <ele>230</ele>
        <time>2017-12-23T11:51:51Z</time>
      </trkpt>
      <trkpt lat="46.00553" lon="4.76175">
        <ele>230</ele>
        <time>2017-12-23T11:51:52Z</time>
      </trkpt>
      <trkpt lat="46.00546" lon="4.76172">
        <ele>230</ele>
        <time>2017-12-23T11:51:53Z</time>
      </trkpt>
      <trkpt lat="46.0054" lon="4.76169">
        <ele>230</ele>
        <time>2017-12-23T11:51:54Z</time>
      </trkpt>
      <trkpt lat="46.00533" lon="4.76163">
        <ele>228</ele>
        <time>2017-12-23T11:51:55Z</time>
      </trkpt>
      <trkpt lat="46.00527" lon="4.76157">
        <ele>228</ele>
        <time>2017-12-23T11:51:56Z</time>
      </trkpt>
      <trkpt lat="46.0052" lon="4.76149">
        <ele>228</ele>
        <time>2017-12-23T11:51:57Z</time>
      </trkpt>
      <trkpt lat="46.00513" lon="4.76142">
        <ele>228</ele>
        <time>2017-12-23T11:51:58Z</time>
      </trkpt>
      <trkpt lat="46.00506" lon="4.76134">
        <ele>227</ele>
        <time>2017-12-23T11:51:59Z</time>
      </trkpt>
      <trkpt lat="46.00498" lon="4.76127">
        <ele>227</ele>
        <time>2017-12-23T11:52:00Z</time>
      </trkpt>
      <trkpt lat="46.00491" lon="4.7612">
        <ele>227</ele>
        <time>2017-12-23T11:52:01Z</time>
      </trkpt>
      <trkpt lat="46.00484" lon="4.76114">
        <ele>227</ele>
        <time>2017-12-23T11:52:02Z</time>
      </trkpt>
      <trkpt lat="46.00476" lon="4.76106">
        <ele>227</ele>
        <time>2017-12-23T11:52:03Z</time>
      </trkpt>
      <trkpt lat="46.00469" lon="4.76097">
        <ele>227</ele>
        <time>2017-12-23T11:52:04Z</time>
      </trkpt>
      <trkpt lat="46.00461" lon="4.7609">
        <ele>227</ele>
        <time>2017-12-23T11:52:05Z</time>
      </trkpt>
      <trkpt lat="46.00454" lon="4.76083">
        <ele>227</ele>
        <time>2017-12-23T11:52:06Z</time>
      </trkpt>
      <trkpt lat="46.00446" lon="4.76079">
        <ele>224</ele>
        <time>2017-12-23T11:52:07Z</time>
      </trkpt>
      <trkpt lat="46.00436" lon="4.76075">
        <ele>224</ele>
        <time>2017-12-23T11:52:08Z</time>
      </trkpt>
      <trkpt lat="46.00426" lon="4.76071">
        <ele>224</ele>
        <time>2017-12-23T11:52:09Z</time>
      </trkpt>
      <trkpt lat="46.00417" lon="4.7607">
        <ele>225</ele>
        <time>2017-12-23T11:52:10Z</time>
      </trkpt>
      <trkpt lat="46.00407" lon="4.76069">
        <ele>226</ele>
        <time>2017-12-23T11:52:11Z</time>
      </trkpt>
      <trkpt lat="46.00398" lon="4.7607">
        <ele>226</ele>
        <time>2017-12-23T11:52:12Z</time>
      </trkpt>
      <trkpt lat="46.00391" lon="4.76071">
        <ele>226</ele>
        <time>2017-12-23T11:52:13Z</time>
      </trkpt>
      <trkpt lat="46.00384" lon="4.76073">
        <ele>226</ele>
        <time>2017-12-23T11:52:14Z</time>
      </trkpt>
      <trkpt lat="46.00379" lon="4.76068">
        <ele>226</ele>
        <time>2017-12-23T11:52:15Z</time>
      </trkpt>
      <trkpt lat="46.00374" lon="4.76065">
        <ele>226</ele>
        <time>2017-12-23T11:52:16Z</time>
      </trkpt>
      <trkpt lat="46.0037" lon="4.76061">
        <ele>226</ele>
        <time>2017-12-23T11:52:17Z</time>
      </trkpt>
      <trkpt lat="46.00375" lon="4.76051">
        <ele>225</ele>
        <time>2017-12-23T11:52:18Z</time>
      </trkpt>
      <trkpt lat="46.00377" lon="4.76044">
        <ele>225</ele>
        <time>2017-12-23T11:52:19Z</time>
      </trkpt>
      <trkpt lat="46.0038" lon="4.76037">
        <ele>225</ele>
        <time>2017-12-23T11:52:20Z</time>
      </trkpt>
      <trkpt lat="46.00384" lon="4.76033">
        <ele>225</ele>
        <time>2017-12-23T11:52:21Z</time>
      </trkpt>
      <trkpt lat="46.00388" lon="4.7603">
        <ele>225</ele>
        <time>2017-12-23T11:52:22Z</time>
      </trkpt>
      <trkpt lat="46.00394" lon="4.76026">
        <ele>224</ele>
        <time>2017-12-23T11:52:23Z</time>
      </trkpt>
      <trkpt lat="46.004" lon="4.7602">
        <ele>224</ele>
        <time>2017-12-23T11:52:24Z</time>
      </trkpt>
      <trkpt lat="46.00406" lon="4.76014">
        <ele>223</ele>
        <time>2017-12-23T11:52:25Z</time>
      </trkpt>
      <trkpt lat="46.00411" lon="4.7601">
        <ele>223</ele>
        <time>2017-12-23T11:52:26Z</time>
      </trkpt>
      <trkpt lat="46.00417" lon="4.76004">
        <ele>222</ele>
        <time>2017-12-23T11:52:27Z</time>
      </trkpt>
      <trkpt lat="46.00421" lon="4.75999">
        <ele>221</ele>
        <time>2017-12-23T11:52:28Z</time>
      </trkpt>
      <trkpt lat="46.00426" lon="4.75994">
        <ele>220</ele>
        <time>2017-12-23T11:52:29Z</time>
      </trkpt>
      <trkpt lat="46.00433" lon="4.75987">
        <ele>220</ele>
        <time>2017-12-23T11:52:30Z</time>
      </trkpt>
      <trkpt lat="46.00441" lon="4.75975">
        <ele>219</ele>
        <time>2017-12-23T11:52:31Z</time>
      </trkpt>
      <trkpt lat="46.00446" lon="4.75965">
        <ele>219</ele>
        <time>2017-12-23T11:52:32Z</time>
      </trkpt>
      <trkpt lat="46.00447" lon="4.75952">
        <ele>219</ele>
        <time>2017-12-23T11:52:33Z</time>
      </trkpt>
      <trkpt lat="46.00448" lon="4.7594">
        <ele>218</ele>
        <time>2017-12-23T11:52:34Z</time>
      </trkpt>
      <trkpt lat="46.00447" lon="4.75928">
        <ele>218</ele>
        <time>2017-12-23T11:52:35Z</time>
      </trkpt>
      <trkpt lat="46.00444" lon="4.75917">
        <ele>217</ele>
        <time>2017-12-23T11:52:36Z</time>
      </trkpt>
      <trkpt lat="46.00442" lon="4.75906">
        <ele>217</ele>
        <time>2017-12-23T11:52:37Z</time>
      </trkpt>
      <trkpt lat="46.00437" lon="4.75895">
        <ele>217</ele>
        <time>2017-12-23T11:52:38Z</time>
      </trkpt>
      <trkpt lat="46.00432" lon="4.75885">
        <ele>217</ele>
        <time>2017-12-23T11:52:39Z</time>
      </trkpt>
      <trkpt lat="46.00428" lon="4.75876">
        <ele>217</ele>
        <time>2017-12-23T11:52:40Z</time>
      </trkpt>
      <trkpt lat="46.00423" lon="4.75864">
        <ele>216</ele>
        <time>2017-12-23T11:52:41Z</time>
      </trkpt>
      <trkpt lat="46.00417" lon="4.75852">
        <ele>215</ele>
        <time>2017-12-23T11:52:42Z</time>
      </trkpt>
      <trkpt lat="46.00411" lon="4.75841">
        <ele>214</ele>
        <time>2017-12-23T11:52:43Z</time>
      </trkpt>
      <trkpt lat="46.00403" lon="4.7583">
        <ele>213</ele>
        <time>2017-12-23T11:52:44Z</time>
      </trkpt>
      <trkpt lat="46.00397" lon="4.75818">
        <ele>213</ele>
        <time>2017-12-23T11:52:45Z</time>
      </trkpt>
      <trkpt lat="46.0039" lon="4.75807">
        <ele>213</ele>
        <time>2017-12-23T11:52:46Z</time>
      </trkpt>
      <trkpt lat="46.00382" lon="4.75797">
        <ele>213</ele>
        <time>2017-12-23T11:52:47Z</time>
      </trkpt>
      <trkpt lat="46.00375" lon="4.75788">
        <ele>213</ele>
        <time>2017-12-23T11:52:48Z</time>
      </trkpt>
      <trkpt lat="46.00369" lon="4.75777">
        <ele>213</ele>
        <time>2017-12-23T11:52:49Z</time>
      </trkpt>
      <trkpt lat="46.00361" lon="4.75767">
        <ele>212</ele>
        <time>2017-12-23T11:52:50Z</time>
      </trkpt>
      <trkpt lat="46.00354" lon="4.75756">
        <ele>211</ele>
        <time>2017-12-23T11:52:51Z</time>
      </trkpt>
      <trkpt lat="46.00347" lon="4.75746">
        <ele>210</ele>
        <time>2017-12-23T11:52:52Z</time>
      </trkpt>
      <trkpt lat="46.00342" lon="4.75731">
        <ele>210</ele>
        <time>2017-12-23T11:52:53Z</time>
      </trkpt>
      <trkpt lat="46.00336" lon="4.75719">
        <ele>210</ele>
        <time>2017-12-23T11:52:54Z</time>
      </trkpt>
      <trkpt lat="46.00329" lon="4.75709">
        <ele>208</ele>
        <time>2017-12-23T11:52:55Z</time>
      </trkpt>
      <trkpt lat="46.00322" lon="4.757">
        <ele>208</ele>
        <time>2017-12-23T11:52:56Z</time>
      </trkpt>
      <trkpt lat="46.00316" lon="4.7569">
        <ele>207</ele>
        <time>2017-12-23T11:52:57Z</time>
      </trkpt>
      <trkpt lat="46.00309" lon="4.7568">
        <ele>207</ele>
        <time>2017-12-23T11:52:58Z</time>
      </trkpt>
      <trkpt lat="46.00302" lon="4.75669">
        <ele>208</ele>
        <time>2017-12-23T11:52:59Z</time>
      </trkpt>
      <trkpt lat="46.00295" lon="4.75658">
        <ele>206</ele>
        <time>2017-12-23T11:53:00Z</time>
      </trkpt>
      <trkpt lat="46.00289" lon="4.75648">
        <ele>206</ele>
        <time>2017-12-23T11:53:01Z</time>
      </trkpt>
      <trkpt lat="46.00282" lon="4.75638">
        <ele>206</ele>
        <time>2017-12-23T11:53:02Z</time>
      </trkpt>
      <trkpt lat="46.00274" lon="4.75627">
        <ele>206</ele>
        <time>2017-12-23T11:53:03Z</time>
      </trkpt>
      <trkpt lat="46.00267" lon="4.75617">
        <ele>206</ele>
        <time>2017-12-23T11:53:04Z</time>
      </trkpt>
      <trkpt lat="46.00259" lon="4.75606">
        <ele>205</ele>
        <time>2017-12-23T11:53:05Z</time>
      </trkpt>
      <trkpt lat="46.00252" lon="4.75595">
        <ele>205</ele>
        <time>2017-12-23T11:53:06Z</time>
      </trkpt>
      <trkpt lat="46.00245" lon="4.75586">
        <ele>206</ele>
        <time>2017-12-23T11:53:07Z</time>
      </trkpt>
      <trkpt lat="46.00238" lon="4.75574">
        <ele>205</ele>
        <time>2017-12-23T11:53:08Z</time>
      </trkpt>
      <trkpt lat="46.00231" lon="4.75562">
        <ele>206</ele>
        <time>2017-12-23T11:53:09Z</time>
      </trkpt>
      <trkpt lat="46.00225" lon="4.7555">
        <ele>206</ele>
        <time>2017-12-23T11:53:10Z</time>
      </trkpt>
      <trkpt lat="46.00222" lon="4.75534">
        <ele>205</ele>
        <time>2017-12-23T11:53:11Z</time>
      </trkpt>
      <trkpt lat="46.00221" lon="4.75518">
        <ele>204</ele>
        <time>2017-12-23T11:53:12Z</time>
      </trkpt>
      <trkpt lat="46.00218" lon="4.75504">
        <ele>203</ele>
        <time>2017-12-23T11:53:13Z</time>
      </trkpt>
      <trkpt lat="46.00218" lon="4.75487">
        <ele>198</ele>
        <time>2017-12-23T11:53:14Z</time>
      </trkpt>
      <trkpt lat="46.00218" lon="4.75471">
        <ele>198</ele>
        <time>2017-12-23T11:53:15Z</time>
      </trkpt>
      <trkpt lat="46.00218" lon="4.75454">
        <ele>197</ele>
        <time>2017-12-23T11:53:16Z</time>
      </trkpt>
      <trkpt lat="46.00218" lon="4.75439">
        <ele>197</ele>
        <time>2017-12-23T11:53:17Z</time>
      </trkpt>
      <trkpt lat="46.00217" lon="4.75423">
        <ele>196</ele>
        <time>2017-12-23T11:53:18Z</time>
      </trkpt>
      <trkpt lat="46.00216" lon="4.75407">
        <ele>192</ele>
        <time>2017-12-23T11:53:19Z</time>
      </trkpt>
      <trkpt lat="46.00215" lon="4.75391">
        <ele>192</ele>
        <time>2017-12-23T11:53:20Z</time>
      </trkpt>
      <trkpt lat="46.00216" lon="4.75375">
        <ele>191</ele>
        <time>2017-12-23T11:53:21Z</time>
      </trkpt>
      <trkpt lat="46.00217" lon="4.75358">
        <ele>191</ele>
        <time>2017-12-23T11:53:22Z</time>
      </trkpt>
      <trkpt lat="46.00217" lon="4.75343">
        <ele>190</ele>
        <time>2017-12-23T11:53:23Z</time>
      </trkpt>
      <trkpt lat="46.00217" lon="4.75329">
        <ele>186</ele>
        <time>2017-12-23T11:53:24Z</time>
      </trkpt>
      <trkpt lat="46.00217" lon="4.75313">
        <ele>186</ele>
        <time>2017-12-23T11:53:25Z</time>
      </trkpt>
      <trkpt lat="46.00216" lon="4.75296">
        <ele>185</ele>
        <time>2017-12-23T11:53:26Z</time>
      </trkpt>
      <trkpt lat="46.00216" lon="4.7528">
        <ele>184</ele>
        <time>2017-12-23T11:53:27Z</time>
      </trkpt>
      <trkpt lat="46.00216" lon="4.75265">
        <ele>184</ele>
        <time>2017-12-23T11:53:28Z</time>
      </trkpt>
      <trkpt lat="46.00216" lon="4.75249">
        <ele>180</ele>
        <time>2017-12-23T11:53:29Z</time>
      </trkpt>
      <trkpt lat="46.00216" lon="4.75234">
        <ele>180</ele>
        <time>2017-12-23T11:53:30Z</time>
      </trkpt>
      <trkpt lat="46.00216" lon="4.7522">
        <ele>180</ele>
        <time>2017-12-23T11:53:31Z</time>
      </trkpt>
      <trkpt lat="46.00216" lon="4.75207">
        <ele>180</ele>
        <time>2017-12-23T11:53:32Z</time>
      </trkpt>
      <trkpt lat="46.00216" lon="4.75196">
        <ele>179</ele>
        <time>2017-12-23T11:53:33Z</time>
      </trkpt>
      <trkpt lat="46.00217" lon="4.75184">
        <ele>179</ele>
        <time>2017-12-23T11:53:34Z</time>
      </trkpt>
      <trkpt lat="46.00217" lon="4.75174">
        <ele>179</ele>
        <time>2017-12-23T11:53:35Z</time>
      </trkpt>
      <trkpt lat="46.00217" lon="4.75163">
        <ele>177</ele>
        <time>2017-12-23T11:53:36Z</time>
      </trkpt>
      <trkpt lat="46.00217" lon="4.75154">
        <ele>177</ele>
        <time>2017-12-23T11:53:37Z</time>
      </trkpt>
      <trkpt lat="46.00216" lon="4.75147">
        <ele>177</ele>
        <time>2017-12-23T11:53:38Z</time>
      </trkpt>
      <trkpt lat="46.00216" lon="4.75141">
        <ele>177</ele>
        <time>2017-12-23T11:53:39Z</time>
      </trkpt>
      <trkpt lat="46.00216" lon="4.7513">
        <ele>176</ele>
        <time>2017-12-23T11:53:41Z</time>
      </trkpt>
      <trkpt lat="46.00217" lon="4.75126">
        <ele>176</ele>
        <time>2017-12-23T11:53:42Z</time>
      </trkpt>
      <trkpt lat="46.00218" lon="4.75114">
        <ele>176</ele>
        <time>2017-12-23T11:53:46Z</time>
      </trkpt>
      <trkpt lat="46.00217" lon="4.75112">
        <ele>176</ele>
        <time>2017-12-23T11:53:47Z</time>
      </trkpt>
      <trkpt lat="46.00211" lon="4.75106">
        <ele>176</ele>
        <time>2017-12-23T11:53:50Z</time>
      </trkpt>
      <trkpt lat="46.00208" lon="4.75105">
        <ele>176</ele>
        <time>2017-12-23T11:53:51Z</time>
      </trkpt>
      <trkpt lat="46.00202" lon="4.75105">
        <ele>176</ele>
        <time>2017-12-23T11:53:53Z</time>
      </trkpt>
      <trkpt lat="46.00198" lon="4.75106">
        <ele>176</ele>
        <time>2017-12-23T11:53:54Z</time>
      </trkpt>
      <trkpt lat="46.0019" lon="4.75108">
        <ele>176</ele>
        <time>2017-12-23T11:53:56Z</time>
      </trkpt>
      <trkpt lat="46.00185" lon="4.75108">
        <ele>176</ele>
        <time>2017-12-23T11:53:57Z</time>
      </trkpt>
      <trkpt lat="46.00181" lon="4.75108">
        <ele>176</ele>
        <time>2017-12-23T11:53:58Z</time>
      </trkpt>
      <trkpt lat="46.00175" lon="4.75108">
        <ele>176</ele>
        <time>2017-12-23T11:53:59Z</time>
      </trkpt>
      <trkpt lat="46.0017" lon="4.75107">
        <ele>176</ele>
        <time>2017-12-23T11:54:00Z</time>
      </trkpt>
      <trkpt lat="46.00166" lon="4.75106">
        <ele>175</ele>
        <time>2017-12-23T11:54:01Z</time>
      </trkpt>
      <trkpt lat="46.0016" lon="4.75107">
        <ele>175</ele>
        <time>2017-12-23T11:54:02Z</time>
      </trkpt>
      <trkpt lat="46.00154" lon="4.75109">
        <ele>175</ele>
        <time>2017-12-23T11:54:03Z</time>
      </trkpt>
      <trkpt lat="46.00149" lon="4.75108">
        <ele>175</ele>
        <time>2017-12-23T11:54:04Z</time>
      </trkpt>
      <trkpt lat="46.00144" lon="4.75108">
        <ele>175</ele>
        <time>2017-12-23T11:54:05Z</time>
      </trkpt>
      <trkpt lat="46.00138" lon="4.75108">
        <ele>175</ele>
        <time>2017-12-23T11:54:06Z</time>
      </trkpt>
      <trkpt lat="46.00133" lon="4.75109">
        <ele>175</ele>
        <time>2017-12-23T11:54:07Z</time>
      </trkpt>
      <trkpt lat="46.00128" lon="4.75109">
        <ele>175</ele>
        <time>2017-12-23T11:54:08Z</time>
      </trkpt>
      <trkpt lat="46.00123" lon="4.75111">
        <ele>175</ele>
        <time>2017-12-23T11:54:09Z</time>
      </trkpt>
      <trkpt lat="46.00117" lon="4.7511">
        <ele>175</ele>
        <time>2017-12-23T11:54:10Z</time>
      </trkpt>
      <trkpt lat="46.00113" lon="4.75108">
        <ele>175</ele>
        <time>2017-12-23T11:54:11Z</time>
      </trkpt>
      <trkpt lat="46.00107" lon="4.75108">
        <ele>175</ele>
        <time>2017-12-23T11:54:12Z</time>
      </trkpt>
      <trkpt lat="46.00101" lon="4.75108">
        <ele>175</ele>
        <time>2017-12-23T11:54:13Z</time>
      </trkpt>
      <trkpt lat="46.00095" lon="4.75107">
        <ele>175</ele>
        <time>2017-12-23T11:54:14Z</time>
      </trkpt>
      <trkpt lat="46.00089" lon="4.75107">
        <ele>174</ele>
        <time>2017-12-23T11:54:15Z</time>
      </trkpt>
      <trkpt lat="46.00083" lon="4.75104">
        <ele>174</ele>
        <time>2017-12-23T11:54:16Z</time>
      </trkpt>
      <trkpt lat="46.00078" lon="4.75103">
        <ele>174</ele>
        <time>2017-12-23T11:54:17Z</time>
      </trkpt>
      <trkpt lat="46.00073" lon="4.75103">
        <ele>174</ele>
        <time>2017-12-23T11:54:18Z</time>
      </trkpt>
      <trkpt lat="46.00067" lon="4.75104">
        <ele>174</ele>
        <time>2017-12-23T11:54:19Z</time>
      </trkpt>
      <trkpt lat="46.00062" lon="4.75104">
        <ele>174</ele>
        <time>2017-12-23T11:54:20Z</time>
      </trkpt>
      <trkpt lat="46.00057" lon="4.75105">
        <ele>174</ele>
        <time>2017-12-23T11:54:21Z</time>
      </trkpt>
      <trkpt lat="46.00051" lon="4.75106">
        <ele>174</ele>
        <time>2017-12-23T11:54:22Z</time>
      </trkpt>
      <trkpt lat="46.00046" lon="4.75105">
        <ele>174</ele>
        <time>2017-12-23T11:54:23Z</time>
      </trkpt>
      <trkpt lat="46.0004" lon="4.75105">
        <ele>174</ele>
        <time>2017-12-23T11:54:24Z</time>
      </trkpt>
      <trkpt lat="46.00034" lon="4.75107">
        <ele>174</ele>
        <time>2017-12-23T11:54:25Z</time>
      </trkpt>
      <trkpt lat="46.00028" lon="4.75108">
        <ele>174</ele>
        <time>2017-12-23T11:54:26Z</time>
      </trkpt>
      <trkpt lat="46.00024" lon="4.75108">
        <ele>174</ele>
        <time>2017-12-23T11:54:27Z</time>
      </trkpt>
      <trkpt lat="46.00018" lon="4.75107">
        <ele>174</ele>
        <time>2017-12-23T11:54:28Z</time>
      </trkpt>
      <trkpt lat="46.00012" lon="4.75107">
        <ele>174</ele>
        <time>2017-12-23T11:54:29Z</time>
      </trkpt>
      <trkpt lat="46.00007" lon="4.7511">
        <ele>174</ele>
        <time>2017-12-23T11:54:30Z</time>
      </trkpt>
      <trkpt lat="46" lon="4.75115">
        <ele>173</ele>
        <time>2017-12-23T11:54:31Z</time>
      </trkpt>
      <trkpt lat="45.99995" lon="4.75117">
        <ele>173</ele>
        <time>2017-12-23T11:54:32Z</time>
      </trkpt>
      <trkpt lat="45.99989" lon="4.75121">
        <ele>173</ele>
        <time>2017-12-23T11:54:33Z</time>
      </trkpt>
      <trkpt lat="45.99983" lon="4.75124">
        <ele>173</ele>
        <time>2017-12-23T11:54:34Z</time>
      </trkpt>
      <trkpt lat="45.99977" lon="4.75127">
        <ele>173</ele>
        <time>2017-12-23T11:54:35Z</time>
      </trkpt>
      <trkpt lat="45.99971" lon="4.7513">
        <ele>173</ele>
        <time>2017-12-23T11:54:36Z</time>
      </trkpt>
      <trkpt lat="45.99965" lon="4.75133">
        <ele>173</ele>
        <time>2017-12-23T11:54:37Z</time>
      </trkpt>
      <trkpt lat="45.9996" lon="4.75134">
        <ele>173</ele>
        <time>2017-12-23T11:54:38Z</time>
      </trkpt>
      <trkpt lat="45.99954" lon="4.75138">
        <ele>173</ele>
        <time>2017-12-23T11:54:39Z</time>
      </trkpt>
      <trkpt lat="45.99948" lon="4.75141">
        <ele>173</ele>
        <time>2017-12-23T11:54:40Z</time>
      </trkpt>
      <trkpt lat="45.99941" lon="4.75144">
        <ele>173</ele>
        <time>2017-12-23T11:54:41Z</time>
      </trkpt>
      <trkpt lat="45.99936" lon="4.75147">
        <ele>173</ele>
        <time>2017-12-23T11:54:42Z</time>
      </trkpt>
      <trkpt lat="45.9993" lon="4.75149">
        <ele>173</ele>
        <time>2017-12-23T11:54:43Z</time>
      </trkpt>
      <trkpt lat="45.99924" lon="4.75151">
        <ele>173</ele>
        <time>2017-12-23T11:54:44Z</time>
      </trkpt>
      <trkpt lat="45.99919" lon="4.75154">
        <ele>173</ele>
        <time>2017-12-23T11:54:45Z</time>
      </trkpt>
      <trkpt lat="45.99913" lon="4.75156">
        <ele>173</ele>
        <time>2017-12-23T11:54:46Z</time>
      </trkpt>
      <trkpt lat="45.99907" lon="4.75159">
        <ele>173</ele>
        <time>2017-12-23T11:54:47Z</time>
      </trkpt>
      <trkpt lat="45.99901" lon="4.75162">
        <ele>172</ele>
        <time>2017-12-23T11:54:48Z</time>
      </trkpt>
      <trkpt lat="45.99895" lon="4.75164">
        <ele>172</ele>
        <time>2017-12-23T11:54:49Z</time>
      </trkpt>
      <trkpt lat="45.99889" lon="4.75168">
        <ele>174</ele>
        <time>2017-12-23T11:54:50Z</time>
      </trkpt>
      <trkpt lat="45.99883" lon="4.7517">
        <ele>174</ele>
        <time>2017-12-23T11:54:51Z</time>
      </trkpt>
      <trkpt lat="45.99877" lon="4.75173">
        <ele>174</ele>
        <time>2017-12-23T11:54:52Z</time>
      </trkpt>
      <trkpt lat="45.99871" lon="4.75174">
        <ele>174</ele>
        <time>2017-12-23T11:54:53Z</time>
      </trkpt>
      <trkpt lat="45.99866" lon="4.75177">
        <ele>174</ele>
        <time>2017-12-23T11:54:54Z</time>
      </trkpt>
      <trkpt lat="45.99861" lon="4.75179">
        <ele>174</ele>
        <time>2017-12-23T11:54:55Z</time>
      </trkpt>
      <trkpt lat="45.99855" lon="4.75182">
        <ele>174</ele>
        <time>2017-12-23T11:54:56Z</time>
      </trkpt>
      <trkpt lat="45.9985" lon="4.75184">
        <ele>174</ele>
        <time>2017-12-23T11:54:57Z</time>
      </trkpt>
      <trkpt lat="45.99846" lon="4.75187">
        <ele>174</ele>
        <time>2017-12-23T11:54:58Z</time>
      </trkpt>
      <trkpt lat="45.99841" lon="4.75188">
        <ele>174</ele>
        <time>2017-12-23T11:54:59Z</time>
      </trkpt>
      <trkpt lat="45.99835" lon="4.75191">
        <ele>174</ele>
        <time>2017-12-23T11:55:00Z</time>
      </trkpt>
      <trkpt lat="45.99829" lon="4.75195">
        <ele>174</ele>
        <time>2017-12-23T11:55:01Z</time>
      </trkpt>
      <trkpt lat="45.99823" lon="4.75197">
        <ele>174</ele>
        <time>2017-12-23T11:55:02Z</time>
      </trkpt>
      <trkpt lat="45.99818" lon="4.75199">
        <ele>174</ele>
        <time>2017-12-23T11:55:03Z</time>
      </trkpt>
      <trkpt lat="45.99812" lon="4.75202">
        <ele>174</ele>
        <time>2017-12-23T11:55:04Z</time>
      </trkpt>
      <trkpt lat="45.99807" lon="4.75205">
        <ele>174</ele>
        <time>2017-12-23T11:55:05Z</time>
      </trkpt>
      <trkpt lat="45.99801" lon="4.75208">
        <ele>174</ele>
        <time>2017-12-23T11:55:06Z</time>
      </trkpt>
      <trkpt lat="45.99795" lon="4.75211">
        <ele>174</ele>
        <time>2017-12-23T11:55:07Z</time>
      </trkpt>
      <trkpt lat="45.99789" lon="4.75213">
        <ele>174</ele>
        <time>2017-12-23T11:55:08Z</time>
      </trkpt>
      <trkpt lat="45.99783" lon="4.75216">
        <ele>174</ele>
        <time>2017-12-23T11:55:09Z</time>
      </trkpt>
      <trkpt lat="45.99776" lon="4.75219">
        <ele>175</ele>
        <time>2017-12-23T11:55:10Z</time>
      </trkpt>
      <trkpt lat="45.9977" lon="4.75222">
        <ele>175</ele>
        <time>2017-12-23T11:55:11Z</time>
      </trkpt>
      <trkpt lat="45.99764" lon="4.75225">
        <ele>175</ele>
        <time>2017-12-23T11:55:12Z</time>
      </trkpt>
      <trkpt lat="45.9976" lon="4.75228">
        <ele>175</ele>
        <time>2017-12-23T11:55:13Z</time>
      </trkpt>
      <trkpt lat="45.99754" lon="4.7523">
        <ele>175</ele>
        <time>2017-12-23T11:55:14Z</time>
      </trkpt>
      <trkpt lat="45.99749" lon="4.75231">
        <ele>175</ele>
        <time>2017-12-23T11:55:15Z</time>
      </trkpt>
      <trkpt lat="45.99743" lon="4.75234">
        <ele>175</ele>
        <time>2017-12-23T11:55:16Z</time>
      </trkpt>
      <trkpt lat="45.99737" lon="4.75237">
        <ele>175</ele>
        <time>2017-12-23T11:55:17Z</time>
      </trkpt>
      <trkpt lat="45.99731" lon="4.75239">
        <ele>175</ele>
        <time>2017-12-23T11:55:18Z</time>
      </trkpt>
      <trkpt lat="45.99725" lon="4.75242">
        <ele>175</ele>
        <time>2017-12-23T11:55:19Z</time>
      </trkpt>
      <trkpt lat="45.9972" lon="4.75245">
        <ele>174</ele>
        <time>2017-12-23T11:55:20Z</time>
      </trkpt>
      <trkpt lat="45.99715" lon="4.75248">
        <ele>174</ele>
        <time>2017-12-23T11:55:21Z</time>
      </trkpt>
      <trkpt lat="45.99709" lon="4.75251">
        <ele>176</ele>
        <time>2017-12-23T11:55:22Z</time>
      </trkpt>
      <trkpt lat="45.99703" lon="4.75253">
        <ele>176</ele>
        <time>2017-12-23T11:55:23Z</time>
      </trkpt>
      <trkpt lat="45.99697" lon="4.75256">
        <ele>176</ele>
        <time>2017-12-23T11:55:24Z</time>
      </trkpt>
      <trkpt lat="45.99691" lon="4.75259">
        <ele>176</ele>
        <time>2017-12-23T11:55:25Z</time>
      </trkpt>
      <trkpt lat="45.99685" lon="4.75261">
        <ele>175</ele>
        <time>2017-12-23T11:55:26Z</time>
      </trkpt>
      <trkpt lat="45.9968" lon="4.75262">
        <ele>175</ele>
        <time>2017-12-23T11:55:27Z</time>
      </trkpt>
      <trkpt lat="45.99674" lon="4.75265">
        <ele>175</ele>
        <time>2017-12-23T11:55:28Z</time>
      </trkpt>
      <trkpt lat="45.99668" lon="4.75268">
        <ele>175</ele>
        <time>2017-12-23T11:55:29Z</time>
      </trkpt>
      <trkpt lat="45.99662" lon="4.75271">
        <ele>174</ele>
        <time>2017-12-23T11:55:30Z</time>
      </trkpt>
      <trkpt lat="45.99657" lon="4.75273">
        <ele>174</ele>
        <time>2017-12-23T11:55:31Z</time>
      </trkpt>
      <trkpt lat="45.99652" lon="4.75273">
        <ele>174</ele>
        <time>2017-12-23T11:55:32Z</time>
      </trkpt>
      <trkpt lat="45.99646" lon="4.75272">
        <ele>174</ele>
        <time>2017-12-23T11:55:33Z</time>
      </trkpt>
      <trkpt lat="45.99641" lon="4.75272">
        <ele>174</ele>
        <time>2017-12-23T11:55:34Z</time>
      </trkpt>
      <trkpt lat="45.99635" lon="4.75271">
        <ele>174</ele>
        <time>2017-12-23T11:55:35Z</time>
      </trkpt>
      <trkpt lat="45.99631" lon="4.75269">
        <ele>174</ele>
        <time>2017-12-23T11:55:36Z</time>
      </trkpt>
      <trkpt lat="45.99625" lon="4.7527">
        <ele>174</ele>
        <time>2017-12-23T11:55:37Z</time>
      </trkpt>
      <trkpt lat="45.99616" lon="4.75271">
        <ele>174</ele>
        <time>2017-12-23T11:55:39Z</time>
      </trkpt>
      <trkpt lat="45.99612" lon="4.75271">
        <ele>174</ele>
        <time>2017-12-23T11:55:40Z</time>
      </trkpt>
      <trkpt lat="45.99603" lon="4.75273">
        <ele>173</ele>
        <time>2017-12-23T11:55:42Z</time>
      </trkpt>
      <trkpt lat="45.996" lon="4.75274">
        <ele>173</ele>
        <time>2017-12-23T11:55:43Z</time>
      </trkpt>
      <trkpt lat="45.99591" lon="4.75271">
        <ele>173</ele>
        <time>2017-12-23T11:55:45Z</time>
      </trkpt>
      <trkpt lat="45.99587" lon="4.75269">
        <ele>173</ele>
        <time>2017-12-23T11:55:46Z</time>
      </trkpt>
      <trkpt lat="45.99583" lon="4.75267">
        <ele>172</ele>
        <time>2017-12-23T11:55:47Z</time>
      </trkpt>
      <trkpt lat="45.99578" lon="4.75265">
        <ele>172</ele>
        <time>2017-12-23T11:55:48Z</time>
      </trkpt>
      <trkpt lat="45.99573" lon="4.75264">
        <ele>172</ele>
        <time>2017-12-23T11:55:49Z</time>
      </trkpt>
      <trkpt lat="45.99569" lon="4.75264">
        <ele>172</ele>
        <time>2017-12-23T11:55:50Z</time>
      </trkpt>
      <trkpt lat="45.99565" lon="4.75267">
        <ele>172</ele>
        <time>2017-12-23T11:55:51Z</time>
      </trkpt>
      <trkpt lat="45.99561" lon="4.7527">
        <ele>172</ele>
        <time>2017-12-23T11:55:52Z</time>
      </trkpt>
      <trkpt lat="45.99557" lon="4.75274">
        <ele>172</ele>
        <time>2017-12-23T11:55:53Z</time>
      </trkpt>
      <trkpt lat="45.99552" lon="4.75279">
        <ele>172</ele>
        <time>2017-12-23T11:55:54Z</time>
      </trkpt>
      <trkpt lat="45.99549" lon="4.75283">
        <ele>172</ele>
        <time>2017-12-23T11:55:55Z</time>
      </trkpt>
      <trkpt lat="45.99544" lon="4.75287">
        <ele>172</ele>
        <time>2017-12-23T11:55:56Z</time>
      </trkpt>
      <trkpt lat="45.99537" lon="4.75289">
        <ele>172</ele>
        <time>2017-12-23T11:55:57Z</time>
      </trkpt>
      <trkpt lat="45.99531" lon="4.75292">
        <ele>172</ele>
        <time>2017-12-23T11:55:58Z</time>
      </trkpt>
      <trkpt lat="45.99525" lon="4.75294">
        <ele>172</ele>
        <time>2017-12-23T11:55:59Z</time>
      </trkpt>
      <trkpt lat="45.99519" lon="4.75295">
        <ele>172</ele>
        <time>2017-12-23T11:56:00Z</time>
      </trkpt>
      <trkpt lat="45.99513" lon="4.75296">
        <ele>172</ele>
        <time>2017-12-23T11:56:01Z</time>
      </trkpt>
      <trkpt lat="45.99507" lon="4.75298">
        <ele>172</ele>
        <time>2017-12-23T11:56:02Z</time>
      </trkpt>
      <trkpt lat="45.99501" lon="4.75299">
        <ele>172</ele>
        <time>2017-12-23T11:56:03Z</time>
      </trkpt>
      <trkpt lat="45.99495" lon="4.75299">
        <ele>171</ele>
        <time>2017-12-23T11:56:04Z</time>
      </trkpt>
      <trkpt lat="45.99489" lon="4.753">
        <ele>171</ele>
        <time>2017-12-23T11:56:05Z</time>
      </trkpt>
      <trkpt lat="45.99483" lon="4.75302">
        <ele>171</ele>
        <time>2017-12-23T11:56:06Z</time>
      </trkpt>
      <trkpt lat="45.99477" lon="4.75302">
        <ele>171</ele>
        <time>2017-12-23T11:56:07Z</time>
      </trkpt>
      <trkpt lat="45.99471" lon="4.75302">
        <ele>171</ele>
        <time>2017-12-23T11:56:08Z</time>
      </trkpt>
      <trkpt lat="45.99465" lon="4.75304">
        <ele>171</ele>
        <time>2017-12-23T11:56:09Z</time>
      </trkpt>
      <trkpt lat="45.9946" lon="4.75304">
        <ele>171</ele>
        <time>2017-12-23T11:56:10Z</time>
      </trkpt>
      <trkpt lat="45.99454" lon="4.75305">
        <ele>171</ele>
        <time>2017-12-23T11:56:11Z</time>
      </trkpt>
      <trkpt lat="45.99449" lon="4.75307">
        <ele>171</ele>
        <time>2017-12-23T11:56:12Z</time>
      </trkpt>
      <trkpt lat="45.99443" lon="4.75308">
        <ele>171</ele>
        <time>2017-12-23T11:56:13Z</time>
      </trkpt>
      <trkpt lat="45.99437" lon="4.75309">
        <ele>171</ele>
        <time>2017-12-23T11:56:14Z</time>
      </trkpt>
      <trkpt lat="45.99431" lon="4.7531">
        <ele>171</ele>
        <time>2017-12-23T11:56:15Z</time>
      </trkpt>
      <trkpt lat="45.99426" lon="4.7531">
        <ele>171</ele>
        <time>2017-12-23T11:56:16Z</time>
      </trkpt>
      <trkpt lat="45.9942" lon="4.75312">
        <ele>171</ele>
        <time>2017-12-23T11:56:17Z</time>
      </trkpt>
      <trkpt lat="45.99415" lon="4.75312">
        <ele>170</ele>
        <time>2017-12-23T11:56:18Z</time>
      </trkpt>
      <trkpt lat="45.99409" lon="4.75315">
        <ele>170</ele>
        <time>2017-12-23T11:56:19Z</time>
      </trkpt>
      <trkpt lat="45.99403" lon="4.75319">
        <ele>170</ele>
        <time>2017-12-23T11:56:20Z</time>
      </trkpt>
      <trkpt lat="45.99398" lon="4.75322">
        <ele>170</ele>
        <time>2017-12-23T11:56:21Z</time>
      </trkpt>
      <trkpt lat="45.99392" lon="4.75327">
        <ele>170</ele>
        <time>2017-12-23T11:56:22Z</time>
      </trkpt>
      <trkpt lat="45.99387" lon="4.75332">
        <ele>170</ele>
        <time>2017-12-23T11:56:23Z</time>
      </trkpt>
      <trkpt lat="45.99382" lon="4.75338">
        <ele>171</ele>
        <time>2017-12-23T11:56:24Z</time>
      </trkpt>
      <trkpt lat="45.99377" lon="4.75344">
        <ele>172</ele>
        <time>2017-12-23T11:56:25Z</time>
      </trkpt>
      <trkpt lat="45.99373" lon="4.75352">
        <ele>172</ele>
        <time>2017-12-23T11:56:26Z</time>
      </trkpt>
      <trkpt lat="45.99368" lon="4.7536">
        <ele>172</ele>
        <time>2017-12-23T11:56:27Z</time>
      </trkpt>
      <trkpt lat="45.99364" lon="4.75368">
        <ele>172</ele>
        <time>2017-12-23T11:56:28Z</time>
      </trkpt>
      <trkpt lat="45.9936" lon="4.75378">
        <ele>172</ele>
        <time>2017-12-23T11:56:29Z</time>
      </trkpt>
      <trkpt lat="45.99356" lon="4.75384">
        <ele>172</ele>
        <time>2017-12-23T11:56:30Z</time>
      </trkpt>
      <trkpt lat="45.99352" lon="4.75391">
        <ele>172</ele>
        <time>2017-12-23T11:56:31Z</time>
      </trkpt>
      <trkpt lat="45.99348" lon="4.75398">
        <ele>173</ele>
        <time>2017-12-23T11:56:32Z</time>
      </trkpt>
      <trkpt lat="45.99345" lon="4.75405">
        <ele>173</ele>
        <time>2017-12-23T11:56:33Z</time>
      </trkpt>
      <trkpt lat="45.99342" lon="4.75412">
        <ele>173</ele>
        <time>2017-12-23T11:56:34Z</time>
      </trkpt>
      <trkpt lat="45.9934" lon="4.7542">
        <ele>174</ele>
        <time>2017-12-23T11:56:35Z</time>
      </trkpt>
      <trkpt lat="45.99338" lon="4.75429">
        <ele>175</ele>
        <time>2017-12-23T11:56:36Z</time>
      </trkpt>
      <trkpt lat="45.99337" lon="4.75437">
        <ele>176</ele>
        <time>2017-12-23T11:56:37Z</time>
      </trkpt>
      <trkpt lat="45.99336" lon="4.75446">
        <ele>176</ele>
        <time>2017-12-23T11:56:38Z</time>
      </trkpt>
      <trkpt lat="45.99333" lon="4.75453">
        <ele>176</ele>
        <time>2017-12-23T11:56:39Z</time>
      </trkpt>
      <trkpt lat="45.99331" lon="4.7546">
        <ele>174</ele>
        <time>2017-12-23T11:56:40Z</time>
      </trkpt>
      <trkpt lat="45.99328" lon="4.75468">
        <ele>174</ele>
        <time>2017-12-23T11:56:41Z</time>
      </trkpt>
      <trkpt lat="45.99324" lon="4.75475">
        <ele>174</ele>
        <time>2017-12-23T11:56:42Z</time>
      </trkpt>
      <trkpt lat="45.99321" lon="4.75484">
        <ele>175</ele>
        <time>2017-12-23T11:56:43Z</time>
      </trkpt>
      <trkpt lat="45.99317" lon="4.75492">
        <ele>175</ele>
        <time>2017-12-23T11:56:44Z</time>
      </trkpt>
      <trkpt lat="45.99313" lon="4.75497">
        <ele>175</ele>
        <time>2017-12-23T11:56:45Z</time>
      </trkpt>
      <trkpt lat="45.99308" lon="4.75503">
        <ele>177</ele>
        <time>2017-12-23T11:56:46Z</time>
      </trkpt>
      <trkpt lat="45.99303" lon="4.75509">
        <ele>177</ele>
        <time>2017-12-23T11:56:47Z</time>
      </trkpt>
      <trkpt lat="45.99299" lon="4.75515">
        <ele>177</ele>
        <time>2017-12-23T11:56:48Z</time>
      </trkpt>
      <trkpt lat="45.99294" lon="4.75519">
        <ele>177</ele>
        <time>2017-12-23T11:56:49Z</time>
      </trkpt>
      <trkpt lat="45.99289" lon="4.75524">
        <ele>177</ele>
        <time>2017-12-23T11:56:50Z</time>
      </trkpt>
      <trkpt lat="45.99284" lon="4.75529">
        <ele>176</ele>
        <time>2017-12-23T11:56:51Z</time>
      </trkpt>
      <trkpt lat="45.99279" lon="4.75534">
        <ele>176</ele>
        <time>2017-12-23T11:56:52Z</time>
      </trkpt>
      <trkpt lat="45.99273" lon="4.75538">
        <ele>176</ele>
        <time>2017-12-23T11:56:53Z</time>
      </trkpt>
      <trkpt lat="45.99268" lon="4.75542">
        <ele>176</ele>
        <time>2017-12-23T11:56:54Z</time>
      </trkpt>
      <trkpt lat="45.99262" lon="4.75545">
        <ele>177</ele>
        <time>2017-12-23T11:56:55Z</time>
      </trkpt>
      <trkpt lat="45.99258" lon="4.7555">
        <ele>177</ele>
        <time>2017-12-23T11:56:56Z</time>
      </trkpt>
      <trkpt lat="45.99253" lon="4.75553">
        <ele>177</ele>
        <time>2017-12-23T11:56:57Z</time>
      </trkpt>
      <trkpt lat="45.99247" lon="4.75556">
        <ele>175</ele>
        <time>2017-12-23T11:56:58Z</time>
      </trkpt>
      <trkpt lat="45.99242" lon="4.75559">
        <ele>175</ele>
        <time>2017-12-23T11:56:59Z</time>
      </trkpt>
      <trkpt lat="45.99237" lon="4.75562">
        <ele>175</ele>
        <time>2017-12-23T11:57:00Z</time>
      </trkpt>
      <trkpt lat="45.99233" lon="4.75565">
        <ele>175</ele>
        <time>2017-12-23T11:57:01Z</time>
      </trkpt>
      <trkpt lat="45.99228" lon="4.75568">
        <ele>175</ele>
        <time>2017-12-23T11:57:02Z</time>
      </trkpt>
      <trkpt lat="45.99224" lon="4.75571">
        <ele>175</ele>
        <time>2017-12-23T11:57:03Z</time>
      </trkpt>
      <trkpt lat="45.99219" lon="4.75575">
        <ele>175</ele>
        <time>2017-12-23T11:57:04Z</time>
      </trkpt>
      <trkpt lat="45.99213" lon="4.75578">
        <ele>175</ele>
        <time>2017-12-23T11:57:05Z</time>
      </trkpt>
      <trkpt lat="45.99209" lon="4.7558">
        <ele>175</ele>
        <time>2017-12-23T11:57:06Z</time>
      </trkpt>
      <trkpt lat="45.99204" lon="4.75582">
        <ele>175</ele>
        <time>2017-12-23T11:57:07Z</time>
      </trkpt>
      <trkpt lat="45.99198" lon="4.75586">
        <ele>178</ele>
        <time>2017-12-23T11:57:08Z</time>
      </trkpt>
      <trkpt lat="45.99194" lon="4.75589">
        <ele>178</ele>
        <time>2017-12-23T11:57:09Z</time>
      </trkpt>
      <trkpt lat="45.99189" lon="4.75592">
        <ele>177</ele>
        <time>2017-12-23T11:57:10Z</time>
      </trkpt>
      <trkpt lat="45.99181" lon="4.75598">
        <ele>177</ele>
        <time>2017-12-23T11:57:12Z</time>
      </trkpt>
      <trkpt lat="45.99176" lon="4.756">
        <ele>177</ele>
        <time>2017-12-23T11:57:13Z</time>
      </trkpt>
      <trkpt lat="45.99171" lon="4.756">
        <ele>177</ele>
        <time>2017-12-23T11:57:14Z</time>
      </trkpt>
      <trkpt lat="45.99165" lon="4.75602">
        <ele>176</ele>
        <time>2017-12-23T11:57:15Z</time>
      </trkpt>
      <trkpt lat="45.99159" lon="4.75605">
        <ele>176</ele>
        <time>2017-12-23T11:57:16Z</time>
      </trkpt>
      <trkpt lat="45.99154" lon="4.75607">
        <ele>176</ele>
        <time>2017-12-23T11:57:17Z</time>
      </trkpt>
      <trkpt lat="45.99148" lon="4.75608">
        <ele>176</ele>
        <time>2017-12-23T11:57:18Z</time>
      </trkpt>
      <trkpt lat="45.99142" lon="4.75608">
        <ele>176</ele>
        <time>2017-12-23T11:57:19Z</time>
      </trkpt>
      <trkpt lat="45.99136" lon="4.7561">
        <ele>177</ele>
        <time>2017-12-23T11:57:20Z</time>
      </trkpt>
      <trkpt lat="45.99131" lon="4.75612">
        <ele>177</ele>
        <time>2017-12-23T11:57:21Z</time>
      </trkpt>
      <trkpt lat="45.99126" lon="4.75618">
        <ele>177</ele>
        <time>2017-12-23T11:57:22Z</time>
      </trkpt>
      <trkpt lat="45.99122" lon="4.75624">
        <ele>177</ele>
        <time>2017-12-23T11:57:23Z</time>
      </trkpt>
      <trkpt lat="45.99118" lon="4.75631">
        <ele>177</ele>
        <time>2017-12-23T11:57:24Z</time>
      </trkpt>
      <trkpt lat="45.99115" lon="4.75638">
        <ele>177</ele>
        <time>2017-12-23T11:57:25Z</time>
      </trkpt>
      <trkpt lat="45.99109" lon="4.75642">
        <ele>178</ele>
        <time>2017-12-23T11:57:26Z</time>
      </trkpt>
      <trkpt lat="45.99105" lon="4.75647">
        <ele>178</ele>
        <time>2017-12-23T11:57:27Z</time>
      </trkpt>
      <trkpt lat="45.991" lon="4.75651">
        <ele>178</ele>
        <time>2017-12-23T11:57:28Z</time>
      </trkpt>
      <trkpt lat="45.99094" lon="4.75654">
        <ele>178</ele>
        <time>2017-12-23T11:57:29Z</time>
      </trkpt>
      <trkpt lat="45.99088" lon="4.75656">
        <ele>179</ele>
        <time>2017-12-23T11:57:30Z</time>
      </trkpt>
      <trkpt lat="45.99082" lon="4.75657">
        <ele>179</ele>
        <time>2017-12-23T11:57:31Z</time>
      </trkpt>
      <trkpt lat="45.99076" lon="4.75658">
        <ele>179</ele>
        <time>2017-12-23T11:57:32Z</time>
      </trkpt>
      <trkpt lat="45.99069" lon="4.75657">
        <ele>178</ele>
        <time>2017-12-23T11:57:33Z</time>
      </trkpt>
      <trkpt lat="45.99063" lon="4.75657">
        <ele>178</ele>
        <time>2017-12-23T11:57:34Z</time>
      </trkpt>
      <trkpt lat="45.99057" lon="4.75657">
        <ele>178</ele>
        <time>2017-12-23T11:57:35Z</time>
      </trkpt>
      <trkpt lat="45.99051" lon="4.75657">
        <ele>178</ele>
        <time>2017-12-23T11:57:36Z</time>
      </trkpt>
      <trkpt lat="45.99045" lon="4.75658">
        <ele>178</ele>
        <time>2017-12-23T11:57:37Z</time>
      </trkpt>
      <trkpt lat="45.99038" lon="4.75657">
        <ele>178</ele>
        <time>2017-12-23T11:57:38Z</time>
      </trkpt>
      <trkpt lat="45.99032" lon="4.75658">
        <ele>178</ele>
        <time>2017-12-23T11:57:39Z</time>
      </trkpt>
      <trkpt lat="45.99024" lon="4.75659">
        <ele>178</ele>
        <time>2017-12-23T11:57:40Z</time>
      </trkpt>
      <trkpt lat="45.99018" lon="4.75659">
        <ele>178</ele>
        <time>2017-12-23T11:57:41Z</time>
      </trkpt>
      <trkpt lat="45.99011" lon="4.75659">
        <ele>179</ele>
        <time>2017-12-23T11:57:42Z</time>
      </trkpt>
      <trkpt lat="45.99005" lon="4.7566">
        <ele>179</ele>
        <time>2017-12-23T11:57:43Z</time>
      </trkpt>
      <trkpt lat="45.98998" lon="4.75661">
        <ele>179</ele>
        <time>2017-12-23T11:57:44Z</time>
      </trkpt>
      <trkpt lat="45.98991" lon="4.75661">
        <ele>178</ele>
        <time>2017-12-23T11:57:45Z</time>
      </trkpt>
      <trkpt lat="45.98983" lon="4.75662">
        <ele>178</ele>
        <time>2017-12-23T11:57:46Z</time>
      </trkpt>
      <trkpt lat="45.98977" lon="4.75664">
        <ele>178</ele>
        <time>2017-12-23T11:57:47Z</time>
      </trkpt>
      <trkpt lat="45.9897" lon="4.75666">
        <ele>177</ele>
        <time>2017-12-23T11:57:48Z</time>
      </trkpt>
      <trkpt lat="45.98963" lon="4.75668">
        <ele>181</ele>
        <time>2017-12-23T11:57:49Z</time>
      </trkpt>
      <trkpt lat="45.98957" lon="4.75671">
        <ele>181</ele>
        <time>2017-12-23T11:57:50Z</time>
      </trkpt>
      <trkpt lat="45.98951" lon="4.75674">
        <ele>181</ele>
        <time>2017-12-23T11:57:51Z</time>
      </trkpt>
      <trkpt lat="45.98944" lon="4.75676">
        <ele>181</ele>
        <time>2017-12-23T11:57:52Z</time>
      </trkpt>
      <trkpt lat="45.98937" lon="4.75678">
        <ele>180</ele>
        <time>2017-12-23T11:57:53Z</time>
      </trkpt>
      <trkpt lat="45.9893" lon="4.75681">
        <ele>180</ele>
        <time>2017-12-23T11:57:54Z</time>
      </trkpt>
      <trkpt lat="45.98924" lon="4.75684">
        <ele>180</ele>
        <time>2017-12-23T11:57:55Z</time>
      </trkpt>
      <trkpt lat="45.98917" lon="4.75687">
        <ele>180</ele>
        <time>2017-12-23T11:57:56Z</time>
      </trkpt>
      <trkpt lat="45.98911" lon="4.7569">
        <ele>179</ele>
        <time>2017-12-23T11:57:57Z</time>
      </trkpt>
      <trkpt lat="45.98905" lon="4.75693">
        <ele>179</ele>
        <time>2017-12-23T11:57:58Z</time>
      </trkpt>
      <trkpt lat="45.98898" lon="4.75696">
        <ele>180</ele>
        <time>2017-12-23T11:57:59Z</time>
      </trkpt>
      <trkpt lat="45.98892" lon="4.75698">
        <ele>180</ele>
        <time>2017-12-23T11:58:00Z</time>
      </trkpt>
      <trkpt lat="45.98886" lon="4.75701">
        <ele>180</ele>
        <time>2017-12-23T11:58:01Z</time>
      </trkpt>
      <trkpt lat="45.98879" lon="4.75704">
        <ele>180</ele>
        <time>2017-12-23T11:58:02Z</time>
      </trkpt>
      <trkpt lat="45.98872" lon="4.75707">
        <ele>180</ele>
        <time>2017-12-23T11:58:03Z</time>
      </trkpt>
      <trkpt lat="45.98866" lon="4.75708">
        <ele>180</ele>
        <time>2017-12-23T11:58:04Z</time>
      </trkpt>
      <trkpt lat="45.9886" lon="4.75709">
        <ele>180</ele>
        <time>2017-12-23T11:58:05Z</time>
      </trkpt>
      <trkpt lat="45.98854" lon="4.75709">
        <ele>180</ele>
        <time>2017-12-23T11:58:06Z</time>
      </trkpt>
      <trkpt lat="45.98848" lon="4.7571">
        <ele>180</ele>
        <time>2017-12-23T11:58:07Z</time>
      </trkpt>
      <trkpt lat="45.98842" lon="4.75712">
        <ele>180</ele>
        <time>2017-12-23T11:58:08Z</time>
      </trkpt>
      <trkpt lat="45.98836" lon="4.75713">
        <ele>180</ele>
        <time>2017-12-23T11:58:09Z</time>
      </trkpt>
      <trkpt lat="45.9883" lon="4.75714">
        <ele>179</ele>
        <time>2017-12-23T11:58:10Z</time>
      </trkpt>
      <trkpt lat="45.98823" lon="4.75715">
        <ele>179</ele>
        <time>2017-12-23T11:58:11Z</time>
      </trkpt>
      <trkpt lat="45.98816" lon="4.75715">
        <ele>179</ele>
        <time>2017-12-23T11:58:12Z</time>
      </trkpt>
      <trkpt lat="45.98809" lon="4.75716">
        <ele>179</ele>
        <time>2017-12-23T11:58:13Z</time>
      </trkpt>
      <trkpt lat="45.98803" lon="4.75716">
        <ele>179</ele>
        <time>2017-12-23T11:58:14Z</time>
      </trkpt>
      <trkpt lat="45.98797" lon="4.75717">
        <ele>178</ele>
        <time>2017-12-23T11:58:15Z</time>
      </trkpt>
      <trkpt lat="45.9879" lon="4.75718">
        <ele>178</ele>
        <time>2017-12-23T11:58:16Z</time>
      </trkpt>
      <trkpt lat="45.98784" lon="4.75717">
        <ele>178</ele>
        <time>2017-12-23T11:58:17Z</time>
      </trkpt>
      <trkpt lat="45.98778" lon="4.75717">
        <ele>178</ele>
        <time>2017-12-23T11:58:18Z</time>
      </trkpt>
      <trkpt lat="45.98773" lon="4.75715">
        <ele>178</ele>
        <time>2017-12-23T11:58:19Z</time>
      </trkpt>
      <trkpt lat="45.98767" lon="4.75716">
        <ele>178</ele>
        <time>2017-12-23T11:58:20Z</time>
      </trkpt>
      <trkpt lat="45.98763" lon="4.75719">
        <ele>178</ele>
        <time>2017-12-23T11:58:21Z</time>
      </trkpt>
      <trkpt lat="45.98758" lon="4.75722">
        <ele>178</ele>
        <time>2017-12-23T11:58:22Z</time>
      </trkpt>
      <trkpt lat="45.98752" lon="4.75724">
        <ele>178</ele>
        <time>2017-12-23T11:58:23Z</time>
      </trkpt>
      <trkpt lat="45.98746" lon="4.75725">
        <ele>177</ele>
        <time>2017-12-23T11:58:24Z</time>
      </trkpt>
      <trkpt lat="45.9874" lon="4.75726">
        <ele>177</ele>
        <time>2017-12-23T11:58:25Z</time>
      </trkpt>
      <trkpt lat="45.98734" lon="4.75727">
        <ele>177</ele>
        <time>2017-12-23T11:58:26Z</time>
      </trkpt>
      <trkpt lat="45.98727" lon="4.75727">
        <ele>177</ele>
        <time>2017-12-23T11:58:27Z</time>
      </trkpt>
      <trkpt lat="45.98721" lon="4.75728">
        <ele>177</ele>
        <time>2017-12-23T11:58:28Z</time>
      </trkpt>
      <trkpt lat="45.98714" lon="4.75728">
        <ele>177</ele>
        <time>2017-12-23T11:58:29Z</time>
      </trkpt>
      <trkpt lat="45.98708" lon="4.75729">
        <ele>177</ele>
        <time>2017-12-23T11:58:30Z</time>
      </trkpt>
      <trkpt lat="45.98701" lon="4.75729">
        <ele>177</ele>
        <time>2017-12-23T11:58:31Z</time>
      </trkpt>
      <trkpt lat="45.98693" lon="4.75729">
        <ele>177</ele>
        <time>2017-12-23T11:58:32Z</time>
      </trkpt>
      <trkpt lat="45.98686" lon="4.75729">
        <ele>177</ele>
        <time>2017-12-23T11:58:33Z</time>
      </trkpt>
      <trkpt lat="45.98678" lon="4.7573">
        <ele>177</ele>
        <time>2017-12-23T11:58:34Z</time>
      </trkpt>
      <trkpt lat="45.98671" lon="4.75729">
        <ele>177</ele>
        <time>2017-12-23T11:58:35Z</time>
      </trkpt>
      <trkpt lat="45.98664" lon="4.75728">
        <ele>176</ele>
        <time>2017-12-23T11:58:36Z</time>
      </trkpt>
      <trkpt lat="45.98658" lon="4.75728">
        <ele>176</ele>
        <time>2017-12-23T11:58:37Z</time>
      </trkpt>
      <trkpt lat="45.98651" lon="4.75728">
        <ele>176</ele>
        <time>2017-12-23T11:58:38Z</time>
      </trkpt>
      <trkpt lat="45.98644" lon="4.75729">
        <ele>176</ele>
        <time>2017-12-23T11:58:39Z</time>
      </trkpt>
      <trkpt lat="45.98637" lon="4.75729">
        <ele>175</ele>
        <time>2017-12-23T11:58:40Z</time>
      </trkpt>
      <trkpt lat="45.98632" lon="4.75729">
        <ele>175</ele>
        <time>2017-12-23T11:58:41Z</time>
      </trkpt>
      <trkpt lat="45.98627" lon="4.75729">
        <ele>175</ele>
        <time>2017-12-23T11:58:42Z</time>
      </trkpt>
      <trkpt lat="45.98623" lon="4.75729">
        <ele>175</ele>
        <time>2017-12-23T11:58:43Z</time>
      </trkpt>
      <trkpt lat="45.98615" lon="4.75729">
        <ele>175</ele>
        <time>2017-12-23T11:58:45Z</time>
      </trkpt>
      <trkpt lat="45.98611" lon="4.75729">
        <ele>175</ele>
        <time>2017-12-23T11:58:46Z</time>
      </trkpt>
      <trkpt lat="45.98603" lon="4.7573">
        <ele>174</ele>
        <time>2017-12-23T11:58:48Z</time>
      </trkpt>
      <trkpt lat="45.98599" lon="4.75731">
        <ele>174</ele>
        <time>2017-12-23T11:58:49Z</time>
      </trkpt>
      <trkpt lat="45.9859" lon="4.75731">
        <ele>174</ele>
        <time>2017-12-23T11:58:51Z</time>
      </trkpt>
      <trkpt lat="45.98585" lon="4.7573">
        <ele>174</ele>
        <time>2017-12-23T11:58:52Z</time>
      </trkpt>
      <trkpt lat="45.98581" lon="4.75727">
        <ele>174</ele>
        <time>2017-12-23T11:58:53Z</time>
      </trkpt>
      <trkpt lat="45.98575" lon="4.75725">
        <ele>174</ele>
        <time>2017-12-23T11:58:54Z</time>
      </trkpt>
      <trkpt lat="45.98569" lon="4.75724">
        <ele>174</ele>
        <time>2017-12-23T11:58:55Z</time>
      </trkpt>
      <trkpt lat="45.98563" lon="4.75723">
        <ele>174</ele>
        <time>2017-12-23T11:58:56Z</time>
      </trkpt>
      <trkpt lat="45.98558" lon="4.75723">
        <ele>174</ele>
        <time>2017-12-23T11:58:57Z</time>
      </trkpt>
      <trkpt lat="45.98552" lon="4.75722">
        <ele>174</ele>
        <time>2017-12-23T11:58:58Z</time>
      </trkpt>
      <trkpt lat="45.98546" lon="4.75721">
        <ele>174</ele>
        <time>2017-12-23T11:58:59Z</time>
      </trkpt>
      <trkpt lat="45.98541" lon="4.7572">
        <ele>174</ele>
        <time>2017-12-23T11:59:00Z</time>
      </trkpt>
      <trkpt lat="45.98535" lon="4.7572">
        <ele>174</ele>
        <time>2017-12-23T11:59:01Z</time>
      </trkpt>
      <trkpt lat="45.98529" lon="4.75719">
        <ele>174</ele>
        <time>2017-12-23T11:59:02Z</time>
      </trkpt>
      <trkpt lat="45.98522" lon="4.75719">
        <ele>174</ele>
        <time>2017-12-23T11:59:03Z</time>
      </trkpt>
      <trkpt lat="45.98516" lon="4.75718">
        <ele>174</ele>
        <time>2017-12-23T11:59:04Z</time>
      </trkpt>
      <trkpt lat="45.9851" lon="4.75718">
        <ele>174</ele>
        <time>2017-12-23T11:59:05Z</time>
      </trkpt>
      <trkpt lat="45.98503" lon="4.75718">
        <ele>174</ele>
        <time>2017-12-23T11:59:06Z</time>
      </trkpt>
      <trkpt lat="45.98498" lon="4.75715">
        <ele>175</ele>
        <time>2017-12-23T11:59:07Z</time>
      </trkpt>
      <trkpt lat="45.98493" lon="4.75713">
        <ele>175</ele>
        <time>2017-12-23T11:59:08Z</time>
      </trkpt>
      <trkpt lat="45.98486" lon="4.75712">
        <ele>175</ele>
        <time>2017-12-23T11:59:09Z</time>
      </trkpt>
      <trkpt lat="45.98481" lon="4.75709">
        <ele>175</ele>
        <time>2017-12-23T11:59:10Z</time>
      </trkpt>
      <trkpt lat="45.98475" lon="4.75707">
        <ele>174</ele>
        <time>2017-12-23T11:59:11Z</time>
      </trkpt>
      <trkpt lat="45.9847" lon="4.75707">
        <ele>174</ele>
        <time>2017-12-23T11:59:12Z</time>
      </trkpt>
      <trkpt lat="45.98465" lon="4.75705">
        <ele>174</ele>
        <time>2017-12-23T11:59:13Z</time>
      </trkpt>
      <trkpt lat="45.98459" lon="4.75703">
        <ele>174</ele>
        <time>2017-12-23T11:59:14Z</time>
      </trkpt>
      <trkpt lat="45.98454" lon="4.75702">
        <ele>175</ele>
        <time>2017-12-23T11:59:15Z</time>
      </trkpt>
      <trkpt lat="45.98449" lon="4.75702">
        <ele>175</ele>
        <time>2017-12-23T11:59:16Z</time>
      </trkpt>
      <trkpt lat="45.98442" lon="4.757">
        <ele>175</ele>
        <time>2017-12-23T11:59:17Z</time>
      </trkpt>
      <trkpt lat="45.98435" lon="4.75698">
        <ele>175</ele>
        <time>2017-12-23T11:59:18Z</time>
      </trkpt>
      <trkpt lat="45.9843" lon="4.75696">
        <ele>175</ele>
        <time>2017-12-23T11:59:19Z</time>
      </trkpt>
      <trkpt lat="45.98426" lon="4.75694">
        <ele>175</ele>
        <time>2017-12-23T11:59:20Z</time>
      </trkpt>
      <trkpt lat="45.98421" lon="4.75694">
        <ele>175</ele>
        <time>2017-12-23T11:59:21Z</time>
      </trkpt>
      <trkpt lat="45.98415" lon="4.75692">
        <ele>175</ele>
        <time>2017-12-23T11:59:22Z</time>
      </trkpt>
      <trkpt lat="45.9841" lon="4.75691">
        <ele>174</ele>
        <time>2017-12-23T11:59:23Z</time>
      </trkpt>
      <trkpt lat="45.98404" lon="4.7569">
        <ele>174</ele>
        <time>2017-12-23T11:59:24Z</time>
      </trkpt>
      <trkpt lat="45.98398" lon="4.75688">
        <ele>174</ele>
        <time>2017-12-23T11:59:25Z</time>
      </trkpt>
      <trkpt lat="45.98396" lon="4.75683">
        <ele>174</ele>
        <time>2017-12-23T11:59:26Z</time>
      </trkpt>
      <trkpt lat="45.98391" lon="4.75683">
        <ele>174</ele>
        <time>2017-12-23T11:59:27Z</time>
      </trkpt>
      <trkpt lat="45.98385" lon="4.75684">
        <ele>174</ele>
        <time>2017-12-23T11:59:28Z</time>
      </trkpt>
      <trkpt lat="45.98379" lon="4.75684">
        <ele>174</ele>
        <time>2017-12-23T11:59:29Z</time>
      </trkpt>
      <trkpt lat="45.98372" lon="4.75686">
        <ele>174</ele>
        <time>2017-12-23T11:59:30Z</time>
      </trkpt>
      <trkpt lat="45.98366" lon="4.75686">
        <ele>174</ele>
        <time>2017-12-23T11:59:31Z</time>
      </trkpt>
      <trkpt lat="45.9836" lon="4.75686">
        <ele>174</ele>
        <time>2017-12-23T11:59:32Z</time>
      </trkpt>
      <trkpt lat="45.98353" lon="4.75685">
        <ele>174</ele>
        <time>2017-12-23T11:59:33Z</time>
      </trkpt>
      <trkpt lat="45.98347" lon="4.75683">
        <ele>174</ele>
        <time>2017-12-23T11:59:34Z</time>
      </trkpt>
      <trkpt lat="45.98341" lon="4.75683">
        <ele>174</ele>
        <time>2017-12-23T11:59:35Z</time>
      </trkpt>
      <trkpt lat="45.98335" lon="4.75682">
        <ele>174</ele>
        <time>2017-12-23T11:59:36Z</time>
      </trkpt>
      <trkpt lat="45.98328" lon="4.75681">
        <ele>174</ele>
        <time>2017-12-23T11:59:37Z</time>
      </trkpt>
      <trkpt lat="45.98321" lon="4.7568">
        <ele>174</ele>
        <time>2017-12-23T11:59:38Z</time>
      </trkpt>
      <trkpt lat="45.98315" lon="4.75679">
        <ele>174</ele>
        <time>2017-12-23T11:59:39Z</time>
      </trkpt>
      <trkpt lat="45.98309" lon="4.75679">
        <ele>174</ele>
        <time>2017-12-23T11:59:40Z</time>
      </trkpt>
      <trkpt lat="45.98302" lon="4.75679">
        <ele>174</ele>
        <time>2017-12-23T11:59:41Z</time>
      </trkpt>
      <trkpt lat="45.98295" lon="4.75678">
        <ele>174</ele>
        <time>2017-12-23T11:59:42Z</time>
      </trkpt>
      <trkpt lat="45.98289" lon="4.75677">
        <ele>174</ele>
        <time>2017-12-23T11:59:43Z</time>
      </trkpt>
      <trkpt lat="45.98283" lon="4.75678">
        <ele>174</ele>
        <time>2017-12-23T11:59:44Z</time>
      </trkpt>
      <trkpt lat="45.98278" lon="4.75678">
        <ele>174</ele>
        <time>2017-12-23T11:59:45Z</time>
      </trkpt>
      <trkpt lat="45.98272" lon="4.75678">
        <ele>173</ele>
        <time>2017-12-23T11:59:46Z</time>
      </trkpt>
      <trkpt lat="45.98265" lon="4.75678">
        <ele>173</ele>
        <time>2017-12-23T11:59:47Z</time>
      </trkpt>
      <trkpt lat="45.98259" lon="4.75679">
        <ele>173</ele>
        <time>2017-12-23T11:59:48Z</time>
      </trkpt>
      <trkpt lat="45.98253" lon="4.75679">
        <ele>173</ele>
        <time>2017-12-23T11:59:49Z</time>
      </trkpt>
      <trkpt lat="45.98247" lon="4.75677">
        <ele>173</ele>
        <time>2017-12-23T11:59:50Z</time>
      </trkpt>
      <trkpt lat="45.98241" lon="4.75678">
        <ele>173</ele>
        <time>2017-12-23T11:59:51Z</time>
      </trkpt>
      <trkpt lat="45.98234" lon="4.7568">
        <ele>174</ele>
        <time>2017-12-23T11:59:52Z</time>
      </trkpt>
      <trkpt lat="45.98229" lon="4.75682">
        <ele>174</ele>
        <time>2017-12-23T11:59:53Z</time>
      </trkpt>
      <trkpt lat="45.98223" lon="4.75683">
        <ele>174</ele>
        <time>2017-12-23T11:59:54Z</time>
      </trkpt>
      <trkpt lat="45.98218" lon="4.75684">
        <ele>174</ele>
        <time>2017-12-23T11:59:55Z</time>
      </trkpt>
      <trkpt lat="45.98212" lon="4.75685">
        <ele>174</ele>
        <time>2017-12-23T11:59:56Z</time>
      </trkpt>
      <trkpt lat="45.98207" lon="4.75686">
        <ele>174</ele>
        <time>2017-12-23T11:59:57Z</time>
      </trkpt>
      <trkpt lat="45.98203" lon="4.75686">
        <ele>174</ele>
        <time>2017-12-23T11:59:58Z</time>
      </trkpt>
      <trkpt lat="45.98198" lon="4.75686">
        <ele>174</ele>
        <time>2017-12-23T11:59:59Z</time>
      </trkpt>
      <trkpt lat="45.98193" lon="4.75685">
        <ele>174</ele>
        <time>2017-12-23T12:00:00Z</time>
      </trkpt>
      <trkpt lat="45.98188" lon="4.75686">
        <ele>174</ele>
        <time>2017-12-23T12:00:01Z</time>
      </trkpt>
      <trkpt lat="45.98184" lon="4.75685">
        <ele>174</ele>
        <time>2017-12-23T12:00:02Z</time>
      </trkpt>
      <trkpt lat="45.98179" lon="4.75686">
        <ele>174</ele>
        <time>2017-12-23T12:00:03Z</time>
      </trkpt>
      <trkpt lat="45.98173" lon="4.75686">
        <ele>174</ele>
        <time>2017-12-23T12:00:04Z</time>
      </trkpt>
      <trkpt lat="45.98169" lon="4.75687">
        <ele>174</ele>
        <time>2017-12-23T12:00:05Z</time>
      </trkpt>
      <trkpt lat="45.98163" lon="4.75688">
        <ele>174</ele>
        <time>2017-12-23T12:00:06Z</time>
      </trkpt>
      <trkpt lat="45.98158" lon="4.75689">
        <ele>174</ele>
        <time>2017-12-23T12:00:07Z</time>
      </trkpt>
      <trkpt lat="45.98153" lon="4.75688">
        <ele>174</ele>
        <time>2017-12-23T12:00:08Z</time>
      </trkpt>
      <trkpt lat="45.98147" lon="4.75688">
        <ele>174</ele>
        <time>2017-12-23T12:00:09Z</time>
      </trkpt>
      <trkpt lat="45.98142" lon="4.75689">
        <ele>174</ele>
        <time>2017-12-23T12:00:10Z</time>
      </trkpt>
      <trkpt lat="45.98136" lon="4.75691">
        <ele>174</ele>
        <time>2017-12-23T12:00:11Z</time>
      </trkpt>
      <trkpt lat="45.98129" lon="4.75691">
        <ele>174</ele>
        <time>2017-12-23T12:00:12Z</time>
      </trkpt>
      <trkpt lat="45.98123" lon="4.75692">
        <ele>174</ele>
        <time>2017-12-23T12:00:13Z</time>
      </trkpt>
      <trkpt lat="45.98117" lon="4.75693">
        <ele>174</ele>
        <time>2017-12-23T12:00:14Z</time>
      </trkpt>
      <trkpt lat="45.98111" lon="4.75693">
        <ele>174</ele>
        <time>2017-12-23T12:00:15Z</time>
      </trkpt>
      <trkpt lat="45.98105" lon="4.75694">
        <ele>174</ele>
        <time>2017-12-23T12:00:16Z</time>
      </trkpt>
      <trkpt lat="45.98099" lon="4.75694">
        <ele>174</ele>
        <time>2017-12-23T12:00:17Z</time>
      </trkpt>
      <trkpt lat="45.98095" lon="4.75694">
        <ele>174</ele>
        <time>2017-12-23T12:00:18Z</time>
      </trkpt>
      <trkpt lat="45.98089" lon="4.75694">
        <ele>174</ele>
        <time>2017-12-23T12:00:19Z</time>
      </trkpt>
      <trkpt lat="45.98083" lon="4.75694">
        <ele>174</ele>
        <time>2017-12-23T12:00:20Z</time>
      </trkpt>
      <trkpt lat="45.98078" lon="4.75695">
        <ele>174</ele>
        <time>2017-12-23T12:00:21Z</time>
      </trkpt>
      <trkpt lat="45.98072" lon="4.75695">
        <ele>174</ele>
        <time>2017-12-23T12:00:22Z</time>
      </trkpt>
      <trkpt lat="45.98066" lon="4.75697">
        <ele>174</ele>
        <time>2017-12-23T12:00:23Z</time>
      </trkpt>
      <trkpt lat="45.98061" lon="4.75698">
        <ele>174</ele>
        <time>2017-12-23T12:00:24Z</time>
      </trkpt>
      <trkpt lat="45.98055" lon="4.75699">
        <ele>174</ele>
        <time>2017-12-23T12:00:25Z</time>
      </trkpt>
      <trkpt lat="45.98049" lon="4.757">
        <ele>174</ele>
        <time>2017-12-23T12:00:26Z</time>
      </trkpt>
      <trkpt lat="45.98043" lon="4.757">
        <ele>174</ele>
        <time>2017-12-23T12:00:27Z</time>
      </trkpt>
      <trkpt lat="45.98037" lon="4.75702">
        <ele>174</ele>
        <time>2017-12-23T12:00:28Z</time>
      </trkpt>
      <trkpt lat="45.9803" lon="4.75703">
        <ele>174</ele>
        <time>2017-12-23T12:00:29Z</time>
      </trkpt>
      <trkpt lat="45.98024" lon="4.75705">
        <ele>174</ele>
        <time>2017-12-23T12:00:30Z</time>
      </trkpt>
      <trkpt lat="45.98019" lon="4.75707">
        <ele>174</ele>
        <time>2017-12-23T12:00:31Z</time>
      </trkpt>
      <trkpt lat="45.98013" lon="4.75709">
        <ele>174</ele>
        <time>2017-12-23T12:00:32Z</time>
      </trkpt>
      <trkpt lat="45.98009" lon="4.7571">
        <ele>174</ele>
        <time>2017-12-23T12:00:33Z</time>
      </trkpt>
      <trkpt lat="45.98003" lon="4.75713">
        <ele>174</ele>
        <time>2017-12-23T12:00:34Z</time>
      </trkpt>
      <trkpt lat="45.97998" lon="4.75715">
        <ele>174</ele>
        <time>2017-12-23T12:00:35Z</time>
      </trkpt>
      <trkpt lat="45.97993" lon="4.75718">
        <ele>174</ele>
        <time>2017-12-23T12:00:36Z</time>
      </trkpt>
      <trkpt lat="45.97988" lon="4.7572">
        <ele>174</ele>
        <time>2017-12-23T12:00:37Z</time>
      </trkpt>
      <trkpt lat="45.97983" lon="4.75723">
        <ele>174</ele>
        <time>2017-12-23T12:00:38Z</time>
      </trkpt>
      <trkpt lat="45.97978" lon="4.75725">
        <ele>174</ele>
        <time>2017-12-23T12:00:39Z</time>
      </trkpt>
      <trkpt lat="45.97973" lon="4.75727">
        <ele>174</ele>
        <time>2017-12-23T12:00:40Z</time>
      </trkpt>
      <trkpt lat="45.97967" lon="4.75729">
        <ele>174</ele>
        <time>2017-12-23T12:00:41Z</time>
      </trkpt>
      <trkpt lat="45.97962" lon="4.75729">
        <ele>174</ele>
        <time>2017-12-23T12:00:42Z</time>
      </trkpt>
      <trkpt lat="45.97956" lon="4.75728">
        <ele>174</ele>
        <time>2017-12-23T12:00:43Z</time>
      </trkpt>
      <trkpt lat="45.97951" lon="4.75728">
        <ele>174</ele>
        <time>2017-12-23T12:00:44Z</time>
      </trkpt>
      <trkpt lat="45.97946" lon="4.75725">
        <ele>174</ele>
        <time>2017-12-23T12:00:45Z</time>
      </trkpt>
      <trkpt lat="45.97941" lon="4.75723">
        <ele>174</ele>
        <time>2017-12-23T12:00:46Z</time>
      </trkpt>
      <trkpt lat="45.97935" lon="4.75719">
        <ele>174</ele>
        <time>2017-12-23T12:00:47Z</time>
      </trkpt>
      <trkpt lat="45.97929" lon="4.75716">
        <ele>174</ele>
        <time>2017-12-23T12:00:48Z</time>
      </trkpt>
      <trkpt lat="45.97924" lon="4.75711">
        <ele>174</ele>
        <time>2017-12-23T12:00:49Z</time>
      </trkpt>
      <trkpt lat="45.97918" lon="4.75706">
        <ele>174</ele>
        <time>2017-12-23T12:00:50Z</time>
      </trkpt>
      <trkpt lat="45.97912" lon="4.75703">
        <ele>175</ele>
        <time>2017-12-23T12:00:51Z</time>
      </trkpt>
      <trkpt lat="45.97906" lon="4.75698">
        <ele>175</ele>
        <time>2017-12-23T12:00:52Z</time>
      </trkpt>
      <trkpt lat="45.979" lon="4.75695">
        <ele>175</ele>
        <time>2017-12-23T12:00:53Z</time>
      </trkpt>
      <trkpt lat="45.97894" lon="4.75691">
        <ele>175</ele>
        <time>2017-12-23T12:00:54Z</time>
      </trkpt>
      <trkpt lat="45.97887" lon="4.75687">
        <ele>175</ele>
        <time>2017-12-23T12:00:55Z</time>
      </trkpt>
      <trkpt lat="45.97881" lon="4.75683">
        <ele>175</ele>
        <time>2017-12-23T12:00:56Z</time>
      </trkpt>
      <trkpt lat="45.97874" lon="4.75681">
        <ele>175</ele>
        <time>2017-12-23T12:00:57Z</time>
      </trkpt>
      <trkpt lat="45.97867" lon="4.75679">
        <ele>175</ele>
        <time>2017-12-23T12:00:58Z</time>
      </trkpt>
      <trkpt lat="45.97861" lon="4.75677">
        <ele>175</ele>
        <time>2017-12-23T12:00:59Z</time>
      </trkpt>
      <trkpt lat="45.97854" lon="4.75676">
        <ele>175</ele>
        <time>2017-12-23T12:01:00Z</time>
      </trkpt>
      <trkpt lat="45.97848" lon="4.75674">
        <ele>175</ele>
        <time>2017-12-23T12:01:01Z</time>
      </trkpt>
      <trkpt lat="45.97841" lon="4.75673">
        <ele>175</ele>
        <time>2017-12-23T12:01:02Z</time>
      </trkpt>
      <trkpt lat="45.97835" lon="4.75672">
        <ele>175</ele>
        <time>2017-12-23T12:01:03Z</time>
      </trkpt>
      <trkpt lat="45.97828" lon="4.75671">
        <ele>175</ele>
        <time>2017-12-23T12:01:04Z</time>
      </trkpt>
      <trkpt lat="45.97822" lon="4.7567">
        <ele>175</ele>
        <time>2017-12-23T12:01:05Z</time>
      </trkpt>
      <trkpt lat="45.97814" lon="4.75668">
        <ele>175</ele>
        <time>2017-12-23T12:01:06Z</time>
      </trkpt>
      <trkpt lat="45.97808" lon="4.75668">
        <ele>175</ele>
        <time>2017-12-23T12:01:07Z</time>
      </trkpt>
      <trkpt lat="45.97801" lon="4.75667">
        <ele>175</ele>
        <time>2017-12-23T12:01:08Z</time>
      </trkpt>
      <trkpt lat="45.97795" lon="4.75668">
        <ele>174</ele>
        <time>2017-12-23T12:01:09Z</time>
      </trkpt>
      <trkpt lat="45.97788" lon="4.75667">
        <ele>174</ele>
        <time>2017-12-23T12:01:10Z</time>
      </trkpt>
      <trkpt lat="45.97781" lon="4.75667">
        <ele>174</ele>
        <time>2017-12-23T12:01:11Z</time>
      </trkpt>
      <trkpt lat="45.97774" lon="4.75668">
        <ele>174</ele>
        <time>2017-12-23T12:01:12Z</time>
      </trkpt>
      <trkpt lat="45.97767" lon="4.75667">
        <ele>173</ele>
        <time>2017-12-23T12:01:13Z</time>
      </trkpt>
      <trkpt lat="45.9776" lon="4.75666">
        <ele>172</ele>
        <time>2017-12-23T12:01:14Z</time>
      </trkpt>
      <trkpt lat="45.97753" lon="4.75667">
        <ele>172</ele>
        <time>2017-12-23T12:01:15Z</time>
      </trkpt>
      <trkpt lat="45.97747" lon="4.75667">
        <ele>172</ele>
        <time>2017-12-23T12:01:16Z</time>
      </trkpt>
      <trkpt lat="45.97741" lon="4.75667">
        <ele>172</ele>
        <time>2017-12-23T12:01:17Z</time>
      </trkpt>
      <trkpt lat="45.97734" lon="4.75668">
        <ele>172</ele>
        <time>2017-12-23T12:01:18Z</time>
      </trkpt>
      <trkpt lat="45.97727" lon="4.75668">
        <ele>172</ele>
        <time>2017-12-23T12:01:19Z</time>
      </trkpt>
      <trkpt lat="45.9772" lon="4.75667">
        <ele>171</ele>
        <time>2017-12-23T12:01:20Z</time>
      </trkpt>
      <trkpt lat="45.97714" lon="4.75668">
        <ele>171</ele>
        <time>2017-12-23T12:01:21Z</time>
      </trkpt>
      <trkpt lat="45.97707" lon="4.75668">
        <ele>171</ele>
        <time>2017-12-23T12:01:22Z</time>
      </trkpt>
      <trkpt lat="45.97701" lon="4.75668">
        <ele>171</ele>
        <time>2017-12-23T12:01:23Z</time>
      </trkpt>
      <trkpt lat="45.97694" lon="4.75668">
        <ele>171</ele>
        <time>2017-12-23T12:01:24Z</time>
      </trkpt>
      <trkpt lat="45.97689" lon="4.75669">
        <ele>170</ele>
        <time>2017-12-23T12:01:25Z</time>
      </trkpt>
      <trkpt lat="45.97683" lon="4.7567">
        <ele>170</ele>
        <time>2017-12-23T12:01:26Z</time>
      </trkpt>
      <trkpt lat="45.97677" lon="4.75671">
        <ele>170</ele>
        <time>2017-12-23T12:01:27Z</time>
      </trkpt>
      <trkpt lat="45.9767" lon="4.75671">
        <ele>169</ele>
        <time>2017-12-23T12:01:28Z</time>
      </trkpt>
      <trkpt lat="45.97664" lon="4.75669">
        <ele>169</ele>
        <time>2017-12-23T12:01:29Z</time>
      </trkpt>
      <trkpt lat="45.97658" lon="4.75668">
        <ele>170</ele>
        <time>2017-12-23T12:01:30Z</time>
      </trkpt>
      <trkpt lat="45.97651" lon="4.75669">
        <ele>170</ele>
        <time>2017-12-23T12:01:31Z</time>
      </trkpt>
      <trkpt lat="45.97644" lon="4.75669">
        <ele>170</ele>
        <time>2017-12-23T12:01:32Z</time>
      </trkpt>
      <trkpt lat="45.97637" lon="4.75669">
        <ele>170</ele>
        <time>2017-12-23T12:01:33Z</time>
      </trkpt>
      <trkpt lat="45.97631" lon="4.7567">
        <ele>171</ele>
        <time>2017-12-23T12:01:34Z</time>
      </trkpt>
      <trkpt lat="45.97625" lon="4.7567">
        <ele>171</ele>
        <time>2017-12-23T12:01:35Z</time>
      </trkpt>
      <trkpt lat="45.97618" lon="4.75672">
        <ele>171</ele>
        <time>2017-12-23T12:01:36Z</time>
      </trkpt>
      <trkpt lat="45.97611" lon="4.75673">
        <ele>171</ele>
        <time>2017-12-23T12:01:37Z</time>
      </trkpt>
      <trkpt lat="45.97605" lon="4.75675">
        <ele>171</ele>
        <time>2017-12-23T12:01:38Z</time>
      </trkpt>
      <trkpt lat="45.976" lon="4.75678">
        <ele>171</ele>
        <time>2017-12-23T12:01:39Z</time>
      </trkpt>
      <trkpt lat="45.97594" lon="4.75682">
        <ele>171</ele>
        <time>2017-12-23T12:01:40Z</time>
      </trkpt>
      <trkpt lat="45.97589" lon="4.75684">
        <ele>171</ele>
        <time>2017-12-23T12:01:41Z</time>
      </trkpt>
      <trkpt lat="45.97582" lon="4.75683">
        <ele>171</ele>
        <time>2017-12-23T12:01:42Z</time>
      </trkpt>
      <trkpt lat="45.97577" lon="4.75679">
        <ele>171</ele>
        <time>2017-12-23T12:01:43Z</time>
      </trkpt>
      <trkpt lat="45.97573" lon="4.75675">
        <ele>171</ele>
        <time>2017-12-23T12:01:44Z</time>
      </trkpt>
      <trkpt lat="45.97567" lon="4.75669">
        <ele>171</ele>
        <time>2017-12-23T12:01:45Z</time>
      </trkpt>
      <trkpt lat="45.97562" lon="4.75666">
        <ele>170</ele>
        <time>2017-12-23T12:01:46Z</time>
      </trkpt>
      <trkpt lat="45.97557" lon="4.75664">
        <ele>169</ele>
        <time>2017-12-23T12:01:47Z</time>
      </trkpt>
      <trkpt lat="45.97552" lon="4.75662">
        <ele>169</ele>
        <time>2017-12-23T12:01:48Z</time>
      </trkpt>
      <trkpt lat="45.97546" lon="4.7566">
        <ele>169</ele>
        <time>2017-12-23T12:01:49Z</time>
      </trkpt>
      <trkpt lat="45.97539" lon="4.75658">
        <ele>169</ele>
        <time>2017-12-23T12:01:50Z</time>
      </trkpt>
      <trkpt lat="45.97532" lon="4.75658">
        <ele>169</ele>
        <time>2017-12-23T12:01:51Z</time>
      </trkpt>
      <trkpt lat="45.97525" lon="4.75661">
        <ele>169</ele>
        <time>2017-12-23T12:01:52Z</time>
      </trkpt>
      <trkpt lat="45.97518" lon="4.75663">
        <ele>169</ele>
        <time>2017-12-23T12:01:53Z</time>
      </trkpt>
      <trkpt lat="45.97512" lon="4.75666">
        <ele>169</ele>
        <time>2017-12-23T12:01:54Z</time>
      </trkpt>
      <trkpt lat="45.97507" lon="4.75668">
        <ele>170</ele>
        <time>2017-12-23T12:01:55Z</time>
      </trkpt>
      <trkpt lat="45.97501" lon="4.75671">
        <ele>170</ele>
        <time>2017-12-23T12:01:56Z</time>
      </trkpt>
      <trkpt lat="45.97493" lon="4.75674">
        <ele>170</ele>
        <time>2017-12-23T12:01:57Z</time>
      </trkpt>
      <trkpt lat="45.97487" lon="4.75675">
        <ele>170</ele>
        <time>2017-12-23T12:01:58Z</time>
      </trkpt>
      <trkpt lat="45.9748" lon="4.75678">
        <ele>171</ele>
        <time>2017-12-23T12:01:59Z</time>
      </trkpt>
      <trkpt lat="45.97473" lon="4.75679">
        <ele>171</ele>
        <time>2017-12-23T12:02:00Z</time>
      </trkpt>
      <trkpt lat="45.97467" lon="4.75679">
        <ele>171</ele>
        <time>2017-12-23T12:02:01Z</time>
      </trkpt>
      <trkpt lat="45.9746" lon="4.75679">
        <ele>171</ele>
        <time>2017-12-23T12:02:02Z</time>
      </trkpt>
      <trkpt lat="45.97454" lon="4.7568">
        <ele>171</ele>
        <time>2017-12-23T12:02:03Z</time>
      </trkpt>
      <trkpt lat="45.97448" lon="4.7568">
        <ele>170</ele>
        <time>2017-12-23T12:02:04Z</time>
      </trkpt>
      <trkpt lat="45.97442" lon="4.75681">
        <ele>170</ele>
        <time>2017-12-23T12:02:05Z</time>
      </trkpt>
      <trkpt lat="45.97435" lon="4.75681">
        <ele>170</ele>
        <time>2017-12-23T12:02:06Z</time>
      </trkpt>
      <trkpt lat="45.97429" lon="4.75681">
        <ele>170</ele>
        <time>2017-12-23T12:02:07Z</time>
      </trkpt>
      <trkpt lat="45.97422" lon="4.75681">
        <ele>170</ele>
        <time>2017-12-23T12:02:08Z</time>
      </trkpt>
      <trkpt lat="45.97416" lon="4.75682">
        <ele>171</ele>
        <time>2017-12-23T12:02:09Z</time>
      </trkpt>
      <trkpt lat="45.97409" lon="4.75682">
        <ele>171</ele>
        <time>2017-12-23T12:02:10Z</time>
      </trkpt>
      <trkpt lat="45.97403" lon="4.75682">
        <ele>172</ele>
        <time>2017-12-23T12:02:11Z</time>
      </trkpt>
      <trkpt lat="45.97396" lon="4.75682">
        <ele>172</ele>
        <time>2017-12-23T12:02:12Z</time>
      </trkpt>
      <trkpt lat="45.9739" lon="4.75681">
        <ele>173</ele>
        <time>2017-12-23T12:02:13Z</time>
      </trkpt>
      <trkpt lat="45.97383" lon="4.75681">
        <ele>173</ele>
        <time>2017-12-23T12:02:14Z</time>
      </trkpt>
      <trkpt lat="45.97377" lon="4.75679">
        <ele>173</ele>
        <time>2017-12-23T12:02:15Z</time>
      </trkpt>
      <trkpt lat="45.9737" lon="4.75679">
        <ele>174</ele>
        <time>2017-12-23T12:02:16Z</time>
      </trkpt>
      <trkpt lat="45.97364" lon="4.75679">
        <ele>174</ele>
        <time>2017-12-23T12:02:17Z</time>
      </trkpt>
      <trkpt lat="45.97357" lon="4.75679">
        <ele>174</ele>
        <time>2017-12-23T12:02:18Z</time>
      </trkpt>
      <trkpt lat="45.97351" lon="4.75678">
        <ele>175</ele>
        <time>2017-12-23T12:02:19Z</time>
      </trkpt>
      <trkpt lat="45.97345" lon="4.75678">
        <ele>175</ele>
        <time>2017-12-23T12:02:20Z</time>
      </trkpt>
      <trkpt lat="45.97338" lon="4.75677">
        <ele>175</ele>
        <time>2017-12-23T12:02:21Z</time>
      </trkpt>
      <trkpt lat="45.97332" lon="4.75677">
        <ele>176</ele>
        <time>2017-12-23T12:02:22Z</time>
      </trkpt>
      <trkpt lat="45.97325" lon="4.75676">
        <ele>176</ele>
        <time>2017-12-23T12:02:23Z</time>
      </trkpt>
      <trkpt lat="45.97319" lon="4.75675">
        <ele>176</ele>
        <time>2017-12-23T12:02:24Z</time>
      </trkpt>
      <trkpt lat="45.97313" lon="4.75675">
        <ele>176</ele>
        <time>2017-12-23T12:02:25Z</time>
      </trkpt>
      <trkpt lat="45.97305" lon="4.75674">
        <ele>176</ele>
        <time>2017-12-23T12:02:26Z</time>
      </trkpt>
      <trkpt lat="45.97298" lon="4.75674">
        <ele>176</ele>
        <time>2017-12-23T12:02:27Z</time>
      </trkpt>
      <trkpt lat="45.97292" lon="4.75673">
        <ele>176</ele>
        <time>2017-12-23T12:02:28Z</time>
      </trkpt>
      <trkpt lat="45.97286" lon="4.75672">
        <ele>176</ele>
        <time>2017-12-23T12:02:29Z</time>
      </trkpt>
      <trkpt lat="45.97279" lon="4.7567">
        <ele>176</ele>
        <time>2017-12-23T12:02:30Z</time>
      </trkpt>
      <trkpt lat="45.97272" lon="4.75668">
        <ele>176</ele>
        <time>2017-12-23T12:02:31Z</time>
      </trkpt>
      <trkpt lat="45.97266" lon="4.75667">
        <ele>173</ele>
        <time>2017-12-23T12:02:32Z</time>
      </trkpt>
      <trkpt lat="45.9726" lon="4.75664">
        <ele>173</ele>
        <time>2017-12-23T12:02:33Z</time>
      </trkpt>
      <trkpt lat="45.97253" lon="4.75664">
        <ele>173</ele>
        <time>2017-12-23T12:02:34Z</time>
      </trkpt>
      <trkpt lat="45.97246" lon="4.75661">
        <ele>174</ele>
        <time>2017-12-23T12:02:35Z</time>
      </trkpt>
      <trkpt lat="45.97239" lon="4.75659">
        <ele>173</ele>
        <time>2017-12-23T12:02:36Z</time>
      </trkpt>
      <trkpt lat="45.97233" lon="4.75656">
        <ele>173</ele>
        <time>2017-12-23T12:02:37Z</time>
      </trkpt>
      <trkpt lat="45.97227" lon="4.75653">
        <ele>173</ele>
        <time>2017-12-23T12:02:38Z</time>
      </trkpt>
      <trkpt lat="45.97221" lon="4.7565">
        <ele>173</ele>
        <time>2017-12-23T12:02:39Z</time>
      </trkpt>
      <trkpt lat="45.97215" lon="4.75649">
        <ele>173</ele>
        <time>2017-12-23T12:02:40Z</time>
      </trkpt>
      <trkpt lat="45.97208" lon="4.75647">
        <ele>173</ele>
        <time>2017-12-23T12:02:41Z</time>
      </trkpt>
      <trkpt lat="45.97202" lon="4.75644">
        <ele>173</ele>
        <time>2017-12-23T12:02:42Z</time>
      </trkpt>
      <trkpt lat="45.97197" lon="4.75642">
        <ele>173</ele>
        <time>2017-12-23T12:02:43Z</time>
      </trkpt>
      <trkpt lat="45.97191" lon="4.7564">
        <ele>174</ele>
        <time>2017-12-23T12:02:44Z</time>
      </trkpt>
      <trkpt lat="45.97186" lon="4.75635">
        <ele>174</ele>
        <time>2017-12-23T12:02:45Z</time>
      </trkpt>
      <trkpt lat="45.97179" lon="4.75632">
        <ele>174</ele>
        <time>2017-12-23T12:02:46Z</time>
      </trkpt>
      <trkpt lat="45.97172" lon="4.7563">
        <ele>174</ele>
        <time>2017-12-23T12:02:47Z</time>
      </trkpt>
      <trkpt lat="45.97166" lon="4.75628">
        <ele>176</ele>
        <time>2017-12-23T12:02:48Z</time>
      </trkpt>
      <trkpt lat="45.9716" lon="4.75625">
        <ele>176</ele>
        <time>2017-12-23T12:02:49Z</time>
      </trkpt>
      <trkpt lat="45.97154" lon="4.75622">
        <ele>176</ele>
        <time>2017-12-23T12:02:50Z</time>
      </trkpt>
      <trkpt lat="45.97148" lon="4.75618">
        <ele>176</ele>
        <time>2017-12-23T12:02:51Z</time>
      </trkpt>
      <trkpt lat="45.97141" lon="4.75615">
        <ele>176</ele>
        <time>2017-12-23T12:02:52Z</time>
      </trkpt>
      <trkpt lat="45.97136" lon="4.75611">
        <ele>176</ele>
        <time>2017-12-23T12:02:53Z</time>
      </trkpt>
      <trkpt lat="45.9713" lon="4.75609">
        <ele>176</ele>
        <time>2017-12-23T12:02:54Z</time>
      </trkpt>
      <trkpt lat="45.97124" lon="4.75607">
        <ele>176</ele>
        <time>2017-12-23T12:02:55Z</time>
      </trkpt>
      <trkpt lat="45.97117" lon="4.75605">
        <ele>176</ele>
        <time>2017-12-23T12:02:56Z</time>
      </trkpt>
      <trkpt lat="45.97112" lon="4.75601">
        <ele>176</ele>
        <time>2017-12-23T12:02:57Z</time>
      </trkpt>
      <trkpt lat="45.97106" lon="4.75599">
        <ele>176</ele>
        <time>2017-12-23T12:02:58Z</time>
      </trkpt>
      <trkpt lat="45.971" lon="4.75596">
        <ele>176</ele>
        <time>2017-12-23T12:02:59Z</time>
      </trkpt>
      <trkpt lat="45.97092" lon="4.75595">
        <ele>176</ele>
        <time>2017-12-23T12:03:00Z</time>
      </trkpt>
      <trkpt lat="45.97086" lon="4.75593">
        <ele>176</ele>
        <time>2017-12-23T12:03:01Z</time>
      </trkpt>
      <trkpt lat="45.97081" lon="4.75591">
        <ele>177</ele>
        <time>2017-12-23T12:03:02Z</time>
      </trkpt>
      <trkpt lat="45.97075" lon="4.75588">
        <ele>178</ele>
        <time>2017-12-23T12:03:03Z</time>
      </trkpt>
      <trkpt lat="45.97069" lon="4.75587">
        <ele>178</ele>
        <time>2017-12-23T12:03:04Z</time>
      </trkpt>
      <trkpt lat="45.97063" lon="4.75584">
        <ele>179</ele>
        <time>2017-12-23T12:03:05Z</time>
      </trkpt>
      <trkpt lat="45.97057" lon="4.75582">
        <ele>174</ele>
        <time>2017-12-23T12:03:06Z</time>
      </trkpt>
      <trkpt lat="45.97051" lon="4.75579">
        <ele>174</ele>
        <time>2017-12-23T12:03:07Z</time>
      </trkpt>
      <trkpt lat="45.97045" lon="4.75576">
        <ele>174</ele>
        <time>2017-12-23T12:03:08Z</time>
      </trkpt>
      <trkpt lat="45.97039" lon="4.75574">
        <ele>174</ele>
        <time>2017-12-23T12:03:09Z</time>
      </trkpt>
      <trkpt lat="45.97034" lon="4.75572">
        <ele>174</ele>
        <time>2017-12-23T12:03:10Z</time>
      </trkpt>
      <trkpt lat="45.97028" lon="4.75569">
        <ele>174</ele>
        <time>2017-12-23T12:03:11Z</time>
      </trkpt>
      <trkpt lat="45.97022" lon="4.75566">
        <ele>174</ele>
        <time>2017-12-23T12:03:12Z</time>
      </trkpt>
      <trkpt lat="45.97016" lon="4.75564">
        <ele>175</ele>
        <time>2017-12-23T12:03:13Z</time>
      </trkpt>
      <trkpt lat="45.97011" lon="4.75562">
        <ele>175</ele>
        <time>2017-12-23T12:03:14Z</time>
      </trkpt>
      <trkpt lat="45.97005" lon="4.75561">
        <ele>175</ele>
        <time>2017-12-23T12:03:15Z</time>
      </trkpt>
      <trkpt lat="45.96998" lon="4.75558">
        <ele>176</ele>
        <time>2017-12-23T12:03:16Z</time>
      </trkpt>
      <trkpt lat="45.96992" lon="4.75556">
        <ele>176</ele>
        <time>2017-12-23T12:03:17Z</time>
      </trkpt>
      <trkpt lat="45.96986" lon="4.75553">
        <ele>176</ele>
        <time>2017-12-23T12:03:18Z</time>
      </trkpt>
      <trkpt lat="45.96979" lon="4.75551">
        <ele>175</ele>
        <time>2017-12-23T12:03:19Z</time>
      </trkpt>
      <trkpt lat="45.96973" lon="4.75549">
        <ele>175</ele>
        <time>2017-12-23T12:03:20Z</time>
      </trkpt>
      <trkpt lat="45.96967" lon="4.75546">
        <ele>175</ele>
        <time>2017-12-23T12:03:21Z</time>
      </trkpt>
      <trkpt lat="45.96961" lon="4.75544">
        <ele>175</ele>
        <time>2017-12-23T12:03:22Z</time>
      </trkpt>
      <trkpt lat="45.96955" lon="4.75542">
        <ele>175</ele>
        <time>2017-12-23T12:03:23Z</time>
      </trkpt>
      <trkpt lat="45.96948" lon="4.7554">
        <ele>175</ele>
        <time>2017-12-23T12:03:24Z</time>
      </trkpt>
      <trkpt lat="45.96942" lon="4.75538">
        <ele>175</ele>
        <time>2017-12-23T12:03:25Z</time>
      </trkpt>
      <trkpt lat="45.96936" lon="4.75535">
        <ele>175</ele>
        <time>2017-12-23T12:03:26Z</time>
      </trkpt>
      <trkpt lat="45.9693" lon="4.75534">
        <ele>175</ele>
        <time>2017-12-23T12:03:27Z</time>
      </trkpt>
      <trkpt lat="45.96925" lon="4.75531">
        <ele>175</ele>
        <time>2017-12-23T12:03:28Z</time>
      </trkpt>
      <trkpt lat="45.96918" lon="4.75529">
        <ele>175</ele>
        <time>2017-12-23T12:03:29Z</time>
      </trkpt>
      <trkpt lat="45.96913" lon="4.75526">
        <ele>178</ele>
        <time>2017-12-23T12:03:30Z</time>
      </trkpt>
      <trkpt lat="45.96907" lon="4.75523">
        <ele>178</ele>
        <time>2017-12-23T12:03:31Z</time>
      </trkpt>
      <trkpt lat="45.96899" lon="4.75521">
        <ele>178</ele>
        <time>2017-12-23T12:03:32Z</time>
      </trkpt>
      <trkpt lat="45.96892" lon="4.75519">
        <ele>179</ele>
        <time>2017-12-23T12:03:33Z</time>
      </trkpt>
      <trkpt lat="45.96886" lon="4.75517">
        <ele>179</ele>
        <time>2017-12-23T12:03:34Z</time>
      </trkpt>
      <trkpt lat="45.9688" lon="4.75517">
        <ele>179</ele>
        <time>2017-12-23T12:03:35Z</time>
      </trkpt>
      <trkpt lat="45.96872" lon="4.75516">
        <ele>179</ele>
        <time>2017-12-23T12:03:36Z</time>
      </trkpt>
      <trkpt lat="45.96866" lon="4.75514">
        <ele>179</ele>
        <time>2017-12-23T12:03:37Z</time>
      </trkpt>
      <trkpt lat="45.9686" lon="4.75511">
        <ele>179</ele>
        <time>2017-12-23T12:03:38Z</time>
      </trkpt>
      <trkpt lat="45.96854" lon="4.75508">
        <ele>178</ele>
        <time>2017-12-23T12:03:39Z</time>
      </trkpt>
      <trkpt lat="45.96848" lon="4.75505">
        <ele>177</ele>
        <time>2017-12-23T12:03:40Z</time>
      </trkpt>
      <trkpt lat="45.96842" lon="4.75502">
        <ele>176</ele>
        <time>2017-12-23T12:03:41Z</time>
      </trkpt>
      <trkpt lat="45.96836" lon="4.75501">
        <ele>175</ele>
        <time>2017-12-23T12:03:42Z</time>
      </trkpt>
      <trkpt lat="45.9683" lon="4.75498">
        <ele>174</ele>
        <time>2017-12-23T12:03:43Z</time>
      </trkpt>
      <trkpt lat="45.96825" lon="4.75495">
        <ele>174</ele>
        <time>2017-12-23T12:03:44Z</time>
      </trkpt>
      <trkpt lat="45.96819" lon="4.75493">
        <ele>174</ele>
        <time>2017-12-23T12:03:45Z</time>
      </trkpt>
      <trkpt lat="45.96813" lon="4.75491">
        <ele>174</ele>
        <time>2017-12-23T12:03:46Z</time>
      </trkpt>
      <trkpt lat="45.96807" lon="4.75488">
        <ele>174</ele>
        <time>2017-12-23T12:03:47Z</time>
      </trkpt>
      <trkpt lat="45.96801" lon="4.75485">
        <ele>174</ele>
        <time>2017-12-23T12:03:48Z</time>
      </trkpt>
      <trkpt lat="45.96795" lon="4.75483">
        <ele>175</ele>
        <time>2017-12-23T12:03:49Z</time>
      </trkpt>
      <trkpt lat="45.9679" lon="4.75481">
        <ele>175</ele>
        <time>2017-12-23T12:03:50Z</time>
      </trkpt>
      <trkpt lat="45.96785" lon="4.75476">
        <ele>175</ele>
        <time>2017-12-23T12:03:51Z</time>
      </trkpt>
      <trkpt lat="45.96779" lon="4.75473">
        <ele>175</ele>
        <time>2017-12-23T12:03:52Z</time>
      </trkpt>
      <trkpt lat="45.96773" lon="4.7547">
        <ele>175</ele>
        <time>2017-12-23T12:03:53Z</time>
      </trkpt>
      <trkpt lat="45.96767" lon="4.75468">
        <ele>175</ele>
        <time>2017-12-23T12:03:54Z</time>
      </trkpt>
      <trkpt lat="45.96762" lon="4.75464">
        <ele>175</ele>
        <time>2017-12-23T12:03:55Z</time>
      </trkpt>
      <trkpt lat="45.96756" lon="4.7546">
        <ele>174</ele>
        <time>2017-12-23T12:03:56Z</time>
      </trkpt>
      <trkpt lat="45.96749" lon="4.75458">
        <ele>180</ele>
        <time>2017-12-23T12:03:57Z</time>
      </trkpt>
      <trkpt lat="45.96744" lon="4.75454">
        <ele>179</ele>
        <time>2017-12-23T12:03:58Z</time>
      </trkpt>
      <trkpt lat="45.96738" lon="4.7545">
        <ele>179</ele>
        <time>2017-12-23T12:03:59Z</time>
      </trkpt>
      <trkpt lat="45.96732" lon="4.75447">
        <ele>179</ele>
        <time>2017-12-23T12:04:00Z</time>
      </trkpt>
      <trkpt lat="45.96726" lon="4.75443">
        <ele>179</ele>
        <time>2017-12-23T12:04:01Z</time>
      </trkpt>
      <trkpt lat="45.96721" lon="4.7544">
        <ele>179</ele>
        <time>2017-12-23T12:04:02Z</time>
      </trkpt>
      <trkpt lat="45.96715" lon="4.75437">
        <ele>179</ele>
        <time>2017-12-23T12:04:03Z</time>
      </trkpt>
      <trkpt lat="45.9671" lon="4.75434">
        <ele>179</ele>
        <time>2017-12-23T12:04:04Z</time>
      </trkpt>
      <trkpt lat="45.96705" lon="4.75431">
        <ele>179</ele>
        <time>2017-12-23T12:04:05Z</time>
      </trkpt>
      <trkpt lat="45.967" lon="4.75426">
        <ele>179</ele>
        <time>2017-12-23T12:04:06Z</time>
      </trkpt>
      <trkpt lat="45.96695" lon="4.75423">
        <ele>179</ele>
        <time>2017-12-23T12:04:07Z</time>
      </trkpt>
      <trkpt lat="45.96689" lon="4.7542">
        <ele>179</ele>
        <time>2017-12-23T12:04:08Z</time>
      </trkpt>
      <trkpt lat="45.96684" lon="4.75418">
        <ele>179</ele>
        <time>2017-12-23T12:04:09Z</time>
      </trkpt>
      <trkpt lat="45.96679" lon="4.75413">
        <ele>173</ele>
        <time>2017-12-23T12:04:10Z</time>
      </trkpt>
      <trkpt lat="45.96674" lon="4.7541">
        <ele>173</ele>
        <time>2017-12-23T12:04:11Z</time>
      </trkpt>
      <trkpt lat="45.9667" lon="4.75408">
        <ele>174</ele>
        <time>2017-12-23T12:04:12Z</time>
      </trkpt>
      <trkpt lat="45.96665" lon="4.75405">
        <ele>177</ele>
        <time>2017-12-23T12:04:13Z</time>
      </trkpt>
      <trkpt lat="45.9666" lon="4.754">
        <ele>178</ele>
        <time>2017-12-23T12:04:14Z</time>
      </trkpt>
      <trkpt lat="45.96654" lon="4.75397">
        <ele>178</ele>
        <time>2017-12-23T12:04:15Z</time>
      </trkpt>
      <trkpt lat="45.96649" lon="4.75395">
        <ele>178</ele>
        <time>2017-12-23T12:04:16Z</time>
      </trkpt>
      <trkpt lat="45.96643" lon="4.75393">
        <ele>179</ele>
        <time>2017-12-23T12:04:17Z</time>
      </trkpt>
      <trkpt lat="45.96638" lon="4.75389">
        <ele>179</ele>
        <time>2017-12-23T12:04:18Z</time>
      </trkpt>
      <trkpt lat="45.96633" lon="4.75387">
        <ele>180</ele>
        <time>2017-12-23T12:04:19Z</time>
      </trkpt>
      <trkpt lat="45.96627" lon="4.75385">
        <ele>180</ele>
        <time>2017-12-23T12:04:20Z</time>
      </trkpt>
      <trkpt lat="45.96622" lon="4.75382">
        <ele>180</ele>
        <time>2017-12-23T12:04:21Z</time>
      </trkpt>
      <trkpt lat="45.96616" lon="4.75379">
        <ele>181</ele>
        <time>2017-12-23T12:04:22Z</time>
      </trkpt>
      <trkpt lat="45.96612" lon="4.75377">
        <ele>181</ele>
        <time>2017-12-23T12:04:23Z</time>
      </trkpt>
      <trkpt lat="45.96607" lon="4.75373">
        <ele>181</ele>
        <time>2017-12-23T12:04:24Z</time>
      </trkpt>
      <trkpt lat="45.96602" lon="4.75371">
        <ele>181</ele>
        <time>2017-12-23T12:04:25Z</time>
      </trkpt>
      <trkpt lat="45.96597" lon="4.75368">
        <ele>180</ele>
        <time>2017-12-23T12:04:26Z</time>
      </trkpt>
      <trkpt lat="45.96592" lon="4.75365">
        <ele>180</ele>
        <time>2017-12-23T12:04:27Z</time>
      </trkpt>
      <trkpt lat="45.96586" lon="4.75361">
        <ele>180</ele>
        <time>2017-12-23T12:04:28Z</time>
      </trkpt>
      <trkpt lat="45.96581" lon="4.75357">
        <ele>187</ele>
        <time>2017-12-23T12:04:29Z</time>
      </trkpt>
      <trkpt lat="45.96576" lon="4.75354">
        <ele>186</ele>
        <time>2017-12-23T12:04:30Z</time>
      </trkpt>
      <trkpt lat="45.9657" lon="4.75352">
        <ele>187</ele>
        <time>2017-12-23T12:04:31Z</time>
      </trkpt>
      <trkpt lat="45.96565" lon="4.75349">
        <ele>187</ele>
        <time>2017-12-23T12:04:32Z</time>
      </trkpt>
      <trkpt lat="45.96559" lon="4.75346">
        <ele>188</ele>
        <time>2017-12-23T12:04:33Z</time>
      </trkpt>
      <trkpt lat="45.96554" lon="4.75342">
        <ele>188</ele>
        <time>2017-12-23T12:04:34Z</time>
      </trkpt>
      <trkpt lat="45.96549" lon="4.75338">
        <ele>189</ele>
        <time>2017-12-23T12:04:35Z</time>
      </trkpt>
      <trkpt lat="45.96544" lon="4.75335">
        <ele>189</ele>
        <time>2017-12-23T12:04:36Z</time>
      </trkpt>
      <trkpt lat="45.96539" lon="4.75332">
        <ele>178</ele>
        <time>2017-12-23T12:04:37Z</time>
      </trkpt>
      <trkpt lat="45.96533" lon="4.75329">
        <ele>178</ele>
        <time>2017-12-23T12:04:38Z</time>
      </trkpt>
      <trkpt lat="45.96529" lon="4.75326">
        <ele>179</ele>
        <time>2017-12-23T12:04:39Z</time>
      </trkpt>
      <trkpt lat="45.96524" lon="4.75323">
        <ele>179</ele>
        <time>2017-12-23T12:04:40Z</time>
      </trkpt>
      <trkpt lat="45.96518" lon="4.75319">
        <ele>180</ele>
        <time>2017-12-23T12:04:41Z</time>
      </trkpt>
      <trkpt lat="45.96513" lon="4.75316">
        <ele>180</ele>
        <time>2017-12-23T12:04:42Z</time>
      </trkpt>
      <trkpt lat="45.96509" lon="4.75313">
        <ele>180</ele>
        <time>2017-12-23T12:04:43Z</time>
      </trkpt>
      <trkpt lat="45.96504" lon="4.7531">
        <ele>180</ele>
        <time>2017-12-23T12:04:44Z</time>
      </trkpt>
      <trkpt lat="45.96498" lon="4.75307">
        <ele>186</ele>
        <time>2017-12-23T12:04:45Z</time>
      </trkpt>
      <trkpt lat="45.96494" lon="4.75303">
        <ele>185</ele>
        <time>2017-12-23T12:04:46Z</time>
      </trkpt>
      <trkpt lat="45.96488" lon="4.753">
        <ele>185</ele>
        <time>2017-12-23T12:04:47Z</time>
      </trkpt>
      <trkpt lat="45.96482" lon="4.75298">
        <ele>185</ele>
        <time>2017-12-23T12:04:48Z</time>
      </trkpt>
      <trkpt lat="45.96476" lon="4.75295">
        <ele>185</ele>
        <time>2017-12-23T12:04:49Z</time>
      </trkpt>
      <trkpt lat="45.96472" lon="4.75291">
        <ele>185</ele>
        <time>2017-12-23T12:04:50Z</time>
      </trkpt>
      <trkpt lat="45.96469" lon="4.75286">
        <ele>185</ele>
        <time>2017-12-23T12:04:51Z</time>
      </trkpt>
      <trkpt lat="45.96461" lon="4.75286">
        <ele>185</ele>
        <time>2017-12-23T12:04:52Z</time>
      </trkpt>
      <trkpt lat="45.96454" lon="4.7528">
        <ele>185</ele>
        <time>2017-12-23T12:04:54Z</time>
      </trkpt>
      <trkpt lat="45.96452" lon="4.75274">
        <ele>185</ele>
        <time>2017-12-23T12:04:55Z</time>
      </trkpt>
      <trkpt lat="45.96446" lon="4.75272">
        <ele>185</ele>
        <time>2017-12-23T12:04:56Z</time>
      </trkpt>
      <trkpt lat="45.96441" lon="4.75271">
        <ele>185</ele>
        <time>2017-12-23T12:04:57Z</time>
      </trkpt>
      <trkpt lat="45.96436" lon="4.75269">
        <ele>185</ele>
        <time>2017-12-23T12:04:58Z</time>
      </trkpt>
      <trkpt lat="45.96431" lon="4.75266">
        <ele>185</ele>
        <time>2017-12-23T12:04:59Z</time>
      </trkpt>
      <trkpt lat="45.96426" lon="4.75264">
        <ele>184</ele>
        <time>2017-12-23T12:05:00Z</time>
      </trkpt>
      <trkpt lat="45.96422" lon="4.75264">
        <ele>184</ele>
        <time>2017-12-23T12:05:01Z</time>
      </trkpt>
      <trkpt lat="45.96416" lon="4.75261">
        <ele>187</ele>
        <time>2017-12-23T12:05:02Z</time>
      </trkpt>
      <trkpt lat="45.96413" lon="4.75258">
        <ele>186</ele>
        <time>2017-12-23T12:05:03Z</time>
      </trkpt>
      <trkpt lat="45.96408" lon="4.75257">
        <ele>187</ele>
        <time>2017-12-23T12:05:04Z</time>
      </trkpt>
      <trkpt lat="45.96404" lon="4.75255">
        <ele>188</ele>
        <time>2017-12-23T12:05:05Z</time>
      </trkpt>
      <trkpt lat="45.96399" lon="4.75254">
        <ele>189</ele>
        <time>2017-12-23T12:05:06Z</time>
      </trkpt>
      <trkpt lat="45.96394" lon="4.75254">
        <ele>190</ele>
        <time>2017-12-23T12:05:07Z</time>
      </trkpt>
      <trkpt lat="45.96386" lon="4.7525">
        <ele>180</ele>
        <time>2017-12-23T12:05:09Z</time>
      </trkpt>
      <trkpt lat="45.96381" lon="4.75247">
        <ele>180</ele>
        <time>2017-12-23T12:05:10Z</time>
      </trkpt>
      <trkpt lat="45.96376" lon="4.75245">
        <ele>180</ele>
        <time>2017-12-23T12:05:11Z</time>
      </trkpt>
      <trkpt lat="45.96372" lon="4.75241">
        <ele>180</ele>
        <time>2017-12-23T12:05:12Z</time>
      </trkpt>
      <trkpt lat="45.96365" lon="4.75237">
        <ele>180</ele>
        <time>2017-12-23T12:05:14Z</time>
      </trkpt>
      <trkpt lat="45.9636" lon="4.75235">
        <ele>181</ele>
        <time>2017-12-23T12:05:15Z</time>
      </trkpt>
      <trkpt lat="45.96354" lon="4.75235">
        <ele>181</ele>
        <time>2017-12-23T12:05:16Z</time>
      </trkpt>
      <trkpt lat="45.96349" lon="4.75234">
        <ele>182</ele>
        <time>2017-12-23T12:05:17Z</time>
      </trkpt>
      <trkpt lat="45.96342" lon="4.75232">
        <ele>182</ele>
        <time>2017-12-23T12:05:19Z</time>
      </trkpt>
      <trkpt lat="45.96336" lon="4.7523">
        <ele>182</ele>
        <time>2017-12-23T12:05:20Z</time>
      </trkpt>
      <trkpt lat="45.96329" lon="4.75227">
        <ele>186</ele>
        <time>2017-12-23T12:05:22Z</time>
      </trkpt>
      <trkpt lat="45.96325" lon="4.75223">
        <ele>185</ele>
        <time>2017-12-23T12:05:23Z</time>
      </trkpt>
      <trkpt lat="45.9632" lon="4.75222">
        <ele>185</ele>
        <time>2017-12-23T12:05:24Z</time>
      </trkpt>
      <trkpt lat="45.96315" lon="4.7522">
        <ele>185</ele>
        <time>2017-12-23T12:05:25Z</time>
      </trkpt>
      <trkpt lat="45.9631" lon="4.75219">
        <ele>185</ele>
        <time>2017-12-23T12:05:26Z</time>
      </trkpt>
      <trkpt lat="45.96305" lon="4.75216">
        <ele>185</ele>
        <time>2017-12-23T12:05:27Z</time>
      </trkpt>
      <trkpt lat="45.96301" lon="4.75215">
        <ele>185</ele>
        <time>2017-12-23T12:05:28Z</time>
      </trkpt>
      <trkpt lat="45.96295" lon="4.75213">
        <ele>185</ele>
        <time>2017-12-23T12:05:29Z</time>
      </trkpt>
      <trkpt lat="45.96292" lon="4.75212">
        <ele>185</ele>
        <time>2017-12-23T12:05:30Z</time>
      </trkpt>
      <trkpt lat="45.96286" lon="4.7521">
        <ele>185</ele>
        <time>2017-12-23T12:05:31Z</time>
      </trkpt>
      <trkpt lat="45.96278" lon="4.75207">
        <ele>185</ele>
        <time>2017-12-23T12:05:33Z</time>
      </trkpt>
      <trkpt lat="45.96276" lon="4.75205">
        <ele>185</ele>
        <time>2017-12-23T12:05:34Z</time>
      </trkpt>
      <trkpt lat="45.96269" lon="4.75202">
        <ele>185</ele>
        <time>2017-12-23T12:05:36Z</time>
      </trkpt>
      <trkpt lat="45.96264" lon="4.752">
        <ele>185</ele>
        <time>2017-12-23T12:05:37Z</time>
      </trkpt>
      <trkpt lat="45.96257" lon="4.75197">
        <ele>185</ele>
        <time>2017-12-23T12:05:39Z</time>
      </trkpt>
      <trkpt lat="45.96253" lon="4.75196">
        <ele>185</ele>
        <time>2017-12-23T12:05:40Z</time>
      </trkpt>
      <trkpt lat="45.96245" lon="4.75193">
        <ele>191</ele>
        <time>2017-12-23T12:05:42Z</time>
      </trkpt>
      <trkpt lat="45.96241" lon="4.75191">
        <ele>191</ele>
        <time>2017-12-23T12:05:43Z</time>
      </trkpt>
      <trkpt lat="45.96234" lon="4.75187">
        <ele>191</ele>
        <time>2017-12-23T12:05:45Z</time>
      </trkpt>
      <trkpt lat="45.9623" lon="4.75185">
        <ele>191</ele>
        <time>2017-12-23T12:05:46Z</time>
      </trkpt>
      <trkpt lat="45.96222" lon="4.75179">
        <ele>192</ele>
        <time>2017-12-23T12:05:48Z</time>
      </trkpt>
      <trkpt lat="45.96216" lon="4.75174">
        <ele>192</ele>
        <time>2017-12-23T12:05:49Z</time>
      </trkpt>
      <trkpt lat="45.96211" lon="4.7517">
        <ele>193</ele>
        <time>2017-12-23T12:05:50Z</time>
      </trkpt>
      <trkpt lat="45.96207" lon="4.75168">
        <ele>193</ele>
        <time>2017-12-23T12:05:51Z</time>
      </trkpt>
      <trkpt lat="45.962" lon="4.75161">
        <ele>185</ele>
        <time>2017-12-23T12:05:53Z</time>
      </trkpt>
      <trkpt lat="45.96197" lon="4.75159">
        <ele>186</ele>
        <time>2017-12-23T12:05:54Z</time>
      </trkpt>
      <trkpt lat="45.96189" lon="4.75157">
        <ele>187</ele>
        <time>2017-12-23T12:05:56Z</time>
      </trkpt>
      <trkpt lat="45.96187" lon="4.75151">
        <ele>187</ele>
        <time>2017-12-23T12:05:57Z</time>
      </trkpt>
      <trkpt lat="45.96182" lon="4.75149">
        <ele>187</ele>
        <time>2017-12-23T12:05:58Z</time>
      </trkpt>
      <trkpt lat="45.96177" lon="4.75147">
        <ele>187</ele>
        <time>2017-12-23T12:05:59Z</time>
      </trkpt>
      <trkpt lat="45.9617" lon="4.75141">
        <ele>187</ele>
        <time>2017-12-23T12:06:01Z</time>
      </trkpt>
      <trkpt lat="45.96167" lon="4.75136">
        <ele>186</ele>
        <time>2017-12-23T12:06:02Z</time>
      </trkpt>
      <trkpt lat="45.96164" lon="4.75133">
        <ele>191</ele>
        <time>2017-12-23T12:06:03Z</time>
      </trkpt>
      <trkpt lat="45.9616" lon="4.75128">
        <ele>190</ele>
        <time>2017-12-23T12:06:04Z</time>
      </trkpt>
      <trkpt lat="45.96155" lon="4.75119">
        <ele>189</ele>
        <time>2017-12-23T12:06:06Z</time>
      </trkpt>
      <trkpt lat="45.96151" lon="4.75116">
        <ele>188</ele>
        <time>2017-12-23T12:06:07Z</time>
      </trkpt>
      <trkpt lat="45.96146" lon="4.75107">
        <ele>188</ele>
        <time>2017-12-23T12:06:09Z</time>
      </trkpt>
      <trkpt lat="45.96144" lon="4.75104">
        <ele>187</ele>
        <time>2017-12-23T12:06:10Z</time>
      </trkpt>
      <trkpt lat="45.96139" lon="4.75097">
        <ele>187</ele>
        <time>2017-12-23T12:06:12Z</time>
      </trkpt>
      <trkpt lat="45.96136" lon="4.75094">
        <ele>188</ele>
        <time>2017-12-23T12:06:13Z</time>
      </trkpt>
      <trkpt lat="45.96129" lon="4.75088">
        <ele>188</ele>
        <time>2017-12-23T12:06:15Z</time>
      </trkpt>
      <trkpt lat="45.96126" lon="4.75085">
        <ele>188</ele>
        <time>2017-12-23T12:06:16Z</time>
      </trkpt>
      <trkpt lat="45.9612" lon="4.75079">
        <ele>183</ele>
        <time>2017-12-23T12:06:18Z</time>
      </trkpt>
      <trkpt lat="45.96116" lon="4.75076">
        <ele>183</ele>
        <time>2017-12-23T12:06:19Z</time>
      </trkpt>
      <trkpt lat="45.9611" lon="4.7507">
        <ele>183</ele>
        <time>2017-12-23T12:06:21Z</time>
      </trkpt>
      <trkpt lat="45.96106" lon="4.75067">
        <ele>184</ele>
        <time>2017-12-23T12:06:22Z</time>
      </trkpt>
      <trkpt lat="45.96099" lon="4.75061">
        <ele>184</ele>
        <time>2017-12-23T12:06:24Z</time>
      </trkpt>
      <trkpt lat="45.96095" lon="4.75058">
        <ele>184</ele>
        <time>2017-12-23T12:06:25Z</time>
      </trkpt>
      <trkpt lat="45.9609" lon="4.75056">
        <ele>184</ele>
        <time>2017-12-23T12:06:26Z</time>
      </trkpt>
      <trkpt lat="45.96086" lon="4.75054">
        <ele>184</ele>
        <time>2017-12-23T12:06:27Z</time>
      </trkpt>
      <trkpt lat="45.96081" lon="4.75052">
        <ele>188</ele>
        <time>2017-12-23T12:06:28Z</time>
      </trkpt>
      <trkpt lat="45.96076" lon="4.75049">
        <ele>188</ele>
        <time>2017-12-23T12:06:29Z</time>
      </trkpt>
      <trkpt lat="45.96071" lon="4.75048">
        <ele>188</ele>
        <time>2017-12-23T12:06:30Z</time>
      </trkpt>
      <trkpt lat="45.96066" lon="4.75047">
        <ele>188</ele>
        <time>2017-12-23T12:06:31Z</time>
      </trkpt>
      <trkpt lat="45.96062" lon="4.75046">
        <ele>188</ele>
        <time>2017-12-23T12:06:32Z</time>
      </trkpt>
      <trkpt lat="45.96057" lon="4.75046">
        <ele>188</ele>
        <time>2017-12-23T12:06:33Z</time>
      </trkpt>
      <trkpt lat="45.96051" lon="4.75046">
        <ele>188</ele>
        <time>2017-12-23T12:06:34Z</time>
      </trkpt>
      <trkpt lat="45.96047" lon="4.75047">
        <ele>189</ele>
        <time>2017-12-23T12:06:35Z</time>
      </trkpt>
      <trkpt lat="45.96043" lon="4.75047">
        <ele>189</ele>
        <time>2017-12-23T12:06:36Z</time>
      </trkpt>
      <trkpt lat="45.96038" lon="4.75048">
        <ele>189</ele>
        <time>2017-12-23T12:06:37Z</time>
      </trkpt>
      <trkpt lat="45.96033" lon="4.75049">
        <ele>189</ele>
        <time>2017-12-23T12:06:38Z</time>
      </trkpt>
      <trkpt lat="45.96029" lon="4.7505">
        <ele>189</ele>
        <time>2017-12-23T12:06:39Z</time>
      </trkpt>
      <trkpt lat="45.96024" lon="4.75052">
        <ele>190</ele>
        <time>2017-12-23T12:06:40Z</time>
      </trkpt>
      <trkpt lat="45.9602" lon="4.75053">
        <ele>190</ele>
        <time>2017-12-23T12:06:41Z</time>
      </trkpt>
      <trkpt lat="45.96012" lon="4.75057">
        <ele>190</ele>
        <time>2017-12-23T12:06:43Z</time>
      </trkpt>
      <trkpt lat="45.96009" lon="4.7506">
        <ele>191</ele>
        <time>2017-12-23T12:06:44Z</time>
      </trkpt>
      <trkpt lat="45.96002" lon="4.75064">
        <ele>192</ele>
        <time>2017-12-23T12:06:46Z</time>
      </trkpt>
      <trkpt lat="45.95997" lon="4.75066">
        <ele>192</ele>
        <time>2017-12-23T12:06:47Z</time>
      </trkpt>
      <trkpt lat="45.95989" lon="4.75069">
        <ele>192</ele>
        <time>2017-12-23T12:06:49Z</time>
      </trkpt>
      <trkpt lat="45.95987" lon="4.75071">
        <ele>192</ele>
        <time>2017-12-23T12:06:50Z</time>
      </trkpt>
      <trkpt lat="45.9598" lon="4.75074">
        <ele>192</ele>
        <time>2017-12-23T12:06:52Z</time>
      </trkpt>
      <trkpt lat="45.95976" lon="4.75076">
        <ele>192</ele>
        <time>2017-12-23T12:06:53Z</time>
      </trkpt>
      <trkpt lat="45.95968" lon="4.75079">
        <ele>191</ele>
        <time>2017-12-23T12:06:55Z</time>
      </trkpt>
      <trkpt lat="45.95964" lon="4.7508">
        <ele>191</ele>
        <time>2017-12-23T12:06:56Z</time>
      </trkpt>
      <trkpt lat="45.95955" lon="4.75082">
        <ele>190</ele>
        <time>2017-12-23T12:06:58Z</time>
      </trkpt>
      <trkpt lat="45.95951" lon="4.75083">
        <ele>190</ele>
        <time>2017-12-23T12:06:59Z</time>
      </trkpt>
      <trkpt lat="45.95943" lon="4.75086">
        <ele>192</ele>
        <time>2017-12-23T12:07:01Z</time>
      </trkpt>
      <trkpt lat="45.95939" lon="4.75087">
        <ele>192</ele>
        <time>2017-12-23T12:07:02Z</time>
      </trkpt>
      <trkpt lat="45.95931" lon="4.75091">
        <ele>192</ele>
        <time>2017-12-23T12:07:04Z</time>
      </trkpt>
      <trkpt lat="45.95927" lon="4.75093">
        <ele>192</ele>
        <time>2017-12-23T12:07:05Z</time>
      </trkpt>
      <trkpt lat="45.95918" lon="4.75097">
        <ele>191</ele>
        <time>2017-12-23T12:07:07Z</time>
      </trkpt>
      <trkpt lat="45.95914" lon="4.75099">
        <ele>190</ele>
        <time>2017-12-23T12:07:08Z</time>
      </trkpt>
      <trkpt lat="45.95906" lon="4.75103">
        <ele>191</ele>
        <time>2017-12-23T12:07:10Z</time>
      </trkpt>
      <trkpt lat="45.95902" lon="4.75105">
        <ele>191</ele>
        <time>2017-12-23T12:07:11Z</time>
      </trkpt>
      <trkpt lat="45.95894" lon="4.7511">
        <ele>191</ele>
        <time>2017-12-23T12:07:13Z</time>
      </trkpt>
      <trkpt lat="45.9589" lon="4.75113">
        <ele>191</ele>
        <time>2017-12-23T12:07:14Z</time>
      </trkpt>
      <trkpt lat="45.95883" lon="4.75119">
        <ele>191</ele>
        <time>2017-12-23T12:07:16Z</time>
      </trkpt>
      <trkpt lat="45.9588" lon="4.75122">
        <ele>191</ele>
        <time>2017-12-23T12:07:17Z</time>
      </trkpt>
      <trkpt lat="45.95873" lon="4.75129">
        <ele>191</ele>
        <time>2017-12-23T12:07:19Z</time>
      </trkpt>
      <trkpt lat="45.95869" lon="4.75132">
        <ele>191</ele>
        <time>2017-12-23T12:07:20Z</time>
      </trkpt>
      <trkpt lat="45.95863" lon="4.75139">
        <ele>191</ele>
        <time>2017-12-23T12:07:22Z</time>
      </trkpt>
      <trkpt lat="45.95859" lon="4.75143">
        <ele>191</ele>
        <time>2017-12-23T12:07:23Z</time>
      </trkpt>
      <trkpt lat="45.95853" lon="4.75152">
        <ele>191</ele>
        <time>2017-12-23T12:07:25Z</time>
      </trkpt>
      <trkpt lat="45.95849" lon="4.75157">
        <ele>191</ele>
        <time>2017-12-23T12:07:26Z</time>
      </trkpt>
      <trkpt lat="45.95843" lon="4.75165">
        <ele>192</ele>
        <time>2017-12-23T12:07:28Z</time>
      </trkpt>
      <trkpt lat="45.9584" lon="4.75169">
        <ele>192</ele>
        <time>2017-12-23T12:07:29Z</time>
      </trkpt>
      <trkpt lat="45.95833" lon="4.75177">
        <ele>192</ele>
        <time>2017-12-23T12:07:31Z</time>
      </trkpt>
      <trkpt lat="45.9583" lon="4.75181">
        <ele>192</ele>
        <time>2017-12-23T12:07:32Z</time>
      </trkpt>
      <trkpt lat="45.95826" lon="4.75186">
        <ele>192</ele>
        <time>2017-12-23T12:07:33Z</time>
      </trkpt>
      <trkpt lat="45.95823" lon="4.7519">
        <ele>193</ele>
        <time>2017-12-23T12:07:34Z</time>
      </trkpt>
      <trkpt lat="45.95817" lon="4.75199">
        <ele>193</ele>
        <time>2017-12-23T12:07:36Z</time>
      </trkpt>
      <trkpt lat="45.95814" lon="4.75203">
        <ele>193</ele>
        <time>2017-12-23T12:07:37Z</time>
      </trkpt>
      <trkpt lat="45.95811" lon="4.75207">
        <ele>193</ele>
        <time>2017-12-23T12:07:38Z</time>
      </trkpt>
      <trkpt lat="45.95808" lon="4.75213">
        <ele>193</ele>
        <time>2017-12-23T12:07:39Z</time>
      </trkpt>
      <trkpt lat="45.95805" lon="4.75218">
        <ele>193</ele>
        <time>2017-12-23T12:07:40Z</time>
      </trkpt>
      <trkpt lat="45.95801" lon="4.75223">
        <ele>193</ele>
        <time>2017-12-23T12:07:41Z</time>
      </trkpt>
      <trkpt lat="45.95798" lon="4.75227">
        <ele>193</ele>
        <time>2017-12-23T12:07:42Z</time>
      </trkpt>
      <trkpt lat="45.95795" lon="4.75231">
        <ele>193</ele>
        <time>2017-12-23T12:07:43Z</time>
      </trkpt>
      <trkpt lat="45.95791" lon="4.75235">
        <ele>193</ele>
        <time>2017-12-23T12:07:44Z</time>
      </trkpt>
      <trkpt lat="45.95787" lon="4.7524">
        <ele>193</ele>
        <time>2017-12-23T12:07:45Z</time>
      </trkpt>
      <trkpt lat="45.95783" lon="4.75245">
        <ele>193</ele>
        <time>2017-12-23T12:07:46Z</time>
      </trkpt>
      <trkpt lat="45.9578" lon="4.75248">
        <ele>193</ele>
        <time>2017-12-23T12:07:47Z</time>
      </trkpt>
      <trkpt lat="45.95776" lon="4.75253">
        <ele>193</ele>
        <time>2017-12-23T12:07:48Z</time>
      </trkpt>
      <trkpt lat="45.95773" lon="4.75259">
        <ele>193</ele>
        <time>2017-12-23T12:07:49Z</time>
      </trkpt>
      <trkpt lat="45.9577" lon="4.75264">
        <ele>193</ele>
        <time>2017-12-23T12:07:50Z</time>
      </trkpt>
      <trkpt lat="45.95766" lon="4.75267">
        <ele>193</ele>
        <time>2017-12-23T12:07:51Z</time>
      </trkpt>
      <trkpt lat="45.95762" lon="4.75271">
        <ele>193</ele>
        <time>2017-12-23T12:07:52Z</time>
      </trkpt>
      <trkpt lat="45.95758" lon="4.75275">
        <ele>193</ele>
        <time>2017-12-23T12:07:53Z</time>
      </trkpt>
      <trkpt lat="45.95754" lon="4.75278">
        <ele>193</ele>
        <time>2017-12-23T12:07:54Z</time>
      </trkpt>
      <trkpt lat="45.9575" lon="4.75283">
        <ele>193</ele>
        <time>2017-12-23T12:07:55Z</time>
      </trkpt>
      <trkpt lat="45.95746" lon="4.75288">
        <ele>193</ele>
        <time>2017-12-23T12:07:56Z</time>
      </trkpt>
      <trkpt lat="45.95741" lon="4.75292">
        <ele>193</ele>
        <time>2017-12-23T12:07:57Z</time>
      </trkpt>
      <trkpt lat="45.95737" lon="4.75297">
        <ele>193</ele>
        <time>2017-12-23T12:07:58Z</time>
      </trkpt>
      <trkpt lat="45.95733" lon="4.75301">
        <ele>193</ele>
        <time>2017-12-23T12:07:59Z</time>
      </trkpt>
      <trkpt lat="45.95729" lon="4.75305">
        <ele>193</ele>
        <time>2017-12-23T12:08:00Z</time>
      </trkpt>
      <trkpt lat="45.95725" lon="4.75309">
        <ele>193</ele>
        <time>2017-12-23T12:08:01Z</time>
      </trkpt>
      <trkpt lat="45.9572" lon="4.75314">
        <ele>193</ele>
        <time>2017-12-23T12:08:02Z</time>
      </trkpt>
      <trkpt lat="45.95715" lon="4.75319">
        <ele>193</ele>
        <time>2017-12-23T12:08:03Z</time>
      </trkpt>
      <trkpt lat="45.95711" lon="4.75323">
        <ele>193</ele>
        <time>2017-12-23T12:08:04Z</time>
      </trkpt>
      <trkpt lat="45.95707" lon="4.75327">
        <ele>193</ele>
        <time>2017-12-23T12:08:05Z</time>
      </trkpt>
      <trkpt lat="45.95702" lon="4.75332">
        <ele>193</ele>
        <time>2017-12-23T12:08:06Z</time>
      </trkpt>
      <trkpt lat="45.95697" lon="4.75337">
        <ele>193</ele>
        <time>2017-12-23T12:08:07Z</time>
      </trkpt>
      <trkpt lat="45.95692" lon="4.75343">
        <ele>193</ele>
        <time>2017-12-23T12:08:08Z</time>
      </trkpt>
      <trkpt lat="45.95688" lon="4.75347">
        <ele>193</ele>
        <time>2017-12-23T12:08:09Z</time>
      </trkpt>
      <trkpt lat="45.95683" lon="4.75352">
        <ele>193</ele>
        <time>2017-12-23T12:08:10Z</time>
      </trkpt>
      <trkpt lat="45.95678" lon="4.75357">
        <ele>193</ele>
        <time>2017-12-23T12:08:11Z</time>
      </trkpt>
      <trkpt lat="45.95673" lon="4.75362">
        <ele>193</ele>
        <time>2017-12-23T12:08:12Z</time>
      </trkpt>
      <trkpt lat="45.95668" lon="4.75367">
        <ele>193</ele>
        <time>2017-12-23T12:08:13Z</time>
      </trkpt>
      <trkpt lat="45.95663" lon="4.75372">
        <ele>193</ele>
        <time>2017-12-23T12:08:14Z</time>
      </trkpt>
      <trkpt lat="45.95657" lon="4.75377">
        <ele>193</ele>
        <time>2017-12-23T12:08:15Z</time>
      </trkpt>
      <trkpt lat="45.95652" lon="4.75381">
        <ele>193</ele>
        <time>2017-12-23T12:08:16Z</time>
      </trkpt>
      <trkpt lat="45.95646" lon="4.75386">
        <ele>193</ele>
        <time>2017-12-23T12:08:17Z</time>
      </trkpt>
      <trkpt lat="45.9564" lon="4.75391">
        <ele>193</ele>
        <time>2017-12-23T12:08:18Z</time>
      </trkpt>
      <trkpt lat="45.95634" lon="4.75396">
        <ele>193</ele>
        <time>2017-12-23T12:08:19Z</time>
      </trkpt>
      <trkpt lat="45.95627" lon="4.75401">
        <ele>193</ele>
        <time>2017-12-23T12:08:20Z</time>
      </trkpt>
      <trkpt lat="45.9562" lon="4.75405">
        <ele>193</ele>
        <time>2017-12-23T12:08:21Z</time>
      </trkpt>
      <trkpt lat="45.95613" lon="4.75409">
        <ele>193</ele>
        <time>2017-12-23T12:08:22Z</time>
      </trkpt>
      <trkpt lat="45.95606" lon="4.75414">
        <ele>193</ele>
        <time>2017-12-23T12:08:23Z</time>
      </trkpt>
      <trkpt lat="45.956" lon="4.75418">
        <ele>192</ele>
        <time>2017-12-23T12:08:24Z</time>
      </trkpt>
      <trkpt lat="45.95593" lon="4.75423">
        <ele>192</ele>
        <time>2017-12-23T12:08:25Z</time>
      </trkpt>
      <trkpt lat="45.95587" lon="4.75428">
        <ele>192</ele>
        <time>2017-12-23T12:08:26Z</time>
      </trkpt>
      <trkpt lat="45.9558" lon="4.75432">
        <ele>190</ele>
        <time>2017-12-23T12:08:27Z</time>
      </trkpt>
      <trkpt lat="45.95573" lon="4.75437">
        <ele>189</ele>
        <time>2017-12-23T12:08:28Z</time>
      </trkpt>
      <trkpt lat="45.95565" lon="4.75441">
        <ele>189</ele>
        <time>2017-12-23T12:08:29Z</time>
      </trkpt>
      <trkpt lat="45.95557" lon="4.75444">
        <ele>188</ele>
        <time>2017-12-23T12:08:30Z</time>
      </trkpt>
      <trkpt lat="45.95548" lon="4.75447">
        <ele>188</ele>
        <time>2017-12-23T12:08:31Z</time>
      </trkpt>
      <trkpt lat="45.9554" lon="4.75449">
        <ele>188</ele>
        <time>2017-12-23T12:08:32Z</time>
      </trkpt>
      <trkpt lat="45.95532" lon="4.75447">
        <ele>187</ele>
        <time>2017-12-23T12:08:33Z</time>
      </trkpt>
      <trkpt lat="45.95525" lon="4.75441">
        <ele>187</ele>
        <time>2017-12-23T12:08:34Z</time>
      </trkpt>
      <trkpt lat="45.9552" lon="4.75434">
        <ele>187</ele>
        <time>2017-12-23T12:08:35Z</time>
      </trkpt>
      <trkpt lat="45.95516" lon="4.75425">
        <ele>186</ele>
        <time>2017-12-23T12:08:36Z</time>
      </trkpt>
      <trkpt lat="45.95514" lon="4.75416">
        <ele>187</ele>
        <time>2017-12-23T12:08:37Z</time>
      </trkpt>
      <trkpt lat="45.95511" lon="4.75407">
        <ele>187</ele>
        <time>2017-12-23T12:08:38Z</time>
      </trkpt>
      <trkpt lat="45.95509" lon="4.75399">
        <ele>188</ele>
        <time>2017-12-23T12:08:39Z</time>
      </trkpt>
      <trkpt lat="45.95506" lon="4.75391">
        <ele>188</ele>
        <time>2017-12-23T12:08:40Z</time>
      </trkpt>
      <trkpt lat="45.95503" lon="4.75384">
        <ele>188</ele>
        <time>2017-12-23T12:08:41Z</time>
      </trkpt>
      <trkpt lat="45.955" lon="4.75377">
        <ele>185</ele>
        <time>2017-12-23T12:08:42Z</time>
      </trkpt>
      <trkpt lat="45.95497" lon="4.75371">
        <ele>186</ele>
        <time>2017-12-23T12:08:43Z</time>
      </trkpt>
      <trkpt lat="45.95493" lon="4.75364">
        <ele>186</ele>
        <time>2017-12-23T12:08:44Z</time>
      </trkpt>
      <trkpt lat="45.9549" lon="4.75358">
        <ele>186</ele>
        <time>2017-12-23T12:08:45Z</time>
      </trkpt>
      <trkpt lat="45.95487" lon="4.75351">
        <ele>186</ele>
        <time>2017-12-23T12:08:46Z</time>
      </trkpt>
      <trkpt lat="45.95483" lon="4.75345">
        <ele>186</ele>
        <time>2017-12-23T12:08:47Z</time>
      </trkpt>
      <trkpt lat="45.95479" lon="4.75339">
        <ele>186</ele>
        <time>2017-12-23T12:08:48Z</time>
      </trkpt>
      <trkpt lat="45.95476" lon="4.75332">
        <ele>188</ele>
        <time>2017-12-23T12:08:49Z</time>
      </trkpt>
      <trkpt lat="45.95472" lon="4.75325">
        <ele>188</ele>
        <time>2017-12-23T12:08:50Z</time>
      </trkpt>
      <trkpt lat="45.95468" lon="4.75319">
        <ele>188</ele>
        <time>2017-12-23T12:08:51Z</time>
      </trkpt>
      <trkpt lat="45.95465" lon="4.75312">
        <ele>188</ele>
        <time>2017-12-23T12:08:52Z</time>
      </trkpt>
      <trkpt lat="45.95462" lon="4.75306">
        <ele>188</ele>
        <time>2017-12-23T12:08:53Z</time>
      </trkpt>
      <trkpt lat="45.95458" lon="4.75299">
        <ele>188</ele>
        <time>2017-12-23T12:08:54Z</time>
      </trkpt>
      <trkpt lat="45.95455" lon="4.75293">
        <ele>188</ele>
        <time>2017-12-23T12:08:55Z</time>
      </trkpt>
      <trkpt lat="45.95451" lon="4.75288">
        <ele>188</ele>
        <time>2017-12-23T12:08:56Z</time>
      </trkpt>
      <trkpt lat="45.95447" lon="4.75281">
        <ele>188</ele>
        <time>2017-12-23T12:08:57Z</time>
      </trkpt>
      <trkpt lat="45.95444" lon="4.75275">
        <ele>189</ele>
        <time>2017-12-23T12:08:58Z</time>
      </trkpt>
      <trkpt lat="45.95442" lon="4.75268">
        <ele>189</ele>
        <time>2017-12-23T12:08:59Z</time>
      </trkpt>
      <trkpt lat="45.95439" lon="4.75261">
        <ele>189</ele>
        <time>2017-12-23T12:09:00Z</time>
      </trkpt>
      <trkpt lat="45.95436" lon="4.75255">
        <ele>189</ele>
        <time>2017-12-23T12:09:01Z</time>
      </trkpt>
      <trkpt lat="45.95432" lon="4.75249">
        <ele>190</ele>
        <time>2017-12-23T12:09:02Z</time>
      </trkpt>
      <trkpt lat="45.95429" lon="4.75243">
        <ele>190</ele>
        <time>2017-12-23T12:09:03Z</time>
      </trkpt>
      <trkpt lat="45.95425" lon="4.75236">
        <ele>190</ele>
        <time>2017-12-23T12:09:04Z</time>
      </trkpt>
      <trkpt lat="45.95422" lon="4.75231">
        <ele>190</ele>
        <time>2017-12-23T12:09:05Z</time>
      </trkpt>
      <trkpt lat="45.95419" lon="4.75225">
        <ele>191</ele>
        <time>2017-12-23T12:09:06Z</time>
      </trkpt>
      <trkpt lat="45.95415" lon="4.75219">
        <ele>189</ele>
        <time>2017-12-23T12:09:07Z</time>
      </trkpt>
      <trkpt lat="45.95412" lon="4.75214">
        <ele>189</ele>
        <time>2017-12-23T12:09:08Z</time>
      </trkpt>
      <trkpt lat="45.95407" lon="4.75207">
        <ele>189</ele>
        <time>2017-12-23T12:09:09Z</time>
      </trkpt>
      <trkpt lat="45.95403" lon="4.75201">
        <ele>189</ele>
        <time>2017-12-23T12:09:10Z</time>
      </trkpt>
      <trkpt lat="45.954" lon="4.75194">
        <ele>189</ele>
        <time>2017-12-23T12:09:11Z</time>
      </trkpt>
      <trkpt lat="45.95397" lon="4.75188">
        <ele>189</ele>
        <time>2017-12-23T12:09:12Z</time>
      </trkpt>
      <trkpt lat="45.95393" lon="4.75183">
        <ele>189</ele>
        <time>2017-12-23T12:09:13Z</time>
      </trkpt>
      <trkpt lat="45.9539" lon="4.75177">
        <ele>189</ele>
        <time>2017-12-23T12:09:14Z</time>
      </trkpt>
      <trkpt lat="45.95386" lon="4.7517">
        <ele>189</ele>
        <time>2017-12-23T12:09:15Z</time>
      </trkpt>
      <trkpt lat="45.95382" lon="4.75164">
        <ele>191</ele>
        <time>2017-12-23T12:09:16Z</time>
      </trkpt>
      <trkpt lat="45.95379" lon="4.75158">
        <ele>191</ele>
        <time>2017-12-23T12:09:17Z</time>
      </trkpt>
      <trkpt lat="45.95376" lon="4.75151">
        <ele>191</ele>
        <time>2017-12-23T12:09:18Z</time>
      </trkpt>
      <trkpt lat="45.95372" lon="4.75144">
        <ele>191</ele>
        <time>2017-12-23T12:09:19Z</time>
      </trkpt>
      <trkpt lat="45.95369" lon="4.75138">
        <ele>191</ele>
        <time>2017-12-23T12:09:20Z</time>
      </trkpt>
      <trkpt lat="45.95366" lon="4.75132">
        <ele>191</ele>
        <time>2017-12-23T12:09:21Z</time>
      </trkpt>
      <trkpt lat="45.95362" lon="4.75127">
        <ele>191</ele>
        <time>2017-12-23T12:09:22Z</time>
      </trkpt>
      <trkpt lat="45.95358" lon="4.75121">
        <ele>191</ele>
        <time>2017-12-23T12:09:23Z</time>
      </trkpt>
      <trkpt lat="45.95355" lon="4.75116">
        <ele>192</ele>
        <time>2017-12-23T12:09:24Z</time>
      </trkpt>
      <trkpt lat="45.95351" lon="4.7511">
        <ele>192</ele>
        <time>2017-12-23T12:09:25Z</time>
      </trkpt>
      <trkpt lat="45.95348" lon="4.75104">
        <ele>192</ele>
        <time>2017-12-23T12:09:26Z</time>
      </trkpt>
      <trkpt lat="45.95345" lon="4.75099">
        <ele>192</ele>
        <time>2017-12-23T12:09:27Z</time>
      </trkpt>
      <trkpt lat="45.95341" lon="4.75094">
        <ele>192</ele>
        <time>2017-12-23T12:09:28Z</time>
      </trkpt>
      <trkpt lat="45.95338" lon="4.75089">
        <ele>193</ele>
        <time>2017-12-23T12:09:29Z</time>
      </trkpt>
      <trkpt lat="45.95334" lon="4.75083">
        <ele>193</ele>
        <time>2017-12-23T12:09:30Z</time>
      </trkpt>
      <trkpt lat="45.9533" lon="4.75077">
        <ele>193</ele>
        <time>2017-12-23T12:09:31Z</time>
      </trkpt>
      <trkpt lat="45.95326" lon="4.75072">
        <ele>192</ele>
        <time>2017-12-23T12:09:32Z</time>
      </trkpt>
      <trkpt lat="45.95323" lon="4.75067">
        <ele>192</ele>
        <time>2017-12-23T12:09:33Z</time>
      </trkpt>
      <trkpt lat="45.9532" lon="4.75062">
        <ele>192</ele>
        <time>2017-12-23T12:09:34Z</time>
      </trkpt>
      <trkpt lat="45.95316" lon="4.75057">
        <ele>192</ele>
        <time>2017-12-23T12:09:35Z</time>
      </trkpt>
      <trkpt lat="45.95312" lon="4.75052">
        <ele>192</ele>
        <time>2017-12-23T12:09:36Z</time>
      </trkpt>
      <trkpt lat="45.95309" lon="4.75046">
        <ele>192</ele>
        <time>2017-12-23T12:09:37Z</time>
      </trkpt>
      <trkpt lat="45.95306" lon="4.7504">
        <ele>192</ele>
        <time>2017-12-23T12:09:38Z</time>
      </trkpt>
      <trkpt lat="45.95303" lon="4.75036">
        <ele>192</ele>
        <time>2017-12-23T12:09:39Z</time>
      </trkpt>
      <trkpt lat="45.953" lon="4.7503">
        <ele>192</ele>
        <time>2017-12-23T12:09:40Z</time>
      </trkpt>
      <trkpt lat="45.95296" lon="4.75025">
        <ele>191</ele>
        <time>2017-12-23T12:09:41Z</time>
      </trkpt>
      <trkpt lat="45.95291" lon="4.75016">
        <ele>191</ele>
        <time>2017-12-23T12:09:43Z</time>
      </trkpt>
      <trkpt lat="45.95287" lon="4.75011">
        <ele>191</ele>
        <time>2017-12-23T12:09:44Z</time>
      </trkpt>
      <trkpt lat="45.95284" lon="4.75006">
        <ele>191</ele>
        <time>2017-12-23T12:09:45Z</time>
      </trkpt>
      <trkpt lat="45.95282" lon="4.75">
        <ele>192</ele>
        <time>2017-12-23T12:09:46Z</time>
      </trkpt>
      <trkpt lat="45.95279" lon="4.74994">
        <ele>192</ele>
        <time>2017-12-23T12:09:47Z</time>
      </trkpt>
      <trkpt lat="45.95276" lon="4.74988">
        <ele>192</ele>
        <time>2017-12-23T12:09:48Z</time>
      </trkpt>
      <trkpt lat="45.95272" lon="4.74983">
        <ele>192</ele>
        <time>2017-12-23T12:09:49Z</time>
      </trkpt>
      <trkpt lat="45.95269" lon="4.74978">
        <ele>192</ele>
        <time>2017-12-23T12:09:50Z</time>
      </trkpt>
      <trkpt lat="45.95265" lon="4.74972">
        <ele>192</ele>
        <time>2017-12-23T12:09:51Z</time>
      </trkpt>
      <trkpt lat="45.95262" lon="4.74966">
        <ele>192</ele>
        <time>2017-12-23T12:09:52Z</time>
      </trkpt>
      <trkpt lat="45.95258" lon="4.7496">
        <ele>192</ele>
        <time>2017-12-23T12:09:53Z</time>
      </trkpt>
      <trkpt lat="45.95256" lon="4.74955">
        <ele>192</ele>
        <time>2017-12-23T12:09:54Z</time>
      </trkpt>
      <trkpt lat="45.95253" lon="4.7495">
        <ele>192</ele>
        <time>2017-12-23T12:09:55Z</time>
      </trkpt>
      <trkpt lat="45.9525" lon="4.74945">
        <ele>192</ele>
        <time>2017-12-23T12:09:56Z</time>
      </trkpt>
      <trkpt lat="45.95246" lon="4.7494">
        <ele>192</ele>
        <time>2017-12-23T12:09:57Z</time>
      </trkpt>
      <trkpt lat="45.95243" lon="4.74935">
        <ele>192</ele>
        <time>2017-12-23T12:09:58Z</time>
      </trkpt>
      <trkpt lat="45.95239" lon="4.74929">
        <ele>192</ele>
        <time>2017-12-23T12:09:59Z</time>
      </trkpt>
      <trkpt lat="45.95236" lon="4.74924">
        <ele>192</ele>
        <time>2017-12-23T12:10:00Z</time>
      </trkpt>
      <trkpt lat="45.95233" lon="4.74919">
        <ele>192</ele>
        <time>2017-12-23T12:10:01Z</time>
      </trkpt>
      <trkpt lat="45.9523" lon="4.74913">
        <ele>193</ele>
        <time>2017-12-23T12:10:02Z</time>
      </trkpt>
      <trkpt lat="45.95226" lon="4.74907">
        <ele>193</ele>
        <time>2017-12-23T12:10:03Z</time>
      </trkpt>
      <trkpt lat="45.95223" lon="4.74902">
        <ele>193</ele>
        <time>2017-12-23T12:10:04Z</time>
      </trkpt>
      <trkpt lat="45.95219" lon="4.74896">
        <ele>193</ele>
        <time>2017-12-23T12:10:05Z</time>
      </trkpt>
      <trkpt lat="45.95215" lon="4.74891">
        <ele>193</ele>
        <time>2017-12-23T12:10:06Z</time>
      </trkpt>
      <trkpt lat="45.95212" lon="4.74885">
        <ele>193</ele>
        <time>2017-12-23T12:10:07Z</time>
      </trkpt>
      <trkpt lat="45.95208" lon="4.74879">
        <ele>194</ele>
        <time>2017-12-23T12:10:08Z</time>
      </trkpt>
      <trkpt lat="45.95205" lon="4.74873">
        <ele>194</ele>
        <time>2017-12-23T12:10:09Z</time>
      </trkpt>
      <trkpt lat="45.95201" lon="4.74867">
        <ele>194</ele>
        <time>2017-12-23T12:10:10Z</time>
      </trkpt>
      <trkpt lat="45.95196" lon="4.7486">
        <ele>194</ele>
        <time>2017-12-23T12:10:11Z</time>
      </trkpt>
      <trkpt lat="45.95193" lon="4.74854">
        <ele>194</ele>
        <time>2017-12-23T12:10:12Z</time>
      </trkpt>
      <trkpt lat="45.95188" lon="4.74848">
        <ele>194</ele>
        <time>2017-12-23T12:10:13Z</time>
      </trkpt>
      <trkpt lat="45.95185" lon="4.74841">
        <ele>194</ele>
        <time>2017-12-23T12:10:14Z</time>
      </trkpt>
      <trkpt lat="45.95181" lon="4.74836">
        <ele>194</ele>
        <time>2017-12-23T12:10:15Z</time>
      </trkpt>
      <trkpt lat="45.95177" lon="4.7483">
        <ele>194</ele>
        <time>2017-12-23T12:10:16Z</time>
      </trkpt>
      <trkpt lat="45.95174" lon="4.74824">
        <ele>194</ele>
        <time>2017-12-23T12:10:17Z</time>
      </trkpt>
      <trkpt lat="45.95171" lon="4.74819">
        <ele>194</ele>
        <time>2017-12-23T12:10:18Z</time>
      </trkpt>
      <trkpt lat="45.95166" lon="4.74813">
        <ele>194</ele>
        <time>2017-12-23T12:10:19Z</time>
      </trkpt>
      <trkpt lat="45.95163" lon="4.74808">
        <ele>194</ele>
        <time>2017-12-23T12:10:20Z</time>
      </trkpt>
      <trkpt lat="45.95159" lon="4.74802">
        <ele>194</ele>
        <time>2017-12-23T12:10:21Z</time>
      </trkpt>
      <trkpt lat="45.95156" lon="4.74796">
        <ele>194</ele>
        <time>2017-12-23T12:10:22Z</time>
      </trkpt>
      <trkpt lat="45.95153" lon="4.74792">
        <ele>194</ele>
        <time>2017-12-23T12:10:23Z</time>
      </trkpt>
      <trkpt lat="45.95149" lon="4.74785">
        <ele>194</ele>
        <time>2017-12-23T12:10:24Z</time>
      </trkpt>
      <trkpt lat="45.95145" lon="4.74779">
        <ele>194</ele>
        <time>2017-12-23T12:10:25Z</time>
      </trkpt>
      <trkpt lat="45.95141" lon="4.74774">
        <ele>194</ele>
        <time>2017-12-23T12:10:26Z</time>
      </trkpt>
      <trkpt lat="45.95137" lon="4.74767">
        <ele>194</ele>
        <time>2017-12-23T12:10:27Z</time>
      </trkpt>
      <trkpt lat="45.95133" lon="4.74761">
        <ele>194</ele>
        <time>2017-12-23T12:10:28Z</time>
      </trkpt>
      <trkpt lat="45.95128" lon="4.74754">
        <ele>194</ele>
        <time>2017-12-23T12:10:29Z</time>
      </trkpt>
      <trkpt lat="45.95124" lon="4.74746">
        <ele>194</ele>
        <time>2017-12-23T12:10:30Z</time>
      </trkpt>
      <trkpt lat="45.9512" lon="4.74739">
        <ele>194</ele>
        <time>2017-12-23T12:10:31Z</time>
      </trkpt>
      <trkpt lat="45.95116" lon="4.74733">
        <ele>194</ele>
        <time>2017-12-23T12:10:32Z</time>
      </trkpt>
      <trkpt lat="45.95112" lon="4.74725">
        <ele>194</ele>
        <time>2017-12-23T12:10:33Z</time>
      </trkpt>
      <trkpt lat="45.95109" lon="4.74719">
        <ele>194</ele>
        <time>2017-12-23T12:10:34Z</time>
      </trkpt>
      <trkpt lat="45.95106" lon="4.74712">
        <ele>194</ele>
        <time>2017-12-23T12:10:35Z</time>
      </trkpt>
      <trkpt lat="45.95102" lon="4.74707">
        <ele>194</ele>
        <time>2017-12-23T12:10:36Z</time>
      </trkpt>
      <trkpt lat="45.95099" lon="4.74701">
        <ele>194</ele>
        <time>2017-12-23T12:10:37Z</time>
      </trkpt>
      <trkpt lat="45.95096" lon="4.74696">
        <ele>194</ele>
        <time>2017-12-23T12:10:38Z</time>
      </trkpt>
      <trkpt lat="45.95092" lon="4.74691">
        <ele>194</ele>
        <time>2017-12-23T12:10:39Z</time>
      </trkpt>
      <trkpt lat="45.9509" lon="4.74686">
        <ele>195</ele>
        <time>2017-12-23T12:10:40Z</time>
      </trkpt>
      <trkpt lat="45.95086" lon="4.7468">
        <ele>195</ele>
        <time>2017-12-23T12:10:41Z</time>
      </trkpt>
      <trkpt lat="45.95083" lon="4.74674">
        <ele>195</ele>
        <time>2017-12-23T12:10:42Z</time>
      </trkpt>
      <trkpt lat="45.9508" lon="4.74669">
        <ele>195</ele>
        <time>2017-12-23T12:10:43Z</time>
      </trkpt>
      <trkpt lat="45.95076" lon="4.74664">
        <ele>195</ele>
        <time>2017-12-23T12:10:44Z</time>
      </trkpt>
      <trkpt lat="45.95073" lon="4.74658">
        <ele>195</ele>
        <time>2017-12-23T12:10:45Z</time>
      </trkpt>
      <trkpt lat="45.95069" lon="4.74652">
        <ele>195</ele>
        <time>2017-12-23T12:10:46Z</time>
      </trkpt>
      <trkpt lat="45.95065" lon="4.74645">
        <ele>195</ele>
        <time>2017-12-23T12:10:47Z</time>
      </trkpt>
      <trkpt lat="45.95062" lon="4.74639">
        <ele>194</ele>
        <time>2017-12-23T12:10:48Z</time>
      </trkpt>
      <trkpt lat="45.95058" lon="4.74632">
        <ele>194</ele>
        <time>2017-12-23T12:10:49Z</time>
      </trkpt>
      <trkpt lat="45.95054" lon="4.74625">
        <ele>194</ele>
        <time>2017-12-23T12:10:50Z</time>
      </trkpt>
      <trkpt lat="45.9505" lon="4.74618">
        <ele>194</ele>
        <time>2017-12-23T12:10:51Z</time>
      </trkpt>
      <trkpt lat="45.95046" lon="4.74611">
        <ele>194</ele>
        <time>2017-12-23T12:10:52Z</time>
      </trkpt>
      <trkpt lat="45.95043" lon="4.74604">
        <ele>194</ele>
        <time>2017-12-23T12:10:53Z</time>
      </trkpt>
      <trkpt lat="45.95039" lon="4.74596">
        <ele>194</ele>
        <time>2017-12-23T12:10:54Z</time>
      </trkpt>
      <trkpt lat="45.95035" lon="4.74589">
        <ele>194</ele>
        <time>2017-12-23T12:10:55Z</time>
      </trkpt>
      <trkpt lat="45.95031" lon="4.74581">
        <ele>194</ele>
        <time>2017-12-23T12:10:56Z</time>
      </trkpt>
      <trkpt lat="45.95028" lon="4.74574">
        <ele>194</ele>
        <time>2017-12-23T12:10:57Z</time>
      </trkpt>
      <trkpt lat="45.95023" lon="4.74567">
        <ele>194</ele>
        <time>2017-12-23T12:10:58Z</time>
      </trkpt>
      <trkpt lat="45.95019" lon="4.74559">
        <ele>194</ele>
        <time>2017-12-23T12:10:59Z</time>
      </trkpt>
      <trkpt lat="45.95016" lon="4.74552">
        <ele>194</ele>
        <time>2017-12-23T12:11:00Z</time>
      </trkpt>
      <trkpt lat="45.95012" lon="4.74546">
        <ele>194</ele>
        <time>2017-12-23T12:11:01Z</time>
      </trkpt>
      <trkpt lat="45.95008" lon="4.74539">
        <ele>194</ele>
        <time>2017-12-23T12:11:02Z</time>
      </trkpt>
      <trkpt lat="45.95004" lon="4.74532">
        <ele>194</ele>
        <time>2017-12-23T12:11:03Z</time>
      </trkpt>
      <trkpt lat="45.95002" lon="4.74525">
        <ele>194</ele>
        <time>2017-12-23T12:11:04Z</time>
      </trkpt>
      <trkpt lat="45.94999" lon="4.74518">
        <ele>193</ele>
        <time>2017-12-23T12:11:05Z</time>
      </trkpt>
      <trkpt lat="45.94996" lon="4.74511">
        <ele>193</ele>
        <time>2017-12-23T12:11:06Z</time>
      </trkpt>
      <trkpt lat="45.94993" lon="4.74504">
        <ele>193</ele>
        <time>2017-12-23T12:11:07Z</time>
      </trkpt>
      <trkpt lat="45.94989" lon="4.74497">
        <ele>193</ele>
        <time>2017-12-23T12:11:08Z</time>
      </trkpt>
      <trkpt lat="45.94985" lon="4.7449">
        <ele>193</ele>
        <time>2017-12-23T12:11:09Z</time>
      </trkpt>
      <trkpt lat="45.94981" lon="4.74484">
        <ele>193</ele>
        <time>2017-12-23T12:11:10Z</time>
      </trkpt>
      <trkpt lat="45.94978" lon="4.74476">
        <ele>193</ele>
        <time>2017-12-23T12:11:11Z</time>
      </trkpt>
      <trkpt lat="45.94974" lon="4.74469">
        <ele>193</ele>
        <time>2017-12-23T12:11:12Z</time>
      </trkpt>
      <trkpt lat="45.9497" lon="4.74461">
        <ele>193</ele>
        <time>2017-12-23T12:11:13Z</time>
      </trkpt>
      <trkpt lat="45.94965" lon="4.74453">
        <ele>192</ele>
        <time>2017-12-23T12:11:14Z</time>
      </trkpt>
      <trkpt lat="45.94961" lon="4.74446">
        <ele>192</ele>
        <time>2017-12-23T12:11:15Z</time>
      </trkpt>
      <trkpt lat="45.94957" lon="4.74439">
        <ele>192</ele>
        <time>2017-12-23T12:11:16Z</time>
      </trkpt>
      <trkpt lat="45.94953" lon="4.74432">
        <ele>192</ele>
        <time>2017-12-23T12:11:17Z</time>
      </trkpt>
      <trkpt lat="45.9495" lon="4.74426">
        <ele>192</ele>
        <time>2017-12-23T12:11:18Z</time>
      </trkpt>
      <trkpt lat="45.94946" lon="4.74419">
        <ele>192</ele>
        <time>2017-12-23T12:11:19Z</time>
      </trkpt>
      <trkpt lat="45.94942" lon="4.74412">
        <ele>192</ele>
        <time>2017-12-23T12:11:20Z</time>
      </trkpt>
      <trkpt lat="45.94939" lon="4.74405">
        <ele>192</ele>
        <time>2017-12-23T12:11:21Z</time>
      </trkpt>
      <trkpt lat="45.94936" lon="4.74398">
        <ele>192</ele>
        <time>2017-12-23T12:11:22Z</time>
      </trkpt>
      <trkpt lat="45.94932" lon="4.7439">
        <ele>192</ele>
        <time>2017-12-23T12:11:23Z</time>
      </trkpt>
      <trkpt lat="45.94928" lon="4.74384">
        <ele>192</ele>
        <time>2017-12-23T12:11:24Z</time>
      </trkpt>
      <trkpt lat="45.94924" lon="4.74377">
        <ele>192</ele>
        <time>2017-12-23T12:11:25Z</time>
      </trkpt>
      <trkpt lat="45.94921" lon="4.74371">
        <ele>192</ele>
        <time>2017-12-23T12:11:26Z</time>
      </trkpt>
      <trkpt lat="45.94918" lon="4.74364">
        <ele>192</ele>
        <time>2017-12-23T12:11:27Z</time>
      </trkpt>
      <trkpt lat="45.94915" lon="4.74358">
        <ele>191</ele>
        <time>2017-12-23T12:11:28Z</time>
      </trkpt>
      <trkpt lat="45.94911" lon="4.74351">
        <ele>191</ele>
        <time>2017-12-23T12:11:29Z</time>
      </trkpt>
      <trkpt lat="45.94908" lon="4.74344">
        <ele>191</ele>
        <time>2017-12-23T12:11:30Z</time>
      </trkpt>
      <trkpt lat="45.94905" lon="4.74337">
        <ele>191</ele>
        <time>2017-12-23T12:11:31Z</time>
      </trkpt>
      <trkpt lat="45.949" lon="4.7433">
        <ele>191</ele>
        <time>2017-12-23T12:11:32Z</time>
      </trkpt>
      <trkpt lat="45.94896" lon="4.74323">
        <ele>191</ele>
        <time>2017-12-23T12:11:33Z</time>
      </trkpt>
      <trkpt lat="45.94892" lon="4.74315">
        <ele>191</ele>
        <time>2017-12-23T12:11:34Z</time>
      </trkpt>
      <trkpt lat="45.94888" lon="4.74308">
        <ele>191</ele>
        <time>2017-12-23T12:11:35Z</time>
      </trkpt>
      <trkpt lat="45.94884" lon="4.743">
        <ele>191</ele>
        <time>2017-12-23T12:11:36Z</time>
      </trkpt>
      <trkpt lat="45.9488" lon="4.74293">
        <ele>191</ele>
        <time>2017-12-23T12:11:37Z</time>
      </trkpt>
      <trkpt lat="45.94876" lon="4.74285">
        <ele>191</ele>
        <time>2017-12-23T12:11:38Z</time>
      </trkpt>
      <trkpt lat="45.94872" lon="4.74278">
        <ele>191</ele>
        <time>2017-12-23T12:11:39Z</time>
      </trkpt>
      <trkpt lat="45.94868" lon="4.7427">
        <ele>191</ele>
        <time>2017-12-23T12:11:40Z</time>
      </trkpt>
      <trkpt lat="45.94864" lon="4.74262">
        <ele>190</ele>
        <time>2017-12-23T12:11:41Z</time>
      </trkpt>
      <trkpt lat="45.9486" lon="4.74255">
        <ele>190</ele>
        <time>2017-12-23T12:11:42Z</time>
      </trkpt>
      <trkpt lat="45.94856" lon="4.74248">
        <ele>190</ele>
        <time>2017-12-23T12:11:43Z</time>
      </trkpt>
      <trkpt lat="45.94853" lon="4.7424">
        <ele>190</ele>
        <time>2017-12-23T12:11:44Z</time>
      </trkpt>
      <trkpt lat="45.94849" lon="4.74234">
        <ele>190</ele>
        <time>2017-12-23T12:11:45Z</time>
      </trkpt>
      <trkpt lat="45.94847" lon="4.74227">
        <ele>190</ele>
        <time>2017-12-23T12:11:46Z</time>
      </trkpt>
      <trkpt lat="45.94844" lon="4.7422">
        <ele>190</ele>
        <time>2017-12-23T12:11:47Z</time>
      </trkpt>
      <trkpt lat="45.9484" lon="4.74214">
        <ele>190</ele>
        <time>2017-12-23T12:11:48Z</time>
      </trkpt>
      <trkpt lat="45.94836" lon="4.74208">
        <ele>190</ele>
        <time>2017-12-23T12:11:49Z</time>
      </trkpt>
      <trkpt lat="45.94832" lon="4.74202">
        <ele>189</ele>
        <time>2017-12-23T12:11:50Z</time>
      </trkpt>
      <trkpt lat="45.94828" lon="4.74195">
        <ele>189</ele>
        <time>2017-12-23T12:11:51Z</time>
      </trkpt>
      <trkpt lat="45.94825" lon="4.7419">
        <ele>189</ele>
        <time>2017-12-23T12:11:52Z</time>
      </trkpt>
      <trkpt lat="45.94821" lon="4.74184">
        <ele>189</ele>
        <time>2017-12-23T12:11:53Z</time>
      </trkpt>
      <trkpt lat="45.94817" lon="4.74177">
        <ele>189</ele>
        <time>2017-12-23T12:11:54Z</time>
      </trkpt>
      <trkpt lat="45.94814" lon="4.7417">
        <ele>189</ele>
        <time>2017-12-23T12:11:55Z</time>
      </trkpt>
      <trkpt lat="45.9481" lon="4.74164">
        <ele>189</ele>
        <time>2017-12-23T12:11:56Z</time>
      </trkpt>
      <trkpt lat="45.94806" lon="4.74157">
        <ele>189</ele>
        <time>2017-12-23T12:11:57Z</time>
      </trkpt>
      <trkpt lat="45.94803" lon="4.74151">
        <ele>189</ele>
        <time>2017-12-23T12:11:58Z</time>
      </trkpt>
      <trkpt lat="45.94799" lon="4.74145">
        <ele>189</ele>
        <time>2017-12-23T12:11:59Z</time>
      </trkpt>
      <trkpt lat="45.94796" lon="4.74139">
        <ele>189</ele>
        <time>2017-12-23T12:12:00Z</time>
      </trkpt>
      <trkpt lat="45.94792" lon="4.74133">
        <ele>189</ele>
        <time>2017-12-23T12:12:01Z</time>
      </trkpt>
      <trkpt lat="45.94788" lon="4.74127">
        <ele>189</ele>
        <time>2017-12-23T12:12:02Z</time>
      </trkpt>
      <trkpt lat="45.94784" lon="4.74121">
        <ele>189</ele>
        <time>2017-12-23T12:12:03Z</time>
      </trkpt>
      <trkpt lat="45.9478" lon="4.74115">
        <ele>189</ele>
        <time>2017-12-23T12:12:04Z</time>
      </trkpt>
      <trkpt lat="45.94776" lon="4.74109">
        <ele>189</ele>
        <time>2017-12-23T12:12:05Z</time>
      </trkpt>
      <trkpt lat="45.94773" lon="4.74102">
        <ele>189</ele>
        <time>2017-12-23T12:12:06Z</time>
      </trkpt>
      <trkpt lat="45.94768" lon="4.74096">
        <ele>189</ele>
        <time>2017-12-23T12:12:07Z</time>
      </trkpt>
      <trkpt lat="45.94763" lon="4.74089">
        <ele>189</ele>
        <time>2017-12-23T12:12:08Z</time>
      </trkpt>
      <trkpt lat="45.94758" lon="4.74083">
        <ele>189</ele>
        <time>2017-12-23T12:12:09Z</time>
      </trkpt>
      <trkpt lat="45.94754" lon="4.74076">
        <ele>189</ele>
        <time>2017-12-23T12:12:10Z</time>
      </trkpt>
      <trkpt lat="45.9475" lon="4.74069">
        <ele>188</ele>
        <time>2017-12-23T12:12:11Z</time>
      </trkpt>
      <trkpt lat="45.94745" lon="4.74063">
        <ele>188</ele>
        <time>2017-12-23T12:12:12Z</time>
      </trkpt>
      <trkpt lat="45.9474" lon="4.74058">
        <ele>188</ele>
        <time>2017-12-23T12:12:13Z</time>
      </trkpt>
      <trkpt lat="45.94736" lon="4.74052">
        <ele>188</ele>
        <time>2017-12-23T12:12:14Z</time>
      </trkpt>
      <trkpt lat="45.94732" lon="4.74047">
        <ele>188</ele>
        <time>2017-12-23T12:12:15Z</time>
      </trkpt>
      <trkpt lat="45.94727" lon="4.74041">
        <ele>188</ele>
        <time>2017-12-23T12:12:16Z</time>
      </trkpt>
      <trkpt lat="45.94723" lon="4.74035">
        <ele>187</ele>
        <time>2017-12-23T12:12:17Z</time>
      </trkpt>
      <trkpt lat="45.94719" lon="4.7403">
        <ele>187</ele>
        <time>2017-12-23T12:12:18Z</time>
      </trkpt>
      <trkpt lat="45.94715" lon="4.74024">
        <ele>187</ele>
        <time>2017-12-23T12:12:19Z</time>
      </trkpt>
      <trkpt lat="45.94711" lon="4.74019">
        <ele>187</ele>
        <time>2017-12-23T12:12:20Z</time>
      </trkpt>
      <trkpt lat="45.94707" lon="4.74014">
        <ele>187</ele>
        <time>2017-12-23T12:12:21Z</time>
      </trkpt>
      <trkpt lat="45.94704" lon="4.74009">
        <ele>187</ele>
        <time>2017-12-23T12:12:22Z</time>
      </trkpt>
      <trkpt lat="45.947" lon="4.74005">
        <ele>187</ele>
        <time>2017-12-23T12:12:23Z</time>
      </trkpt>
      <trkpt lat="45.94696" lon="4.74">
        <ele>187</ele>
        <time>2017-12-23T12:12:24Z</time>
      </trkpt>
      <trkpt lat="45.94692" lon="4.73995">
        <ele>187</ele>
        <time>2017-12-23T12:12:25Z</time>
      </trkpt>
      <trkpt lat="45.94688" lon="4.73989">
        <ele>187</ele>
        <time>2017-12-23T12:12:26Z</time>
      </trkpt>
      <trkpt lat="45.94683" lon="4.73984">
        <ele>187</ele>
        <time>2017-12-23T12:12:27Z</time>
      </trkpt>
      <trkpt lat="45.94679" lon="4.73977">
        <ele>187</ele>
        <time>2017-12-23T12:12:28Z</time>
      </trkpt>
      <trkpt lat="45.94676" lon="4.73971">
        <ele>187</ele>
        <time>2017-12-23T12:12:29Z</time>
      </trkpt>
      <trkpt lat="45.94671" lon="4.73965">
        <ele>187</ele>
        <time>2017-12-23T12:12:30Z</time>
      </trkpt>
      <trkpt lat="45.94666" lon="4.73958">
        <ele>187</ele>
        <time>2017-12-23T12:12:31Z</time>
      </trkpt>
      <trkpt lat="45.94661" lon="4.73952">
        <ele>187</ele>
        <time>2017-12-23T12:12:32Z</time>
      </trkpt>
      <trkpt lat="45.94657" lon="4.73946">
        <ele>187</ele>
        <time>2017-12-23T12:12:33Z</time>
      </trkpt>
      <trkpt lat="45.94653" lon="4.7394">
        <ele>187</ele>
        <time>2017-12-23T12:12:34Z</time>
      </trkpt>
      <trkpt lat="45.94649" lon="4.73935">
        <ele>187</ele>
        <time>2017-12-23T12:12:35Z</time>
      </trkpt>
      <trkpt lat="45.94645" lon="4.7393">
        <ele>187</ele>
        <time>2017-12-23T12:12:36Z</time>
      </trkpt>
      <trkpt lat="45.9464" lon="4.73925">
        <ele>187</ele>
        <time>2017-12-23T12:12:37Z</time>
      </trkpt>
      <trkpt lat="45.94636" lon="4.73919">
        <ele>187</ele>
        <time>2017-12-23T12:12:38Z</time>
      </trkpt>
      <trkpt lat="45.94632" lon="4.73914">
        <ele>187</ele>
        <time>2017-12-23T12:12:39Z</time>
      </trkpt>
      <trkpt lat="45.94627" lon="4.73907">
        <ele>187</ele>
        <time>2017-12-23T12:12:40Z</time>
      </trkpt>
      <trkpt lat="45.94622" lon="4.73901">
        <ele>187</ele>
        <time>2017-12-23T12:12:41Z</time>
      </trkpt>
      <trkpt lat="45.94617" lon="4.73896">
        <ele>187</ele>
        <time>2017-12-23T12:12:42Z</time>
      </trkpt>
      <trkpt lat="45.94612" lon="4.7389">
        <ele>187</ele>
        <time>2017-12-23T12:12:43Z</time>
      </trkpt>
      <trkpt lat="45.94607" lon="4.73885">
        <ele>187</ele>
        <time>2017-12-23T12:12:44Z</time>
      </trkpt>
      <trkpt lat="45.94601" lon="4.73879">
        <ele>187</ele>
        <time>2017-12-23T12:12:45Z</time>
      </trkpt>
      <trkpt lat="45.94597" lon="4.73873">
        <ele>187</ele>
        <time>2017-12-23T12:12:46Z</time>
      </trkpt>
      <trkpt lat="45.94592" lon="4.73867">
        <ele>187</ele>
        <time>2017-12-23T12:12:47Z</time>
      </trkpt>
      <trkpt lat="45.94587" lon="4.73861">
        <ele>187</ele>
        <time>2017-12-23T12:12:48Z</time>
      </trkpt>
      <trkpt lat="45.94582" lon="4.73855">
        <ele>186</ele>
        <time>2017-12-23T12:12:49Z</time>
      </trkpt>
      <trkpt lat="45.94577" lon="4.73849">
        <ele>186</ele>
        <time>2017-12-23T12:12:50Z</time>
      </trkpt>
      <trkpt lat="45.94571" lon="4.73844">
        <ele>186</ele>
        <time>2017-12-23T12:12:51Z</time>
      </trkpt>
      <trkpt lat="45.94566" lon="4.7384">
        <ele>186</ele>
        <time>2017-12-23T12:12:52Z</time>
      </trkpt>
      <trkpt lat="45.9456" lon="4.73836">
        <ele>186</ele>
        <time>2017-12-23T12:12:53Z</time>
      </trkpt>
      <trkpt lat="45.94556" lon="4.7383">
        <ele>186</ele>
        <time>2017-12-23T12:12:54Z</time>
      </trkpt>
      <trkpt lat="45.94551" lon="4.73826">
        <ele>186</ele>
        <time>2017-12-23T12:12:55Z</time>
      </trkpt>
      <trkpt lat="45.94546" lon="4.73821">
        <ele>186</ele>
        <time>2017-12-23T12:12:56Z</time>
      </trkpt>
      <trkpt lat="45.94541" lon="4.73817">
        <ele>186</ele>
        <time>2017-12-23T12:12:57Z</time>
      </trkpt>
      <trkpt lat="45.94536" lon="4.73812">
        <ele>186</ele>
        <time>2017-12-23T12:12:58Z</time>
      </trkpt>
      <trkpt lat="45.94532" lon="4.73807">
        <ele>186</ele>
        <time>2017-12-23T12:12:59Z</time>
      </trkpt>
      <trkpt lat="45.94527" lon="4.73801">
        <ele>186</ele>
        <time>2017-12-23T12:13:00Z</time>
      </trkpt>
      <trkpt lat="45.94522" lon="4.73796">
        <ele>186</ele>
        <time>2017-12-23T12:13:01Z</time>
      </trkpt>
      <trkpt lat="45.94517" lon="4.73791">
        <ele>186</ele>
        <time>2017-12-23T12:13:02Z</time>
      </trkpt>
      <trkpt lat="45.94511" lon="4.73785">
        <ele>186</ele>
        <time>2017-12-23T12:13:03Z</time>
      </trkpt>
      <trkpt lat="45.94507" lon="4.73779">
        <ele>186</ele>
        <time>2017-12-23T12:13:04Z</time>
      </trkpt>
      <trkpt lat="45.94502" lon="4.73774">
        <ele>186</ele>
        <time>2017-12-23T12:13:05Z</time>
      </trkpt>
      <trkpt lat="45.94499" lon="4.73768">
        <ele>186</ele>
        <time>2017-12-23T12:13:06Z</time>
      </trkpt>
      <trkpt lat="45.94495" lon="4.7376">
        <ele>186</ele>
        <time>2017-12-23T12:13:07Z</time>
      </trkpt>
      <trkpt lat="45.94491" lon="4.73754">
        <ele>186</ele>
        <time>2017-12-23T12:13:08Z</time>
      </trkpt>
      <trkpt lat="45.9449" lon="4.73745">
        <ele>186</ele>
        <time>2017-12-23T12:13:09Z</time>
      </trkpt>
      <trkpt lat="45.9449" lon="4.73737">
        <ele>186</ele>
        <time>2017-12-23T12:13:10Z</time>
      </trkpt>
      <trkpt lat="45.9449" lon="4.73729">
        <ele>186</ele>
        <time>2017-12-23T12:13:11Z</time>
      </trkpt>
      <trkpt lat="45.94492" lon="4.7372">
        <ele>186</ele>
        <time>2017-12-23T12:13:12Z</time>
      </trkpt>
      <trkpt lat="45.94492" lon="4.73712">
        <ele>186</ele>
        <time>2017-12-23T12:13:13Z</time>
      </trkpt>
      <trkpt lat="45.94492" lon="4.73704">
        <ele>186</ele>
        <time>2017-12-23T12:13:14Z</time>
      </trkpt>
      <trkpt lat="45.94494" lon="4.73695">
        <ele>186</ele>
        <time>2017-12-23T12:13:15Z</time>
      </trkpt>
      <trkpt lat="45.94495" lon="4.73686">
        <ele>186</ele>
        <time>2017-12-23T12:13:16Z</time>
      </trkpt>
      <trkpt lat="45.94497" lon="4.73676">
        <ele>185</ele>
        <time>2017-12-23T12:13:17Z</time>
      </trkpt>
      <trkpt lat="45.94498" lon="4.73667">
        <ele>185</ele>
        <time>2017-12-23T12:13:18Z</time>
      </trkpt>
      <trkpt lat="45.94499" lon="4.73658">
        <ele>185</ele>
        <time>2017-12-23T12:13:19Z</time>
      </trkpt>
      <trkpt lat="45.945" lon="4.73648">
        <ele>184</ele>
        <time>2017-12-23T12:13:20Z</time>
      </trkpt>
      <trkpt lat="45.94501" lon="4.73639">
        <ele>184</ele>
        <time>2017-12-23T12:13:21Z</time>
      </trkpt>
      <trkpt lat="45.94501" lon="4.73631">
        <ele>184</ele>
        <time>2017-12-23T12:13:22Z</time>
      </trkpt>
      <trkpt lat="45.94503" lon="4.73623">
        <ele>184</ele>
        <time>2017-12-23T12:13:23Z</time>
      </trkpt>
      <trkpt lat="45.94504" lon="4.73614">
        <ele>184</ele>
        <time>2017-12-23T12:13:24Z</time>
      </trkpt>
      <trkpt lat="45.94505" lon="4.73605">
        <ele>184</ele>
        <time>2017-12-23T12:13:25Z</time>
      </trkpt>
      <trkpt lat="45.94506" lon="4.73597">
        <ele>184</ele>
        <time>2017-12-23T12:13:26Z</time>
      </trkpt>
      <trkpt lat="45.94506" lon="4.73589">
        <ele>185</ele>
        <time>2017-12-23T12:13:27Z</time>
      </trkpt>
      <trkpt lat="45.94506" lon="4.7358">
        <ele>184</ele>
        <time>2017-12-23T12:13:28Z</time>
      </trkpt>
      <trkpt lat="45.94507" lon="4.73571">
        <ele>184</ele>
        <time>2017-12-23T12:13:29Z</time>
      </trkpt>
      <trkpt lat="45.94507" lon="4.73562">
        <ele>184</ele>
        <time>2017-12-23T12:13:30Z</time>
      </trkpt>
      <trkpt lat="45.94508" lon="4.73554">
        <ele>183</ele>
        <time>2017-12-23T12:13:31Z</time>
      </trkpt>
      <trkpt lat="45.94508" lon="4.73545">
        <ele>183</ele>
        <time>2017-12-23T12:13:32Z</time>
      </trkpt>
      <trkpt lat="45.94508" lon="4.73536">
        <ele>183</ele>
        <time>2017-12-23T12:13:33Z</time>
      </trkpt>
      <trkpt lat="45.94508" lon="4.73527">
        <ele>183</ele>
        <time>2017-12-23T12:13:34Z</time>
      </trkpt>
      <trkpt lat="45.94508" lon="4.73517">
        <ele>183</ele>
        <time>2017-12-23T12:13:35Z</time>
      </trkpt>
      <trkpt lat="45.94508" lon="4.73508">
        <ele>183</ele>
        <time>2017-12-23T12:13:36Z</time>
      </trkpt>
      <trkpt lat="45.94507" lon="4.735">
        <ele>183</ele>
        <time>2017-12-23T12:13:37Z</time>
      </trkpt>
      <trkpt lat="45.94506" lon="4.73491">
        <ele>182</ele>
        <time>2017-12-23T12:13:38Z</time>
      </trkpt>
      <trkpt lat="45.94506" lon="4.73481">
        <ele>182</ele>
        <time>2017-12-23T12:13:39Z</time>
      </trkpt>
      <trkpt lat="45.94506" lon="4.73472">
        <ele>182</ele>
        <time>2017-12-23T12:13:40Z</time>
      </trkpt>
      <trkpt lat="45.94506" lon="4.73463">
        <ele>181</ele>
        <time>2017-12-23T12:13:41Z</time>
      </trkpt>
      <trkpt lat="45.94506" lon="4.73453">
        <ele>181</ele>
        <time>2017-12-23T12:13:42Z</time>
      </trkpt>
      <trkpt lat="45.94506" lon="4.73444">
        <ele>181</ele>
        <time>2017-12-23T12:13:43Z</time>
      </trkpt>
      <trkpt lat="45.94505" lon="4.73435">
        <ele>181</ele>
        <time>2017-12-23T12:13:44Z</time>
      </trkpt>
      <trkpt lat="45.94505" lon="4.73425">
        <ele>180</ele>
        <time>2017-12-23T12:13:45Z</time>
      </trkpt>
      <trkpt lat="45.94504" lon="4.73415">
        <ele>180</ele>
        <time>2017-12-23T12:13:46Z</time>
      </trkpt>
      <trkpt lat="45.94504" lon="4.73405">
        <ele>179</ele>
        <time>2017-12-23T12:13:47Z</time>
      </trkpt>
      <trkpt lat="45.94503" lon="4.73395">
        <ele>179</ele>
        <time>2017-12-23T12:13:48Z</time>
      </trkpt>
      <trkpt lat="45.94502" lon="4.73385">
        <ele>179</ele>
        <time>2017-12-23T12:13:49Z</time>
      </trkpt>
      <trkpt lat="45.94501" lon="4.73374">
        <ele>178</ele>
        <time>2017-12-23T12:13:50Z</time>
      </trkpt>
      <trkpt lat="45.94501" lon="4.73364">
        <ele>178</ele>
        <time>2017-12-23T12:13:51Z</time>
      </trkpt>
      <trkpt lat="45.945" lon="4.73354">
        <ele>178</ele>
        <time>2017-12-23T12:13:52Z</time>
      </trkpt>
      <trkpt lat="45.94498" lon="4.73345">
        <ele>178</ele>
        <time>2017-12-23T12:13:53Z</time>
      </trkpt>
      <trkpt lat="45.94497" lon="4.73334">
        <ele>177</ele>
        <time>2017-12-23T12:13:54Z</time>
      </trkpt>
      <trkpt lat="45.94496" lon="4.73325">
        <ele>177</ele>
        <time>2017-12-23T12:13:55Z</time>
      </trkpt>
      <trkpt lat="45.94495" lon="4.73314">
        <ele>177</ele>
        <time>2017-12-23T12:13:56Z</time>
      </trkpt>
      <trkpt lat="45.94494" lon="4.73304">
        <ele>177</ele>
        <time>2017-12-23T12:13:57Z</time>
      </trkpt>
      <trkpt lat="45.94493" lon="4.73295">
        <ele>177</ele>
        <time>2017-12-23T12:13:58Z</time>
      </trkpt>
      <trkpt lat="45.94492" lon="4.73286">
        <ele>177</ele>
        <time>2017-12-23T12:13:59Z</time>
      </trkpt>
      <trkpt lat="45.94491" lon="4.73278">
        <ele>177</ele>
        <time>2017-12-23T12:14:00Z</time>
      </trkpt>
      <trkpt lat="45.9449" lon="4.73271">
        <ele>177</ele>
        <time>2017-12-23T12:14:01Z</time>
      </trkpt>
      <trkpt lat="45.94489" lon="4.73264">
        <ele>176</ele>
        <time>2017-12-23T12:14:02Z</time>
      </trkpt>
      <trkpt lat="45.94487" lon="4.73252">
        <ele>176</ele>
        <time>2017-12-23T12:14:05Z</time>
      </trkpt>
      <trkpt lat="45.94489" lon="4.73251">
        <ele>176</ele>
        <time>2017-12-23T12:14:06Z</time>
      </trkpt>
      <trkpt lat="45.94489" lon="4.73238">
        <ele>175</ele>
        <time>2017-12-23T12:14:19Z</time>
      </trkpt>
      <trkpt lat="45.94489" lon="4.73237">
        <ele>175</ele>
        <time>2017-12-23T12:14:20Z</time>
      </trkpt>
      <trkpt lat="45.94484" lon="4.73228">
        <ele>175</ele>
        <time>2017-12-23T12:14:24Z</time>
      </trkpt>
      <trkpt lat="45.94483" lon="4.73226">
        <ele>175</ele>
        <time>2017-12-23T12:14:25Z</time>
      </trkpt>
      <trkpt lat="45.94485" lon="4.73214">
        <ele>175</ele>
        <time>2017-12-23T12:14:39Z</time>
      </trkpt>
      <trkpt lat="45.94485" lon="4.73213">
        <ele>175</ele>
        <time>2017-12-23T12:14:40Z</time>
      </trkpt>
      <trkpt lat="45.94488" lon="4.73209">
        <ele>175</ele>
        <time>2017-12-23T12:14:44Z</time>
      </trkpt>
      <trkpt lat="45.94489" lon="4.73209">
        <ele>175</ele>
        <time>2017-12-23T12:14:45Z</time>
      </trkpt>
      <trkpt lat="45.94489" lon="4.73209">
        <ele>175</ele>
        <time>2017-12-23T12:14:46Z</time>
      </trkpt>
      <trkpt lat="45.94494" lon="4.73206">
        <ele>175</ele>
        <time>2017-12-23T12:15:37Z</time>
      </trkpt>
      <trkpt lat="45.94494" lon="4.73206">
        <ele>175</ele>
        <time>2017-12-23T12:15:38Z</time>
      </trkpt>
      <trkpt lat="45.94496" lon="4.73202">
        <ele>175</ele>
        <time>2017-12-23T12:15:48Z</time>
      </trkpt>
      <trkpt lat="45.94497" lon="4.73202">
        <ele>175</ele>
        <time>2017-12-23T12:15:49Z</time>
      </trkpt>
      <trkpt lat="45.94491" lon="4.73212">
        <ele>175</ele>
        <time>2017-12-23T12:16:46Z</time>
      </trkpt>
      <trkpt lat="45.94489" lon="4.73212">
        <ele>175</ele>
        <time>2017-12-23T12:16:47Z</time>
      </trkpt>
      <trkpt lat="45.94483" lon="4.73206">
        <ele>175</ele>
        <time>2017-12-23T12:16:51Z</time>
      </trkpt>
      <trkpt lat="45.94482" lon="4.73202">
        <ele>175</ele>
        <time>2017-12-23T12:16:52Z</time>
      </trkpt>
      <trkpt lat="45.94481" lon="4.73193">
        <ele>174</ele>
        <time>2017-12-23T12:16:54Z</time>
      </trkpt>
      <trkpt lat="45.9448" lon="4.73188">
        <ele>174</ele>
        <time>2017-12-23T12:16:55Z</time>
      </trkpt>
      <trkpt lat="45.94478" lon="4.73177">
        <ele>174</ele>
        <time>2017-12-23T12:16:57Z</time>
      </trkpt>
      <trkpt lat="45.94478" lon="4.73171">
        <ele>174</ele>
        <time>2017-12-23T12:16:58Z</time>
      </trkpt>
      <trkpt lat="45.94476" lon="4.73159">
        <ele>173</ele>
        <time>2017-12-23T12:17:00Z</time>
      </trkpt>
      <trkpt lat="45.94474" lon="4.73151">
        <ele>172</ele>
        <time>2017-12-23T12:17:01Z</time>
      </trkpt>
      <trkpt lat="45.94473" lon="4.73144">
        <ele>172</ele>
        <time>2017-12-23T12:17:02Z</time>
      </trkpt>
      <trkpt lat="45.94473" lon="4.73137">
        <ele>172</ele>
        <time>2017-12-23T12:17:03Z</time>
      </trkpt>
      <trkpt lat="45.94472" lon="4.73129">
        <ele>172</ele>
        <time>2017-12-23T12:17:04Z</time>
      </trkpt>
      <trkpt lat="45.9447" lon="4.73123">
        <ele>172</ele>
        <time>2017-12-23T12:17:05Z</time>
      </trkpt>
      <trkpt lat="45.94469" lon="4.73116">
        <ele>172</ele>
        <time>2017-12-23T12:17:06Z</time>
      </trkpt>
      <trkpt lat="45.94468" lon="4.73108">
        <ele>172</ele>
        <time>2017-12-23T12:17:07Z</time>
      </trkpt>
      <trkpt lat="45.94467" lon="4.731">
        <ele>172</ele>
        <time>2017-12-23T12:17:08Z</time>
      </trkpt>
      <trkpt lat="45.94466" lon="4.73092">
        <ele>172</ele>
        <time>2017-12-23T12:17:09Z</time>
      </trkpt>
      <trkpt lat="45.94464" lon="4.73085">
        <ele>171</ele>
        <time>2017-12-23T12:17:10Z</time>
      </trkpt>
      <trkpt lat="45.94462" lon="4.73078">
        <ele>170</ele>
        <time>2017-12-23T12:17:11Z</time>
      </trkpt>
      <trkpt lat="45.94461" lon="4.73071">
        <ele>170</ele>
        <time>2017-12-23T12:17:12Z</time>
      </trkpt>
      <trkpt lat="45.9446" lon="4.73063">
        <ele>170</ele>
        <time>2017-12-23T12:17:13Z</time>
      </trkpt>
      <trkpt lat="45.94459" lon="4.73056">
        <ele>170</ele>
        <time>2017-12-23T12:17:14Z</time>
      </trkpt>
      <trkpt lat="45.94458" lon="4.73049">
        <ele>170</ele>
        <time>2017-12-23T12:17:15Z</time>
      </trkpt>
      <trkpt lat="45.94457" lon="4.73042">
        <ele>169</ele>
        <time>2017-12-23T12:17:16Z</time>
      </trkpt>
      <trkpt lat="45.94456" lon="4.73036">
        <ele>169</ele>
        <time>2017-12-23T12:17:17Z</time>
      </trkpt>
      <trkpt lat="45.94455" lon="4.7303">
        <ele>169</ele>
        <time>2017-12-23T12:17:18Z</time>
      </trkpt>
      <trkpt lat="45.94454" lon="4.73023">
        <ele>169</ele>
        <time>2017-12-23T12:17:19Z</time>
      </trkpt>
      <trkpt lat="45.94453" lon="4.73011">
        <ele>169</ele>
        <time>2017-12-23T12:17:21Z</time>
      </trkpt>
      <trkpt lat="45.94452" lon="4.73005">
        <ele>169</ele>
        <time>2017-12-23T12:17:22Z</time>
      </trkpt>
      <trkpt lat="45.9445" lon="4.72994">
        <ele>167</ele>
        <time>2017-12-23T12:17:24Z</time>
      </trkpt>
      <trkpt lat="45.9445" lon="4.72988">
        <ele>167</ele>
        <time>2017-12-23T12:17:25Z</time>
      </trkpt>
      <trkpt lat="45.94449" lon="4.72976">
        <ele>167</ele>
        <time>2017-12-23T12:17:27Z</time>
      </trkpt>
      <trkpt lat="45.94448" lon="4.72971">
        <ele>167</ele>
        <time>2017-12-23T12:17:28Z</time>
      </trkpt>
      <trkpt lat="45.94447" lon="4.72959">
        <ele>167</ele>
        <time>2017-12-23T12:17:30Z</time>
      </trkpt>
      <trkpt lat="45.94446" lon="4.72954">
        <ele>167</ele>
        <time>2017-12-23T12:17:31Z</time>
      </trkpt>
      <trkpt lat="45.94444" lon="4.72943">
        <ele>167</ele>
        <time>2017-12-23T12:17:33Z</time>
      </trkpt>
      <trkpt lat="45.94443" lon="4.72937">
        <ele>167</ele>
        <time>2017-12-23T12:17:34Z</time>
      </trkpt>
      <trkpt lat="45.94442" lon="4.72926">
        <ele>167</ele>
        <time>2017-12-23T12:17:36Z</time>
      </trkpt>
      <trkpt lat="45.94441" lon="4.7292">
        <ele>167</ele>
        <time>2017-12-23T12:17:37Z</time>
      </trkpt>
      <trkpt lat="45.94439" lon="4.72908">
        <ele>166</ele>
        <time>2017-12-23T12:17:39Z</time>
      </trkpt>
      <trkpt lat="45.94438" lon="4.72902">
        <ele>166</ele>
        <time>2017-12-23T12:17:40Z</time>
      </trkpt>
      <trkpt lat="45.94438" lon="4.72891">
        <ele>166</ele>
        <time>2017-12-23T12:17:42Z</time>
      </trkpt>
      <trkpt lat="45.94437" lon="4.72884">
        <ele>166</ele>
        <time>2017-12-23T12:17:43Z</time>
      </trkpt>
      <trkpt lat="45.94436" lon="4.72877">
        <ele>166</ele>
        <time>2017-12-23T12:17:44Z</time>
      </trkpt>
      <trkpt lat="45.94435" lon="4.72868">
        <ele>166</ele>
        <time>2017-12-23T12:17:45Z</time>
      </trkpt>
      <trkpt lat="45.94434" lon="4.7286">
        <ele>166</ele>
        <time>2017-12-23T12:17:46Z</time>
      </trkpt>
      <trkpt lat="45.94432" lon="4.72852">
        <ele>166</ele>
        <time>2017-12-23T12:17:47Z</time>
      </trkpt>
      <trkpt lat="45.94431" lon="4.72843">
        <ele>166</ele>
        <time>2017-12-23T12:17:48Z</time>
      </trkpt>
      <trkpt lat="45.9443" lon="4.72836">
        <ele>166</ele>
        <time>2017-12-23T12:17:49Z</time>
      </trkpt>
      <trkpt lat="45.9443" lon="4.72828">
        <ele>167</ele>
        <time>2017-12-23T12:17:50Z</time>
      </trkpt>
      <trkpt lat="45.94429" lon="4.72819">
        <ele>167</ele>
        <time>2017-12-23T12:17:51Z</time>
      </trkpt>
      <trkpt lat="45.94427" lon="4.72809">
        <ele>167</ele>
        <time>2017-12-23T12:17:52Z</time>
      </trkpt>
      <trkpt lat="45.94426" lon="4.728">
        <ele>167</ele>
        <time>2017-12-23T12:17:53Z</time>
      </trkpt>
      <trkpt lat="45.94425" lon="4.72791">
        <ele>168</ele>
        <time>2017-12-23T12:17:54Z</time>
      </trkpt>
      <trkpt lat="45.94423" lon="4.72781">
        <ele>168</ele>
        <time>2017-12-23T12:17:55Z</time>
      </trkpt>
      <trkpt lat="45.94423" lon="4.72771">
        <ele>169</ele>
        <time>2017-12-23T12:17:56Z</time>
      </trkpt>
      <trkpt lat="45.94422" lon="4.72762">
        <ele>169</ele>
        <time>2017-12-23T12:17:57Z</time>
      </trkpt>
      <trkpt lat="45.94421" lon="4.72753">
        <ele>170</ele>
        <time>2017-12-23T12:17:58Z</time>
      </trkpt>
      <trkpt lat="45.9442" lon="4.72744">
        <ele>171</ele>
        <time>2017-12-23T12:17:59Z</time>
      </trkpt>
      <trkpt lat="45.94419" lon="4.72734">
        <ele>171</ele>
        <time>2017-12-23T12:18:00Z</time>
      </trkpt>
      <trkpt lat="45.94418" lon="4.72725">
        <ele>171</ele>
        <time>2017-12-23T12:18:01Z</time>
      </trkpt>
      <trkpt lat="45.94417" lon="4.72714">
        <ele>172</ele>
        <time>2017-12-23T12:18:02Z</time>
      </trkpt>
      <trkpt lat="45.94415" lon="4.72705">
        <ele>172</ele>
        <time>2017-12-23T12:18:03Z</time>
      </trkpt>
      <trkpt lat="45.94414" lon="4.72697">
        <ele>173</ele>
        <time>2017-12-23T12:18:04Z</time>
      </trkpt>
      <trkpt lat="45.94413" lon="4.72689">
        <ele>173</ele>
        <time>2017-12-23T12:18:05Z</time>
      </trkpt>
      <trkpt lat="45.94412" lon="4.72681">
        <ele>173</ele>
        <time>2017-12-23T12:18:06Z</time>
      </trkpt>
      <trkpt lat="45.94411" lon="4.72672">
        <ele>173</ele>
        <time>2017-12-23T12:18:07Z</time>
      </trkpt>
      <trkpt lat="45.94409" lon="4.72663">
        <ele>174</ele>
        <time>2017-12-23T12:18:08Z</time>
      </trkpt>
      <trkpt lat="45.94408" lon="4.72655">
        <ele>174</ele>
        <time>2017-12-23T12:18:09Z</time>
      </trkpt>
      <trkpt lat="45.94407" lon="4.72646">
        <ele>174</ele>
        <time>2017-12-23T12:18:10Z</time>
      </trkpt>
      <trkpt lat="45.94405" lon="4.72639">
        <ele>174</ele>
        <time>2017-12-23T12:18:11Z</time>
      </trkpt>
      <trkpt lat="45.94405" lon="4.72631">
        <ele>174</ele>
        <time>2017-12-23T12:18:12Z</time>
      </trkpt>
      <trkpt lat="45.94404" lon="4.72622">
        <ele>173</ele>
        <time>2017-12-23T12:18:13Z</time>
      </trkpt>
      <trkpt lat="45.94403" lon="4.72614">
        <ele>173</ele>
        <time>2017-12-23T12:18:14Z</time>
      </trkpt>
      <trkpt lat="45.94402" lon="4.72605">
        <ele>173</ele>
        <time>2017-12-23T12:18:15Z</time>
      </trkpt>
      <trkpt lat="45.94401" lon="4.72598">
        <ele>173</ele>
        <time>2017-12-23T12:18:16Z</time>
      </trkpt>
      <trkpt lat="45.944" lon="4.72589">
        <ele>173</ele>
        <time>2017-12-23T12:18:17Z</time>
      </trkpt>
      <trkpt lat="45.94398" lon="4.72581">
        <ele>173</ele>
        <time>2017-12-23T12:18:18Z</time>
      </trkpt>
      <trkpt lat="45.94397" lon="4.72572">
        <ele>173</ele>
        <time>2017-12-23T12:18:19Z</time>
      </trkpt>
      <trkpt lat="45.94394" lon="4.72563">
        <ele>173</ele>
        <time>2017-12-23T12:18:20Z</time>
      </trkpt>
      <trkpt lat="45.94392" lon="4.72554">
        <ele>173</ele>
        <time>2017-12-23T12:18:21Z</time>
      </trkpt>
      <trkpt lat="45.9439" lon="4.72545">
        <ele>173</ele>
        <time>2017-12-23T12:18:22Z</time>
      </trkpt>
      <trkpt lat="45.94388" lon="4.72536">
        <ele>174</ele>
        <time>2017-12-23T12:18:23Z</time>
      </trkpt>
      <trkpt lat="45.94386" lon="4.72527">
        <ele>174</ele>
        <time>2017-12-23T12:18:24Z</time>
      </trkpt>
      <trkpt lat="45.94384" lon="4.72519">
        <ele>174</ele>
        <time>2017-12-23T12:18:25Z</time>
      </trkpt>
      <trkpt lat="45.94382" lon="4.72512">
        <ele>174</ele>
        <time>2017-12-23T12:18:26Z</time>
      </trkpt>
      <trkpt lat="45.9438" lon="4.72501">
        <ele>174</ele>
        <time>2017-12-23T12:18:27Z</time>
      </trkpt>
      <trkpt lat="45.94377" lon="4.72492">
        <ele>173</ele>
        <time>2017-12-23T12:18:28Z</time>
      </trkpt>
      <trkpt lat="45.94374" lon="4.72485">
        <ele>173</ele>
        <time>2017-12-23T12:18:29Z</time>
      </trkpt>
      <trkpt lat="45.94371" lon="4.72478">
        <ele>173</ele>
        <time>2017-12-23T12:18:30Z</time>
      </trkpt>
      <trkpt lat="45.94369" lon="4.72472">
        <ele>173</ele>
        <time>2017-12-23T12:18:31Z</time>
      </trkpt>
      <trkpt lat="45.94367" lon="4.72465">
        <ele>173</ele>
        <time>2017-12-23T12:18:32Z</time>
      </trkpt>
      <trkpt lat="45.94363" lon="4.7246">
        <ele>173</ele>
        <time>2017-12-23T12:18:33Z</time>
      </trkpt>
      <trkpt lat="45.94361" lon="4.72453">
        <ele>173</ele>
        <time>2017-12-23T12:18:34Z</time>
      </trkpt>
      <trkpt lat="45.94359" lon="4.72445">
        <ele>173</ele>
        <time>2017-12-23T12:18:35Z</time>
      </trkpt>
      <trkpt lat="45.94355" lon="4.72438">
        <ele>173</ele>
        <time>2017-12-23T12:18:36Z</time>
      </trkpt>
      <trkpt lat="45.94353" lon="4.72431">
        <ele>173</ele>
        <time>2017-12-23T12:18:37Z</time>
      </trkpt>
      <trkpt lat="45.94349" lon="4.72422">
        <ele>173</ele>
        <time>2017-12-23T12:18:38Z</time>
      </trkpt>
      <trkpt lat="45.94347" lon="4.72415">
        <ele>173</ele>
        <time>2017-12-23T12:18:39Z</time>
      </trkpt>
      <trkpt lat="45.94345" lon="4.72408">
        <ele>173</ele>
        <time>2017-12-23T12:18:40Z</time>
      </trkpt>
      <trkpt lat="45.94341" lon="4.724">
        <ele>172</ele>
        <time>2017-12-23T12:18:41Z</time>
      </trkpt>
      <trkpt lat="45.94336" lon="4.72393">
        <ele>172</ele>
        <time>2017-12-23T12:18:42Z</time>
      </trkpt>
      <trkpt lat="45.94333" lon="4.72386">
        <ele>172</ele>
        <time>2017-12-23T12:18:43Z</time>
      </trkpt>
      <trkpt lat="45.94331" lon="4.72379">
        <ele>172</ele>
        <time>2017-12-23T12:18:44Z</time>
      </trkpt>
      <trkpt lat="45.94327" lon="4.72372">
        <ele>172</ele>
        <time>2017-12-23T12:18:45Z</time>
      </trkpt>
      <trkpt lat="45.94325" lon="4.72364">
        <ele>172</ele>
        <time>2017-12-23T12:18:46Z</time>
      </trkpt>
      <trkpt lat="45.94322" lon="4.72356">
        <ele>172</ele>
        <time>2017-12-23T12:18:47Z</time>
      </trkpt>
      <trkpt lat="45.94317" lon="4.72349">
        <ele>172</ele>
        <time>2017-12-23T12:18:48Z</time>
      </trkpt>
      <trkpt lat="45.94313" lon="4.72341">
        <ele>172</ele>
        <time>2017-12-23T12:18:49Z</time>
      </trkpt>
      <trkpt lat="45.9431" lon="4.72334">
        <ele>172</ele>
        <time>2017-12-23T12:18:50Z</time>
      </trkpt>
      <trkpt lat="45.94306" lon="4.72326">
        <ele>171</ele>
        <time>2017-12-23T12:18:51Z</time>
      </trkpt>
      <trkpt lat="45.94302" lon="4.72318">
        <ele>171</ele>
        <time>2017-12-23T12:18:52Z</time>
      </trkpt>
      <trkpt lat="45.94298" lon="4.7231">
        <ele>171</ele>
        <time>2017-12-23T12:18:53Z</time>
      </trkpt>
      <trkpt lat="45.94295" lon="4.72301">
        <ele>171</ele>
        <time>2017-12-23T12:18:54Z</time>
      </trkpt>
      <trkpt lat="45.94292" lon="4.72294">
        <ele>171</ele>
        <time>2017-12-23T12:18:55Z</time>
      </trkpt>
      <trkpt lat="45.94289" lon="4.72286">
        <ele>171</ele>
        <time>2017-12-23T12:18:56Z</time>
      </trkpt>
      <trkpt lat="45.94284" lon="4.72279">
        <ele>171</ele>
        <time>2017-12-23T12:18:57Z</time>
      </trkpt>
      <trkpt lat="45.94279" lon="4.72274">
        <ele>171</ele>
        <time>2017-12-23T12:18:58Z</time>
      </trkpt>
      <trkpt lat="45.94274" lon="4.7227">
        <ele>171</ele>
        <time>2017-12-23T12:18:59Z</time>
      </trkpt>
      <trkpt lat="45.94268" lon="4.72269">
        <ele>171</ele>
        <time>2017-12-23T12:19:00Z</time>
      </trkpt>
      <trkpt lat="45.94262" lon="4.72271">
        <ele>171</ele>
        <time>2017-12-23T12:19:01Z</time>
      </trkpt>
      <trkpt lat="45.94257" lon="4.72274">
        <ele>171</ele>
        <time>2017-12-23T12:19:02Z</time>
      </trkpt>
      <trkpt lat="45.94251" lon="4.72276">
        <ele>171</ele>
        <time>2017-12-23T12:19:03Z</time>
      </trkpt>
      <trkpt lat="45.94246" lon="4.72279">
        <ele>171</ele>
        <time>2017-12-23T12:19:04Z</time>
      </trkpt>
      <trkpt lat="45.94241" lon="4.72281">
        <ele>171</ele>
        <time>2017-12-23T12:19:05Z</time>
      </trkpt>
      <trkpt lat="45.94235" lon="4.72284">
        <ele>171</ele>
        <time>2017-12-23T12:19:06Z</time>
      </trkpt>
      <trkpt lat="45.94229" lon="4.72286">
        <ele>171</ele>
        <time>2017-12-23T12:19:07Z</time>
      </trkpt>
      <trkpt lat="45.94223" lon="4.72288">
        <ele>171</ele>
        <time>2017-12-23T12:19:08Z</time>
      </trkpt>
      <trkpt lat="45.94217" lon="4.72289">
        <ele>171</ele>
        <time>2017-12-23T12:19:09Z</time>
      </trkpt>
      <trkpt lat="45.94211" lon="4.72289">
        <ele>171</ele>
        <time>2017-12-23T12:19:10Z</time>
      </trkpt>
      <trkpt lat="45.94205" lon="4.72289">
        <ele>171</ele>
        <time>2017-12-23T12:19:11Z</time>
      </trkpt>
      <trkpt lat="45.94198" lon="4.72289">
        <ele>171</ele>
        <time>2017-12-23T12:19:12Z</time>
      </trkpt>
      <trkpt lat="45.94192" lon="4.72289">
        <ele>171</ele>
        <time>2017-12-23T12:19:13Z</time>
      </trkpt>
      <trkpt lat="45.94185" lon="4.72289">
        <ele>171</ele>
        <time>2017-12-23T12:19:14Z</time>
      </trkpt>
      <trkpt lat="45.94179" lon="4.7229">
        <ele>171</ele>
        <time>2017-12-23T12:19:15Z</time>
      </trkpt>
      <trkpt lat="45.94173" lon="4.72288">
        <ele>171</ele>
        <time>2017-12-23T12:19:16Z</time>
      </trkpt>
      <trkpt lat="45.94168" lon="4.72287">
        <ele>171</ele>
        <time>2017-12-23T12:19:17Z</time>
      </trkpt>
      <trkpt lat="45.94163" lon="4.72286">
        <ele>171</ele>
        <time>2017-12-23T12:19:18Z</time>
      </trkpt>
      <trkpt lat="45.94157" lon="4.72285">
        <ele>171</ele>
        <time>2017-12-23T12:19:19Z</time>
      </trkpt>
      <trkpt lat="45.94152" lon="4.72282">
        <ele>171</ele>
        <time>2017-12-23T12:19:20Z</time>
      </trkpt>
      <trkpt lat="45.94147" lon="4.72279">
        <ele>171</ele>
        <time>2017-12-23T12:19:21Z</time>
      </trkpt>
      <trkpt lat="45.94141" lon="4.72277">
        <ele>171</ele>
        <time>2017-12-23T12:19:22Z</time>
      </trkpt>
      <trkpt lat="45.94135" lon="4.72274">
        <ele>171</ele>
        <time>2017-12-23T12:19:23Z</time>
      </trkpt>
      <trkpt lat="45.9413" lon="4.72271">
        <ele>171</ele>
        <time>2017-12-23T12:19:24Z</time>
      </trkpt>
      <trkpt lat="45.94124" lon="4.72268">
        <ele>171</ele>
        <time>2017-12-23T12:19:25Z</time>
      </trkpt>
      <trkpt lat="45.94117" lon="4.72266">
        <ele>171</ele>
        <time>2017-12-23T12:19:26Z</time>
      </trkpt>
      <trkpt lat="45.94112" lon="4.72265">
        <ele>171</ele>
        <time>2017-12-23T12:19:27Z</time>
      </trkpt>
      <trkpt lat="45.94105" lon="4.72263">
        <ele>171</ele>
        <time>2017-12-23T12:19:28Z</time>
      </trkpt>
      <trkpt lat="45.94098" lon="4.72263">
        <ele>171</ele>
        <time>2017-12-23T12:19:29Z</time>
      </trkpt>
      <trkpt lat="45.94091" lon="4.72265">
        <ele>171</ele>
        <time>2017-12-23T12:19:30Z</time>
      </trkpt>
      <trkpt lat="45.94085" lon="4.72267">
        <ele>171</ele>
        <time>2017-12-23T12:19:31Z</time>
      </trkpt>
      <trkpt lat="45.94078" lon="4.7227">
        <ele>171</ele>
        <time>2017-12-23T12:19:32Z</time>
      </trkpt>
      <trkpt lat="45.94073" lon="4.72275">
        <ele>171</ele>
        <time>2017-12-23T12:19:33Z</time>
      </trkpt>
      <trkpt lat="45.94067" lon="4.72281">
        <ele>171</ele>
        <time>2017-12-23T12:19:34Z</time>
      </trkpt>
      <trkpt lat="45.94061" lon="4.72287">
        <ele>171</ele>
        <time>2017-12-23T12:19:35Z</time>
      </trkpt>
      <trkpt lat="45.94056" lon="4.72293">
        <ele>171</ele>
        <time>2017-12-23T12:19:36Z</time>
      </trkpt>
      <trkpt lat="45.94051" lon="4.723">
        <ele>171</ele>
        <time>2017-12-23T12:19:37Z</time>
      </trkpt>
      <trkpt lat="45.94045" lon="4.72306">
        <ele>171</ele>
        <time>2017-12-23T12:19:38Z</time>
      </trkpt>
      <trkpt lat="45.9404" lon="4.72313">
        <ele>171</ele>
        <time>2017-12-23T12:19:39Z</time>
      </trkpt>
      <trkpt lat="45.94035" lon="4.7232">
        <ele>171</ele>
        <time>2017-12-23T12:19:40Z</time>
      </trkpt>
      <trkpt lat="45.94031" lon="4.72326">
        <ele>171</ele>
        <time>2017-12-23T12:19:41Z</time>
      </trkpt>
      <trkpt lat="45.94026" lon="4.72333">
        <ele>171</ele>
        <time>2017-12-23T12:19:42Z</time>
      </trkpt>
      <trkpt lat="45.94021" lon="4.7234">
        <ele>171</ele>
        <time>2017-12-23T12:19:43Z</time>
      </trkpt>
      <trkpt lat="45.94016" lon="4.72346">
        <ele>171</ele>
        <time>2017-12-23T12:19:44Z</time>
      </trkpt>
      <trkpt lat="45.94011" lon="4.72352">
        <ele>171</ele>
        <time>2017-12-23T12:19:45Z</time>
      </trkpt>
      <trkpt lat="45.94007" lon="4.72357">
        <ele>171</ele>
        <time>2017-12-23T12:19:46Z</time>
      </trkpt>
      <trkpt lat="45.94002" lon="4.72363">
        <ele>171</ele>
        <time>2017-12-23T12:19:47Z</time>
      </trkpt>
      <trkpt lat="45.93998" lon="4.7237">
        <ele>171</ele>
        <time>2017-12-23T12:19:48Z</time>
      </trkpt>
      <trkpt lat="45.93992" lon="4.72375">
        <ele>171</ele>
        <time>2017-12-23T12:19:49Z</time>
      </trkpt>
      <trkpt lat="45.93987" lon="4.7238">
        <ele>171</ele>
        <time>2017-12-23T12:19:50Z</time>
      </trkpt>
      <trkpt lat="45.93982" lon="4.72386">
        <ele>171</ele>
        <time>2017-12-23T12:19:51Z</time>
      </trkpt>
      <trkpt lat="45.93978" lon="4.72393">
        <ele>171</ele>
        <time>2017-12-23T12:19:52Z</time>
      </trkpt>
      <trkpt lat="45.93973" lon="4.72399">
        <ele>171</ele>
        <time>2017-12-23T12:19:53Z</time>
      </trkpt>
      <trkpt lat="45.93968" lon="4.72404">
        <ele>171</ele>
        <time>2017-12-23T12:19:54Z</time>
      </trkpt>
      <trkpt lat="45.93963" lon="4.72409">
        <ele>171</ele>
        <time>2017-12-23T12:19:55Z</time>
      </trkpt>
      <trkpt lat="45.93958" lon="4.72415">
        <ele>171</ele>
        <time>2017-12-23T12:19:56Z</time>
      </trkpt>
      <trkpt lat="45.93954" lon="4.7242">
        <ele>171</ele>
        <time>2017-12-23T12:19:57Z</time>
      </trkpt>
      <trkpt lat="45.93949" lon="4.72426">
        <ele>171</ele>
        <time>2017-12-23T12:19:58Z</time>
      </trkpt>
      <trkpt lat="45.93944" lon="4.72431">
        <ele>171</ele>
        <time>2017-12-23T12:19:59Z</time>
      </trkpt>
      <trkpt lat="45.9394" lon="4.72437">
        <ele>171</ele>
        <time>2017-12-23T12:20:00Z</time>
      </trkpt>
      <trkpt lat="45.93935" lon="4.72443">
        <ele>171</ele>
        <time>2017-12-23T12:20:01Z</time>
      </trkpt>
      <trkpt lat="45.93931" lon="4.72448">
        <ele>171</ele>
        <time>2017-12-23T12:20:02Z</time>
      </trkpt>
      <trkpt lat="45.93927" lon="4.72455">
        <ele>171</ele>
        <time>2017-12-23T12:20:03Z</time>
      </trkpt>
      <trkpt lat="45.93924" lon="4.72462">
        <ele>171</ele>
        <time>2017-12-23T12:20:04Z</time>
      </trkpt>
      <trkpt lat="45.93919" lon="4.72467">
        <ele>171</ele>
        <time>2017-12-23T12:20:05Z</time>
      </trkpt>
      <trkpt lat="45.93914" lon="4.72471">
        <ele>172</ele>
        <time>2017-12-23T12:20:06Z</time>
      </trkpt>
      <trkpt lat="45.9391" lon="4.72476">
        <ele>172</ele>
        <time>2017-12-23T12:20:07Z</time>
      </trkpt>
      <trkpt lat="45.93906" lon="4.72482">
        <ele>172</ele>
        <time>2017-12-23T12:20:08Z</time>
      </trkpt>
      <trkpt lat="45.93902" lon="4.72487">
        <ele>172</ele>
        <time>2017-12-23T12:20:09Z</time>
      </trkpt>
      <trkpt lat="45.93898" lon="4.72493">
        <ele>172</ele>
        <time>2017-12-23T12:20:10Z</time>
      </trkpt>
      <trkpt lat="45.93894" lon="4.72498">
        <ele>172</ele>
        <time>2017-12-23T12:20:11Z</time>
      </trkpt>
      <trkpt lat="45.9389" lon="4.72504">
        <ele>173</ele>
        <time>2017-12-23T12:20:12Z</time>
      </trkpt>
      <trkpt lat="45.93885" lon="4.72509">
        <ele>173</ele>
        <time>2017-12-23T12:20:13Z</time>
      </trkpt>
      <trkpt lat="45.93881" lon="4.72514">
        <ele>173</ele>
        <time>2017-12-23T12:20:14Z</time>
      </trkpt>
      <trkpt lat="45.93876" lon="4.72517">
        <ele>173</ele>
        <time>2017-12-23T12:20:15Z</time>
      </trkpt>
      <trkpt lat="45.9387" lon="4.72518">
        <ele>173</ele>
        <time>2017-12-23T12:20:16Z</time>
      </trkpt>
      <trkpt lat="45.93864" lon="4.72517">
        <ele>173</ele>
        <time>2017-12-23T12:20:17Z</time>
      </trkpt>
      <trkpt lat="45.9386" lon="4.72513">
        <ele>173</ele>
        <time>2017-12-23T12:20:18Z</time>
      </trkpt>
      <trkpt lat="45.93856" lon="4.72507">
        <ele>173</ele>
        <time>2017-12-23T12:20:19Z</time>
      </trkpt>
      <trkpt lat="45.93848" lon="4.72501">
        <ele>174</ele>
        <time>2017-12-23T12:20:23Z</time>
      </trkpt>
      <trkpt lat="45.93846" lon="4.72498">
        <ele>173</ele>
        <time>2017-12-23T12:20:24Z</time>
      </trkpt>
      <trkpt lat="45.93834" lon="4.72477">
        <ele>173</ele>
        <time>2017-12-23T12:20:25Z</time>
      </trkpt>
      <trkpt lat="45.93826" lon="4.72477">
        <ele>173</ele>
        <time>2017-12-23T12:20:26Z</time>
      </trkpt>
      <trkpt lat="45.9382" lon="4.72471">
        <ele>172</ele>
        <time>2017-12-23T12:20:27Z</time>
      </trkpt>
      <trkpt lat="45.93815" lon="4.72463">
        <ele>172</ele>
        <time>2017-12-23T12:20:29Z</time>
      </trkpt>
      <trkpt lat="45.93808" lon="4.72458">
        <ele>172</ele>
        <time>2017-12-23T12:20:30Z</time>
      </trkpt>
      <trkpt lat="45.93801" lon="4.72454">
        <ele>172</ele>
        <time>2017-12-23T12:20:31Z</time>
      </trkpt>
      <trkpt lat="45.93796" lon="4.7245">
        <ele>172</ele>
        <time>2017-12-23T12:20:32Z</time>
      </trkpt>
      <trkpt lat="45.9379" lon="4.72444">
        <ele>172</ele>
        <time>2017-12-23T12:20:33Z</time>
      </trkpt>
      <trkpt lat="45.93783" lon="4.72439">
        <ele>172</ele>
        <time>2017-12-23T12:20:34Z</time>
      </trkpt>
      <trkpt lat="45.93779" lon="4.72433">
        <ele>172</ele>
        <time>2017-12-23T12:20:35Z</time>
      </trkpt>
      <trkpt lat="45.93774" lon="4.72427">
        <ele>171</ele>
        <time>2017-12-23T12:20:36Z</time>
      </trkpt>
      <trkpt lat="45.9377" lon="4.72423">
        <ele>171</ele>
        <time>2017-12-23T12:20:37Z</time>
      </trkpt>
      <trkpt lat="45.93765" lon="4.72418">
        <ele>171</ele>
        <time>2017-12-23T12:20:38Z</time>
      </trkpt>
      <trkpt lat="45.93762" lon="4.72413">
        <ele>171</ele>
        <time>2017-12-23T12:20:39Z</time>
      </trkpt>
      <trkpt lat="45.93757" lon="4.72408">
        <ele>171</ele>
        <time>2017-12-23T12:20:40Z</time>
      </trkpt>
      <trkpt lat="45.93753" lon="4.72403">
        <ele>171</ele>
        <time>2017-12-23T12:20:41Z</time>
      </trkpt>
      <trkpt lat="45.93749" lon="4.72397">
        <ele>171</ele>
        <time>2017-12-23T12:20:42Z</time>
      </trkpt>
      <trkpt lat="45.93744" lon="4.72393">
        <ele>171</ele>
        <time>2017-12-23T12:20:43Z</time>
      </trkpt>
      <trkpt lat="45.9374" lon="4.72389">
        <ele>171</ele>
        <time>2017-12-23T12:20:44Z</time>
      </trkpt>
      <trkpt lat="45.93734" lon="4.72385">
        <ele>171</ele>
        <time>2017-12-23T12:20:45Z</time>
      </trkpt>
      <trkpt lat="45.93731" lon="4.7238">
        <ele>171</ele>
        <time>2017-12-23T12:20:46Z</time>
      </trkpt>
      <trkpt lat="45.93726" lon="4.72375">
        <ele>171</ele>
        <time>2017-12-23T12:20:47Z</time>
      </trkpt>
      <trkpt lat="45.93721" lon="4.72372">
        <ele>172</ele>
        <time>2017-12-23T12:20:48Z</time>
      </trkpt>
      <trkpt lat="45.93715" lon="4.72368">
        <ele>172</ele>
        <time>2017-12-23T12:20:49Z</time>
      </trkpt>
      <trkpt lat="45.9371" lon="4.72364">
        <ele>172</ele>
        <time>2017-12-23T12:20:50Z</time>
      </trkpt>
      <trkpt lat="45.93705" lon="4.72358">
        <ele>171</ele>
        <time>2017-12-23T12:20:51Z</time>
      </trkpt>
      <trkpt lat="45.93701" lon="4.72353">
        <ele>171</ele>
        <time>2017-12-23T12:20:52Z</time>
      </trkpt>
      <trkpt lat="45.93698" lon="4.72351">
        <ele>171</ele>
        <time>2017-12-23T12:20:53Z</time>
      </trkpt>
      <trkpt lat="45.9369" lon="4.72349">
        <ele>171</ele>
        <time>2017-12-23T12:20:54Z</time>
      </trkpt>
      <trkpt lat="45.93685" lon="4.72345">
        <ele>171</ele>
        <time>2017-12-23T12:20:55Z</time>
      </trkpt>
      <trkpt lat="45.93681" lon="4.7234">
        <ele>171</ele>
        <time>2017-12-23T12:20:56Z</time>
      </trkpt>
      <trkpt lat="45.93677" lon="4.72333">
        <ele>171</ele>
        <time>2017-12-23T12:20:57Z</time>
      </trkpt>
      <trkpt lat="45.93673" lon="4.72327">
        <ele>171</ele>
        <time>2017-12-23T12:20:58Z</time>
      </trkpt>
      <trkpt lat="45.93668" lon="4.72324">
        <ele>171</ele>
        <time>2017-12-23T12:20:59Z</time>
      </trkpt>
      <trkpt lat="45.93665" lon="4.72319">
        <ele>172</ele>
        <time>2017-12-23T12:21:00Z</time>
      </trkpt>
      <trkpt lat="45.93661" lon="4.72314">
        <ele>172</ele>
        <time>2017-12-23T12:21:01Z</time>
      </trkpt>
      <trkpt lat="45.93657" lon="4.72309">
        <ele>172</ele>
        <time>2017-12-23T12:21:02Z</time>
      </trkpt>
      <trkpt lat="45.93653" lon="4.72304">
        <ele>172</ele>
        <time>2017-12-23T12:21:03Z</time>
      </trkpt>
      <trkpt lat="45.93649" lon="4.723">
        <ele>172</ele>
        <time>2017-12-23T12:21:04Z</time>
      </trkpt>
      <trkpt lat="45.93642" lon="4.72292">
        <ele>172</ele>
        <time>2017-12-23T12:21:06Z</time>
      </trkpt>
      <trkpt lat="45.93638" lon="4.7229">
        <ele>172</ele>
        <time>2017-12-23T12:21:07Z</time>
      </trkpt>
      <trkpt lat="45.93632" lon="4.7228">
        <ele>172</ele>
        <time>2017-12-23T12:21:09Z</time>
      </trkpt>
      <trkpt lat="45.93628" lon="4.72276">
        <ele>172</ele>
        <time>2017-12-23T12:21:10Z</time>
      </trkpt>
      <trkpt lat="45.93623" lon="4.72273">
        <ele>172</ele>
        <time>2017-12-23T12:21:11Z</time>
      </trkpt>
      <trkpt lat="45.93619" lon="4.72268">
        <ele>172</ele>
        <time>2017-12-23T12:21:12Z</time>
      </trkpt>
      <trkpt lat="45.93615" lon="4.72265">
        <ele>172</ele>
        <time>2017-12-23T12:21:13Z</time>
      </trkpt>
      <trkpt lat="45.93611" lon="4.72262">
        <ele>172</ele>
        <time>2017-12-23T12:21:14Z</time>
      </trkpt>
      <trkpt lat="45.93607" lon="4.72258">
        <ele>173</ele>
        <time>2017-12-23T12:21:15Z</time>
      </trkpt>
      <trkpt lat="45.93603" lon="4.72255">
        <ele>173</ele>
        <time>2017-12-23T12:21:16Z</time>
      </trkpt>
      <trkpt lat="45.936" lon="4.72249">
        <ele>173</ele>
        <time>2017-12-23T12:21:17Z</time>
      </trkpt>
      <trkpt lat="45.93596" lon="4.72246">
        <ele>173</ele>
        <time>2017-12-23T12:21:18Z</time>
      </trkpt>
      <trkpt lat="45.9359" lon="4.72242">
        <ele>173</ele>
        <time>2017-12-23T12:21:19Z</time>
      </trkpt>
      <trkpt lat="45.93585" lon="4.72239">
        <ele>173</ele>
        <time>2017-12-23T12:21:20Z</time>
      </trkpt>
      <trkpt lat="45.93579" lon="4.72232">
        <ele>173</ele>
        <time>2017-12-23T12:21:22Z</time>
      </trkpt>
      <trkpt lat="45.93575" lon="4.72228">
        <ele>173</ele>
        <time>2017-12-23T12:21:23Z</time>
      </trkpt>
      <trkpt lat="45.93567" lon="4.72223">
        <ele>173</ele>
        <time>2017-12-23T12:21:27Z</time>
      </trkpt>
      <trkpt lat="45.93567" lon="4.72222">
        <ele>173</ele>
        <time>2017-12-23T12:21:28Z</time>
      </trkpt>
      <trkpt lat="45.93559" lon="4.72221">
        <ele>173</ele>
        <time>2017-12-23T12:21:34Z</time>
      </trkpt>
      <trkpt lat="45.93556" lon="4.72223">
        <ele>173</ele>
        <time>2017-12-23T12:21:35Z</time>
      </trkpt>
      <trkpt lat="45.93549" lon="4.7223">
        <ele>172</ele>
        <time>2017-12-23T12:21:38Z</time>
      </trkpt>
      <trkpt lat="45.93548" lon="4.72232">
        <ele>172</ele>
        <time>2017-12-23T12:21:39Z</time>
      </trkpt>
      <trkpt lat="45.93544" lon="4.72239">
        <ele>172</ele>
        <time>2017-12-23T12:21:41Z</time>
      </trkpt>
      <trkpt lat="45.93541" lon="4.72243">
        <ele>172</ele>
        <time>2017-12-23T12:21:42Z</time>
      </trkpt>
      <trkpt lat="45.93537" lon="4.72252">
        <ele>172</ele>
        <time>2017-12-23T12:21:44Z</time>
      </trkpt>
      <trkpt lat="45.93535" lon="4.72257">
        <ele>172</ele>
        <time>2017-12-23T12:21:45Z</time>
      </trkpt>
      <trkpt lat="45.93533" lon="4.72263">
        <ele>172</ele>
        <time>2017-12-23T12:21:46Z</time>
      </trkpt>
      <trkpt lat="45.93531" lon="4.72269">
        <ele>172</ele>
        <time>2017-12-23T12:21:47Z</time>
      </trkpt>
      <trkpt lat="45.93528" lon="4.72275">
        <ele>172</ele>
        <time>2017-12-23T12:21:48Z</time>
      </trkpt>
      <trkpt lat="45.93526" lon="4.7228">
        <ele>172</ele>
        <time>2017-12-23T12:21:49Z</time>
      </trkpt>
      <trkpt lat="45.93523" lon="4.72287">
        <ele>172</ele>
        <time>2017-12-23T12:21:50Z</time>
      </trkpt>
      <trkpt lat="45.9352" lon="4.72293">
        <ele>172</ele>
        <time>2017-12-23T12:21:51Z</time>
      </trkpt>
      <trkpt lat="45.93516" lon="4.723">
        <ele>172</ele>
        <time>2017-12-23T12:21:52Z</time>
      </trkpt>
      <trkpt lat="45.93512" lon="4.72306">
        <ele>173</ele>
        <time>2017-12-23T12:21:53Z</time>
      </trkpt>
      <trkpt lat="45.93507" lon="4.72312">
        <ele>173</ele>
        <time>2017-12-23T12:21:54Z</time>
      </trkpt>
      <trkpt lat="45.93503" lon="4.72318">
        <ele>173</ele>
        <time>2017-12-23T12:21:55Z</time>
      </trkpt>
      <trkpt lat="45.93498" lon="4.72325">
        <ele>173</ele>
        <time>2017-12-23T12:21:56Z</time>
      </trkpt>
      <trkpt lat="45.93494" lon="4.72331">
        <ele>173</ele>
        <time>2017-12-23T12:21:57Z</time>
      </trkpt>
      <trkpt lat="45.9349" lon="4.72337">
        <ele>173</ele>
        <time>2017-12-23T12:21:58Z</time>
      </trkpt>
      <trkpt lat="45.93485" lon="4.72343">
        <ele>173</ele>
        <time>2017-12-23T12:21:59Z</time>
      </trkpt>
      <trkpt lat="45.9348" lon="4.72349">
        <ele>173</ele>
        <time>2017-12-23T12:22:00Z</time>
      </trkpt>
      <trkpt lat="45.93476" lon="4.72354">
        <ele>173</ele>
        <time>2017-12-23T12:22:01Z</time>
      </trkpt>
      <trkpt lat="45.93472" lon="4.7236">
        <ele>173</ele>
        <time>2017-12-23T12:22:02Z</time>
      </trkpt>
      <trkpt lat="45.93468" lon="4.72366">
        <ele>173</ele>
        <time>2017-12-23T12:22:03Z</time>
      </trkpt>
      <trkpt lat="45.93463" lon="4.72373">
        <ele>173</ele>
        <time>2017-12-23T12:22:04Z</time>
      </trkpt>
      <trkpt lat="45.93458" lon="4.72377">
        <ele>173</ele>
        <time>2017-12-23T12:22:05Z</time>
      </trkpt>
      <trkpt lat="45.93454" lon="4.72383">
        <ele>173</ele>
        <time>2017-12-23T12:22:06Z</time>
      </trkpt>
      <trkpt lat="45.93449" lon="4.72388">
        <ele>173</ele>
        <time>2017-12-23T12:22:07Z</time>
      </trkpt>
      <trkpt lat="45.93444" lon="4.72392">
        <ele>173</ele>
        <time>2017-12-23T12:22:08Z</time>
      </trkpt>
      <trkpt lat="45.93439" lon="4.72395">
        <ele>173</ele>
        <time>2017-12-23T12:22:09Z</time>
      </trkpt>
      <trkpt lat="45.93433" lon="4.72399">
        <ele>174</ele>
        <time>2017-12-23T12:22:10Z</time>
      </trkpt>
      <trkpt lat="45.93427" lon="4.72401">
        <ele>174</ele>
        <time>2017-12-23T12:22:11Z</time>
      </trkpt>
      <trkpt lat="45.93422" lon="4.72404">
        <ele>174</ele>
        <time>2017-12-23T12:22:12Z</time>
      </trkpt>
      <trkpt lat="45.93417" lon="4.72406">
        <ele>174</ele>
        <time>2017-12-23T12:22:13Z</time>
      </trkpt>
      <trkpt lat="45.93413" lon="4.72408">
        <ele>174</ele>
        <time>2017-12-23T12:22:14Z</time>
      </trkpt>
      <trkpt lat="45.93407" lon="4.7241">
        <ele>174</ele>
        <time>2017-12-23T12:22:15Z</time>
      </trkpt>
      <trkpt lat="45.93403" lon="4.7241">
        <ele>174</ele>
        <time>2017-12-23T12:22:16Z</time>
      </trkpt>
      <trkpt lat="45.93397" lon="4.72409">
        <ele>174</ele>
        <time>2017-12-23T12:22:17Z</time>
      </trkpt>
      <trkpt lat="45.93389" lon="4.72412">
        <ele>174</ele>
        <time>2017-12-23T12:22:19Z</time>
      </trkpt>
      <trkpt lat="45.93386" lon="4.72416">
        <ele>174</ele>
        <time>2017-12-23T12:22:20Z</time>
      </trkpt>
      <trkpt lat="45.93384" lon="4.72422">
        <ele>173</ele>
        <time>2017-12-23T12:22:21Z</time>
      </trkpt>
      <trkpt lat="45.93383" lon="4.72429">
        <ele>173</ele>
        <time>2017-12-23T12:22:22Z</time>
      </trkpt>
      <trkpt lat="45.93386" lon="4.72436">
        <ele>173</ele>
        <time>2017-12-23T12:22:23Z</time>
      </trkpt>
      <trkpt lat="45.93389" lon="4.72443">
        <ele>173</ele>
        <time>2017-12-23T12:22:24Z</time>
      </trkpt>
      <trkpt lat="45.93392" lon="4.7245">
        <ele>173</ele>
        <time>2017-12-23T12:22:25Z</time>
      </trkpt>
      <trkpt lat="45.93392" lon="4.72458">
        <ele>173</ele>
        <time>2017-12-23T12:22:26Z</time>
      </trkpt>
      <trkpt lat="45.93389" lon="4.72469">
        <ele>173</ele>
        <time>2017-12-23T12:22:28Z</time>
      </trkpt>
      <trkpt lat="45.93386" lon="4.72475">
        <ele>173</ele>
        <time>2017-12-23T12:22:29Z</time>
      </trkpt>
      <trkpt lat="45.93381" lon="4.7248">
        <ele>173</ele>
        <time>2017-12-23T12:22:30Z</time>
      </trkpt>
      <trkpt lat="45.93377" lon="4.72485">
        <ele>173</ele>
        <time>2017-12-23T12:22:31Z</time>
      </trkpt>
      <trkpt lat="45.93373" lon="4.72489">
        <ele>173</ele>
        <time>2017-12-23T12:22:32Z</time>
      </trkpt>
      <trkpt lat="45.93369" lon="4.72494">
        <ele>173</ele>
        <time>2017-12-23T12:22:33Z</time>
      </trkpt>
      <trkpt lat="45.93365" lon="4.72498">
        <ele>173</ele>
        <time>2017-12-23T12:22:34Z</time>
      </trkpt>
      <trkpt lat="45.9336" lon="4.72503">
        <ele>172</ele>
        <time>2017-12-23T12:22:35Z</time>
      </trkpt>
      <trkpt lat="45.93355" lon="4.72507">
        <ele>172</ele>
        <time>2017-12-23T12:22:36Z</time>
      </trkpt>
      <trkpt lat="45.93351" lon="4.72513">
        <ele>172</ele>
        <time>2017-12-23T12:22:37Z</time>
      </trkpt>
      <trkpt lat="45.93347" lon="4.72518">
        <ele>172</ele>
        <time>2017-12-23T12:22:38Z</time>
      </trkpt>
      <trkpt lat="45.93343" lon="4.72523">
        <ele>172</ele>
        <time>2017-12-23T12:22:39Z</time>
      </trkpt>
      <trkpt lat="45.93338" lon="4.72529">
        <ele>172</ele>
        <time>2017-12-23T12:22:40Z</time>
      </trkpt>
      <trkpt lat="45.93333" lon="4.72535">
        <ele>172</ele>
        <time>2017-12-23T12:22:41Z</time>
      </trkpt>
      <trkpt lat="45.93329" lon="4.72541">
        <ele>172</ele>
        <time>2017-12-23T12:22:42Z</time>
      </trkpt>
      <trkpt lat="45.93325" lon="4.72545">
        <ele>172</ele>
        <time>2017-12-23T12:22:43Z</time>
      </trkpt>
      <trkpt lat="45.93321" lon="4.7255">
        <ele>172</ele>
        <time>2017-12-23T12:22:44Z</time>
      </trkpt>
      <trkpt lat="45.93318" lon="4.72554">
        <ele>172</ele>
        <time>2017-12-23T12:22:45Z</time>
      </trkpt>
      <trkpt lat="45.93311" lon="4.72561">
        <ele>171</ele>
        <time>2017-12-23T12:22:47Z</time>
      </trkpt>
      <trkpt lat="45.93306" lon="4.72567">
        <ele>171</ele>
        <time>2017-12-23T12:22:48Z</time>
      </trkpt>
      <trkpt lat="45.93301" lon="4.72571">
        <ele>171</ele>
        <time>2017-12-23T12:22:49Z</time>
      </trkpt>
      <trkpt lat="45.93296" lon="4.72577">
        <ele>171</ele>
        <time>2017-12-23T12:22:50Z</time>
      </trkpt>
      <trkpt lat="45.93292" lon="4.72583">
        <ele>171</ele>
        <time>2017-12-23T12:22:51Z</time>
      </trkpt>
      <trkpt lat="45.93289" lon="4.72589">
        <ele>170</ele>
        <time>2017-12-23T12:22:52Z</time>
      </trkpt>
      <trkpt lat="45.93283" lon="4.72594">
        <ele>170</ele>
        <time>2017-12-23T12:22:53Z</time>
      </trkpt>
      <trkpt lat="45.93278" lon="4.72598">
        <ele>170</ele>
        <time>2017-12-23T12:22:54Z</time>
      </trkpt>
      <trkpt lat="45.93273" lon="4.72605">
        <ele>170</ele>
        <time>2017-12-23T12:22:55Z</time>
      </trkpt>
      <trkpt lat="45.93268" lon="4.72611">
        <ele>170</ele>
        <time>2017-12-23T12:22:56Z</time>
      </trkpt>
      <trkpt lat="45.93263" lon="4.72618">
        <ele>170</ele>
        <time>2017-12-23T12:22:57Z</time>
      </trkpt>
      <trkpt lat="45.93258" lon="4.72624">
        <ele>170</ele>
        <time>2017-12-23T12:22:58Z</time>
      </trkpt>
      <trkpt lat="45.93256" lon="4.7263">
        <ele>170</ele>
        <time>2017-12-23T12:22:59Z</time>
      </trkpt>
      <trkpt lat="45.93251" lon="4.72635">
        <ele>170</ele>
        <time>2017-12-23T12:23:00Z</time>
      </trkpt>
      <trkpt lat="45.93247" lon="4.72639">
        <ele>170</ele>
        <time>2017-12-23T12:23:01Z</time>
      </trkpt>
      <trkpt lat="45.93242" lon="4.72644">
        <ele>170</ele>
        <time>2017-12-23T12:23:02Z</time>
      </trkpt>
      <trkpt lat="45.93237" lon="4.72649">
        <ele>170</ele>
        <time>2017-12-23T12:23:03Z</time>
      </trkpt>
      <trkpt lat="45.93233" lon="4.72655">
        <ele>169</ele>
        <time>2017-12-23T12:23:04Z</time>
      </trkpt>
      <trkpt lat="45.93228" lon="4.7266">
        <ele>170</ele>
        <time>2017-12-23T12:23:05Z</time>
      </trkpt>
      <trkpt lat="45.93223" lon="4.72665">
        <ele>170</ele>
        <time>2017-12-23T12:23:06Z</time>
      </trkpt>
      <trkpt lat="45.93219" lon="4.72669">
        <ele>169</ele>
        <time>2017-12-23T12:23:07Z</time>
      </trkpt>
      <trkpt lat="45.93214" lon="4.72673">
        <ele>169</ele>
        <time>2017-12-23T12:23:08Z</time>
      </trkpt>
      <trkpt lat="45.93209" lon="4.72678">
        <ele>169</ele>
        <time>2017-12-23T12:23:09Z</time>
      </trkpt>
      <trkpt lat="45.93205" lon="4.72683">
        <ele>169</ele>
        <time>2017-12-23T12:23:10Z</time>
      </trkpt>
      <trkpt lat="45.93201" lon="4.72688">
        <ele>169</ele>
        <time>2017-12-23T12:23:11Z</time>
      </trkpt>
      <trkpt lat="45.93196" lon="4.72694">
        <ele>169</ele>
        <time>2017-12-23T12:23:12Z</time>
      </trkpt>
      <trkpt lat="45.93191" lon="4.727">
        <ele>169</ele>
        <time>2017-12-23T12:23:13Z</time>
      </trkpt>
      <trkpt lat="45.93187" lon="4.72706">
        <ele>169</ele>
        <time>2017-12-23T12:23:14Z</time>
      </trkpt>
      <trkpt lat="45.93183" lon="4.72711">
        <ele>169</ele>
        <time>2017-12-23T12:23:15Z</time>
      </trkpt>
      <trkpt lat="45.93178" lon="4.72716">
        <ele>169</ele>
        <time>2017-12-23T12:23:16Z</time>
      </trkpt>
      <trkpt lat="45.93173" lon="4.72722">
        <ele>170</ele>
        <time>2017-12-23T12:23:17Z</time>
      </trkpt>
      <trkpt lat="45.93168" lon="4.72726">
        <ele>170</ele>
        <time>2017-12-23T12:23:18Z</time>
      </trkpt>
      <trkpt lat="45.93164" lon="4.72733">
        <ele>170</ele>
        <time>2017-12-23T12:23:19Z</time>
      </trkpt>
      <trkpt lat="45.93158" lon="4.72739">
        <ele>170</ele>
        <time>2017-12-23T12:23:20Z</time>
      </trkpt>
      <trkpt lat="45.93154" lon="4.72745">
        <ele>170</ele>
        <time>2017-12-23T12:23:21Z</time>
      </trkpt>
      <trkpt lat="45.93148" lon="4.7275">
        <ele>170</ele>
        <time>2017-12-23T12:23:22Z</time>
      </trkpt>
      <trkpt lat="45.93143" lon="4.72755">
        <ele>171</ele>
        <time>2017-12-23T12:23:23Z</time>
      </trkpt>
      <trkpt lat="45.93138" lon="4.7276">
        <ele>171</ele>
        <time>2017-12-23T12:23:24Z</time>
      </trkpt>
      <trkpt lat="45.93134" lon="4.72766">
        <ele>171</ele>
        <time>2017-12-23T12:23:25Z</time>
      </trkpt>
      <trkpt lat="45.93129" lon="4.72772">
        <ele>171</ele>
        <time>2017-12-23T12:23:26Z</time>
      </trkpt>
      <trkpt lat="45.93125" lon="4.72777">
        <ele>171</ele>
        <time>2017-12-23T12:23:27Z</time>
      </trkpt>
      <trkpt lat="45.9312" lon="4.72783">
        <ele>171</ele>
        <time>2017-12-23T12:23:28Z</time>
      </trkpt>
      <trkpt lat="45.93115" lon="4.72789">
        <ele>171</ele>
        <time>2017-12-23T12:23:29Z</time>
      </trkpt>
      <trkpt lat="45.93111" lon="4.72795">
        <ele>171</ele>
        <time>2017-12-23T12:23:30Z</time>
      </trkpt>
      <trkpt lat="45.93106" lon="4.728">
        <ele>171</ele>
        <time>2017-12-23T12:23:31Z</time>
      </trkpt>
      <trkpt lat="45.93102" lon="4.72806">
        <ele>171</ele>
        <time>2017-12-23T12:23:32Z</time>
      </trkpt>
      <trkpt lat="45.93096" lon="4.72811">
        <ele>172</ele>
        <time>2017-12-23T12:23:33Z</time>
      </trkpt>
      <trkpt lat="45.93091" lon="4.72816">
        <ele>172</ele>
        <time>2017-12-23T12:23:34Z</time>
      </trkpt>
      <trkpt lat="45.93086" lon="4.72821">
        <ele>172</ele>
        <time>2017-12-23T12:23:35Z</time>
      </trkpt>
      <trkpt lat="45.93082" lon="4.72825">
        <ele>173</ele>
        <time>2017-12-23T12:23:36Z</time>
      </trkpt>
      <trkpt lat="45.93084" lon="4.7283">
        <ele>173</ele>
        <time>2017-12-23T12:23:39Z</time>
      </trkpt>
      <trkpt lat="45.93086" lon="4.72838">
        <ele>173</ele>
        <time>2017-12-23T12:23:40Z</time>
      </trkpt>
      <trkpt lat="45.93085" lon="4.72853">
        <ele>172</ele>
        <time>2017-12-23T12:23:41Z</time>
      </trkpt>
      <trkpt lat="45.93074" lon="4.72855">
        <ele>172</ele>
        <time>2017-12-23T12:23:42Z</time>
      </trkpt>
      <trkpt lat="45.93062" lon="4.72857">
        <ele>172</ele>
        <time>2017-12-23T12:23:43Z</time>
      </trkpt>
      <trkpt lat="45.93053" lon="4.72858">
        <ele>172</ele>
        <time>2017-12-23T12:23:44Z</time>
      </trkpt>
      <trkpt lat="45.93048" lon="4.72865">
        <ele>172</ele>
        <time>2017-12-23T12:23:45Z</time>
      </trkpt>
      <trkpt lat="45.93042" lon="4.72872">
        <ele>172</ele>
        <time>2017-12-23T12:23:46Z</time>
      </trkpt>
      <trkpt lat="45.93037" lon="4.72879">
        <ele>172</ele>
        <time>2017-12-23T12:23:47Z</time>
      </trkpt>
      <trkpt lat="45.93032" lon="4.72885">
        <ele>172</ele>
        <time>2017-12-23T12:23:48Z</time>
      </trkpt>
      <trkpt lat="45.93027" lon="4.72891">
        <ele>172</ele>
        <time>2017-12-23T12:23:49Z</time>
      </trkpt>
      <trkpt lat="45.93022" lon="4.72897">
        <ele>172</ele>
        <time>2017-12-23T12:23:50Z</time>
      </trkpt>
      <trkpt lat="45.93018" lon="4.72902">
        <ele>172</ele>
        <time>2017-12-23T12:23:51Z</time>
      </trkpt>
      <trkpt lat="45.93012" lon="4.72907">
        <ele>171</ele>
        <time>2017-12-23T12:23:52Z</time>
      </trkpt>
      <trkpt lat="45.93008" lon="4.72913">
        <ele>171</ele>
        <time>2017-12-23T12:23:53Z</time>
      </trkpt>
      <trkpt lat="45.93003" lon="4.72918">
        <ele>171</ele>
        <time>2017-12-23T12:23:54Z</time>
      </trkpt>
      <trkpt lat="45.92999" lon="4.72925">
        <ele>171</ele>
        <time>2017-12-23T12:23:55Z</time>
      </trkpt>
      <trkpt lat="45.92994" lon="4.7293">
        <ele>171</ele>
        <time>2017-12-23T12:23:56Z</time>
      </trkpt>
      <trkpt lat="45.9299" lon="4.72935">
        <ele>171</ele>
        <time>2017-12-23T12:23:57Z</time>
      </trkpt>
      <trkpt lat="45.92986" lon="4.72941">
        <ele>171</ele>
        <time>2017-12-23T12:23:58Z</time>
      </trkpt>
      <trkpt lat="45.92982" lon="4.72947">
        <ele>171</ele>
        <time>2017-12-23T12:23:59Z</time>
      </trkpt>
      <trkpt lat="45.92978" lon="4.72952">
        <ele>171</ele>
        <time>2017-12-23T12:24:00Z</time>
      </trkpt>
      <trkpt lat="45.92973" lon="4.72957">
        <ele>171</ele>
        <time>2017-12-23T12:24:01Z</time>
      </trkpt>
      <trkpt lat="45.92968" lon="4.72962">
        <ele>171</ele>
        <time>2017-12-23T12:24:02Z</time>
      </trkpt>
      <trkpt lat="45.92964" lon="4.72968">
        <ele>171</ele>
        <time>2017-12-23T12:24:03Z</time>
      </trkpt>
      <trkpt lat="45.9296" lon="4.72974">
        <ele>171</ele>
        <time>2017-12-23T12:24:04Z</time>
      </trkpt>
      <trkpt lat="45.92955" lon="4.72979">
        <ele>171</ele>
        <time>2017-12-23T12:24:05Z</time>
      </trkpt>
      <trkpt lat="45.92951" lon="4.72987">
        <ele>171</ele>
        <time>2017-12-23T12:24:06Z</time>
      </trkpt>
      <trkpt lat="45.92946" lon="4.72992">
        <ele>171</ele>
        <time>2017-12-23T12:24:07Z</time>
      </trkpt>
      <trkpt lat="45.92941" lon="4.72997">
        <ele>171</ele>
        <time>2017-12-23T12:24:08Z</time>
      </trkpt>
      <trkpt lat="45.92937" lon="4.73003">
        <ele>171</ele>
        <time>2017-12-23T12:24:09Z</time>
      </trkpt>
      <trkpt lat="45.92932" lon="4.73008">
        <ele>171</ele>
        <time>2017-12-23T12:24:10Z</time>
      </trkpt>
      <trkpt lat="45.92928" lon="4.73013">
        <ele>172</ele>
        <time>2017-12-23T12:24:11Z</time>
      </trkpt>
      <trkpt lat="45.92923" lon="4.73018">
        <ele>172</ele>
        <time>2017-12-23T12:24:12Z</time>
      </trkpt>
      <trkpt lat="45.92919" lon="4.73024">
        <ele>172</ele>
        <time>2017-12-23T12:24:13Z</time>
      </trkpt>
      <trkpt lat="45.92915" lon="4.7303">
        <ele>172</ele>
        <time>2017-12-23T12:24:14Z</time>
      </trkpt>
      <trkpt lat="45.9291" lon="4.73035">
        <ele>172</ele>
        <time>2017-12-23T12:24:15Z</time>
      </trkpt>
      <trkpt lat="45.92906" lon="4.7304">
        <ele>172</ele>
        <time>2017-12-23T12:24:16Z</time>
      </trkpt>
      <trkpt lat="45.92902" lon="4.73046">
        <ele>172</ele>
        <time>2017-12-23T12:24:17Z</time>
      </trkpt>
      <trkpt lat="45.92899" lon="4.73051">
        <ele>172</ele>
        <time>2017-12-23T12:24:18Z</time>
      </trkpt>
      <trkpt lat="45.92895" lon="4.73056">
        <ele>172</ele>
        <time>2017-12-23T12:24:19Z</time>
      </trkpt>
      <trkpt lat="45.92891" lon="4.73061">
        <ele>172</ele>
        <time>2017-12-23T12:24:20Z</time>
      </trkpt>
      <trkpt lat="45.92888" lon="4.73067">
        <ele>172</ele>
        <time>2017-12-23T12:24:21Z</time>
      </trkpt>
      <trkpt lat="45.92884" lon="4.73073">
        <ele>172</ele>
        <time>2017-12-23T12:24:22Z</time>
      </trkpt>
      <trkpt lat="45.92881" lon="4.73078">
        <ele>172</ele>
        <time>2017-12-23T12:24:23Z</time>
      </trkpt>
      <trkpt lat="45.92878" lon="4.73083">
        <ele>172</ele>
        <time>2017-12-23T12:24:24Z</time>
      </trkpt>
      <trkpt lat="45.92874" lon="4.73088">
        <ele>172</ele>
        <time>2017-12-23T12:24:25Z</time>
      </trkpt>
      <trkpt lat="45.9287" lon="4.73093">
        <ele>172</ele>
        <time>2017-12-23T12:24:26Z</time>
      </trkpt>
      <trkpt lat="45.92866" lon="4.73098">
        <ele>172</ele>
        <time>2017-12-23T12:24:27Z</time>
      </trkpt>
      <trkpt lat="45.92862" lon="4.73101">
        <ele>171</ele>
        <time>2017-12-23T12:24:28Z</time>
      </trkpt>
      <trkpt lat="45.92857" lon="4.73104">
        <ele>171</ele>
        <time>2017-12-23T12:24:29Z</time>
      </trkpt>
      <trkpt lat="45.92852" lon="4.73103">
        <ele>171</ele>
        <time>2017-12-23T12:24:30Z</time>
      </trkpt>
      <trkpt lat="45.92847" lon="4.73094">
        <ele>171</ele>
        <time>2017-12-23T12:24:32Z</time>
      </trkpt>
      <trkpt lat="45.92847" lon="4.73088">
        <ele>171</ele>
        <time>2017-12-23T12:24:33Z</time>
      </trkpt>
      <trkpt lat="45.92846" lon="4.73081">
        <ele>171</ele>
        <time>2017-12-23T12:24:34Z</time>
      </trkpt>
      <trkpt lat="45.92845" lon="4.73074">
        <ele>171</ele>
        <time>2017-12-23T12:24:35Z</time>
      </trkpt>
      <trkpt lat="45.92845" lon="4.73066">
        <ele>171</ele>
        <time>2017-12-23T12:24:36Z</time>
      </trkpt>
      <trkpt lat="45.92844" lon="4.73059">
        <ele>171</ele>
        <time>2017-12-23T12:24:37Z</time>
      </trkpt>
      <trkpt lat="45.92842" lon="4.73051">
        <ele>171</ele>
        <time>2017-12-23T12:24:38Z</time>
      </trkpt>
      <trkpt lat="45.9284" lon="4.73043">
        <ele>171</ele>
        <time>2017-12-23T12:24:39Z</time>
      </trkpt>
      <trkpt lat="45.92838" lon="4.73035">
        <ele>171</ele>
        <time>2017-12-23T12:24:40Z</time>
      </trkpt>
      <trkpt lat="45.92837" lon="4.73027">
        <ele>171</ele>
        <time>2017-12-23T12:24:41Z</time>
      </trkpt>
      <trkpt lat="45.92836" lon="4.73019">
        <ele>171</ele>
        <time>2017-12-23T12:24:42Z</time>
      </trkpt>
      <trkpt lat="45.92834" lon="4.73012">
        <ele>171</ele>
        <time>2017-12-23T12:24:43Z</time>
      </trkpt>
      <trkpt lat="45.92832" lon="4.73003">
        <ele>170</ele>
        <time>2017-12-23T12:24:44Z</time>
      </trkpt>
      <trkpt lat="45.92832" lon="4.72995">
        <ele>170</ele>
        <time>2017-12-23T12:24:45Z</time>
      </trkpt>
      <trkpt lat="45.92831" lon="4.72988">
        <ele>170</ele>
        <time>2017-12-23T12:24:46Z</time>
      </trkpt>
      <trkpt lat="45.92831" lon="4.72981">
        <ele>170</ele>
        <time>2017-12-23T12:24:47Z</time>
      </trkpt>
      <trkpt lat="45.9283" lon="4.72974">
        <ele>170</ele>
        <time>2017-12-23T12:24:48Z</time>
      </trkpt>
      <trkpt lat="45.92829" lon="4.72967">
        <ele>170</ele>
        <time>2017-12-23T12:24:49Z</time>
      </trkpt>
      <trkpt lat="45.92829" lon="4.72959">
        <ele>170</ele>
        <time>2017-12-23T12:24:50Z</time>
      </trkpt>
      <trkpt lat="45.92828" lon="4.72952">
        <ele>170</ele>
        <time>2017-12-23T12:24:51Z</time>
      </trkpt>
      <trkpt lat="45.92828" lon="4.72944">
        <ele>170</ele>
        <time>2017-12-23T12:24:52Z</time>
      </trkpt>
      <trkpt lat="45.92827" lon="4.72937">
        <ele>170</ele>
        <time>2017-12-23T12:24:53Z</time>
      </trkpt>
      <trkpt lat="45.92826" lon="4.72929">
        <ele>170</ele>
        <time>2017-12-23T12:24:54Z</time>
      </trkpt>
      <trkpt lat="45.92825" lon="4.72921">
        <ele>170</ele>
        <time>2017-12-23T12:24:55Z</time>
      </trkpt>
      <trkpt lat="45.92824" lon="4.72913">
        <ele>170</ele>
        <time>2017-12-23T12:24:56Z</time>
      </trkpt>
      <trkpt lat="45.92823" lon="4.72906">
        <ele>170</ele>
        <time>2017-12-23T12:24:57Z</time>
      </trkpt>
      <trkpt lat="45.92822" lon="4.72899">
        <ele>170</ele>
        <time>2017-12-23T12:24:58Z</time>
      </trkpt>
      <trkpt lat="45.9282" lon="4.7289">
        <ele>170</ele>
        <time>2017-12-23T12:24:59Z</time>
      </trkpt>
      <trkpt lat="45.92819" lon="4.72882">
        <ele>170</ele>
        <time>2017-12-23T12:25:00Z</time>
      </trkpt>
      <trkpt lat="45.92818" lon="4.72874">
        <ele>170</ele>
        <time>2017-12-23T12:25:01Z</time>
      </trkpt>
      <trkpt lat="45.92816" lon="4.72866">
        <ele>170</ele>
        <time>2017-12-23T12:25:02Z</time>
      </trkpt>
      <trkpt lat="45.92814" lon="4.72859">
        <ele>170</ele>
        <time>2017-12-23T12:25:03Z</time>
      </trkpt>
      <trkpt lat="45.92812" lon="4.72852">
        <ele>170</ele>
        <time>2017-12-23T12:25:04Z</time>
      </trkpt>
      <trkpt lat="45.9281" lon="4.72845">
        <ele>170</ele>
        <time>2017-12-23T12:25:05Z</time>
      </trkpt>
      <trkpt lat="45.92809" lon="4.72837">
        <ele>170</ele>
        <time>2017-12-23T12:25:06Z</time>
      </trkpt>
      <trkpt lat="45.92808" lon="4.72831">
        <ele>171</ele>
        <time>2017-12-23T12:25:07Z</time>
      </trkpt>
      <trkpt lat="45.92806" lon="4.72818">
        <ele>171</ele>
        <time>2017-12-23T12:25:09Z</time>
      </trkpt>
      <trkpt lat="45.92805" lon="4.72812">
        <ele>171</ele>
        <time>2017-12-23T12:25:10Z</time>
      </trkpt>
      <trkpt lat="45.92803" lon="4.728">
        <ele>171</ele>
        <time>2017-12-23T12:25:12Z</time>
      </trkpt>
      <trkpt lat="45.92802" lon="4.72795">
        <ele>171</ele>
        <time>2017-12-23T12:25:13Z</time>
      </trkpt>
      <trkpt lat="45.92796" lon="4.72788">
        <ele>171</ele>
        <time>2017-12-23T12:25:15Z</time>
      </trkpt>
      <trkpt lat="45.92791" lon="4.72789">
        <ele>171</ele>
        <time>2017-12-23T12:25:16Z</time>
      </trkpt>
      <trkpt lat="45.92787" lon="4.7279">
        <ele>170</ele>
        <time>2017-12-23T12:25:17Z</time>
      </trkpt>
      <trkpt lat="45.92783" lon="4.72794">
        <ele>170</ele>
        <time>2017-12-23T12:25:18Z</time>
      </trkpt>
      <trkpt lat="45.92779" lon="4.72797">
        <ele>170</ele>
        <time>2017-12-23T12:25:19Z</time>
      </trkpt>
      <trkpt lat="45.92774" lon="4.728">
        <ele>170</ele>
        <time>2017-12-23T12:25:20Z</time>
      </trkpt>
      <trkpt lat="45.9277" lon="4.72804">
        <ele>170</ele>
        <time>2017-12-23T12:25:21Z</time>
      </trkpt>
      <trkpt lat="45.92765" lon="4.72809">
        <ele>170</ele>
        <time>2017-12-23T12:25:22Z</time>
      </trkpt>
      <trkpt lat="45.92761" lon="4.72813">
        <ele>170</ele>
        <time>2017-12-23T12:25:23Z</time>
      </trkpt>
      <trkpt lat="45.92756" lon="4.72816">
        <ele>170</ele>
        <time>2017-12-23T12:25:24Z</time>
      </trkpt>
      <trkpt lat="45.9275" lon="4.7282">
        <ele>170</ele>
        <time>2017-12-23T12:25:25Z</time>
      </trkpt>
      <trkpt lat="45.92746" lon="4.72824">
        <ele>169</ele>
        <time>2017-12-23T12:25:26Z</time>
      </trkpt>
      <trkpt lat="45.9274" lon="4.72828">
        <ele>169</ele>
        <time>2017-12-23T12:25:27Z</time>
      </trkpt>
      <trkpt lat="45.92735" lon="4.72832">
        <ele>169</ele>
        <time>2017-12-23T12:25:28Z</time>
      </trkpt>
      <trkpt lat="45.9273" lon="4.72836">
        <ele>169</ele>
        <time>2017-12-23T12:25:29Z</time>
      </trkpt>
      <trkpt lat="45.92725" lon="4.72841">
        <ele>169</ele>
        <time>2017-12-23T12:25:30Z</time>
      </trkpt>
      <trkpt lat="45.9272" lon="4.72846">
        <ele>169</ele>
        <time>2017-12-23T12:25:31Z</time>
      </trkpt>
      <trkpt lat="45.92715" lon="4.72851">
        <ele>169</ele>
        <time>2017-12-23T12:25:32Z</time>
      </trkpt>
      <trkpt lat="45.9271" lon="4.72854">
        <ele>169</ele>
        <time>2017-12-23T12:25:33Z</time>
      </trkpt>
      <trkpt lat="45.92704" lon="4.72858">
        <ele>169</ele>
        <time>2017-12-23T12:25:34Z</time>
      </trkpt>
      <trkpt lat="45.92699" lon="4.72862">
        <ele>169</ele>
        <time>2017-12-23T12:25:35Z</time>
      </trkpt>
      <trkpt lat="45.92693" lon="4.72866">
        <ele>169</ele>
        <time>2017-12-23T12:25:36Z</time>
      </trkpt>
      <trkpt lat="45.92687" lon="4.7287">
        <ele>169</ele>
        <time>2017-12-23T12:25:37Z</time>
      </trkpt>
      <trkpt lat="45.92683" lon="4.72874">
        <ele>169</ele>
        <time>2017-12-23T12:25:38Z</time>
      </trkpt>
      <trkpt lat="45.92677" lon="4.72878">
        <ele>170</ele>
        <time>2017-12-23T12:25:39Z</time>
      </trkpt>
      <trkpt lat="45.92673" lon="4.72882">
        <ele>170</ele>
        <time>2017-12-23T12:25:40Z</time>
      </trkpt>
      <trkpt lat="45.92668" lon="4.72885">
        <ele>170</ele>
        <time>2017-12-23T12:25:41Z</time>
      </trkpt>
      <trkpt lat="45.92664" lon="4.72891">
        <ele>169</ele>
        <time>2017-12-23T12:25:42Z</time>
      </trkpt>
      <trkpt lat="45.92658" lon="4.72894">
        <ele>170</ele>
        <time>2017-12-23T12:25:43Z</time>
      </trkpt>
      <trkpt lat="45.92653" lon="4.72898">
        <ele>170</ele>
        <time>2017-12-23T12:25:44Z</time>
      </trkpt>
      <trkpt lat="45.92648" lon="4.72903">
        <ele>170</ele>
        <time>2017-12-23T12:25:45Z</time>
      </trkpt>
      <trkpt lat="45.92642" lon="4.72908">
        <ele>169</ele>
        <time>2017-12-23T12:25:46Z</time>
      </trkpt>
      <trkpt lat="45.92637" lon="4.72912">
        <ele>169</ele>
        <time>2017-12-23T12:25:47Z</time>
      </trkpt>
      <trkpt lat="45.92631" lon="4.72917">
        <ele>170</ele>
        <time>2017-12-23T12:25:48Z</time>
      </trkpt>
      <trkpt lat="45.92626" lon="4.72922">
        <ele>170</ele>
        <time>2017-12-23T12:25:49Z</time>
      </trkpt>
      <trkpt lat="45.92622" lon="4.72925">
        <ele>169</ele>
        <time>2017-12-23T12:25:50Z</time>
      </trkpt>
      <trkpt lat="45.92615" lon="4.7293">
        <ele>169</ele>
        <time>2017-12-23T12:25:51Z</time>
      </trkpt>
      <trkpt lat="45.92609" lon="4.72935">
        <ele>169</ele>
        <time>2017-12-23T12:25:52Z</time>
      </trkpt>
      <trkpt lat="45.92603" lon="4.72941">
        <ele>169</ele>
        <time>2017-12-23T12:25:53Z</time>
      </trkpt>
      <trkpt lat="45.92597" lon="4.72947">
        <ele>169</ele>
        <time>2017-12-23T12:25:54Z</time>
      </trkpt>
      <trkpt lat="45.92592" lon="4.72953">
        <ele>169</ele>
        <time>2017-12-23T12:25:55Z</time>
      </trkpt>
      <trkpt lat="45.92587" lon="4.7296">
        <ele>169</ele>
        <time>2017-12-23T12:25:56Z</time>
      </trkpt>
      <trkpt lat="45.92582" lon="4.72967">
        <ele>169</ele>
        <time>2017-12-23T12:25:57Z</time>
      </trkpt>
      <trkpt lat="45.92577" lon="4.72973">
        <ele>169</ele>
        <time>2017-12-23T12:25:58Z</time>
      </trkpt>
      <trkpt lat="45.92572" lon="4.72978">
        <ele>169</ele>
        <time>2017-12-23T12:25:59Z</time>
      </trkpt>
      <trkpt lat="45.92567" lon="4.72982">
        <ele>169</ele>
        <time>2017-12-23T12:26:00Z</time>
      </trkpt>
      <trkpt lat="45.92562" lon="4.72988">
        <ele>169</ele>
        <time>2017-12-23T12:26:01Z</time>
      </trkpt>
      <trkpt lat="45.92558" lon="4.72993">
        <ele>169</ele>
        <time>2017-12-23T12:26:02Z</time>
      </trkpt>
      <trkpt lat="45.92553" lon="4.72999">
        <ele>169</ele>
        <time>2017-12-23T12:26:03Z</time>
      </trkpt>
      <trkpt lat="45.92549" lon="4.73003">
        <ele>169</ele>
        <time>2017-12-23T12:26:04Z</time>
      </trkpt>
      <trkpt lat="45.92544" lon="4.73008">
        <ele>169</ele>
        <time>2017-12-23T12:26:05Z</time>
      </trkpt>
      <trkpt lat="45.92538" lon="4.73013">
        <ele>169</ele>
        <time>2017-12-23T12:26:06Z</time>
      </trkpt>
      <trkpt lat="45.92533" lon="4.73018">
        <ele>169</ele>
        <time>2017-12-23T12:26:07Z</time>
      </trkpt>
      <trkpt lat="45.92528" lon="4.73022">
        <ele>169</ele>
        <time>2017-12-23T12:26:08Z</time>
      </trkpt>
      <trkpt lat="45.92523" lon="4.73028">
        <ele>169</ele>
        <time>2017-12-23T12:26:09Z</time>
      </trkpt>
      <trkpt lat="45.92517" lon="4.73032">
        <ele>169</ele>
        <time>2017-12-23T12:26:10Z</time>
      </trkpt>
      <trkpt lat="45.92511" lon="4.73035">
        <ele>169</ele>
        <time>2017-12-23T12:26:11Z</time>
      </trkpt>
      <trkpt lat="45.92506" lon="4.7304">
        <ele>169</ele>
        <time>2017-12-23T12:26:12Z</time>
      </trkpt>
      <trkpt lat="45.92501" lon="4.73044">
        <ele>170</ele>
        <time>2017-12-23T12:26:13Z</time>
      </trkpt>
      <trkpt lat="45.92495" lon="4.73049">
        <ele>170</ele>
        <time>2017-12-23T12:26:14Z</time>
      </trkpt>
      <trkpt lat="45.9249" lon="4.73054">
        <ele>170</ele>
        <time>2017-12-23T12:26:15Z</time>
      </trkpt>
      <trkpt lat="45.92484" lon="4.73059">
        <ele>170</ele>
        <time>2017-12-23T12:26:16Z</time>
      </trkpt>
      <trkpt lat="45.92479" lon="4.73063">
        <ele>170</ele>
        <time>2017-12-23T12:26:17Z</time>
      </trkpt>
      <trkpt lat="45.92473" lon="4.73068">
        <ele>170</ele>
        <time>2017-12-23T12:26:18Z</time>
      </trkpt>
      <trkpt lat="45.92468" lon="4.73073">
        <ele>170</ele>
        <time>2017-12-23T12:26:19Z</time>
      </trkpt>
      <trkpt lat="45.92462" lon="4.73079">
        <ele>170</ele>
        <time>2017-12-23T12:26:20Z</time>
      </trkpt>
      <trkpt lat="45.92456" lon="4.73083">
        <ele>170</ele>
        <time>2017-12-23T12:26:21Z</time>
      </trkpt>
      <trkpt lat="45.92451" lon="4.73086">
        <ele>170</ele>
        <time>2017-12-23T12:26:22Z</time>
      </trkpt>
      <trkpt lat="45.92447" lon="4.73091">
        <ele>170</ele>
        <time>2017-12-23T12:26:23Z</time>
      </trkpt>
      <trkpt lat="45.92442" lon="4.73095">
        <ele>170</ele>
        <time>2017-12-23T12:26:24Z</time>
      </trkpt>
      <trkpt lat="45.92437" lon="4.73099">
        <ele>170</ele>
        <time>2017-12-23T12:26:25Z</time>
      </trkpt>
      <trkpt lat="45.92433" lon="4.73103">
        <ele>170</ele>
        <time>2017-12-23T12:26:26Z</time>
      </trkpt>
      <trkpt lat="45.92429" lon="4.73106">
        <ele>170</ele>
        <time>2017-12-23T12:26:27Z</time>
      </trkpt>
      <trkpt lat="45.92424" lon="4.73109">
        <ele>170</ele>
        <time>2017-12-23T12:26:28Z</time>
      </trkpt>
      <trkpt lat="45.9242" lon="4.73114">
        <ele>170</ele>
        <time>2017-12-23T12:26:29Z</time>
      </trkpt>
      <trkpt lat="45.92417" lon="4.73118">
        <ele>170</ele>
        <time>2017-12-23T12:26:30Z</time>
      </trkpt>
      <trkpt lat="45.92414" lon="4.73125">
        <ele>171</ele>
        <time>2017-12-23T12:26:31Z</time>
      </trkpt>
      <trkpt lat="45.92413" lon="4.73133">
        <ele>171</ele>
        <time>2017-12-23T12:26:32Z</time>
      </trkpt>
      <trkpt lat="45.92412" lon="4.73142">
        <ele>171</ele>
        <time>2017-12-23T12:26:33Z</time>
      </trkpt>
      <trkpt lat="45.92411" lon="4.7315">
        <ele>171</ele>
        <time>2017-12-23T12:26:34Z</time>
      </trkpt>
      <trkpt lat="45.92411" lon="4.73159">
        <ele>170</ele>
        <time>2017-12-23T12:26:35Z</time>
      </trkpt>
      <trkpt lat="45.92411" lon="4.73167">
        <ele>170</ele>
        <time>2017-12-23T12:26:36Z</time>
      </trkpt>
      <trkpt lat="45.92411" lon="4.73175">
        <ele>170</ele>
        <time>2017-12-23T12:26:37Z</time>
      </trkpt>
      <trkpt lat="45.9241" lon="4.73184">
        <ele>171</ele>
        <time>2017-12-23T12:26:38Z</time>
      </trkpt>
      <trkpt lat="45.9241" lon="4.73192">
        <ele>171</ele>
        <time>2017-12-23T12:26:39Z</time>
      </trkpt>
      <trkpt lat="45.92409" lon="4.73199">
        <ele>171</ele>
        <time>2017-12-23T12:26:40Z</time>
      </trkpt>
      <trkpt lat="45.9241" lon="4.73207">
        <ele>171</ele>
        <time>2017-12-23T12:26:41Z</time>
      </trkpt>
      <trkpt lat="45.9241" lon="4.73214">
        <ele>171</ele>
        <time>2017-12-23T12:26:42Z</time>
      </trkpt>
      <trkpt lat="45.9241" lon="4.73222">
        <ele>171</ele>
        <time>2017-12-23T12:26:43Z</time>
      </trkpt>
      <trkpt lat="45.9241" lon="4.73229">
        <ele>171</ele>
        <time>2017-12-23T12:26:44Z</time>
      </trkpt>
      <trkpt lat="45.92409" lon="4.73237">
        <ele>171</ele>
        <time>2017-12-23T12:26:45Z</time>
      </trkpt>
      <trkpt lat="45.9241" lon="4.73244">
        <ele>171</ele>
        <time>2017-12-23T12:26:46Z</time>
      </trkpt>
      <trkpt lat="45.9241" lon="4.73251">
        <ele>171</ele>
        <time>2017-12-23T12:26:47Z</time>
      </trkpt>
      <trkpt lat="45.9241" lon="4.73259">
        <ele>171</ele>
        <time>2017-12-23T12:26:48Z</time>
      </trkpt>
      <trkpt lat="45.9241" lon="4.73268">
        <ele>171</ele>
        <time>2017-12-23T12:26:49Z</time>
      </trkpt>
      <trkpt lat="45.92411" lon="4.73275">
        <ele>171</ele>
        <time>2017-12-23T12:26:50Z</time>
      </trkpt>
      <trkpt lat="45.92411" lon="4.73283">
        <ele>171</ele>
        <time>2017-12-23T12:26:51Z</time>
      </trkpt>
      <trkpt lat="45.92412" lon="4.7329">
        <ele>171</ele>
        <time>2017-12-23T12:26:52Z</time>
      </trkpt>
      <trkpt lat="45.92412" lon="4.73298">
        <ele>171</ele>
        <time>2017-12-23T12:26:53Z</time>
      </trkpt>
      <trkpt lat="45.92412" lon="4.73304">
        <ele>171</ele>
        <time>2017-12-23T12:26:54Z</time>
      </trkpt>
      <trkpt lat="45.92412" lon="4.73312">
        <ele>171</ele>
        <time>2017-12-23T12:26:55Z</time>
      </trkpt>
      <trkpt lat="45.92412" lon="4.7332">
        <ele>171</ele>
        <time>2017-12-23T12:26:56Z</time>
      </trkpt>
      <trkpt lat="45.92413" lon="4.73327">
        <ele>171</ele>
        <time>2017-12-23T12:26:57Z</time>
      </trkpt>
      <trkpt lat="45.92414" lon="4.73334">
        <ele>171</ele>
        <time>2017-12-23T12:26:58Z</time>
      </trkpt>
      <trkpt lat="45.92415" lon="4.73342">
        <ele>171</ele>
        <time>2017-12-23T12:26:59Z</time>
      </trkpt>
      <trkpt lat="45.92417" lon="4.73349">
        <ele>171</ele>
        <time>2017-12-23T12:27:00Z</time>
      </trkpt>
      <trkpt lat="45.92417" lon="4.73357">
        <ele>171</ele>
        <time>2017-12-23T12:27:01Z</time>
      </trkpt>
      <trkpt lat="45.92418" lon="4.73364">
        <ele>172</ele>
        <time>2017-12-23T12:27:02Z</time>
      </trkpt>
      <trkpt lat="45.92418" lon="4.73371">
        <ele>172</ele>
        <time>2017-12-23T12:27:03Z</time>
      </trkpt>
      <trkpt lat="45.92418" lon="4.73377">
        <ele>172</ele>
        <time>2017-12-23T12:27:04Z</time>
      </trkpt>
      <trkpt lat="45.9242" lon="4.73385">
        <ele>172</ele>
        <time>2017-12-23T12:27:05Z</time>
      </trkpt>
      <trkpt lat="45.92422" lon="4.73391">
        <ele>172</ele>
        <time>2017-12-23T12:27:06Z</time>
      </trkpt>
      <trkpt lat="45.92424" lon="4.73397">
        <ele>172</ele>
        <time>2017-12-23T12:27:07Z</time>
      </trkpt>
      <trkpt lat="45.92426" lon="4.73403">
        <ele>172</ele>
        <time>2017-12-23T12:27:08Z</time>
      </trkpt>
      <trkpt lat="45.92429" lon="4.73408">
        <ele>172</ele>
        <time>2017-12-23T12:27:09Z</time>
      </trkpt>
      <trkpt lat="45.92434" lon="4.73411">
        <ele>172</ele>
        <time>2017-12-23T12:27:10Z</time>
      </trkpt>
      <trkpt lat="45.92437" lon="4.73415">
        <ele>172</ele>
        <time>2017-12-23T12:27:11Z</time>
      </trkpt>
      <trkpt lat="45.92441" lon="4.73419">
        <ele>173</ele>
        <time>2017-12-23T12:27:12Z</time>
      </trkpt>
      <trkpt lat="45.92445" lon="4.73421">
        <ele>173</ele>
        <time>2017-12-23T12:27:13Z</time>
      </trkpt>
      <trkpt lat="45.92449" lon="4.73425">
        <ele>173</ele>
        <time>2017-12-23T12:27:14Z</time>
      </trkpt>
      <trkpt lat="45.92453" lon="4.73431">
        <ele>173</ele>
        <time>2017-12-23T12:27:15Z</time>
      </trkpt>
      <trkpt lat="45.92456" lon="4.73437">
        <ele>173</ele>
        <time>2017-12-23T12:27:16Z</time>
      </trkpt>
      <trkpt lat="45.92459" lon="4.73442">
        <ele>173</ele>
        <time>2017-12-23T12:27:17Z</time>
      </trkpt>
      <trkpt lat="45.92462" lon="4.73448">
        <ele>173</ele>
        <time>2017-12-23T12:27:18Z</time>
      </trkpt>
      <trkpt lat="45.92463" lon="4.73456">
        <ele>173</ele>
        <time>2017-12-23T12:27:19Z</time>
      </trkpt>
      <trkpt lat="45.92464" lon="4.73463">
        <ele>173</ele>
        <time>2017-12-23T12:27:20Z</time>
      </trkpt>
      <trkpt lat="45.92465" lon="4.7347">
        <ele>173</ele>
        <time>2017-12-23T12:27:21Z</time>
      </trkpt>
      <trkpt lat="45.92465" lon="4.73476">
        <ele>173</ele>
        <time>2017-12-23T12:27:22Z</time>
      </trkpt>
      <trkpt lat="45.92465" lon="4.73483">
        <ele>173</ele>
        <time>2017-12-23T12:27:23Z</time>
      </trkpt>
      <trkpt lat="45.92466" lon="4.73492">
        <ele>173</ele>
        <time>2017-12-23T12:27:24Z</time>
      </trkpt>
      <trkpt lat="45.92468" lon="4.73499">
        <ele>173</ele>
        <time>2017-12-23T12:27:25Z</time>
      </trkpt>
      <trkpt lat="45.92467" lon="4.73506">
        <ele>174</ele>
        <time>2017-12-23T12:27:26Z</time>
      </trkpt>
      <trkpt lat="45.92467" lon="4.73518">
        <ele>174</ele>
        <time>2017-12-23T12:27:28Z</time>
      </trkpt>
      <trkpt lat="45.92468" lon="4.73525">
        <ele>174</ele>
        <time>2017-12-23T12:27:29Z</time>
      </trkpt>
      <trkpt lat="45.92468" lon="4.73537">
        <ele>174</ele>
        <time>2017-12-23T12:27:31Z</time>
      </trkpt>
      <trkpt lat="45.92467" lon="4.73542">
        <ele>173</ele>
        <time>2017-12-23T12:27:32Z</time>
      </trkpt>
      <trkpt lat="45.92467" lon="4.73551">
        <ele>173</ele>
        <time>2017-12-23T12:27:34Z</time>
      </trkpt>
      <trkpt lat="45.92466" lon="4.73556">
        <ele>173</ele>
        <time>2017-12-23T12:27:35Z</time>
      </trkpt>
      <trkpt lat="45.92466" lon="4.73568">
        <ele>173</ele>
        <time>2017-12-23T12:27:37Z</time>
      </trkpt>
      <trkpt lat="45.92466" lon="4.73574">
        <ele>173</ele>
        <time>2017-12-23T12:27:38Z</time>
      </trkpt>
      <trkpt lat="45.92467" lon="4.73581">
        <ele>173</ele>
        <time>2017-12-23T12:27:39Z</time>
      </trkpt>
      <trkpt lat="45.92467" lon="4.73587">
        <ele>174</ele>
        <time>2017-12-23T12:27:40Z</time>
      </trkpt>
      <trkpt lat="45.92467" lon="4.73593">
        <ele>174</ele>
        <time>2017-12-23T12:27:41Z</time>
      </trkpt>
      <trkpt lat="45.92467" lon="4.736">
        <ele>174</ele>
        <time>2017-12-23T12:27:42Z</time>
      </trkpt>
      <trkpt lat="45.92467" lon="4.73606">
        <ele>174</ele>
        <time>2017-12-23T12:27:43Z</time>
      </trkpt>
      <trkpt lat="45.92468" lon="4.73614">
        <ele>174</ele>
        <time>2017-12-23T12:27:44Z</time>
      </trkpt>
      <trkpt lat="45.92469" lon="4.73621">
        <ele>174</ele>
        <time>2017-12-23T12:27:45Z</time>
      </trkpt>
      <trkpt lat="45.92469" lon="4.73627">
        <ele>174</ele>
        <time>2017-12-23T12:27:46Z</time>
      </trkpt>
      <trkpt lat="45.92469" lon="4.73639">
        <ele>174</ele>
        <time>2017-12-23T12:27:48Z</time>
      </trkpt>
      <trkpt lat="45.92469" lon="4.73646">
        <ele>174</ele>
        <time>2017-12-23T12:27:49Z</time>
      </trkpt>
      <trkpt lat="45.92469" lon="4.73658">
        <ele>174</ele>
        <time>2017-12-23T12:27:51Z</time>
      </trkpt>
      <trkpt lat="45.92469" lon="4.73665">
        <ele>174</ele>
        <time>2017-12-23T12:27:52Z</time>
      </trkpt>
      <trkpt lat="45.92468" lon="4.73677">
        <ele>174</ele>
        <time>2017-12-23T12:27:54Z</time>
      </trkpt>
      <trkpt lat="45.92468" lon="4.73683">
        <ele>174</ele>
        <time>2017-12-23T12:27:55Z</time>
      </trkpt>
      <trkpt lat="45.92468" lon="4.73694">
        <ele>174</ele>
        <time>2017-12-23T12:27:57Z</time>
      </trkpt>
      <trkpt lat="45.92468" lon="4.73699">
        <ele>174</ele>
        <time>2017-12-23T12:27:58Z</time>
      </trkpt>
      <trkpt lat="45.92469" lon="4.73711">
        <ele>174</ele>
        <time>2017-12-23T12:28:12Z</time>
      </trkpt>
      <trkpt lat="45.92469" lon="4.73712">
        <ele>174</ele>
        <time>2017-12-23T12:28:13Z</time>
      </trkpt>
      <trkpt lat="45.9246" lon="4.7371">
        <ele>174</ele>
        <time>2017-12-23T12:28:45.92Z</time>
      </trkpt>
    </trkseg>
  </trk>
</gpx>